<?xml version='1.0' encoding='UTF-8'?><gpx version="1.1" creator="JPX - https://github.com/jenetics/jpx" xmlns="http://www.topografix.com/GPX/1/1"><trk><trkseg><trkpt lat="43.8511748" lon="11.186487"><ele>89.0</ele><time>2026-05-02T04:59:56.653Z</time></trkpt><trkpt lat="43.8512259" lon="11.1866119"><ele>90.0</ele><time>2026-05-02T04:59:58.651Z</time></trkpt><trkpt lat="43.8512881" lon="11.1867689"><ele>91.0</ele><time>2026-05-02T05:00:00.652Z</time></trkpt><trkpt lat="43.8513307" lon="11.1868587"><ele>92.0</ele><time>2026-05-02T05:00:01.661Z</time></trkpt><trkpt lat="43.851368" lon="11.1869559"><ele>93.0</ele><time>2026-05-02T05:00:02.653Z</time></trkpt><trkpt lat="43.851413" lon="11.187052"><ele>93.0</ele><time>2026-05-02T05:00:03.664Z</time></trkpt><trkpt lat="43.8514611" lon="11.1871513"><ele>93.0</ele><time>2026-05-02T05:00:04.655Z</time></trkpt><trkpt lat="43.8515095" lon="11.1872484"><ele>93.0</ele><time>2026-05-02T05:00:05.643Z</time></trkpt><trkpt lat="43.8515562" lon="11.1873525"><ele>93.0</ele><time>2026-05-02T05:00:06.649Z</time></trkpt><trkpt lat="43.8515993" lon="11.1874637"><ele>93.0</ele><time>2026-05-02T05:00:07.647Z</time></trkpt><trkpt lat="43.851643" lon="11.1875737"><ele>93.0</ele><time>2026-05-02T05:00:08.649Z</time></trkpt><trkpt lat="43.8516787" lon="11.1876798"><ele>94.2</ele><time>2026-05-02T05:00:09.653Z</time></trkpt><trkpt lat="43.8516997" lon="11.1877756"><ele>95.4</ele><time>2026-05-02T05:00:10.658Z</time></trkpt><trkpt lat="43.8516313" lon="11.1878956"><ele>96.60000000000001</ele><time>2026-05-02T05:00:12.645Z</time></trkpt><trkpt lat="43.8515113" lon="11.1878204"><ele>97.80000000000001</ele><time>2026-05-02T05:00:14.651Z</time></trkpt><trkpt lat="43.8514582" lon="11.1877396"><ele>99.0</ele><time>2026-05-02T05:00:15.66Z</time></trkpt><trkpt lat="43.8513935" lon="11.1876677"><ele>99.0</ele><time>2026-05-02T05:00:16.65Z</time></trkpt><trkpt lat="43.8513127" lon="11.1875969"><ele>99.0</ele><time>2026-05-02T05:00:17.656Z</time></trkpt><trkpt lat="43.8512271" lon="11.1875233"><ele>99.0</ele><time>2026-05-02T05:00:18.649Z</time></trkpt><trkpt lat="43.8511481" lon="11.1874435"><ele>99.0</ele><time>2026-05-02T05:00:19.651Z</time></trkpt><trkpt lat="43.8510647" lon="11.1873871"><ele>99.0</ele><time>2026-05-02T05:00:20.648Z</time></trkpt><trkpt lat="43.8509879" lon="11.1873349"><ele>100.0</ele><time>2026-05-02T05:00:21.651Z</time></trkpt><trkpt lat="43.8509157" lon="11.1872646"><ele>101.0</ele><time>2026-05-02T05:00:22.649Z</time></trkpt><trkpt lat="43.8508454" lon="11.1871992"><ele>102.0</ele><time>2026-05-02T05:00:23.65Z</time></trkpt><trkpt lat="43.8507671" lon="11.1871348"><ele>103.0</ele><time>2026-05-02T05:00:24.65Z</time></trkpt><trkpt lat="43.8506852" lon="11.1870617"><ele>104.0</ele><time>2026-05-02T05:00:25.661Z</time></trkpt><trkpt lat="43.8506001" lon="11.1869795"><ele>104.0</ele><time>2026-05-02T05:00:26.651Z</time></trkpt><trkpt lat="43.8505163" lon="11.1868901"><ele>104.0</ele><time>2026-05-02T05:00:27.648Z</time></trkpt><trkpt lat="43.8504302" lon="11.1867929"><ele>104.0</ele><time>2026-05-02T05:00:28.647Z</time></trkpt><trkpt lat="43.8503483" lon="11.1867072"><ele>104.0</ele><time>2026-05-02T05:00:29.65Z</time></trkpt><trkpt lat="43.8502641" lon="11.1866442"><ele>104.0</ele><time>2026-05-02T05:00:30.652Z</time></trkpt><trkpt lat="43.8501743" lon="11.1865817"><ele>107.4</ele><time>2026-05-02T05:00:31.653Z</time></trkpt><trkpt lat="43.8500824" lon="11.1865329"><ele>110.80000000000001</ele><time>2026-05-02T05:00:32.655Z</time></trkpt><trkpt lat="43.8499842" lon="11.1865212"><ele>114.19999999999999</ele><time>2026-05-02T05:00:33.655Z</time></trkpt><trkpt lat="43.8498864" lon="11.1865321"><ele>117.6</ele><time>2026-05-02T05:00:34.655Z</time></trkpt><trkpt lat="43.849798" lon="11.1865711"><ele>121.0</ele><time>2026-05-02T05:00:35.653Z</time></trkpt><trkpt lat="43.8497084" lon="11.1866139"><ele>121.0</ele><time>2026-05-02T05:00:36.646Z</time></trkpt><trkpt lat="43.8496053" lon="11.1866619"><ele>121.0</ele><time>2026-05-02T05:00:37.653Z</time></trkpt><trkpt lat="43.8495055" lon="11.1867269"><ele>121.0</ele><time>2026-05-02T05:00:38.646Z</time></trkpt><trkpt lat="43.8494198" lon="11.1868114"><ele>121.0</ele><time>2026-05-02T05:00:39.648Z</time></trkpt><trkpt lat="43.8493313" lon="11.1868833"><ele>121.0</ele><time>2026-05-02T05:00:40.647Z</time></trkpt><trkpt lat="43.8492338" lon="11.1869605"><ele>120.8</ele><time>2026-05-02T05:00:41.648Z</time></trkpt><trkpt lat="43.8491424" lon="11.1870502"><ele>120.6</ele><time>2026-05-02T05:00:42.651Z</time></trkpt><trkpt lat="43.8490646" lon="11.1871641"><ele>120.4</ele><time>2026-05-02T05:00:43.652Z</time></trkpt><trkpt lat="43.8490046" lon="11.1872929"><ele>120.2</ele><time>2026-05-02T05:00:44.649Z</time></trkpt><trkpt lat="43.8489515" lon="11.1874073"><ele>120.0</ele><time>2026-05-02T05:00:45.653Z</time></trkpt><trkpt lat="43.8489009" lon="11.187497"><ele>123.8</ele><time>2026-05-02T05:00:46.654Z</time></trkpt><trkpt lat="43.848869" lon="11.1876256"><ele>127.6</ele><time>2026-05-02T05:00:48.65Z</time></trkpt><trkpt lat="43.8489722" lon="11.1875863"><ele>131.4</ele><time>2026-05-02T05:00:51.652Z</time></trkpt><trkpt lat="43.8491094" lon="11.1875649"><ele>135.2</ele><time>2026-05-02T05:00:53.653Z</time></trkpt><trkpt lat="43.8491798" lon="11.1875832"><ele>139.0</ele><time>2026-05-02T05:00:54.649Z</time></trkpt><trkpt lat="43.8492503" lon="11.1876034"><ele>139.0</ele><time>2026-05-02T05:00:55.65Z</time></trkpt><trkpt lat="43.8493383" lon="11.1876355"><ele>139.0</ele><time>2026-05-02T05:00:56.651Z</time></trkpt><trkpt lat="43.849427" lon="11.1876743"><ele>139.0</ele><time>2026-05-02T05:00:57.648Z</time></trkpt><trkpt lat="43.8495188" lon="11.1877124"><ele>139.0</ele><time>2026-05-02T05:00:58.653Z</time></trkpt><trkpt lat="43.8495999" lon="11.1877512"><ele>139.0</ele><time>2026-05-02T05:00:59.652Z</time></trkpt><trkpt lat="43.8496658" lon="11.18781"><ele>139.0</ele><time>2026-05-02T05:01:00.647Z</time></trkpt><trkpt lat="43.84972" lon="11.1878727"><ele>139.0</ele><time>2026-05-02T05:01:01.656Z</time></trkpt><trkpt lat="43.8497567" lon="11.1879571"><ele>139.0</ele><time>2026-05-02T05:01:03.656Z</time></trkpt><trkpt lat="43.8497276" lon="11.1880483"><ele>139.0</ele><time>2026-05-02T05:01:05.648Z</time></trkpt><trkpt lat="43.8496768" lon="11.1882325"><ele>139.0</ele><time>2026-05-02T05:01:07.649Z</time></trkpt><trkpt lat="43.8496208" lon="11.1883157"><ele>139.0</ele><time>2026-05-02T05:01:08.654Z</time></trkpt><trkpt lat="43.8495582" lon="11.1883873"><ele>139.0</ele><time>2026-05-02T05:01:09.65Z</time></trkpt><trkpt lat="43.8494747" lon="11.1884881"><ele>143.0</ele><time>2026-05-02T05:01:10.655Z</time></trkpt><trkpt lat="43.849414" lon="11.1885965"><ele>147.0</ele><time>2026-05-02T05:01:11.651Z</time></trkpt><trkpt lat="43.8493329" lon="11.1887005"><ele>151.0</ele><time>2026-05-02T05:01:12.653Z</time></trkpt><trkpt lat="43.8492457" lon="11.1888145"><ele>155.0</ele><time>2026-05-02T05:01:13.646Z</time></trkpt><trkpt lat="43.849156" lon="11.1889383"><ele>159.75</ele><time>2026-05-02T05:01:14.654Z</time></trkpt><trkpt lat="43.8490599" lon="11.1891128"><ele>164.5</ele><time>2026-05-02T05:01:15.653Z</time></trkpt><trkpt lat="43.8489877" lon="11.1892778"><ele>169.25</ele><time>2026-05-02T05:01:16.654Z</time></trkpt><trkpt lat="43.8489117" lon="11.1894143"><ele>174.0</ele><time>2026-05-02T05:01:17.653Z</time></trkpt><trkpt lat="43.8488386" lon="11.1895518"><ele>174.0</ele><time>2026-05-02T05:01:18.66Z</time></trkpt><trkpt lat="43.8487642" lon="11.1896807"><ele>174.0</ele><time>2026-05-02T05:01:19.651Z</time></trkpt><trkpt lat="43.8486943" lon="11.1897934"><ele>174.0</ele><time>2026-05-02T05:01:20.654Z</time></trkpt><trkpt lat="43.8486503" lon="11.1899158"><ele>174.0</ele><time>2026-05-02T05:01:21.65Z</time></trkpt><trkpt lat="43.8486228" lon="11.1900426"><ele>174.0</ele><time>2026-05-02T05:01:22.66Z</time></trkpt><trkpt lat="43.848599" lon="11.1901525"><ele>177.0</ele><time>2026-05-02T05:01:23.656Z</time></trkpt><trkpt lat="43.8485739" lon="11.1902641"><ele>180.0</ele><time>2026-05-02T05:01:24.65Z</time></trkpt><trkpt lat="43.8485563" lon="11.1903799"><ele>183.0</ele><time>2026-05-02T05:01:25.656Z</time></trkpt><trkpt lat="43.8485345" lon="11.1904969"><ele>186.0</ele><time>2026-05-02T05:01:26.649Z</time></trkpt><trkpt lat="43.8485099" lon="11.1906155"><ele>189.0</ele><time>2026-05-02T05:01:27.655Z</time></trkpt><trkpt lat="43.8484887" lon="11.1907406"><ele>192.0</ele><time>2026-05-02T05:01:28.663Z</time></trkpt><trkpt lat="43.8484663" lon="11.1908525"><ele>191.16666666666666</ele><time>2026-05-02T05:01:29.654Z</time></trkpt><trkpt lat="43.8484569" lon="11.1909599"><ele>190.33333333333334</ele><time>2026-05-02T05:01:30.664Z</time></trkpt><trkpt lat="43.8484451" lon="11.1910543"><ele>189.5</ele><time>2026-05-02T05:01:31.653Z</time></trkpt><trkpt lat="43.8484312" lon="11.1911533"><ele>188.66666666666669</ele><time>2026-05-02T05:01:32.649Z</time></trkpt><trkpt lat="43.8484233" lon="11.1912609"><ele>187.83333333333334</ele><time>2026-05-02T05:01:33.662Z</time></trkpt><trkpt lat="43.8484082" lon="11.1913809"><ele>187.0</ele><time>2026-05-02T05:01:34.654Z</time></trkpt><trkpt lat="43.848393" lon="11.191491"><ele>186.0</ele><time>2026-05-02T05:01:35.646Z</time></trkpt><trkpt lat="43.8483827" lon="11.1916107"><ele>185.0</ele><time>2026-05-02T05:01:36.65Z</time></trkpt><trkpt lat="43.848378" lon="11.1917325"><ele>184.0</ele><time>2026-05-02T05:01:37.652Z</time></trkpt><trkpt lat="43.8483729" lon="11.1918567"><ele>183.0</ele><time>2026-05-02T05:01:38.647Z</time></trkpt><trkpt lat="43.8483695" lon="11.1919782"><ele>182.0</ele><time>2026-05-02T05:01:39.645Z</time></trkpt><trkpt lat="43.8483722" lon="11.1920961"><ele>181.0</ele><time>2026-05-02T05:01:40.643Z</time></trkpt><trkpt lat="43.8483925" lon="11.1922181"><ele>179.20000000000002</ele><time>2026-05-02T05:01:41.666Z</time></trkpt><trkpt lat="43.8484156" lon="11.1923501"><ele>177.4</ele><time>2026-05-02T05:01:42.674Z</time></trkpt><trkpt lat="43.8484402" lon="11.1924889"><ele>175.6</ele><time>2026-05-02T05:01:43.654Z</time></trkpt><trkpt lat="43.848463" lon="11.1926213"><ele>173.8</ele><time>2026-05-02T05:01:44.647Z</time></trkpt><trkpt lat="43.8484849" lon="11.192748"><ele>172.0</ele><time>2026-05-02T05:01:45.668Z</time></trkpt><trkpt lat="43.848505" lon="11.192871"><ele>171.5</ele><time>2026-05-02T05:01:46.725Z</time></trkpt><trkpt lat="43.8485278" lon="11.1929899"><ele>171.0</ele><time>2026-05-02T05:01:47.667Z</time></trkpt><trkpt lat="43.8485527" lon="11.1930946"><ele>170.5</ele><time>2026-05-02T05:01:48.669Z</time></trkpt><trkpt lat="43.8485708" lon="11.1931985"><ele>170.0</ele><time>2026-05-02T05:01:49.664Z</time></trkpt><trkpt lat="43.8485733" lon="11.1932931"><ele>169.5</ele><time>2026-05-02T05:01:51.65Z</time></trkpt><trkpt lat="43.8485017" lon="11.1933819"><ele>169.0</ele><time>2026-05-02T05:02:47.51Z</time></trkpt><trkpt lat="43.8483983" lon="11.1934561"><ele>169.0</ele><time>2026-05-02T05:02:49.523Z</time></trkpt><trkpt lat="43.8483354" lon="11.1935006"><ele>169.0</ele><time>2026-05-02T05:02:50.518Z</time></trkpt><trkpt lat="43.8482737" lon="11.1935486"><ele>169.0</ele><time>2026-05-02T05:02:51.54Z</time></trkpt><trkpt lat="43.8482121" lon="11.1935919"><ele>169.0</ele><time>2026-05-02T05:02:52.515Z</time></trkpt><trkpt lat="43.8481512" lon="11.1936397"><ele>169.0</ele><time>2026-05-02T05:02:53.524Z</time></trkpt><trkpt lat="43.8480846" lon="11.1936904"><ele>169.0</ele><time>2026-05-02T05:02:54.518Z</time></trkpt><trkpt lat="43.8480138" lon="11.1937412"><ele>169.0</ele><time>2026-05-02T05:02:55.502Z</time></trkpt><trkpt lat="43.8479469" lon="11.1937963"><ele>169.0</ele><time>2026-05-02T05:02:56.513Z</time></trkpt><trkpt lat="43.8478765" lon="11.19385"><ele>169.0</ele><time>2026-05-02T05:02:57.515Z</time></trkpt><trkpt lat="43.8478045" lon="11.1939055"><ele>169.0</ele><time>2026-05-02T05:02:58.512Z</time></trkpt><trkpt lat="43.8477324" lon="11.1939648"><ele>169.0</ele><time>2026-05-02T05:02:59.517Z</time></trkpt><trkpt lat="43.8476623" lon="11.1940204"><ele>169.0</ele><time>2026-05-02T05:03:00.499Z</time></trkpt><trkpt lat="43.8475926" lon="11.1940806"><ele>169.0</ele><time>2026-05-02T05:03:01.513Z</time></trkpt><trkpt lat="43.847528" lon="11.1941416"><ele>166.5</ele><time>2026-05-02T05:03:02.504Z</time></trkpt><trkpt lat="43.8474604" lon="11.1942069"><ele>164.0</ele><time>2026-05-02T05:03:03.524Z</time></trkpt><trkpt lat="43.8473977" lon="11.1942748"><ele>161.5</ele><time>2026-05-02T05:03:04.514Z</time></trkpt><trkpt lat="43.8473315" lon="11.1943476"><ele>159.0</ele><time>2026-05-02T05:03:05.522Z</time></trkpt><trkpt lat="43.8472615" lon="11.1944228"><ele>156.5</ele><time>2026-05-02T05:03:06.518Z</time></trkpt><trkpt lat="43.8471859" lon="11.1944987"><ele>154.0</ele><time>2026-05-02T05:03:07.52Z</time></trkpt><trkpt lat="43.8471046" lon="11.1945666"><ele>154.0</ele><time>2026-05-02T05:03:08.524Z</time></trkpt><trkpt lat="43.8470296" lon="11.1946292"><ele>154.0</ele><time>2026-05-02T05:03:09.519Z</time></trkpt><trkpt lat="43.8469527" lon="11.194693"><ele>154.0</ele><time>2026-05-02T05:03:10.524Z</time></trkpt><trkpt lat="43.8468745" lon="11.1947547"><ele>154.0</ele><time>2026-05-02T05:03:11.478Z</time></trkpt><trkpt lat="43.8467909" lon="11.1948233"><ele>154.0</ele><time>2026-05-02T05:03:12.399Z</time></trkpt><trkpt lat="43.8467151" lon="11.1948855"><ele>154.0</ele><time>2026-05-02T05:03:13.395Z</time></trkpt><trkpt lat="43.846658" lon="11.1949422"><ele>154.0</ele><time>2026-05-02T05:03:14.412Z</time></trkpt><trkpt lat="43.8466007" lon="11.1950869"><ele>154.0</ele><time>2026-05-02T05:03:16.401Z</time></trkpt><trkpt lat="43.8466997" lon="11.1952647"><ele>154.0</ele><time>2026-05-02T05:03:19.258Z</time></trkpt><trkpt lat="43.8467987" lon="11.1953777"><ele>154.0</ele><time>2026-05-02T05:03:21.253Z</time></trkpt><trkpt lat="43.8468466" lon="11.1954478"><ele>154.0</ele><time>2026-05-02T05:03:22.2Z</time></trkpt><trkpt lat="43.8468891" lon="11.1955268"><ele>154.0</ele><time>2026-05-02T05:03:23.27Z</time></trkpt><trkpt lat="43.8469357" lon="11.1956043"><ele>154.0</ele><time>2026-05-02T05:03:24.2Z</time></trkpt><trkpt lat="43.8469818" lon="11.1956877"><ele>154.0</ele><time>2026-05-02T05:03:25.204Z</time></trkpt><trkpt lat="43.847017" lon="11.1957662"><ele>154.0</ele><time>2026-05-02T05:03:26.262Z</time></trkpt><trkpt lat="43.8470066" lon="11.1959221"><ele>152.66666666666669</ele><time>2026-05-02T05:03:28.207Z</time></trkpt><trkpt lat="43.8469559" lon="11.1959973"><ele>151.33333333333334</ele><time>2026-05-02T05:03:29.201Z</time></trkpt><trkpt lat="43.8468899" lon="11.1960883"><ele>150.0</ele><time>2026-05-02T05:03:30.204Z</time></trkpt><trkpt lat="43.8468263" lon="11.1961891"><ele>148.66666666666666</ele><time>2026-05-02T05:03:31.197Z</time></trkpt><trkpt lat="43.8467633" lon="11.1962831"><ele>147.33333333333331</ele><time>2026-05-02T05:03:32.209Z</time></trkpt><trkpt lat="43.8467082" lon="11.1963826"><ele>146.0</ele><time>2026-05-02T05:03:33.199Z</time></trkpt><trkpt lat="43.846659" lon="11.1964885"><ele>141.6</ele><time>2026-05-02T05:03:34.203Z</time></trkpt><trkpt lat="43.8466099" lon="11.1965923"><ele>137.2</ele><time>2026-05-02T05:03:35.201Z</time></trkpt><trkpt lat="43.8465676" lon="11.1967055"><ele>132.8</ele><time>2026-05-02T05:03:36.204Z</time></trkpt><trkpt lat="43.8465344" lon="11.1968272"><ele>128.4</ele><time>2026-05-02T05:03:37.203Z</time></trkpt><trkpt lat="43.8465107" lon="11.1969501"><ele>124.0</ele><time>2026-05-02T05:03:38.233Z</time></trkpt><trkpt lat="43.8464993" lon="11.1970748"><ele>124.0</ele><time>2026-05-02T05:03:39.192Z</time></trkpt><trkpt lat="43.8464904" lon="11.1971966"><ele>124.0</ele><time>2026-05-02T05:03:40.2Z</time></trkpt><trkpt lat="43.8464855" lon="11.1973195"><ele>124.0</ele><time>2026-05-02T05:03:41.201Z</time></trkpt><trkpt lat="43.8464712" lon="11.1974311"><ele>124.0</ele><time>2026-05-02T05:03:42.198Z</time></trkpt><trkpt lat="43.8464543" lon="11.19753"><ele>124.0</ele><time>2026-05-02T05:03:43.203Z</time></trkpt><trkpt lat="43.8463956" lon="11.1976801"><ele>123.6</ele><time>2026-05-02T05:03:45.143Z</time></trkpt><trkpt lat="43.846299" lon="11.1978009"><ele>123.2</ele><time>2026-05-02T05:03:47.102Z</time></trkpt><trkpt lat="43.8462551" lon="11.1978706"><ele>122.79999999999998</ele><time>2026-05-02T05:03:48.058Z</time></trkpt><trkpt lat="43.8462241" lon="11.1980392"><ele>122.39999999999999</ele><time>2026-05-02T05:03:50.059Z</time></trkpt><trkpt lat="43.8462233" lon="11.19815"><ele>122.0</ele><time>2026-05-02T05:03:51.059Z</time></trkpt><trkpt lat="43.8462327" lon="11.1982767"><ele>120.16666666666666</ele><time>2026-05-02T05:03:52.069Z</time></trkpt><trkpt lat="43.8462442" lon="11.1984114"><ele>118.33333333333333</ele><time>2026-05-02T05:03:53.063Z</time></trkpt><trkpt lat="43.8462666" lon="11.1985209"><ele>116.5</ele><time>2026-05-02T05:03:54.051Z</time></trkpt><trkpt lat="43.8462861" lon="11.1986269"><ele>114.66666666666666</ele><time>2026-05-02T05:03:55.043Z</time></trkpt><trkpt lat="43.8462788" lon="11.1987203"><ele>112.83333333333333</ele><time>2026-05-02T05:03:56.061Z</time></trkpt><trkpt lat="43.8462592" lon="11.1988099"><ele>111.0</ele><time>2026-05-02T05:03:57.063Z</time></trkpt><trkpt lat="43.8462281" lon="11.1988968"><ele>111.0</ele><time>2026-05-02T05:03:58.06Z</time></trkpt><trkpt lat="43.8461972" lon="11.198973"><ele>111.0</ele><time>2026-05-02T05:03:59.064Z</time></trkpt><trkpt lat="43.8461718" lon="11.1991459"><ele>111.0</ele><time>2026-05-02T05:04:01.059Z</time></trkpt><trkpt lat="43.8461716" lon="11.1992562"><ele>111.0</ele><time>2026-05-02T05:04:02.061Z</time></trkpt><trkpt lat="43.846168" lon="11.1993736"><ele>111.0</ele><time>2026-05-02T05:04:03.065Z</time></trkpt><trkpt lat="43.8461575" lon="11.199502"><ele>111.0</ele><time>2026-05-02T05:04:04.064Z</time></trkpt><trkpt lat="43.8461537" lon="11.1996352"><ele>109.19999999999999</ele><time>2026-05-02T05:04:05.062Z</time></trkpt><trkpt lat="43.8461455" lon="11.1997658"><ele>107.39999999999999</ele><time>2026-05-02T05:04:06.054Z</time></trkpt><trkpt lat="43.8461403" lon="11.1998927"><ele>105.6</ele><time>2026-05-02T05:04:07.067Z</time></trkpt><trkpt lat="43.8461442" lon="11.1999882"><ele>103.8</ele><time>2026-05-02T05:04:08.152Z</time></trkpt><trkpt lat="43.8461498" lon="11.2001541"><ele>102.0</ele><time>2026-05-02T05:04:09.997Z</time></trkpt><trkpt lat="43.8462006" lon="11.2003005"><ele>101.83333333333333</ele><time>2026-05-02T05:04:11.969Z</time></trkpt><trkpt lat="43.8462344" lon="11.2003789"><ele>101.66666666666666</ele><time>2026-05-02T05:04:12.975Z</time></trkpt><trkpt lat="43.8462645" lon="11.2004632"><ele>101.5</ele><time>2026-05-02T05:04:13.998Z</time></trkpt><trkpt lat="43.8462724" lon="11.2005552"><ele>101.33333333333333</ele><time>2026-05-02T05:04:14.977Z</time></trkpt><trkpt lat="43.8462512" lon="11.2006566"><ele>101.16666666666666</ele><time>2026-05-02T05:04:15.98Z</time></trkpt><trkpt lat="43.8462186" lon="11.2007665"><ele>101.0</ele><time>2026-05-02T05:04:16.966Z</time></trkpt><trkpt lat="43.8461903" lon="11.2008835"><ele>101.0</ele><time>2026-05-02T05:04:18.046Z</time></trkpt><trkpt lat="43.846158" lon="11.2010006"><ele>101.0</ele><time>2026-05-02T05:04:19.031Z</time></trkpt><trkpt lat="43.8461189" lon="11.2011281"><ele>101.0</ele><time>2026-05-02T05:04:20.022Z</time></trkpt><trkpt lat="43.84608" lon="11.2012501"><ele>101.0</ele><time>2026-05-02T05:04:20.97Z</time></trkpt><trkpt lat="43.846046" lon="11.2013893"><ele>101.0</ele><time>2026-05-02T05:04:21.972Z</time></trkpt><trkpt lat="43.8460354" lon="11.2015497"><ele>102.8</ele><time>2026-05-02T05:04:22.968Z</time></trkpt><trkpt lat="43.8460232" lon="11.2017026"><ele>104.6</ele><time>2026-05-02T05:04:23.971Z</time></trkpt><trkpt lat="43.8460257" lon="11.2018576"><ele>106.4</ele><time>2026-05-02T05:04:24.977Z</time></trkpt><trkpt lat="43.8460346" lon="11.2019937"><ele>108.2</ele><time>2026-05-02T05:04:26.035Z</time></trkpt><trkpt lat="43.8460321" lon="11.2021084"><ele>110.0</ele><time>2026-05-02T05:04:26.968Z</time></trkpt><trkpt lat="43.8459715" lon="11.2022454"><ele>108.83333333333333</ele><time>2026-05-02T05:04:28.973Z</time></trkpt><trkpt lat="43.8459239" lon="11.2023376"><ele>107.66666666666666</ele><time>2026-05-02T05:04:29.972Z</time></trkpt><trkpt lat="43.8458683" lon="11.2024197"><ele>106.5</ele><time>2026-05-02T05:04:30.965Z</time></trkpt><trkpt lat="43.8458219" lon="11.2025095"><ele>105.33333333333334</ele><time>2026-05-02T05:04:31.973Z</time></trkpt><trkpt lat="43.8457704" lon="11.2025771"><ele>104.16666666666667</ele><time>2026-05-02T05:04:32.97Z</time></trkpt><trkpt lat="43.8456965" lon="11.2026354"><ele>103.0</ele><time>2026-05-02T05:04:33.961Z</time></trkpt><trkpt lat="43.8456166" lon="11.2026975"><ele>103.0</ele><time>2026-05-02T05:04:34.97Z</time></trkpt><trkpt lat="43.845535" lon="11.2027754"><ele>103.0</ele><time>2026-05-02T05:04:36.001Z</time></trkpt><trkpt lat="43.8454536" lon="11.2028593"><ele>103.0</ele><time>2026-05-02T05:04:36.961Z</time></trkpt><trkpt lat="43.8453682" lon="11.2029445"><ele>103.0</ele><time>2026-05-02T05:04:38.03Z</time></trkpt><trkpt lat="43.8452918" lon="11.2030178"><ele>103.0</ele><time>2026-05-02T05:04:39.035Z</time></trkpt><trkpt lat="43.8452485" lon="11.2030882"><ele>103.85714285714285</ele><time>2026-05-02T05:04:39.956Z</time></trkpt><trkpt lat="43.8452332" lon="11.2031847"><ele>104.71428571428571</ele><time>2026-05-02T05:04:40.992Z</time></trkpt><trkpt lat="43.8452261" lon="11.2032753"><ele>105.57142857142857</ele><time>2026-05-02T05:04:41.963Z</time></trkpt><trkpt lat="43.8452156" lon="11.2033804"><ele>106.42857142857142</ele><time>2026-05-02T05:04:43.018Z</time></trkpt><trkpt lat="43.8452175" lon="11.2034909"><ele>107.28571428571429</ele><time>2026-05-02T05:04:44.021Z</time></trkpt><trkpt lat="43.8452205" lon="11.2035854"><ele>108.14285714285714</ele><time>2026-05-02T05:04:44.943Z</time></trkpt><trkpt lat="43.8452264" lon="11.2036767"><ele>109.0</ele><time>2026-05-02T05:04:46.989Z</time></trkpt><trkpt lat="43.8451478" lon="11.2037363"><ele>108.16666666666667</ele><time>2026-05-02T05:04:51.033Z</time></trkpt><trkpt lat="43.8450361" lon="11.2037737"><ele>107.33333333333334</ele><time>2026-05-02T05:04:53.029Z</time></trkpt><trkpt lat="43.8449624" lon="11.2037756"><ele>106.5</ele><time>2026-05-02T05:04:54.036Z</time></trkpt><trkpt lat="43.8448941" lon="11.2037766"><ele>105.66666666666666</ele><time>2026-05-02T05:04:54.964Z</time></trkpt><trkpt lat="43.8448297" lon="11.2037918"><ele>104.83333333333333</ele><time>2026-05-02T05:04:56.032Z</time></trkpt><trkpt lat="43.8447538" lon="11.2037989"><ele>104.0</ele><time>2026-05-02T05:04:56.963Z</time></trkpt><trkpt lat="43.8446506" lon="11.2037883"><ele>103.99999999999999</ele><time>2026-05-02T05:04:58.031Z</time></trkpt><trkpt lat="43.8445433" lon="11.2037723"><ele>104.0</ele><time>2026-05-02T05:04:59.028Z</time></trkpt><trkpt lat="43.8444505" lon="11.2037588"><ele>104.0</ele><time>2026-05-02T05:04:59.97Z</time></trkpt><trkpt lat="43.8443797" lon="11.203752"><ele>104.0</ele><time>2026-05-02T05:05:00.959Z</time></trkpt><trkpt lat="43.8442956" lon="11.2037636"><ele>103.99999999999999</ele><time>2026-05-02T05:05:02.973Z</time></trkpt><trkpt lat="43.8442561" lon="11.203844"><ele>104.0</ele><time>2026-05-02T05:05:04.978Z</time></trkpt><trkpt lat="43.8442364" lon="11.2039291"><ele>102.4</ele><time>2026-05-02T05:05:05.974Z</time></trkpt><trkpt lat="43.8441834" lon="11.204013"><ele>100.80000000000001</ele><time>2026-05-02T05:05:06.967Z</time></trkpt><trkpt lat="43.8441208" lon="11.2041009"><ele>99.19999999999999</ele><time>2026-05-02T05:05:07.973Z</time></trkpt><trkpt lat="43.844057" lon="11.2042032"><ele>97.6</ele><time>2026-05-02T05:05:09.005Z</time></trkpt><trkpt lat="43.8439879" lon="11.2043195"><ele>96.0</ele><time>2026-05-02T05:05:09.967Z</time></trkpt><trkpt lat="43.8439161" lon="11.2044373"><ele>96.0</ele><time>2026-05-02T05:05:10.969Z</time></trkpt><trkpt lat="43.8438312" lon="11.2045554"><ele>96.0</ele><time>2026-05-02T05:05:11.965Z</time></trkpt><trkpt lat="43.8437414" lon="11.204667"><ele>96.0</ele><time>2026-05-02T05:05:12.973Z</time></trkpt><trkpt lat="43.8436653" lon="11.2047958"><ele>96.0</ele><time>2026-05-02T05:05:13.973Z</time></trkpt><trkpt lat="43.8435993" lon="11.2049159"><ele>95.8</ele><time>2026-05-02T05:05:14.952Z</time></trkpt><trkpt lat="43.8435369" lon="11.2050311"><ele>95.6</ele><time>2026-05-02T05:05:16.035Z</time></trkpt><trkpt lat="43.8434752" lon="11.205138"><ele>95.4</ele><time>2026-05-02T05:05:16.964Z</time></trkpt><trkpt lat="43.8434173" lon="11.205238"><ele>95.2</ele><time>2026-05-02T05:05:17.963Z</time></trkpt><trkpt lat="43.8433598" lon="11.2053385"><ele>95.0</ele><time>2026-05-02T05:05:18.984Z</time></trkpt><trkpt lat="43.8433144" lon="11.2054351"><ele>95.0</ele><time>2026-05-02T05:05:19.962Z</time></trkpt><trkpt lat="43.8432701" lon="11.2055402"><ele>95.0</ele><time>2026-05-02T05:05:20.97Z</time></trkpt><trkpt lat="43.8432329" lon="11.2056539"><ele>95.0</ele><time>2026-05-02T05:05:21.969Z</time></trkpt><trkpt lat="43.8431891" lon="11.2057742"><ele>95.0</ele><time>2026-05-02T05:05:22.983Z</time></trkpt><trkpt lat="43.8431474" lon="11.205903"><ele>95.0</ele><time>2026-05-02T05:05:24.023Z</time></trkpt><trkpt lat="43.8431073" lon="11.2060413"><ele>95.0</ele><time>2026-05-02T05:05:25.029Z</time></trkpt><trkpt lat="43.8430622" lon="11.2061804"><ele>95.0</ele><time>2026-05-02T05:05:26.027Z</time></trkpt><trkpt lat="43.8430185" lon="11.2063313"><ele>95.0</ele><time>2026-05-02T05:05:26.96Z</time></trkpt><trkpt lat="43.8429718" lon="11.206474"><ele>95.0</ele><time>2026-05-02T05:05:27.968Z</time></trkpt><trkpt lat="43.8429247" lon="11.206608"><ele>95.0</ele><time>2026-05-02T05:05:28.968Z</time></trkpt><trkpt lat="43.8428726" lon="11.2067388"><ele>94.75</ele><time>2026-05-02T05:05:29.959Z</time></trkpt><trkpt lat="43.8428057" lon="11.2068679"><ele>94.5</ele><time>2026-05-02T05:05:30.964Z</time></trkpt><trkpt lat="43.8427294" lon="11.2069867"><ele>94.25</ele><time>2026-05-02T05:05:31.978Z</time></trkpt><trkpt lat="43.8426473" lon="11.2071023"><ele>94.0</ele><time>2026-05-02T05:05:32.982Z</time></trkpt><trkpt lat="43.8425648" lon="11.2072182"><ele>93.80000000000001</ele><time>2026-05-02T05:05:33.961Z</time></trkpt><trkpt lat="43.8424842" lon="11.2073225"><ele>93.60000000000001</ele><time>2026-05-02T05:05:35.046Z</time></trkpt><trkpt lat="43.8424071" lon="11.207418"><ele>93.4</ele><time>2026-05-02T05:05:35.962Z</time></trkpt><trkpt lat="43.8423337" lon="11.2074994"><ele>93.2</ele><time>2026-05-02T05:05:36.958Z</time></trkpt><trkpt lat="43.8422712" lon="11.2075691"><ele>93.0</ele><time>2026-05-02T05:05:38.014Z</time></trkpt><trkpt lat="43.8422093" lon="11.2076361"><ele>93.0</ele><time>2026-05-02T05:05:39.036Z</time></trkpt><trkpt lat="43.8421502" lon="11.207684"><ele>93.0</ele><time>2026-05-02T05:05:40.034Z</time></trkpt><trkpt lat="43.8420949" lon="11.207729"><ele>93.0</ele><time>2026-05-02T05:05:41.036Z</time></trkpt><trkpt lat="43.8419969" lon="11.2078051"><ele>93.0</ele><time>2026-05-02T05:05:42.972Z</time></trkpt><trkpt lat="43.841919" lon="11.2079084"><ele>93.0</ele><time>2026-05-02T05:05:45.045Z</time></trkpt><trkpt lat="43.8418825" lon="11.2080404"><ele>93.0</ele><time>2026-05-02T05:05:46.963Z</time></trkpt><trkpt lat="43.8418802" lon="11.2081344"><ele>93.0</ele><time>2026-05-02T05:05:47.973Z</time></trkpt><trkpt lat="43.8418813" lon="11.208243"><ele>93.0</ele><time>2026-05-02T05:05:48.948Z</time></trkpt><trkpt lat="43.8418691" lon="11.2083455"><ele>93.0</ele><time>2026-05-02T05:05:50.025Z</time></trkpt><trkpt lat="43.8418524" lon="11.2084422"><ele>93.0</ele><time>2026-05-02T05:05:50.962Z</time></trkpt><trkpt lat="43.8418154" lon="11.2086014"><ele>93.0</ele><time>2026-05-02T05:05:52.96Z</time></trkpt><trkpt lat="43.8417878" lon="11.2087497"><ele>93.2</ele><time>2026-05-02T05:05:54.966Z</time></trkpt><trkpt lat="43.8417965" lon="11.2089068"><ele>93.4</ele><time>2026-05-02T05:05:56.961Z</time></trkpt><trkpt lat="43.8418154" lon="11.2089985"><ele>93.60000000000001</ele><time>2026-05-02T05:05:59.002Z</time></trkpt><trkpt lat="43.8418109" lon="11.2091304"><ele>93.80000000000001</ele><time>2026-05-02T05:06:01.959Z</time></trkpt><trkpt lat="43.8417959" lon="11.2092548"><ele>94.0</ele><time>2026-05-02T05:06:03.966Z</time></trkpt><trkpt lat="43.8418043" lon="11.2093748"><ele>94.0</ele><time>2026-05-02T05:06:06.026Z</time></trkpt><trkpt lat="43.8417939" lon="11.2094611"><ele>94.0</ele><time>2026-05-02T05:06:07.967Z</time></trkpt><trkpt lat="43.8417406" lon="11.209546"><ele>94.0</ele><time>2026-05-02T05:06:09.962Z</time></trkpt><trkpt lat="43.8416355" lon="11.2096478"><ele>94.0</ele><time>2026-05-02T05:06:11.968Z</time></trkpt><trkpt lat="43.8415733" lon="11.2097079"><ele>94.0</ele><time>2026-05-02T05:06:12.972Z</time></trkpt><trkpt lat="43.8415203" lon="11.2097613"><ele>94.0</ele><time>2026-05-02T05:06:13.953Z</time></trkpt><trkpt lat="43.8414564" lon="11.2098878"><ele>94.5</ele><time>2026-05-02T05:06:15.969Z</time></trkpt><trkpt lat="43.8414528" lon="11.2100336"><ele>95.0</ele><time>2026-05-02T05:06:17.963Z</time></trkpt><trkpt lat="43.8414347" lon="11.2102078"><ele>95.5</ele><time>2026-05-02T05:06:20.034Z</time></trkpt><trkpt lat="43.8414083" lon="11.2103603"><ele>96.0</ele><time>2026-05-02T05:06:21.974Z</time></trkpt><trkpt lat="43.8414542" lon="11.2104966"><ele>96.0</ele><time>2026-05-02T05:06:24.034Z</time></trkpt><trkpt lat="43.8414998" lon="11.2105743"><ele>96.0</ele><time>2026-05-02T05:06:24.969Z</time></trkpt><trkpt lat="43.8415549" lon="11.2106564"><ele>96.0</ele><time>2026-05-02T05:06:26.037Z</time></trkpt><trkpt lat="43.84161" lon="11.2107481"><ele>96.0</ele><time>2026-05-02T05:06:26.967Z</time></trkpt><trkpt lat="43.8416701" lon="11.2108483"><ele>96.0</ele><time>2026-05-02T05:06:27.97Z</time></trkpt><trkpt lat="43.8417329" lon="11.2109515"><ele>96.0</ele><time>2026-05-02T05:06:28.963Z</time></trkpt><trkpt lat="43.8417947" lon="11.2110555"><ele>97.6</ele><time>2026-05-02T05:06:30.051Z</time></trkpt><trkpt lat="43.8418561" lon="11.2111605"><ele>99.19999999999999</ele><time>2026-05-02T05:06:31.031Z</time></trkpt><trkpt lat="43.8419193" lon="11.2112645"><ele>100.80000000000001</ele><time>2026-05-02T05:06:31.973Z</time></trkpt><trkpt lat="43.8419843" lon="11.2113666"><ele>102.4</ele><time>2026-05-02T05:06:32.977Z</time></trkpt><trkpt lat="43.8420467" lon="11.2114757"><ele>104.0</ele><time>2026-05-02T05:06:33.984Z</time></trkpt><trkpt lat="43.8421167" lon="11.2115871"><ele>104.80000000000001</ele><time>2026-05-02T05:06:35.028Z</time></trkpt><trkpt lat="43.8421861" lon="11.2116995"><ele>105.60000000000001</ele><time>2026-05-02T05:06:36.035Z</time></trkpt><trkpt lat="43.8422505" lon="11.2118134"><ele>106.4</ele><time>2026-05-02T05:06:36.97Z</time></trkpt><trkpt lat="43.8423118" lon="11.2119141"><ele>107.2</ele><time>2026-05-02T05:06:38.033Z</time></trkpt><trkpt lat="43.8423659" lon="11.2120015"><ele>108.0</ele><time>2026-05-02T05:06:39.032Z</time></trkpt><trkpt lat="43.8424267" lon="11.212084"><ele>108.0</ele><time>2026-05-02T05:06:40.032Z</time></trkpt><trkpt lat="43.8424798" lon="11.212169"><ele>108.0</ele><time>2026-05-02T05:06:40.968Z</time></trkpt><trkpt lat="43.842535" lon="11.2122605"><ele>108.0</ele><time>2026-05-02T05:06:41.968Z</time></trkpt><trkpt lat="43.8425882" lon="11.2123522"><ele>108.0</ele><time>2026-05-02T05:06:42.965Z</time></trkpt><trkpt lat="43.8426441" lon="11.2124389"><ele>108.0</ele><time>2026-05-02T05:06:43.969Z</time></trkpt><trkpt lat="43.8427056" lon="11.2125269"><ele>108.0</ele><time>2026-05-02T05:06:44.966Z</time></trkpt><trkpt lat="43.842765" lon="11.2126207"><ele>109.60000000000001</ele><time>2026-05-02T05:06:45.954Z</time></trkpt><trkpt lat="43.8428193" lon="11.2127168"><ele>111.20000000000002</ele><time>2026-05-02T05:06:46.958Z</time></trkpt><trkpt lat="43.8428791" lon="11.2128098"><ele>112.8</ele><time>2026-05-02T05:06:47.963Z</time></trkpt><trkpt lat="43.8429391" lon="11.2129153"><ele>114.4</ele><time>2026-05-02T05:06:49.053Z</time></trkpt><trkpt lat="43.8430056" lon="11.2130204"><ele>116.0</ele><time>2026-05-02T05:06:50.016Z</time></trkpt><trkpt lat="43.8430685" lon="11.2131202"><ele>117.33333333333333</ele><time>2026-05-02T05:06:50.979Z</time></trkpt><trkpt lat="43.843124" lon="11.2132144"><ele>118.66666666666666</ele><time>2026-05-02T05:06:51.967Z</time></trkpt><trkpt lat="43.843172" lon="11.2132855"><ele>120.0</ele><time>2026-05-02T05:06:52.967Z</time></trkpt><trkpt lat="43.8432366" lon="11.2133874"><ele>121.33333333333334</ele><time>2026-05-02T05:06:54.96Z</time></trkpt><trkpt lat="43.8432673" lon="11.2135085"><ele>122.66666666666667</ele><time>2026-05-02T05:06:58.99Z</time></trkpt><trkpt lat="43.8433132" lon="11.2135964"><ele>124.0</ele><time>2026-05-02T05:07:00.961Z</time></trkpt><trkpt lat="43.8433684" lon="11.2136395"><ele>124.0</ele><time>2026-05-02T05:07:02.988Z</time></trkpt><trkpt lat="43.8434337" lon="11.2137111"><ele>124.0</ele><time>2026-05-02T05:07:04.955Z</time></trkpt><trkpt lat="43.8435029" lon="11.2138266"><ele>124.0</ele><time>2026-05-02T05:07:06.972Z</time></trkpt><trkpt lat="43.8435739" lon="11.2139455"><ele>124.0</ele><time>2026-05-02T05:07:08.958Z</time></trkpt><trkpt lat="43.8436194" lon="11.214016"><ele>124.0</ele><time>2026-05-02T05:07:10.961Z</time></trkpt><trkpt lat="43.8436791" lon="11.2140908"><ele>127.0</ele><time>2026-05-02T05:07:12.961Z</time></trkpt><trkpt lat="43.8437321" lon="11.2141611"><ele>130.0</ele><time>2026-05-02T05:07:16.961Z</time></trkpt><trkpt lat="43.843799" lon="11.2141796"><ele>133.0</ele><time>2026-05-02T05:07:20.965Z</time></trkpt><trkpt lat="43.8438694" lon="11.214198"><ele>136.0</ele><time>2026-05-02T05:07:24.962Z</time></trkpt><trkpt lat="43.8439423" lon="11.2142222"><ele>139.0</ele><time>2026-05-02T05:07:28.963Z</time></trkpt><trkpt lat="43.8440101" lon="11.214241"><ele>142.0</ele><time>2026-05-02T05:07:31.968Z</time></trkpt><trkpt lat="43.8440775" lon="11.2142547"><ele>145.0</ele><time>2026-05-02T05:07:35.025Z</time></trkpt><trkpt lat="43.8441678" lon="11.2142848"><ele>145.0</ele><time>2026-05-02T05:07:37.969Z</time></trkpt><trkpt lat="43.8442514" lon="11.2143125"><ele>145.0</ele><time>2026-05-02T05:07:39.964Z</time></trkpt><trkpt lat="43.8443268" lon="11.2143369"><ele>145.0</ele><time>2026-05-02T05:07:41.954Z</time></trkpt><trkpt lat="43.8444053" lon="11.2143617"><ele>145.0</ele><time>2026-05-02T05:07:43.963Z</time></trkpt><trkpt lat="43.8445031" lon="11.2144082"><ele>145.0</ele><time>2026-05-02T05:07:46.026Z</time></trkpt><trkpt lat="43.8446074" lon="11.2144305"><ele>145.5</ele><time>2026-05-02T05:07:47.972Z</time></trkpt><trkpt lat="43.8446743" lon="11.2144506"><ele>146.0</ele><time>2026-05-02T05:07:48.963Z</time></trkpt><trkpt lat="43.8447579" lon="11.2144712"><ele>146.5</ele><time>2026-05-02T05:07:49.972Z</time></trkpt><trkpt lat="43.8448508" lon="11.2144855"><ele>147.0</ele><time>2026-05-02T05:07:50.946Z</time></trkpt><trkpt lat="43.8449313" lon="11.2144987"><ele>147.5</ele><time>2026-05-02T05:07:51.962Z</time></trkpt><trkpt lat="43.845014" lon="11.2145121"><ele>148.0</ele><time>2026-05-02T05:07:52.962Z</time></trkpt><trkpt lat="43.8450983" lon="11.2145074"><ele>148.5</ele><time>2026-05-02T05:07:53.957Z</time></trkpt><trkpt lat="43.8451844" lon="11.214508"><ele>149.0</ele><time>2026-05-02T05:07:55.019Z</time></trkpt><trkpt lat="43.8452638" lon="11.2145096"><ele>149.5</ele><time>2026-05-02T05:07:55.973Z</time></trkpt><trkpt lat="43.845347" lon="11.2145153"><ele>150.0</ele><time>2026-05-02T05:07:56.968Z</time></trkpt><trkpt lat="43.8454259" lon="11.2145212"><ele>150.5</ele><time>2026-05-02T05:07:57.964Z</time></trkpt><trkpt lat="43.8455056" lon="11.2145318"><ele>151.0</ele><time>2026-05-02T05:07:58.967Z</time></trkpt><trkpt lat="43.8455779" lon="11.2145404"><ele>151.0</ele><time>2026-05-02T05:07:59.963Z</time></trkpt><trkpt lat="43.8456846" lon="11.2145008"><ele>151.0</ele><time>2026-05-02T05:08:01.958Z</time></trkpt><trkpt lat="43.8457422" lon="11.2144334"><ele>151.0</ele><time>2026-05-02T05:08:02.959Z</time></trkpt><trkpt lat="43.8458017" lon="11.2143603"><ele>151.0</ele><time>2026-05-02T05:08:03.966Z</time></trkpt><trkpt lat="43.8458943" lon="11.2143023"><ele>151.0</ele><time>2026-05-02T05:08:05.968Z</time></trkpt><trkpt lat="43.8459828" lon="11.2142907"><ele>151.0</ele><time>2026-05-02T05:08:07.965Z</time></trkpt><trkpt lat="43.8460457" lon="11.2143076"><ele>151.0</ele><time>2026-05-02T05:08:08.963Z</time></trkpt><trkpt lat="43.8461237" lon="11.2143222"><ele>151.0</ele><time>2026-05-02T05:08:09.969Z</time></trkpt><trkpt lat="43.8462108" lon="11.2143314"><ele>151.0</ele><time>2026-05-02T05:08:10.971Z</time></trkpt><trkpt lat="43.8463059" lon="11.2143386"><ele>151.0</ele><time>2026-05-02T05:08:11.969Z</time></trkpt><trkpt lat="43.8463923" lon="11.2143344"><ele>151.0</ele><time>2026-05-02T05:08:12.947Z</time></trkpt><trkpt lat="43.8464819" lon="11.2143277"><ele>151.0</ele><time>2026-05-02T05:08:13.964Z</time></trkpt><trkpt lat="43.8465735" lon="11.214316"><ele>151.0</ele><time>2026-05-02T05:08:14.971Z</time></trkpt><trkpt lat="43.8466643" lon="11.2142977"><ele>151.0</ele><time>2026-05-02T05:08:15.957Z</time></trkpt><trkpt lat="43.8467355" lon="11.2142833"><ele>151.0</ele><time>2026-05-02T05:08:16.962Z</time></trkpt><trkpt lat="43.8468619" lon="11.2142286"><ele>151.0</ele><time>2026-05-02T05:08:18.96Z</time></trkpt><trkpt lat="43.8469572" lon="11.2142095"><ele>151.25</ele><time>2026-05-02T05:08:19.962Z</time></trkpt><trkpt lat="43.8470736" lon="11.2141825"><ele>151.5</ele><time>2026-05-02T05:08:20.962Z</time></trkpt><trkpt lat="43.8471876" lon="11.2141674"><ele>151.75</ele><time>2026-05-02T05:08:21.96Z</time></trkpt><trkpt lat="43.8473053" lon="11.214141"><ele>152.0</ele><time>2026-05-02T05:08:22.97Z</time></trkpt><trkpt lat="43.8474213" lon="11.2141254"><ele>152.0</ele><time>2026-05-02T05:08:23.963Z</time></trkpt><trkpt lat="43.847513" lon="11.214111"><ele>152.0</ele><time>2026-05-02T05:08:24.967Z</time></trkpt><trkpt lat="43.8475831" lon="11.214103"><ele>152.0</ele><time>2026-05-02T05:08:25.967Z</time></trkpt><trkpt lat="43.8476464" lon="11.2141007"><ele>152.0</ele><time>2026-05-02T05:08:26.952Z</time></trkpt><trkpt lat="43.8477111" lon="11.2141231"><ele>152.0</ele><time>2026-05-02T05:08:27.947Z</time></trkpt><trkpt lat="43.8477685" lon="11.2141688"><ele>152.0</ele><time>2026-05-02T05:08:28.962Z</time></trkpt><trkpt lat="43.8478532" lon="11.214264"><ele>151.5</ele><time>2026-05-02T05:08:30.957Z</time></trkpt><trkpt lat="43.8479574" lon="11.2143451"><ele>151.0</ele><time>2026-05-02T05:08:32.962Z</time></trkpt><trkpt lat="43.8480181" lon="11.2143877"><ele>150.5</ele><time>2026-05-02T05:08:33.975Z</time></trkpt><trkpt lat="43.8480847" lon="11.2144316"><ele>150.0</ele><time>2026-05-02T05:08:34.973Z</time></trkpt><trkpt lat="43.8481561" lon="11.2144815"><ele>149.5</ele><time>2026-05-02T05:08:35.958Z</time></trkpt><trkpt lat="43.8482395" lon="11.2145422"><ele>149.0</ele><time>2026-05-02T05:08:36.965Z</time></trkpt><trkpt lat="43.8483131" lon="11.2146146"><ele>149.0</ele><time>2026-05-02T05:08:37.959Z</time></trkpt><trkpt lat="43.8483897" lon="11.2146845"><ele>149.0</ele><time>2026-05-02T05:08:38.971Z</time></trkpt><trkpt lat="43.8484565" lon="11.2147548"><ele>149.0</ele><time>2026-05-02T05:08:39.969Z</time></trkpt><trkpt lat="43.8485318" lon="11.214825"><ele>149.0</ele><time>2026-05-02T05:08:40.962Z</time></trkpt><trkpt lat="43.8486127" lon="11.2149008"><ele>149.0</ele><time>2026-05-02T05:08:41.964Z</time></trkpt><trkpt lat="43.8486997" lon="11.2149817"><ele>152.2</ele><time>2026-05-02T05:08:42.966Z</time></trkpt><trkpt lat="43.8487939" lon="11.215046"><ele>155.4</ele><time>2026-05-02T05:08:43.978Z</time></trkpt><trkpt lat="43.8488926" lon="11.2151131"><ele>158.6</ele><time>2026-05-02T05:08:44.981Z</time></trkpt><trkpt lat="43.8489863" lon="11.2151817"><ele>161.8</ele><time>2026-05-02T05:08:45.968Z</time></trkpt><trkpt lat="43.8490769" lon="11.2152625"><ele>165.0</ele><time>2026-05-02T05:08:46.954Z</time></trkpt><trkpt lat="43.8491655" lon="11.2153403"><ele>165.0</ele><time>2026-05-02T05:08:47.964Z</time></trkpt><trkpt lat="43.8492619" lon="11.2154333"><ele>165.0</ele><time>2026-05-02T05:08:48.976Z</time></trkpt><trkpt lat="43.8493531" lon="11.2155252"><ele>165.0</ele><time>2026-05-02T05:08:49.972Z</time></trkpt><trkpt lat="43.8494428" lon="11.2156177"><ele>165.0</ele><time>2026-05-02T05:08:50.97Z</time></trkpt><trkpt lat="43.8495255" lon="11.2157033"><ele>165.0</ele><time>2026-05-02T05:08:51.968Z</time></trkpt><trkpt lat="43.8496099" lon="11.2157988"><ele>168.2</ele><time>2026-05-02T05:08:52.964Z</time></trkpt><trkpt lat="43.8496856" lon="11.2158873"><ele>171.4</ele><time>2026-05-02T05:08:53.961Z</time></trkpt><trkpt lat="43.8497588" lon="11.2159815"><ele>174.60000000000002</ele><time>2026-05-02T05:08:55.024Z</time></trkpt><trkpt lat="43.8498376" lon="11.2160751"><ele>177.8</ele><time>2026-05-02T05:08:56.035Z</time></trkpt><trkpt lat="43.8499294" lon="11.2161633"><ele>181.0</ele><time>2026-05-02T05:08:56.96Z</time></trkpt><trkpt lat="43.8500275" lon="11.2162462"><ele>181.0</ele><time>2026-05-02T05:08:57.956Z</time></trkpt><trkpt lat="43.8501165" lon="11.2163442"><ele>181.0</ele><time>2026-05-02T05:08:58.965Z</time></trkpt><trkpt lat="43.850209" lon="11.2164237"><ele>181.0</ele><time>2026-05-02T05:09:00.032Z</time></trkpt><trkpt lat="43.8503007" lon="11.2165013"><ele>181.0</ele><time>2026-05-02T05:09:01.031Z</time></trkpt><trkpt lat="43.8503885" lon="11.2165739"><ele>181.0</ele><time>2026-05-02T05:09:01.96Z</time></trkpt><trkpt lat="43.8504776" lon="11.2166532"><ele>183.5</ele><time>2026-05-02T05:09:02.958Z</time></trkpt><trkpt lat="43.8505719" lon="11.2167421"><ele>186.0</ele><time>2026-05-02T05:09:03.96Z</time></trkpt><trkpt lat="43.8506716" lon="11.2168388"><ele>188.5</ele><time>2026-05-02T05:09:04.951Z</time></trkpt><trkpt lat="43.8507656" lon="11.2169234"><ele>191.0</ele><time>2026-05-02T05:09:05.964Z</time></trkpt><trkpt lat="43.8508497" lon="11.2170144"><ele>191.0</ele><time>2026-05-02T05:09:06.968Z</time></trkpt><trkpt lat="43.8509308" lon="11.2170962"><ele>191.0</ele><time>2026-05-02T05:09:07.965Z</time></trkpt><trkpt lat="43.8510159" lon="11.2171642"><ele>191.0</ele><time>2026-05-02T05:09:08.965Z</time></trkpt><trkpt lat="43.8511111" lon="11.2171844"><ele>191.0</ele><time>2026-05-02T05:09:09.96Z</time></trkpt><trkpt lat="43.8512126" lon="11.2172045"><ele>191.0</ele><time>2026-05-02T05:09:10.961Z</time></trkpt><trkpt lat="43.8513098" lon="11.2172568"><ele>188.60000000000002</ele><time>2026-05-02T05:09:11.961Z</time></trkpt><trkpt lat="43.8514007" lon="11.2173068"><ele>186.2</ele><time>2026-05-02T05:09:12.962Z</time></trkpt><trkpt lat="43.8514917" lon="11.2173662"><ele>183.8</ele><time>2026-05-02T05:09:13.961Z</time></trkpt><trkpt lat="43.8515851" lon="11.2174386"><ele>181.39999999999998</ele><time>2026-05-02T05:09:14.963Z</time></trkpt><trkpt lat="43.8516799" lon="11.2175247"><ele>179.0</ele><time>2026-05-02T05:09:15.963Z</time></trkpt><trkpt lat="43.8517787" lon="11.2176107"><ele>183.0</ele><time>2026-05-02T05:09:16.959Z</time></trkpt><trkpt lat="43.8518987" lon="11.2177104"><ele>187.0</ele><time>2026-05-02T05:09:17.966Z</time></trkpt><trkpt lat="43.8520145" lon="11.2177941"><ele>191.0</ele><time>2026-05-02T05:09:18.965Z</time></trkpt><trkpt lat="43.8521241" lon="11.2178691"><ele>195.0</ele><time>2026-05-02T05:09:19.969Z</time></trkpt><trkpt lat="43.8522252" lon="11.2179417"><ele>195.0</ele><time>2026-05-02T05:09:20.964Z</time></trkpt><trkpt lat="43.85231" lon="11.2180026"><ele>195.0</ele><time>2026-05-02T05:09:21.968Z</time></trkpt><trkpt lat="43.852387" lon="11.218061"><ele>195.0</ele><time>2026-05-02T05:09:22.975Z</time></trkpt><trkpt lat="43.8524648" lon="11.2181313"><ele>195.0</ele><time>2026-05-02T05:09:23.964Z</time></trkpt><trkpt lat="43.8525522" lon="11.2182017"><ele>195.0</ele><time>2026-05-02T05:09:24.962Z</time></trkpt><trkpt lat="43.8526403" lon="11.2182801"><ele>196.75</ele><time>2026-05-02T05:09:25.974Z</time></trkpt><trkpt lat="43.8527362" lon="11.2183452"><ele>198.5</ele><time>2026-05-02T05:09:26.965Z</time></trkpt><trkpt lat="43.8528411" lon="11.2184225"><ele>200.25</ele><time>2026-05-02T05:09:27.965Z</time></trkpt><trkpt lat="43.8529544" lon="11.2185043"><ele>202.0</ele><time>2026-05-02T05:09:28.969Z</time></trkpt><trkpt lat="43.8530568" lon="11.2185799"><ele>202.0</ele><time>2026-05-02T05:09:29.971Z</time></trkpt><trkpt lat="43.8531472" lon="11.2186565"><ele>202.0</ele><time>2026-05-02T05:09:30.969Z</time></trkpt><trkpt lat="43.8532373" lon="11.2187223"><ele>202.0</ele><time>2026-05-02T05:09:31.968Z</time></trkpt><trkpt lat="43.8533131" lon="11.2187788"><ele>202.0</ele><time>2026-05-02T05:09:32.964Z</time></trkpt><trkpt lat="43.8533927" lon="11.2188367"><ele>202.0</ele><time>2026-05-02T05:09:33.963Z</time></trkpt><trkpt lat="43.8534683" lon="11.2188981"><ele>199.66666666666666</ele><time>2026-05-02T05:09:34.966Z</time></trkpt><trkpt lat="43.8535468" lon="11.2189458"><ele>197.33333333333331</ele><time>2026-05-02T05:09:35.959Z</time></trkpt><trkpt lat="43.8536243" lon="11.2189913"><ele>195.0</ele><time>2026-05-02T05:09:36.97Z</time></trkpt><trkpt lat="43.8536951" lon="11.2190408"><ele>192.66666666666666</ele><time>2026-05-02T05:09:37.962Z</time></trkpt><trkpt lat="43.8537619" lon="11.2191051"><ele>190.33333333333331</ele><time>2026-05-02T05:09:38.971Z</time></trkpt><trkpt lat="43.8538139" lon="11.219158"><ele>188.0</ele><time>2026-05-02T05:09:39.962Z</time></trkpt><trkpt lat="43.8538684" lon="11.2192096"><ele>188.5</ele><time>2026-05-02T05:09:40.965Z</time></trkpt><trkpt lat="43.8539284" lon="11.2192549"><ele>189.0</ele><time>2026-05-02T05:09:41.96Z</time></trkpt><trkpt lat="43.8539998" lon="11.2193123"><ele>189.5</ele><time>2026-05-02T05:09:42.968Z</time></trkpt><trkpt lat="43.8540658" lon="11.2193751"><ele>190.0</ele><time>2026-05-02T05:09:43.962Z</time></trkpt><trkpt lat="43.8541433" lon="11.2194445"><ele>190.5</ele><time>2026-05-02T05:09:44.97Z</time></trkpt><trkpt lat="43.8542282" lon="11.2195032"><ele>191.0</ele><time>2026-05-02T05:09:45.966Z</time></trkpt><trkpt lat="43.8543089" lon="11.2195667"><ele>191.0</ele><time>2026-05-02T05:09:46.97Z</time></trkpt><trkpt lat="43.854379" lon="11.219644"><ele>191.0</ele><time>2026-05-02T05:09:47.97Z</time></trkpt><trkpt lat="43.8544397" lon="11.2197321"><ele>191.0</ele><time>2026-05-02T05:09:48.955Z</time></trkpt><trkpt lat="43.8545014" lon="11.2198237"><ele>191.0</ele><time>2026-05-02T05:09:49.963Z</time></trkpt><trkpt lat="43.8545527" lon="11.2199189"><ele>191.0</ele><time>2026-05-02T05:09:50.968Z</time></trkpt><trkpt lat="43.8545872" lon="11.2200087"><ele>191.0</ele><time>2026-05-02T05:09:51.963Z</time></trkpt><trkpt lat="43.8546276" lon="11.2201101"><ele>194.0</ele><time>2026-05-02T05:09:52.965Z</time></trkpt><trkpt lat="43.8546627" lon="11.2201991"><ele>197.0</ele><time>2026-05-02T05:09:53.957Z</time></trkpt><trkpt lat="43.8547046" lon="11.2203067"><ele>200.0</ele><time>2026-05-02T05:09:54.952Z</time></trkpt><trkpt lat="43.8547332" lon="11.2204001"><ele>203.0</ele><time>2026-05-02T05:09:55.964Z</time></trkpt><trkpt lat="43.8547638" lon="11.2204929"><ele>206.00000000000003</ele><time>2026-05-02T05:09:56.974Z</time></trkpt><trkpt lat="43.8548054" lon="11.2205787"><ele>209.0</ele><time>2026-05-02T05:09:57.971Z</time></trkpt><trkpt lat="43.8548498" lon="11.2206726"><ele>212.2</ele><time>2026-05-02T05:09:58.96Z</time></trkpt><trkpt lat="43.8548923" lon="11.2207998"><ele>215.39999999999998</ele><time>2026-05-02T05:09:59.962Z</time></trkpt><trkpt lat="43.8549413" lon="11.2209409"><ele>218.6</ele><time>2026-05-02T05:10:00.96Z</time></trkpt><trkpt lat="43.854996" lon="11.2210762"><ele>221.8</ele><time>2026-05-02T05:10:01.969Z</time></trkpt><trkpt lat="43.8550632" lon="11.2212152"><ele>225.0</ele><time>2026-05-02T05:10:02.961Z</time></trkpt><trkpt lat="43.855115" lon="11.2213639"><ele>225.2</ele><time>2026-05-02T05:10:03.959Z</time></trkpt><trkpt lat="43.8551587" lon="11.2214861"><ele>225.4</ele><time>2026-05-02T05:10:04.955Z</time></trkpt><trkpt lat="43.8551971" lon="11.2216197"><ele>225.60000000000002</ele><time>2026-05-02T05:10:05.963Z</time></trkpt><trkpt lat="43.8552161" lon="11.2217474"><ele>225.8</ele><time>2026-05-02T05:10:06.957Z</time></trkpt><trkpt lat="43.8552412" lon="11.2218537"><ele>226.0</ele><time>2026-05-02T05:10:07.963Z</time></trkpt><trkpt lat="43.8552704" lon="11.2219827"><ele>226.0</ele><time>2026-05-02T05:10:09.97Z</time></trkpt><trkpt lat="43.8553065" lon="11.222157"><ele>226.00000000000003</ele><time>2026-05-02T05:10:13.965Z</time></trkpt><trkpt lat="43.8552599" lon="11.2222204"><ele>226.00000000000003</ele><time>2026-05-02T05:10:17.956Z</time></trkpt><trkpt lat="43.8551737" lon="11.2222034"><ele>226.0</ele><time>2026-05-02T05:10:20.962Z</time></trkpt><trkpt lat="43.8550801" lon="11.2221645"><ele>226.0</ele><time>2026-05-02T05:10:23.964Z</time></trkpt><trkpt lat="43.8550067" lon="11.2221266"><ele>229.0</ele><time>2026-05-02T05:10:25.964Z</time></trkpt><trkpt lat="43.8549247" lon="11.2220916"><ele>232.00000000000003</ele><time>2026-05-02T05:10:27.96Z</time></trkpt><trkpt lat="43.854838" lon="11.222027"><ele>235.00000000000003</ele><time>2026-05-02T05:10:29.955Z</time></trkpt><trkpt lat="43.8547454" lon="11.221955"><ele>238.0</ele><time>2026-05-02T05:10:31.961Z</time></trkpt><trkpt lat="43.8546413" lon="11.2218787"><ele>241.0</ele><time>2026-05-02T05:10:33.958Z</time></trkpt><trkpt lat="43.8545368" lon="11.221818"><ele>241.0</ele><time>2026-05-02T05:10:35.961Z</time></trkpt><trkpt lat="43.854444" lon="11.2217933"><ele>241.00000000000003</ele><time>2026-05-02T05:10:37.961Z</time></trkpt><trkpt lat="43.8543487" lon="11.2217362"><ele>241.00000000000003</ele><time>2026-05-02T05:10:39.967Z</time></trkpt><trkpt lat="43.8542496" lon="11.2216647"><ele>241.0</ele><time>2026-05-02T05:10:41.967Z</time></trkpt><trkpt lat="43.8541632" lon="11.2216035"><ele>241.0</ele><time>2026-05-02T05:10:43.968Z</time></trkpt><trkpt lat="43.8540865" lon="11.2215608"><ele>240.99999999999997</ele><time>2026-05-02T05:10:45.959Z</time></trkpt><trkpt lat="43.8540872" lon="11.2216608"><ele>241.0</ele><time>2026-05-02T05:10:50.035Z</time></trkpt><trkpt lat="43.8541445" lon="11.2217604"><ele>241.0</ele><time>2026-05-02T05:10:52.963Z</time></trkpt><trkpt lat="43.8541888" lon="11.2218395"><ele>241.0</ele><time>2026-05-02T05:10:54.963Z</time></trkpt><trkpt lat="43.8542304" lon="11.2219522"><ele>240.99999999999997</ele><time>2026-05-02T05:10:56.962Z</time></trkpt><trkpt lat="43.8542774" lon="11.2220495"><ele>241.0</ele><time>2026-05-02T05:10:58.957Z</time></trkpt><trkpt lat="43.8543243" lon="11.2221497"><ele>240.99999999999997</ele><time>2026-05-02T05:11:00.951Z</time></trkpt><trkpt lat="43.8543617" lon="11.222237"><ele>241.0</ele><time>2026-05-02T05:11:02.967Z</time></trkpt><trkpt lat="43.8543841" lon="11.2223385"><ele>241.0</ele><time>2026-05-02T05:11:04.959Z</time></trkpt><trkpt lat="43.8544208" lon="11.2224514"><ele>241.0</ele><time>2026-05-02T05:11:06.949Z</time></trkpt><trkpt lat="43.8544232" lon="11.2225463"><ele>240.99999999999997</ele><time>2026-05-02T05:11:08.962Z</time></trkpt><trkpt lat="43.8543661" lon="11.2226125"><ele>241.0</ele><time>2026-05-02T05:11:11.962Z</time></trkpt><trkpt lat="43.8542886" lon="11.222584"><ele>243.83333333333331</ele><time>2026-05-02T05:11:14.949Z</time></trkpt><trkpt lat="43.854209" lon="11.2226151"><ele>246.66666666666666</ele><time>2026-05-02T05:11:17.993Z</time></trkpt><trkpt lat="43.8542216" lon="11.2227285"><ele>249.5</ele><time>2026-05-02T05:11:20.954Z</time></trkpt><trkpt lat="43.8542607" lon="11.2228102"><ele>252.33333333333331</ele><time>2026-05-02T05:11:22.955Z</time></trkpt><trkpt lat="43.8542952" lon="11.2229278"><ele>255.16666666666666</ele><time>2026-05-02T05:11:24.965Z</time></trkpt><trkpt lat="43.8543261" lon="11.223071"><ele>258.0</ele><time>2026-05-02T05:11:26.966Z</time></trkpt><trkpt lat="43.8543401" lon="11.2232143"><ele>260.6</ele><time>2026-05-02T05:11:28.968Z</time></trkpt><trkpt lat="43.854355" lon="11.2233591"><ele>263.20000000000005</ele><time>2026-05-02T05:11:30.981Z</time></trkpt><trkpt lat="43.8543583" lon="11.2235212"><ele>265.8</ele><time>2026-05-02T05:11:32.969Z</time></trkpt><trkpt lat="43.8543681" lon="11.2236719"><ele>268.40000000000003</ele><time>2026-05-02T05:11:34.96Z</time></trkpt><trkpt lat="43.8543628" lon="11.2237817"><ele>271.0</ele><time>2026-05-02T05:11:36.967Z</time></trkpt><trkpt lat="43.8543155" lon="11.223891"><ele>277.8</ele><time>2026-05-02T05:11:38.956Z</time></trkpt><trkpt lat="43.8542526" lon="11.2239739"><ele>284.6</ele><time>2026-05-02T05:11:40.964Z</time></trkpt><trkpt lat="43.8542126" lon="11.2240424"><ele>291.4</ele><time>2026-05-02T05:11:42.957Z</time></trkpt><trkpt lat="43.8541854" lon="11.2241605"><ele>298.2</ele><time>2026-05-02T05:11:44.972Z</time></trkpt><trkpt lat="43.8541762" lon="11.2242957"><ele>305.0</ele><time>2026-05-02T05:11:46.959Z</time></trkpt><trkpt lat="43.8541661" lon="11.2244552"><ele>306.4</ele><time>2026-05-02T05:11:48.961Z</time></trkpt><trkpt lat="43.8541629" lon="11.2246025"><ele>307.8</ele><time>2026-05-02T05:11:50.955Z</time></trkpt><trkpt lat="43.8541795" lon="11.2247629"><ele>309.2</ele><time>2026-05-02T05:11:52.958Z</time></trkpt><trkpt lat="43.8541771" lon="11.2249176"><ele>310.6</ele><time>2026-05-02T05:11:54.964Z</time></trkpt><trkpt lat="43.8541835" lon="11.2250482"><ele>312.0</ele><time>2026-05-02T05:11:56.965Z</time></trkpt><trkpt lat="43.8541803" lon="11.2251622"><ele>312.8333333333333</ele><time>2026-05-02T05:11:58.96Z</time></trkpt><trkpt lat="43.8541769" lon="11.2252675"><ele>313.6666666666667</ele><time>2026-05-02T05:12:01.019Z</time></trkpt><trkpt lat="43.8541644" lon="11.2253793"><ele>314.5</ele><time>2026-05-02T05:12:02.966Z</time></trkpt><trkpt lat="43.8541272" lon="11.2254933"><ele>315.33333333333337</ele><time>2026-05-02T05:12:04.951Z</time></trkpt><trkpt lat="43.8540885" lon="11.225593"><ele>316.1666666666667</ele><time>2026-05-02T05:12:06.954Z</time></trkpt><trkpt lat="43.8540466" lon="11.2256847"><ele>317.0</ele><time>2026-05-02T05:12:08.956Z</time></trkpt><trkpt lat="43.8540133" lon="11.2257833"><ele>317.6666666666667</ele><time>2026-05-02T05:12:10.959Z</time></trkpt><trkpt lat="43.8540046" lon="11.2258812"><ele>318.33333333333337</ele><time>2026-05-02T05:12:12.958Z</time></trkpt><trkpt lat="43.8539653" lon="11.2259616"><ele>319.0</ele><time>2026-05-02T05:12:15.954Z</time></trkpt><trkpt lat="43.853894" lon="11.22596"><ele>319.6666666666667</ele><time>2026-05-02T05:12:20.959Z</time></trkpt><trkpt lat="43.8538266" lon="11.2259162"><ele>320.3333333333333</ele><time>2026-05-02T05:12:23.955Z</time></trkpt><trkpt lat="43.8537564" lon="11.2258859"><ele>321.0</ele><time>2026-05-02T05:12:26.964Z</time></trkpt><trkpt lat="43.8536978" lon="11.2259895"><ele>321.0</ele><time>2026-05-02T05:12:29.967Z</time></trkpt><trkpt lat="43.8536723" lon="11.2261063"><ele>321.0</ele><time>2026-05-02T05:12:32.958Z</time></trkpt><trkpt lat="43.8536774" lon="11.226209"><ele>321.0</ele><time>2026-05-02T05:12:35.965Z</time></trkpt><trkpt lat="43.8536384" lon="11.226293"><ele>321.0</ele><time>2026-05-02T05:12:37.96Z</time></trkpt><trkpt lat="43.8535979" lon="11.2263816"><ele>321.0</ele><time>2026-05-02T05:12:39.957Z</time></trkpt><trkpt lat="43.8535792" lon="11.2264747"><ele>321.0</ele><time>2026-05-02T05:12:41.963Z</time></trkpt><trkpt lat="43.8535803" lon="11.226578"><ele>321.4285714285714</ele><time>2026-05-02T05:12:43.963Z</time></trkpt><trkpt lat="43.8535981" lon="11.2266966"><ele>321.85714285714283</ele><time>2026-05-02T05:12:46.96Z</time></trkpt><trkpt lat="43.8536" lon="11.2268211"><ele>322.2857142857143</ele><time>2026-05-02T05:12:48.968Z</time></trkpt><trkpt lat="43.8535971" lon="11.2269102"><ele>322.71428571428567</ele><time>2026-05-02T05:12:49.956Z</time></trkpt><trkpt lat="43.8535779" lon="11.2269945"><ele>323.1428571428571</ele><time>2026-05-02T05:12:50.966Z</time></trkpt><trkpt lat="43.8535487" lon="11.2270827"><ele>323.57142857142856</ele><time>2026-05-02T05:12:51.968Z</time></trkpt><trkpt lat="43.8535233" lon="11.2271703"><ele>324.0</ele><time>2026-05-02T05:12:52.983Z</time></trkpt><trkpt lat="43.8534857" lon="11.2273006"><ele>324.5</ele><time>2026-05-02T05:12:55.026Z</time></trkpt><trkpt lat="43.853468" lon="11.227392"><ele>325.0</ele><time>2026-05-02T05:12:56.964Z</time></trkpt><trkpt lat="43.8534678" lon="11.2275197"><ele>325.5</ele><time>2026-05-02T05:13:00.017Z</time></trkpt><trkpt lat="43.8534281" lon="11.227623"><ele>326.0</ele><time>2026-05-02T05:13:02.962Z</time></trkpt><trkpt lat="43.8533881" lon="11.2276966"><ele>326.5</ele><time>2026-05-02T05:13:04.967Z</time></trkpt><trkpt lat="43.8533487" lon="11.2278247"><ele>327.0</ele><time>2026-05-02T05:13:06.956Z</time></trkpt><trkpt lat="43.8533279" lon="11.2279372"><ele>333.5</ele><time>2026-05-02T05:13:09.019Z</time></trkpt><trkpt lat="43.8533005" lon="11.2280561"><ele>340.0</ele><time>2026-05-02T05:13:10.965Z</time></trkpt><trkpt lat="43.8532738" lon="11.2281397"><ele>346.5</ele><time>2026-05-02T05:13:12.962Z</time></trkpt><trkpt lat="43.8532158" lon="11.2282017"><ele>353.0</ele><time>2026-05-02T05:13:15.953Z</time></trkpt><trkpt lat="43.8531863" lon="11.2281107"><ele>359.5</ele><time>2026-05-02T05:13:17.959Z</time></trkpt><trkpt lat="43.8532115" lon="11.2279754"><ele>366.0</ele><time>2026-05-02T05:13:19.966Z</time></trkpt><trkpt lat="43.8532026" lon="11.2278519"><ele>366.0</ele><time>2026-05-02T05:13:21.964Z</time></trkpt><trkpt lat="43.8531764" lon="11.2277204"><ele>366.0</ele><time>2026-05-02T05:13:23.96Z</time></trkpt><trkpt lat="43.8531468" lon="11.2275777"><ele>366.0</ele><time>2026-05-02T05:13:25.959Z</time></trkpt><trkpt lat="43.8531149" lon="11.2274126"><ele>366.0</ele><time>2026-05-02T05:13:27.964Z</time></trkpt><trkpt lat="43.8531024" lon="11.227326"><ele>366.0</ele><time>2026-05-02T05:13:28.967Z</time></trkpt><trkpt lat="43.853078" lon="11.2271759"><ele>365.4</ele><time>2026-05-02T05:13:30.961Z</time></trkpt><trkpt lat="43.853054" lon="11.2270142"><ele>364.8</ele><time>2026-05-02T05:13:32.963Z</time></trkpt><trkpt lat="43.8530254" lon="11.2268514"><ele>364.2</ele><time>2026-05-02T05:13:34.96Z</time></trkpt><trkpt lat="43.8529955" lon="11.2267033"><ele>363.59999999999997</ele><time>2026-05-02T05:13:36.968Z</time></trkpt><trkpt lat="43.8529695" lon="11.2265784"><ele>363.0</ele><time>2026-05-02T05:13:38.966Z</time></trkpt><trkpt lat="43.852934" lon="11.2264545"><ele>362.2</ele><time>2026-05-02T05:13:40.961Z</time></trkpt><trkpt lat="43.8528943" lon="11.2263232"><ele>361.4</ele><time>2026-05-02T05:13:42.963Z</time></trkpt><trkpt lat="43.8528536" lon="11.2262012"><ele>360.59999999999997</ele><time>2026-05-02T05:13:44.965Z</time></trkpt><trkpt lat="43.8528138" lon="11.2260746"><ele>359.79999999999995</ele><time>2026-05-02T05:13:46.962Z</time></trkpt><trkpt lat="43.8527806" lon="11.2259488"><ele>359.0</ele><time>2026-05-02T05:13:49.034Z</time></trkpt><trkpt lat="43.8527564" lon="11.2258155"><ele>359.0</ele><time>2026-05-02T05:13:50.97Z</time></trkpt><trkpt lat="43.8527414" lon="11.2256713"><ele>359.0</ele><time>2026-05-02T05:13:52.95Z</time></trkpt><trkpt lat="43.8527281" lon="11.2255407"><ele>359.0</ele><time>2026-05-02T05:13:54.959Z</time></trkpt><trkpt lat="43.8527209" lon="11.2254156"><ele>359.0</ele><time>2026-05-02T05:13:56.955Z</time></trkpt><trkpt lat="43.8527076" lon="11.2253088"><ele>359.0</ele><time>2026-05-02T05:13:58.957Z</time></trkpt><trkpt lat="43.8527035" lon="11.2252082"><ele>359.0</ele><time>2026-05-02T05:14:00.952Z</time></trkpt><trkpt lat="43.8527055" lon="11.2250976"><ele>359.0</ele><time>2026-05-02T05:14:02.961Z</time></trkpt><trkpt lat="43.8526906" lon="11.2249787"><ele>359.0</ele><time>2026-05-02T05:14:04.955Z</time></trkpt><trkpt lat="43.8526827" lon="11.2248566"><ele>359.0</ele><time>2026-05-02T05:14:06.959Z</time></trkpt><trkpt lat="43.852659" lon="11.224753"><ele>359.0</ele><time>2026-05-02T05:14:09.02Z</time></trkpt><trkpt lat="43.8526078" lon="11.2246563"><ele>359.0</ele><time>2026-05-02T05:14:11.966Z</time></trkpt><trkpt lat="43.8525543" lon="11.2245805"><ele>359.0</ele><time>2026-05-02T05:14:14.956Z</time></trkpt><trkpt lat="43.8524962" lon="11.2245133"><ele>364.0</ele><time>2026-05-02T05:14:17.959Z</time></trkpt><trkpt lat="43.8524351" lon="11.2244347"><ele>369.0</ele><time>2026-05-02T05:14:20.961Z</time></trkpt><trkpt lat="43.8523749" lon="11.224351"><ele>374.0</ele><time>2026-05-02T05:14:23.958Z</time></trkpt><trkpt lat="43.8523162" lon="11.2242518"><ele>379.0</ele><time>2026-05-02T05:14:25.955Z</time></trkpt><trkpt lat="43.8522537" lon="11.2241288"><ele>384.0</ele><time>2026-05-02T05:14:27.962Z</time></trkpt><trkpt lat="43.852169" lon="11.2240224"><ele>385.2</ele><time>2026-05-02T05:14:29.949Z</time></trkpt><trkpt lat="43.8520857" lon="11.2239284"><ele>386.4</ele><time>2026-05-02T05:14:31.959Z</time></trkpt><trkpt lat="43.8520088" lon="11.2238405"><ele>387.6</ele><time>2026-05-02T05:14:33.954Z</time></trkpt><trkpt lat="43.8519205" lon="11.2237496"><ele>388.8</ele><time>2026-05-02T05:14:35.959Z</time></trkpt><trkpt lat="43.8518362" lon="11.2236672"><ele>390.0</ele><time>2026-05-02T05:14:37.957Z</time></trkpt><trkpt lat="43.8517443" lon="11.2235874"><ele>390.0</ele><time>2026-05-02T05:14:39.967Z</time></trkpt><trkpt lat="43.8516594" lon="11.2235074"><ele>390.0</ele><time>2026-05-02T05:14:41.952Z</time></trkpt><trkpt lat="43.8515742" lon="11.2234251"><ele>390.0</ele><time>2026-05-02T05:14:43.967Z</time></trkpt><trkpt lat="43.8514853" lon="11.2233817"><ele>390.0</ele><time>2026-05-02T05:14:46.021Z</time></trkpt><trkpt lat="43.8513871" lon="11.223325"><ele>390.0</ele><time>2026-05-02T05:14:47.963Z</time></trkpt><trkpt lat="43.851287" lon="11.2232723"><ele>390.0</ele><time>2026-05-02T05:14:50.031Z</time></trkpt><trkpt lat="43.8511914" lon="11.2232171"><ele>390.0</ele><time>2026-05-02T05:14:51.959Z</time></trkpt><trkpt lat="43.851101" lon="11.2231676"><ele>390.0</ele><time>2026-05-02T05:14:53.957Z</time></trkpt><trkpt lat="43.8510215" lon="11.2231124"><ele>390.0</ele><time>2026-05-02T05:14:56.037Z</time></trkpt><trkpt lat="43.8509288" lon="11.2230714"><ele>390.0</ele><time>2026-05-02T05:14:57.969Z</time></trkpt><trkpt lat="43.85084" lon="11.2230346"><ele>389.4</ele><time>2026-05-02T05:15:00.024Z</time></trkpt><trkpt lat="43.8507474" lon="11.2230062"><ele>388.8</ele><time>2026-05-02T05:15:01.977Z</time></trkpt><trkpt lat="43.8506576" lon="11.2229756"><ele>388.20000000000005</ele><time>2026-05-02T05:15:03.989Z</time></trkpt><trkpt lat="43.8505697" lon="11.2229338"><ele>387.6</ele><time>2026-05-02T05:15:05.96Z</time></trkpt><trkpt lat="43.8504803" lon="11.2229"><ele>387.0</ele><time>2026-05-02T05:15:07.967Z</time></trkpt><trkpt lat="43.8503928" lon="11.2228596"><ele>387.0</ele><time>2026-05-02T05:15:09.969Z</time></trkpt><trkpt lat="43.8503266" lon="11.2228301"><ele>387.0</ele><time>2026-05-02T05:15:11.957Z</time></trkpt><trkpt lat="43.8502669" lon="11.2227926"><ele>387.0</ele><time>2026-05-02T05:15:13.974Z</time></trkpt><trkpt lat="43.8501872" lon="11.2227581"><ele>387.0</ele><time>2026-05-02T05:15:15.966Z</time></trkpt><trkpt lat="43.8500969" lon="11.2227338"><ele>387.0</ele><time>2026-05-02T05:15:18.022Z</time></trkpt><trkpt lat="43.8500032" lon="11.2227156"><ele>387.0</ele><time>2026-05-02T05:15:19.971Z</time></trkpt><trkpt lat="43.8499259" lon="11.2227076"><ele>388.6666666666667</ele><time>2026-05-02T05:15:21.974Z</time></trkpt><trkpt lat="43.8498541" lon="11.2226975"><ele>390.33333333333337</ele><time>2026-05-02T05:15:23.959Z</time></trkpt><trkpt lat="43.8497871" lon="11.2226734"><ele>392.0</ele><time>2026-05-02T05:15:25.955Z</time></trkpt><trkpt lat="43.8497087" lon="11.2226432"><ele>393.6666666666667</ele><time>2026-05-02T05:15:27.965Z</time></trkpt><trkpt lat="43.8496209" lon="11.2226184"><ele>395.33333333333337</ele><time>2026-05-02T05:15:29.954Z</time></trkpt><trkpt lat="43.8495302" lon="11.2226275"><ele>397.0</ele><time>2026-05-02T05:15:31.972Z</time></trkpt><trkpt lat="43.8494424" lon="11.2226423"><ele>397.0</ele><time>2026-05-02T05:15:33.964Z</time></trkpt><trkpt lat="43.8493597" lon="11.2226576"><ele>397.0</ele><time>2026-05-02T05:15:35.962Z</time></trkpt><trkpt lat="43.8492932" lon="11.2226799"><ele>397.0</ele><time>2026-05-02T05:15:37.97Z</time></trkpt><trkpt lat="43.8492285" lon="11.2227221"><ele>397.0</ele><time>2026-05-02T05:15:40.964Z</time></trkpt><trkpt lat="43.8491603" lon="11.2227717"><ele>397.0</ele><time>2026-05-02T05:15:44.031Z</time></trkpt><trkpt lat="43.8490948" lon="11.2228044"><ele>397.0</ele><time>2026-05-02T05:15:46.96Z</time></trkpt><trkpt lat="43.849017" lon="11.2228244"><ele>397.0</ele><time>2026-05-02T05:15:49.958Z</time></trkpt><trkpt lat="43.8489269" lon="11.2228595"><ele>398.42857142857144</ele><time>2026-05-02T05:15:52.956Z</time></trkpt><trkpt lat="43.8488562" lon="11.2229161"><ele>399.85714285714283</ele><time>2026-05-02T05:15:55.958Z</time></trkpt><trkpt lat="43.8487972" lon="11.2229621"><ele>401.28571428571433</ele><time>2026-05-02T05:15:57.958Z</time></trkpt><trkpt lat="43.8487364" lon="11.2229985"><ele>402.7142857142857</ele><time>2026-05-02T05:15:59.959Z</time></trkpt><trkpt lat="43.8487814" lon="11.2230677"><ele>404.14285714285717</ele><time>2026-05-02T05:16:07.956Z</time></trkpt><trkpt lat="43.8488687" lon="11.2230911"><ele>405.5714285714286</ele><time>2026-05-02T05:16:11.021Z</time></trkpt><trkpt lat="43.8489435" lon="11.2231031"><ele>407.0</ele><time>2026-05-02T05:16:12.952Z</time></trkpt><trkpt lat="43.8490275" lon="11.2231211"><ele>410.3333333333333</ele><time>2026-05-02T05:16:14.966Z</time></trkpt><trkpt lat="43.8491142" lon="11.2231598"><ele>413.66666666666663</ele><time>2026-05-02T05:16:16.961Z</time></trkpt><trkpt lat="43.8491923" lon="11.2231923"><ele>417.0</ele><time>2026-05-02T05:16:19.043Z</time></trkpt><trkpt lat="43.8492512" lon="11.2232424"><ele>420.33333333333337</ele><time>2026-05-02T05:16:20.959Z</time></trkpt><trkpt lat="43.8492346" lon="11.2233389"><ele>423.6666666666667</ele><time>2026-05-02T05:16:25.971Z</time></trkpt><trkpt lat="43.8491479" lon="11.2233864"><ele>427.0</ele><time>2026-05-02T05:16:28.976Z</time></trkpt><trkpt lat="43.8490661" lon="11.223427"><ele>427.0</ele><time>2026-05-02T05:16:31.982Z</time></trkpt><trkpt lat="43.8489864" lon="11.2234807"><ele>427.0</ele><time>2026-05-02T05:16:34.984Z</time></trkpt><trkpt lat="43.8489258" lon="11.2235092"><ele>427.0</ele><time>2026-05-02T05:16:36.969Z</time></trkpt><trkpt lat="43.8488618" lon="11.2235304"><ele>427.0</ele><time>2026-05-02T05:16:38.977Z</time></trkpt><trkpt lat="43.8487876" lon="11.2235843"><ele>427.0</ele><time>2026-05-02T05:16:41.984Z</time></trkpt><trkpt lat="43.8487358" lon="11.2236456"><ele>427.0</ele><time>2026-05-02T05:16:44.978Z</time></trkpt><trkpt lat="43.8486944" lon="11.2237123"><ele>427.0</ele><time>2026-05-02T05:16:47.976Z</time></trkpt><trkpt lat="43.8486402" lon="11.2237869"><ele>427.00000000000006</ele><time>2026-05-02T05:16:50.984Z</time></trkpt><trkpt lat="43.8485801" lon="11.2238414"><ele>427.0</ele><time>2026-05-02T05:16:53.974Z</time></trkpt><trkpt lat="43.8485072" lon="11.2239102"><ele>427.0</ele><time>2026-05-02T05:16:57.979Z</time></trkpt><trkpt lat="43.8484368" lon="11.223996"><ele>427.0</ele><time>2026-05-02T05:17:00.979Z</time></trkpt><trkpt lat="43.8483728" lon="11.2240832"><ele>427.00000000000006</ele><time>2026-05-02T05:17:03.979Z</time></trkpt><trkpt lat="43.8483238" lon="11.2241451"><ele>427.0</ele><time>2026-05-02T05:17:05.974Z</time></trkpt><trkpt lat="43.8482442" lon="11.2242125"><ele>429.7142857142857</ele><time>2026-05-02T05:17:08.975Z</time></trkpt><trkpt lat="43.8482858" lon="11.2242824"><ele>432.42857142857144</ele><time>2026-05-02T05:17:18.973Z</time></trkpt><trkpt lat="43.8483598" lon="11.2242925"><ele>435.1428571428571</ele><time>2026-05-02T05:17:22.974Z</time></trkpt><trkpt lat="43.8484345" lon="11.2243077"><ele>437.8571428571429</ele><time>2026-05-02T05:17:25.964Z</time></trkpt><trkpt lat="43.8485049" lon="11.2243213"><ele>440.57142857142856</ele><time>2026-05-02T05:17:27.969Z</time></trkpt><trkpt lat="43.848576" lon="11.2243345"><ele>443.2857142857143</ele><time>2026-05-02T05:17:29.968Z</time></trkpt><trkpt lat="43.8486414" lon="11.2243282"><ele>446.0</ele><time>2026-05-02T05:17:31.977Z</time></trkpt><trkpt lat="43.8487205" lon="11.2243065"><ele>446.66666666666663</ele><time>2026-05-02T05:17:33.961Z</time></trkpt><trkpt lat="43.8488123" lon="11.2243451"><ele>447.3333333333333</ele><time>2026-05-02T05:17:36.976Z</time></trkpt><trkpt lat="43.8487753" lon="11.2244465"><ele>448.0</ele><time>2026-05-02T05:17:40.958Z</time></trkpt><trkpt lat="43.8487155" lon="11.2245242"><ele>448.66666666666663</ele><time>2026-05-02T05:17:43.98Z</time></trkpt><trkpt lat="43.8486576" lon="11.2245838"><ele>449.3333333333333</ele><time>2026-05-02T05:17:45.976Z</time></trkpt><trkpt lat="43.8485915" lon="11.2246535"><ele>450.0</ele><time>2026-05-02T05:17:48.981Z</time></trkpt><trkpt lat="43.8485743" lon="11.2247556"><ele>450.0</ele><time>2026-05-02T05:17:54.95Z</time></trkpt><trkpt lat="43.8486395" lon="11.2247688"><ele>450.0</ele><time>2026-05-02T05:17:58.946Z</time></trkpt><trkpt lat="43.8487181" lon="11.2247565"><ele>450.0</ele><time>2026-05-02T05:18:01.952Z</time></trkpt><trkpt lat="43.8488052" lon="11.2247428"><ele>450.0</ele><time>2026-05-02T05:18:04.95Z</time></trkpt><trkpt lat="43.8488938" lon="11.2247434"><ele>450.0</ele><time>2026-05-02T05:18:07.948Z</time></trkpt><trkpt lat="43.8489645" lon="11.2247523"><ele>450.0</ele><time>2026-05-02T05:18:10.953Z</time></trkpt><trkpt lat="43.8490298" lon="11.2247744"><ele>453.6666666666667</ele><time>2026-05-02T05:18:13.94Z</time></trkpt><trkpt lat="43.8491156" lon="11.2248207"><ele>457.33333333333337</ele><time>2026-05-02T05:18:16.945Z</time></trkpt><trkpt lat="43.8491892" lon="11.224845"><ele>461.0</ele><time>2026-05-02T05:18:18.946Z</time></trkpt><trkpt lat="43.849268" lon="11.2248616"><ele>464.6666666666667</ele><time>2026-05-02T05:18:21.039Z</time></trkpt><trkpt lat="43.8493543" lon="11.2248912"><ele>468.33333333333337</ele><time>2026-05-02T05:18:22.977Z</time></trkpt><trkpt lat="43.8494335" lon="11.224904"><ele>472.0</ele><time>2026-05-02T05:18:24.968Z</time></trkpt><trkpt lat="43.8495086" lon="11.2248996"><ele>472.0</ele><time>2026-05-02T05:18:26.967Z</time></trkpt><trkpt lat="43.8496029" lon="11.2249409"><ele>472.00000000000006</ele><time>2026-05-02T05:18:28.962Z</time></trkpt><trkpt lat="43.8497022" lon="11.2250011"><ele>472.00000000000006</ele><time>2026-05-02T05:18:30.969Z</time></trkpt><trkpt lat="43.8497821" lon="11.2250604"><ele>472.0</ele><time>2026-05-02T05:18:32.963Z</time></trkpt><trkpt lat="43.8498658" lon="11.2251036"><ele>472.0</ele><time>2026-05-02T05:18:34.968Z</time></trkpt><trkpt lat="43.8499536" lon="11.2251407"><ele>472.00000000000006</ele><time>2026-05-02T05:18:36.969Z</time></trkpt><trkpt lat="43.8500265" lon="11.225181"><ele>472.0</ele><time>2026-05-02T05:18:38.967Z</time></trkpt><trkpt lat="43.8500688" lon="11.2252545"><ele>472.0</ele><time>2026-05-02T05:18:40.965Z</time></trkpt><trkpt lat="43.8501169" lon="11.2253314"><ele>472.0</ele><time>2026-05-02T05:18:42.976Z</time></trkpt><trkpt lat="43.8501889" lon="11.2253876"><ele>472.00000000000006</ele><time>2026-05-02T05:18:45.057Z</time></trkpt><trkpt lat="43.8502491" lon="11.2254462"><ele>472.0</ele><time>2026-05-02T05:18:46.959Z</time></trkpt><trkpt lat="43.8503099" lon="11.2255052"><ele>473.1666666666667</ele><time>2026-05-02T05:18:48.961Z</time></trkpt><trkpt lat="43.8502977" lon="11.2255999"><ele>474.33333333333337</ele><time>2026-05-02T05:18:53.962Z</time></trkpt><trkpt lat="43.850232" lon="11.2256298"><ele>475.5</ele><time>2026-05-02T05:18:56.963Z</time></trkpt><trkpt lat="43.8501678" lon="11.2256935"><ele>476.66666666666663</ele><time>2026-05-02T05:18:58.956Z</time></trkpt><trkpt lat="43.8500828" lon="11.2257361"><ele>477.8333333333333</ele><time>2026-05-02T05:19:00.968Z</time></trkpt><trkpt lat="43.8499823" lon="11.2257576"><ele>479.0</ele><time>2026-05-02T05:19:02.967Z</time></trkpt><trkpt lat="43.8498896" lon="11.225788"><ele>481.8333333333333</ele><time>2026-05-02T05:19:04.984Z</time></trkpt><trkpt lat="43.8498014" lon="11.2258206"><ele>484.66666666666663</ele><time>2026-05-02T05:19:06.968Z</time></trkpt><trkpt lat="43.8497375" lon="11.2258481"><ele>487.5</ele><time>2026-05-02T05:19:08.972Z</time></trkpt><trkpt lat="43.8496767" lon="11.2258845"><ele>490.33333333333337</ele><time>2026-05-02T05:19:10.965Z</time></trkpt><trkpt lat="43.8496023" lon="11.2259472"><ele>493.1666666666667</ele><time>2026-05-02T05:19:14.038Z</time></trkpt><trkpt lat="43.8495366" lon="11.2260289"><ele>496.0</ele><time>2026-05-02T05:19:16.955Z</time></trkpt><trkpt lat="43.8494859" lon="11.2261117"><ele>496.00000000000006</ele><time>2026-05-02T05:19:19.959Z</time></trkpt><trkpt lat="43.8494501" lon="11.2261959"><ele>496.0</ele><time>2026-05-02T05:19:22.947Z</time></trkpt><trkpt lat="43.8494454" lon="11.2262883"><ele>496.0</ele><time>2026-05-02T05:19:26.032Z</time></trkpt><trkpt lat="43.849515" lon="11.2263568"><ele>496.0</ele><time>2026-05-02T05:19:29.97Z</time></trkpt><trkpt lat="43.8495739" lon="11.2264112"><ele>496.00000000000006</ele><time>2026-05-02T05:19:32.03Z</time></trkpt><trkpt lat="43.8496464" lon="11.2264886"><ele>496.0</ele><time>2026-05-02T05:19:33.965Z</time></trkpt><trkpt lat="43.8497055" lon="11.2265691"><ele>498.33333333333337</ele><time>2026-05-02T05:19:35.966Z</time></trkpt><trkpt lat="43.8497642" lon="11.2266854"><ele>500.6666666666667</ele><time>2026-05-02T05:19:37.963Z</time></trkpt><trkpt lat="43.8498011" lon="11.2267825"><ele>503.0</ele><time>2026-05-02T05:19:39.969Z</time></trkpt><trkpt lat="43.8497933" lon="11.2268703"><ele>505.33333333333337</ele><time>2026-05-02T05:19:41.965Z</time></trkpt><trkpt lat="43.8497695" lon="11.2269709"><ele>507.6666666666667</ele><time>2026-05-02T05:19:43.973Z</time></trkpt><trkpt lat="43.8497853" lon="11.2270812"><ele>510.0</ele><time>2026-05-02T05:19:45.976Z</time></trkpt><trkpt lat="43.8498173" lon="11.2272058"><ele>510.0</ele><time>2026-05-02T05:19:47.953Z</time></trkpt><trkpt lat="43.8498309" lon="11.2273049"><ele>510.0</ele><time>2026-05-02T05:19:49.975Z</time></trkpt><trkpt lat="43.8498476" lon="11.2274026"><ele>510.0</ele><time>2026-05-02T05:19:51.97Z</time></trkpt><trkpt lat="43.8498429" lon="11.2275122"><ele>510.0</ele><time>2026-05-02T05:19:54.966Z</time></trkpt><trkpt lat="43.8498385" lon="11.2276145"><ele>510.0</ele><time>2026-05-02T05:19:57.969Z</time></trkpt><trkpt lat="43.8498262" lon="11.2277475"><ele>510.0</ele><time>2026-05-02T05:20:00.964Z</time></trkpt><trkpt lat="43.8498236" lon="11.2278422"><ele>511.6666666666667</ele><time>2026-05-02T05:20:02.966Z</time></trkpt><trkpt lat="43.8497847" lon="11.2279227"><ele>513.3333333333334</ele><time>2026-05-02T05:20:04.979Z</time></trkpt><trkpt lat="43.8497218" lon="11.2279805"><ele>515.0</ele><time>2026-05-02T05:20:06.971Z</time></trkpt><trkpt lat="43.8496492" lon="11.2280517"><ele>516.6666666666667</ele><time>2026-05-02T05:20:08.971Z</time></trkpt><trkpt lat="43.8495881" lon="11.2281187"><ele>518.3333333333334</ele><time>2026-05-02T05:20:10.967Z</time></trkpt><trkpt lat="43.8494726" lon="11.2281755"><ele>520.0</ele><time>2026-05-02T05:20:12.974Z</time></trkpt><trkpt lat="43.8493556" lon="11.2281883"><ele>522.5</ele><time>2026-05-02T05:20:14.967Z</time></trkpt><trkpt lat="43.8492549" lon="11.2282159"><ele>525.0</ele><time>2026-05-02T05:20:16.955Z</time></trkpt><trkpt lat="43.8491615" lon="11.2282558"><ele>527.5</ele><time>2026-05-02T05:20:18.969Z</time></trkpt><trkpt lat="43.8490699" lon="11.2282935"><ele>530.0</ele><time>2026-05-02T05:20:20.952Z</time></trkpt><trkpt lat="43.8489904" lon="11.2282876"><ele>532.5</ele><time>2026-05-02T05:20:22.966Z</time></trkpt><trkpt lat="43.8489254" lon="11.2282657"><ele>535.0</ele><time>2026-05-02T05:20:24.978Z</time></trkpt><trkpt lat="43.8488585" lon="11.2282499"><ele>535.0</ele><time>2026-05-02T05:20:26.97Z</time></trkpt><trkpt lat="43.8487881" lon="11.2282609"><ele>535.0</ele><time>2026-05-02T05:20:28.965Z</time></trkpt><trkpt lat="43.8487178" lon="11.2282645"><ele>535.0</ele><time>2026-05-02T05:20:30.95Z</time></trkpt><trkpt lat="43.8486514" lon="11.2282749"><ele>535.0</ele><time>2026-05-02T05:20:32.958Z</time></trkpt><trkpt lat="43.8485695" lon="11.228297"><ele>535.0</ele><time>2026-05-02T05:20:34.962Z</time></trkpt><trkpt lat="43.8484734" lon="11.2283253"><ele>535.0</ele><time>2026-05-02T05:20:36.971Z</time></trkpt><trkpt lat="43.848402" lon="11.228356"><ele>534.1666666666667</ele><time>2026-05-02T05:20:38.977Z</time></trkpt><trkpt lat="43.8483173" lon="11.2283665"><ele>533.3333333333334</ele><time>2026-05-02T05:20:40.973Z</time></trkpt><trkpt lat="43.8482483" lon="11.2283941"><ele>532.5</ele><time>2026-05-02T05:20:42.955Z</time></trkpt><trkpt lat="43.8482203" lon="11.2284891"><ele>531.6666666666666</ele><time>2026-05-02T05:20:46.975Z</time></trkpt><trkpt lat="43.8482379" lon="11.2285906"><ele>530.8333333333333</ele><time>2026-05-02T05:20:50.973Z</time></trkpt><trkpt lat="43.848246" lon="11.2286817"><ele>530.0</ele><time>2026-05-02T05:20:53.968Z</time></trkpt><trkpt lat="43.8483061" lon="11.2287687"><ele>530.0</ele><time>2026-05-02T05:20:57.96Z</time></trkpt><trkpt lat="43.8483604" lon="11.2288719"><ele>530.0</ele><time>2026-05-02T05:21:00.953Z</time></trkpt><trkpt lat="43.8483945" lon="11.2289917"><ele>530.0</ele><time>2026-05-02T05:21:03.956Z</time></trkpt><trkpt lat="43.8484271" lon="11.2290674"><ele>530.0</ele><time>2026-05-02T05:21:05.953Z</time></trkpt><trkpt lat="43.8484598" lon="11.2291581"><ele>530.0</ele><time>2026-05-02T05:21:08.957Z</time></trkpt><trkpt lat="43.8484374" lon="11.2292498"><ele>530.0</ele><time>2026-05-02T05:21:11.954Z</time></trkpt><trkpt lat="43.8483832" lon="11.2293605"><ele>532.4</ele><time>2026-05-02T05:21:14.968Z</time></trkpt><trkpt lat="43.8483327" lon="11.2294737"><ele>534.8</ele><time>2026-05-02T05:21:16.961Z</time></trkpt><trkpt lat="43.8482745" lon="11.2295387"><ele>537.2</ele><time>2026-05-02T05:21:18.958Z</time></trkpt><trkpt lat="43.8482036" lon="11.2296122"><ele>539.6</ele><time>2026-05-02T05:21:21.957Z</time></trkpt><trkpt lat="43.8481456" lon="11.229729"><ele>542.0</ele><time>2026-05-02T05:21:23.959Z</time></trkpt><trkpt lat="43.8480553" lon="11.2298341"><ele>546.0</ele><time>2026-05-02T05:21:25.966Z</time></trkpt><trkpt lat="43.8479566" lon="11.2299265"><ele>550.0</ele><time>2026-05-02T05:21:27.956Z</time></trkpt><trkpt lat="43.847906" lon="11.2299812"><ele>554.0</ele><time>2026-05-02T05:21:28.953Z</time></trkpt><trkpt lat="43.847853" lon="11.2300402"><ele>558.0</ele><time>2026-05-02T05:21:29.97Z</time></trkpt><trkpt lat="43.8477693" lon="11.2301487"><ele>562.0</ele><time>2026-05-02T05:21:31.958Z</time></trkpt><trkpt lat="43.8477061" lon="11.23025"><ele>559.25</ele><time>2026-05-02T05:21:33.953Z</time></trkpt><trkpt lat="43.8476193" lon="11.2303219"><ele>556.5</ele><time>2026-05-02T05:21:35.958Z</time></trkpt><trkpt lat="43.8475053" lon="11.2304065"><ele>553.75</ele><time>2026-05-02T05:21:37.96Z</time></trkpt><trkpt lat="43.8474104" lon="11.2304904"><ele>551.0</ele><time>2026-05-02T05:21:39.947Z</time></trkpt><trkpt lat="43.847334" lon="11.2305986"><ele>553.8</ele><time>2026-05-02T05:21:41.956Z</time></trkpt><trkpt lat="43.847273" lon="11.2307115"><ele>556.6</ele><time>2026-05-02T05:21:43.953Z</time></trkpt><trkpt lat="43.8471974" lon="11.230799"><ele>559.4</ele><time>2026-05-02T05:21:45.965Z</time></trkpt><trkpt lat="43.847134" lon="11.230879"><ele>562.2</ele><time>2026-05-02T05:21:47.95Z</time></trkpt><trkpt lat="43.8471162" lon="11.2310031"><ele>565.0</ele><time>2026-05-02T05:21:50.949Z</time></trkpt><trkpt lat="43.8471451" lon="11.2311198"><ele>565.0</ele><time>2026-05-02T05:21:52.96Z</time></trkpt><trkpt lat="43.8471759" lon="11.231252"><ele>565.0</ele><time>2026-05-02T05:21:54.957Z</time></trkpt><trkpt lat="43.847211" lon="11.2313837"><ele>565.0</ele><time>2026-05-02T05:21:56.967Z</time></trkpt><trkpt lat="43.8472534" lon="11.2314809"><ele>565.0</ele><time>2026-05-02T05:21:58.946Z</time></trkpt><trkpt lat="43.8472758" lon="11.2315956"><ele>565.0</ele><time>2026-05-02T05:22:00.955Z</time></trkpt><trkpt lat="43.8472883" lon="11.2317362"><ele>565.8</ele><time>2026-05-02T05:22:02.969Z</time></trkpt><trkpt lat="43.8473083" lon="11.2318664"><ele>566.6</ele><time>2026-05-02T05:22:04.962Z</time></trkpt><trkpt lat="43.8473149" lon="11.2320073"><ele>567.4</ele><time>2026-05-02T05:22:06.954Z</time></trkpt><trkpt lat="43.847323" lon="11.2321574"><ele>568.2</ele><time>2026-05-02T05:22:08.962Z</time></trkpt><trkpt lat="43.8473337" lon="11.2323307"><ele>569.0</ele><time>2026-05-02T05:22:10.955Z</time></trkpt><trkpt lat="43.847348" lon="11.2324216"><ele>567.6666666666666</ele><time>2026-05-02T05:22:11.958Z</time></trkpt><trkpt lat="43.8473537" lon="11.232515"><ele>566.3333333333333</ele><time>2026-05-02T05:22:12.953Z</time></trkpt><trkpt lat="43.8473853" lon="11.2326787"><ele>565.0</ele><time>2026-05-02T05:22:14.964Z</time></trkpt><trkpt lat="43.8474124" lon="11.2328369"><ele>563.6666666666666</ele><time>2026-05-02T05:22:16.958Z</time></trkpt><trkpt lat="43.847431" lon="11.2329217"><ele>562.3333333333334</ele><time>2026-05-02T05:22:17.967Z</time></trkpt><trkpt lat="43.8474511" lon="11.2330167"><ele>561.0</ele><time>2026-05-02T05:22:18.969Z</time></trkpt><trkpt lat="43.847474" lon="11.2331049"><ele>558.6</ele><time>2026-05-02T05:22:19.958Z</time></trkpt><trkpt lat="43.8475067" lon="11.2332638"><ele>556.2</ele><time>2026-05-02T05:22:21.954Z</time></trkpt><trkpt lat="43.8475332" lon="11.2333982"><ele>553.8</ele><time>2026-05-02T05:22:23.956Z</time></trkpt><trkpt lat="43.8475694" lon="11.233525"><ele>551.4</ele><time>2026-05-02T05:22:25.967Z</time></trkpt><trkpt lat="43.8476033" lon="11.2336488"><ele>549.0</ele><time>2026-05-02T05:22:27.952Z</time></trkpt><trkpt lat="43.8476457" lon="11.233776"><ele>552.8333333333334</ele><time>2026-05-02T05:22:29.956Z</time></trkpt><trkpt lat="43.8476971" lon="11.2339415"><ele>556.6666666666666</ele><time>2026-05-02T05:22:31.961Z</time></trkpt><trkpt lat="43.8477267" lon="11.2340391"><ele>560.5</ele><time>2026-05-02T05:22:32.954Z</time></trkpt><trkpt lat="43.8477614" lon="11.2341298"><ele>564.3333333333333</ele><time>2026-05-02T05:22:33.965Z</time></trkpt><trkpt lat="43.8477904" lon="11.2342194"><ele>568.1666666666666</ele><time>2026-05-02T05:22:34.961Z</time></trkpt><trkpt lat="43.8478184" lon="11.2343144"><ele>572.0</ele><time>2026-05-02T05:22:35.964Z</time></trkpt><trkpt lat="43.8478801" lon="11.2344571"><ele>572.0</ele><time>2026-05-02T05:22:37.939Z</time></trkpt><trkpt lat="43.8479324" lon="11.2345582"><ele>572.0</ele><time>2026-05-02T05:22:39.962Z</time></trkpt><trkpt lat="43.847987" lon="11.2346803"><ele>572.0</ele><time>2026-05-02T05:22:41.948Z</time></trkpt><trkpt lat="43.848062" lon="11.2347982"><ele>572.0</ele><time>2026-05-02T05:22:43.965Z</time></trkpt><trkpt lat="43.8481379" lon="11.2349189"><ele>572.0</ele><time>2026-05-02T05:22:45.965Z</time></trkpt><trkpt lat="43.8481917" lon="11.2350433"><ele>569.0</ele><time>2026-05-02T05:22:47.953Z</time></trkpt><trkpt lat="43.8482392" lon="11.2351642"><ele>566.0</ele><time>2026-05-02T05:22:49.959Z</time></trkpt><trkpt lat="43.8482925" lon="11.2353119"><ele>563.0</ele><time>2026-05-02T05:22:51.958Z</time></trkpt><trkpt lat="43.848366" lon="11.2354443"><ele>560.0</ele><time>2026-05-02T05:22:53.961Z</time></trkpt><trkpt lat="43.8484485" lon="11.2355712"><ele>563.0</ele><time>2026-05-02T05:22:55.96Z</time></trkpt><trkpt lat="43.8484923" lon="11.2356454"><ele>566.0</ele><time>2026-05-02T05:22:56.962Z</time></trkpt><trkpt lat="43.8485242" lon="11.2357243"><ele>569.0</ele><time>2026-05-02T05:22:57.964Z</time></trkpt><trkpt lat="43.8485622" lon="11.2358021"><ele>572.0</ele><time>2026-05-02T05:22:58.967Z</time></trkpt><trkpt lat="43.848602" lon="11.2358707"><ele>575.0</ele><time>2026-05-02T05:22:59.964Z</time></trkpt><trkpt lat="43.8486532" lon="11.2359969"><ele>578.0</ele><time>2026-05-02T05:23:01.961Z</time></trkpt><trkpt lat="43.8486712" lon="11.2361452"><ele>578.0</ele><time>2026-05-02T05:23:03.948Z</time></trkpt><trkpt lat="43.8486953" lon="11.236298"><ele>578.0</ele><time>2026-05-02T05:23:05.968Z</time></trkpt><trkpt lat="43.8487419" lon="11.2364157"><ele>578.0</ele><time>2026-05-02T05:23:07.943Z</time></trkpt><trkpt lat="43.8488115" lon="11.2364889"><ele>578.0</ele><time>2026-05-02T05:23:09.952Z</time></trkpt><trkpt lat="43.8488632" lon="11.2365516"><ele>578.0</ele><time>2026-05-02T05:23:11.951Z</time></trkpt><trkpt lat="43.8489088" lon="11.2366289"><ele>578.0</ele><time>2026-05-02T05:23:14.957Z</time></trkpt><trkpt lat="43.8489742" lon="11.2367076"><ele>575.8</ele><time>2026-05-02T05:23:17.948Z</time></trkpt><trkpt lat="43.8490326" lon="11.2367675"><ele>573.5999999999999</ele><time>2026-05-02T05:23:19.972Z</time></trkpt><trkpt lat="43.8491" lon="11.2368474"><ele>571.4000000000001</ele><time>2026-05-02T05:23:21.97Z</time></trkpt><trkpt lat="43.8491711" lon="11.2369513"><ele>569.2</ele><time>2026-05-02T05:23:23.954Z</time></trkpt><trkpt lat="43.8492461" lon="11.2370692"><ele>567.0</ele><time>2026-05-02T05:23:25.955Z</time></trkpt><trkpt lat="43.8493137" lon="11.2371733"><ele>569.1666666666666</ele><time>2026-05-02T05:23:27.96Z</time></trkpt><trkpt lat="43.8493677" lon="11.2372644"><ele>571.3333333333334</ele><time>2026-05-02T05:23:29.962Z</time></trkpt><trkpt lat="43.8494219" lon="11.2373458"><ele>573.5</ele><time>2026-05-02T05:23:31.957Z</time></trkpt><trkpt lat="43.8494817" lon="11.2374416"><ele>575.6666666666667</ele><time>2026-05-02T05:23:33.954Z</time></trkpt><trkpt lat="43.8495286" lon="11.2375106"><ele>577.8333333333334</ele><time>2026-05-02T05:23:35.954Z</time></trkpt><trkpt lat="43.8496044" lon="11.2375623"><ele>580.0</ele><time>2026-05-02T05:23:38.953Z</time></trkpt><trkpt lat="43.8496772" lon="11.2375997"><ele>580.0</ele><time>2026-05-02T05:23:41.952Z</time></trkpt><trkpt lat="43.8497616" lon="11.2376443"><ele>580.0</ele><time>2026-05-02T05:23:44.956Z</time></trkpt><trkpt lat="43.8498433" lon="11.2376942"><ele>580.0</ele><time>2026-05-02T05:23:47.957Z</time></trkpt><trkpt lat="43.849912" lon="11.237748"><ele>580.0</ele><time>2026-05-02T05:23:50.966Z</time></trkpt><trkpt lat="43.8499825" lon="11.2377763"><ele>580.0</ele><time>2026-05-02T05:23:53.957Z</time></trkpt><trkpt lat="43.8500523" lon="11.2378145"><ele>580.0</ele><time>2026-05-02T05:23:55.957Z</time></trkpt><trkpt lat="43.8501305" lon="11.2378688"><ele>581.5</ele><time>2026-05-02T05:23:57.966Z</time></trkpt><trkpt lat="43.8502289" lon="11.2379171"><ele>583.0</ele><time>2026-05-02T05:23:59.948Z</time></trkpt><trkpt lat="43.8502919" lon="11.2379349"><ele>584.5</ele><time>2026-05-02T05:24:01.965Z</time></trkpt><trkpt lat="43.8503816" lon="11.2379521"><ele>586.0</ele><time>2026-05-02T05:24:04.96Z</time></trkpt><trkpt lat="43.8504667" lon="11.2379692"><ele>587.5</ele><time>2026-05-02T05:24:07.962Z</time></trkpt><trkpt lat="43.8505414" lon="11.2379932"><ele>589.0</ele><time>2026-05-02T05:24:09.965Z</time></trkpt><trkpt lat="43.8506206" lon="11.2380394"><ele>589.0</ele><time>2026-05-02T05:24:11.955Z</time></trkpt><trkpt lat="43.8507192" lon="11.2380745"><ele>589.0</ele><time>2026-05-02T05:24:13.962Z</time></trkpt><trkpt lat="43.8508029" lon="11.2381149"><ele>589.0</ele><time>2026-05-02T05:24:15.964Z</time></trkpt><trkpt lat="43.850874" lon="11.2381696"><ele>589.0</ele><time>2026-05-02T05:24:17.959Z</time></trkpt><trkpt lat="43.8509338" lon="11.2382805"><ele>589.0</ele><time>2026-05-02T05:24:20.959Z</time></trkpt><trkpt lat="43.8509725" lon="11.2383999"><ele>589.6666666666667</ele><time>2026-05-02T05:24:22.946Z</time></trkpt><trkpt lat="43.8509894" lon="11.2385021"><ele>590.3333333333334</ele><time>2026-05-02T05:24:25.95Z</time></trkpt><trkpt lat="43.8510487" lon="11.23858"><ele>591.0</ele><time>2026-05-02T05:24:29.955Z</time></trkpt><trkpt lat="43.8511094" lon="11.2385302"><ele>591.6666666666666</ele><time>2026-05-02T05:24:33.944Z</time></trkpt><trkpt lat="43.8511998" lon="11.2385254"><ele>592.3333333333333</ele><time>2026-05-02T05:24:35.94Z</time></trkpt><trkpt lat="43.8513123" lon="11.2385659"><ele>593.0</ele><time>2026-05-02T05:24:37.96Z</time></trkpt><trkpt lat="43.8513738" lon="11.2385876"><ele>593.0</ele><time>2026-05-02T05:24:38.956Z</time></trkpt><trkpt lat="43.8514372" lon="11.2386098"><ele>593.0</ele><time>2026-05-02T05:24:39.964Z</time></trkpt><trkpt lat="43.8515552" lon="11.2386448"><ele>593.0</ele><time>2026-05-02T05:24:41.955Z</time></trkpt><trkpt lat="43.851659" lon="11.2386527"><ele>593.0</ele><time>2026-05-02T05:24:43.96Z</time></trkpt><trkpt lat="43.8517657" lon="11.2386457"><ele>593.0</ele><time>2026-05-02T05:24:45.945Z</time></trkpt><trkpt lat="43.8518793" lon="11.2386631"><ele>596.6</ele><time>2026-05-02T05:24:47.96Z</time></trkpt><trkpt lat="43.8520002" lon="11.2386897"><ele>600.1999999999999</ele><time>2026-05-02T05:24:49.954Z</time></trkpt><trkpt lat="43.8520632" lon="11.2386945"><ele>603.8</ele><time>2026-05-02T05:24:50.966Z</time></trkpt><trkpt lat="43.8521858" lon="11.2386703"><ele>607.4</ele><time>2026-05-02T05:24:52.969Z</time></trkpt><trkpt lat="43.8522888" lon="11.2386369"><ele>611.0</ele><time>2026-05-02T05:24:54.957Z</time></trkpt><trkpt lat="43.8523726" lon="11.2386004"><ele>611.0</ele><time>2026-05-02T05:24:57.945Z</time></trkpt><trkpt lat="43.8524491" lon="11.2385397"><ele>611.0</ele><time>2026-05-02T05:25:00.956Z</time></trkpt><trkpt lat="43.8525132" lon="11.2384924"><ele>611.0</ele><time>2026-05-02T05:25:02.955Z</time></trkpt><trkpt lat="43.8526086" lon="11.2384333"><ele>611.0</ele><time>2026-05-02T05:25:04.955Z</time></trkpt><trkpt lat="43.8526696" lon="11.2383944"><ele>611.0</ele><time>2026-05-02T05:25:05.962Z</time></trkpt><trkpt lat="43.8527317" lon="11.2383529"><ele>611.0</ele><time>2026-05-02T05:25:06.954Z</time></trkpt><trkpt lat="43.8527946" lon="11.2383096"><ele>610.3333333333333</ele><time>2026-05-02T05:25:07.955Z</time></trkpt><trkpt lat="43.8528589" lon="11.238261"><ele>609.6666666666666</ele><time>2026-05-02T05:25:08.95Z</time></trkpt><trkpt lat="43.8529265" lon="11.238215"><ele>609.0</ele><time>2026-05-02T05:25:09.95Z</time></trkpt><trkpt lat="43.8529964" lon="11.238162"><ele>608.3333333333334</ele><time>2026-05-02T05:25:10.965Z</time></trkpt><trkpt lat="43.8530809" lon="11.2381103"><ele>607.6666666666667</ele><time>2026-05-02T05:25:11.958Z</time></trkpt><trkpt lat="43.8531568" lon="11.2380714"><ele>607.0</ele><time>2026-05-02T05:25:12.953Z</time></trkpt><trkpt lat="43.853242" lon="11.2380422"><ele>607.0</ele><time>2026-05-02T05:25:13.957Z</time></trkpt><trkpt lat="43.8533287" lon="11.2380165"><ele>607.0</ele><time>2026-05-02T05:25:14.964Z</time></trkpt><trkpt lat="43.8534178" lon="11.2380036"><ele>607.0</ele><time>2026-05-02T05:25:15.943Z</time></trkpt><trkpt lat="43.8534957" lon="11.2380044"><ele>607.0</ele><time>2026-05-02T05:25:16.958Z</time></trkpt><trkpt lat="43.8535797" lon="11.2380213"><ele>607.0</ele><time>2026-05-02T05:25:17.964Z</time></trkpt><trkpt lat="43.8536499" lon="11.2380294"><ele>607.0</ele><time>2026-05-02T05:25:18.952Z</time></trkpt><trkpt lat="43.8537177" lon="11.2380563"><ele>606.0</ele><time>2026-05-02T05:25:19.959Z</time></trkpt><trkpt lat="43.853791" lon="11.2380907"><ele>605.0</ele><time>2026-05-02T05:25:20.961Z</time></trkpt><trkpt lat="43.8538635" lon="11.2381328"><ele>604.0</ele><time>2026-05-02T05:25:21.973Z</time></trkpt><trkpt lat="43.8539365" lon="11.2381819"><ele>603.0</ele><time>2026-05-02T05:25:22.963Z</time></trkpt><trkpt lat="43.8540112" lon="11.2382375"><ele>602.0</ele><time>2026-05-02T05:25:23.967Z</time></trkpt><trkpt lat="43.8540931" lon="11.2382922"><ele>601.0</ele><time>2026-05-02T05:25:24.963Z</time></trkpt><trkpt lat="43.8541648" lon="11.2383507"><ele>604.0</ele><time>2026-05-02T05:25:25.958Z</time></trkpt><trkpt lat="43.8542346" lon="11.238417"><ele>607.0</ele><time>2026-05-02T05:25:26.96Z</time></trkpt><trkpt lat="43.8542968" lon="11.2384815"><ele>610.0</ele><time>2026-05-02T05:25:27.961Z</time></trkpt><trkpt lat="43.8543617" lon="11.238537"><ele>613.0</ele><time>2026-05-02T05:25:28.956Z</time></trkpt><trkpt lat="43.8544228" lon="11.2385844"><ele>616.0</ele><time>2026-05-02T05:25:29.961Z</time></trkpt><trkpt lat="43.8544782" lon="11.2386356"><ele>619.0</ele><time>2026-05-02T05:25:30.965Z</time></trkpt><trkpt lat="43.8545344" lon="11.2386823"><ele>622.0</ele><time>2026-05-02T05:25:31.965Z</time></trkpt><trkpt lat="43.854588" lon="11.238731"><ele>622.0</ele><time>2026-05-02T05:25:32.955Z</time></trkpt><trkpt lat="43.8546454" lon="11.2387752"><ele>622.0</ele><time>2026-05-02T05:25:33.961Z</time></trkpt><trkpt lat="43.8547685" lon="11.2388371"><ele>622.0</ele><time>2026-05-02T05:25:35.968Z</time></trkpt><trkpt lat="43.8548401" lon="11.2388635"><ele>622.0</ele><time>2026-05-02T05:25:36.959Z</time></trkpt><trkpt lat="43.8549213" lon="11.2388936"><ele>622.0</ele><time>2026-05-02T05:25:37.96Z</time></trkpt><trkpt lat="43.8549857" lon="11.2389301"><ele>622.0</ele><time>2026-05-02T05:25:38.946Z</time></trkpt><trkpt lat="43.8550497" lon="11.2389729"><ele>624.6666666666667</ele><time>2026-05-02T05:25:39.951Z</time></trkpt><trkpt lat="43.8551135" lon="11.2390272"><ele>627.3333333333334</ele><time>2026-05-02T05:25:40.951Z</time></trkpt><trkpt lat="43.8551855" lon="11.2390809"><ele>630.0</ele><time>2026-05-02T05:25:41.958Z</time></trkpt><trkpt lat="43.8552563" lon="11.2391389"><ele>632.6666666666666</ele><time>2026-05-02T05:25:42.957Z</time></trkpt><trkpt lat="43.855329" lon="11.2392066"><ele>635.3333333333333</ele><time>2026-05-02T05:25:43.956Z</time></trkpt><trkpt lat="43.8553995" lon="11.2392688"><ele>638.0</ele><time>2026-05-02T05:25:44.957Z</time></trkpt><trkpt lat="43.8554715" lon="11.2393192"><ele>638.5</ele><time>2026-05-02T05:25:45.977Z</time></trkpt><trkpt lat="43.8555393" lon="11.2393761"><ele>639.0</ele><time>2026-05-02T05:25:46.959Z</time></trkpt><trkpt lat="43.8556052" lon="11.2394444"><ele>639.5</ele><time>2026-05-02T05:25:47.966Z</time></trkpt><trkpt lat="43.8556693" lon="11.2395171"><ele>640.0</ele><time>2026-05-02T05:25:48.94Z</time></trkpt><trkpt lat="43.8557386" lon="11.2395982"><ele>640.5</ele><time>2026-05-02T05:25:49.958Z</time></trkpt><trkpt lat="43.8558036" lon="11.2396809"><ele>641.0</ele><time>2026-05-02T05:25:50.97Z</time></trkpt><trkpt lat="43.8558716" lon="11.2397592"><ele>640.6666666666666</ele><time>2026-05-02T05:25:51.958Z</time></trkpt><trkpt lat="43.8559439" lon="11.2398294"><ele>640.3333333333333</ele><time>2026-05-02T05:25:52.947Z</time></trkpt><trkpt lat="43.8560179" lon="11.2398905"><ele>640.0</ele><time>2026-05-02T05:25:53.96Z</time></trkpt><trkpt lat="43.8560863" lon="11.2399401"><ele>639.6666666666666</ele><time>2026-05-02T05:25:54.965Z</time></trkpt><trkpt lat="43.8561511" lon="11.2399803"><ele>639.3333333333334</ele><time>2026-05-02T05:25:55.965Z</time></trkpt><trkpt lat="43.856215" lon="11.2400167"><ele>639.0</ele><time>2026-05-02T05:25:56.963Z</time></trkpt><trkpt lat="43.8562792" lon="11.2400458"><ele>640.6666666666666</ele><time>2026-05-02T05:25:57.958Z</time></trkpt><trkpt lat="43.856351" lon="11.2400721"><ele>642.3333333333334</ele><time>2026-05-02T05:25:58.964Z</time></trkpt><trkpt lat="43.8564285" lon="11.2401058"><ele>644.0</ele><time>2026-05-02T05:25:59.957Z</time></trkpt><trkpt lat="43.8565151" lon="11.2401423"><ele>645.6666666666667</ele><time>2026-05-02T05:26:00.955Z</time></trkpt><trkpt lat="43.8566041" lon="11.2401703"><ele>647.3333333333334</ele><time>2026-05-02T05:26:01.959Z</time></trkpt><trkpt lat="43.8566977" lon="11.2402036"><ele>649.0</ele><time>2026-05-02T05:26:02.962Z</time></trkpt><trkpt lat="43.856788" lon="11.2402538"><ele>650.2</ele><time>2026-05-02T05:26:03.968Z</time></trkpt><trkpt lat="43.8568666" lon="11.2403055"><ele>651.4000000000001</ele><time>2026-05-02T05:26:04.964Z</time></trkpt><trkpt lat="43.8569469" lon="11.2403709"><ele>652.6</ele><time>2026-05-02T05:26:05.961Z</time></trkpt><trkpt lat="43.8570257" lon="11.2404448"><ele>653.8</ele><time>2026-05-02T05:26:06.961Z</time></trkpt><trkpt lat="43.8571078" lon="11.2405134"><ele>655.0</ele><time>2026-05-02T05:26:07.959Z</time></trkpt><trkpt lat="43.8571834" lon="11.240565"><ele>655.0</ele><time>2026-05-02T05:26:08.961Z</time></trkpt><trkpt lat="43.8572602" lon="11.2406167"><ele>655.0</ele><time>2026-05-02T05:26:09.958Z</time></trkpt><trkpt lat="43.8573345" lon="11.2406636"><ele>655.0</ele><time>2026-05-02T05:26:10.957Z</time></trkpt><trkpt lat="43.857408" lon="11.2407032"><ele>655.0</ele><time>2026-05-02T05:26:11.959Z</time></trkpt><trkpt lat="43.8574683" lon="11.2407327"><ele>655.0</ele><time>2026-05-02T05:26:12.958Z</time></trkpt><trkpt lat="43.8575349" lon="11.2407469"><ele>655.0</ele><time>2026-05-02T05:26:13.957Z</time></trkpt><trkpt lat="43.8576584" lon="11.2407173"><ele>654.0</ele><time>2026-05-02T05:26:15.966Z</time></trkpt><trkpt lat="43.8577155" lon="11.2406605"><ele>653.0</ele><time>2026-05-02T05:26:16.943Z</time></trkpt><trkpt lat="43.8577631" lon="11.2405955"><ele>652.0</ele><time>2026-05-02T05:26:17.955Z</time></trkpt><trkpt lat="43.857819" lon="11.2405209"><ele>651.0</ele><time>2026-05-02T05:26:18.95Z</time></trkpt><trkpt lat="43.8578785" lon="11.2404337"><ele>650.0</ele><time>2026-05-02T05:26:19.96Z</time></trkpt><trkpt lat="43.8579434" lon="11.2403439"><ele>649.0</ele><time>2026-05-02T05:26:20.966Z</time></trkpt><trkpt lat="43.8580037" lon="11.24025"><ele>649.0</ele><time>2026-05-02T05:26:21.954Z</time></trkpt><trkpt lat="43.8580665" lon="11.2401638"><ele>649.0</ele><time>2026-05-02T05:26:22.967Z</time></trkpt><trkpt lat="43.8581382" lon="11.2400938"><ele>649.0</ele><time>2026-05-02T05:26:23.97Z</time></trkpt><trkpt lat="43.8582166" lon="11.2400307"><ele>649.0</ele><time>2026-05-02T05:26:24.968Z</time></trkpt><trkpt lat="43.858298" lon="11.2399774"><ele>649.0</ele><time>2026-05-02T05:26:25.965Z</time></trkpt><trkpt lat="43.8583846" lon="11.2399326"><ele>649.0</ele><time>2026-05-02T05:26:26.97Z</time></trkpt><trkpt lat="43.8584722" lon="11.2398982"><ele>648.8333333333334</ele><time>2026-05-02T05:26:27.968Z</time></trkpt><trkpt lat="43.8585575" lon="11.2398791"><ele>648.6666666666667</ele><time>2026-05-02T05:26:28.966Z</time></trkpt><trkpt lat="43.8586384" lon="11.2398687"><ele>648.5</ele><time>2026-05-02T05:26:29.966Z</time></trkpt><trkpt lat="43.8587256" lon="11.2398551"><ele>648.3333333333334</ele><time>2026-05-02T05:26:30.97Z</time></trkpt><trkpt lat="43.8588136" lon="11.2398502"><ele>648.1666666666666</ele><time>2026-05-02T05:26:31.973Z</time></trkpt><trkpt lat="43.8589007" lon="11.2398273"><ele>648.0</ele><time>2026-05-02T05:26:32.96Z</time></trkpt><trkpt lat="43.8589877" lon="11.2398039"><ele>647.8</ele><time>2026-05-02T05:26:33.966Z</time></trkpt><trkpt lat="43.8590681" lon="11.2397774"><ele>647.5999999999999</ele><time>2026-05-02T05:26:34.96Z</time></trkpt><trkpt lat="43.8591554" lon="11.2397456"><ele>647.4000000000001</ele><time>2026-05-02T05:26:35.966Z</time></trkpt><trkpt lat="43.8592407" lon="11.2397235"><ele>647.2</ele><time>2026-05-02T05:26:36.949Z</time></trkpt><trkpt lat="43.8593342" lon="11.2396992"><ele>647.0</ele><time>2026-05-02T05:26:37.964Z</time></trkpt><trkpt lat="43.8594354" lon="11.2396778"><ele>647.0</ele><time>2026-05-02T05:26:38.952Z</time></trkpt><trkpt lat="43.8595345" lon="11.2396583"><ele>647.0</ele><time>2026-05-02T05:26:39.965Z</time></trkpt><trkpt lat="43.8596374" lon="11.2396445"><ele>647.0</ele><time>2026-05-02T05:26:40.956Z</time></trkpt><trkpt lat="43.8597343" lon="11.2396406"><ele>647.0</ele><time>2026-05-02T05:26:41.957Z</time></trkpt><trkpt lat="43.8598373" lon="11.2396406"><ele>647.0</ele><time>2026-05-02T05:26:42.964Z</time></trkpt><trkpt lat="43.8599352" lon="11.2396426"><ele>647.0</ele><time>2026-05-02T05:26:43.956Z</time></trkpt><trkpt lat="43.8600325" lon="11.2396355"><ele>647.0</ele><time>2026-05-02T05:26:44.957Z</time></trkpt><trkpt lat="43.8601251" lon="11.2396322"><ele>647.0</ele><time>2026-05-02T05:26:45.966Z</time></trkpt><trkpt lat="43.8602174" lon="11.239621"><ele>647.0</ele><time>2026-05-02T05:26:46.955Z</time></trkpt><trkpt lat="43.8603043" lon="11.2396111"><ele>647.0</ele><time>2026-05-02T05:26:47.952Z</time></trkpt><trkpt lat="43.8603886" lon="11.2395918"><ele>646.8333333333333</ele><time>2026-05-02T05:26:48.956Z</time></trkpt><trkpt lat="43.8604706" lon="11.2395681"><ele>646.6666666666666</ele><time>2026-05-02T05:26:49.966Z</time></trkpt><trkpt lat="43.8605434" lon="11.2395525"><ele>646.5</ele><time>2026-05-02T05:26:50.954Z</time></trkpt><trkpt lat="43.8606405" lon="11.2395443"><ele>646.3333333333334</ele><time>2026-05-02T05:26:52.965Z</time></trkpt><trkpt lat="43.8605718" lon="11.2396002"><ele>646.1666666666667</ele><time>2026-05-02T05:27:05.952Z</time></trkpt><trkpt lat="43.8604865" lon="11.2396203"><ele>646.0</ele><time>2026-05-02T05:27:07.958Z</time></trkpt><trkpt lat="43.8604004" lon="11.2396683"><ele>646.0</ele><time>2026-05-02T05:27:09.957Z</time></trkpt><trkpt lat="43.8604329" lon="11.2397437"><ele>646.0</ele><time>2026-05-02T05:27:12.958Z</time></trkpt><trkpt lat="43.8605246" lon="11.2397581"><ele>646.0</ele><time>2026-05-02T05:27:15.95Z</time></trkpt><trkpt lat="43.8605917" lon="11.2397747"><ele>646.0</ele><time>2026-05-02T05:27:17.955Z</time></trkpt><trkpt lat="43.8606692" lon="11.2397944"><ele>646.0</ele><time>2026-05-02T05:27:20.951Z</time></trkpt><trkpt lat="43.8607517" lon="11.2398384"><ele>646.0</ele><time>2026-05-02T05:27:23.95Z</time></trkpt><trkpt lat="43.8608133" lon="11.2398906"><ele>648.3333333333334</ele><time>2026-05-02T05:27:26.961Z</time></trkpt><trkpt lat="43.8608867" lon="11.2399027"><ele>650.6666666666667</ele><time>2026-05-02T05:27:29.958Z</time></trkpt><trkpt lat="43.8609738" lon="11.2399085"><ele>653.0</ele><time>2026-05-02T05:27:32.957Z</time></trkpt><trkpt lat="43.8610625" lon="11.2399368"><ele>655.3333333333334</ele><time>2026-05-02T05:27:35.956Z</time></trkpt><trkpt lat="43.8611282" lon="11.2399684"><ele>657.6666666666666</ele><time>2026-05-02T05:27:37.962Z</time></trkpt><trkpt lat="43.8612106" lon="11.2400084"><ele>660.0</ele><time>2026-05-02T05:27:40.957Z</time></trkpt><trkpt lat="43.861274" lon="11.2400384"><ele>661.3333333333334</ele><time>2026-05-02T05:27:42.959Z</time></trkpt><trkpt lat="43.861349" lon="11.2400986"><ele>662.6666666666666</ele><time>2026-05-02T05:27:44.96Z</time></trkpt><trkpt lat="43.8614086" lon="11.2401483"><ele>664.0</ele><time>2026-05-02T05:27:46.962Z</time></trkpt><trkpt lat="43.8614907" lon="11.2401887"><ele>665.3333333333333</ele><time>2026-05-02T05:27:49.96Z</time></trkpt><trkpt lat="43.8615714" lon="11.2401954"><ele>666.6666666666666</ele><time>2026-05-02T05:27:52.96Z</time></trkpt><trkpt lat="43.8616604" lon="11.2401817"><ele>668.0</ele><time>2026-05-02T05:27:55.962Z</time></trkpt><trkpt lat="43.8617471" lon="11.2402006"><ele>667.0</ele><time>2026-05-02T05:27:58.959Z</time></trkpt><trkpt lat="43.861822" lon="11.2402215"><ele>666.0</ele><time>2026-05-02T05:28:01.947Z</time></trkpt><trkpt lat="43.861885" lon="11.2402346"><ele>665.0</ele><time>2026-05-02T05:28:03.958Z</time></trkpt><trkpt lat="43.8619846" lon="11.2402344"><ele>664.0</ele><time>2026-05-02T05:28:06.955Z</time></trkpt><trkpt lat="43.8620698" lon="11.2402383"><ele>663.0</ele><time>2026-05-02T05:28:08.959Z</time></trkpt><trkpt lat="43.8621474" lon="11.2402703"><ele>662.0</ele><time>2026-05-02T05:28:10.942Z</time></trkpt><trkpt lat="43.8622258" lon="11.2403002"><ele>662.0</ele><time>2026-05-02T05:28:12.957Z</time></trkpt><trkpt lat="43.8622931" lon="11.2402963"><ele>662.0</ele><time>2026-05-02T05:28:14.964Z</time></trkpt><trkpt lat="43.8623703" lon="11.2402938"><ele>662.0</ele><time>2026-05-02T05:28:16.973Z</time></trkpt><trkpt lat="43.8624431" lon="11.2403111"><ele>662.0</ele><time>2026-05-02T05:28:18.96Z</time></trkpt><trkpt lat="43.8625303" lon="11.2403128"><ele>662.0</ele><time>2026-05-02T05:28:21.951Z</time></trkpt><trkpt lat="43.862624" lon="11.2403098"><ele>662.0</ele><time>2026-05-02T05:28:24.951Z</time></trkpt><trkpt lat="43.86271" lon="11.2403224"><ele>661.3333333333333</ele><time>2026-05-02T05:28:27.952Z</time></trkpt><trkpt lat="43.8627886" lon="11.2403425"><ele>660.6666666666666</ele><time>2026-05-02T05:28:30.957Z</time></trkpt><trkpt lat="43.8628764" lon="11.2403523"><ele>660.0</ele><time>2026-05-02T05:28:33.954Z</time></trkpt><trkpt lat="43.8629448" lon="11.2403613"><ele>659.3333333333334</ele><time>2026-05-02T05:28:35.964Z</time></trkpt><trkpt lat="43.8630295" lon="11.2403506"><ele>658.6666666666667</ele><time>2026-05-02T05:28:38.958Z</time></trkpt><trkpt lat="43.8631003" lon="11.2403681"><ele>658.0</ele><time>2026-05-02T05:28:41.955Z</time></trkpt><trkpt lat="43.8631751" lon="11.2403601"><ele>658.0</ele><time>2026-05-02T05:28:43.958Z</time></trkpt><trkpt lat="43.8632621" lon="11.2403597"><ele>658.0</ele><time>2026-05-02T05:28:45.954Z</time></trkpt><trkpt lat="43.8633581" lon="11.2403543"><ele>658.0</ele><time>2026-05-02T05:28:47.964Z</time></trkpt><trkpt lat="43.8634494" lon="11.2403581"><ele>658.0</ele><time>2026-05-02T05:28:49.963Z</time></trkpt><trkpt lat="43.8635237" lon="11.2403471"><ele>658.0</ele><time>2026-05-02T05:28:51.971Z</time></trkpt><trkpt lat="43.8636026" lon="11.2403335"><ele>658.0</ele><time>2026-05-02T05:28:53.951Z</time></trkpt><trkpt lat="43.8636746" lon="11.240314"><ele>658.0</ele><time>2026-05-02T05:28:55.954Z</time></trkpt><trkpt lat="43.8637396" lon="11.2403082"><ele>658.0</ele><time>2026-05-02T05:28:57.953Z</time></trkpt><trkpt lat="43.8638267" lon="11.240301"><ele>658.0</ele><time>2026-05-02T05:28:59.962Z</time></trkpt><trkpt lat="43.8638991" lon="11.2402949"><ele>658.0</ele><time>2026-05-02T05:29:01.976Z</time></trkpt><trkpt lat="43.8639717" lon="11.2402913"><ele>658.0</ele><time>2026-05-02T05:29:04.961Z</time></trkpt><trkpt lat="43.8640983" lon="11.2403401"><ele>658.0</ele><time>2026-05-02T05:29:08.941Z</time></trkpt><trkpt lat="43.8641766" lon="11.2403534"><ele>658.0</ele><time>2026-05-02T05:31:19.957Z</time></trkpt><trkpt lat="43.864259" lon="11.2403604"><ele>658.0</ele><time>2026-05-02T05:31:30.958Z</time></trkpt><trkpt lat="43.864333" lon="11.2403699"><ele>658.0</ele><time>2026-05-02T05:31:39.97Z</time></trkpt><trkpt lat="43.8643949" lon="11.2404015"><ele>658.0</ele><time>2026-05-02T05:34:32.966Z</time></trkpt><trkpt lat="43.8644677" lon="11.2404309"><ele>658.0</ele><time>2026-05-02T05:34:37.986Z</time></trkpt><trkpt lat="43.8645335" lon="11.2404504"><ele>658.0</ele><time>2026-05-02T05:34:41.967Z</time></trkpt><trkpt lat="43.8646063" lon="11.2404514"><ele>658.0</ele><time>2026-05-02T05:34:45.975Z</time></trkpt><trkpt lat="43.8646749" lon="11.2404769"><ele>658.3333333333334</ele><time>2026-05-02T05:34:48.978Z</time></trkpt><trkpt lat="43.8647519" lon="11.2405279"><ele>658.6666666666667</ele><time>2026-05-02T05:34:51.979Z</time></trkpt><trkpt lat="43.8648285" lon="11.240589"><ele>659.0</ele><time>2026-05-02T05:34:54.979Z</time></trkpt><trkpt lat="43.8648917" lon="11.2406044"><ele>659.3333333333334</ele><time>2026-05-02T05:34:56.981Z</time></trkpt><trkpt lat="43.8649663" lon="11.2406095"><ele>659.6666666666666</ele><time>2026-05-02T05:34:59.967Z</time></trkpt><trkpt lat="43.8650593" lon="11.2405989"><ele>660.0</ele><time>2026-05-02T05:35:02.963Z</time></trkpt><trkpt lat="43.8651378" lon="11.2405738"><ele>662.0</ele><time>2026-05-02T05:35:04.96Z</time></trkpt><trkpt lat="43.8652234" lon="11.2405743"><ele>664.0</ele><time>2026-05-02T05:35:05.973Z</time></trkpt><trkpt lat="43.8652929" lon="11.2405518"><ele>666.0</ele><time>2026-05-02T05:35:06.976Z</time></trkpt><trkpt lat="43.8653567" lon="11.2405254"><ele>668.0</ele><time>2026-05-02T05:35:07.969Z</time></trkpt><trkpt lat="43.8654498" lon="11.2404953"><ele>670.0</ele><time>2026-05-02T05:35:09.973Z</time></trkpt><trkpt lat="43.8655478" lon="11.240459"><ele>672.0</ele><time>2026-05-02T05:35:11.973Z</time></trkpt><trkpt lat="43.8656497" lon="11.2404203"><ele>672.0</ele><time>2026-05-02T05:35:13.976Z</time></trkpt><trkpt lat="43.8657513" lon="11.240329"><ele>672.0</ele><time>2026-05-02T05:35:15.984Z</time></trkpt><trkpt lat="43.8658282" lon="11.2402593"><ele>672.0</ele><time>2026-05-02T05:35:16.968Z</time></trkpt><trkpt lat="43.8658842" lon="11.2401933"><ele>672.0</ele><time>2026-05-02T05:35:17.972Z</time></trkpt><trkpt lat="43.8659475" lon="11.2401591"><ele>672.0</ele><time>2026-05-02T05:35:18.974Z</time></trkpt><trkpt lat="43.8660392" lon="11.2401469"><ele>672.0</ele><time>2026-05-02T05:35:20.967Z</time></trkpt><trkpt lat="43.866133" lon="11.2401736"><ele>671.6666666666666</ele><time>2026-05-02T05:35:22.978Z</time></trkpt><trkpt lat="43.8661946" lon="11.2402426"><ele>671.3333333333334</ele><time>2026-05-02T05:35:24.972Z</time></trkpt><trkpt lat="43.8662234" lon="11.2403436"><ele>671.0</ele><time>2026-05-02T05:35:27.967Z</time></trkpt><trkpt lat="43.8662168" lon="11.2404613"><ele>670.6666666666667</ele><time>2026-05-02T05:35:29.967Z</time></trkpt><trkpt lat="43.866205" lon="11.2405877"><ele>670.3333333333334</ele><time>2026-05-02T05:35:31.994Z</time></trkpt><trkpt lat="43.8661846" lon="11.2406857"><ele>670.0</ele><time>2026-05-02T05:35:33.971Z</time></trkpt><trkpt lat="43.8661749" lon="11.2407869"><ele>669.9999999999999</ele><time>2026-05-02T05:35:36.977Z</time></trkpt><trkpt lat="43.8662398" lon="11.2408325"><ele>670.0</ele><time>2026-05-02T05:35:39.972Z</time></trkpt><trkpt lat="43.8663258" lon="11.2408331"><ele>670.0</ele><time>2026-05-02T05:35:42.982Z</time></trkpt><trkpt lat="43.8663916" lon="11.2408181"><ele>670.0</ele><time>2026-05-02T05:35:44.971Z</time></trkpt><trkpt lat="43.8664586" lon="11.2408061"><ele>670.0</ele><time>2026-05-02T05:35:46.98Z</time></trkpt><trkpt lat="43.8665431" lon="11.2408223"><ele>669.9999999999999</ele><time>2026-05-02T05:35:48.975Z</time></trkpt><trkpt lat="43.8666079" lon="11.2408347"><ele>670.0</ele><time>2026-05-02T05:35:49.966Z</time></trkpt><trkpt lat="43.8667146" lon="11.24088"><ele>670.0</ele><time>2026-05-02T05:35:51.974Z</time></trkpt><trkpt lat="43.8668028" lon="11.2409077"><ele>670.0</ele><time>2026-05-02T05:35:53.975Z</time></trkpt><trkpt lat="43.8668673" lon="11.2409354"><ele>670.0</ele><time>2026-05-02T05:35:56.976Z</time></trkpt><trkpt lat="43.866928" lon="11.2409752"><ele>670.0</ele><time>2026-05-02T05:35:59.97Z</time></trkpt><trkpt lat="43.8669865" lon="11.2411048"><ele>670.0</ele><time>2026-05-02T05:36:02.977Z</time></trkpt><trkpt lat="43.8670364" lon="11.2412151"><ele>670.0</ele><time>2026-05-02T05:36:04.965Z</time></trkpt><trkpt lat="43.8670645" lon="11.2413108"><ele>670.0</ele><time>2026-05-02T05:36:06.963Z</time></trkpt><trkpt lat="43.8670911" lon="11.2414362"><ele>670.0</ele><time>2026-05-02T05:36:09.951Z</time></trkpt><trkpt lat="43.8671299" lon="11.2415248"><ele>670.0</ele><time>2026-05-02T05:36:11.969Z</time></trkpt><trkpt lat="43.8672101" lon="11.2416253"><ele>670.0</ele><time>2026-05-02T05:36:13.965Z</time></trkpt><trkpt lat="43.8672642" lon="11.2416725"><ele>670.0</ele><time>2026-05-02T05:36:14.972Z</time></trkpt><trkpt lat="43.8673634" lon="11.2417582"><ele>669.6666666666667</ele><time>2026-05-02T05:36:16.975Z</time></trkpt><trkpt lat="43.8674587" lon="11.2418234"><ele>669.3333333333334</ele><time>2026-05-02T05:36:18.984Z</time></trkpt><trkpt lat="43.867554" lon="11.2418924"><ele>669.0</ele><time>2026-05-02T05:36:20.964Z</time></trkpt><trkpt lat="43.8676269" lon="11.241959"><ele>668.6666666666666</ele><time>2026-05-02T05:36:22.966Z</time></trkpt><trkpt lat="43.8676796" lon="11.2420088"><ele>668.3333333333333</ele><time>2026-05-02T05:36:24.979Z</time></trkpt><trkpt lat="43.8677318" lon="11.2420666"><ele>668.0</ele><time>2026-05-02T05:36:26.965Z</time></trkpt><trkpt lat="43.8677325" lon="11.2421873"><ele>668.0</ele><time>2026-05-02T05:36:29.965Z</time></trkpt><trkpt lat="43.8676985" lon="11.2422679"><ele>668.0</ele><time>2026-05-02T05:36:31.965Z</time></trkpt><trkpt lat="43.8676429" lon="11.242352"><ele>668.0</ele><time>2026-05-02T05:36:33.976Z</time></trkpt><trkpt lat="43.8675977" lon="11.2424447"><ele>668.0</ele><time>2026-05-02T05:36:34.973Z</time></trkpt><trkpt lat="43.8675452" lon="11.2425161"><ele>668.0</ele><time>2026-05-02T05:36:35.978Z</time></trkpt><trkpt lat="43.8675046" lon="11.2425975"><ele>668.0</ele><time>2026-05-02T05:36:36.968Z</time></trkpt><trkpt lat="43.8674681" lon="11.2426718"><ele>668.0</ele><time>2026-05-02T05:36:37.969Z</time></trkpt><trkpt lat="43.8674342" lon="11.2427506"><ele>665.3333333333333</ele><time>2026-05-02T05:36:38.977Z</time></trkpt><trkpt lat="43.8673997" lon="11.242829"><ele>662.6666666666666</ele><time>2026-05-02T05:36:39.975Z</time></trkpt><trkpt lat="43.8673629" lon="11.2429186"><ele>660.0</ele><time>2026-05-02T05:36:40.971Z</time></trkpt><trkpt lat="43.8673227" lon="11.2430078"><ele>657.3333333333334</ele><time>2026-05-02T05:36:41.977Z</time></trkpt><trkpt lat="43.8672831" lon="11.2430929"><ele>654.6666666666667</ele><time>2026-05-02T05:36:42.963Z</time></trkpt><trkpt lat="43.8672499" lon="11.2431676"><ele>652.0</ele><time>2026-05-02T05:36:43.972Z</time></trkpt><trkpt lat="43.8671712" lon="11.2433012"><ele>652.0</ele><time>2026-05-02T05:36:45.969Z</time></trkpt><trkpt lat="43.8670945" lon="11.2434385"><ele>652.0</ele><time>2026-05-02T05:36:47.978Z</time></trkpt><trkpt lat="43.867064" lon="11.2435265"><ele>652.0</ele><time>2026-05-02T05:36:48.98Z</time></trkpt><trkpt lat="43.8670449" lon="11.2436111"><ele>652.0</ele><time>2026-05-02T05:36:49.971Z</time></trkpt><trkpt lat="43.8670246" lon="11.243699"><ele>652.0</ele><time>2026-05-02T05:36:50.975Z</time></trkpt><trkpt lat="43.867007" lon="11.2437918"><ele>652.0</ele><time>2026-05-02T05:36:51.976Z</time></trkpt><trkpt lat="43.8669833" lon="11.2439606"><ele>653.8333333333334</ele><time>2026-05-02T05:36:53.967Z</time></trkpt><trkpt lat="43.8669633" lon="11.2441267"><ele>655.6666666666667</ele><time>2026-05-02T05:36:55.97Z</time></trkpt><trkpt lat="43.8669509" lon="11.2442896"><ele>657.5</ele><time>2026-05-02T05:36:57.97Z</time></trkpt><trkpt lat="43.8669456" lon="11.2443775"><ele>659.3333333333334</ele><time>2026-05-02T05:36:58.977Z</time></trkpt><trkpt lat="43.8669571" lon="11.2444657"><ele>661.1666666666666</ele><time>2026-05-02T05:36:59.978Z</time></trkpt><trkpt lat="43.866976" lon="11.2445554"><ele>663.0</ele><time>2026-05-02T05:37:00.978Z</time></trkpt><trkpt lat="43.8670104" lon="11.2447119"><ele>663.8</ele><time>2026-05-02T05:37:02.976Z</time></trkpt><trkpt lat="43.8670286" lon="11.2448687"><ele>664.5999999999999</ele><time>2026-05-02T05:37:04.981Z</time></trkpt><trkpt lat="43.8670328" lon="11.2450478"><ele>665.4000000000001</ele><time>2026-05-02T05:37:06.977Z</time></trkpt><trkpt lat="43.8670387" lon="11.2451561"><ele>666.2</ele><time>2026-05-02T05:37:07.978Z</time></trkpt><trkpt lat="43.8670433" lon="11.2452757"><ele>667.0</ele><time>2026-05-02T05:37:08.982Z</time></trkpt><trkpt lat="43.8670476" lon="11.2453823"><ele>667.0</ele><time>2026-05-02T05:37:09.969Z</time></trkpt><trkpt lat="43.8670488" lon="11.2454957"><ele>667.0</ele><time>2026-05-02T05:37:10.971Z</time></trkpt><trkpt lat="43.867039" lon="11.2456027"><ele>667.0</ele><time>2026-05-02T05:37:11.973Z</time></trkpt><trkpt lat="43.867031" lon="11.2457027"><ele>667.0</ele><time>2026-05-02T05:37:12.966Z</time></trkpt><trkpt lat="43.8670302" lon="11.245798"><ele>667.0</ele><time>2026-05-02T05:37:13.972Z</time></trkpt><trkpt lat="43.8670355" lon="11.2458931"><ele>667.0</ele><time>2026-05-02T05:37:14.964Z</time></trkpt><trkpt lat="43.8670441" lon="11.2460626"><ele>666.8333333333334</ele><time>2026-05-02T05:37:16.974Z</time></trkpt><trkpt lat="43.8670502" lon="11.24615"><ele>666.6666666666667</ele><time>2026-05-02T05:37:17.971Z</time></trkpt><trkpt lat="43.8670541" lon="11.24632"><ele>666.5</ele><time>2026-05-02T05:37:19.974Z</time></trkpt><trkpt lat="43.867054" lon="11.2464239"><ele>666.3333333333334</ele><time>2026-05-02T05:37:20.968Z</time></trkpt><trkpt lat="43.867056" lon="11.2465324"><ele>666.1666666666666</ele><time>2026-05-02T05:37:21.984Z</time></trkpt><trkpt lat="43.867058" lon="11.2466372"><ele>666.0</ele><time>2026-05-02T05:37:22.986Z</time></trkpt><trkpt lat="43.8670588" lon="11.246727"><ele>665.6666666666666</ele><time>2026-05-02T05:37:23.973Z</time></trkpt><trkpt lat="43.8670571" lon="11.246829"><ele>665.3333333333334</ele><time>2026-05-02T05:37:24.977Z</time></trkpt><trkpt lat="43.867049" lon="11.246931"><ele>665.0</ele><time>2026-05-02T05:37:25.985Z</time></trkpt><trkpt lat="43.8670366" lon="11.2470274"><ele>664.6666666666667</ele><time>2026-05-02T05:37:26.964Z</time></trkpt><trkpt lat="43.8670167" lon="11.2471145"><ele>664.3333333333334</ele><time>2026-05-02T05:37:27.976Z</time></trkpt><trkpt lat="43.8670048" lon="11.2472003"><ele>664.0</ele><time>2026-05-02T05:37:28.972Z</time></trkpt><trkpt lat="43.8669846" lon="11.2473528"><ele>664.0</ele><time>2026-05-02T05:37:30.979Z</time></trkpt><trkpt lat="43.8669501" lon="11.2475245"><ele>664.0</ele><time>2026-05-02T05:37:32.979Z</time></trkpt><trkpt lat="43.8669245" lon="11.247612"><ele>664.0</ele><time>2026-05-02T05:37:33.983Z</time></trkpt><trkpt lat="43.8669031" lon="11.247697"><ele>664.0</ele><time>2026-05-02T05:37:34.975Z</time></trkpt><trkpt lat="43.8668811" lon="11.2477816"><ele>664.0</ele><time>2026-05-02T05:37:35.976Z</time></trkpt><trkpt lat="43.8668638" lon="11.2478734"><ele>664.0</ele><time>2026-05-02T05:37:36.982Z</time></trkpt><trkpt lat="43.8668482" lon="11.2479645"><ele>664.0</ele><time>2026-05-02T05:37:37.975Z</time></trkpt><trkpt lat="43.8668307" lon="11.2480608"><ele>664.0</ele><time>2026-05-02T05:37:38.98Z</time></trkpt><trkpt lat="43.8668201" lon="11.2481584"><ele>664.0</ele><time>2026-05-02T05:37:39.984Z</time></trkpt><trkpt lat="43.8668235" lon="11.248254"><ele>664.0</ele><time>2026-05-02T05:37:40.98Z</time></trkpt><trkpt lat="43.866829" lon="11.2483633"><ele>664.0</ele><time>2026-05-02T05:37:41.968Z</time></trkpt><trkpt lat="43.8668275" lon="11.2484702"><ele>664.0</ele><time>2026-05-02T05:37:42.957Z</time></trkpt><trkpt lat="43.8668282" lon="11.2485788"><ele>664.0</ele><time>2026-05-02T05:37:43.972Z</time></trkpt><trkpt lat="43.8668284" lon="11.2486865"><ele>664.1428571428571</ele><time>2026-05-02T05:37:44.971Z</time></trkpt><trkpt lat="43.8668339" lon="11.2487863"><ele>664.2857142857143</ele><time>2026-05-02T05:37:45.976Z</time></trkpt><trkpt lat="43.8668435" lon="11.2488801"><ele>664.4285714285714</ele><time>2026-05-02T05:37:46.972Z</time></trkpt><trkpt lat="43.866852" lon="11.2489785"><ele>664.5714285714286</ele><time>2026-05-02T05:37:47.972Z</time></trkpt><trkpt lat="43.866846" lon="11.2490835"><ele>664.7142857142858</ele><time>2026-05-02T05:37:48.978Z</time></trkpt><trkpt lat="43.8668463" lon="11.2491935"><ele>664.8571428571429</ele><time>2026-05-02T05:37:49.981Z</time></trkpt><trkpt lat="43.8668412" lon="11.2493062"><ele>665.0</ele><time>2026-05-02T05:37:51.025Z</time></trkpt><trkpt lat="43.8668392" lon="11.2494141"><ele>665.0</ele><time>2026-05-02T05:37:51.974Z</time></trkpt><trkpt lat="43.866822" lon="11.2495263"><ele>665.0</ele><time>2026-05-02T05:37:52.974Z</time></trkpt><trkpt lat="43.8668068" lon="11.2496395"><ele>665.0</ele><time>2026-05-02T05:37:53.98Z</time></trkpt><trkpt lat="43.8667845" lon="11.2497589"><ele>665.0</ele><time>2026-05-02T05:37:54.981Z</time></trkpt><trkpt lat="43.8667516" lon="11.2498659"><ele>665.0</ele><time>2026-05-02T05:37:55.953Z</time></trkpt><trkpt lat="43.8667275" lon="11.2499619"><ele>665.0</ele><time>2026-05-02T05:37:57.049Z</time></trkpt><trkpt lat="43.8667143" lon="11.2500535"><ele>660.1428571428571</ele><time>2026-05-02T05:37:57.974Z</time></trkpt><trkpt lat="43.8667061" lon="11.2501415"><ele>655.2857142857142</ele><time>2026-05-02T05:37:58.971Z</time></trkpt><trkpt lat="43.8666984" lon="11.2502334"><ele>650.4285714285714</ele><time>2026-05-02T05:37:59.976Z</time></trkpt><trkpt lat="43.8666923" lon="11.2503329"><ele>645.5714285714286</ele><time>2026-05-02T05:38:00.983Z</time></trkpt><trkpt lat="43.8666905" lon="11.2504289"><ele>640.7142857142857</ele><time>2026-05-02T05:38:01.976Z</time></trkpt><trkpt lat="43.8666926" lon="11.2505254"><ele>635.8571428571429</ele><time>2026-05-02T05:38:02.978Z</time></trkpt><trkpt lat="43.8667045" lon="11.2506208"><ele>631.0</ele><time>2026-05-02T05:38:03.968Z</time></trkpt><trkpt lat="43.8667179" lon="11.2507235"><ele>630.5</ele><time>2026-05-02T05:38:04.985Z</time></trkpt><trkpt lat="43.8667403" lon="11.2508392"><ele>630.0</ele><time>2026-05-02T05:38:05.972Z</time></trkpt><trkpt lat="43.8667695" lon="11.2509518"><ele>629.5</ele><time>2026-05-02T05:38:06.978Z</time></trkpt><trkpt lat="43.8667952" lon="11.2510512"><ele>629.0</ele><time>2026-05-02T05:38:07.979Z</time></trkpt><trkpt lat="43.8668195" lon="11.2511508"><ele>628.5</ele><time>2026-05-02T05:38:08.983Z</time></trkpt><trkpt lat="43.8668389" lon="11.2512428"><ele>628.0</ele><time>2026-05-02T05:38:09.972Z</time></trkpt><trkpt lat="43.8668935" lon="11.2513906"><ele>627.6</ele><time>2026-05-02T05:38:11.978Z</time></trkpt><trkpt lat="43.8669429" lon="11.251539"><ele>627.1999999999999</ele><time>2026-05-02T05:38:13.956Z</time></trkpt><trkpt lat="43.8669912" lon="11.2516644"><ele>626.8</ele><time>2026-05-02T05:38:15.94Z</time></trkpt><trkpt lat="43.867026" lon="11.2517957"><ele>626.4</ele><time>2026-05-02T05:38:17.945Z</time></trkpt><trkpt lat="43.8670067" lon="11.2519424"><ele>626.0</ele><time>2026-05-02T05:38:19.96Z</time></trkpt><trkpt lat="43.8669344" lon="11.2520909"><ele>626.0</ele><time>2026-05-02T05:38:22.034Z</time></trkpt><trkpt lat="43.8668935" lon="11.2521583"><ele>626.0</ele><time>2026-05-02T05:38:23.046Z</time></trkpt><trkpt lat="43.8668454" lon="11.2522296"><ele>626.0</ele><time>2026-05-02T05:38:23.967Z</time></trkpt><trkpt lat="43.8667947" lon="11.2523022"><ele>626.0</ele><time>2026-05-02T05:38:24.974Z</time></trkpt><trkpt lat="43.8667483" lon="11.252375"><ele>626.0</ele><time>2026-05-02T05:38:25.971Z</time></trkpt><trkpt lat="43.8667018" lon="11.2524505"><ele>626.0</ele><time>2026-05-02T05:38:26.965Z</time></trkpt><trkpt lat="43.8666672" lon="11.2525276"><ele>626.0</ele><time>2026-05-02T05:38:27.968Z</time></trkpt><trkpt lat="43.8666437" lon="11.2526496"><ele>624.8333333333333</ele><time>2026-05-02T05:38:30.04Z</time></trkpt><trkpt lat="43.8666874" lon="11.2527382"><ele>623.6666666666666</ele><time>2026-05-02T05:38:32.034Z</time></trkpt><trkpt lat="43.8667548" lon="11.252797"><ele>622.5</ele><time>2026-05-02T05:38:33.961Z</time></trkpt><trkpt lat="43.8668537" lon="11.2528338"><ele>621.3333333333334</ele><time>2026-05-02T05:38:35.966Z</time></trkpt><trkpt lat="43.8669427" lon="11.2528647"><ele>620.1666666666667</ele><time>2026-05-02T05:38:37.943Z</time></trkpt><trkpt lat="43.8670256" lon="11.2528691"><ele>619.0</ele><time>2026-05-02T05:38:40.954Z</time></trkpt><trkpt lat="43.8671013" lon="11.2528054"><ele>618.1666666666667</ele><time>2026-05-02T05:38:43.963Z</time></trkpt><trkpt lat="43.8671552" lon="11.252729"><ele>617.3333333333334</ele><time>2026-05-02T05:38:45.981Z</time></trkpt><trkpt lat="43.8672141" lon="11.2526497"><ele>616.5</ele><time>2026-05-02T05:38:47.971Z</time></trkpt><trkpt lat="43.8672931" lon="11.2525839"><ele>615.6666666666666</ele><time>2026-05-02T05:38:50.059Z</time></trkpt><trkpt lat="43.867352" lon="11.252536"><ele>614.8333333333333</ele><time>2026-05-02T05:38:51.956Z</time></trkpt><trkpt lat="43.8674036" lon="11.2524845"><ele>614.0</ele><time>2026-05-02T05:38:53.968Z</time></trkpt><trkpt lat="43.8674597" lon="11.2524279"><ele>614.0</ele><time>2026-05-02T05:38:55.959Z</time></trkpt><trkpt lat="43.8675279" lon="11.2523726"><ele>614.0</ele><time>2026-05-02T05:38:58.97Z</time></trkpt><trkpt lat="43.8676063" lon="11.2523442"><ele>614.0</ele><time>2026-05-02T05:39:02.953Z</time></trkpt><trkpt lat="43.8676784" lon="11.2523438"><ele>614.0</ele><time>2026-05-02T05:39:05.957Z</time></trkpt><trkpt lat="43.8677417" lon="11.2523233"><ele>614.0</ele><time>2026-05-02T05:39:08.948Z</time></trkpt><trkpt lat="43.8678241" lon="11.2523668"><ele>614.0</ele><time>2026-05-02T05:39:10.943Z</time></trkpt><trkpt lat="43.8679394" lon="11.2524345"><ele>611.2</ele><time>2026-05-02T05:39:12.962Z</time></trkpt><trkpt lat="43.8680572" lon="11.2525044"><ele>608.4</ele><time>2026-05-02T05:39:14.941Z</time></trkpt><trkpt lat="43.8681746" lon="11.2525903"><ele>605.6</ele><time>2026-05-02T05:39:16.942Z</time></trkpt><trkpt lat="43.8682285" lon="11.2526525"><ele>602.8</ele><time>2026-05-02T05:39:17.963Z</time></trkpt><trkpt lat="43.8682851" lon="11.2527151"><ele>600.0</ele><time>2026-05-02T05:39:18.948Z</time></trkpt><trkpt lat="43.8683478" lon="11.25278"><ele>599.9999999999999</ele><time>2026-05-02T05:39:19.96Z</time></trkpt><trkpt lat="43.8683979" lon="11.2528536"><ele>600.0</ele><time>2026-05-02T05:39:20.963Z</time></trkpt><trkpt lat="43.8684466" lon="11.2529136"><ele>600.0</ele><time>2026-05-02T05:39:21.957Z</time></trkpt><trkpt lat="43.8685014" lon="11.2529777"><ele>600.0</ele><time>2026-05-02T05:39:22.963Z</time></trkpt><trkpt lat="43.8685513" lon="11.2530341"><ele>600.0</ele><time>2026-05-02T05:39:23.96Z</time></trkpt><trkpt lat="43.8686006" lon="11.2530886"><ele>599.9999999999999</ele><time>2026-05-02T05:39:24.966Z</time></trkpt><trkpt lat="43.8687011" lon="11.2531498"><ele>600.0</ele><time>2026-05-02T05:39:26.955Z</time></trkpt><trkpt lat="43.868791" lon="11.2531977"><ele>598.5</ele><time>2026-05-02T05:39:28.956Z</time></trkpt><trkpt lat="43.8688348" lon="11.2532967"><ele>597.0</ele><time>2026-05-02T05:39:30.954Z</time></trkpt><trkpt lat="43.8688081" lon="11.2533923"><ele>595.5</ele><time>2026-05-02T05:39:33.953Z</time></trkpt><trkpt lat="43.8687083" lon="11.2533829"><ele>594.0</ele><time>2026-05-02T05:39:36.955Z</time></trkpt><trkpt lat="43.8686301" lon="11.2533801"><ele>592.5</ele><time>2026-05-02T05:39:40.045Z</time></trkpt><trkpt lat="43.8685499" lon="11.2533497"><ele>591.0</ele><time>2026-05-02T05:39:42.964Z</time></trkpt><trkpt lat="43.8686088" lon="11.2534891"><ele>591.0</ele><time>2026-05-02T05:39:49.943Z</time></trkpt><trkpt lat="43.8686699" lon="11.253588"><ele>591.0</ele><time>2026-05-02T05:39:51.951Z</time></trkpt><trkpt lat="43.8687202" lon="11.253691"><ele>591.0</ele><time>2026-05-02T05:39:53.962Z</time></trkpt><trkpt lat="43.8687661" lon="11.2538229"><ele>591.0</ele><time>2026-05-02T05:39:55.956Z</time></trkpt><trkpt lat="43.8688216" lon="11.2539299"><ele>591.0</ele><time>2026-05-02T05:39:57.953Z</time></trkpt><trkpt lat="43.8688747" lon="11.2540343"><ele>587.1428571428571</ele><time>2026-05-02T05:39:59.969Z</time></trkpt><trkpt lat="43.8689249" lon="11.2540872"><ele>583.2857142857143</ele><time>2026-05-02T05:40:01.964Z</time></trkpt><trkpt lat="43.8689845" lon="11.2541301"><ele>579.4285714285714</ele><time>2026-05-02T05:40:03.954Z</time></trkpt><trkpt lat="43.8690393" lon="11.2541744"><ele>575.5714285714286</ele><time>2026-05-02T05:40:05.963Z</time></trkpt><trkpt lat="43.8691095" lon="11.2542315"><ele>571.7142857142857</ele><time>2026-05-02T05:40:12.974Z</time></trkpt><trkpt lat="43.869148" lon="11.2543124"><ele>567.8571428571429</ele><time>2026-05-02T05:40:14.974Z</time></trkpt><trkpt lat="43.8692302" lon="11.2543833"><ele>564.0</ele><time>2026-05-02T05:40:16.972Z</time></trkpt><trkpt lat="43.8693142" lon="11.2544607"><ele>564.0</ele><time>2026-05-02T05:40:18.978Z</time></trkpt><trkpt lat="43.8693775" lon="11.2545377"><ele>564.0</ele><time>2026-05-02T05:40:20.982Z</time></trkpt><trkpt lat="43.8694357" lon="11.2545836"><ele>564.0</ele><time>2026-05-02T05:40:22.963Z</time></trkpt><trkpt lat="43.869516" lon="11.2546283"><ele>564.0</ele><time>2026-05-02T05:40:24.973Z</time></trkpt><trkpt lat="43.8695937" lon="11.2546354"><ele>564.0</ele><time>2026-05-02T05:40:26.975Z</time></trkpt><trkpt lat="43.8696618" lon="11.2546442"><ele>564.0</ele><time>2026-05-02T05:40:28.976Z</time></trkpt><trkpt lat="43.8697372" lon="11.2546596"><ele>564.0</ele><time>2026-05-02T05:40:30.979Z</time></trkpt><trkpt lat="43.8698012" lon="11.2546782"><ele>564.0</ele><time>2026-05-02T05:40:32.968Z</time></trkpt><trkpt lat="43.8698673" lon="11.2547012"><ele>564.0</ele><time>2026-05-02T05:40:34.972Z</time></trkpt><trkpt lat="43.8699373" lon="11.2547424"><ele>564.0</ele><time>2026-05-02T05:40:36.974Z</time></trkpt><trkpt lat="43.8700102" lon="11.2547987"><ele>564.0</ele><time>2026-05-02T05:40:39.977Z</time></trkpt><trkpt lat="43.8700909" lon="11.2548348"><ele>564.0</ele><time>2026-05-02T05:40:42.964Z</time></trkpt><trkpt lat="43.8701794" lon="11.25487"><ele>558.2</ele><time>2026-05-02T05:40:45.976Z</time></trkpt><trkpt lat="43.8702682" lon="11.2549483"><ele>552.4</ele><time>2026-05-02T05:40:47.979Z</time></trkpt><trkpt lat="43.8703431" lon="11.255045"><ele>546.6</ele><time>2026-05-02T05:40:49.976Z</time></trkpt><trkpt lat="43.8704239" lon="11.2551413"><ele>540.8</ele><time>2026-05-02T05:40:51.981Z</time></trkpt><trkpt lat="43.8705126" lon="11.2552163"><ele>535.0</ele><time>2026-05-02T05:40:53.988Z</time></trkpt><trkpt lat="43.8705984" lon="11.255299"><ele>535.0</ele><time>2026-05-02T05:40:55.983Z</time></trkpt><trkpt lat="43.8706849" lon="11.2553724"><ele>535.0</ele><time>2026-05-02T05:40:57.977Z</time></trkpt><trkpt lat="43.8707804" lon="11.2554539"><ele>535.0</ele><time>2026-05-02T05:40:59.972Z</time></trkpt><trkpt lat="43.8708675" lon="11.2555277"><ele>535.0</ele><time>2026-05-02T05:41:01.973Z</time></trkpt><trkpt lat="43.8709377" lon="11.2555927"><ele>535.0</ele><time>2026-05-02T05:41:03.975Z</time></trkpt><trkpt lat="43.8710128" lon="11.2556319"><ele>531.1666666666667</ele><time>2026-05-02T05:41:05.981Z</time></trkpt><trkpt lat="43.8710919" lon="11.2556358"><ele>527.3333333333334</ele><time>2026-05-02T05:41:07.989Z</time></trkpt><trkpt lat="43.8711918" lon="11.2556281"><ele>523.5</ele><time>2026-05-02T05:41:09.986Z</time></trkpt><trkpt lat="43.8712882" lon="11.2556186"><ele>519.6666666666666</ele><time>2026-05-02T05:41:11.988Z</time></trkpt><trkpt lat="43.8713751" lon="11.2556123"><ele>515.8333333333333</ele><time>2026-05-02T05:41:13.981Z</time></trkpt><trkpt lat="43.8714416" lon="11.2556111"><ele>512.0</ele><time>2026-05-02T05:41:15.978Z</time></trkpt><trkpt lat="43.871512" lon="11.2556015"><ele>512.0</ele><time>2026-05-02T05:41:18.966Z</time></trkpt><trkpt lat="43.8715952" lon="11.255589"><ele>512.0</ele><time>2026-05-02T05:41:21.974Z</time></trkpt><trkpt lat="43.871671" lon="11.2555598"><ele>512.0</ele><time>2026-05-02T05:41:23.979Z</time></trkpt><trkpt lat="43.871781" lon="11.2555406"><ele>512.0</ele><time>2026-05-02T05:41:25.977Z</time></trkpt><trkpt lat="43.8718979" lon="11.2554917"><ele>512.0</ele><time>2026-05-02T05:41:27.978Z</time></trkpt><trkpt lat="43.8719796" lon="11.2554688"><ele>510.3333333333333</ele><time>2026-05-02T05:41:28.98Z</time></trkpt><trkpt lat="43.8720574" lon="11.2554466"><ele>508.66666666666663</ele><time>2026-05-02T05:41:29.983Z</time></trkpt><trkpt lat="43.8721337" lon="11.2554277"><ele>507.0</ele><time>2026-05-02T05:41:30.976Z</time></trkpt><trkpt lat="43.8722143" lon="11.2554142"><ele>505.33333333333337</ele><time>2026-05-02T05:41:31.975Z</time></trkpt><trkpt lat="43.8722972" lon="11.2554022"><ele>503.6666666666667</ele><time>2026-05-02T05:41:32.976Z</time></trkpt><trkpt lat="43.8723733" lon="11.2553716"><ele>502.0</ele><time>2026-05-02T05:41:33.977Z</time></trkpt><trkpt lat="43.872451" lon="11.2553353"><ele>502.0</ele><time>2026-05-02T05:41:34.977Z</time></trkpt><trkpt lat="43.8725185" lon="11.2552879"><ele>502.00000000000006</ele><time>2026-05-02T05:41:35.97Z</time></trkpt><trkpt lat="43.872585" lon="11.2552311"><ele>502.00000000000006</ele><time>2026-05-02T05:41:36.975Z</time></trkpt><trkpt lat="43.8726451" lon="11.2551099"><ele>502.0</ele><time>2026-05-02T05:41:38.962Z</time></trkpt><trkpt lat="43.8726912" lon="11.2549676"><ele>502.0</ele><time>2026-05-02T05:41:40.978Z</time></trkpt><trkpt lat="43.8727373" lon="11.2548392"><ele>501.0</ele><time>2026-05-02T05:41:42.976Z</time></trkpt><trkpt lat="43.8727952" lon="11.2547117"><ele>500.0</ele><time>2026-05-02T05:41:44.978Z</time></trkpt><trkpt lat="43.8728753" lon="11.2545859"><ele>499.0</ele><time>2026-05-02T05:41:46.982Z</time></trkpt><trkpt lat="43.8729806" lon="11.2544937"><ele>498.0</ele><time>2026-05-02T05:41:48.987Z</time></trkpt><trkpt lat="43.8730864" lon="11.2544424"><ele>498.0</ele><time>2026-05-02T05:41:50.978Z</time></trkpt><trkpt lat="43.8731511" lon="11.2544251"><ele>497.99999999999994</ele><time>2026-05-02T05:41:51.987Z</time></trkpt><trkpt lat="43.8732232" lon="11.2543927"><ele>498.0</ele><time>2026-05-02T05:41:52.962Z</time></trkpt><trkpt lat="43.8732884" lon="11.2543666"><ele>498.0</ele><time>2026-05-02T05:41:53.968Z</time></trkpt><trkpt lat="43.8733613" lon="11.2543414"><ele>497.99999999999994</ele><time>2026-05-02T05:41:54.977Z</time></trkpt><trkpt lat="43.8734221" lon="11.2543185"><ele>498.0</ele><time>2026-05-02T05:41:55.981Z</time></trkpt><trkpt lat="43.8734839" lon="11.2542983"><ele>498.0</ele><time>2026-05-02T05:41:56.983Z</time></trkpt><trkpt lat="43.8735805" lon="11.2542361"><ele>496.4</ele><time>2026-05-02T05:41:58.976Z</time></trkpt><trkpt lat="43.8736696" lon="11.2541345"><ele>494.79999999999995</ele><time>2026-05-02T05:42:00.975Z</time></trkpt><trkpt lat="43.8737548" lon="11.2540542"><ele>493.2</ele><time>2026-05-02T05:42:02.984Z</time></trkpt><trkpt lat="43.8738597" lon="11.254028"><ele>491.6</ele><time>2026-05-02T05:42:04.984Z</time></trkpt><trkpt lat="43.8739706" lon="11.2540179"><ele>490.0</ele><time>2026-05-02T05:42:06.975Z</time></trkpt><trkpt lat="43.8740648" lon="11.2539988"><ele>490.0</ele><time>2026-05-02T05:42:08.979Z</time></trkpt><trkpt lat="43.8741654" lon="11.2539577"><ele>490.0</ele><time>2026-05-02T05:42:10.978Z</time></trkpt><trkpt lat="43.8742751" lon="11.2538884"><ele>490.0</ele><time>2026-05-02T05:42:12.977Z</time></trkpt><trkpt lat="43.8743721" lon="11.2537987"><ele>490.0</ele><time>2026-05-02T05:42:14.976Z</time></trkpt><trkpt lat="43.8744139" lon="11.2537073"><ele>490.0</ele><time>2026-05-02T05:42:17.975Z</time></trkpt><trkpt lat="43.8744402" lon="11.253618"><ele>492.1666666666667</ele><time>2026-05-02T05:42:19.983Z</time></trkpt><trkpt lat="43.8744844" lon="11.2535295"><ele>494.33333333333337</ele><time>2026-05-02T05:42:21.979Z</time></trkpt><trkpt lat="43.8745636" lon="11.2534642"><ele>496.5</ele><time>2026-05-02T05:42:23.972Z</time></trkpt><trkpt lat="43.8746862" lon="11.2534271"><ele>498.66666666666663</ele><time>2026-05-02T05:42:25.977Z</time></trkpt><trkpt lat="43.8747552" lon="11.2534202"><ele>500.8333333333333</ele><time>2026-05-02T05:42:26.979Z</time></trkpt><trkpt lat="43.874822" lon="11.2534176"><ele>503.0</ele><time>2026-05-02T05:42:27.98Z</time></trkpt><trkpt lat="43.8749017" lon="11.2534186"><ele>502.99999999999994</ele><time>2026-05-02T05:42:28.971Z</time></trkpt><trkpt lat="43.8749884" lon="11.2534139"><ele>503.0</ele><time>2026-05-02T05:42:29.979Z</time></trkpt><trkpt lat="43.8750791" lon="11.2533871"><ele>503.0</ele><time>2026-05-02T05:42:30.981Z</time></trkpt><trkpt lat="43.8751704" lon="11.2533505"><ele>503.0</ele><time>2026-05-02T05:42:31.984Z</time></trkpt><trkpt lat="43.8752596" lon="11.2533153"><ele>502.99999999999994</ele><time>2026-05-02T05:42:32.996Z</time></trkpt><trkpt lat="43.8753302" lon="11.2533017"><ele>503.0</ele><time>2026-05-02T05:42:33.973Z</time></trkpt><trkpt lat="43.8754358" lon="11.2533124"><ele>504.59999999999997</ele><time>2026-05-02T05:42:35.976Z</time></trkpt><trkpt lat="43.8755434" lon="11.2533271"><ele>506.19999999999993</ele><time>2026-05-02T05:42:37.98Z</time></trkpt><trkpt lat="43.8756482" lon="11.2533404"><ele>507.8</ele><time>2026-05-02T05:42:39.975Z</time></trkpt><trkpt lat="43.8757272" lon="11.2533779"><ele>509.4</ele><time>2026-05-02T05:42:41.982Z</time></trkpt><trkpt lat="43.8758129" lon="11.2534819"><ele>511.0</ele><time>2026-05-02T05:42:43.985Z</time></trkpt><trkpt lat="43.8759028" lon="11.2535797"><ele>513.0</ele><time>2026-05-02T05:42:45.976Z</time></trkpt><trkpt lat="43.8760034" lon="11.2536597"><ele>515.0</ele><time>2026-05-02T05:42:47.98Z</time></trkpt><trkpt lat="43.8760604" lon="11.2537115"><ele>517.0</ele><time>2026-05-02T05:42:48.993Z</time></trkpt><trkpt lat="43.876122" lon="11.2537705"><ele>519.0</ele><time>2026-05-02T05:42:49.969Z</time></trkpt><trkpt lat="43.8761799" lon="11.253825"><ele>521.0</ele><time>2026-05-02T05:42:50.979Z</time></trkpt><trkpt lat="43.8762421" lon="11.2538893"><ele>523.0</ele><time>2026-05-02T05:42:51.987Z</time></trkpt><trkpt lat="43.8763127" lon="11.2539353"><ele>521.8333333333334</ele><time>2026-05-02T05:42:52.977Z</time></trkpt><trkpt lat="43.8763721" lon="11.2539931"><ele>520.6666666666667</ele><time>2026-05-02T05:42:53.972Z</time></trkpt><trkpt lat="43.8764293" lon="11.2540381"><ele>519.5</ele><time>2026-05-02T05:42:54.971Z</time></trkpt><trkpt lat="43.8764908" lon="11.2540739"><ele>518.3333333333334</ele><time>2026-05-02T05:42:55.979Z</time></trkpt><trkpt lat="43.8765516" lon="11.2541019"><ele>517.1666666666666</ele><time>2026-05-02T05:42:56.981Z</time></trkpt><trkpt lat="43.8766515" lon="11.2541352"><ele>516.0</ele><time>2026-05-02T05:42:58.983Z</time></trkpt><trkpt lat="43.8767258" lon="11.2542013"><ele>519.2</ele><time>2026-05-02T05:43:00.978Z</time></trkpt><trkpt lat="43.8767943" lon="11.2542977"><ele>522.4000000000001</ele><time>2026-05-02T05:43:02.98Z</time></trkpt><trkpt lat="43.8768948" lon="11.2543186"><ele>525.6</ele><time>2026-05-02T05:43:04.981Z</time></trkpt><trkpt lat="43.8770024" lon="11.2543051"><ele>528.8000000000001</ele><time>2026-05-02T05:43:06.979Z</time></trkpt><trkpt lat="43.8770982" lon="11.254303"><ele>532.0</ele><time>2026-05-02T05:43:08.982Z</time></trkpt><trkpt lat="43.8771789" lon="11.2543304"><ele>532.0</ele><time>2026-05-02T05:43:10.975Z</time></trkpt><trkpt lat="43.8772446" lon="11.2543196"><ele>532.0</ele><time>2026-05-02T05:43:12.982Z</time></trkpt><trkpt lat="43.8773134" lon="11.2543045"><ele>532.0</ele><time>2026-05-02T05:43:14.978Z</time></trkpt><trkpt lat="43.8773881" lon="11.2542886"><ele>532.0</ele><time>2026-05-02T05:43:16.963Z</time></trkpt><trkpt lat="43.877485" lon="11.2542558"><ele>532.0</ele><time>2026-05-02T05:43:18.987Z</time></trkpt><trkpt lat="43.8776074" lon="11.2542379"><ele>532.0</ele><time>2026-05-02T05:43:20.981Z</time></trkpt><trkpt lat="43.8777218" lon="11.2542376"><ele>531.4</ele><time>2026-05-02T05:43:22.977Z</time></trkpt><trkpt lat="43.8778293" lon="11.2542749"><ele>530.8000000000001</ele><time>2026-05-02T05:43:24.986Z</time></trkpt><trkpt lat="43.8778865" lon="11.2543168"><ele>530.2</ele><time>2026-05-02T05:43:25.982Z</time></trkpt><trkpt lat="43.8779467" lon="11.2543635"><ele>529.6</ele><time>2026-05-02T05:43:26.976Z</time></trkpt><trkpt lat="43.8780512" lon="11.2544415"><ele>529.0</ele><time>2026-05-02T05:43:28.978Z</time></trkpt><trkpt lat="43.8781626" lon="11.2544754"><ele>529.0</ele><time>2026-05-02T05:43:30.977Z</time></trkpt><trkpt lat="43.8782703" lon="11.2544634"><ele>529.0</ele><time>2026-05-02T05:43:32.973Z</time></trkpt><trkpt lat="43.878347" lon="11.2544083"><ele>529.0</ele><time>2026-05-02T05:43:34.983Z</time></trkpt><trkpt lat="43.8784213" lon="11.2542849"><ele>529.0</ele><time>2026-05-02T05:43:36.978Z</time></trkpt><trkpt lat="43.8784495" lon="11.2542046"><ele>529.0</ele><time>2026-05-02T05:43:37.984Z</time></trkpt><trkpt lat="43.878469" lon="11.2541208"><ele>529.0</ele><time>2026-05-02T05:43:38.987Z</time></trkpt><trkpt lat="43.878519" lon="11.253972"><ele>528.5</ele><time>2026-05-02T05:43:40.98Z</time></trkpt><trkpt lat="43.8785624" lon="11.2538713"><ele>528.0</ele><time>2026-05-02T05:43:42.971Z</time></trkpt><trkpt lat="43.8786029" lon="11.2537415"><ele>527.5</ele><time>2026-05-02T05:43:44.986Z</time></trkpt><trkpt lat="43.8786486" lon="11.2536362"><ele>527.0</ele><time>2026-05-02T05:43:46.978Z</time></trkpt><trkpt lat="43.878687" lon="11.2535305"><ele>526.5</ele><time>2026-05-02T05:43:48.979Z</time></trkpt><trkpt lat="43.8787169" lon="11.253443"><ele>526.0</ele><time>2026-05-02T05:43:50.976Z</time></trkpt><trkpt lat="43.8787886" lon="11.2533913"><ele>526.0</ele><time>2026-05-02T05:43:54.987Z</time></trkpt><trkpt lat="43.8788859" lon="11.2534154"><ele>526.0</ele><time>2026-05-02T05:43:57.976Z</time></trkpt><trkpt lat="43.8789834" lon="11.2534327"><ele>526.0</ele><time>2026-05-02T05:43:59.973Z</time></trkpt><trkpt lat="43.8790512" lon="11.25343"><ele>526.0</ele><time>2026-05-02T05:44:01.969Z</time></trkpt><trkpt lat="43.8791303" lon="11.2534198"><ele>526.0</ele><time>2026-05-02T05:44:03.977Z</time></trkpt><trkpt lat="43.8792288" lon="11.2534187"><ele>526.0</ele><time>2026-05-02T05:44:05.972Z</time></trkpt><trkpt lat="43.8792973" lon="11.2533668"><ele>525.6</ele><time>2026-05-02T05:44:07.971Z</time></trkpt><trkpt lat="43.8794001" lon="11.2533196"><ele>525.2</ele><time>2026-05-02T05:44:09.969Z</time></trkpt><trkpt lat="43.8795055" lon="11.2532681"><ele>524.8</ele><time>2026-05-02T05:44:11.973Z</time></trkpt><trkpt lat="43.8796051" lon="11.2532067"><ele>524.4</ele><time>2026-05-02T05:44:13.983Z</time></trkpt><trkpt lat="43.8796848" lon="11.2531529"><ele>524.0</ele><time>2026-05-02T05:44:15.969Z</time></trkpt><trkpt lat="43.8797614" lon="11.2531579"><ele>524.0</ele><time>2026-05-02T05:44:17.98Z</time></trkpt><trkpt lat="43.8798268" lon="11.2531533"><ele>524.0</ele><time>2026-05-02T05:44:19.976Z</time></trkpt><trkpt lat="43.8799134" lon="11.2531514"><ele>524.0</ele><time>2026-05-02T05:44:22.984Z</time></trkpt><trkpt lat="43.8799814" lon="11.2531478"><ele>524.0</ele><time>2026-05-02T05:44:24.968Z</time></trkpt><trkpt lat="43.88005" lon="11.2531406"><ele>524.0</ele><time>2026-05-02T05:44:26.976Z</time></trkpt><trkpt lat="43.8801179" lon="11.2531148"><ele>524.0</ele><time>2026-05-02T05:44:28.981Z</time></trkpt><trkpt lat="43.880182" lon="11.2530936"><ele>524.0</ele><time>2026-05-02T05:44:30.975Z</time></trkpt><trkpt lat="43.8802582" lon="11.2530851"><ele>523.8333333333333</ele><time>2026-05-02T05:44:32.978Z</time></trkpt><trkpt lat="43.8803327" lon="11.2530745"><ele>523.6666666666666</ele><time>2026-05-02T05:44:34.981Z</time></trkpt><trkpt lat="43.8804033" lon="11.2530822"><ele>523.5</ele><time>2026-05-02T05:44:36.981Z</time></trkpt><trkpt lat="43.8804985" lon="11.2531251"><ele>523.3333333333334</ele><time>2026-05-02T05:44:38.974Z</time></trkpt><trkpt lat="43.8805872" lon="11.2531658"><ele>523.1666666666667</ele><time>2026-05-02T05:44:40.987Z</time></trkpt><trkpt lat="43.8806511" lon="11.2531833"><ele>523.0</ele><time>2026-05-02T05:44:42.978Z</time></trkpt><trkpt lat="43.8807142" lon="11.2531985"><ele>522.9999999999999</ele><time>2026-05-02T05:44:44.978Z</time></trkpt><trkpt lat="43.8807798" lon="11.2532093"><ele>523.0</ele><time>2026-05-02T05:44:46.974Z</time></trkpt><trkpt lat="43.8808662" lon="11.2532198"><ele>523.0</ele><time>2026-05-02T05:44:49.974Z</time></trkpt><trkpt lat="43.8809385" lon="11.2531996"><ele>523.0</ele><time>2026-05-02T05:44:52.979Z</time></trkpt><trkpt lat="43.8810106" lon="11.2531502"><ele>523.0</ele><time>2026-05-02T05:44:55.974Z</time></trkpt><trkpt lat="43.8810681" lon="11.253114"><ele>522.9999999999999</ele><time>2026-05-02T05:44:57.977Z</time></trkpt><trkpt lat="43.8811212" lon="11.25305"><ele>523.0</ele><time>2026-05-02T05:44:59.971Z</time></trkpt><trkpt lat="43.8811689" lon="11.2529742"><ele>523.0</ele><time>2026-05-02T05:45:01.98Z</time></trkpt><trkpt lat="43.8812214" lon="11.2528895"><ele>523.0</ele><time>2026-05-02T05:45:03.979Z</time></trkpt><trkpt lat="43.8813006" lon="11.252781"><ele>523.0</ele><time>2026-05-02T05:45:05.982Z</time></trkpt><trkpt lat="43.8813759" lon="11.2526834"><ele>523.0</ele><time>2026-05-02T05:45:07.965Z</time></trkpt><trkpt lat="43.8814251" lon="11.2526035"><ele>523.0</ele><time>2026-05-02T05:45:09.963Z</time></trkpt><trkpt lat="43.8814758" lon="11.2525148"><ele>523.0</ele><time>2026-05-02T05:45:12.978Z</time></trkpt><trkpt lat="43.8815496" lon="11.2525172"><ele>523.0</ele><time>2026-05-02T05:45:15.985Z</time></trkpt><trkpt lat="43.8816081" lon="11.2525543"><ele>523.0</ele><time>2026-05-02T05:45:17.979Z</time></trkpt><trkpt lat="43.8816759" lon="11.2525846"><ele>523.0</ele><time>2026-05-02T05:45:19.971Z</time></trkpt><trkpt lat="43.8817537" lon="11.252612"><ele>523.0</ele><time>2026-05-02T05:45:21.983Z</time></trkpt><trkpt lat="43.8818336" lon="11.2526438"><ele>523.0</ele><time>2026-05-02T05:45:23.981Z</time></trkpt><trkpt lat="43.8819099" lon="11.2526706"><ele>522.4</ele><time>2026-05-02T05:45:25.977Z</time></trkpt><trkpt lat="43.8820137" lon="11.252677"><ele>521.8</ele><time>2026-05-02T05:45:27.981Z</time></trkpt><trkpt lat="43.8821213" lon="11.2526886"><ele>521.2</ele><time>2026-05-02T05:45:29.964Z</time></trkpt><trkpt lat="43.8822072" lon="11.252724"><ele>520.6</ele><time>2026-05-02T05:45:31.972Z</time></trkpt><trkpt lat="43.8822896" lon="11.252784"><ele>520.0</ele><time>2026-05-02T05:45:33.972Z</time></trkpt><trkpt lat="43.8823855" lon="11.2528697"><ele>520.0</ele><time>2026-05-02T05:45:36.027Z</time></trkpt><trkpt lat="43.8824817" lon="11.2529436"><ele>520.0</ele><time>2026-05-02T05:45:37.958Z</time></trkpt><trkpt lat="43.8825652" lon="11.2530235"><ele>520.0</ele><time>2026-05-02T05:45:39.96Z</time></trkpt><trkpt lat="43.8826171" lon="11.2530903"><ele>520.0</ele><time>2026-05-02T05:45:41.963Z</time></trkpt><trkpt lat="43.8826736" lon="11.2531506"><ele>520.0</ele><time>2026-05-02T05:45:43.97Z</time></trkpt><trkpt lat="43.882751" lon="11.2531913"><ele>520.0</ele><time>2026-05-02T05:45:46.965Z</time></trkpt><trkpt lat="43.8828307" lon="11.2531775"><ele>517.5</ele><time>2026-05-02T05:45:49.957Z</time></trkpt><trkpt lat="43.8829001" lon="11.2531478"><ele>515.0</ele><time>2026-05-02T05:45:52.043Z</time></trkpt><trkpt lat="43.8829817" lon="11.2531106"><ele>512.5</ele><time>2026-05-02T05:45:54.954Z</time></trkpt><trkpt lat="43.8830512" lon="11.253052"><ele>510.0</ele><time>2026-05-02T05:45:57.945Z</time></trkpt><trkpt lat="43.883121" lon="11.2529758"><ele>507.50000000000006</ele><time>2026-05-02T05:46:00.943Z</time></trkpt><trkpt lat="43.883187" lon="11.2528788"><ele>505.0</ele><time>2026-05-02T05:46:03.945Z</time></trkpt><trkpt lat="43.8832228" lon="11.2527978"><ele>505.00000000000006</ele><time>2026-05-02T05:46:05.948Z</time></trkpt><trkpt lat="43.8832694" lon="11.2526935"><ele>505.0</ele><time>2026-05-02T05:46:08.943Z</time></trkpt><trkpt lat="43.8833155" lon="11.252619"><ele>505.0</ele><time>2026-05-02T05:46:10.957Z</time></trkpt><trkpt lat="43.8833709" lon="11.2525426"><ele>505.0</ele><time>2026-05-02T05:46:13.952Z</time></trkpt><trkpt lat="43.8834284" lon="11.2524716"><ele>505.00000000000006</ele><time>2026-05-02T05:46:16.955Z</time></trkpt><trkpt lat="43.8835017" lon="11.252399"><ele>505.0</ele><time>2026-05-02T05:46:19.95Z</time></trkpt><trkpt lat="43.8835589" lon="11.2523334"><ele>504.1666666666667</ele><time>2026-05-02T05:46:21.958Z</time></trkpt><trkpt lat="43.8836017" lon="11.2522531"><ele>503.33333333333337</ele><time>2026-05-02T05:46:24.952Z</time></trkpt><trkpt lat="43.883665" lon="11.252224"><ele>502.5</ele><time>2026-05-02T05:46:28.956Z</time></trkpt><trkpt lat="43.883726" lon="11.2522515"><ele>501.66666666666663</ele><time>2026-05-02T05:46:30.956Z</time></trkpt><trkpt lat="43.8838319" lon="11.2522821"><ele>500.8333333333333</ele><time>2026-05-02T05:46:33.037Z</time></trkpt><trkpt lat="43.8839381" lon="11.2523133"><ele>500.0</ele><time>2026-05-02T05:46:34.971Z</time></trkpt><trkpt lat="43.884029" lon="11.2523356"><ele>499.99999999999994</ele><time>2026-05-02T05:46:36.963Z</time></trkpt><trkpt lat="43.884122" lon="11.25238"><ele>500.0</ele><time>2026-05-02T05:46:38.963Z</time></trkpt><trkpt lat="43.884207" lon="11.2524256"><ele>500.0</ele><time>2026-05-02T05:46:40.962Z</time></trkpt><trkpt lat="43.8842739" lon="11.252451"><ele>500.0</ele><time>2026-05-02T05:46:42.965Z</time></trkpt><trkpt lat="43.8843451" lon="11.2524735"><ele>499.99999999999994</ele><time>2026-05-02T05:46:44.959Z</time></trkpt><trkpt lat="43.8844132" lon="11.2524979"><ele>500.0</ele><time>2026-05-02T05:46:46.972Z</time></trkpt><trkpt lat="43.8844986" lon="11.2525332"><ele>500.0</ele><time>2026-05-02T05:46:49.979Z</time></trkpt><trkpt lat="43.884571" lon="11.2525468"><ele>500.0</ele><time>2026-05-02T05:46:54.974Z</time></trkpt><trkpt lat="43.8846756" lon="11.2525713"><ele>500.0</ele><time>2026-05-02T05:46:58.033Z</time></trkpt><trkpt lat="43.8847761" lon="11.2525759"><ele>500.0</ele><time>2026-05-02T05:46:59.967Z</time></trkpt><trkpt lat="43.8848658" lon="11.2525309"><ele>500.0</ele><time>2026-05-02T05:47:01.963Z</time></trkpt><trkpt lat="43.8849333" lon="11.2524779"><ele>500.0</ele><time>2026-05-02T05:47:03.973Z</time></trkpt><trkpt lat="43.8849914" lon="11.2524307"><ele>500.0</ele><time>2026-05-02T05:47:06.04Z</time></trkpt><trkpt lat="43.8850497" lon="11.2523909"><ele>500.0</ele><time>2026-05-02T05:47:07.948Z</time></trkpt><trkpt lat="43.8851225" lon="11.25235"><ele>500.0</ele><time>2026-05-02T05:47:10.958Z</time></trkpt><trkpt lat="43.8851881" lon="11.2523371"><ele>500.0</ele><time>2026-05-02T05:47:13.949Z</time></trkpt><trkpt lat="43.8852591" lon="11.2523718"><ele>500.0</ele><time>2026-05-02T05:47:16.967Z</time></trkpt><trkpt lat="43.8853326" lon="11.2523909"><ele>500.0</ele><time>2026-05-02T05:47:18.959Z</time></trkpt><trkpt lat="43.8854029" lon="11.252402"><ele>498.66666666666663</ele><time>2026-05-02T05:47:21.01Z</time></trkpt><trkpt lat="43.8854683" lon="11.2524142"><ele>497.3333333333333</ele><time>2026-05-02T05:47:22.957Z</time></trkpt><trkpt lat="43.8855292" lon="11.2524521"><ele>496.0</ele><time>2026-05-02T05:47:25.052Z</time></trkpt><trkpt lat="43.8856112" lon="11.2525149"><ele>494.66666666666663</ele><time>2026-05-02T05:47:27.968Z</time></trkpt><trkpt lat="43.8856576" lon="11.252593"><ele>493.3333333333333</ele><time>2026-05-02T05:47:30.963Z</time></trkpt><trkpt lat="43.8857039" lon="11.2526608"><ele>492.0</ele><time>2026-05-02T05:47:33.043Z</time></trkpt><trkpt lat="43.8857732" lon="11.2527257"><ele>492.0</ele><time>2026-05-02T05:47:34.965Z</time></trkpt><trkpt lat="43.8858532" lon="11.2527866"><ele>492.0</ele><time>2026-05-02T05:47:37.973Z</time></trkpt><trkpt lat="43.8859306" lon="11.2528623"><ele>492.0</ele><time>2026-05-02T05:47:40.962Z</time></trkpt><trkpt lat="43.8859865" lon="11.2529084"><ele>492.0</ele><time>2026-05-02T05:47:42.964Z</time></trkpt><trkpt lat="43.8860458" lon="11.2529612"><ele>492.0</ele><time>2026-05-02T05:47:45.074Z</time></trkpt><trkpt lat="43.8861138" lon="11.2530334"><ele>492.0</ele><time>2026-05-02T05:47:48.046Z</time></trkpt><trkpt lat="43.8861833" lon="11.253092"><ele>489.8333333333333</ele><time>2026-05-02T05:47:50.975Z</time></trkpt><trkpt lat="43.8862469" lon="11.2531595"><ele>487.66666666666663</ele><time>2026-05-02T05:47:54.977Z</time></trkpt><trkpt lat="43.8862961" lon="11.2532503"><ele>485.5</ele><time>2026-05-02T05:47:58.969Z</time></trkpt><trkpt lat="43.8863302" lon="11.2533238"><ele>483.3333333333333</ele><time>2026-05-02T05:48:00.969Z</time></trkpt><trkpt lat="43.8863606" lon="11.2534472"><ele>481.16666666666663</ele><time>2026-05-02T05:48:02.972Z</time></trkpt><trkpt lat="43.886378" lon="11.2535929"><ele>479.0</ele><time>2026-05-02T05:48:04.969Z</time></trkpt><trkpt lat="43.8863625" lon="11.2536965"><ele>478.99999999999994</ele><time>2026-05-02T05:48:07.032Z</time></trkpt><trkpt lat="43.8863422" lon="11.2537991"><ele>479.0</ele><time>2026-05-02T05:48:19.964Z</time></trkpt><trkpt lat="43.8863166" lon="11.2538818"><ele>479.0</ele><time>2026-05-02T05:48:21.946Z</time></trkpt><trkpt lat="43.8863063" lon="11.2539967"><ele>479.0</ele><time>2026-05-02T05:48:25.024Z</time></trkpt><trkpt lat="43.8863268" lon="11.2541115"><ele>478.99999999999994</ele><time>2026-05-02T05:48:27.961Z</time></trkpt><trkpt lat="43.8863119" lon="11.2542"><ele>479.0</ele><time>2026-05-02T05:48:37.965Z</time></trkpt><trkpt lat="43.8862559" lon="11.2542846"><ele>477.49999999999994</ele><time>2026-05-02T05:48:41.966Z</time></trkpt><trkpt lat="43.8862531" lon="11.2543932"><ele>476.0</ele><time>2026-05-02T05:48:44.971Z</time></trkpt><trkpt lat="43.8862491" lon="11.2544898"><ele>474.5</ele><time>2026-05-02T05:48:47.951Z</time></trkpt><trkpt lat="43.8861987" lon="11.2546041"><ele>473.0</ele><time>2026-05-02T05:48:50.974Z</time></trkpt><trkpt lat="43.8861644" lon="11.2547002"><ele>471.49999999999994</ele><time>2026-05-02T05:48:53.968Z</time></trkpt><trkpt lat="43.8861324" lon="11.2547876"><ele>470.0</ele><time>2026-05-02T05:49:15.963Z</time></trkpt><trkpt lat="43.8860896" lon="11.2548854"><ele>469.49999999999994</ele><time>2026-05-02T05:49:20.96Z</time></trkpt><trkpt lat="43.8860694" lon="11.254977"><ele>469.0</ele><time>2026-05-02T05:49:23.963Z</time></trkpt><trkpt lat="43.8860612" lon="11.255066"><ele>468.5</ele><time>2026-05-02T05:49:25.968Z</time></trkpt><trkpt lat="43.8860318" lon="11.2551897"><ele>468.0</ele><time>2026-05-02T05:49:28.969Z</time></trkpt><trkpt lat="43.8860066" lon="11.2552936"><ele>467.49999999999994</ele><time>2026-05-02T05:49:31.957Z</time></trkpt><trkpt lat="43.8860632" lon="11.2553778"><ele>467.0</ele><time>2026-05-02T05:49:34.957Z</time></trkpt><trkpt lat="43.8861044" lon="11.2554485"><ele>466.99999999999994</ele><time>2026-05-02T05:49:37.959Z</time></trkpt><trkpt lat="43.8860775" lon="11.2555455"><ele>467.0</ele><time>2026-05-02T05:49:41.961Z</time></trkpt><trkpt lat="43.886048" lon="11.2556331"><ele>467.0</ele><time>2026-05-02T05:49:44.951Z</time></trkpt><trkpt lat="43.8860653" lon="11.2557279"><ele>467.0</ele><time>2026-05-02T05:49:46.959Z</time></trkpt><trkpt lat="43.886133" lon="11.2557991"><ele>466.99999999999994</ele><time>2026-05-02T05:49:49.966Z</time></trkpt><trkpt lat="43.8861896" lon="11.2557505"><ele>467.0</ele><time>2026-05-02T05:49:54.96Z</time></trkpt><trkpt lat="43.886235" lon="11.2556523"><ele>466.99999999999994</ele><time>2026-05-02T05:49:57.956Z</time></trkpt><trkpt lat="43.8862992" lon="11.2556137"><ele>467.0</ele><time>2026-05-02T05:50:00.97Z</time></trkpt><trkpt lat="43.8863664" lon="11.2556131"><ele>466.99999999999994</ele><time>2026-05-02T05:50:02.974Z</time></trkpt><trkpt lat="43.8864317" lon="11.2555948"><ele>466.99999999999994</ele><time>2026-05-02T05:50:04.956Z</time></trkpt><trkpt lat="43.8865022" lon="11.255578"><ele>467.0</ele><time>2026-05-02T05:50:06.961Z</time></trkpt><trkpt lat="43.8865727" lon="11.2555363"><ele>466.99999999999994</ele><time>2026-05-02T05:50:09.033Z</time></trkpt><trkpt lat="43.8866272" lon="11.2554826"><ele>466.99999999999994</ele><time>2026-05-02T05:50:10.977Z</time></trkpt><trkpt lat="43.8867015" lon="11.2553694"><ele>466.99999999999994</ele><time>2026-05-02T05:50:12.959Z</time></trkpt><trkpt lat="43.8867538" lon="11.2552752"><ele>467.0</ele><time>2026-05-02T05:50:14.955Z</time></trkpt><trkpt lat="43.886789" lon="11.2552025"><ele>466.99999999999994</ele><time>2026-05-02T05:50:17.959Z</time></trkpt><trkpt lat="43.8868612" lon="11.2552135"><ele>466.99999999999994</ele><time>2026-05-02T05:50:28.036Z</time></trkpt><trkpt lat="43.8868797" lon="11.2553042"><ele>467.0</ele><time>2026-05-02T05:50:30.946Z</time></trkpt><trkpt lat="43.8868836" lon="11.2554159"><ele>466.99999999999994</ele><time>2026-05-02T05:50:32.956Z</time></trkpt><trkpt lat="43.8868845" lon="11.2555033"><ele>466.99999999999994</ele><time>2026-05-02T05:50:33.951Z</time></trkpt><trkpt lat="43.8868734" lon="11.2555898"><ele>464.40000000000003</ele><time>2026-05-02T05:50:34.958Z</time></trkpt><trkpt lat="43.8868487" lon="11.2557638"><ele>461.80000000000007</ele><time>2026-05-02T05:50:36.95Z</time></trkpt><trkpt lat="43.8868523" lon="11.2559268"><ele>459.2</ele><time>2026-05-02T05:50:38.946Z</time></trkpt><trkpt lat="43.8869124" lon="11.256077"><ele>456.6</ele><time>2026-05-02T05:50:40.941Z</time></trkpt><trkpt lat="43.8869473" lon="11.2561558"><ele>454.0</ele><time>2026-05-02T05:50:41.954Z</time></trkpt><trkpt lat="43.8869841" lon="11.2562283"><ele>454.0</ele><time>2026-05-02T05:50:42.951Z</time></trkpt><trkpt lat="43.887076" lon="11.2563479"><ele>454.0</ele><time>2026-05-02T05:50:44.956Z</time></trkpt><trkpt lat="43.887185" lon="11.2564032"><ele>454.0</ele><time>2026-05-02T05:50:46.959Z</time></trkpt><trkpt lat="43.8872979" lon="11.2564439"><ele>454.0</ele><time>2026-05-02T05:50:48.963Z</time></trkpt><trkpt lat="43.8874144" lon="11.2564152"><ele>454.00000000000006</ele><time>2026-05-02T05:50:50.96Z</time></trkpt><trkpt lat="43.8874875" lon="11.2563495"><ele>454.0</ele><time>2026-05-02T05:50:52.962Z</time></trkpt><trkpt lat="43.8875484" lon="11.2563161"><ele>454.0</ele><time>2026-05-02T05:50:54.965Z</time></trkpt><trkpt lat="43.88759" lon="11.2564041"><ele>454.0</ele><time>2026-05-02T05:50:57.965Z</time></trkpt><trkpt lat="43.8875357" lon="11.256496"><ele>454.00000000000006</ele><time>2026-05-02T05:50:59.956Z</time></trkpt><trkpt lat="43.8874529" lon="11.2565638"><ele>454.0</ele><time>2026-05-02T05:51:01.948Z</time></trkpt><trkpt lat="43.8873702" lon="11.2566482"><ele>450.0</ele><time>2026-05-02T05:51:03.95Z</time></trkpt><trkpt lat="43.8872972" lon="11.2567464"><ele>446.0</ele><time>2026-05-02T05:51:05.959Z</time></trkpt><trkpt lat="43.8872327" lon="11.2568891"><ele>442.0</ele><time>2026-05-02T05:51:07.957Z</time></trkpt><trkpt lat="43.8871945" lon="11.2570452"><ele>438.0</ele><time>2026-05-02T05:51:09.965Z</time></trkpt><trkpt lat="43.8871512" lon="11.2572222"><ele>434.59999999999997</ele><time>2026-05-02T05:51:11.962Z</time></trkpt><trkpt lat="43.8871243" lon="11.2573269"><ele>431.19999999999993</ele><time>2026-05-02T05:51:12.961Z</time></trkpt><trkpt lat="43.8871035" lon="11.2574278"><ele>427.8</ele><time>2026-05-02T05:51:13.962Z</time></trkpt><trkpt lat="43.8870881" lon="11.2575151"><ele>424.4</ele><time>2026-05-02T05:51:14.968Z</time></trkpt><trkpt lat="43.887061" lon="11.2576841"><ele>421.0</ele><time>2026-05-02T05:51:16.961Z</time></trkpt><trkpt lat="43.8870479" lon="11.2578653"><ele>421.00000000000006</ele><time>2026-05-02T05:51:18.95Z</time></trkpt><trkpt lat="43.8870459" lon="11.2579629"><ele>421.0</ele><time>2026-05-02T05:51:19.953Z</time></trkpt><trkpt lat="43.8870433" lon="11.2580557"><ele>421.0</ele><time>2026-05-02T05:51:20.957Z</time></trkpt><trkpt lat="43.8870372" lon="11.2581452"><ele>421.0</ele><time>2026-05-02T05:51:21.961Z</time></trkpt><trkpt lat="43.8870239" lon="11.2583063"><ele>421.00000000000006</ele><time>2026-05-02T05:51:23.955Z</time></trkpt><trkpt lat="43.8869543" lon="11.2583827"><ele>421.0</ele><time>2026-05-02T05:51:26.955Z</time></trkpt><trkpt lat="43.8869027" lon="11.2583288"><ele>419.1666666666667</ele><time>2026-05-02T05:51:28.959Z</time></trkpt><trkpt lat="43.8868842" lon="11.2582096"><ele>417.33333333333337</ele><time>2026-05-02T05:51:30.976Z</time></trkpt><trkpt lat="43.8868421" lon="11.2581272"><ele>415.5</ele><time>2026-05-02T05:51:32.971Z</time></trkpt><trkpt lat="43.8867531" lon="11.2581487"><ele>413.66666666666663</ele><time>2026-05-02T05:51:35.971Z</time></trkpt><trkpt lat="43.8867374" lon="11.2582708"><ele>411.8333333333333</ele><time>2026-05-02T05:51:38.003Z</time></trkpt><trkpt lat="43.8867372" lon="11.2583767"><ele>410.0</ele><time>2026-05-02T05:51:39.037Z</time></trkpt><trkpt lat="43.8867267" lon="11.2584802"><ele>409.99999999999994</ele><time>2026-05-02T05:51:40.039Z</time></trkpt><trkpt lat="43.8867067" lon="11.2585894"><ele>410.0</ele><time>2026-05-02T05:51:40.953Z</time></trkpt><trkpt lat="43.886688" lon="11.2586905"><ele>410.0</ele><time>2026-05-02T05:51:41.965Z</time></trkpt><trkpt lat="43.8866718" lon="11.25878"><ele>410.0</ele><time>2026-05-02T05:51:43.004Z</time></trkpt><trkpt lat="43.8866426" lon="11.2589308"><ele>409.99999999999994</ele><time>2026-05-02T05:51:45.043Z</time></trkpt><trkpt lat="43.8865963" lon="11.2590709"><ele>410.0</ele><time>2026-05-02T05:51:47.035Z</time></trkpt><trkpt lat="43.88661" lon="11.2591948"><ele>407.0</ele><time>2026-05-02T05:51:48.974Z</time></trkpt><trkpt lat="43.8866914" lon="11.2592749"><ele>404.0</ele><time>2026-05-02T05:51:50.963Z</time></trkpt><trkpt lat="43.8867854" lon="11.2592934"><ele>401.0</ele><time>2026-05-02T05:51:52.953Z</time></trkpt><trkpt lat="43.8868748" lon="11.2592524"><ele>398.0</ele><time>2026-05-02T05:51:54.979Z</time></trkpt><trkpt lat="43.8869693" lon="11.2591574"><ele>395.0</ele><time>2026-05-02T05:51:56.973Z</time></trkpt><trkpt lat="43.8870205" lon="11.2590999"><ele>393.2</ele><time>2026-05-02T05:51:57.972Z</time></trkpt><trkpt lat="43.8870715" lon="11.2590459"><ele>391.4</ele><time>2026-05-02T05:51:58.979Z</time></trkpt><trkpt lat="43.8871599" lon="11.2589511"><ele>389.6</ele><time>2026-05-02T05:52:00.951Z</time></trkpt><trkpt lat="43.887244" lon="11.2588632"><ele>387.8</ele><time>2026-05-02T05:52:02.98Z</time></trkpt><trkpt lat="43.8873373" lon="11.2587617"><ele>386.0</ele><time>2026-05-02T05:52:04.989Z</time></trkpt><trkpt lat="43.8874198" lon="11.2586534"><ele>385.16666666666663</ele><time>2026-05-02T05:52:06.952Z</time></trkpt><trkpt lat="43.8874878" lon="11.2585537"><ele>384.3333333333333</ele><time>2026-05-02T05:52:08.976Z</time></trkpt><trkpt lat="43.8875474" lon="11.2584704"><ele>383.5</ele><time>2026-05-02T05:52:10.961Z</time></trkpt><trkpt lat="43.8875927" lon="11.2584003"><ele>382.66666666666663</ele><time>2026-05-02T05:52:12.94Z</time></trkpt><trkpt lat="43.887635" lon="11.2584806"><ele>381.8333333333333</ele><time>2026-05-02T05:52:15.95Z</time></trkpt><trkpt lat="43.887627" lon="11.2585689"><ele>381.0</ele><time>2026-05-02T05:52:17.981Z</time></trkpt><trkpt lat="43.88758" lon="11.2586767"><ele>381.8333333333333</ele><time>2026-05-02T05:52:19.941Z</time></trkpt><trkpt lat="43.8875095" lon="11.2588091"><ele>382.66666666666663</ele><time>2026-05-02T05:52:21.959Z</time></trkpt><trkpt lat="43.8874664" lon="11.2588862"><ele>383.5</ele><time>2026-05-02T05:52:22.974Z</time></trkpt><trkpt lat="43.8874218" lon="11.2589573"><ele>384.3333333333333</ele><time>2026-05-02T05:52:23.951Z</time></trkpt><trkpt lat="43.8873759" lon="11.2590245"><ele>385.16666666666663</ele><time>2026-05-02T05:52:25.033Z</time></trkpt><trkpt lat="43.8873306" lon="11.2590903"><ele>386.0</ele><time>2026-05-02T05:52:25.944Z</time></trkpt><trkpt lat="43.8872825" lon="11.2591578"><ele>386.0</ele><time>2026-05-02T05:52:26.953Z</time></trkpt><trkpt lat="43.8872367" lon="11.2592232"><ele>386.0</ele><time>2026-05-02T05:52:27.968Z</time></trkpt><trkpt lat="43.8871455" lon="11.2593385"><ele>386.0</ele><time>2026-05-02T05:52:29.973Z</time></trkpt><trkpt lat="43.8870893" lon="11.2594731"><ele>386.0</ele><time>2026-05-02T05:52:31.976Z</time></trkpt><trkpt lat="43.8870329" lon="11.2596686"><ele>386.0</ele><time>2026-05-02T05:52:34.948Z</time></trkpt><trkpt lat="43.8869613" lon="11.2597799"><ele>386.0</ele><time>2026-05-02T05:52:36.969Z</time></trkpt><trkpt lat="43.8868736" lon="11.2598535"><ele>386.0</ele><time>2026-05-02T05:52:39.051Z</time></trkpt><trkpt lat="43.8867871" lon="11.2599336"><ele>386.0</ele><time>2026-05-02T05:52:40.953Z</time></trkpt><trkpt lat="43.8867513" lon="11.2600595"><ele>386.0</ele><time>2026-05-02T05:52:42.961Z</time></trkpt><trkpt lat="43.886779" lon="11.2601773"><ele>382.0</ele><time>2026-05-02T05:52:44.962Z</time></trkpt><trkpt lat="43.88685" lon="11.2602244"><ele>378.0</ele><time>2026-05-02T05:52:46.972Z</time></trkpt><trkpt lat="43.886958" lon="11.2601903"><ele>374.0</ele><time>2026-05-02T05:52:49.033Z</time></trkpt><trkpt lat="43.8870416" lon="11.2601457"><ele>370.0</ele><time>2026-05-02T05:52:50.957Z</time></trkpt><trkpt lat="43.8871152" lon="11.2600691"><ele>366.0</ele><time>2026-05-02T05:52:52.956Z</time></trkpt><trkpt lat="43.8871776" lon="11.2599589"><ele>366.0</ele><time>2026-05-02T05:52:54.956Z</time></trkpt><trkpt lat="43.8872365" lon="11.2598839"><ele>366.0</ele><time>2026-05-02T05:52:57.034Z</time></trkpt><trkpt lat="43.8873026" lon="11.259878"><ele>366.0</ele><time>2026-05-02T05:52:58.973Z</time></trkpt><trkpt lat="43.8873526" lon="11.2599782"><ele>366.0</ele><time>2026-05-02T05:53:01.959Z</time></trkpt><trkpt lat="43.8873455" lon="11.2600823"><ele>366.0</ele><time>2026-05-02T05:53:03.97Z</time></trkpt><trkpt lat="43.8873125" lon="11.2602029"><ele>366.0</ele><time>2026-05-02T05:53:05.966Z</time></trkpt><trkpt lat="43.8872759" lon="11.2603516"><ele>366.0</ele><time>2026-05-02T05:53:07.965Z</time></trkpt><trkpt lat="43.887236" lon="11.260501"><ele>366.0</ele><time>2026-05-02T05:53:09.951Z</time></trkpt><trkpt lat="43.8871711" lon="11.2606333"><ele>366.0</ele><time>2026-05-02T05:53:11.963Z</time></trkpt><trkpt lat="43.8871048" lon="11.2607487"><ele>366.0</ele><time>2026-05-02T05:53:13.955Z</time></trkpt><trkpt lat="43.8870149" lon="11.2608414"><ele>366.0</ele><time>2026-05-02T05:53:15.97Z</time></trkpt><trkpt lat="43.8869604" lon="11.2609201"><ele>364.1666666666667</ele><time>2026-05-02T05:53:17.962Z</time></trkpt><trkpt lat="43.8869592" lon="11.2610314"><ele>362.3333333333333</ele><time>2026-05-02T05:53:19.964Z</time></trkpt><trkpt lat="43.8870486" lon="11.2611335"><ele>360.5</ele><time>2026-05-02T05:53:21.961Z</time></trkpt><trkpt lat="43.887092" lon="11.261203"><ele>358.66666666666663</ele><time>2026-05-02T05:53:22.966Z</time></trkpt><trkpt lat="43.8871328" lon="11.2612761"><ele>356.8333333333333</ele><time>2026-05-02T05:53:23.972Z</time></trkpt><trkpt lat="43.887186" lon="11.2614117"><ele>355.0</ele><time>2026-05-02T05:53:25.968Z</time></trkpt><trkpt lat="43.8871988" lon="11.2614994"><ele>354.66666666666663</ele><time>2026-05-02T05:53:26.965Z</time></trkpt><trkpt lat="43.8872034" lon="11.261596"><ele>354.3333333333333</ele><time>2026-05-02T05:53:27.965Z</time></trkpt><trkpt lat="43.8872262" lon="11.2617433"><ele>354.0</ele><time>2026-05-02T05:53:29.973Z</time></trkpt><trkpt lat="43.8872701" lon="11.2618462"><ele>353.6666666666667</ele><time>2026-05-02T05:53:31.969Z</time></trkpt><trkpt lat="43.8873513" lon="11.2618938"><ele>353.33333333333337</ele><time>2026-05-02T05:53:33.964Z</time></trkpt><trkpt lat="43.8874151" lon="11.2619011"><ele>353.0</ele><time>2026-05-02T05:53:35.967Z</time></trkpt><trkpt lat="43.8874516" lon="11.2619835"><ele>353.0</ele><time>2026-05-02T05:57:02.956Z</time></trkpt><trkpt lat="43.8874686" lon="11.2620914"><ele>353.0</ele><time>2026-05-02T05:58:01.954Z</time></trkpt><trkpt lat="43.8874511" lon="11.2621885"><ele>353.0</ele><time>2026-05-02T05:58:03.958Z</time></trkpt><trkpt lat="43.887414" lon="11.2623131"><ele>353.0</ele><time>2026-05-02T05:58:05.961Z</time></trkpt><trkpt lat="43.8873777" lon="11.2624853"><ele>353.0</ele><time>2026-05-02T05:58:07.966Z</time></trkpt><trkpt lat="43.8873731" lon="11.2625749"><ele>353.0</ele><time>2026-05-02T05:58:08.955Z</time></trkpt><trkpt lat="43.8873641" lon="11.2626696"><ele>353.7142857142857</ele><time>2026-05-02T05:58:09.96Z</time></trkpt><trkpt lat="43.8873594" lon="11.262768"><ele>354.42857142857144</ele><time>2026-05-02T05:58:10.963Z</time></trkpt><trkpt lat="43.8873513" lon="11.2628825"><ele>355.14285714285717</ele><time>2026-05-02T05:58:11.96Z</time></trkpt><trkpt lat="43.8873426" lon="11.2629928"><ele>355.8571428571429</ele><time>2026-05-02T05:58:12.959Z</time></trkpt><trkpt lat="43.88733" lon="11.2630971"><ele>356.57142857142856</ele><time>2026-05-02T05:58:13.967Z</time></trkpt><trkpt lat="43.8873201" lon="11.2631888"><ele>357.28571428571433</ele><time>2026-05-02T05:58:14.96Z</time></trkpt><trkpt lat="43.8873018" lon="11.2632798"><ele>358.0</ele><time>2026-05-02T05:58:15.965Z</time></trkpt><trkpt lat="43.8872629" lon="11.2634579"><ele>358.4</ele><time>2026-05-02T05:58:17.966Z</time></trkpt><trkpt lat="43.8872451" lon="11.2635648"><ele>358.79999999999995</ele><time>2026-05-02T05:58:18.944Z</time></trkpt><trkpt lat="43.8872225" lon="11.263675"><ele>359.2</ele><time>2026-05-02T05:58:19.956Z</time></trkpt><trkpt lat="43.8871957" lon="11.2637928"><ele>359.6</ele><time>2026-05-02T05:58:20.959Z</time></trkpt><trkpt lat="43.8871623" lon="11.2639199"><ele>360.0</ele><time>2026-05-02T05:58:22.028Z</time></trkpt><trkpt lat="43.8871307" lon="11.2640615"><ele>360.0</ele><time>2026-05-02T05:58:23.035Z</time></trkpt><trkpt lat="43.8871099" lon="11.2642157"><ele>360.0</ele><time>2026-05-02T05:58:24.029Z</time></trkpt><trkpt lat="43.8870898" lon="11.2643805"><ele>360.0</ele><time>2026-05-02T05:58:25.035Z</time></trkpt><trkpt lat="43.8870652" lon="11.2645418"><ele>360.0</ele><time>2026-05-02T05:58:25.951Z</time></trkpt><trkpt lat="43.8870485" lon="11.2647023"><ele>358.0</ele><time>2026-05-02T05:58:26.957Z</time></trkpt><trkpt lat="43.8870385" lon="11.2648557"><ele>356.0</ele><time>2026-05-02T05:58:28.016Z</time></trkpt><trkpt lat="43.8870232" lon="11.2650056"><ele>354.0</ele><time>2026-05-02T05:58:29.034Z</time></trkpt><trkpt lat="43.8870205" lon="11.2651479"><ele>352.0</ele><time>2026-05-02T05:58:30.036Z</time></trkpt><trkpt lat="43.8870328" lon="11.2652926"><ele>350.0</ele><time>2026-05-02T05:58:30.942Z</time></trkpt><trkpt lat="43.8870557" lon="11.2654441"><ele>350.0</ele><time>2026-05-02T05:58:31.954Z</time></trkpt><trkpt lat="43.8870915" lon="11.2655943"><ele>350.0</ele><time>2026-05-02T05:58:32.978Z</time></trkpt><trkpt lat="43.8871515" lon="11.2657365"><ele>350.0</ele><time>2026-05-02T05:58:33.95Z</time></trkpt><trkpt lat="43.887213" lon="11.2658827"><ele>350.0</ele><time>2026-05-02T05:58:34.949Z</time></trkpt><trkpt lat="43.8872641" lon="11.2660205"><ele>348.4</ele><time>2026-05-02T05:58:35.95Z</time></trkpt><trkpt lat="43.8873098" lon="11.2661505"><ele>346.8</ele><time>2026-05-02T05:58:37.051Z</time></trkpt><trkpt lat="43.8873505" lon="11.2662735"><ele>345.20000000000005</ele><time>2026-05-02T05:58:38.032Z</time></trkpt><trkpt lat="43.8873863" lon="11.2664017"><ele>343.6</ele><time>2026-05-02T05:58:39.031Z</time></trkpt><trkpt lat="43.8874162" lon="11.2665264"><ele>342.0</ele><time>2026-05-02T05:58:40.041Z</time></trkpt><trkpt lat="43.8874385" lon="11.2666522"><ele>341.1666666666667</ele><time>2026-05-02T05:58:40.965Z</time></trkpt><trkpt lat="43.8874431" lon="11.2667543"><ele>340.3333333333333</ele><time>2026-05-02T05:58:41.961Z</time></trkpt><trkpt lat="43.8874662" lon="11.2668724"><ele>339.5</ele><time>2026-05-02T05:58:43.965Z</time></trkpt><trkpt lat="43.8875211" lon="11.2669487"><ele>338.66666666666663</ele><time>2026-05-02T05:58:45.962Z</time></trkpt><trkpt lat="43.8876198" lon="11.2670568"><ele>337.8333333333333</ele><time>2026-05-02T05:58:48.04Z</time></trkpt><trkpt lat="43.8876781" lon="11.2671278"><ele>337.0</ele><time>2026-05-02T05:58:48.961Z</time></trkpt><trkpt lat="43.8877359" lon="11.2672056"><ele>336.6</ele><time>2026-05-02T05:58:49.964Z</time></trkpt><trkpt lat="43.8878004" lon="11.2672842"><ele>336.20000000000005</ele><time>2026-05-02T05:58:50.964Z</time></trkpt><trkpt lat="43.8878641" lon="11.2673737"><ele>335.8</ele><time>2026-05-02T05:58:51.969Z</time></trkpt><trkpt lat="43.8879425" lon="11.2674576"><ele>335.4</ele><time>2026-05-02T05:58:52.97Z</time></trkpt><trkpt lat="43.888022" lon="11.267547"><ele>335.0</ele><time>2026-05-02T05:58:53.959Z</time></trkpt><trkpt lat="43.888105" lon="11.2676142"><ele>335.0</ele><time>2026-05-02T05:58:55.037Z</time></trkpt><trkpt lat="43.8882029" lon="11.2676489"><ele>335.0</ele><time>2026-05-02T05:58:55.949Z</time></trkpt><trkpt lat="43.8883107" lon="11.267645"><ele>335.0</ele><time>2026-05-02T05:58:56.968Z</time></trkpt><trkpt lat="43.8884261" lon="11.2676218"><ele>335.0</ele><time>2026-05-02T05:58:58.003Z</time></trkpt><trkpt lat="43.8885473" lon="11.2675538"><ele>335.5</ele><time>2026-05-02T05:58:59.025Z</time></trkpt><trkpt lat="43.8886596" lon="11.2674558"><ele>336.0</ele><time>2026-05-02T05:59:00.032Z</time></trkpt><trkpt lat="43.8887598" lon="11.2673447"><ele>336.5</ele><time>2026-05-02T05:59:00.974Z</time></trkpt><trkpt lat="43.8888518" lon="11.2672231"><ele>337.0</ele><time>2026-05-02T05:59:01.97Z</time></trkpt><trkpt lat="43.8889537" lon="11.2671016"><ele>338.75</ele><time>2026-05-02T05:59:02.972Z</time></trkpt><trkpt lat="43.8890603" lon="11.2669943"><ele>340.5</ele><time>2026-05-02T05:59:04.03Z</time></trkpt><trkpt lat="43.8891749" lon="11.2669224"><ele>342.25</ele><time>2026-05-02T05:59:05.039Z</time></trkpt><trkpt lat="43.8893002" lon="11.2668626"><ele>344.0</ele><time>2026-05-02T05:59:05.953Z</time></trkpt><trkpt lat="43.8894361" lon="11.2668263"><ele>344.75</ele><time>2026-05-02T05:59:07.036Z</time></trkpt><trkpt lat="43.889566" lon="11.2668194"><ele>345.5</ele><time>2026-05-02T05:59:07.968Z</time></trkpt><trkpt lat="43.8897021" lon="11.2668173"><ele>346.25</ele><time>2026-05-02T05:59:09.032Z</time></trkpt><trkpt lat="43.8898339" lon="11.2668463"><ele>347.0</ele><time>2026-05-02T05:59:10.033Z</time></trkpt><trkpt lat="43.889963" lon="11.2668798"><ele>346.25</ele><time>2026-05-02T05:59:10.956Z</time></trkpt><trkpt lat="43.8900931" lon="11.2669223"><ele>345.5</ele><time>2026-05-02T05:59:11.963Z</time></trkpt><trkpt lat="43.890224" lon="11.2669646"><ele>344.75</ele><time>2026-05-02T05:59:12.966Z</time></trkpt><trkpt lat="43.8903461" lon="11.2670086"><ele>344.0</ele><time>2026-05-02T05:59:14.036Z</time></trkpt><trkpt lat="43.8904578" lon="11.2670409"><ele>344.0</ele><time>2026-05-02T05:59:15.031Z</time></trkpt><trkpt lat="43.8905657" lon="11.2670522"><ele>344.0</ele><time>2026-05-02T05:59:15.961Z</time></trkpt><trkpt lat="43.8906758" lon="11.2670362"><ele>344.0</ele><time>2026-05-02T05:59:17.033Z</time></trkpt><trkpt lat="43.8907878" lon="11.2669872"><ele>344.0</ele><time>2026-05-02T05:59:18.031Z</time></trkpt><trkpt lat="43.8909025" lon="11.2669194"><ele>343.0</ele><time>2026-05-02T05:59:19.021Z</time></trkpt><trkpt lat="43.8910134" lon="11.2668334"><ele>342.0</ele><time>2026-05-02T05:59:20.034Z</time></trkpt><trkpt lat="43.8911256" lon="11.2667405"><ele>341.0</ele><time>2026-05-02T05:59:20.946Z</time></trkpt><trkpt lat="43.8912429" lon="11.2666443"><ele>340.0</ele><time>2026-05-02T05:59:21.949Z</time></trkpt><trkpt lat="43.8913554" lon="11.2665471"><ele>340.0</ele><time>2026-05-02T05:59:22.961Z</time></trkpt><trkpt lat="43.8914803" lon="11.2664692"><ele>340.0</ele><time>2026-05-02T05:59:23.946Z</time></trkpt><trkpt lat="43.8916042" lon="11.2664222"><ele>340.0</ele><time>2026-05-02T05:59:24.954Z</time></trkpt><trkpt lat="43.8917277" lon="11.2663929"><ele>340.0</ele><time>2026-05-02T05:59:25.948Z</time></trkpt><trkpt lat="43.8918491" lon="11.266387"><ele>338.75</ele><time>2026-05-02T05:59:27.05Z</time></trkpt><trkpt lat="43.8919669" lon="11.266405"><ele>337.5</ele><time>2026-05-02T05:59:27.982Z</time></trkpt><trkpt lat="43.8920831" lon="11.2664643"><ele>336.25</ele><time>2026-05-02T05:59:29.028Z</time></trkpt><trkpt lat="43.8921942" lon="11.2665547"><ele>335.0</ele><time>2026-05-02T05:59:29.961Z</time></trkpt><trkpt lat="43.8922922" lon="11.2666688"><ele>335.0</ele><time>2026-05-02T05:59:30.959Z</time></trkpt><trkpt lat="43.8923845" lon="11.2668025"><ele>335.0</ele><time>2026-05-02T05:59:31.959Z</time></trkpt><trkpt lat="43.8924714" lon="11.2669449"><ele>335.0</ele><time>2026-05-02T05:59:32.955Z</time></trkpt><trkpt lat="43.8925719" lon="11.2670761"><ele>335.0</ele><time>2026-05-02T05:59:33.956Z</time></trkpt><trkpt lat="43.8926862" lon="11.2671708"><ele>334.0</ele><time>2026-05-02T05:59:34.951Z</time></trkpt><trkpt lat="43.8928018" lon="11.2672312"><ele>333.0</ele><time>2026-05-02T05:59:35.941Z</time></trkpt><trkpt lat="43.8929149" lon="11.2672647"><ele>332.0</ele><time>2026-05-02T05:59:36.956Z</time></trkpt><trkpt lat="43.893031" lon="11.2672831"><ele>331.0</ele><time>2026-05-02T05:59:37.976Z</time></trkpt><trkpt lat="43.8931604" lon="11.2672638"><ele>331.0</ele><time>2026-05-02T05:59:38.944Z</time></trkpt><trkpt lat="43.8932951" lon="11.2672225"><ele>331.0</ele><time>2026-05-02T05:59:40.031Z</time></trkpt><trkpt lat="43.8934305" lon="11.2671607"><ele>331.0</ele><time>2026-05-02T05:59:40.961Z</time></trkpt><trkpt lat="43.8935527" lon="11.2671085"><ele>331.0</ele><time>2026-05-02T05:59:41.962Z</time></trkpt><trkpt lat="43.8936806" lon="11.2670807"><ele>335.0</ele><time>2026-05-02T05:59:42.988Z</time></trkpt><trkpt lat="43.8937969" lon="11.2670755"><ele>339.0</ele><time>2026-05-02T05:59:44.028Z</time></trkpt><trkpt lat="43.8939153" lon="11.2671122"><ele>343.0</ele><time>2026-05-02T05:59:45.03Z</time></trkpt><trkpt lat="43.8940384" lon="11.2671614"><ele>347.0</ele><time>2026-05-02T05:59:45.948Z</time></trkpt><trkpt lat="43.8941595" lon="11.2672453"><ele>351.0</ele><time>2026-05-02T05:59:46.967Z</time></trkpt><trkpt lat="43.894274" lon="11.2673363"><ele>355.0</ele><time>2026-05-02T05:59:47.966Z</time></trkpt><trkpt lat="43.8943706" lon="11.2674619"><ele>359.0</ele><time>2026-05-02T05:59:49.037Z</time></trkpt><trkpt lat="43.8944332" lon="11.26762"><ele>363.0</ele><time>2026-05-02T05:59:50.036Z</time></trkpt><trkpt lat="43.8944661" lon="11.2677903"><ele>363.0</ele><time>2026-05-02T05:59:50.961Z</time></trkpt><trkpt lat="43.8944703" lon="11.2679769"><ele>363.0</ele><time>2026-05-02T05:59:51.957Z</time></trkpt><trkpt lat="43.8944615" lon="11.2681742"><ele>363.0</ele><time>2026-05-02T05:59:52.998Z</time></trkpt><trkpt lat="43.8944591" lon="11.2683853"><ele>363.0</ele><time>2026-05-02T05:59:54.031Z</time></trkpt><trkpt lat="43.8944643" lon="11.2685815"><ele>355.6666666666667</ele><time>2026-05-02T05:59:55.04Z</time></trkpt><trkpt lat="43.8944918" lon="11.268786"><ele>348.33333333333337</ele><time>2026-05-02T05:59:55.945Z</time></trkpt><trkpt lat="43.8945301" lon="11.2690002"><ele>341.0</ele><time>2026-05-02T05:59:56.946Z</time></trkpt><trkpt lat="43.8945705" lon="11.269194"><ele>336.75</ele><time>2026-05-02T05:59:57.95Z</time></trkpt><trkpt lat="43.8946093" lon="11.2693898"><ele>332.5</ele><time>2026-05-02T05:59:58.952Z</time></trkpt><trkpt lat="43.8946546" lon="11.2695844"><ele>328.25</ele><time>2026-05-02T05:59:59.948Z</time></trkpt><trkpt lat="43.8947011" lon="11.2697834"><ele>324.0</ele><time>2026-05-02T06:00:00.941Z</time></trkpt><trkpt lat="43.8947507" lon="11.2699866"><ele>322.3333333333333</ele><time>2026-05-02T06:00:01.957Z</time></trkpt><trkpt lat="43.8948108" lon="11.2701888"><ele>320.66666666666663</ele><time>2026-05-02T06:00:02.96Z</time></trkpt><trkpt lat="43.8948803" lon="11.2703853"><ele>319.0</ele><time>2026-05-02T06:00:03.95Z</time></trkpt><trkpt lat="43.8949627" lon="11.270586"><ele>318.3333333333333</ele><time>2026-05-02T06:00:04.955Z</time></trkpt><trkpt lat="43.8950509" lon="11.2707906"><ele>317.6666666666667</ele><time>2026-05-02T06:00:05.953Z</time></trkpt><trkpt lat="43.8951363" lon="11.2709926"><ele>317.0</ele><time>2026-05-02T06:00:06.954Z</time></trkpt><trkpt lat="43.8952195" lon="11.2712017"><ele>323.0</ele><time>2026-05-02T06:00:07.951Z</time></trkpt><trkpt lat="43.8952974" lon="11.2714189"><ele>329.0</ele><time>2026-05-02T06:00:08.944Z</time></trkpt><trkpt lat="43.8953733" lon="11.2716347"><ele>335.0</ele><time>2026-05-02T06:00:09.957Z</time></trkpt><trkpt lat="43.8954465" lon="11.2718497"><ele>335.0</ele><time>2026-05-02T06:00:10.942Z</time></trkpt><trkpt lat="43.8955162" lon="11.2720568"><ele>335.0</ele><time>2026-05-02T06:00:11.95Z</time></trkpt><trkpt lat="43.8955791" lon="11.2722446"><ele>335.0</ele><time>2026-05-02T06:00:12.952Z</time></trkpt><trkpt lat="43.8956299" lon="11.2724156"><ele>335.0</ele><time>2026-05-02T06:00:13.959Z</time></trkpt><trkpt lat="43.8956594" lon="11.2725877"><ele>333.0</ele><time>2026-05-02T06:00:14.954Z</time></trkpt><trkpt lat="43.895666" lon="11.2727777"><ele>331.0</ele><time>2026-05-02T06:00:15.94Z</time></trkpt><trkpt lat="43.8956574" lon="11.2729792"><ele>329.0</ele><time>2026-05-02T06:00:17.051Z</time></trkpt><trkpt lat="43.8956432" lon="11.2731916"><ele>327.0</ele><time>2026-05-02T06:00:18.022Z</time></trkpt><trkpt lat="43.8956404" lon="11.2733884"><ele>325.25</ele><time>2026-05-02T06:00:18.993Z</time></trkpt><trkpt lat="43.8956495" lon="11.2735787"><ele>323.5</ele><time>2026-05-02T06:00:19.954Z</time></trkpt><trkpt lat="43.8956787" lon="11.2737593"><ele>321.75</ele><time>2026-05-02T06:00:20.961Z</time></trkpt><trkpt lat="43.8957333" lon="11.2739432"><ele>320.0</ele><time>2026-05-02T06:00:21.959Z</time></trkpt><trkpt lat="43.8958019" lon="11.2741262"><ele>317.33333333333337</ele><time>2026-05-02T06:00:22.975Z</time></trkpt><trkpt lat="43.8958973" lon="11.2742934"><ele>314.6666666666667</ele><time>2026-05-02T06:00:23.955Z</time></trkpt><trkpt lat="43.8960097" lon="11.2744466"><ele>312.0</ele><time>2026-05-02T06:00:25.032Z</time></trkpt><trkpt lat="43.8961135" lon="11.2745914"><ele>317.0</ele><time>2026-05-02T06:00:25.958Z</time></trkpt><trkpt lat="43.8961953" lon="11.274745"><ele>322.0</ele><time>2026-05-02T06:00:26.958Z</time></trkpt><trkpt lat="43.8962521" lon="11.2749233"><ele>327.0</ele><time>2026-05-02T06:00:27.955Z</time></trkpt><trkpt lat="43.8962798" lon="11.2751248"><ele>332.0</ele><time>2026-05-02T06:00:28.958Z</time></trkpt><trkpt lat="43.896281" lon="11.2753486"><ele>332.0</ele><time>2026-05-02T06:00:30.046Z</time></trkpt><trkpt lat="43.8962651" lon="11.2755882"><ele>332.0</ele><time>2026-05-02T06:00:30.966Z</time></trkpt><trkpt lat="43.8962547" lon="11.2758281"><ele>332.0</ele><time>2026-05-02T06:00:31.963Z</time></trkpt><trkpt lat="43.8962485" lon="11.2760589"><ele>330.33333333333337</ele><time>2026-05-02T06:00:32.965Z</time></trkpt><trkpt lat="43.8962468" lon="11.2763097"><ele>328.6666666666667</ele><time>2026-05-02T06:00:34.04Z</time></trkpt><trkpt lat="43.8962422" lon="11.2765536"><ele>327.0</ele><time>2026-05-02T06:00:35.039Z</time></trkpt><trkpt lat="43.8962398" lon="11.2767995"><ele>326.6666666666667</ele><time>2026-05-02T06:00:35.973Z</time></trkpt><trkpt lat="43.8962461" lon="11.2770415"><ele>326.33333333333337</ele><time>2026-05-02T06:00:36.963Z</time></trkpt><trkpt lat="43.8962708" lon="11.2772879"><ele>326.0</ele><time>2026-05-02T06:00:37.962Z</time></trkpt><trkpt lat="43.8963161" lon="11.2775146"><ele>324.6666666666667</ele><time>2026-05-02T06:00:39.032Z</time></trkpt><trkpt lat="43.8963797" lon="11.2777341"><ele>323.3333333333333</ele><time>2026-05-02T06:00:40.034Z</time></trkpt><trkpt lat="43.8964598" lon="11.2779444"><ele>322.0</ele><time>2026-05-02T06:00:40.959Z</time></trkpt><trkpt lat="43.8965589" lon="11.2781483"><ele>318.66666666666663</ele><time>2026-05-02T06:00:41.948Z</time></trkpt><trkpt lat="43.896668" lon="11.2783463"><ele>315.3333333333333</ele><time>2026-05-02T06:00:42.979Z</time></trkpt><trkpt lat="43.8967805" lon="11.2785343"><ele>312.0</ele><time>2026-05-02T06:00:43.956Z</time></trkpt><trkpt lat="43.8968876" lon="11.2787335"><ele>316.3333333333333</ele><time>2026-05-02T06:00:44.963Z</time></trkpt><trkpt lat="43.8969824" lon="11.2789402"><ele>320.66666666666663</ele><time>2026-05-02T06:00:45.957Z</time></trkpt><trkpt lat="43.8970656" lon="11.2791602"><ele>325.0</ele><time>2026-05-02T06:00:46.941Z</time></trkpt><trkpt lat="43.8971343" lon="11.2793977"><ele>325.0</ele><time>2026-05-02T06:00:47.95Z</time></trkpt><trkpt lat="43.8971865" lon="11.2796512"><ele>325.0</ele><time>2026-05-02T06:00:48.979Z</time></trkpt><trkpt lat="43.8972191" lon="11.2799183"><ele>325.0</ele><time>2026-05-02T06:00:49.951Z</time></trkpt><trkpt lat="43.8972385" lon="11.2801871"><ele>323.0</ele><time>2026-05-02T06:00:50.952Z</time></trkpt><trkpt lat="43.8972565" lon="11.2804583"><ele>321.0</ele><time>2026-05-02T06:00:51.953Z</time></trkpt><trkpt lat="43.8972686" lon="11.2807232"><ele>319.0</ele><time>2026-05-02T06:00:52.953Z</time></trkpt><trkpt lat="43.8972689" lon="11.2809969"><ele>319.0</ele><time>2026-05-02T06:00:53.954Z</time></trkpt><trkpt lat="43.897265" lon="11.2812622"><ele>319.0</ele><time>2026-05-02T06:00:54.958Z</time></trkpt><trkpt lat="43.8972495" lon="11.2815245"><ele>319.0</ele><time>2026-05-02T06:00:55.958Z</time></trkpt><trkpt lat="43.8972324" lon="11.2817543"><ele>319.0</ele><time>2026-05-02T06:00:56.965Z</time></trkpt><trkpt lat="43.8972153" lon="11.2819707"><ele>319.0</ele><time>2026-05-02T06:00:58.023Z</time></trkpt><trkpt lat="43.8971999" lon="11.2821713"><ele>319.0</ele><time>2026-05-02T06:00:59.027Z</time></trkpt><trkpt lat="43.8971888" lon="11.2823472"><ele>319.0</ele><time>2026-05-02T06:01:00.038Z</time></trkpt><trkpt lat="43.8971811" lon="11.2824938"><ele>318.0</ele><time>2026-05-02T06:01:00.948Z</time></trkpt><trkpt lat="43.8971725" lon="11.2826196"><ele>317.0</ele><time>2026-05-02T06:01:01.953Z</time></trkpt><trkpt lat="43.8971751" lon="11.2827133"><ele>316.0</ele><time>2026-05-02T06:01:02.94Z</time></trkpt><trkpt lat="43.8972093" lon="11.2828576"><ele>315.0</ele><time>2026-05-02T06:01:05.041Z</time></trkpt><trkpt lat="43.8972572" lon="11.2829307"><ele>314.0</ele><time>2026-05-02T06:01:05.962Z</time></trkpt><trkpt lat="43.8973198" lon="11.282998"><ele>313.0</ele><time>2026-05-02T06:01:06.965Z</time></trkpt><trkpt lat="43.8973898" lon="11.2830733"><ele>312.8</ele><time>2026-05-02T06:01:07.973Z</time></trkpt><trkpt lat="43.897467" lon="11.2831642"><ele>312.6</ele><time>2026-05-02T06:01:08.971Z</time></trkpt><trkpt lat="43.897553" lon="11.283266"><ele>312.4</ele><time>2026-05-02T06:01:09.967Z</time></trkpt><trkpt lat="43.8976426" lon="11.2833613"><ele>312.2</ele><time>2026-05-02T06:01:10.964Z</time></trkpt><trkpt lat="43.8977449" lon="11.2834517"><ele>312.0</ele><time>2026-05-02T06:01:11.953Z</time></trkpt><trkpt lat="43.8978562" lon="11.2835285"><ele>312.0</ele><time>2026-05-02T06:01:12.96Z</time></trkpt><trkpt lat="43.897981" lon="11.2835896"><ele>312.0</ele><time>2026-05-02T06:01:13.959Z</time></trkpt><trkpt lat="43.8981169" lon="11.2836188"><ele>312.0</ele><time>2026-05-02T06:01:14.961Z</time></trkpt><trkpt lat="43.8982536" lon="11.2836201"><ele>312.0</ele><time>2026-05-02T06:01:15.958Z</time></trkpt><trkpt lat="43.8983919" lon="11.2835942"><ele>309.0</ele><time>2026-05-02T06:01:16.957Z</time></trkpt><trkpt lat="43.8985347" lon="11.2835548"><ele>306.0</ele><time>2026-05-02T06:01:17.961Z</time></trkpt><trkpt lat="43.8986795" lon="11.2834952"><ele>303.0</ele><time>2026-05-02T06:01:18.965Z</time></trkpt><trkpt lat="43.8988203" lon="11.2834404"><ele>300.0</ele><time>2026-05-02T06:01:19.971Z</time></trkpt><trkpt lat="43.8989715" lon="11.2833847"><ele>300.0</ele><time>2026-05-02T06:01:20.96Z</time></trkpt><trkpt lat="43.8991202" lon="11.2833362"><ele>300.0</ele><time>2026-05-02T06:01:21.957Z</time></trkpt><trkpt lat="43.899269" lon="11.2832968"><ele>300.0</ele><time>2026-05-02T06:01:22.966Z</time></trkpt><trkpt lat="43.8994184" lon="11.2832585"><ele>297.6666666666667</ele><time>2026-05-02T06:01:23.964Z</time></trkpt><trkpt lat="43.8995718" lon="11.2832285"><ele>295.33333333333337</ele><time>2026-05-02T06:01:24.959Z</time></trkpt><trkpt lat="43.8997196" lon="11.2831974"><ele>293.0</ele><time>2026-05-02T06:01:25.956Z</time></trkpt><trkpt lat="43.8998671" lon="11.2831648"><ele>293.0</ele><time>2026-05-02T06:01:26.964Z</time></trkpt><trkpt lat="43.9000053" lon="11.2831305"><ele>293.0</ele><time>2026-05-02T06:01:27.955Z</time></trkpt><trkpt lat="43.9001504" lon="11.283074"><ele>293.0</ele><time>2026-05-02T06:01:28.966Z</time></trkpt><trkpt lat="43.9002915" lon="11.2829745"><ele>293.0</ele><time>2026-05-02T06:01:29.964Z</time></trkpt><trkpt lat="43.9004373" lon="11.2828702"><ele>295.33333333333337</ele><time>2026-05-02T06:01:30.968Z</time></trkpt><trkpt lat="43.9005773" lon="11.2827795"><ele>297.6666666666667</ele><time>2026-05-02T06:01:31.965Z</time></trkpt><trkpt lat="43.9007201" lon="11.282703"><ele>300.0</ele><time>2026-05-02T06:01:32.96Z</time></trkpt><trkpt lat="43.9008739" lon="11.2826583"><ele>297.0</ele><time>2026-05-02T06:01:33.957Z</time></trkpt><trkpt lat="43.9010332" lon="11.282649"><ele>294.0</ele><time>2026-05-02T06:01:34.959Z</time></trkpt><trkpt lat="43.9011951" lon="11.2826641"><ele>291.0</ele><time>2026-05-02T06:01:35.956Z</time></trkpt><trkpt lat="43.9013618" lon="11.282711"><ele>291.0</ele><time>2026-05-02T06:01:36.957Z</time></trkpt><trkpt lat="43.9015293" lon="11.2827806"><ele>291.0</ele><time>2026-05-02T06:01:37.957Z</time></trkpt><trkpt lat="43.9016995" lon="11.2828448"><ele>291.0</ele><time>2026-05-02T06:01:38.956Z</time></trkpt><trkpt lat="43.901865" lon="11.282912"><ele>292.0</ele><time>2026-05-02T06:01:39.962Z</time></trkpt><trkpt lat="43.9020324" lon="11.2829721"><ele>293.0</ele><time>2026-05-02T06:01:40.964Z</time></trkpt><trkpt lat="43.9021956" lon="11.2830319"><ele>294.0</ele><time>2026-05-02T06:01:41.973Z</time></trkpt><trkpt lat="43.9023573" lon="11.2830791"><ele>292.3333333333333</ele><time>2026-05-02T06:01:42.952Z</time></trkpt><trkpt lat="43.9025271" lon="11.2831261"><ele>290.66666666666663</ele><time>2026-05-02T06:01:43.954Z</time></trkpt><trkpt lat="43.9027036" lon="11.283151"><ele>289.0</ele><time>2026-05-02T06:01:44.96Z</time></trkpt><trkpt lat="43.9028861" lon="11.2831651"><ele>289.0</ele><time>2026-05-02T06:01:45.961Z</time></trkpt><trkpt lat="43.9030765" lon="11.283169"><ele>289.0</ele><time>2026-05-02T06:01:46.958Z</time></trkpt><trkpt lat="43.9032695" lon="11.2831698"><ele>289.0</ele><time>2026-05-02T06:01:47.962Z</time></trkpt><trkpt lat="43.9034602" lon="11.2831667"><ele>288.0</ele><time>2026-05-02T06:01:48.961Z</time></trkpt><trkpt lat="43.9036522" lon="11.2831643"><ele>287.0</ele><time>2026-05-02T06:01:49.966Z</time></trkpt><trkpt lat="43.9038484" lon="11.2831604"><ele>286.0</ele><time>2026-05-02T06:01:50.955Z</time></trkpt><trkpt lat="43.9040423" lon="11.2831564"><ele>286.0</ele><time>2026-05-02T06:01:51.969Z</time></trkpt><trkpt lat="43.9042266" lon="11.2831513"><ele>286.0</ele><time>2026-05-02T06:01:52.962Z</time></trkpt><trkpt lat="43.9044054" lon="11.2831456"><ele>286.0</ele><time>2026-05-02T06:01:53.968Z</time></trkpt><trkpt lat="43.9045839" lon="11.2831323"><ele>286.0</ele><time>2026-05-02T06:01:54.961Z</time></trkpt><trkpt lat="43.9047584" lon="11.2831011"><ele>286.0</ele><time>2026-05-02T06:01:55.952Z</time></trkpt><trkpt lat="43.9055827" lon="11.2827426"><ele>286.0</ele><time>2026-05-02T06:02:00.964Z</time></trkpt><trkpt lat="43.9057044" lon="11.2825711"><ele>286.0</ele><time>2026-05-02T06:02:01.963Z</time></trkpt><trkpt lat="43.905855" lon="11.2825041"><ele>286.0</ele><time>2026-05-02T06:02:02.964Z</time></trkpt><trkpt lat="43.9060221" lon="11.282484"><ele>285.3333333333333</ele><time>2026-05-02T06:02:03.956Z</time></trkpt><trkpt lat="43.9061763" lon="11.282459"><ele>284.6666666666667</ele><time>2026-05-02T06:02:04.953Z</time></trkpt><trkpt lat="43.9063478" lon="11.2824619"><ele>284.0</ele><time>2026-05-02T06:02:05.957Z</time></trkpt><trkpt lat="43.9065179" lon="11.2824572"><ele>284.0</ele><time>2026-05-02T06:02:06.964Z</time></trkpt><trkpt lat="43.9066941" lon="11.2824411"><ele>284.0</ele><time>2026-05-02T06:02:07.972Z</time></trkpt><trkpt lat="43.906876" lon="11.2824302"><ele>284.0</ele><time>2026-05-02T06:02:08.958Z</time></trkpt><trkpt lat="43.9070638" lon="11.2824243"><ele>283.6666666666667</ele><time>2026-05-02T06:02:09.968Z</time></trkpt><trkpt lat="43.9072508" lon="11.2824101"><ele>283.3333333333333</ele><time>2026-05-02T06:02:10.971Z</time></trkpt><trkpt lat="43.9074319" lon="11.2824032"><ele>283.0</ele><time>2026-05-02T06:02:11.955Z</time></trkpt><trkpt lat="43.9076172" lon="11.2823859"><ele>283.0</ele><time>2026-05-02T06:02:12.967Z</time></trkpt><trkpt lat="43.9078018" lon="11.2823732"><ele>283.0</ele><time>2026-05-02T06:02:13.973Z</time></trkpt><trkpt lat="43.9079877" lon="11.2823584"><ele>283.0</ele><time>2026-05-02T06:02:14.974Z</time></trkpt><trkpt lat="43.9081656" lon="11.2823379"><ele>283.0</ele><time>2026-05-02T06:02:15.97Z</time></trkpt><trkpt lat="43.9083504" lon="11.2823232"><ele>283.0</ele><time>2026-05-02T06:02:16.973Z</time></trkpt><trkpt lat="43.9085363" lon="11.282306"><ele>283.0</ele><time>2026-05-02T06:02:17.965Z</time></trkpt><trkpt lat="43.9087189" lon="11.2822882"><ele>282.66666666666663</ele><time>2026-05-02T06:02:18.972Z</time></trkpt><trkpt lat="43.9089039" lon="11.2822761"><ele>282.3333333333333</ele><time>2026-05-02T06:02:19.962Z</time></trkpt><trkpt lat="43.9090839" lon="11.2822538"><ele>282.0</ele><time>2026-05-02T06:02:20.969Z</time></trkpt><trkpt lat="43.9092553" lon="11.2822277"><ele>280.3333333333333</ele><time>2026-05-02T06:02:21.953Z</time></trkpt><trkpt lat="43.9094222" lon="11.2821828"><ele>278.66666666666663</ele><time>2026-05-02T06:02:22.955Z</time></trkpt><trkpt lat="43.9095893" lon="11.2821307"><ele>277.0</ele><time>2026-05-02T06:02:23.973Z</time></trkpt><trkpt lat="43.9097579" lon="11.2820714"><ele>277.0</ele><time>2026-05-02T06:02:24.974Z</time></trkpt><trkpt lat="43.9099202" lon="11.2820116"><ele>277.0</ele><time>2026-05-02T06:02:25.97Z</time></trkpt><trkpt lat="43.910079" lon="11.2819579"><ele>277.0</ele><time>2026-05-02T06:02:26.969Z</time></trkpt><trkpt lat="43.9102419" lon="11.2819005"><ele>276.66666666666663</ele><time>2026-05-02T06:02:27.966Z</time></trkpt><trkpt lat="43.9103957" lon="11.2818617"><ele>276.3333333333333</ele><time>2026-05-02T06:02:29.043Z</time></trkpt><trkpt lat="43.9105385" lon="11.2818377"><ele>276.0</ele><time>2026-05-02T06:02:29.97Z</time></trkpt><trkpt lat="43.9106881" lon="11.2818325"><ele>276.0</ele><time>2026-05-02T06:02:30.983Z</time></trkpt><trkpt lat="43.9108424" lon="11.2818627"><ele>276.0</ele><time>2026-05-02T06:02:31.974Z</time></trkpt><trkpt lat="43.91099" lon="11.2819148"><ele>276.0</ele><time>2026-05-02T06:02:32.975Z</time></trkpt><trkpt lat="43.9111386" lon="11.2819914"><ele>275.3333333333333</ele><time>2026-05-02T06:02:33.978Z</time></trkpt><trkpt lat="43.911287" lon="11.2820857"><ele>274.66666666666663</ele><time>2026-05-02T06:02:34.967Z</time></trkpt><trkpt lat="43.9114259" lon="11.2822096"><ele>274.0</ele><time>2026-05-02T06:02:35.966Z</time></trkpt><trkpt lat="43.9115473" lon="11.2823532"><ele>275.5</ele><time>2026-05-02T06:02:36.964Z</time></trkpt><trkpt lat="43.9116514" lon="11.2825129"><ele>277.0</ele><time>2026-05-02T06:02:38.076Z</time></trkpt><trkpt lat="43.9118514" lon="11.2828737"><ele>277.0</ele><time>2026-05-02T06:02:39.96Z</time></trkpt><trkpt lat="43.9119562" lon="11.2830379"><ele>277.0</ele><time>2026-05-02T06:02:40.98Z</time></trkpt><trkpt lat="43.9120791" lon="11.2831903"><ele>277.0</ele><time>2026-05-02T06:02:41.968Z</time></trkpt><trkpt lat="43.9122115" lon="11.2833236"><ele>276.3333333333333</ele><time>2026-05-02T06:02:42.966Z</time></trkpt><trkpt lat="43.9123525" lon="11.2834271"><ele>275.6666666666667</ele><time>2026-05-02T06:02:44.04Z</time></trkpt><trkpt lat="43.9124941" lon="11.2835248"><ele>275.0</ele><time>2026-05-02T06:02:45.031Z</time></trkpt><trkpt lat="43.9126433" lon="11.2836141"><ele>275.0</ele><time>2026-05-02T06:02:45.958Z</time></trkpt><trkpt lat="43.9127932" lon="11.2837015"><ele>275.0</ele><time>2026-05-02T06:02:46.962Z</time></trkpt><trkpt lat="43.9129498" lon="11.2837947"><ele>275.0</ele><time>2026-05-02T06:02:47.986Z</time></trkpt><trkpt lat="43.9131093" lon="11.2838903"><ele>276.33333333333337</ele><time>2026-05-02T06:02:49.031Z</time></trkpt><trkpt lat="43.9132682" lon="11.2839853"><ele>277.6666666666667</ele><time>2026-05-02T06:02:49.946Z</time></trkpt><trkpt lat="43.9134341" lon="11.284068"><ele>279.0</ele><time>2026-05-02T06:02:50.966Z</time></trkpt><trkpt lat="43.9136061" lon="11.2841349"><ele>279.0</ele><time>2026-05-02T06:02:51.958Z</time></trkpt><trkpt lat="43.9137807" lon="11.284174"><ele>279.0</ele><time>2026-05-02T06:02:52.975Z</time></trkpt><trkpt lat="43.9139633" lon="11.2841819"><ele>279.0</ele><time>2026-05-02T06:02:53.974Z</time></trkpt><trkpt lat="43.9141383" lon="11.2841754"><ele>277.6666666666667</ele><time>2026-05-02T06:02:54.937Z</time></trkpt><trkpt lat="43.9143017" lon="11.2841436"><ele>276.33333333333337</ele><time>2026-05-02T06:02:55.947Z</time></trkpt><trkpt lat="43.9144693" lon="11.284084"><ele>275.0</ele><time>2026-05-02T06:02:56.956Z</time></trkpt><trkpt lat="43.9146287" lon="11.2840079"><ele>273.0</ele><time>2026-05-02T06:02:57.953Z</time></trkpt><trkpt lat="43.914783" lon="11.2839277"><ele>271.0</ele><time>2026-05-02T06:02:58.959Z</time></trkpt><trkpt lat="43.9149272" lon="11.2838238"><ele>269.0</ele><time>2026-05-02T06:03:00.031Z</time></trkpt><trkpt lat="43.9150751" lon="11.2837201"><ele>269.0</ele><time>2026-05-02T06:03:00.963Z</time></trkpt><trkpt lat="43.9152127" lon="11.2836099"><ele>269.0</ele><time>2026-05-02T06:03:01.964Z</time></trkpt><trkpt lat="43.9153548" lon="11.2834979"><ele>269.0</ele><time>2026-05-02T06:03:02.946Z</time></trkpt><trkpt lat="43.9155044" lon="11.2833907"><ele>269.0</ele><time>2026-05-02T06:03:04.037Z</time></trkpt><trkpt lat="43.9156541" lon="11.2832806"><ele>269.0</ele><time>2026-05-02T06:03:05.004Z</time></trkpt><trkpt lat="43.9158034" lon="11.2831798"><ele>269.0</ele><time>2026-05-02T06:03:05.952Z</time></trkpt><trkpt lat="43.9159497" lon="11.283092"><ele>278.0</ele><time>2026-05-02T06:03:06.961Z</time></trkpt><trkpt lat="43.9160975" lon="11.2830264"><ele>287.0</ele><time>2026-05-02T06:03:07.972Z</time></trkpt><trkpt lat="43.9162496" lon="11.2829905"><ele>296.0</ele><time>2026-05-02T06:03:09.001Z</time></trkpt><trkpt lat="43.9164105" lon="11.2829675"><ele>296.0</ele><time>2026-05-02T06:03:09.959Z</time></trkpt><trkpt lat="43.9165738" lon="11.2829811"><ele>296.0</ele><time>2026-05-02T06:03:10.954Z</time></trkpt><trkpt lat="43.9167383" lon="11.2830117"><ele>296.0</ele><time>2026-05-02T06:03:11.996Z</time></trkpt><trkpt lat="43.9168968" lon="11.2830617"><ele>291.6666666666667</ele><time>2026-05-02T06:03:12.955Z</time></trkpt><trkpt lat="43.9170561" lon="11.2831325"><ele>287.3333333333333</ele><time>2026-05-02T06:03:13.952Z</time></trkpt><trkpt lat="43.9172168" lon="11.2832187"><ele>283.0</ele><time>2026-05-02T06:03:14.953Z</time></trkpt><trkpt lat="43.9173746" lon="11.2833248"><ele>283.0</ele><time>2026-05-02T06:03:15.957Z</time></trkpt><trkpt lat="43.9175224" lon="11.2834483"><ele>283.0</ele><time>2026-05-02T06:03:16.951Z</time></trkpt><trkpt lat="43.9176561" lon="11.283598"><ele>283.0</ele><time>2026-05-02T06:03:17.954Z</time></trkpt><trkpt lat="43.917783" lon="11.2837444"><ele>281.0</ele><time>2026-05-02T06:03:19.01Z</time></trkpt><trkpt lat="43.9179096" lon="11.2839001"><ele>279.0</ele><time>2026-05-02T06:03:19.949Z</time></trkpt><trkpt lat="43.9180296" lon="11.2840679"><ele>277.0</ele><time>2026-05-02T06:03:20.952Z</time></trkpt><trkpt lat="43.9181448" lon="11.2842408"><ele>277.0</ele><time>2026-05-02T06:03:21.948Z</time></trkpt><trkpt lat="43.9182599" lon="11.2844093"><ele>277.0</ele><time>2026-05-02T06:03:22.953Z</time></trkpt><trkpt lat="43.9183774" lon="11.2845647"><ele>277.0</ele><time>2026-05-02T06:03:23.949Z</time></trkpt><trkpt lat="43.9184998" lon="11.2847063"><ele>273.66666666666663</ele><time>2026-05-02T06:03:24.949Z</time></trkpt><trkpt lat="43.9186259" lon="11.2848161"><ele>270.3333333333333</ele><time>2026-05-02T06:03:25.946Z</time></trkpt><trkpt lat="43.9187678" lon="11.2848948"><ele>267.0</ele><time>2026-05-02T06:03:26.96Z</time></trkpt><trkpt lat="43.9189208" lon="11.2849492"><ele>267.0</ele><time>2026-05-02T06:03:27.995Z</time></trkpt><trkpt lat="43.919077" lon="11.2849922"><ele>267.0</ele><time>2026-05-02T06:03:28.961Z</time></trkpt><trkpt lat="43.9192452" lon="11.2850113"><ele>267.0</ele><time>2026-05-02T06:03:29.953Z</time></trkpt><trkpt lat="43.919415" lon="11.2849982"><ele>267.0</ele><time>2026-05-02T06:03:30.987Z</time></trkpt><trkpt lat="43.9195827" lon="11.2849779"><ele>267.0</ele><time>2026-05-02T06:03:31.961Z</time></trkpt><trkpt lat="43.9197498" lon="11.2849656"><ele>267.0</ele><time>2026-05-02T06:03:32.949Z</time></trkpt><trkpt lat="43.9199214" lon="11.2849745"><ele>268.0</ele><time>2026-05-02T06:03:33.954Z</time></trkpt><trkpt lat="43.9200887" lon="11.2850131"><ele>269.0</ele><time>2026-05-02T06:03:35.016Z</time></trkpt><trkpt lat="43.9202553" lon="11.2850783"><ele>270.0</ele><time>2026-05-02T06:03:35.949Z</time></trkpt><trkpt lat="43.9204141" lon="11.2851635"><ele>270.0</ele><time>2026-05-02T06:03:37.054Z</time></trkpt><trkpt lat="43.9205695" lon="11.2852628"><ele>270.0</ele><time>2026-05-02T06:03:37.959Z</time></trkpt><trkpt lat="43.9207168" lon="11.2853661"><ele>270.0</ele><time>2026-05-02T06:03:39.031Z</time></trkpt><trkpt lat="43.9208575" lon="11.2854875"><ele>270.0</ele><time>2026-05-02T06:03:39.979Z</time></trkpt><trkpt lat="43.9209873" lon="11.2856292"><ele>270.0</ele><time>2026-05-02T06:03:40.983Z</time></trkpt><trkpt lat="43.9211118" lon="11.2857968"><ele>270.0</ele><time>2026-05-02T06:03:41.979Z</time></trkpt><trkpt lat="43.9212344" lon="11.285974"><ele>270.0</ele><time>2026-05-02T06:03:42.979Z</time></trkpt><trkpt lat="43.9213507" lon="11.2861556"><ele>270.0</ele><time>2026-05-02T06:03:44.029Z</time></trkpt><trkpt lat="43.9214666" lon="11.2863439"><ele>270.0</ele><time>2026-05-02T06:03:45.04Z</time></trkpt><trkpt lat="43.9215874" lon="11.2865333"><ele>267.3333333333333</ele><time>2026-05-02T06:03:45.953Z</time></trkpt><trkpt lat="43.9217034" lon="11.2867257"><ele>264.66666666666663</ele><time>2026-05-02T06:03:46.954Z</time></trkpt><trkpt lat="43.9218194" lon="11.286915"><ele>262.0</ele><time>2026-05-02T06:03:47.951Z</time></trkpt><trkpt lat="43.9219365" lon="11.2871032"><ele>265.3333333333333</ele><time>2026-05-02T06:03:49.037Z</time></trkpt><trkpt lat="43.9220548" lon="11.2872895"><ele>268.6666666666667</ele><time>2026-05-02T06:03:49.964Z</time></trkpt><trkpt lat="43.9221733" lon="11.2874778"><ele>272.0</ele><time>2026-05-02T06:03:50.953Z</time></trkpt><trkpt lat="43.9222883" lon="11.2876616"><ele>272.0</ele><time>2026-05-02T06:03:51.956Z</time></trkpt><trkpt lat="43.9224003" lon="11.2878505"><ele>272.0</ele><time>2026-05-02T06:03:52.983Z</time></trkpt><trkpt lat="43.9225103" lon="11.2880262"><ele>272.0</ele><time>2026-05-02T06:03:53.962Z</time></trkpt><trkpt lat="43.9226183" lon="11.2881828"><ele>273.33333333333337</ele><time>2026-05-02T06:03:54.956Z</time></trkpt><trkpt lat="43.9227433" lon="11.2883183"><ele>274.6666666666667</ele><time>2026-05-02T06:03:55.967Z</time></trkpt><trkpt lat="43.9228946" lon="11.2884304"><ele>276.0</ele><time>2026-05-02T06:03:56.949Z</time></trkpt><trkpt lat="43.9230584" lon="11.2885121"><ele>276.0</ele><time>2026-05-02T06:03:57.989Z</time></trkpt><trkpt lat="43.9232248" lon="11.2885866"><ele>276.0</ele><time>2026-05-02T06:03:58.952Z</time></trkpt><trkpt lat="43.9233982" lon="11.2886438"><ele>276.0</ele><time>2026-05-02T06:04:00.033Z</time></trkpt><trkpt lat="43.9235752" lon="11.2886727"><ele>278.3333333333333</ele><time>2026-05-02T06:04:01.009Z</time></trkpt><trkpt lat="43.923756" lon="11.2886837"><ele>280.66666666666663</ele><time>2026-05-02T06:04:01.939Z</time></trkpt><trkpt lat="43.923938" lon="11.28868"><ele>283.0</ele><time>2026-05-02T06:04:02.953Z</time></trkpt><trkpt lat="43.9241175" lon="11.2886437"><ele>284.0</ele><time>2026-05-02T06:04:03.955Z</time></trkpt><trkpt lat="43.9242834" lon="11.2885909"><ele>285.0</ele><time>2026-05-02T06:04:04.954Z</time></trkpt><trkpt lat="43.9244402" lon="11.2886017"><ele>286.0</ele><time>2026-05-02T06:04:05.96Z</time></trkpt><trkpt lat="43.924611" lon="11.2886623"><ele>286.0</ele><time>2026-05-02T06:04:06.957Z</time></trkpt><trkpt lat="43.9247651" lon="11.2887816"><ele>286.0</ele><time>2026-05-02T06:04:08.038Z</time></trkpt><trkpt lat="43.9249252" lon="11.2888935"><ele>286.0</ele><time>2026-05-02T06:04:09.027Z</time></trkpt><trkpt lat="43.9250876" lon="11.2890099"><ele>277.0</ele><time>2026-05-02T06:04:10.03Z</time></trkpt><trkpt lat="43.9252448" lon="11.2891516"><ele>268.0</ele><time>2026-05-02T06:04:10.994Z</time></trkpt><trkpt lat="43.9253983" lon="11.2892838"><ele>259.0</ele><time>2026-05-02T06:04:11.968Z</time></trkpt><trkpt lat="43.9255458" lon="11.2894262"><ele>259.0</ele><time>2026-05-02T06:04:13.027Z</time></trkpt><trkpt lat="43.9256923" lon="11.2895694"><ele>259.0</ele><time>2026-05-02T06:04:14.021Z</time></trkpt><trkpt lat="43.9258389" lon="11.2897144"><ele>259.0</ele><time>2026-05-02T06:04:15.029Z</time></trkpt><trkpt lat="43.9259872" lon="11.289843"><ele>259.66666666666663</ele><time>2026-05-02T06:04:15.96Z</time></trkpt><trkpt lat="43.9261246" lon="11.2899668"><ele>260.3333333333333</ele><time>2026-05-02T06:04:16.959Z</time></trkpt><trkpt lat="43.9262552" lon="11.2900937"><ele>261.0</ele><time>2026-05-02T06:04:17.964Z</time></trkpt><trkpt lat="43.9263798" lon="11.2902169"><ele>261.0</ele><time>2026-05-02T06:04:18.971Z</time></trkpt><trkpt lat="43.9265066" lon="11.2903365"><ele>261.0</ele><time>2026-05-02T06:04:19.961Z</time></trkpt><trkpt lat="43.9266314" lon="11.290453"><ele>261.0</ele><time>2026-05-02T06:04:20.953Z</time></trkpt><trkpt lat="43.9267597" lon="11.2905611"><ele>258.3333333333333</ele><time>2026-05-02T06:04:21.96Z</time></trkpt><trkpt lat="43.9269006" lon="11.2906522"><ele>255.66666666666666</ele><time>2026-05-02T06:04:22.961Z</time></trkpt><trkpt lat="43.9270565" lon="11.2907008"><ele>253.0</ele><time>2026-05-02T06:04:23.961Z</time></trkpt><trkpt lat="43.9272228" lon="11.2907266"><ele>253.0</ele><time>2026-05-02T06:04:24.936Z</time></trkpt><trkpt lat="43.9273941" lon="11.2907173"><ele>253.0</ele><time>2026-05-02T06:04:25.953Z</time></trkpt><trkpt lat="43.92756" lon="11.2906712"><ele>253.0</ele><time>2026-05-02T06:04:26.955Z</time></trkpt><trkpt lat="43.9277324" lon="11.2906054"><ele>256.66666666666663</ele><time>2026-05-02T06:04:27.941Z</time></trkpt><trkpt lat="43.9279004" lon="11.2905325"><ele>260.3333333333333</ele><time>2026-05-02T06:04:28.953Z</time></trkpt><trkpt lat="43.9280719" lon="11.2904612"><ele>264.0</ele><time>2026-05-02T06:04:29.957Z</time></trkpt><trkpt lat="43.9282516" lon="11.2903874"><ele>267.3333333333333</ele><time>2026-05-02T06:04:30.958Z</time></trkpt><trkpt lat="43.9284257" lon="11.2903134"><ele>270.66666666666663</ele><time>2026-05-02T06:04:31.96Z</time></trkpt><trkpt lat="43.9285906" lon="11.2902303"><ele>274.0</ele><time>2026-05-02T06:04:33.033Z</time></trkpt><trkpt lat="43.9287479" lon="11.2901587"><ele>274.0</ele><time>2026-05-02T06:04:33.962Z</time></trkpt><trkpt lat="43.9289045" lon="11.2901077"><ele>274.0</ele><time>2026-05-02T06:04:34.983Z</time></trkpt><trkpt lat="43.9290639" lon="11.2901056"><ele>274.0</ele><time>2026-05-02T06:04:35.969Z</time></trkpt><trkpt lat="43.9292242" lon="11.2901462"><ele>276.0</ele><time>2026-05-02T06:04:36.961Z</time></trkpt><trkpt lat="43.929385" lon="11.2902238"><ele>278.0</ele><time>2026-05-02T06:04:37.975Z</time></trkpt><trkpt lat="43.9295414" lon="11.29031"><ele>280.0</ele><time>2026-05-02T06:04:38.985Z</time></trkpt><trkpt lat="43.9296932" lon="11.2904023"><ele>280.0</ele><time>2026-05-02T06:04:40.041Z</time></trkpt><trkpt lat="43.9298486" lon="11.2904894"><ele>280.0</ele><time>2026-05-02T06:04:40.98Z</time></trkpt><trkpt lat="43.9300061" lon="11.2905765"><ele>280.0</ele><time>2026-05-02T06:04:41.97Z</time></trkpt><trkpt lat="43.9301717" lon="11.2906737"><ele>275.3333333333333</ele><time>2026-05-02T06:04:42.988Z</time></trkpt><trkpt lat="43.9303266" lon="11.2907826"><ele>270.6666666666667</ele><time>2026-05-02T06:04:43.973Z</time></trkpt><trkpt lat="43.9304741" lon="11.2909049"><ele>266.0</ele><time>2026-05-02T06:04:44.986Z</time></trkpt><trkpt lat="43.9306246" lon="11.2910448"><ele>266.0</ele><time>2026-05-02T06:04:45.972Z</time></trkpt><trkpt lat="43.9307627" lon="11.2912018"><ele>266.0</ele><time>2026-05-02T06:04:46.975Z</time></trkpt><trkpt lat="43.930909" lon="11.2913613"><ele>266.0</ele><time>2026-05-02T06:04:47.976Z</time></trkpt><trkpt lat="43.9310497" lon="11.2915429"><ele>266.6666666666667</ele><time>2026-05-02T06:04:49.015Z</time></trkpt><trkpt lat="43.9311677" lon="11.2917304"><ele>267.3333333333333</ele><time>2026-05-02T06:04:49.979Z</time></trkpt><trkpt lat="43.9312905" lon="11.2919131"><ele>268.0</ele><time>2026-05-02T06:04:51.018Z</time></trkpt><trkpt lat="43.9314122" lon="11.2920884"><ele>266.0</ele><time>2026-05-02T06:04:51.976Z</time></trkpt><trkpt lat="43.9315373" lon="11.2922613"><ele>264.0</ele><time>2026-05-02T06:04:52.984Z</time></trkpt><trkpt lat="43.9316668" lon="11.2924261"><ele>262.0</ele><time>2026-05-02T06:04:53.974Z</time></trkpt><trkpt lat="43.9317946" lon="11.2925923"><ele>266.66666666666663</ele><time>2026-05-02T06:04:55.037Z</time></trkpt><trkpt lat="43.9319171" lon="11.2927506"><ele>271.3333333333333</ele><time>2026-05-02T06:04:55.96Z</time></trkpt><trkpt lat="43.9320445" lon="11.2929161"><ele>276.0</ele><time>2026-05-02T06:04:57.038Z</time></trkpt><trkpt lat="43.9321765" lon="11.2930764"><ele>278.0</ele><time>2026-05-02T06:04:58.028Z</time></trkpt><trkpt lat="43.932308" lon="11.2932422"><ele>280.0</ele><time>2026-05-02T06:04:59.038Z</time></trkpt><trkpt lat="43.9324377" lon="11.2934111"><ele>282.0</ele><time>2026-05-02T06:05:00.035Z</time></trkpt><trkpt lat="43.9325685" lon="11.2935912"><ele>282.0</ele><time>2026-05-02T06:05:00.965Z</time></trkpt><trkpt lat="43.9326996" lon="11.2937645"><ele>282.0</ele><time>2026-05-02T06:05:02.041Z</time></trkpt><trkpt lat="43.9328318" lon="11.293936"><ele>282.0</ele><time>2026-05-02T06:05:03.035Z</time></trkpt><trkpt lat="43.9329611" lon="11.2941026"><ele>277.6666666666667</ele><time>2026-05-02T06:05:03.967Z</time></trkpt><trkpt lat="43.9330825" lon="11.294276"><ele>273.33333333333337</ele><time>2026-05-02T06:05:05.006Z</time></trkpt><trkpt lat="43.9331965" lon="11.2944628"><ele>269.0</ele><time>2026-05-02T06:05:05.963Z</time></trkpt><trkpt lat="43.9333083" lon="11.294648"><ele>269.33333333333337</ele><time>2026-05-02T06:05:06.962Z</time></trkpt><trkpt lat="43.9334134" lon="11.294833"><ele>269.6666666666667</ele><time>2026-05-02T06:05:07.983Z</time></trkpt><trkpt lat="43.9335155" lon="11.295006"><ele>270.0</ele><time>2026-05-02T06:05:08.975Z</time></trkpt><trkpt lat="43.9336071" lon="11.2951641"><ele>270.0</ele><time>2026-05-02T06:05:09.963Z</time></trkpt><trkpt lat="43.9336958" lon="11.2953037"><ele>270.0</ele><time>2026-05-02T06:05:10.961Z</time></trkpt><trkpt lat="43.9337736" lon="11.2954342"><ele>270.0</ele><time>2026-05-02T06:05:11.959Z</time></trkpt><trkpt lat="43.9338389" lon="11.2955411"><ele>270.0</ele><time>2026-05-02T06:05:12.975Z</time></trkpt><trkpt lat="43.9339035" lon="11.2956269"><ele>270.0</ele><time>2026-05-02T06:05:13.959Z</time></trkpt><trkpt lat="43.9339542" lon="11.2956834"><ele>270.0</ele><time>2026-05-02T06:05:14.958Z</time></trkpt><trkpt lat="43.934035" lon="11.2956877"><ele>270.0</ele><time>2026-05-02T06:05:16.969Z</time></trkpt><trkpt lat="43.934081" lon="11.2955888"><ele>270.0</ele><time>2026-05-02T06:05:18.96Z</time></trkpt><trkpt lat="43.9340557" lon="11.2954763"><ele>270.0</ele><time>2026-05-02T06:05:20.969Z</time></trkpt><trkpt lat="43.9340271" lon="11.2953344"><ele>270.0</ele><time>2026-05-02T06:05:22.974Z</time></trkpt><trkpt lat="43.9341105" lon="11.2951805"><ele>270.0</ele><time>2026-05-02T06:05:24.967Z</time></trkpt><trkpt lat="43.934167" lon="11.2951009"><ele>270.0</ele><time>2026-05-02T06:05:25.964Z</time></trkpt><trkpt lat="43.9342258" lon="11.2950201"><ele>270.0</ele><time>2026-05-02T06:05:26.969Z</time></trkpt><trkpt lat="43.9342846" lon="11.294941"><ele>270.0</ele><time>2026-05-02T06:05:27.976Z</time></trkpt><trkpt lat="43.9343349" lon="11.2948577"><ele>270.0</ele><time>2026-05-02T06:05:29.037Z</time></trkpt><trkpt lat="43.9343723" lon="11.2947703"><ele>270.0</ele><time>2026-05-02T06:05:30.033Z</time></trkpt><trkpt lat="43.9344115" lon="11.2946779"><ele>273.0</ele><time>2026-05-02T06:05:30.958Z</time></trkpt><trkpt lat="43.9344404" lon="11.294576"><ele>276.0</ele><time>2026-05-02T06:05:31.966Z</time></trkpt><trkpt lat="43.9344651" lon="11.2944644"><ele>279.0</ele><time>2026-05-02T06:05:32.951Z</time></trkpt><trkpt lat="43.9344903" lon="11.2943514"><ele>282.0</ele><time>2026-05-02T06:05:34.036Z</time></trkpt><trkpt lat="43.9345209" lon="11.2942324"><ele>285.0</ele><time>2026-05-02T06:05:35.03Z</time></trkpt><trkpt lat="43.9345477" lon="11.2941148"><ele>288.0</ele><time>2026-05-02T06:05:35.97Z</time></trkpt><trkpt lat="43.9345789" lon="11.2939974"><ele>288.6666666666667</ele><time>2026-05-02T06:05:36.966Z</time></trkpt><trkpt lat="43.9346062" lon="11.293882"><ele>289.3333333333333</ele><time>2026-05-02T06:05:37.998Z</time></trkpt><trkpt lat="43.9346316" lon="11.293764"><ele>290.0</ele><time>2026-05-02T06:05:39.036Z</time></trkpt><trkpt lat="43.9346556" lon="11.2936469"><ele>290.66666666666663</ele><time>2026-05-02T06:05:40.031Z</time></trkpt><trkpt lat="43.9346832" lon="11.2935239"><ele>291.3333333333333</ele><time>2026-05-02T06:05:40.957Z</time></trkpt><trkpt lat="43.9347106" lon="11.2934061"><ele>292.0</ele><time>2026-05-02T06:05:41.961Z</time></trkpt><trkpt lat="43.9347303" lon="11.2933009"><ele>292.0</ele><time>2026-05-02T06:05:42.958Z</time></trkpt><trkpt lat="43.9347463" lon="11.2932154"><ele>292.0</ele><time>2026-05-02T06:05:44.031Z</time></trkpt><trkpt lat="43.9348127" lon="11.2930847"><ele>292.0</ele><time>2026-05-02T06:05:45.957Z</time></trkpt><trkpt lat="43.9348719" lon="11.293051"><ele>292.0</ele><time>2026-05-02T06:05:46.973Z</time></trkpt><trkpt lat="43.9349435" lon="11.2930323"><ele>292.0</ele><time>2026-05-02T06:05:48.039Z</time></trkpt><trkpt lat="43.9350123" lon="11.2930078"><ele>292.0</ele><time>2026-05-02T06:05:49.029Z</time></trkpt><trkpt lat="43.9350805" lon="11.2929698"><ele>295.16666666666663</ele><time>2026-05-02T06:05:50.039Z</time></trkpt><trkpt lat="43.9351576" lon="11.2929338"><ele>298.3333333333333</ele><time>2026-05-02T06:05:50.954Z</time></trkpt><trkpt lat="43.9352369" lon="11.2928931"><ele>301.5</ele><time>2026-05-02T06:05:52.033Z</time></trkpt><trkpt lat="43.9353162" lon="11.2928564"><ele>304.6666666666667</ele><time>2026-05-02T06:05:53.029Z</time></trkpt><trkpt lat="43.9353954" lon="11.2928194"><ele>307.83333333333337</ele><time>2026-05-02T06:05:54.034Z</time></trkpt><trkpt lat="43.9354822" lon="11.2927728"><ele>311.0</ele><time>2026-05-02T06:05:55.04Z</time></trkpt><trkpt lat="43.9355722" lon="11.2927233"><ele>311.0</ele><time>2026-05-02T06:05:55.957Z</time></trkpt><trkpt lat="43.935662" lon="11.2926745"><ele>311.0</ele><time>2026-05-02T06:05:56.953Z</time></trkpt><trkpt lat="43.9357498" lon="11.2926426"><ele>311.0</ele><time>2026-05-02T06:05:57.953Z</time></trkpt><trkpt lat="43.9358379" lon="11.2926237"><ele>311.0</ele><time>2026-05-02T06:05:58.952Z</time></trkpt><trkpt lat="43.9359174" lon="11.2926074"><ele>311.0</ele><time>2026-05-02T06:05:59.958Z</time></trkpt><trkpt lat="43.9359952" lon="11.2925933"><ele>311.0</ele><time>2026-05-02T06:06:00.955Z</time></trkpt><trkpt lat="43.9360591" lon="11.2925755"><ele>312.2</ele><time>2026-05-02T06:06:02.027Z</time></trkpt><trkpt lat="43.9361028" lon="11.2924379"><ele>313.40000000000003</ele><time>2026-05-02T06:06:04.032Z</time></trkpt><trkpt lat="43.9361024" lon="11.2922642"><ele>314.6</ele><time>2026-05-02T06:06:05.953Z</time></trkpt><trkpt lat="43.9361105" lon="11.2921772"><ele>315.8</ele><time>2026-05-02T06:06:06.973Z</time></trkpt><trkpt lat="43.9361928" lon="11.292071"><ele>317.0</ele><time>2026-05-02T06:06:08.967Z</time></trkpt><trkpt lat="43.936258" lon="11.2920325"><ele>319.5</ele><time>2026-05-02T06:06:09.964Z</time></trkpt><trkpt lat="43.9363193" lon="11.2920014"><ele>322.0</ele><time>2026-05-02T06:06:10.991Z</time></trkpt><trkpt lat="43.9363892" lon="11.2919689"><ele>324.5</ele><time>2026-05-02T06:06:12.033Z</time></trkpt><trkpt lat="43.9364646" lon="11.2919249"><ele>327.0</ele><time>2026-05-02T06:06:13.033Z</time></trkpt><trkpt lat="43.9365403" lon="11.2918861"><ele>329.5</ele><time>2026-05-02T06:06:13.96Z</time></trkpt><trkpt lat="43.9366216" lon="11.2918482"><ele>332.0</ele><time>2026-05-02T06:06:14.95Z</time></trkpt><trkpt lat="43.9366948" lon="11.291821"><ele>332.5</ele><time>2026-05-02T06:06:15.952Z</time></trkpt><trkpt lat="43.9367653" lon="11.2918279"><ele>333.0</ele><time>2026-05-02T06:06:16.947Z</time></trkpt><trkpt lat="43.9368328" lon="11.291866"><ele>333.5</ele><time>2026-05-02T06:06:17.964Z</time></trkpt><trkpt lat="43.9368931" lon="11.2919212"><ele>334.0</ele><time>2026-05-02T06:06:18.965Z</time></trkpt><trkpt lat="43.9369477" lon="11.2919711"><ele>334.5</ele><time>2026-05-02T06:06:20.028Z</time></trkpt><trkpt lat="43.9370338" lon="11.2920289"><ele>335.0</ele><time>2026-05-02T06:06:22.04Z</time></trkpt><trkpt lat="43.9370903" lon="11.2919096"><ele>335.0</ele><time>2026-05-02T06:06:24.031Z</time></trkpt><trkpt lat="43.937113" lon="11.2918164"><ele>335.0</ele><time>2026-05-02T06:06:25.032Z</time></trkpt><trkpt lat="43.9371426" lon="11.2916445"><ele>335.0</ele><time>2026-05-02T06:06:26.967Z</time></trkpt><trkpt lat="43.9371584" lon="11.2915472"><ele>335.0</ele><time>2026-05-02T06:06:27.971Z</time></trkpt><trkpt lat="43.9371811" lon="11.2914533"><ele>335.0</ele><time>2026-05-02T06:06:28.961Z</time></trkpt><trkpt lat="43.9371889" lon="11.2913592"><ele>335.0</ele><time>2026-05-02T06:06:29.957Z</time></trkpt><trkpt lat="43.9371777" lon="11.2912451"><ele>336.0</ele><time>2026-05-02T06:06:30.955Z</time></trkpt><trkpt lat="43.9371516" lon="11.2911356"><ele>337.0</ele><time>2026-05-02T06:06:31.955Z</time></trkpt><trkpt lat="43.9371215" lon="11.2910281"><ele>338.0</ele><time>2026-05-02T06:06:33.024Z</time></trkpt><trkpt lat="43.9370914" lon="11.2909224"><ele>339.0</ele><time>2026-05-02T06:06:34.029Z</time></trkpt><trkpt lat="43.9370596" lon="11.2908138"><ele>340.0</ele><time>2026-05-02T06:06:34.965Z</time></trkpt><trkpt lat="43.9370344" lon="11.2907153"><ele>341.0</ele><time>2026-05-02T06:06:35.969Z</time></trkpt><trkpt lat="43.9370107" lon="11.2906152"><ele>342.1666666666667</ele><time>2026-05-02T06:06:36.977Z</time></trkpt><trkpt lat="43.936981" lon="11.2905131"><ele>343.33333333333337</ele><time>2026-05-02T06:06:38.025Z</time></trkpt><trkpt lat="43.9369533" lon="11.2904167"><ele>344.5</ele><time>2026-05-02T06:06:39.029Z</time></trkpt><trkpt lat="43.9369245" lon="11.2903171"><ele>345.6666666666667</ele><time>2026-05-02T06:06:40.021Z</time></trkpt><trkpt lat="43.9368915" lon="11.2902157"><ele>346.8333333333333</ele><time>2026-05-02T06:06:40.973Z</time></trkpt><trkpt lat="43.9368591" lon="11.2901152"><ele>348.0</ele><time>2026-05-02T06:06:41.956Z</time></trkpt><trkpt lat="43.9368347" lon="11.2900139"><ele>348.0</ele><time>2026-05-02T06:06:42.974Z</time></trkpt><trkpt lat="43.9368169" lon="11.2899241"><ele>348.0</ele><time>2026-05-02T06:06:43.971Z</time></trkpt><trkpt lat="43.9368611" lon="11.289799"><ele>348.0</ele><time>2026-05-02T06:06:45.978Z</time></trkpt><trkpt lat="43.9369092" lon="11.2897412"><ele>348.0</ele><time>2026-05-02T06:06:46.951Z</time></trkpt><trkpt lat="43.9369702" lon="11.2897161"><ele>348.0</ele><time>2026-05-02T06:06:47.985Z</time></trkpt><trkpt lat="43.9370436" lon="11.2897062"><ele>348.0</ele><time>2026-05-02T06:06:48.972Z</time></trkpt><trkpt lat="43.9371224" lon="11.289707"><ele>348.0</ele><time>2026-05-02T06:06:49.972Z</time></trkpt><trkpt lat="43.9371955" lon="11.2897121"><ele>349.1666666666667</ele><time>2026-05-02T06:06:50.977Z</time></trkpt><trkpt lat="43.9372889" lon="11.2896968"><ele>350.3333333333333</ele><time>2026-05-02T06:06:52.037Z</time></trkpt><trkpt lat="43.9373722" lon="11.2896843"><ele>351.5</ele><time>2026-05-02T06:06:52.955Z</time></trkpt><trkpt lat="43.9374431" lon="11.2896557"><ele>352.66666666666663</ele><time>2026-05-02T06:06:53.955Z</time></trkpt><trkpt lat="43.9375217" lon="11.2895814"><ele>353.8333333333333</ele><time>2026-05-02T06:06:54.959Z</time></trkpt><trkpt lat="43.9375953" lon="11.2895096"><ele>355.0</ele><time>2026-05-02T06:06:55.96Z</time></trkpt><trkpt lat="43.9376613" lon="11.2894281"><ele>357.0</ele><time>2026-05-02T06:06:56.945Z</time></trkpt><trkpt lat="43.9377325" lon="11.2893606"><ele>359.0</ele><time>2026-05-02T06:06:57.951Z</time></trkpt><trkpt lat="43.9378005" lon="11.2893141"><ele>361.0</ele><time>2026-05-02T06:06:58.958Z</time></trkpt><trkpt lat="43.9378679" lon="11.2892714"><ele>363.0</ele><time>2026-05-02T06:06:59.965Z</time></trkpt><trkpt lat="43.9379968" lon="11.2892586"><ele>365.0</ele><time>2026-05-02T06:07:01.95Z</time></trkpt><trkpt lat="43.9380626" lon="11.2892907"><ele>367.0</ele><time>2026-05-02T06:07:02.955Z</time></trkpt><trkpt lat="43.9381268" lon="11.2893308"><ele>367.0</ele><time>2026-05-02T06:07:03.956Z</time></trkpt><trkpt lat="43.9381889" lon="11.2893696"><ele>367.0</ele><time>2026-05-02T06:07:04.951Z</time></trkpt><trkpt lat="43.9382493" lon="11.2894071"><ele>367.0</ele><time>2026-05-02T06:07:05.952Z</time></trkpt><trkpt lat="43.9383503" lon="11.2894695"><ele>367.0</ele><time>2026-05-02T06:07:07.957Z</time></trkpt><trkpt lat="43.9384077" lon="11.2895138"><ele>367.0</ele><time>2026-05-02T06:07:09.038Z</time></trkpt><trkpt lat="43.938476" lon="11.2895682"><ele>367.0</ele><time>2026-05-02T06:07:09.983Z</time></trkpt><trkpt lat="43.938537" lon="11.2896261"><ele>367.3333333333333</ele><time>2026-05-02T06:07:11.022Z</time></trkpt><trkpt lat="43.9385957" lon="11.2896985"><ele>367.66666666666663</ele><time>2026-05-02T06:07:11.982Z</time></trkpt><trkpt lat="43.938672" lon="11.2897747"><ele>368.0</ele><time>2026-05-02T06:07:13.036Z</time></trkpt><trkpt lat="43.9387504" lon="11.2898487"><ele>368.3333333333333</ele><time>2026-05-02T06:07:13.963Z</time></trkpt><trkpt lat="43.9388226" lon="11.2899122"><ele>368.6666666666667</ele><time>2026-05-02T06:07:14.947Z</time></trkpt><trkpt lat="43.9388928" lon="11.2899612"><ele>369.0</ele><time>2026-05-02T06:07:15.96Z</time></trkpt><trkpt lat="43.9389642" lon="11.2899814"><ele>369.0</ele><time>2026-05-02T06:07:16.965Z</time></trkpt><trkpt lat="43.939041" lon="11.2899632"><ele>369.0</ele><time>2026-05-02T06:07:18.031Z</time></trkpt><trkpt lat="43.939108" lon="11.2899106"><ele>369.0</ele><time>2026-05-02T06:07:19.036Z</time></trkpt><trkpt lat="43.9391649" lon="11.2898285"><ele>369.0</ele><time>2026-05-02T06:07:20.046Z</time></trkpt><trkpt lat="43.9392119" lon="11.2897378"><ele>369.0</ele><time>2026-05-02T06:07:20.955Z</time></trkpt><trkpt lat="43.9392642" lon="11.2896578"><ele>369.0</ele><time>2026-05-02T06:07:21.965Z</time></trkpt><trkpt lat="43.9393241" lon="11.2895771"><ele>371.8333333333333</ele><time>2026-05-02T06:07:22.978Z</time></trkpt><trkpt lat="43.939379" lon="11.2894992"><ele>374.66666666666663</ele><time>2026-05-02T06:07:24.03Z</time></trkpt><trkpt lat="43.93944" lon="11.2894224"><ele>377.5</ele><time>2026-05-02T06:07:25.033Z</time></trkpt><trkpt lat="43.9395105" lon="11.289357"><ele>380.3333333333333</ele><time>2026-05-02T06:07:25.948Z</time></trkpt><trkpt lat="43.9395854" lon="11.2892965"><ele>383.16666666666663</ele><time>2026-05-02T06:07:26.956Z</time></trkpt><trkpt lat="43.9396609" lon="11.2892464"><ele>386.0</ele><time>2026-05-02T06:07:27.971Z</time></trkpt><trkpt lat="43.9397436" lon="11.2892046"><ele>385.99999999999994</ele><time>2026-05-02T06:07:28.958Z</time></trkpt><trkpt lat="43.9398306" lon="11.2891764"><ele>386.0</ele><time>2026-05-02T06:07:29.952Z</time></trkpt><trkpt lat="43.9399165" lon="11.2891613"><ele>386.0</ele><time>2026-05-02T06:07:30.965Z</time></trkpt><trkpt lat="43.939999" lon="11.2891542"><ele>386.0</ele><time>2026-05-02T06:07:31.972Z</time></trkpt><trkpt lat="43.9400827" lon="11.2891629"><ele>385.99999999999994</ele><time>2026-05-02T06:07:33.03Z</time></trkpt><trkpt lat="43.9401701" lon="11.2891758"><ele>386.0</ele><time>2026-05-02T06:07:34.032Z</time></trkpt><trkpt lat="43.9402528" lon="11.2891961"><ele>387.8333333333333</ele><time>2026-05-02T06:07:34.95Z</time></trkpt><trkpt lat="43.9403379" lon="11.289228"><ele>389.66666666666663</ele><time>2026-05-02T06:07:35.963Z</time></trkpt><trkpt lat="43.9404248" lon="11.2892601"><ele>391.5</ele><time>2026-05-02T06:07:36.956Z</time></trkpt><trkpt lat="43.9405117" lon="11.2892874"><ele>393.33333333333337</ele><time>2026-05-02T06:07:37.954Z</time></trkpt><trkpt lat="43.9405955" lon="11.2893224"><ele>395.1666666666667</ele><time>2026-05-02T06:07:38.959Z</time></trkpt><trkpt lat="43.9406821" lon="11.2893505"><ele>397.0</ele><time>2026-05-02T06:07:39.952Z</time></trkpt><trkpt lat="43.9407692" lon="11.2893809"><ele>397.00000000000006</ele><time>2026-05-02T06:07:40.957Z</time></trkpt><trkpt lat="43.9408528" lon="11.2894111"><ele>397.0</ele><time>2026-05-02T06:07:42.028Z</time></trkpt><trkpt lat="43.9409376" lon="11.2894324"><ele>397.0</ele><time>2026-05-02T06:07:43.027Z</time></trkpt><trkpt lat="43.9410231" lon="11.2894544"><ele>397.0</ele><time>2026-05-02T06:07:44.033Z</time></trkpt><trkpt lat="43.9410926" lon="11.2894731"><ele>397.00000000000006</ele><time>2026-05-02T06:07:44.973Z</time></trkpt><trkpt lat="43.9411577" lon="11.2894822"><ele>397.0</ele><time>2026-05-02T06:07:45.955Z</time></trkpt><trkpt lat="43.9412215" lon="11.2894794"><ele>397.50000000000006</ele><time>2026-05-02T06:07:46.962Z</time></trkpt><trkpt lat="43.9412858" lon="11.2894749"><ele>398.0</ele><time>2026-05-02T06:07:47.992Z</time></trkpt><trkpt lat="43.9414091" lon="11.2894656"><ele>398.5</ele><time>2026-05-02T06:07:49.967Z</time></trkpt><trkpt lat="43.9415291" lon="11.289453"><ele>399.0</ele><time>2026-05-02T06:07:51.986Z</time></trkpt><trkpt lat="43.9415962" lon="11.28944"><ele>399.50000000000006</ele><time>2026-05-02T06:07:52.96Z</time></trkpt><trkpt lat="43.9416667" lon="11.2894295"><ele>400.0</ele><time>2026-05-02T06:07:53.961Z</time></trkpt><trkpt lat="43.9417294" lon="11.2894077"><ele>401.50000000000006</ele><time>2026-05-02T06:07:54.966Z</time></trkpt><trkpt lat="43.9418028" lon="11.2893879"><ele>403.0</ele><time>2026-05-02T06:07:55.959Z</time></trkpt><trkpt lat="43.9418886" lon="11.2893672"><ele>404.5</ele><time>2026-05-02T06:07:56.96Z</time></trkpt><trkpt lat="43.9419849" lon="11.2893609"><ele>406.0</ele><time>2026-05-02T06:07:57.968Z</time></trkpt><trkpt lat="43.9420631" lon="11.2893656"><ele>407.50000000000006</ele><time>2026-05-02T06:07:58.961Z</time></trkpt><trkpt lat="43.9421323" lon="11.2893835"><ele>409.0</ele><time>2026-05-02T06:07:59.964Z</time></trkpt><trkpt lat="43.9421945" lon="11.2894191"><ele>409.0</ele><time>2026-05-02T06:08:00.96Z</time></trkpt><trkpt lat="43.9422939" lon="11.2895036"><ele>409.0</ele><time>2026-05-02T06:08:02.974Z</time></trkpt><trkpt lat="43.9423555" lon="11.2896078"><ele>409.0</ele><time>2026-05-02T06:08:05.042Z</time></trkpt><trkpt lat="43.9424031" lon="11.2897137"><ele>409.0</ele><time>2026-05-02T06:08:07.034Z</time></trkpt><trkpt lat="43.9424804" lon="11.2898176"><ele>409.0</ele><time>2026-05-02T06:08:09.033Z</time></trkpt><trkpt lat="43.9425419" lon="11.2898531"><ele>408.83333333333337</ele><time>2026-05-02T06:08:09.957Z</time></trkpt><trkpt lat="43.9426181" lon="11.2898881"><ele>408.6666666666667</ele><time>2026-05-02T06:08:10.963Z</time></trkpt><trkpt lat="43.9426933" lon="11.2899347"><ele>408.5</ele><time>2026-05-02T06:08:11.967Z</time></trkpt><trkpt lat="43.942769" lon="11.2899963"><ele>408.33333333333337</ele><time>2026-05-02T06:08:12.967Z</time></trkpt><trkpt lat="43.9428424" lon="11.2900743"><ele>408.1666666666667</ele><time>2026-05-02T06:08:13.957Z</time></trkpt><trkpt lat="43.9428959" lon="11.2901568"><ele>408.0</ele><time>2026-05-02T06:08:14.96Z</time></trkpt><trkpt lat="43.9429373" lon="11.2902612"><ele>408.0</ele><time>2026-05-02T06:08:15.957Z</time></trkpt><trkpt lat="43.9429691" lon="11.2903748"><ele>408.0</ele><time>2026-05-02T06:08:17.026Z</time></trkpt><trkpt lat="43.943012" lon="11.2904992"><ele>408.0</ele><time>2026-05-02T06:08:17.964Z</time></trkpt><trkpt lat="43.9430702" lon="11.2906133"><ele>408.0</ele><time>2026-05-02T06:08:18.967Z</time></trkpt><trkpt lat="43.9431267" lon="11.2907169"><ele>408.0</ele><time>2026-05-02T06:08:19.964Z</time></trkpt><trkpt lat="43.9431778" lon="11.2908049"><ele>406.6666666666667</ele><time>2026-05-02T06:08:20.96Z</time></trkpt><trkpt lat="43.9432195" lon="11.2908735"><ele>405.33333333333337</ele><time>2026-05-02T06:08:21.966Z</time></trkpt><trkpt lat="43.9432853" lon="11.2909802"><ele>404.0</ele><time>2026-05-02T06:08:24.039Z</time></trkpt><trkpt lat="43.9433277" lon="11.2910505"><ele>402.6666666666667</ele><time>2026-05-02T06:08:28.047Z</time></trkpt><trkpt lat="43.9434061" lon="11.2910624"><ele>401.33333333333337</ele><time>2026-05-02T06:08:44.988Z</time></trkpt><trkpt lat="43.9434687" lon="11.2910302"><ele>400.0</ele><time>2026-05-02T06:08:48.036Z</time></trkpt><trkpt lat="43.9435411" lon="11.2909837"><ele>400.50000000000006</ele><time>2026-05-02T06:11:07.979Z</time></trkpt><trkpt lat="43.9436073" lon="11.290907"><ele>401.0</ele><time>2026-05-02T06:11:10.034Z</time></trkpt><trkpt lat="43.9436977" lon="11.2908096"><ele>401.5</ele><time>2026-05-02T06:11:11.952Z</time></trkpt><trkpt lat="43.9437542" lon="11.2907494"><ele>402.0</ele><time>2026-05-02T06:11:12.948Z</time></trkpt><trkpt lat="43.9438005" lon="11.2906735"><ele>402.50000000000006</ele><time>2026-05-02T06:11:13.959Z</time></trkpt><trkpt lat="43.9438354" lon="11.2905894"><ele>403.0</ele><time>2026-05-02T06:11:14.953Z</time></trkpt><trkpt lat="43.9438741" lon="11.2904255"><ele>403.0</ele><time>2026-05-02T06:11:16.971Z</time></trkpt><trkpt lat="43.9438785" lon="11.290333"><ele>403.0</ele><time>2026-05-02T06:11:17.948Z</time></trkpt><trkpt lat="43.94388" lon="11.2902317"><ele>403.0</ele><time>2026-05-02T06:11:18.958Z</time></trkpt><trkpt lat="43.9438702" lon="11.2901293"><ele>403.0</ele><time>2026-05-02T06:11:19.949Z</time></trkpt><trkpt lat="43.943856" lon="11.2900272"><ele>403.0</ele><time>2026-05-02T06:11:20.953Z</time></trkpt><trkpt lat="43.9438375" lon="11.2899219"><ele>403.0</ele><time>2026-05-02T06:11:21.953Z</time></trkpt><trkpt lat="43.9438154" lon="11.2898207"><ele>403.0</ele><time>2026-05-02T06:11:22.955Z</time></trkpt><trkpt lat="43.9437821" lon="11.2897264"><ele>404.1666666666667</ele><time>2026-05-02T06:11:23.954Z</time></trkpt><trkpt lat="43.9437448" lon="11.2896366"><ele>405.33333333333337</ele><time>2026-05-02T06:11:24.985Z</time></trkpt><trkpt lat="43.9437132" lon="11.2895515"><ele>406.5</ele><time>2026-05-02T06:11:25.958Z</time></trkpt><trkpt lat="43.943652" lon="11.2894218"><ele>407.66666666666663</ele><time>2026-05-02T06:11:27.94Z</time></trkpt><trkpt lat="43.943621" lon="11.289323"><ele>408.8333333333333</ele><time>2026-05-02T06:11:29.946Z</time></trkpt><trkpt lat="43.9436023" lon="11.2892103"><ele>410.0</ele><time>2026-05-02T06:11:31.966Z</time></trkpt><trkpt lat="43.9436142" lon="11.2890694"><ele>411.66666666666663</ele><time>2026-05-02T06:11:34.037Z</time></trkpt><trkpt lat="43.943644" lon="11.2889168"><ele>413.3333333333333</ele><time>2026-05-02T06:11:35.959Z</time></trkpt><trkpt lat="43.9436631" lon="11.2888329"><ele>415.0</ele><time>2026-05-02T06:11:36.964Z</time></trkpt><trkpt lat="43.9436792" lon="11.2887293"><ele>416.66666666666663</ele><time>2026-05-02T06:11:37.953Z</time></trkpt><trkpt lat="43.9436967" lon="11.2886257"><ele>418.3333333333333</ele><time>2026-05-02T06:11:38.976Z</time></trkpt><trkpt lat="43.9437101" lon="11.288519"><ele>420.0</ele><time>2026-05-02T06:11:39.974Z</time></trkpt><trkpt lat="43.9437246" lon="11.288411"><ele>420.0</ele><time>2026-05-02T06:11:40.964Z</time></trkpt><trkpt lat="43.9437377" lon="11.2883094"><ele>420.0</ele><time>2026-05-02T06:11:41.984Z</time></trkpt><trkpt lat="43.943747" lon="11.2882148"><ele>420.0</ele><time>2026-05-02T06:11:42.971Z</time></trkpt><trkpt lat="43.9437478" lon="11.2881197"><ele>420.0</ele><time>2026-05-02T06:11:43.966Z</time></trkpt><trkpt lat="43.943751" lon="11.2880238"><ele>420.0</ele><time>2026-05-02T06:11:44.968Z</time></trkpt><trkpt lat="43.9437556" lon="11.287927"><ele>420.0</ele><time>2026-05-02T06:11:45.971Z</time></trkpt><trkpt lat="43.943762" lon="11.2878322"><ele>420.0</ele><time>2026-05-02T06:11:46.967Z</time></trkpt><trkpt lat="43.9437647" lon="11.2877363"><ele>421.57142857142856</ele><time>2026-05-02T06:11:47.961Z</time></trkpt><trkpt lat="43.9437733" lon="11.2876433"><ele>423.1428571428571</ele><time>2026-05-02T06:11:48.967Z</time></trkpt><trkpt lat="43.943789" lon="11.2875476"><ele>424.7142857142857</ele><time>2026-05-02T06:11:49.966Z</time></trkpt><trkpt lat="43.9438021" lon="11.2874525"><ele>426.2857142857143</ele><time>2026-05-02T06:11:50.957Z</time></trkpt><trkpt lat="43.9438115" lon="11.2873582"><ele>427.85714285714283</ele><time>2026-05-02T06:11:51.953Z</time></trkpt><trkpt lat="43.943818" lon="11.2872673"><ele>429.42857142857144</ele><time>2026-05-02T06:11:52.963Z</time></trkpt><trkpt lat="43.94383" lon="11.2871737"><ele>431.0</ele><time>2026-05-02T06:11:53.967Z</time></trkpt><trkpt lat="43.943842" lon="11.2870801"><ele>432.20000000000005</ele><time>2026-05-02T06:11:54.962Z</time></trkpt><trkpt lat="43.9439056" lon="11.2869421"><ele>433.40000000000003</ele><time>2026-05-02T06:11:56.959Z</time></trkpt><trkpt lat="43.9439879" lon="11.2868284"><ele>434.6</ele><time>2026-05-02T06:11:58.962Z</time></trkpt><trkpt lat="43.9440958" lon="11.2867254"><ele>435.8</ele><time>2026-05-02T06:12:00.961Z</time></trkpt><trkpt lat="43.9441542" lon="11.286665"><ele>437.0</ele><time>2026-05-02T06:12:01.97Z</time></trkpt><trkpt lat="43.9442115" lon="11.2866097"><ele>436.7142857142857</ele><time>2026-05-02T06:12:02.963Z</time></trkpt><trkpt lat="43.9442671" lon="11.2865535"><ele>436.42857142857144</ele><time>2026-05-02T06:12:03.954Z</time></trkpt><trkpt lat="43.9443234" lon="11.2864976"><ele>436.14285714285717</ele><time>2026-05-02T06:12:04.964Z</time></trkpt><trkpt lat="43.9443781" lon="11.2864473"><ele>435.8571428571429</ele><time>2026-05-02T06:12:05.959Z</time></trkpt><trkpt lat="43.9444364" lon="11.2864003"><ele>435.57142857142856</ele><time>2026-05-02T06:12:06.969Z</time></trkpt><trkpt lat="43.9444931" lon="11.2863489"><ele>435.28571428571433</ele><time>2026-05-02T06:12:07.965Z</time></trkpt><trkpt lat="43.944553" lon="11.2863029"><ele>435.0</ele><time>2026-05-02T06:12:08.942Z</time></trkpt><trkpt lat="43.9446113" lon="11.2862549"><ele>436.1666666666667</ele><time>2026-05-02T06:12:09.952Z</time></trkpt><trkpt lat="43.944678" lon="11.2862041"><ele>437.33333333333337</ele><time>2026-05-02T06:12:10.964Z</time></trkpt><trkpt lat="43.9447457" lon="11.2861522"><ele>438.5</ele><time>2026-05-02T06:12:11.959Z</time></trkpt><trkpt lat="43.9448138" lon="11.286102"><ele>439.6666666666667</ele><time>2026-05-02T06:12:12.98Z</time></trkpt><trkpt lat="43.9448852" lon="11.286051"><ele>440.83333333333337</ele><time>2026-05-02T06:12:13.96Z</time></trkpt><trkpt lat="43.9449524" lon="11.2860049"><ele>442.0</ele><time>2026-05-02T06:12:14.973Z</time></trkpt><trkpt lat="43.9450607" lon="11.2859258"><ele>442.00000000000006</ele><time>2026-05-02T06:12:16.966Z</time></trkpt><trkpt lat="43.9451234" lon="11.2858859"><ele>442.0</ele><time>2026-05-02T06:12:17.961Z</time></trkpt><trkpt lat="43.9451834" lon="11.2858372"><ele>442.0</ele><time>2026-05-02T06:12:18.965Z</time></trkpt><trkpt lat="43.9452441" lon="11.2857914"><ele>442.0</ele><time>2026-05-02T06:12:19.948Z</time></trkpt><trkpt lat="43.9453124" lon="11.2857523"><ele>442.0</ele><time>2026-05-02T06:12:20.966Z</time></trkpt><trkpt lat="43.9453881" lon="11.2857247"><ele>442.00000000000006</ele><time>2026-05-02T06:12:21.949Z</time></trkpt><trkpt lat="43.9454664" lon="11.2856978"><ele>442.0</ele><time>2026-05-02T06:12:22.962Z</time></trkpt><trkpt lat="43.9455415" lon="11.2856798"><ele>442.00000000000006</ele><time>2026-05-02T06:12:23.975Z</time></trkpt><trkpt lat="43.9456189" lon="11.2856587"><ele>442.0</ele><time>2026-05-02T06:12:24.962Z</time></trkpt><trkpt lat="43.9456909" lon="11.2856539"><ele>442.0</ele><time>2026-05-02T06:12:25.961Z</time></trkpt><trkpt lat="43.9457566" lon="11.2856455"><ele>442.0</ele><time>2026-05-02T06:12:26.962Z</time></trkpt><trkpt lat="43.9458289" lon="11.2856441"><ele>442.0</ele><time>2026-05-02T06:12:27.962Z</time></trkpt><trkpt lat="43.9459043" lon="11.2856472"><ele>442.00000000000006</ele><time>2026-05-02T06:12:28.955Z</time></trkpt><trkpt lat="43.9459838" lon="11.2856515"><ele>442.0</ele><time>2026-05-02T06:12:29.955Z</time></trkpt><trkpt lat="43.9460605" lon="11.2856521"><ele>440.83333333333337</ele><time>2026-05-02T06:12:30.959Z</time></trkpt><trkpt lat="43.9461363" lon="11.2856542"><ele>439.6666666666667</ele><time>2026-05-02T06:12:31.967Z</time></trkpt><trkpt lat="43.9462163" lon="11.2856599"><ele>438.5</ele><time>2026-05-02T06:12:32.968Z</time></trkpt><trkpt lat="43.9462928" lon="11.2856603"><ele>437.33333333333337</ele><time>2026-05-02T06:12:33.967Z</time></trkpt><trkpt lat="43.9463628" lon="11.2856608"><ele>436.1666666666667</ele><time>2026-05-02T06:12:34.956Z</time></trkpt><trkpt lat="43.9464711" lon="11.2856481"><ele>435.0</ele><time>2026-05-02T06:12:36.947Z</time></trkpt><trkpt lat="43.9465498" lon="11.2856455"><ele>435.0</ele><time>2026-05-02T06:12:38.969Z</time></trkpt><trkpt lat="43.9466342" lon="11.2856215"><ele>435.0</ele><time>2026-05-02T06:12:41.969Z</time></trkpt><trkpt lat="43.9467266" lon="11.2855859"><ele>435.0</ele><time>2026-05-02T06:12:43.969Z</time></trkpt><trkpt lat="43.9467919" lon="11.2855638"><ele>435.0</ele><time>2026-05-02T06:12:44.971Z</time></trkpt><trkpt lat="43.9468624" lon="11.2855392"><ele>435.0</ele><time>2026-05-02T06:12:45.972Z</time></trkpt><trkpt lat="43.9469409" lon="11.2855116"><ele>435.0</ele><time>2026-05-02T06:12:46.97Z</time></trkpt><trkpt lat="43.947017" lon="11.2854827"><ele>434.5714285714286</ele><time>2026-05-02T06:12:47.96Z</time></trkpt><trkpt lat="43.9470942" lon="11.2854578"><ele>434.14285714285717</ele><time>2026-05-02T06:12:48.968Z</time></trkpt><trkpt lat="43.9471567" lon="11.28544"><ele>433.7142857142857</ele><time>2026-05-02T06:12:49.971Z</time></trkpt><trkpt lat="43.9472212" lon="11.2854149"><ele>433.28571428571433</ele><time>2026-05-02T06:12:50.967Z</time></trkpt><trkpt lat="43.9472871" lon="11.2853862"><ele>432.85714285714283</ele><time>2026-05-02T06:12:51.965Z</time></trkpt><trkpt lat="43.9473576" lon="11.2853591"><ele>432.42857142857144</ele><time>2026-05-02T06:12:52.959Z</time></trkpt><trkpt lat="43.9474297" lon="11.2853328"><ele>432.0</ele><time>2026-05-02T06:12:53.965Z</time></trkpt><trkpt lat="43.9474966" lon="11.2853024"><ele>430.8</ele><time>2026-05-02T06:12:54.97Z</time></trkpt><trkpt lat="43.9475605" lon="11.2852804"><ele>429.6</ele><time>2026-05-02T06:12:55.955Z</time></trkpt><trkpt lat="43.9476275" lon="11.2852604"><ele>428.40000000000003</ele><time>2026-05-02T06:12:56.964Z</time></trkpt><trkpt lat="43.947748" lon="11.2852185"><ele>427.20000000000005</ele><time>2026-05-02T06:12:58.958Z</time></trkpt><trkpt lat="43.9478754" lon="11.2851889"><ele>426.0</ele><time>2026-05-02T06:13:00.964Z</time></trkpt><trkpt lat="43.9479447" lon="11.2851818"><ele>425.99999999999994</ele><time>2026-05-02T06:13:01.957Z</time></trkpt><trkpt lat="43.9480143" lon="11.2851685"><ele>426.0</ele><time>2026-05-02T06:13:02.968Z</time></trkpt><trkpt lat="43.9480855" lon="11.2851528"><ele>426.0</ele><time>2026-05-02T06:13:03.974Z</time></trkpt><trkpt lat="43.9481554" lon="11.2851369"><ele>426.0</ele><time>2026-05-02T06:13:04.972Z</time></trkpt><trkpt lat="43.9482238" lon="11.2851234"><ele>426.0</ele><time>2026-05-02T06:13:05.965Z</time></trkpt><trkpt lat="43.9482994" lon="11.2851124"><ele>425.99999999999994</ele><time>2026-05-02T06:13:06.967Z</time></trkpt><trkpt lat="43.9483726" lon="11.2851109"><ele>426.0</ele><time>2026-05-02T06:13:07.96Z</time></trkpt><trkpt lat="43.9484545" lon="11.2851022"><ele>425.0</ele><time>2026-05-02T06:13:08.96Z</time></trkpt><trkpt lat="43.9485451" lon="11.2850762"><ele>424.0</ele><time>2026-05-02T06:13:09.957Z</time></trkpt><trkpt lat="43.9486331" lon="11.2850499"><ele>423.0</ele><time>2026-05-02T06:13:10.961Z</time></trkpt><trkpt lat="43.948725" lon="11.285027"><ele>422.0</ele><time>2026-05-02T06:13:11.969Z</time></trkpt><trkpt lat="43.9488163" lon="11.2849997"><ele>421.0</ele><time>2026-05-02T06:13:12.968Z</time></trkpt><trkpt lat="43.9489072" lon="11.2849857"><ele>421.0</ele><time>2026-05-02T06:13:13.954Z</time></trkpt><trkpt lat="43.9490012" lon="11.2849769"><ele>421.0</ele><time>2026-05-02T06:13:14.964Z</time></trkpt><trkpt lat="43.9490986" lon="11.2849716"><ele>421.0</ele><time>2026-05-02T06:13:15.962Z</time></trkpt><trkpt lat="43.9491958" lon="11.2849761"><ele>421.0</ele><time>2026-05-02T06:13:16.966Z</time></trkpt><trkpt lat="43.94929" lon="11.2849912"><ele>421.0</ele><time>2026-05-02T06:13:17.967Z</time></trkpt><trkpt lat="43.9493805" lon="11.2850046"><ele>421.8</ele><time>2026-05-02T06:13:18.972Z</time></trkpt><trkpt lat="43.9494718" lon="11.2850206"><ele>422.6</ele><time>2026-05-02T06:13:19.988Z</time></trkpt><trkpt lat="43.949568" lon="11.2850431"><ele>423.4</ele><time>2026-05-02T06:13:20.967Z</time></trkpt><trkpt lat="43.9496651" lon="11.2850627"><ele>424.2</ele><time>2026-05-02T06:13:21.954Z</time></trkpt><trkpt lat="43.9497704" lon="11.2850814"><ele>425.0</ele><time>2026-05-02T06:13:22.97Z</time></trkpt><trkpt lat="43.9498779" lon="11.2850892"><ele>425.0</ele><time>2026-05-02T06:13:23.969Z</time></trkpt><trkpt lat="43.9499785" lon="11.2850843"><ele>425.0</ele><time>2026-05-02T06:13:24.967Z</time></trkpt><trkpt lat="43.9500807" lon="11.2850897"><ele>425.0</ele><time>2026-05-02T06:13:25.954Z</time></trkpt><trkpt lat="43.9501839" lon="11.2851014"><ele>425.0</ele><time>2026-05-02T06:13:26.953Z</time></trkpt><trkpt lat="43.9502771" lon="11.285134"><ele>425.0</ele><time>2026-05-02T06:13:27.958Z</time></trkpt><trkpt lat="43.9503788" lon="11.2851774"><ele>428.2</ele><time>2026-05-02T06:13:28.959Z</time></trkpt><trkpt lat="43.9504791" lon="11.285231"><ele>431.4</ele><time>2026-05-02T06:13:29.96Z</time></trkpt><trkpt lat="43.9505771" lon="11.2852761"><ele>434.6</ele><time>2026-05-02T06:13:30.953Z</time></trkpt><trkpt lat="43.95067" lon="11.2853129"><ele>437.8</ele><time>2026-05-02T06:13:31.96Z</time></trkpt><trkpt lat="43.9507472" lon="11.2853402"><ele>441.0</ele><time>2026-05-02T06:13:32.961Z</time></trkpt><trkpt lat="43.9508192" lon="11.2853773"><ele>440.8</ele><time>2026-05-02T06:13:33.963Z</time></trkpt><trkpt lat="43.9508964" lon="11.2854113"><ele>440.6</ele><time>2026-05-02T06:13:34.966Z</time></trkpt><trkpt lat="43.9509839" lon="11.2854382"><ele>440.4</ele><time>2026-05-02T06:13:35.958Z</time></trkpt><trkpt lat="43.9510854" lon="11.2854551"><ele>440.2</ele><time>2026-05-02T06:13:36.963Z</time></trkpt><trkpt lat="43.9511886" lon="11.2854522"><ele>440.0</ele><time>2026-05-02T06:13:37.953Z</time></trkpt><trkpt lat="43.9513039" lon="11.2854651"><ele>440.0</ele><time>2026-05-02T06:13:38.965Z</time></trkpt><trkpt lat="43.9514192" lon="11.2854797"><ele>440.0</ele><time>2026-05-02T06:13:39.963Z</time></trkpt><trkpt lat="43.951533" lon="11.285498"><ele>440.0</ele><time>2026-05-02T06:13:40.965Z</time></trkpt><trkpt lat="43.9516418" lon="11.2855152"><ele>440.0</ele><time>2026-05-02T06:13:41.96Z</time></trkpt><trkpt lat="43.9517409" lon="11.2855161"><ele>440.0</ele><time>2026-05-02T06:13:42.961Z</time></trkpt><trkpt lat="43.9518391" lon="11.2855228"><ele>438.8333333333333</ele><time>2026-05-02T06:13:43.96Z</time></trkpt><trkpt lat="43.9519302" lon="11.285529"><ele>437.66666666666663</ele><time>2026-05-02T06:13:44.959Z</time></trkpt><trkpt lat="43.9520189" lon="11.2855245"><ele>436.5</ele><time>2026-05-02T06:13:45.957Z</time></trkpt><trkpt lat="43.9520987" lon="11.2855156"><ele>435.33333333333337</ele><time>2026-05-02T06:13:46.959Z</time></trkpt><trkpt lat="43.9521695" lon="11.2855049"><ele>434.1666666666667</ele><time>2026-05-02T06:13:47.955Z</time></trkpt><trkpt lat="43.9522702" lon="11.2854783"><ele>433.0</ele><time>2026-05-02T06:13:49.963Z</time></trkpt><trkpt lat="43.9523471" lon="11.2854454"><ele>433.00000000000006</ele><time>2026-05-02T06:13:52.973Z</time></trkpt><trkpt lat="43.9523974" lon="11.2853806"><ele>433.0</ele><time>2026-05-02T06:13:55.973Z</time></trkpt><trkpt lat="43.9524513" lon="11.2853016"><ele>433.0</ele><time>2026-05-02T06:13:57.967Z</time></trkpt><trkpt lat="43.9525351" lon="11.2851962"><ele>433.0</ele><time>2026-05-02T06:13:59.956Z</time></trkpt><trkpt lat="43.9525828" lon="11.2851131"><ele>433.00000000000006</ele><time>2026-05-02T06:14:00.962Z</time></trkpt><trkpt lat="43.9526469" lon="11.2850341"><ele>433.0</ele><time>2026-05-02T06:14:01.958Z</time></trkpt><trkpt lat="43.9527076" lon="11.2849404"><ele>431.00000000000006</ele><time>2026-05-02T06:14:02.958Z</time></trkpt><trkpt lat="43.9527671" lon="11.2848565"><ele>429.0</ele><time>2026-05-02T06:14:03.976Z</time></trkpt><trkpt lat="43.9528183" lon="11.2847683"><ele>427.0</ele><time>2026-05-02T06:14:04.963Z</time></trkpt><trkpt lat="43.9528729" lon="11.2846811"><ele>425.0</ele><time>2026-05-02T06:14:05.977Z</time></trkpt><trkpt lat="43.9529261" lon="11.2845912"><ele>423.00000000000006</ele><time>2026-05-02T06:14:06.961Z</time></trkpt><trkpt lat="43.9529856" lon="11.2845003"><ele>421.0</ele><time>2026-05-02T06:14:07.964Z</time></trkpt><trkpt lat="43.9530501" lon="11.2844038"><ele>420.50000000000006</ele><time>2026-05-02T06:14:08.967Z</time></trkpt><trkpt lat="43.9531084" lon="11.2843093"><ele>420.0</ele><time>2026-05-02T06:14:09.964Z</time></trkpt><trkpt lat="43.9531676" lon="11.2842185"><ele>419.5</ele><time>2026-05-02T06:14:10.946Z</time></trkpt><trkpt lat="43.9532315" lon="11.2841309"><ele>419.0</ele><time>2026-05-02T06:14:11.951Z</time></trkpt><trkpt lat="43.9532969" lon="11.2840476"><ele>418.50000000000006</ele><time>2026-05-02T06:14:12.955Z</time></trkpt><trkpt lat="43.9533546" lon="11.2839578"><ele>418.0</ele><time>2026-05-02T06:14:13.958Z</time></trkpt><trkpt lat="43.9534187" lon="11.283865"><ele>415.59999999999997</ele><time>2026-05-02T06:14:14.971Z</time></trkpt><trkpt lat="43.9534866" lon="11.2837644"><ele>413.2</ele><time>2026-05-02T06:14:15.961Z</time></trkpt><trkpt lat="43.9535515" lon="11.2836666"><ele>410.8</ele><time>2026-05-02T06:14:16.953Z</time></trkpt><trkpt lat="43.9536179" lon="11.2835744"><ele>408.4</ele><time>2026-05-02T06:14:17.96Z</time></trkpt><trkpt lat="43.9536741" lon="11.2834813"><ele>406.0</ele><time>2026-05-02T06:14:18.965Z</time></trkpt><trkpt lat="43.953727" lon="11.2834098"><ele>406.0</ele><time>2026-05-02T06:14:19.96Z</time></trkpt><trkpt lat="43.9538187" lon="11.2833336"><ele>406.0</ele><time>2026-05-02T06:14:21.956Z</time></trkpt><trkpt lat="43.9539314" lon="11.2833989"><ele>406.0</ele><time>2026-05-02T06:14:23.955Z</time></trkpt><trkpt lat="43.9540526" lon="11.2834873"><ele>406.0</ele><time>2026-05-02T06:14:25.964Z</time></trkpt><trkpt lat="43.9541257" lon="11.2835352"><ele>406.0</ele><time>2026-05-02T06:14:26.955Z</time></trkpt><trkpt lat="43.9541972" lon="11.2835884"><ele>404.00000000000006</ele><time>2026-05-02T06:14:27.971Z</time></trkpt><trkpt lat="43.9542592" lon="11.2836222"><ele>402.0</ele><time>2026-05-02T06:14:28.966Z</time></trkpt><trkpt lat="43.9543496" lon="11.283619"><ele>400.0</ele><time>2026-05-02T06:14:30.967Z</time></trkpt><trkpt lat="43.954386" lon="11.2835348"><ele>398.0</ele><time>2026-05-02T06:14:33.956Z</time></trkpt><trkpt lat="43.9544137" lon="11.2834055"><ele>396.00000000000006</ele><time>2026-05-02T06:14:35.957Z</time></trkpt><trkpt lat="43.9544376" lon="11.2833111"><ele>394.0</ele><time>2026-05-02T06:14:36.965Z</time></trkpt><trkpt lat="43.954459" lon="11.2832107"><ele>394.0</ele><time>2026-05-02T06:14:37.962Z</time></trkpt><trkpt lat="43.9544819" lon="11.2831166"><ele>394.0</ele><time>2026-05-02T06:14:38.962Z</time></trkpt><trkpt lat="43.9545091" lon="11.2830222"><ele>394.0</ele><time>2026-05-02T06:14:39.966Z</time></trkpt><trkpt lat="43.9545384" lon="11.2829337"><ele>394.0</ele><time>2026-05-02T06:14:40.963Z</time></trkpt><trkpt lat="43.9545716" lon="11.2828418"><ele>394.0</ele><time>2026-05-02T06:14:41.971Z</time></trkpt><trkpt lat="43.9546034" lon="11.282738"><ele>394.0</ele><time>2026-05-02T06:14:42.963Z</time></trkpt><trkpt lat="43.9546289" lon="11.2826364"><ele>394.0</ele><time>2026-05-02T06:14:43.958Z</time></trkpt><trkpt lat="43.9546557" lon="11.2825556"><ele>393.50000000000006</ele><time>2026-05-02T06:14:44.965Z</time></trkpt><trkpt lat="43.95471" lon="11.2823958"><ele>393.0</ele><time>2026-05-02T06:14:46.971Z</time></trkpt><trkpt lat="43.9547587" lon="11.2823133"><ele>392.5</ele><time>2026-05-02T06:14:47.97Z</time></trkpt><trkpt lat="43.9548154" lon="11.2822571"><ele>392.0</ele><time>2026-05-02T06:14:48.962Z</time></trkpt><trkpt lat="43.9548742" lon="11.282182"><ele>391.50000000000006</ele><time>2026-05-02T06:14:49.962Z</time></trkpt><trkpt lat="43.9549323" lon="11.2821024"><ele>391.0</ele><time>2026-05-02T06:14:50.966Z</time></trkpt><trkpt lat="43.954992" lon="11.2820319"><ele>388.8</ele><time>2026-05-02T06:14:51.966Z</time></trkpt><trkpt lat="43.9550842" lon="11.2819277"><ele>386.6</ele><time>2026-05-02T06:14:53.959Z</time></trkpt><trkpt lat="43.9551363" lon="11.2818627"><ele>384.4</ele><time>2026-05-02T06:14:54.959Z</time></trkpt><trkpt lat="43.9551943" lon="11.2817813"><ele>382.2</ele><time>2026-05-02T06:14:55.973Z</time></trkpt><trkpt lat="43.9552727" lon="11.2816841"><ele>380.0</ele><time>2026-05-02T06:14:56.968Z</time></trkpt><trkpt lat="43.9553554" lon="11.2815883"><ele>380.0</ele><time>2026-05-02T06:14:57.966Z</time></trkpt><trkpt lat="43.9554364" lon="11.281506"><ele>380.0</ele><time>2026-05-02T06:14:58.969Z</time></trkpt><trkpt lat="43.9555169" lon="11.2814149"><ele>380.0</ele><time>2026-05-02T06:14:59.964Z</time></trkpt><trkpt lat="43.9556056" lon="11.2813184"><ele>380.0</ele><time>2026-05-02T06:15:00.948Z</time></trkpt><trkpt lat="43.9556883" lon="11.2812279"><ele>380.0</ele><time>2026-05-02T06:15:01.972Z</time></trkpt><trkpt lat="43.9557623" lon="11.2811381"><ele>380.33333333333337</ele><time>2026-05-02T06:15:02.945Z</time></trkpt><trkpt lat="43.955834" lon="11.2810477"><ele>380.6666666666667</ele><time>2026-05-02T06:15:03.961Z</time></trkpt><trkpt lat="43.9559007" lon="11.2809575"><ele>381.0</ele><time>2026-05-02T06:15:04.972Z</time></trkpt><trkpt lat="43.9559552" lon="11.2808808"><ele>381.3333333333333</ele><time>2026-05-02T06:15:05.969Z</time></trkpt><trkpt lat="43.9560069" lon="11.2808201"><ele>381.66666666666663</ele><time>2026-05-02T06:15:06.967Z</time></trkpt><trkpt lat="43.9560572" lon="11.280763"><ele>382.0</ele><time>2026-05-02T06:15:07.968Z</time></trkpt><trkpt lat="43.9561122" lon="11.280695"><ele>381.16666666666663</ele><time>2026-05-02T06:15:08.979Z</time></trkpt><trkpt lat="43.9561654" lon="11.2806282"><ele>380.3333333333333</ele><time>2026-05-02T06:15:09.959Z</time></trkpt><trkpt lat="43.9562137" lon="11.2805446"><ele>379.5</ele><time>2026-05-02T06:15:10.959Z</time></trkpt><trkpt lat="43.9562782" lon="11.2804561"><ele>378.6666666666667</ele><time>2026-05-02T06:15:11.965Z</time></trkpt><trkpt lat="43.956345" lon="11.2803686"><ele>377.83333333333337</ele><time>2026-05-02T06:15:12.96Z</time></trkpt><trkpt lat="43.9564176" lon="11.280285"><ele>377.0</ele><time>2026-05-02T06:15:13.96Z</time></trkpt><trkpt lat="43.9564841" lon="11.2802033"><ele>377.0</ele><time>2026-05-02T06:15:14.966Z</time></trkpt><trkpt lat="43.956549" lon="11.2801364"><ele>377.0</ele><time>2026-05-02T06:15:15.964Z</time></trkpt><trkpt lat="43.9566178" lon="11.2800688"><ele>377.0</ele><time>2026-05-02T06:15:16.959Z</time></trkpt><trkpt lat="43.9566928" lon="11.280012"><ele>377.0</ele><time>2026-05-02T06:15:17.972Z</time></trkpt><trkpt lat="43.9567741" lon="11.2799572"><ele>377.0</ele><time>2026-05-02T06:15:18.961Z</time></trkpt><trkpt lat="43.9568492" lon="11.2799117"><ele>377.0</ele><time>2026-05-02T06:15:19.949Z</time></trkpt><trkpt lat="43.9569176" lon="11.279866"><ele>377.40000000000003</ele><time>2026-05-02T06:15:20.946Z</time></trkpt><trkpt lat="43.9569755" lon="11.2798288"><ele>377.8</ele><time>2026-05-02T06:15:21.962Z</time></trkpt><trkpt lat="43.9570373" lon="11.2798009"><ele>378.2</ele><time>2026-05-02T06:15:22.967Z</time></trkpt><trkpt lat="43.957129" lon="11.279761"><ele>378.6</ele><time>2026-05-02T06:15:23.967Z</time></trkpt><trkpt lat="43.9572352" lon="11.2797123"><ele>379.0</ele><time>2026-05-02T06:15:24.958Z</time></trkpt><trkpt lat="43.9573455" lon="11.2796663"><ele>379.0</ele><time>2026-05-02T06:15:25.956Z</time></trkpt><trkpt lat="43.957458" lon="11.2796118"><ele>379.0</ele><time>2026-05-02T06:15:26.96Z</time></trkpt><trkpt lat="43.957574" lon="11.2795501"><ele>379.0</ele><time>2026-05-02T06:15:27.957Z</time></trkpt><trkpt lat="43.9576841" lon="11.2794925"><ele>379.0</ele><time>2026-05-02T06:15:28.963Z</time></trkpt><trkpt lat="43.9577916" lon="11.2794322"><ele>380.0</ele><time>2026-05-02T06:15:29.958Z</time></trkpt><trkpt lat="43.9578839" lon="11.2793835"><ele>381.0</ele><time>2026-05-02T06:15:30.972Z</time></trkpt><trkpt lat="43.9579688" lon="11.2793352"><ele>382.0</ele><time>2026-05-02T06:15:31.969Z</time></trkpt><trkpt lat="43.9580513" lon="11.2792875"><ele>383.0</ele><time>2026-05-02T06:15:32.969Z</time></trkpt><trkpt lat="43.9581334" lon="11.2792431"><ele>384.0</ele><time>2026-05-02T06:15:33.962Z</time></trkpt><trkpt lat="43.9582161" lon="11.2791978"><ele>384.0</ele><time>2026-05-02T06:15:34.959Z</time></trkpt><trkpt lat="43.958302" lon="11.2791441"><ele>384.0</ele><time>2026-05-02T06:15:35.955Z</time></trkpt><trkpt lat="43.9583739" lon="11.2790908"><ele>384.0</ele><time>2026-05-02T06:15:36.97Z</time></trkpt><trkpt lat="43.9584364" lon="11.2790484"><ele>384.0</ele><time>2026-05-02T06:15:37.971Z</time></trkpt><trkpt lat="43.9585529" lon="11.2790525"><ele>384.0</ele><time>2026-05-02T06:15:39.977Z</time></trkpt><trkpt lat="43.9585979" lon="11.2791183"><ele>384.0</ele><time>2026-05-02T06:15:40.972Z</time></trkpt><trkpt lat="43.9586506" lon="11.2792027"><ele>385.79999999999995</ele><time>2026-05-02T06:15:41.963Z</time></trkpt><trkpt lat="43.9587029" lon="11.2793019"><ele>387.59999999999997</ele><time>2026-05-02T06:15:42.965Z</time></trkpt><trkpt lat="43.9587592" lon="11.2794121"><ele>389.4</ele><time>2026-05-02T06:15:43.964Z</time></trkpt><trkpt lat="43.9588195" lon="11.2795232"><ele>391.2</ele><time>2026-05-02T06:15:44.964Z</time></trkpt><trkpt lat="43.95889" lon="11.2796209"><ele>393.0</ele><time>2026-05-02T06:15:45.96Z</time></trkpt><trkpt lat="43.9589693" lon="11.2797128"><ele>391.75</ele><time>2026-05-02T06:15:46.96Z</time></trkpt><trkpt lat="43.9590543" lon="11.2798121"><ele>390.5</ele><time>2026-05-02T06:15:47.951Z</time></trkpt><trkpt lat="43.9591359" lon="11.2799295"><ele>389.25</ele><time>2026-05-02T06:15:48.955Z</time></trkpt><trkpt lat="43.9592078" lon="11.2800618"><ele>388.0</ele><time>2026-05-02T06:15:49.965Z</time></trkpt><trkpt lat="43.9592754" lon="11.2801821"><ele>390.4</ele><time>2026-05-02T06:15:50.955Z</time></trkpt><trkpt lat="43.9593478" lon="11.2802959"><ele>392.79999999999995</ele><time>2026-05-02T06:15:51.967Z</time></trkpt><trkpt lat="43.9594266" lon="11.2803948"><ele>395.2</ele><time>2026-05-02T06:15:52.959Z</time></trkpt><trkpt lat="43.9595024" lon="11.2804964"><ele>397.6</ele><time>2026-05-02T06:15:53.97Z</time></trkpt><trkpt lat="43.9595809" lon="11.2806174"><ele>400.0</ele><time>2026-05-02T06:15:54.965Z</time></trkpt><trkpt lat="43.9596576" lon="11.2807434"><ele>400.0</ele><time>2026-05-02T06:15:55.966Z</time></trkpt><trkpt lat="43.9597313" lon="11.2808592"><ele>400.0</ele><time>2026-05-02T06:15:56.956Z</time></trkpt><trkpt lat="43.9598017" lon="11.280975"><ele>400.0</ele><time>2026-05-02T06:15:57.967Z</time></trkpt><trkpt lat="43.9598696" lon="11.2810792"><ele>400.0</ele><time>2026-05-02T06:15:58.957Z</time></trkpt><trkpt lat="43.9599388" lon="11.2811652"><ele>400.0</ele><time>2026-05-02T06:15:59.963Z</time></trkpt><trkpt lat="43.9600148" lon="11.2812218"><ele>401.6666666666667</ele><time>2026-05-02T06:16:00.965Z</time></trkpt><trkpt lat="43.9600826" lon="11.2812651"><ele>403.33333333333337</ele><time>2026-05-02T06:16:01.964Z</time></trkpt><trkpt lat="43.9601498" lon="11.2812937"><ele>405.0</ele><time>2026-05-02T06:16:02.967Z</time></trkpt><trkpt lat="43.9602234" lon="11.2813179"><ele>406.66666666666663</ele><time>2026-05-02T06:16:03.967Z</time></trkpt><trkpt lat="43.9603043" lon="11.2813254"><ele>408.3333333333333</ele><time>2026-05-02T06:16:04.971Z</time></trkpt><trkpt lat="43.9603845" lon="11.2813198"><ele>410.0</ele><time>2026-05-02T06:16:05.974Z</time></trkpt><trkpt lat="43.9604626" lon="11.2813039"><ele>409.99999999999994</ele><time>2026-05-02T06:16:06.963Z</time></trkpt><trkpt lat="43.9605357" lon="11.2812986"><ele>410.0</ele><time>2026-05-02T06:16:07.97Z</time></trkpt><trkpt lat="43.9606012" lon="11.2812931"><ele>410.0</ele><time>2026-05-02T06:16:08.95Z</time></trkpt><trkpt lat="43.9607136" lon="11.2812716"><ele>410.0</ele><time>2026-05-02T06:16:10.962Z</time></trkpt><trkpt lat="43.9607748" lon="11.281243"><ele>409.99999999999994</ele><time>2026-05-02T06:16:11.973Z</time></trkpt><trkpt lat="43.9608351" lon="11.2812086"><ele>410.0</ele><time>2026-05-02T06:16:12.963Z</time></trkpt><trkpt lat="43.9608949" lon="11.2811537"><ele>408.49999999999994</ele><time>2026-05-02T06:16:13.959Z</time></trkpt><trkpt lat="43.9609486" lon="11.281086"><ele>407.0</ele><time>2026-05-02T06:16:14.964Z</time></trkpt><trkpt lat="43.9609925" lon="11.2810072"><ele>405.5</ele><time>2026-05-02T06:16:15.968Z</time></trkpt><trkpt lat="43.961034" lon="11.2809358"><ele>404.0</ele><time>2026-05-02T06:16:16.981Z</time></trkpt><trkpt lat="43.9611029" lon="11.2808079"><ele>402.49999999999994</ele><time>2026-05-02T06:16:18.975Z</time></trkpt><trkpt lat="43.9611607" lon="11.2806965"><ele>401.0</ele><time>2026-05-02T06:16:20.964Z</time></trkpt><trkpt lat="43.9611564" lon="11.280609"><ele>400.66666666666663</ele><time>2026-05-02T06:16:30.973Z</time></trkpt><trkpt lat="43.9611459" lon="11.2805155"><ele>400.3333333333333</ele><time>2026-05-02T06:16:34.97Z</time></trkpt><trkpt lat="43.9611349" lon="11.2803859"><ele>400.0</ele><time>2026-05-02T06:16:37.973Z</time></trkpt><trkpt lat="43.9611056" lon="11.2802752"><ele>399.66666666666663</ele><time>2026-05-02T06:16:39.973Z</time></trkpt><trkpt lat="43.9610709" lon="11.2801868"><ele>399.3333333333333</ele><time>2026-05-02T06:16:40.967Z</time></trkpt><trkpt lat="43.9610263" lon="11.2800937"><ele>399.0</ele><time>2026-05-02T06:16:41.969Z</time></trkpt><trkpt lat="43.9609934" lon="11.2800031"><ele>399.0</ele><time>2026-05-02T06:16:42.953Z</time></trkpt><trkpt lat="43.9609593" lon="11.2799066"><ele>399.0</ele><time>2026-05-02T06:16:43.969Z</time></trkpt><trkpt lat="43.9609297" lon="11.2798138"><ele>399.0</ele><time>2026-05-02T06:16:44.958Z</time></trkpt><trkpt lat="43.9608932" lon="11.2797168"><ele>399.0</ele><time>2026-05-02T06:16:45.961Z</time></trkpt><trkpt lat="43.9608568" lon="11.279621"><ele>399.0</ele><time>2026-05-02T06:16:46.968Z</time></trkpt><trkpt lat="43.9608236" lon="11.27952"><ele>399.0</ele><time>2026-05-02T06:16:47.957Z</time></trkpt><trkpt lat="43.9607852" lon="11.2794065"><ele>401.4</ele><time>2026-05-02T06:16:48.966Z</time></trkpt><trkpt lat="43.9607415" lon="11.2793032"><ele>403.79999999999995</ele><time>2026-05-02T06:16:49.958Z</time></trkpt><trkpt lat="43.9606973" lon="11.2792054"><ele>406.20000000000005</ele><time>2026-05-02T06:16:50.971Z</time></trkpt><trkpt lat="43.9606549" lon="11.2791264"><ele>408.6</ele><time>2026-05-02T06:16:51.97Z</time></trkpt><trkpt lat="43.9606045" lon="11.2789579"><ele>411.0</ele><time>2026-05-02T06:16:53.962Z</time></trkpt><trkpt lat="43.9606024" lon="11.2788481"><ele>411.5</ele><time>2026-05-02T06:16:54.968Z</time></trkpt><trkpt lat="43.9606053" lon="11.2787332"><ele>412.0</ele><time>2026-05-02T06:16:55.964Z</time></trkpt><trkpt lat="43.9606055" lon="11.278615"><ele>412.5</ele><time>2026-05-02T06:16:56.966Z</time></trkpt><trkpt lat="43.9606077" lon="11.2784924"><ele>413.0</ele><time>2026-05-02T06:16:57.958Z</time></trkpt><trkpt lat="43.9606043" lon="11.2783736"><ele>413.5</ele><time>2026-05-02T06:16:58.966Z</time></trkpt><trkpt lat="43.9605916" lon="11.2782579"><ele>414.0</ele><time>2026-05-02T06:16:59.963Z</time></trkpt><trkpt lat="43.9605741" lon="11.2781559"><ele>414.8333333333333</ele><time>2026-05-02T06:17:00.965Z</time></trkpt><trkpt lat="43.9605591" lon="11.2780562"><ele>415.66666666666663</ele><time>2026-05-02T06:17:01.965Z</time></trkpt><trkpt lat="43.960543" lon="11.2779584"><ele>416.5</ele><time>2026-05-02T06:17:02.975Z</time></trkpt><trkpt lat="43.9605314" lon="11.2778463"><ele>417.3333333333333</ele><time>2026-05-02T06:17:03.956Z</time></trkpt><trkpt lat="43.9605277" lon="11.2777362"><ele>418.16666666666663</ele><time>2026-05-02T06:17:04.968Z</time></trkpt><trkpt lat="43.9605147" lon="11.277625"><ele>419.0</ele><time>2026-05-02T06:17:05.965Z</time></trkpt><trkpt lat="43.9604961" lon="11.2775173"><ele>418.99999999999994</ele><time>2026-05-02T06:17:06.967Z</time></trkpt><trkpt lat="43.9604734" lon="11.277414"><ele>419.0</ele><time>2026-05-02T06:17:07.956Z</time></trkpt><trkpt lat="43.9604511" lon="11.2773165"><ele>419.0</ele><time>2026-05-02T06:17:08.962Z</time></trkpt><trkpt lat="43.9604325" lon="11.2772148"><ele>419.0</ele><time>2026-05-02T06:17:09.96Z</time></trkpt><trkpt lat="43.9604234" lon="11.2771212"><ele>419.0</ele><time>2026-05-02T06:17:10.964Z</time></trkpt><trkpt lat="43.9604146" lon="11.2770278"><ele>418.99999999999994</ele><time>2026-05-02T06:17:11.965Z</time></trkpt><trkpt lat="43.9604151" lon="11.2769389"><ele>419.0</ele><time>2026-05-02T06:17:12.976Z</time></trkpt><trkpt lat="43.9604302" lon="11.2768509"><ele>419.8333333333333</ele><time>2026-05-02T06:17:13.959Z</time></trkpt><trkpt lat="43.9604591" lon="11.2767537"><ele>420.66666666666663</ele><time>2026-05-02T06:17:14.948Z</time></trkpt><trkpt lat="43.9604887" lon="11.2766482"><ele>421.5</ele><time>2026-05-02T06:17:15.965Z</time></trkpt><trkpt lat="43.9605192" lon="11.2765392"><ele>422.33333333333337</ele><time>2026-05-02T06:17:16.957Z</time></trkpt><trkpt lat="43.9605502" lon="11.2764295"><ele>423.1666666666667</ele><time>2026-05-02T06:17:17.977Z</time></trkpt><trkpt lat="43.9605739" lon="11.2763234"><ele>424.0</ele><time>2026-05-02T06:17:18.962Z</time></trkpt><trkpt lat="43.9605981" lon="11.2762209"><ele>423.4</ele><time>2026-05-02T06:17:19.966Z</time></trkpt><trkpt lat="43.960625" lon="11.2761275"><ele>422.79999999999995</ele><time>2026-05-02T06:17:20.971Z</time></trkpt><trkpt lat="43.9606743" lon="11.2759872"><ele>422.20000000000005</ele><time>2026-05-02T06:17:22.968Z</time></trkpt><trkpt lat="43.9607199" lon="11.2758388"><ele>421.6</ele><time>2026-05-02T06:17:24.961Z</time></trkpt><trkpt lat="43.9608002" lon="11.2757216"><ele>421.0</ele><time>2026-05-02T06:17:26.959Z</time></trkpt><trkpt lat="43.9608735" lon="11.2756707"><ele>421.00000000000006</ele><time>2026-05-02T06:17:27.958Z</time></trkpt><trkpt lat="43.9609645" lon="11.2756295"><ele>421.0</ele><time>2026-05-02T06:17:28.949Z</time></trkpt><trkpt lat="43.9610496" lon="11.2755941"><ele>421.0</ele><time>2026-05-02T06:17:29.958Z</time></trkpt><trkpt lat="43.9611274" lon="11.2755869"><ele>421.0</ele><time>2026-05-02T06:17:30.956Z</time></trkpt><trkpt lat="43.961216" lon="11.275598"><ele>421.00000000000006</ele><time>2026-05-02T06:17:31.956Z</time></trkpt><trkpt lat="43.9613048" lon="11.2756015"><ele>421.0</ele><time>2026-05-02T06:17:32.962Z</time></trkpt><trkpt lat="43.9613893" lon="11.2756034"><ele>419.50000000000006</ele><time>2026-05-02T06:17:33.967Z</time></trkpt><trkpt lat="43.9614682" lon="11.2755968"><ele>418.0</ele><time>2026-05-02T06:17:34.949Z</time></trkpt><trkpt lat="43.9615317" lon="11.2755761"><ele>416.5</ele><time>2026-05-02T06:17:35.96Z</time></trkpt><trkpt lat="43.961622" lon="11.2755037"><ele>415.0</ele><time>2026-05-02T06:17:37.966Z</time></trkpt><trkpt lat="43.9616923" lon="11.2754248"><ele>413.50000000000006</ele><time>2026-05-02T06:17:39.964Z</time></trkpt><trkpt lat="43.9617573" lon="11.2753197"><ele>412.0</ele><time>2026-05-02T06:17:41.971Z</time></trkpt><trkpt lat="43.961841" lon="11.2751934"><ele>412.00000000000006</ele><time>2026-05-02T06:17:43.969Z</time></trkpt><trkpt lat="43.9618962" lon="11.2751137"><ele>412.0</ele><time>2026-05-02T06:17:44.974Z</time></trkpt><trkpt lat="43.9619543" lon="11.2750284"><ele>412.0</ele><time>2026-05-02T06:17:45.968Z</time></trkpt><trkpt lat="43.9620127" lon="11.2749467"><ele>412.0</ele><time>2026-05-02T06:17:46.977Z</time></trkpt><trkpt lat="43.9620691" lon="11.2748737"><ele>412.00000000000006</ele><time>2026-05-02T06:17:47.965Z</time></trkpt><trkpt lat="43.9621658" lon="11.2747689"><ele>412.0</ele><time>2026-05-02T06:17:49.965Z</time></trkpt><trkpt lat="43.962234" lon="11.274685"><ele>412.6666666666667</ele><time>2026-05-02T06:17:52.039Z</time></trkpt><trkpt lat="43.9622961" lon="11.274587"><ele>413.33333333333337</ele><time>2026-05-02T06:17:54.03Z</time></trkpt><trkpt lat="43.9623615" lon="11.2744828"><ele>414.0</ele><time>2026-05-02T06:17:55.947Z</time></trkpt><trkpt lat="43.9624065" lon="11.2744129"><ele>414.66666666666663</ele><time>2026-05-02T06:17:56.97Z</time></trkpt><trkpt lat="43.9624583" lon="11.2743356"><ele>415.3333333333333</ele><time>2026-05-02T06:17:58.072Z</time></trkpt><trkpt lat="43.9625101" lon="11.2742572"><ele>416.0</ele><time>2026-05-02T06:17:59.027Z</time></trkpt><trkpt lat="43.9625662" lon="11.274167"><ele>416.66666666666663</ele><time>2026-05-02T06:18:00.039Z</time></trkpt><trkpt lat="43.9626249" lon="11.2740784"><ele>417.3333333333333</ele><time>2026-05-02T06:18:00.957Z</time></trkpt><trkpt lat="43.9626734" lon="11.2740007"><ele>418.0</ele><time>2026-05-02T06:18:01.978Z</time></trkpt><trkpt lat="43.9627244" lon="11.2739358"><ele>418.66666666666663</ele><time>2026-05-02T06:18:02.98Z</time></trkpt><trkpt lat="43.9628241" lon="11.2738702"><ele>419.3333333333333</ele><time>2026-05-02T06:18:05.033Z</time></trkpt><trkpt lat="43.9628913" lon="11.2738547"><ele>420.0</ele><time>2026-05-02T06:18:05.961Z</time></trkpt><trkpt lat="43.9629791" lon="11.2738481"><ele>420.0</ele><time>2026-05-02T06:18:06.956Z</time></trkpt><trkpt lat="43.9630669" lon="11.2738448"><ele>420.0</ele><time>2026-05-02T06:18:07.97Z</time></trkpt><trkpt lat="43.96315" lon="11.273839"><ele>420.0</ele><time>2026-05-02T06:18:08.948Z</time></trkpt><trkpt lat="43.9632297" lon="11.2738335"><ele>420.0</ele><time>2026-05-02T06:18:09.977Z</time></trkpt><trkpt lat="43.9633191" lon="11.2738371"><ele>420.0</ele><time>2026-05-02T06:18:10.96Z</time></trkpt><trkpt lat="43.9634063" lon="11.2738529"><ele>420.0</ele><time>2026-05-02T06:18:12.034Z</time></trkpt><trkpt lat="43.9634985" lon="11.2738694"><ele>416.8333333333333</ele><time>2026-05-02T06:18:13.018Z</time></trkpt><trkpt lat="43.9635932" lon="11.2738769"><ele>413.66666666666663</ele><time>2026-05-02T06:18:13.961Z</time></trkpt><trkpt lat="43.963687" lon="11.2738868"><ele>410.5</ele><time>2026-05-02T06:18:15.032Z</time></trkpt><trkpt lat="43.9637727" lon="11.2738982"><ele>407.3333333333333</ele><time>2026-05-02T06:18:15.978Z</time></trkpt><trkpt lat="43.9638598" lon="11.2738876"><ele>404.16666666666663</ele><time>2026-05-02T06:18:16.98Z</time></trkpt><trkpt lat="43.9639427" lon="11.2738608"><ele>401.0</ele><time>2026-05-02T06:18:17.996Z</time></trkpt><trkpt lat="43.9640132" lon="11.2738162"><ele>400.99999999999994</ele><time>2026-05-02T06:18:18.984Z</time></trkpt><trkpt lat="43.9640773" lon="11.2737755"><ele>401.0</ele><time>2026-05-02T06:18:19.961Z</time></trkpt><trkpt lat="43.9641482" lon="11.2737173"><ele>401.0</ele><time>2026-05-02T06:18:20.977Z</time></trkpt><trkpt lat="43.9642113" lon="11.2736449"><ele>401.0</ele><time>2026-05-02T06:18:21.966Z</time></trkpt><trkpt lat="43.9642699" lon="11.273562"><ele>400.99999999999994</ele><time>2026-05-02T06:18:22.958Z</time></trkpt><trkpt lat="43.9643228" lon="11.2734764"><ele>401.0</ele><time>2026-05-02T06:18:23.976Z</time></trkpt><trkpt lat="43.9643739" lon="11.273406"><ele>396.99999999999994</ele><time>2026-05-02T06:18:24.977Z</time></trkpt><trkpt lat="43.964424" lon="11.2733178"><ele>393.0</ele><time>2026-05-02T06:18:25.969Z</time></trkpt><trkpt lat="43.9644682" lon="11.2732232"><ele>389.0</ele><time>2026-05-02T06:18:26.973Z</time></trkpt><trkpt lat="43.964503" lon="11.2731129"><ele>385.0</ele><time>2026-05-02T06:18:27.992Z</time></trkpt><trkpt lat="43.9645225" lon="11.2729952"><ele>381.0</ele><time>2026-05-02T06:18:28.977Z</time></trkpt><trkpt lat="43.9645348" lon="11.2728755"><ele>377.0</ele><time>2026-05-02T06:18:29.975Z</time></trkpt><trkpt lat="43.9645538" lon="11.2727523"><ele>377.0</ele><time>2026-05-02T06:18:30.975Z</time></trkpt><trkpt lat="43.9645744" lon="11.2726336"><ele>377.0</ele><time>2026-05-02T06:18:31.969Z</time></trkpt><trkpt lat="43.9645874" lon="11.2725063"><ele>377.0</ele><time>2026-05-02T06:18:32.977Z</time></trkpt><trkpt lat="43.9645988" lon="11.2723883"><ele>377.0</ele><time>2026-05-02T06:18:33.977Z</time></trkpt><trkpt lat="43.9646165" lon="11.2722674"><ele>377.0</ele><time>2026-05-02T06:18:34.974Z</time></trkpt><trkpt lat="43.9646411" lon="11.2721565"><ele>377.0</ele><time>2026-05-02T06:18:35.973Z</time></trkpt><trkpt lat="43.9646675" lon="11.2720576"><ele>377.8</ele><time>2026-05-02T06:18:36.971Z</time></trkpt><trkpt lat="43.9646925" lon="11.2719669"><ele>378.6</ele><time>2026-05-02T06:18:37.975Z</time></trkpt><trkpt lat="43.9647706" lon="11.2718292"><ele>379.40000000000003</ele><time>2026-05-02T06:18:40.034Z</time></trkpt><trkpt lat="43.9648243" lon="11.2716924"><ele>380.20000000000005</ele><time>2026-05-02T06:18:41.962Z</time></trkpt><trkpt lat="43.9648912" lon="11.271556"><ele>381.0</ele><time>2026-05-02T06:18:44.032Z</time></trkpt><trkpt lat="43.9649231" lon="11.2714744"><ele>381.0</ele><time>2026-05-02T06:18:45.03Z</time></trkpt><trkpt lat="43.9649562" lon="11.271397"><ele>381.0</ele><time>2026-05-02T06:18:45.964Z</time></trkpt><trkpt lat="43.9649866" lon="11.2713131"><ele>381.0</ele><time>2026-05-02T06:18:47.054Z</time></trkpt><trkpt lat="43.9650098" lon="11.2712286"><ele>381.0</ele><time>2026-05-02T06:18:47.956Z</time></trkpt><trkpt lat="43.9650585" lon="11.2710796"><ele>381.0</ele><time>2026-05-02T06:18:50.026Z</time></trkpt><trkpt lat="43.9651083" lon="11.2709748"><ele>381.0</ele><time>2026-05-02T06:18:51.968Z</time></trkpt><trkpt lat="43.9651452" lon="11.270899"><ele>379.0</ele><time>2026-05-02T06:18:54.029Z</time></trkpt><trkpt lat="43.9652333" lon="11.2708274"><ele>377.0</ele><time>2026-05-02T06:18:56.968Z</time></trkpt><trkpt lat="43.9653169" lon="11.2707554"><ele>375.0</ele><time>2026-05-02T06:18:58.958Z</time></trkpt><trkpt lat="43.9654124" lon="11.2706654"><ele>373.0</ele><time>2026-05-02T06:19:00.959Z</time></trkpt><trkpt lat="43.9655166" lon="11.2705727"><ele>371.0</ele><time>2026-05-02T06:19:02.963Z</time></trkpt><trkpt lat="43.965604" lon="11.2705377"><ele>370.1666666666667</ele><time>2026-05-02T06:19:05.041Z</time></trkpt><trkpt lat="43.9657056" lon="11.2705281"><ele>369.33333333333337</ele><time>2026-05-02T06:19:06.98Z</time></trkpt><trkpt lat="43.9657794" lon="11.2705169"><ele>368.5</ele><time>2026-05-02T06:19:09.036Z</time></trkpt><trkpt lat="43.9658601" lon="11.2704977"><ele>367.6666666666667</ele><time>2026-05-02T06:19:11.961Z</time></trkpt><trkpt lat="43.9659518" lon="11.2704937"><ele>366.8333333333333</ele><time>2026-05-02T06:19:14.957Z</time></trkpt><trkpt lat="43.9660328" lon="11.2704893"><ele>366.0</ele><time>2026-05-02T06:19:17.986Z</time></trkpt><trkpt lat="43.9661078" lon="11.2705014"><ele>366.8333333333333</ele><time>2026-05-02T06:19:21.959Z</time></trkpt><trkpt lat="43.9661873" lon="11.2704876"><ele>367.6666666666667</ele><time>2026-05-02T06:19:27.969Z</time></trkpt><trkpt lat="43.9661001" lon="11.2705515"><ele>368.5</ele><time>2026-05-02T06:19:37.958Z</time></trkpt><trkpt lat="43.9660187" lon="11.2705732"><ele>369.33333333333337</ele><time>2026-05-02T06:19:39.963Z</time></trkpt><trkpt lat="43.965928" lon="11.2705798"><ele>370.1666666666667</ele><time>2026-05-02T06:19:41.96Z</time></trkpt><trkpt lat="43.9658563" lon="11.2706242"><ele>371.0</ele><time>2026-05-02T06:19:44.963Z</time></trkpt><trkpt lat="43.9659195" lon="11.2705578"><ele>368.20000000000005</ele><time>2026-05-02T06:20:15.947Z</time></trkpt><trkpt lat="43.9659906" lon="11.270554"><ele>365.40000000000003</ele><time>2026-05-02T06:20:17.956Z</time></trkpt><trkpt lat="43.9660796" lon="11.270524"><ele>362.6</ele><time>2026-05-02T06:20:19.97Z</time></trkpt><trkpt lat="43.9661754" lon="11.27044"><ele>359.8</ele><time>2026-05-02T06:20:22.018Z</time></trkpt><trkpt lat="43.9662319" lon="11.2703327"><ele>357.0</ele><time>2026-05-02T06:20:23.951Z</time></trkpt><trkpt lat="43.9662604" lon="11.2701957"><ele>357.0</ele><time>2026-05-02T06:20:25.967Z</time></trkpt><trkpt lat="43.9662787" lon="11.2700317"><ele>357.0</ele><time>2026-05-02T06:20:27.954Z</time></trkpt><trkpt lat="43.9662923" lon="11.2699463"><ele>357.0</ele><time>2026-05-02T06:20:29.031Z</time></trkpt><trkpt lat="43.966314" lon="11.2698618"><ele>357.0</ele><time>2026-05-02T06:20:30.045Z</time></trkpt><trkpt lat="43.9663418" lon="11.2697692"><ele>357.0</ele><time>2026-05-02T06:20:30.958Z</time></trkpt><trkpt lat="43.966371" lon="11.2696877"><ele>357.0</ele><time>2026-05-02T06:20:31.971Z</time></trkpt><trkpt lat="43.9664109" lon="11.2696044"><ele>355.5</ele><time>2026-05-02T06:20:32.975Z</time></trkpt><trkpt lat="43.9664588" lon="11.2695237"><ele>354.0</ele><time>2026-05-02T06:20:33.984Z</time></trkpt><trkpt lat="43.9665115" lon="11.2694503"><ele>352.5</ele><time>2026-05-02T06:20:34.977Z</time></trkpt><trkpt lat="43.9665804" lon="11.2693935"><ele>351.0</ele><time>2026-05-02T06:20:35.985Z</time></trkpt><trkpt lat="43.9666504" lon="11.2693391"><ele>349.5</ele><time>2026-05-02T06:20:37.037Z</time></trkpt><trkpt lat="43.9667325" lon="11.2692859"><ele>348.0</ele><time>2026-05-02T06:20:37.954Z</time></trkpt><trkpt lat="43.9668307" lon="11.2692216"><ele>345.4</ele><time>2026-05-02T06:20:38.961Z</time></trkpt><trkpt lat="43.9669285" lon="11.2691641"><ele>342.79999999999995</ele><time>2026-05-02T06:20:39.959Z</time></trkpt><trkpt lat="43.967028" lon="11.2691051"><ele>340.2</ele><time>2026-05-02T06:20:40.957Z</time></trkpt><trkpt lat="43.9671154" lon="11.269049"><ele>337.6</ele><time>2026-05-02T06:20:41.965Z</time></trkpt><trkpt lat="43.9672013" lon="11.2689998"><ele>335.0</ele><time>2026-05-02T06:20:42.954Z</time></trkpt><trkpt lat="43.9672755" lon="11.2689541"><ele>334.33333333333337</ele><time>2026-05-02T06:20:43.969Z</time></trkpt><trkpt lat="43.9673523" lon="11.2689104"><ele>333.6666666666667</ele><time>2026-05-02T06:20:44.97Z</time></trkpt><trkpt lat="43.9674265" lon="11.2688705"><ele>333.0</ele><time>2026-05-02T06:20:45.964Z</time></trkpt><trkpt lat="43.9674913" lon="11.2688361"><ele>332.3333333333333</ele><time>2026-05-02T06:20:47.035Z</time></trkpt><trkpt lat="43.9675817" lon="11.2687462"><ele>331.66666666666663</ele><time>2026-05-02T06:20:49.036Z</time></trkpt><trkpt lat="43.9676147" lon="11.2686546"><ele>331.0</ele><time>2026-05-02T06:20:50.058Z</time></trkpt><trkpt lat="43.9676245" lon="11.2684055"><ele>328.8333333333333</ele><time>2026-05-02T06:20:51.964Z</time></trkpt><trkpt lat="43.9676185" lon="11.2682774"><ele>326.66666666666663</ele><time>2026-05-02T06:20:52.98Z</time></trkpt><trkpt lat="43.9676026" lon="11.2681588"><ele>324.5</ele><time>2026-05-02T06:20:54.038Z</time></trkpt><trkpt lat="43.96759" lon="11.2680439"><ele>322.3333333333333</ele><time>2026-05-02T06:20:55.015Z</time></trkpt><trkpt lat="43.9675718" lon="11.2679312"><ele>320.1666666666667</ele><time>2026-05-02T06:20:55.949Z</time></trkpt><trkpt lat="43.967558" lon="11.2678256"><ele>318.0</ele><time>2026-05-02T06:20:57.029Z</time></trkpt><trkpt lat="43.9675562" lon="11.2677343"><ele>317.8</ele><time>2026-05-02T06:20:58.032Z</time></trkpt><trkpt lat="43.9675949" lon="11.2675984"><ele>317.6</ele><time>2026-05-02T06:20:59.995Z</time></trkpt><trkpt lat="43.9676596" lon="11.2675327"><ele>317.4</ele><time>2026-05-02T06:21:00.962Z</time></trkpt><trkpt lat="43.9677376" lon="11.2674484"><ele>317.2</ele><time>2026-05-02T06:21:01.959Z</time></trkpt><trkpt lat="43.9678064" lon="11.2673322"><ele>317.0</ele><time>2026-05-02T06:21:02.97Z</time></trkpt><trkpt lat="43.9678638" lon="11.2672016"><ele>317.0</ele><time>2026-05-02T06:21:03.998Z</time></trkpt><trkpt lat="43.9679283" lon="11.2670656"><ele>317.0</ele><time>2026-05-02T06:21:04.956Z</time></trkpt><trkpt lat="43.9679803" lon="11.2669366"><ele>317.0</ele><time>2026-05-02T06:21:05.951Z</time></trkpt><trkpt lat="43.9680215" lon="11.2668011"><ele>317.0</ele><time>2026-05-02T06:21:06.952Z</time></trkpt><trkpt lat="43.9680521" lon="11.2666831"><ele>317.0</ele><time>2026-05-02T06:21:07.963Z</time></trkpt><trkpt lat="43.9680837" lon="11.2665736"><ele>317.0</ele><time>2026-05-02T06:21:09.032Z</time></trkpt><trkpt lat="43.9681278" lon="11.266477"><ele>317.0</ele><time>2026-05-02T06:21:09.957Z</time></trkpt><trkpt lat="43.9681772" lon="11.2663746"><ele>317.0</ele><time>2026-05-02T06:21:10.947Z</time></trkpt><trkpt lat="43.9682371" lon="11.2663012"><ele>317.0</ele><time>2026-05-02T06:21:11.952Z</time></trkpt><trkpt lat="43.9682952" lon="11.266216"><ele>317.0</ele><time>2026-05-02T06:21:12.962Z</time></trkpt><trkpt lat="43.9683438" lon="11.266134"><ele>317.0</ele><time>2026-05-02T06:21:13.954Z</time></trkpt><trkpt lat="43.9683896" lon="11.2660384"><ele>316.8</ele><time>2026-05-02T06:21:14.961Z</time></trkpt><trkpt lat="43.9684326" lon="11.2659358"><ele>316.6</ele><time>2026-05-02T06:21:15.963Z</time></trkpt><trkpt lat="43.9684767" lon="11.265824"><ele>316.40000000000003</ele><time>2026-05-02T06:21:16.966Z</time></trkpt><trkpt lat="43.9685409" lon="11.2656899"><ele>316.2</ele><time>2026-05-02T06:21:18.034Z</time></trkpt><trkpt lat="43.9686074" lon="11.2655306"><ele>316.0</ele><time>2026-05-02T06:21:19.036Z</time></trkpt><trkpt lat="43.9686674" lon="11.2653633"><ele>313.75</ele><time>2026-05-02T06:21:20.035Z</time></trkpt><trkpt lat="43.9687223" lon="11.2651966"><ele>311.5</ele><time>2026-05-02T06:21:20.958Z</time></trkpt><trkpt lat="43.9687761" lon="11.2650485"><ele>309.25</ele><time>2026-05-02T06:21:21.968Z</time></trkpt><trkpt lat="43.9688337" lon="11.2648981"><ele>307.0</ele><time>2026-05-02T06:21:22.978Z</time></trkpt><trkpt lat="43.9688947" lon="11.2647609"><ele>305.8333333333333</ele><time>2026-05-02T06:21:24.033Z</time></trkpt><trkpt lat="43.9689525" lon="11.2646602"><ele>304.66666666666663</ele><time>2026-05-02T06:21:25.033Z</time></trkpt><trkpt lat="43.9689979" lon="11.2645734"><ele>303.5</ele><time>2026-05-02T06:21:25.956Z</time></trkpt><trkpt lat="43.9690299" lon="11.2644817"><ele>302.3333333333333</ele><time>2026-05-02T06:21:27.034Z</time></trkpt><trkpt lat="43.9690474" lon="11.2643822"><ele>301.1666666666667</ele><time>2026-05-02T06:21:28.03Z</time></trkpt><trkpt lat="43.9690252" lon="11.2642735"><ele>300.0</ele><time>2026-05-02T06:21:29.041Z</time></trkpt><trkpt lat="43.9689835" lon="11.2641466"><ele>300.0</ele><time>2026-05-02T06:21:29.973Z</time></trkpt><trkpt lat="43.9689397" lon="11.2640194"><ele>300.0</ele><time>2026-05-02T06:21:30.96Z</time></trkpt><trkpt lat="43.9689065" lon="11.2638733"><ele>300.0</ele><time>2026-05-02T06:21:31.965Z</time></trkpt><trkpt lat="43.9689022" lon="11.263712"><ele>300.0</ele><time>2026-05-02T06:21:33.023Z</time></trkpt><trkpt lat="43.9688972" lon="11.2635426"><ele>298.0</ele><time>2026-05-02T06:21:34.032Z</time></trkpt><trkpt lat="43.9688957" lon="11.2633742"><ele>296.0</ele><time>2026-05-02T06:21:34.968Z</time></trkpt><trkpt lat="43.968913" lon="11.2632038"><ele>294.0</ele><time>2026-05-02T06:21:35.966Z</time></trkpt><trkpt lat="43.968954" lon="11.2630483"><ele>292.0</ele><time>2026-05-02T06:21:36.958Z</time></trkpt><trkpt lat="43.9689942" lon="11.2628995"><ele>291.8</ele><time>2026-05-02T06:21:38.065Z</time></trkpt><trkpt lat="43.9690534" lon="11.2627711"><ele>291.6</ele><time>2026-05-02T06:21:38.976Z</time></trkpt><trkpt lat="43.9691328" lon="11.2626765"><ele>291.40000000000003</ele><time>2026-05-02T06:21:39.944Z</time></trkpt><trkpt lat="43.9692232" lon="11.262589"><ele>291.2</ele><time>2026-05-02T06:21:40.96Z</time></trkpt><trkpt lat="43.9693168" lon="11.2625137"><ele>291.0</ele><time>2026-05-02T06:21:41.96Z</time></trkpt><trkpt lat="43.9694076" lon="11.2624329"><ele>288.25</ele><time>2026-05-02T06:21:43.065Z</time></trkpt><trkpt lat="43.969581" lon="11.2622679"><ele>285.5</ele><time>2026-05-02T06:21:44.962Z</time></trkpt><trkpt lat="43.9696587" lon="11.2621849"><ele>282.75</ele><time>2026-05-02T06:21:45.969Z</time></trkpt><trkpt lat="43.9697281" lon="11.2620973"><ele>280.0</ele><time>2026-05-02T06:21:46.965Z</time></trkpt><trkpt lat="43.9697988" lon="11.2620097"><ele>280.0</ele><time>2026-05-02T06:21:47.966Z</time></trkpt><trkpt lat="43.9698711" lon="11.2619298"><ele>280.0</ele><time>2026-05-02T06:21:48.958Z</time></trkpt><trkpt lat="43.9699416" lon="11.2618504"><ele>280.0</ele><time>2026-05-02T06:21:49.984Z</time></trkpt><trkpt lat="43.9700005" lon="11.2617599"><ele>280.0</ele><time>2026-05-02T06:21:50.961Z</time></trkpt><trkpt lat="43.970048" lon="11.2616646"><ele>280.0</ele><time>2026-05-02T06:21:51.965Z</time></trkpt><trkpt lat="43.9700814" lon="11.2615739"><ele>280.0</ele><time>2026-05-02T06:21:52.966Z</time></trkpt><trkpt lat="43.9700812" lon="11.26147"><ele>278.8333333333333</ele><time>2026-05-02T06:21:53.966Z</time></trkpt><trkpt lat="43.970046" lon="11.2613465"><ele>277.66666666666663</ele><time>2026-05-02T06:21:54.967Z</time></trkpt><trkpt lat="43.9699975" lon="11.2612354"><ele>276.5</ele><time>2026-05-02T06:21:55.961Z</time></trkpt><trkpt lat="43.9699454" lon="11.2611312"><ele>275.3333333333333</ele><time>2026-05-02T06:21:56.958Z</time></trkpt><trkpt lat="43.9698904" lon="11.2610499"><ele>274.1666666666667</ele><time>2026-05-02T06:21:57.963Z</time></trkpt><trkpt lat="43.9698316" lon="11.2609669"><ele>273.0</ele><time>2026-05-02T06:21:59.02Z</time></trkpt><trkpt lat="43.9698052" lon="11.2608769"><ele>273.0</ele><time>2026-05-02T06:21:59.963Z</time></trkpt><trkpt lat="43.9698366" lon="11.2607479"><ele>273.0</ele><time>2026-05-02T06:22:01.961Z</time></trkpt><trkpt lat="43.969914" lon="11.2607531"><ele>273.0</ele><time>2026-05-02T06:22:05.033Z</time></trkpt><trkpt lat="43.9699718" lon="11.2608082"><ele>273.0</ele><time>2026-05-02T06:22:06.966Z</time></trkpt><trkpt lat="43.9700426" lon="11.2609158"><ele>273.0</ele><time>2026-05-02T06:22:09.032Z</time></trkpt><trkpt lat="43.9701004" lon="11.2610058"><ele>273.0</ele><time>2026-05-02T06:22:10.952Z</time></trkpt><trkpt lat="43.9701524" lon="11.2611198"><ele>272.6</ele><time>2026-05-02T06:22:12.966Z</time></trkpt><trkpt lat="43.9702087" lon="11.2612708"><ele>272.20000000000005</ele><time>2026-05-02T06:22:15.03Z</time></trkpt><trkpt lat="43.9702363" lon="11.2613728"><ele>271.8</ele><time>2026-05-02T06:22:15.971Z</time></trkpt><trkpt lat="43.9702725" lon="11.2614867"><ele>271.40000000000003</ele><time>2026-05-02T06:22:16.982Z</time></trkpt><trkpt lat="43.9703036" lon="11.2616099"><ele>271.0</ele><time>2026-05-02T06:22:18.027Z</time></trkpt><trkpt lat="43.9703352" lon="11.2617395"><ele>271.0</ele><time>2026-05-02T06:22:19.035Z</time></trkpt><trkpt lat="43.9703704" lon="11.2618816"><ele>271.0</ele><time>2026-05-02T06:22:20.036Z</time></trkpt><trkpt lat="43.970408" lon="11.2620367"><ele>271.0</ele><time>2026-05-02T06:22:20.953Z</time></trkpt><trkpt lat="43.970443" lon="11.2621934"><ele>271.0</ele><time>2026-05-02T06:22:21.951Z</time></trkpt><trkpt lat="43.9704746" lon="11.2623558"><ele>269.75</ele><time>2026-05-02T06:22:22.956Z</time></trkpt><trkpt lat="43.9705055" lon="11.2625129"><ele>268.5</ele><time>2026-05-02T06:22:24.032Z</time></trkpt><trkpt lat="43.9705413" lon="11.2626625"><ele>267.25</ele><time>2026-05-02T06:22:25.031Z</time></trkpt><trkpt lat="43.9705813" lon="11.2628213"><ele>266.0</ele><time>2026-05-02T06:22:25.96Z</time></trkpt><trkpt lat="43.9706347" lon="11.2629729"><ele>266.0</ele><time>2026-05-02T06:22:26.955Z</time></trkpt><trkpt lat="43.9707056" lon="11.2631108"><ele>266.0</ele><time>2026-05-02T06:22:27.953Z</time></trkpt><trkpt lat="43.9707782" lon="11.2632484"><ele>266.0</ele><time>2026-05-02T06:22:28.959Z</time></trkpt><trkpt lat="43.9708599" lon="11.2633815"><ele>266.0</ele><time>2026-05-02T06:22:29.956Z</time></trkpt><trkpt lat="43.9709327" lon="11.2635135"><ele>265.25</ele><time>2026-05-02T06:22:30.954Z</time></trkpt><trkpt lat="43.9710125" lon="11.2636478"><ele>264.5</ele><time>2026-05-02T06:22:31.965Z</time></trkpt><trkpt lat="43.971093" lon="11.263791"><ele>263.75</ele><time>2026-05-02T06:22:33.035Z</time></trkpt><trkpt lat="43.9711768" lon="11.2639456"><ele>263.0</ele><time>2026-05-02T06:22:33.979Z</time></trkpt><trkpt lat="43.97126" lon="11.2640928"><ele>263.0</ele><time>2026-05-02T06:22:34.96Z</time></trkpt><trkpt lat="43.9713404" lon="11.2642411"><ele>263.0</ele><time>2026-05-02T06:22:35.968Z</time></trkpt><trkpt lat="43.971421" lon="11.2643931"><ele>263.0</ele><time>2026-05-02T06:22:36.957Z</time></trkpt><trkpt lat="43.9714988" lon="11.264551"><ele>263.0</ele><time>2026-05-02T06:22:37.966Z</time></trkpt><trkpt lat="43.9715677" lon="11.2647124"><ele>265.25</ele><time>2026-05-02T06:22:38.965Z</time></trkpt><trkpt lat="43.9716338" lon="11.2648693"><ele>267.5</ele><time>2026-05-02T06:22:40.029Z</time></trkpt><trkpt lat="43.9716914" lon="11.2650269"><ele>269.75</ele><time>2026-05-02T06:22:40.957Z</time></trkpt><trkpt lat="43.9717378" lon="11.26518"><ele>272.0</ele><time>2026-05-02T06:22:41.951Z</time></trkpt><trkpt lat="43.9717703" lon="11.2653321"><ele>267.5</ele><time>2026-05-02T06:22:42.978Z</time></trkpt><trkpt lat="43.9717888" lon="11.2654996"><ele>263.0</ele><time>2026-05-02T06:22:44.03Z</time></trkpt><trkpt lat="43.9718035" lon="11.265675"><ele>258.5</ele><time>2026-05-02T06:22:45.023Z</time></trkpt><trkpt lat="43.9718163" lon="11.2658588"><ele>254.0</ele><time>2026-05-02T06:22:45.958Z</time></trkpt><trkpt lat="43.9718194" lon="11.266052"><ele>254.0</ele><time>2026-05-02T06:22:46.955Z</time></trkpt><trkpt lat="43.9718214" lon="11.2662515"><ele>254.0</ele><time>2026-05-02T06:22:47.963Z</time></trkpt><trkpt lat="43.9718198" lon="11.2664572"><ele>254.0</ele><time>2026-05-02T06:22:49.043Z</time></trkpt><trkpt lat="43.9718244" lon="11.2668745"><ele>255.0</ele><time>2026-05-02T06:22:50.97Z</time></trkpt><trkpt lat="43.9718183" lon="11.2670832"><ele>256.0</ele><time>2026-05-02T06:22:51.961Z</time></trkpt><trkpt lat="43.971811" lon="11.2672756"><ele>257.0</ele><time>2026-05-02T06:22:53.024Z</time></trkpt><trkpt lat="43.9717744" lon="11.2674411"><ele>258.0</ele><time>2026-05-02T06:22:54.014Z</time></trkpt><trkpt lat="43.9717075" lon="11.267581"><ele>261.5</ele><time>2026-05-02T06:22:55.02Z</time></trkpt><trkpt lat="43.9716097" lon="11.2676802"><ele>265.0</ele><time>2026-05-02T06:22:55.956Z</time></trkpt><trkpt lat="43.971504" lon="11.2677854"><ele>268.5</ele><time>2026-05-02T06:22:56.961Z</time></trkpt><trkpt lat="43.9713969" lon="11.2678868"><ele>272.0</ele><time>2026-05-02T06:22:57.976Z</time></trkpt><trkpt lat="43.9713084" lon="11.2679977"><ele>270.8</ele><time>2026-05-02T06:22:58.97Z</time></trkpt><trkpt lat="43.971241" lon="11.2681207"><ele>269.6</ele><time>2026-05-02T06:22:59.976Z</time></trkpt><trkpt lat="43.9712018" lon="11.2682588"><ele>268.40000000000003</ele><time>2026-05-02T06:23:00.955Z</time></trkpt><trkpt lat="43.971186" lon="11.2684138"><ele>267.2</ele><time>2026-05-02T06:23:02.033Z</time></trkpt><trkpt lat="43.9711979" lon="11.2685637"><ele>266.0</ele><time>2026-05-02T06:23:03.03Z</time></trkpt><trkpt lat="43.9712349" lon="11.2687137"><ele>266.0</ele><time>2026-05-02T06:23:03.97Z</time></trkpt><trkpt lat="43.9713145" lon="11.268848"><ele>266.0</ele><time>2026-05-02T06:23:05.031Z</time></trkpt><trkpt lat="43.9713968" lon="11.2689595"><ele>266.0</ele><time>2026-05-02T06:23:05.949Z</time></trkpt><trkpt lat="43.9714897" lon="11.2690719"><ele>266.0</ele><time>2026-05-02T06:23:06.964Z</time></trkpt><trkpt lat="43.9715612" lon="11.2691989"><ele>267.0</ele><time>2026-05-02T06:23:07.946Z</time></trkpt><trkpt lat="43.9715826" lon="11.2693506"><ele>268.0</ele><time>2026-05-02T06:23:08.958Z</time></trkpt><trkpt lat="43.9715735" lon="11.2695099"><ele>269.0</ele><time>2026-05-02T06:23:09.939Z</time></trkpt><trkpt lat="43.9715371" lon="11.2696717"><ele>270.0</ele><time>2026-05-02T06:23:10.958Z</time></trkpt><trkpt lat="43.9714939" lon="11.2698489"><ele>271.25</ele><time>2026-05-02T06:23:11.951Z</time></trkpt><trkpt lat="43.971467" lon="11.2700234"><ele>272.5</ele><time>2026-05-02T06:23:12.937Z</time></trkpt><trkpt lat="43.9714552" lon="11.2702131"><ele>273.75</ele><time>2026-05-02T06:23:14.076Z</time></trkpt><trkpt lat="43.971456" lon="11.2704018"><ele>275.0</ele><time>2026-05-02T06:23:15.019Z</time></trkpt><trkpt lat="43.9714615" lon="11.2706028"><ele>274.25</ele><time>2026-05-02T06:23:15.959Z</time></trkpt><trkpt lat="43.9714699" lon="11.2708064"><ele>273.5</ele><time>2026-05-02T06:23:16.953Z</time></trkpt><trkpt lat="43.9714798" lon="11.271007"><ele>272.75</ele><time>2026-05-02T06:23:17.949Z</time></trkpt><trkpt lat="43.9714933" lon="11.2712043"><ele>272.0</ele><time>2026-05-02T06:23:18.961Z</time></trkpt><trkpt lat="43.9715075" lon="11.2713954"><ele>273.0</ele><time>2026-05-02T06:23:19.953Z</time></trkpt><trkpt lat="43.9715166" lon="11.2715877"><ele>274.0</ele><time>2026-05-02T06:23:20.962Z</time></trkpt><trkpt lat="43.9715277" lon="11.271781"><ele>275.0</ele><time>2026-05-02T06:23:22.047Z</time></trkpt><trkpt lat="43.9715304" lon="11.2719697"><ele>276.0</ele><time>2026-05-02T06:23:23.016Z</time></trkpt><trkpt lat="43.9715277" lon="11.2721441"><ele>275.75</ele><time>2026-05-02T06:23:23.953Z</time></trkpt><trkpt lat="43.9715113" lon="11.2722985"><ele>275.5</ele><time>2026-05-02T06:23:25.017Z</time></trkpt><trkpt lat="43.9714641" lon="11.2724478"><ele>275.25</ele><time>2026-05-02T06:23:25.957Z</time></trkpt><trkpt lat="43.9713882" lon="11.2726082"><ele>275.0</ele><time>2026-05-02T06:23:26.955Z</time></trkpt><trkpt lat="43.9713065" lon="11.2727735"><ele>275.0</ele><time>2026-05-02T06:23:28.014Z</time></trkpt><trkpt lat="43.9712338" lon="11.2729497"><ele>275.0</ele><time>2026-05-02T06:23:28.947Z</time></trkpt><trkpt lat="43.971155" lon="11.2731213"><ele>275.0</ele><time>2026-05-02T06:23:30.05Z</time></trkpt><trkpt lat="43.9710816" lon="11.2732864"><ele>275.0</ele><time>2026-05-02T06:23:30.969Z</time></trkpt><trkpt lat="43.9709972" lon="11.2734424"><ele>275.5</ele><time>2026-05-02T06:23:31.971Z</time></trkpt><trkpt lat="43.9708985" lon="11.2735852"><ele>276.0</ele><time>2026-05-02T06:23:32.966Z</time></trkpt><trkpt lat="43.9708007" lon="11.2736964"><ele>276.5</ele><time>2026-05-02T06:23:33.963Z</time></trkpt><trkpt lat="43.9707131" lon="11.27382"><ele>277.0</ele><time>2026-05-02T06:23:34.957Z</time></trkpt><trkpt lat="43.9706558" lon="11.2739664"><ele>276.0</ele><time>2026-05-02T06:23:35.956Z</time></trkpt><trkpt lat="43.9706377" lon="11.2741316"><ele>275.0</ele><time>2026-05-02T06:23:36.958Z</time></trkpt><trkpt lat="43.9706469" lon="11.2743125"><ele>274.0</ele><time>2026-05-02T06:23:37.964Z</time></trkpt><trkpt lat="43.9706647" lon="11.2745089"><ele>273.0</ele><time>2026-05-02T06:23:38.967Z</time></trkpt><trkpt lat="43.9706734" lon="11.2747013"><ele>272.75</ele><time>2026-05-02T06:23:40.03Z</time></trkpt><trkpt lat="43.9706808" lon="11.2748989"><ele>272.5</ele><time>2026-05-02T06:23:40.964Z</time></trkpt><trkpt lat="43.970695" lon="11.2750922"><ele>272.25</ele><time>2026-05-02T06:23:41.96Z</time></trkpt><trkpt lat="43.9707355" lon="11.2752823"><ele>272.0</ele><time>2026-05-02T06:23:42.945Z</time></trkpt><trkpt lat="43.9708034" lon="11.2754522"><ele>272.5</ele><time>2026-05-02T06:23:44.041Z</time></trkpt><trkpt lat="43.9708999" lon="11.2755787"><ele>273.0</ele><time>2026-05-02T06:23:44.964Z</time></trkpt><trkpt lat="43.9710287" lon="11.2756835"><ele>273.5</ele><time>2026-05-02T06:23:45.965Z</time></trkpt><trkpt lat="43.9711725" lon="11.2757514"><ele>274.0</ele><time>2026-05-02T06:23:46.964Z</time></trkpt><trkpt lat="43.9713233" lon="11.2758079"><ele>274.0</ele><time>2026-05-02T06:23:47.963Z</time></trkpt><trkpt lat="43.9714778" lon="11.2758653"><ele>274.0</ele><time>2026-05-02T06:23:48.963Z</time></trkpt><trkpt lat="43.9716227" lon="11.2759215"><ele>274.0</ele><time>2026-05-02T06:23:49.969Z</time></trkpt><trkpt lat="43.9717522" lon="11.2759908"><ele>274.0</ele><time>2026-05-02T06:23:50.954Z</time></trkpt><trkpt lat="43.9718611" lon="11.2760914"><ele>272.0</ele><time>2026-05-02T06:23:51.959Z</time></trkpt><trkpt lat="43.9719402" lon="11.2762084"><ele>270.0</ele><time>2026-05-02T06:23:52.963Z</time></trkpt><trkpt lat="43.9720095" lon="11.2763443"><ele>268.0</ele><time>2026-05-02T06:23:53.98Z</time></trkpt><trkpt lat="43.9720497" lon="11.2765203"><ele>266.0</ele><time>2026-05-02T06:23:54.981Z</time></trkpt><trkpt lat="43.9720682" lon="11.2767211"><ele>266.0</ele><time>2026-05-02T06:23:55.967Z</time></trkpt><trkpt lat="43.9720656" lon="11.2769207"><ele>266.0</ele><time>2026-05-02T06:23:57.035Z</time></trkpt><trkpt lat="43.9720531" lon="11.2771194"><ele>266.0</ele><time>2026-05-02T06:23:57.956Z</time></trkpt><trkpt lat="43.972031" lon="11.2773033"><ele>266.0</ele><time>2026-05-02T06:23:58.988Z</time></trkpt><trkpt lat="43.9719757" lon="11.2774527"><ele>266.0</ele><time>2026-05-02T06:23:59.962Z</time></trkpt><trkpt lat="43.9718877" lon="11.2775667"><ele>266.0</ele><time>2026-05-02T06:24:00.968Z</time></trkpt><trkpt lat="43.9717668" lon="11.2776609"><ele>266.0</ele><time>2026-05-02T06:24:01.943Z</time></trkpt><trkpt lat="43.971646" lon="11.2777479"><ele>266.0</ele><time>2026-05-02T06:24:03.036Z</time></trkpt><trkpt lat="43.9715235" lon="11.2778324"><ele>268.75</ele><time>2026-05-02T06:24:04.021Z</time></trkpt><trkpt lat="43.9714172" lon="11.2778915"><ele>271.5</ele><time>2026-05-02T06:24:04.967Z</time></trkpt><trkpt lat="43.9713098" lon="11.2779259"><ele>274.25</ele><time>2026-05-02T06:24:05.967Z</time></trkpt><trkpt lat="43.9711982" lon="11.277923"><ele>277.0</ele><time>2026-05-02T06:24:06.969Z</time></trkpt><trkpt lat="43.9710763" lon="11.277813"><ele>277.0</ele><time>2026-05-02T06:24:07.973Z</time></trkpt><trkpt lat="43.9709721" lon="11.2776358"><ele>277.0</ele><time>2026-05-02T06:24:08.977Z</time></trkpt><trkpt lat="43.9708678" lon="11.2774609"><ele>277.0</ele><time>2026-05-02T06:24:09.978Z</time></trkpt><trkpt lat="43.9707561" lon="11.2773253"><ele>278.25</ele><time>2026-05-02T06:24:10.965Z</time></trkpt><trkpt lat="43.9706257" lon="11.2772445"><ele>279.5</ele><time>2026-05-02T06:24:11.954Z</time></trkpt><trkpt lat="43.9704803" lon="11.2772185"><ele>280.75</ele><time>2026-05-02T06:24:12.958Z</time></trkpt><trkpt lat="43.9703522" lon="11.2772216"><ele>282.0</ele><time>2026-05-02T06:24:13.973Z</time></trkpt><trkpt lat="43.9702443" lon="11.2772567"><ele>279.75</ele><time>2026-05-02T06:24:14.976Z</time></trkpt><trkpt lat="43.9701354" lon="11.2773438"><ele>277.5</ele><time>2026-05-02T06:24:15.975Z</time></trkpt><trkpt lat="43.9700553" lon="11.2774929"><ele>275.25</ele><time>2026-05-02T06:24:16.976Z</time></trkpt><trkpt lat="43.969989" lon="11.2776661"><ele>273.0</ele><time>2026-05-02T06:24:17.963Z</time></trkpt><trkpt lat="43.9699365" lon="11.2778509"><ele>273.0</ele><time>2026-05-02T06:24:18.979Z</time></trkpt><trkpt lat="43.969882" lon="11.2780379"><ele>273.0</ele><time>2026-05-02T06:24:19.969Z</time></trkpt><trkpt lat="43.9698227" lon="11.2782107"><ele>273.0</ele><time>2026-05-02T06:24:20.964Z</time></trkpt><trkpt lat="43.9697808" lon="11.278377"><ele>273.0</ele><time>2026-05-02T06:24:21.965Z</time></trkpt><trkpt lat="43.9697766" lon="11.2785453"><ele>270.0</ele><time>2026-05-02T06:24:22.991Z</time></trkpt><trkpt lat="43.9698052" lon="11.278717"><ele>267.0</ele><time>2026-05-02T06:24:23.97Z</time></trkpt><trkpt lat="43.9698671" lon="11.2788931"><ele>264.0</ele><time>2026-05-02T06:24:24.97Z</time></trkpt><trkpt lat="43.9699356" lon="11.2790758"><ele>261.0</ele><time>2026-05-02T06:24:25.974Z</time></trkpt><trkpt lat="43.9700125" lon="11.279267"><ele>257.3333333333333</ele><time>2026-05-02T06:24:26.976Z</time></trkpt><trkpt lat="43.9700904" lon="11.2794588"><ele>253.66666666666666</ele><time>2026-05-02T06:24:27.975Z</time></trkpt><trkpt lat="43.9701644" lon="11.2796541"><ele>250.0</ele><time>2026-05-02T06:24:28.981Z</time></trkpt><trkpt lat="43.9702431" lon="11.2798418"><ele>249.0</ele><time>2026-05-02T06:24:29.975Z</time></trkpt><trkpt lat="43.9703186" lon="11.2800249"><ele>248.0</ele><time>2026-05-02T06:24:30.964Z</time></trkpt><trkpt lat="43.9703983" lon="11.2802202"><ele>247.0</ele><time>2026-05-02T06:24:31.966Z</time></trkpt><trkpt lat="43.9704816" lon="11.2804106"><ele>247.0</ele><time>2026-05-02T06:24:32.964Z</time></trkpt><trkpt lat="43.970573" lon="11.2805911"><ele>247.0</ele><time>2026-05-02T06:24:33.961Z</time></trkpt><trkpt lat="43.9706667" lon="11.2807729"><ele>247.0</ele><time>2026-05-02T06:24:34.961Z</time></trkpt><trkpt lat="43.9708854" lon="11.2811808"><ele>247.8</ele><time>2026-05-02T06:24:37.959Z</time></trkpt><trkpt lat="43.9709936" lon="11.2813253"><ele>248.6</ele><time>2026-05-02T06:24:38.964Z</time></trkpt><trkpt lat="43.9710442" lon="11.2814573"><ele>249.40000000000003</ele><time>2026-05-02T06:24:39.969Z</time></trkpt><trkpt lat="43.9710832" lon="11.2815439"><ele>250.20000000000002</ele><time>2026-05-02T06:24:40.968Z</time></trkpt><trkpt lat="43.9711221" lon="11.281656"><ele>251.0</ele><time>2026-05-02T06:24:42.972Z</time></trkpt><trkpt lat="43.9711673" lon="11.2818076"><ele>256.0</ele><time>2026-05-02T06:24:44.956Z</time></trkpt><trkpt lat="43.9712016" lon="11.2818947"><ele>261.0</ele><time>2026-05-02T06:24:45.977Z</time></trkpt><trkpt lat="43.971233" lon="11.2819821"><ele>266.0</ele><time>2026-05-02T06:24:46.955Z</time></trkpt><trkpt lat="43.9722178" lon="11.2814405"><ele>250.0</ele><time>2026-05-02T06:24:56.737Z</time></trkpt><trkpt lat="43.9723728" lon="11.2858127"><ele>250.0</ele><time>2026-05-02T06:25:08.038Z</time></trkpt><trkpt lat="43.9724603" lon="11.2859815"><ele>250.0</ele><time>2026-05-02T06:25:09.016Z</time></trkpt><trkpt lat="43.9725213" lon="11.2861582"><ele>250.0</ele><time>2026-05-02T06:25:10.033Z</time></trkpt><trkpt lat="43.9726027" lon="11.2862718"><ele>250.0</ele><time>2026-05-02T06:25:10.965Z</time></trkpt><trkpt lat="43.9726898" lon="11.2863867"><ele>247.25</ele><time>2026-05-02T06:25:11.967Z</time></trkpt><trkpt lat="43.9727783" lon="11.2865142"><ele>244.5</ele><time>2026-05-02T06:25:12.96Z</time></trkpt><trkpt lat="43.9728667" lon="11.2866469"><ele>241.75</ele><time>2026-05-02T06:25:14.038Z</time></trkpt><trkpt lat="43.9729245" lon="11.2868008"><ele>239.0</ele><time>2026-05-02T06:25:14.97Z</time></trkpt><trkpt lat="43.972968" lon="11.2869525"><ele>239.0</ele><time>2026-05-02T06:25:15.971Z</time></trkpt><trkpt lat="43.9730112" lon="11.2871039"><ele>239.0</ele><time>2026-05-02T06:25:16.977Z</time></trkpt><trkpt lat="43.9730395" lon="11.2872605"><ele>239.0</ele><time>2026-05-02T06:25:17.961Z</time></trkpt><trkpt lat="43.973042" lon="11.2874254"><ele>239.0</ele><time>2026-05-02T06:25:18.966Z</time></trkpt><trkpt lat="43.9730169" lon="11.2875708"><ele>237.0</ele><time>2026-05-02T06:25:19.96Z</time></trkpt><trkpt lat="43.9729604" lon="11.2877105"><ele>234.99999999999997</ele><time>2026-05-02T06:25:20.972Z</time></trkpt><trkpt lat="43.972906" lon="11.287834"><ele>232.99999999999997</ele><time>2026-05-02T06:25:21.966Z</time></trkpt><trkpt lat="43.9728862" lon="11.2879735"><ele>231.0</ele><time>2026-05-02T06:25:22.966Z</time></trkpt><trkpt lat="43.9728868" lon="11.2881157"><ele>229.0</ele><time>2026-05-02T06:25:23.967Z</time></trkpt><trkpt lat="43.9729034" lon="11.2882449"><ele>228.42857142857142</ele><time>2026-05-02T06:25:24.964Z</time></trkpt><trkpt lat="43.9729258" lon="11.2883405"><ele>227.8571428571429</ele><time>2026-05-02T06:25:25.968Z</time></trkpt><trkpt lat="43.9729411" lon="11.2884397"><ele>227.2857142857143</ele><time>2026-05-02T06:25:27.962Z</time></trkpt><trkpt lat="43.9729288" lon="11.2885324"><ele>226.71428571428572</ele><time>2026-05-02T06:25:29.964Z</time></trkpt><trkpt lat="43.9729128" lon="11.2886197"><ele>226.14285714285717</ele><time>2026-05-02T06:25:30.971Z</time></trkpt><trkpt lat="43.9728977" lon="11.2887246"><ele>225.5714285714286</ele><time>2026-05-02T06:25:31.962Z</time></trkpt><trkpt lat="43.9728937" lon="11.2888406"><ele>225.00000000000003</ele><time>2026-05-02T06:25:32.962Z</time></trkpt><trkpt lat="43.9729165" lon="11.2889489"><ele>224.5</ele><time>2026-05-02T06:25:33.963Z</time></trkpt><trkpt lat="43.9729659" lon="11.2890671"><ele>224.0</ele><time>2026-05-02T06:25:34.966Z</time></trkpt><trkpt lat="43.9730334" lon="11.2891351"><ele>223.5</ele><time>2026-05-02T06:25:35.962Z</time></trkpt><trkpt lat="43.9731111" lon="11.289186"><ele>223.0</ele><time>2026-05-02T06:25:36.95Z</time></trkpt><trkpt lat="43.9731874" lon="11.2892316"><ele>222.5</ele><time>2026-05-02T06:25:37.963Z</time></trkpt><trkpt lat="43.9732484" lon="11.2892538"><ele>222.0</ele><time>2026-05-02T06:25:38.97Z</time></trkpt><trkpt lat="43.9733066" lon="11.2893043"><ele>222.0</ele><time>2026-05-02T06:25:40.976Z</time></trkpt><trkpt lat="43.9733555" lon="11.2894177"><ele>222.0</ele><time>2026-05-02T06:25:42.961Z</time></trkpt><trkpt lat="43.9733833" lon="11.2895092"><ele>222.0</ele><time>2026-05-02T06:25:43.961Z</time></trkpt><trkpt lat="43.9734251" lon="11.2895979"><ele>222.0</ele><time>2026-05-02T06:25:44.953Z</time></trkpt><trkpt lat="43.9734698" lon="11.2896669"><ele>222.0</ele><time>2026-05-02T06:25:45.969Z</time></trkpt><trkpt lat="43.9735634" lon="11.28973"><ele>222.0</ele><time>2026-05-02T06:25:47.973Z</time></trkpt><trkpt lat="43.9736256" lon="11.2897773"><ele>221.7142857142857</ele><time>2026-05-02T06:25:50.968Z</time></trkpt><trkpt lat="43.97362" lon="11.2896887"><ele>221.42857142857144</ele><time>2026-05-02T06:25:55.966Z</time></trkpt><trkpt lat="43.97355" lon="11.2896869"><ele>221.14285714285714</ele><time>2026-05-02T06:25:57.969Z</time></trkpt><trkpt lat="43.9734815" lon="11.2896718"><ele>220.85714285714283</ele><time>2026-05-02T06:26:00.974Z</time></trkpt><trkpt lat="43.9735415" lon="11.2897123"><ele>220.57142857142856</ele><time>2026-05-02T06:26:07.964Z</time></trkpt><trkpt lat="43.9735299" lon="11.2898163"><ele>220.28571428571428</ele><time>2026-05-02T06:26:11.967Z</time></trkpt><trkpt lat="43.9734645" lon="11.2898316"><ele>220.0</ele><time>2026-05-02T06:26:14.963Z</time></trkpt><trkpt lat="43.9733935" lon="11.2898254"><ele>219.99999999999997</ele><time>2026-05-02T06:26:16.97Z</time></trkpt><trkpt lat="43.9733014" lon="11.2898146"><ele>220.0</ele><time>2026-05-02T06:26:18.969Z</time></trkpt><trkpt lat="43.9732198" lon="11.2898062"><ele>220.0</ele><time>2026-05-02T06:26:20.966Z</time></trkpt><trkpt lat="43.9731382" lon="11.2898042"><ele>220.0</ele><time>2026-05-02T06:26:22.967Z</time></trkpt><trkpt lat="43.9730531" lon="11.2897926"><ele>219.99999999999997</ele><time>2026-05-02T06:26:24.965Z</time></trkpt><trkpt lat="43.9729785" lon="11.2898123"><ele>220.0</ele><time>2026-05-02T06:26:26.971Z</time></trkpt><trkpt lat="43.9729156" lon="11.2898468"><ele>220.0</ele><time>2026-05-02T06:26:28.969Z</time></trkpt><trkpt lat="43.9728222" lon="11.2898886"><ele>220.0</ele><time>2026-05-02T06:26:31.966Z</time></trkpt><trkpt lat="43.9727182" lon="11.289921"><ele>220.0</ele><time>2026-05-02T06:26:33.967Z</time></trkpt><trkpt lat="43.9726204" lon="11.2899463"><ele>220.0</ele><time>2026-05-02T06:26:35.976Z</time></trkpt><trkpt lat="43.9725469" lon="11.289974"><ele>220.0</ele><time>2026-05-02T06:26:37.974Z</time></trkpt><trkpt lat="43.9724661" lon="11.2899994"><ele>220.0</ele><time>2026-05-02T06:26:40.951Z</time></trkpt><trkpt lat="43.9725636" lon="11.2899673"><ele>220.0</ele><time>2026-05-02T06:26:55.961Z</time></trkpt><trkpt lat="43.9726518" lon="11.2899445"><ele>220.0</ele><time>2026-05-02T06:26:57.961Z</time></trkpt><trkpt lat="43.9727684" lon="11.2898982"><ele>220.0</ele><time>2026-05-02T06:26:59.966Z</time></trkpt><trkpt lat="43.9728291" lon="11.2898736"><ele>220.0</ele><time>2026-05-02T06:27:00.949Z</time></trkpt><trkpt lat="43.9729298" lon="11.2898352"><ele>220.0</ele><time>2026-05-02T06:27:03.036Z</time></trkpt><trkpt lat="43.9730251" lon="11.2897884"><ele>220.0</ele><time>2026-05-02T06:27:04.97Z</time></trkpt><trkpt lat="43.9731604" lon="11.289768"><ele>220.0</ele><time>2026-05-02T06:27:06.977Z</time></trkpt><trkpt lat="43.9732468" lon="11.2897731"><ele>220.0</ele><time>2026-05-02T06:27:07.977Z</time></trkpt><trkpt lat="43.9733349" lon="11.2897815"><ele>220.0</ele><time>2026-05-02T06:27:08.968Z</time></trkpt><trkpt lat="43.9734231" lon="11.2897816"><ele>219.99999999999997</ele><time>2026-05-02T06:27:10.041Z</time></trkpt><trkpt lat="43.9735001" lon="11.2897867"><ele>220.0</ele><time>2026-05-02T06:27:10.97Z</time></trkpt><trkpt lat="43.9735604" lon="11.2897534"><ele>220.0</ele><time>2026-05-02T06:27:12.96Z</time></trkpt><trkpt lat="43.9735185" lon="11.2896783"><ele>220.0</ele><time>2026-05-02T06:27:17.037Z</time></trkpt><trkpt lat="43.973425" lon="11.2895953"><ele>219.99999999999997</ele><time>2026-05-02T06:27:19.034Z</time></trkpt><trkpt lat="43.9733827" lon="11.2895198"><ele>220.0</ele><time>2026-05-02T06:27:20.032Z</time></trkpt><trkpt lat="43.9733409" lon="11.289443"><ele>219.8</ele><time>2026-05-02T06:27:20.961Z</time></trkpt><trkpt lat="43.973314" lon="11.2893012"><ele>219.6</ele><time>2026-05-02T06:27:22.974Z</time></trkpt><trkpt lat="43.9733468" lon="11.2891316"><ele>219.39999999999998</ele><time>2026-05-02T06:27:25.955Z</time></trkpt><trkpt lat="43.9733791" lon="11.2890463"><ele>219.2</ele><time>2026-05-02T06:27:26.952Z</time></trkpt><trkpt lat="43.973413" lon="11.2889471"><ele>219.0</ele><time>2026-05-02T06:27:28.03Z</time></trkpt><trkpt lat="43.9734476" lon="11.2888216"><ele>219.6</ele><time>2026-05-02T06:27:28.955Z</time></trkpt><trkpt lat="43.9734925" lon="11.288703"><ele>220.2</ele><time>2026-05-02T06:27:30.031Z</time></trkpt><trkpt lat="43.9735598" lon="11.2886071"><ele>220.79999999999998</ele><time>2026-05-02T06:27:30.957Z</time></trkpt><trkpt lat="43.9736537" lon="11.2885396"><ele>221.39999999999998</ele><time>2026-05-02T06:27:31.964Z</time></trkpt><trkpt lat="43.9737569" lon="11.2884862"><ele>222.0</ele><time>2026-05-02T06:27:32.964Z</time></trkpt><trkpt lat="43.9738682" lon="11.288438"><ele>222.0</ele><time>2026-05-02T06:27:33.961Z</time></trkpt><trkpt lat="43.9739838" lon="11.2883948"><ele>222.0</ele><time>2026-05-02T06:27:34.955Z</time></trkpt><trkpt lat="43.9741018" lon="11.2883502"><ele>222.0</ele><time>2026-05-02T06:27:35.97Z</time></trkpt><trkpt lat="43.9742268" lon="11.2883104"><ele>222.0</ele><time>2026-05-02T06:27:37.04Z</time></trkpt><trkpt lat="43.9743508" lon="11.2882724"><ele>222.5</ele><time>2026-05-02T06:27:38.037Z</time></trkpt><trkpt lat="43.9744707" lon="11.2882398"><ele>223.0</ele><time>2026-05-02T06:27:38.957Z</time></trkpt><trkpt lat="43.9745915" lon="11.2882102"><ele>223.5</ele><time>2026-05-02T06:27:39.955Z</time></trkpt><trkpt lat="43.9747118" lon="11.2881813"><ele>224.0</ele><time>2026-05-02T06:27:40.963Z</time></trkpt><trkpt lat="43.9748349" lon="11.2881616"><ele>224.0</ele><time>2026-05-02T06:27:41.966Z</time></trkpt><trkpt lat="43.974973" lon="11.288146"><ele>224.0</ele><time>2026-05-02T06:27:42.954Z</time></trkpt><trkpt lat="43.9751135" lon="11.288131"><ele>224.0</ele><time>2026-05-02T06:27:43.954Z</time></trkpt><trkpt lat="43.9752569" lon="11.2881337"><ele>224.0</ele><time>2026-05-02T06:27:45.039Z</time></trkpt><trkpt lat="43.9753973" lon="11.2881312"><ele>223.5</ele><time>2026-05-02T06:27:45.959Z</time></trkpt><trkpt lat="43.9755368" lon="11.2881296"><ele>223.0</ele><time>2026-05-02T06:27:46.964Z</time></trkpt><trkpt lat="43.9756789" lon="11.2881362"><ele>222.5</ele><time>2026-05-02T06:27:47.968Z</time></trkpt><trkpt lat="43.9758202" lon="11.288146"><ele>222.0</ele><time>2026-05-02T06:27:48.966Z</time></trkpt><trkpt lat="43.9759658" lon="11.2881605"><ele>222.0</ele><time>2026-05-02T06:27:50.04Z</time></trkpt><trkpt lat="43.9761123" lon="11.2881845"><ele>222.0</ele><time>2026-05-02T06:27:50.959Z</time></trkpt><trkpt lat="43.9762681" lon="11.2882149"><ele>222.0</ele><time>2026-05-02T06:27:51.963Z</time></trkpt><trkpt lat="43.9764221" lon="11.2882436"><ele>222.0</ele><time>2026-05-02T06:27:52.979Z</time></trkpt><trkpt lat="43.9765784" lon="11.2882667"><ele>222.0</ele><time>2026-05-02T06:27:54.04Z</time></trkpt><trkpt lat="43.9767316" lon="11.2882935"><ele>222.0</ele><time>2026-05-02T06:27:55.043Z</time></trkpt><trkpt lat="43.9768889" lon="11.2883234"><ele>224.0</ele><time>2026-05-02T06:27:55.96Z</time></trkpt><trkpt lat="43.9770499" lon="11.2883523"><ele>226.0</ele><time>2026-05-02T06:27:56.946Z</time></trkpt><trkpt lat="43.9772102" lon="11.2883844"><ele>228.0</ele><time>2026-05-02T06:27:57.964Z</time></trkpt><trkpt lat="43.9773698" lon="11.2884132"><ele>229.33333333333331</ele><time>2026-05-02T06:27:59.031Z</time></trkpt><trkpt lat="43.9775307" lon="11.2884437"><ele>230.66666666666666</ele><time>2026-05-02T06:27:59.959Z</time></trkpt><trkpt lat="43.9776918" lon="11.2884744"><ele>232.0</ele><time>2026-05-02T06:28:00.968Z</time></trkpt><trkpt lat="43.9778476" lon="11.2884957"><ele>232.0</ele><time>2026-05-02T06:28:01.955Z</time></trkpt><trkpt lat="43.9780073" lon="11.2885143"><ele>232.0</ele><time>2026-05-02T06:28:02.969Z</time></trkpt><trkpt lat="43.9781666" lon="11.2885309"><ele>232.0</ele><time>2026-05-02T06:28:03.96Z</time></trkpt><trkpt lat="43.9783222" lon="11.2885392"><ele>233.66666666666666</ele><time>2026-05-02T06:28:05.045Z</time></trkpt><trkpt lat="43.9784791" lon="11.288544"><ele>235.33333333333331</ele><time>2026-05-02T06:28:05.982Z</time></trkpt><trkpt lat="43.9786277" lon="11.2885487"><ele>237.0</ele><time>2026-05-02T06:28:06.99Z</time></trkpt><trkpt lat="43.9787779" lon="11.2885429"><ele>237.0</ele><time>2026-05-02T06:28:08.014Z</time></trkpt><trkpt lat="43.9789185" lon="11.2885421"><ele>237.0</ele><time>2026-05-02T06:28:08.97Z</time></trkpt><trkpt lat="43.9790679" lon="11.2885336"><ele>237.0</ele><time>2026-05-02T06:28:09.974Z</time></trkpt><trkpt lat="43.9792163" lon="11.2885154"><ele>237.0</ele><time>2026-05-02T06:28:10.982Z</time></trkpt><trkpt lat="43.9793667" lon="11.2884934"><ele>237.66666666666669</ele><time>2026-05-02T06:28:11.975Z</time></trkpt><trkpt lat="43.9795213" lon="11.2884712"><ele>238.33333333333334</ele><time>2026-05-02T06:28:12.984Z</time></trkpt><trkpt lat="43.9796677" lon="11.288445"><ele>239.0</ele><time>2026-05-02T06:28:13.986Z</time></trkpt><trkpt lat="43.9798182" lon="11.2884201"><ele>239.0</ele><time>2026-05-02T06:28:14.982Z</time></trkpt><trkpt lat="43.9799635" lon="11.2884076"><ele>239.0</ele><time>2026-05-02T06:28:15.983Z</time></trkpt><trkpt lat="43.9801034" lon="11.2884131"><ele>239.0</ele><time>2026-05-02T06:28:16.98Z</time></trkpt><trkpt lat="43.9802351" lon="11.2884309"><ele>239.0</ele><time>2026-05-02T06:28:17.98Z</time></trkpt><trkpt lat="43.9803698" lon="11.288474"><ele>240.5</ele><time>2026-05-02T06:28:18.969Z</time></trkpt><trkpt lat="43.9805005" lon="11.2885296"><ele>242.0</ele><time>2026-05-02T06:28:19.966Z</time></trkpt><trkpt lat="43.9806271" lon="11.288593"><ele>243.5</ele><time>2026-05-02T06:28:20.964Z</time></trkpt><trkpt lat="43.9807519" lon="11.2886595"><ele>245.0</ele><time>2026-05-02T06:28:21.983Z</time></trkpt><trkpt lat="43.9808773" lon="11.288719"><ele>246.0</ele><time>2026-05-02T06:28:22.978Z</time></trkpt><trkpt lat="43.9810067" lon="11.2887862"><ele>247.0</ele><time>2026-05-02T06:28:23.978Z</time></trkpt><trkpt lat="43.9811398" lon="11.2888538"><ele>248.0</ele><time>2026-05-02T06:28:24.984Z</time></trkpt><trkpt lat="43.9812779" lon="11.2889164"><ele>249.0</ele><time>2026-05-02T06:28:25.986Z</time></trkpt><trkpt lat="43.9814149" lon="11.2889691"><ele>249.0</ele><time>2026-05-02T06:28:26.984Z</time></trkpt><trkpt lat="43.9815543" lon="11.2890001"><ele>249.0</ele><time>2026-05-02T06:28:27.97Z</time></trkpt><trkpt lat="43.9817023" lon="11.2889971"><ele>249.0</ele><time>2026-05-02T06:28:28.978Z</time></trkpt><trkpt lat="43.9818531" lon="11.2889289"><ele>249.0</ele><time>2026-05-02T06:28:29.97Z</time></trkpt><trkpt lat="43.9819977" lon="11.2888236"><ele>250.33333333333331</ele><time>2026-05-02T06:28:30.966Z</time></trkpt><trkpt lat="43.9821378" lon="11.2887071"><ele>251.66666666666666</ele><time>2026-05-02T06:28:31.972Z</time></trkpt><trkpt lat="43.9822743" lon="11.2885879"><ele>253.0</ele><time>2026-05-02T06:28:32.977Z</time></trkpt><trkpt lat="43.9823974" lon="11.2884588"><ele>253.0</ele><time>2026-05-02T06:28:33.977Z</time></trkpt><trkpt lat="43.9825183" lon="11.288318"><ele>253.0</ele><time>2026-05-02T06:28:34.985Z</time></trkpt><trkpt lat="43.982639" lon="11.288187"><ele>253.0</ele><time>2026-05-02T06:28:35.981Z</time></trkpt><trkpt lat="43.9827499" lon="11.2880585"><ele>253.0</ele><time>2026-05-02T06:28:36.974Z</time></trkpt><trkpt lat="43.9828648" lon="11.2879381"><ele>253.0</ele><time>2026-05-02T06:28:37.975Z</time></trkpt><trkpt lat="43.9829844" lon="11.2878269"><ele>253.0</ele><time>2026-05-02T06:28:38.959Z</time></trkpt><trkpt lat="43.9831138" lon="11.2877337"><ele>253.0</ele><time>2026-05-02T06:28:39.959Z</time></trkpt><trkpt lat="43.9832578" lon="11.2876583"><ele>253.75</ele><time>2026-05-02T06:28:40.958Z</time></trkpt><trkpt lat="43.9834018" lon="11.2876083"><ele>254.5</ele><time>2026-05-02T06:28:41.971Z</time></trkpt><trkpt lat="43.983545" lon="11.2875726"><ele>255.25</ele><time>2026-05-02T06:28:42.96Z</time></trkpt><trkpt lat="43.9836906" lon="11.2875568"><ele>256.0</ele><time>2026-05-02T06:28:43.984Z</time></trkpt><trkpt lat="43.9838407" lon="11.2875613"><ele>256.0</ele><time>2026-05-02T06:28:44.975Z</time></trkpt><trkpt lat="43.9840027" lon="11.28756"><ele>256.0</ele><time>2026-05-02T06:28:45.971Z</time></trkpt><trkpt lat="43.9841647" lon="11.2875596"><ele>256.0</ele><time>2026-05-02T06:28:46.989Z</time></trkpt><trkpt lat="43.9843265" lon="11.2875457"><ele>256.66666666666663</ele><time>2026-05-02T06:28:47.989Z</time></trkpt><trkpt lat="43.9844875" lon="11.2875332"><ele>257.3333333333333</ele><time>2026-05-02T06:28:48.991Z</time></trkpt><trkpt lat="43.9846492" lon="11.2875208"><ele>258.0</ele><time>2026-05-02T06:28:49.98Z</time></trkpt><trkpt lat="43.984805" lon="11.2875161"><ele>258.0</ele><time>2026-05-02T06:28:50.982Z</time></trkpt><trkpt lat="43.9849594" lon="11.2875175"><ele>258.0</ele><time>2026-05-02T06:28:51.986Z</time></trkpt><trkpt lat="43.9851164" lon="11.2875169"><ele>258.0</ele><time>2026-05-02T06:28:52.979Z</time></trkpt><trkpt lat="43.9852693" lon="11.2875358"><ele>257.0</ele><time>2026-05-02T06:28:53.99Z</time></trkpt><trkpt lat="43.9854228" lon="11.2875626"><ele>256.0</ele><time>2026-05-02T06:28:54.983Z</time></trkpt><trkpt lat="43.9855783" lon="11.2876016"><ele>255.0</ele><time>2026-05-02T06:28:55.979Z</time></trkpt><trkpt lat="43.9857311" lon="11.2876349"><ele>254.33333333333331</ele><time>2026-05-02T06:28:56.978Z</time></trkpt><trkpt lat="43.9858873" lon="11.2876818"><ele>253.66666666666666</ele><time>2026-05-02T06:28:57.97Z</time></trkpt><trkpt lat="43.9860377" lon="11.2877326"><ele>253.0</ele><time>2026-05-02T06:28:58.978Z</time></trkpt><trkpt lat="43.9861936" lon="11.287784"><ele>253.0</ele><time>2026-05-02T06:28:59.988Z</time></trkpt><trkpt lat="43.9863598" lon="11.2878387"><ele>253.0</ele><time>2026-05-02T06:29:00.986Z</time></trkpt><trkpt lat="43.9865195" lon="11.2878911"><ele>253.0</ele><time>2026-05-02T06:29:01.973Z</time></trkpt><trkpt lat="43.9866756" lon="11.2879389"><ele>253.66666666666666</ele><time>2026-05-02T06:29:02.975Z</time></trkpt><trkpt lat="43.9868285" lon="11.2879891"><ele>254.33333333333331</ele><time>2026-05-02T06:29:03.98Z</time></trkpt><trkpt lat="43.9869856" lon="11.2880354"><ele>255.0</ele><time>2026-05-02T06:29:04.967Z</time></trkpt><trkpt lat="43.9871418" lon="11.2880891"><ele>256.0</ele><time>2026-05-02T06:29:05.973Z</time></trkpt><trkpt lat="43.9872977" lon="11.2881446"><ele>257.0</ele><time>2026-05-02T06:29:07.054Z</time></trkpt><trkpt lat="43.987456" lon="11.2882012"><ele>258.0</ele><time>2026-05-02T06:29:08.03Z</time></trkpt><trkpt lat="43.9876175" lon="11.2882537"><ele>258.0</ele><time>2026-05-02T06:29:09.038Z</time></trkpt><trkpt lat="43.9877729" lon="11.2883078"><ele>258.0</ele><time>2026-05-02T06:29:09.959Z</time></trkpt><trkpt lat="43.9879333" lon="11.2883632"><ele>258.0</ele><time>2026-05-02T06:29:10.95Z</time></trkpt><trkpt lat="43.9880903" lon="11.2884175"><ele>258.0</ele><time>2026-05-02T06:29:11.956Z</time></trkpt><trkpt lat="43.9882473" lon="11.288471"><ele>258.0</ele><time>2026-05-02T06:29:13.03Z</time></trkpt><trkpt lat="43.9884049" lon="11.2885276"><ele>258.0</ele><time>2026-05-02T06:29:13.978Z</time></trkpt><trkpt lat="43.988558" lon="11.2885813"><ele>258.3333333333333</ele><time>2026-05-02T06:29:15.027Z</time></trkpt><trkpt lat="43.9887117" lon="11.2886375"><ele>258.66666666666663</ele><time>2026-05-02T06:29:15.952Z</time></trkpt><trkpt lat="43.9888672" lon="11.2886926"><ele>259.0</ele><time>2026-05-02T06:29:16.956Z</time></trkpt><trkpt lat="43.9890225" lon="11.2887476"><ele>259.66666666666663</ele><time>2026-05-02T06:29:17.951Z</time></trkpt><trkpt lat="43.9891804" lon="11.288793"><ele>260.3333333333333</ele><time>2026-05-02T06:29:18.965Z</time></trkpt><trkpt lat="43.9893376" lon="11.2888411"><ele>261.0</ele><time>2026-05-02T06:29:19.965Z</time></trkpt><trkpt lat="43.9894934" lon="11.2888925"><ele>261.3333333333333</ele><time>2026-05-02T06:29:20.955Z</time></trkpt><trkpt lat="43.9896486" lon="11.2889448"><ele>261.66666666666663</ele><time>2026-05-02T06:29:22.034Z</time></trkpt><trkpt lat="43.9898037" lon="11.2889998"><ele>262.0</ele><time>2026-05-02T06:29:23.034Z</time></trkpt><trkpt lat="43.9899547" lon="11.2890538"><ele>263.0</ele><time>2026-05-02T06:29:23.964Z</time></trkpt><trkpt lat="43.9901054" lon="11.2891013"><ele>264.0</ele><time>2026-05-02T06:29:25.031Z</time></trkpt><trkpt lat="43.9902551" lon="11.2891499"><ele>265.0</ele><time>2026-05-02T06:29:25.961Z</time></trkpt><trkpt lat="43.9904045" lon="11.2892016"><ele>265.0</ele><time>2026-05-02T06:29:26.973Z</time></trkpt><trkpt lat="43.9905552" lon="11.2892545"><ele>265.0</ele><time>2026-05-02T06:29:27.973Z</time></trkpt><trkpt lat="43.9907041" lon="11.2893109"><ele>265.0</ele><time>2026-05-02T06:29:28.961Z</time></trkpt><trkpt lat="43.9908541" lon="11.2893727"><ele>264.75</ele><time>2026-05-02T06:29:29.969Z</time></trkpt><trkpt lat="43.9909997" lon="11.2894244"><ele>264.5</ele><time>2026-05-02T06:29:30.958Z</time></trkpt><trkpt lat="43.9911501" lon="11.2894679"><ele>264.25</ele><time>2026-05-02T06:29:31.967Z</time></trkpt><trkpt lat="43.9912922" lon="11.2895014"><ele>264.0</ele><time>2026-05-02T06:29:32.96Z</time></trkpt><trkpt lat="43.9914464" lon="11.2895255"><ele>264.0</ele><time>2026-05-02T06:29:33.959Z</time></trkpt><trkpt lat="43.9916026" lon="11.289537"><ele>264.0</ele><time>2026-05-02T06:29:34.96Z</time></trkpt><trkpt lat="43.9917521" lon="11.2895358"><ele>264.0</ele><time>2026-05-02T06:29:35.959Z</time></trkpt><trkpt lat="43.9919054" lon="11.2895291"><ele>264.6666666666667</ele><time>2026-05-02T06:29:36.965Z</time></trkpt><trkpt lat="43.9920607" lon="11.2895278"><ele>265.33333333333337</ele><time>2026-05-02T06:29:37.961Z</time></trkpt><trkpt lat="43.9922105" lon="11.2895182"><ele>266.0</ele><time>2026-05-02T06:29:38.955Z</time></trkpt><trkpt lat="43.992367" lon="11.289514"><ele>266.33333333333337</ele><time>2026-05-02T06:29:39.964Z</time></trkpt><trkpt lat="43.9925207" lon="11.2895098"><ele>266.6666666666667</ele><time>2026-05-02T06:29:40.963Z</time></trkpt><trkpt lat="43.9926721" lon="11.2894999"><ele>267.0</ele><time>2026-05-02T06:29:41.964Z</time></trkpt><trkpt lat="43.992826" lon="11.2894967"><ele>267.0</ele><time>2026-05-02T06:29:43.033Z</time></trkpt><trkpt lat="43.9929826" lon="11.2894837"><ele>267.0</ele><time>2026-05-02T06:29:44.034Z</time></trkpt><trkpt lat="43.9931424" lon="11.2894699"><ele>267.0</ele><time>2026-05-02T06:29:45.033Z</time></trkpt><trkpt lat="43.9932957" lon="11.2894637"><ele>266.3333333333333</ele><time>2026-05-02T06:29:45.994Z</time></trkpt><trkpt lat="43.9934505" lon="11.2894553"><ele>265.66666666666663</ele><time>2026-05-02T06:29:47.023Z</time></trkpt><trkpt lat="43.9936082" lon="11.2894465"><ele>265.0</ele><time>2026-05-02T06:29:48.033Z</time></trkpt><trkpt lat="43.9937646" lon="11.2894239"><ele>265.0</ele><time>2026-05-02T06:29:49.048Z</time></trkpt><trkpt lat="43.993926" lon="11.289408"><ele>265.0</ele><time>2026-05-02T06:29:50.028Z</time></trkpt><trkpt lat="43.9940906" lon="11.2894001"><ele>265.0</ele><time>2026-05-02T06:29:50.951Z</time></trkpt><trkpt lat="43.9942487" lon="11.2893942"><ele>264.3333333333333</ele><time>2026-05-02T06:29:52.032Z</time></trkpt><trkpt lat="43.9944117" lon="11.2893885"><ele>263.6666666666667</ele><time>2026-05-02T06:29:53.041Z</time></trkpt><trkpt lat="43.9945747" lon="11.2893844"><ele>263.0</ele><time>2026-05-02T06:29:54.038Z</time></trkpt><trkpt lat="43.9947357" lon="11.2893804"><ele>263.0</ele><time>2026-05-02T06:29:54.983Z</time></trkpt><trkpt lat="43.9948999" lon="11.2893737"><ele>263.0</ele><time>2026-05-02T06:29:55.959Z</time></trkpt><trkpt lat="43.9950632" lon="11.2893622"><ele>263.0</ele><time>2026-05-02T06:29:56.966Z</time></trkpt><trkpt lat="43.9952275" lon="11.2893419"><ele>263.0</ele><time>2026-05-02T06:29:57.977Z</time></trkpt><trkpt lat="43.9953901" lon="11.2893079"><ele>263.0</ele><time>2026-05-02T06:29:58.972Z</time></trkpt><trkpt lat="43.9955499" lon="11.2892646"><ele>263.0</ele><time>2026-05-02T06:29:59.956Z</time></trkpt><trkpt lat="43.9957061" lon="11.2892042"><ele>262.6666666666667</ele><time>2026-05-02T06:30:00.954Z</time></trkpt><trkpt lat="43.9958614" lon="11.289128"><ele>262.3333333333333</ele><time>2026-05-02T06:30:01.961Z</time></trkpt><trkpt lat="43.9960111" lon="11.2890453"><ele>262.0</ele><time>2026-05-02T06:30:02.963Z</time></trkpt><trkpt lat="43.9961577" lon="11.2889496"><ele>261.0</ele><time>2026-05-02T06:30:03.954Z</time></trkpt><trkpt lat="43.9963019" lon="11.2888451"><ele>260.0</ele><time>2026-05-02T06:30:04.969Z</time></trkpt><trkpt lat="43.9964525" lon="11.2887423"><ele>259.0</ele><time>2026-05-02T06:30:05.938Z</time></trkpt><trkpt lat="43.9965982" lon="11.2886371"><ele>259.3333333333333</ele><time>2026-05-02T06:30:06.956Z</time></trkpt><trkpt lat="43.9967418" lon="11.2885295"><ele>259.6666666666667</ele><time>2026-05-02T06:30:07.963Z</time></trkpt><trkpt lat="43.9968859" lon="11.2884186"><ele>260.0</ele><time>2026-05-02T06:30:08.955Z</time></trkpt><trkpt lat="43.9970315" lon="11.2883138"><ele>260.0</ele><time>2026-05-02T06:30:09.963Z</time></trkpt><trkpt lat="43.9971736" lon="11.288204"><ele>260.0</ele><time>2026-05-02T06:30:10.972Z</time></trkpt><trkpt lat="43.9973136" lon="11.2880973"><ele>260.0</ele><time>2026-05-02T06:30:11.953Z</time></trkpt><trkpt lat="43.9974536" lon="11.2879895"><ele>259.6666666666667</ele><time>2026-05-02T06:30:12.953Z</time></trkpt><trkpt lat="43.9975962" lon="11.28788"><ele>259.3333333333333</ele><time>2026-05-02T06:30:13.961Z</time></trkpt><trkpt lat="43.9977344" lon="11.287771"><ele>259.0</ele><time>2026-05-02T06:30:14.988Z</time></trkpt><trkpt lat="43.9978729" lon="11.2876663"><ele>259.0</ele><time>2026-05-02T06:30:15.953Z</time></trkpt><trkpt lat="43.9980094" lon="11.287572"><ele>259.0</ele><time>2026-05-02T06:30:16.953Z</time></trkpt><trkpt lat="43.9981492" lon="11.2874704"><ele>259.0</ele><time>2026-05-02T06:30:17.966Z</time></trkpt><trkpt lat="43.9982847" lon="11.2873654"><ele>259.0</ele><time>2026-05-02T06:30:18.956Z</time></trkpt><trkpt lat="43.9984228" lon="11.2872629"><ele>259.0</ele><time>2026-05-02T06:30:19.959Z</time></trkpt><trkpt lat="43.99856" lon="11.2871527"><ele>259.0</ele><time>2026-05-02T06:30:20.958Z</time></trkpt><trkpt lat="43.9987036" lon="11.2870444"><ele>259.0</ele><time>2026-05-02T06:30:21.964Z</time></trkpt><trkpt lat="43.9988439" lon="11.2869367"><ele>259.0</ele><time>2026-05-02T06:30:22.955Z</time></trkpt><trkpt lat="43.9989848" lon="11.2868354"><ele>259.0</ele><time>2026-05-02T06:30:23.956Z</time></trkpt><trkpt lat="43.9991214" lon="11.2867383"><ele>259.66666666666663</ele><time>2026-05-02T06:30:24.957Z</time></trkpt><trkpt lat="43.9992632" lon="11.2866381"><ele>260.3333333333333</ele><time>2026-05-02T06:30:25.974Z</time></trkpt><trkpt lat="43.999399" lon="11.2865352"><ele>261.0</ele><time>2026-05-02T06:30:26.961Z</time></trkpt><trkpt lat="43.9995374" lon="11.2864288"><ele>261.3333333333333</ele><time>2026-05-02T06:30:27.956Z</time></trkpt><trkpt lat="43.9996771" lon="11.2863198"><ele>261.66666666666663</ele><time>2026-05-02T06:30:29.039Z</time></trkpt><trkpt lat="43.999816" lon="11.2862147"><ele>262.0</ele><time>2026-05-02T06:30:30.044Z</time></trkpt><trkpt lat="43.9999584" lon="11.2861076"><ele>262.0</ele><time>2026-05-02T06:30:30.957Z</time></trkpt><trkpt lat="44.0000996" lon="11.2859979"><ele>262.0</ele><time>2026-05-02T06:30:31.963Z</time></trkpt><trkpt lat="44.0002391" lon="11.2858958"><ele>262.0</ele><time>2026-05-02T06:30:32.948Z</time></trkpt><trkpt lat="44.0003801" lon="11.2857911"><ele>262.0</ele><time>2026-05-02T06:30:34.035Z</time></trkpt><trkpt lat="44.0005223" lon="11.2856862"><ele>262.0</ele><time>2026-05-02T06:30:35.036Z</time></trkpt><trkpt lat="44.0006621" lon="11.2855816"><ele>262.0</ele><time>2026-05-02T06:30:35.962Z</time></trkpt><trkpt lat="44.0008022" lon="11.2854803"><ele>262.3333333333333</ele><time>2026-05-02T06:30:36.954Z</time></trkpt><trkpt lat="44.0009441" lon="11.2853762"><ele>262.6666666666667</ele><time>2026-05-02T06:30:37.979Z</time></trkpt><trkpt lat="44.0010846" lon="11.285269"><ele>263.0</ele><time>2026-05-02T06:30:39.038Z</time></trkpt><trkpt lat="44.0012275" lon="11.2851657"><ele>263.0</ele><time>2026-05-02T06:30:40.037Z</time></trkpt><trkpt lat="44.0013724" lon="11.2850612"><ele>263.0</ele><time>2026-05-02T06:30:40.948Z</time></trkpt><trkpt lat="44.0015169" lon="11.2849703"><ele>263.0</ele><time>2026-05-02T06:30:41.958Z</time></trkpt><trkpt lat="44.0016625" lon="11.2848911"><ele>263.33333333333337</ele><time>2026-05-02T06:30:43.034Z</time></trkpt><trkpt lat="44.0018114" lon="11.2848178"><ele>263.6666666666667</ele><time>2026-05-02T06:30:44.04Z</time></trkpt><trkpt lat="44.0019617" lon="11.284766"><ele>264.0</ele><time>2026-05-02T06:30:45.052Z</time></trkpt><trkpt lat="44.002113" lon="11.2847214"><ele>264.3333333333333</ele><time>2026-05-02T06:30:45.957Z</time></trkpt><trkpt lat="44.0022682" lon="11.2846843"><ele>264.66666666666663</ele><time>2026-05-02T06:30:46.967Z</time></trkpt><trkpt lat="44.0024203" lon="11.2846536"><ele>265.0</ele><time>2026-05-02T06:30:47.956Z</time></trkpt><trkpt lat="44.0025737" lon="11.2846286"><ele>265.0</ele><time>2026-05-02T06:30:49.048Z</time></trkpt><trkpt lat="44.0027263" lon="11.2845987"><ele>265.0</ele><time>2026-05-02T06:30:50.036Z</time></trkpt><trkpt lat="44.0028692" lon="11.2845634"><ele>265.0</ele><time>2026-05-02T06:30:50.968Z</time></trkpt><trkpt lat="44.0030135" lon="11.2845372"><ele>265.0</ele><time>2026-05-02T06:30:51.965Z</time></trkpt><trkpt lat="44.00315" lon="11.2845348"><ele>265.0</ele><time>2026-05-02T06:30:52.969Z</time></trkpt><trkpt lat="44.0032919" lon="11.2845605"><ele>265.0</ele><time>2026-05-02T06:30:53.963Z</time></trkpt><trkpt lat="44.0034338" lon="11.2845931"><ele>265.0</ele><time>2026-05-02T06:30:54.967Z</time></trkpt><trkpt lat="44.0035764" lon="11.284638"><ele>265.0</ele><time>2026-05-02T06:30:55.964Z</time></trkpt><trkpt lat="44.003716" lon="11.2846916"><ele>265.0</ele><time>2026-05-02T06:30:57.036Z</time></trkpt><trkpt lat="44.0038557" lon="11.2847511"><ele>265.0</ele><time>2026-05-02T06:30:58.044Z</time></trkpt><trkpt lat="44.0039914" lon="11.2848199"><ele>265.0</ele><time>2026-05-02T06:30:58.993Z</time></trkpt><trkpt lat="44.0041245" lon="11.2848965"><ele>265.0</ele><time>2026-05-02T06:30:59.964Z</time></trkpt><trkpt lat="44.0042606" lon="11.2849693"><ele>265.5</ele><time>2026-05-02T06:31:00.968Z</time></trkpt><trkpt lat="44.0043975" lon="11.2850447"><ele>266.0</ele><time>2026-05-02T06:31:01.96Z</time></trkpt><trkpt lat="44.0045322" lon="11.2851286"><ele>266.5</ele><time>2026-05-02T06:31:02.961Z</time></trkpt><trkpt lat="44.0046662" lon="11.2852124"><ele>267.0</ele><time>2026-05-02T06:31:03.96Z</time></trkpt><trkpt lat="44.0048052" lon="11.2852895"><ele>267.0</ele><time>2026-05-02T06:31:05.034Z</time></trkpt><trkpt lat="44.0049419" lon="11.2853619"><ele>267.0</ele><time>2026-05-02T06:31:05.966Z</time></trkpt><trkpt lat="44.0050795" lon="11.2854394"><ele>267.0</ele><time>2026-05-02T06:31:06.964Z</time></trkpt><trkpt lat="44.0052149" lon="11.285517"><ele>267.0</ele><time>2026-05-02T06:31:08.009Z</time></trkpt><trkpt lat="44.0053526" lon="11.285594"><ele>267.75</ele><time>2026-05-02T06:31:08.957Z</time></trkpt><trkpt lat="44.0054883" lon="11.2856715"><ele>268.5</ele><time>2026-05-02T06:31:10.034Z</time></trkpt><trkpt lat="44.0056233" lon="11.2857513"><ele>269.25</ele><time>2026-05-02T06:31:10.961Z</time></trkpt><trkpt lat="44.0057565" lon="11.2858314"><ele>270.0</ele><time>2026-05-02T06:31:11.958Z</time></trkpt><trkpt lat="44.0058934" lon="11.2859114"><ele>270.0</ele><time>2026-05-02T06:31:12.954Z</time></trkpt><trkpt lat="44.0060274" lon="11.2859962"><ele>270.0</ele><time>2026-05-02T06:31:13.958Z</time></trkpt><trkpt lat="44.0061609" lon="11.2860785"><ele>270.0</ele><time>2026-05-02T06:31:15.031Z</time></trkpt><trkpt lat="44.0062899" lon="11.2861576"><ele>270.0</ele><time>2026-05-02T06:31:15.962Z</time></trkpt><trkpt lat="44.0064159" lon="11.286235"><ele>270.0</ele><time>2026-05-02T06:31:16.956Z</time></trkpt><trkpt lat="44.0065446" lon="11.2863159"><ele>270.0</ele><time>2026-05-02T06:31:17.96Z</time></trkpt><trkpt lat="44.0066769" lon="11.2863982"><ele>270.0</ele><time>2026-05-02T06:31:19.037Z</time></trkpt><trkpt lat="44.0068084" lon="11.2864785"><ele>270.0</ele><time>2026-05-02T06:31:20.044Z</time></trkpt><trkpt lat="44.0069371" lon="11.2865641"><ele>271.25</ele><time>2026-05-02T06:31:20.947Z</time></trkpt><trkpt lat="44.0070654" lon="11.2866492"><ele>272.5</ele><time>2026-05-02T06:31:21.955Z</time></trkpt><trkpt lat="44.0071922" lon="11.2867392"><ele>273.75</ele><time>2026-05-02T06:31:22.938Z</time></trkpt><trkpt lat="44.0073182" lon="11.2868283"><ele>275.0</ele><time>2026-05-02T06:31:23.944Z</time></trkpt><trkpt lat="44.0074442" lon="11.2869201"><ele>275.5</ele><time>2026-05-02T06:31:24.958Z</time></trkpt><trkpt lat="44.0075743" lon="11.2870106"><ele>276.0</ele><time>2026-05-02T06:31:25.959Z</time></trkpt><trkpt lat="44.0077078" lon="11.287102"><ele>276.5</ele><time>2026-05-02T06:31:26.958Z</time></trkpt><trkpt lat="44.0078423" lon="11.2871908"><ele>277.0</ele><time>2026-05-02T06:31:27.948Z</time></trkpt><trkpt lat="44.0079813" lon="11.2872649"><ele>277.0</ele><time>2026-05-02T06:31:28.96Z</time></trkpt><trkpt lat="44.0081226" lon="11.2873363"><ele>277.0</ele><time>2026-05-02T06:31:29.964Z</time></trkpt><trkpt lat="44.0082629" lon="11.2874072"><ele>277.0</ele><time>2026-05-02T06:31:30.975Z</time></trkpt><trkpt lat="44.008404" lon="11.2874795"><ele>277.25</ele><time>2026-05-02T06:31:31.962Z</time></trkpt><trkpt lat="44.008549" lon="11.2875511"><ele>277.5</ele><time>2026-05-02T06:31:32.96Z</time></trkpt><trkpt lat="44.00869" lon="11.287617"><ele>277.75</ele><time>2026-05-02T06:31:33.963Z</time></trkpt><trkpt lat="44.0088275" lon="11.2876818"><ele>278.0</ele><time>2026-05-02T06:31:34.956Z</time></trkpt><trkpt lat="44.0089674" lon="11.2877463"><ele>278.0</ele><time>2026-05-02T06:31:35.96Z</time></trkpt><trkpt lat="44.0091081" lon="11.2878133"><ele>278.0</ele><time>2026-05-02T06:31:36.961Z</time></trkpt><trkpt lat="44.0092459" lon="11.2878786"><ele>278.0</ele><time>2026-05-02T06:31:37.959Z</time></trkpt><trkpt lat="44.0093857" lon="11.2879348"><ele>278.0</ele><time>2026-05-02T06:31:38.961Z</time></trkpt><trkpt lat="44.0095297" lon="11.2879796"><ele>278.0</ele><time>2026-05-02T06:31:39.965Z</time></trkpt><trkpt lat="44.0096779" lon="11.2880196"><ele>278.0</ele><time>2026-05-02T06:31:40.952Z</time></trkpt><trkpt lat="44.0098209" lon="11.2880432"><ele>278.0</ele><time>2026-05-02T06:31:41.947Z</time></trkpt><trkpt lat="44.0099647" lon="11.2880557"><ele>278.0</ele><time>2026-05-02T06:31:42.954Z</time></trkpt><trkpt lat="44.0101122" lon="11.2880688"><ele>278.0</ele><time>2026-05-02T06:31:43.95Z</time></trkpt><trkpt lat="44.0102626" lon="11.2880719"><ele>278.0</ele><time>2026-05-02T06:31:44.951Z</time></trkpt><trkpt lat="44.0104105" lon="11.2880583"><ele>278.0</ele><time>2026-05-02T06:31:45.959Z</time></trkpt><trkpt lat="44.0105636" lon="11.2880374"><ele>278.0</ele><time>2026-05-02T06:31:46.953Z</time></trkpt><trkpt lat="44.0107118" lon="11.2880112"><ele>278.0</ele><time>2026-05-02T06:31:47.959Z</time></trkpt><trkpt lat="44.0108589" lon="11.2879625"><ele>278.0</ele><time>2026-05-02T06:31:48.963Z</time></trkpt><trkpt lat="44.0109982" lon="11.2879143"><ele>278.0</ele><time>2026-05-02T06:31:49.957Z</time></trkpt><trkpt lat="44.0111396" lon="11.2878579"><ele>278.75</ele><time>2026-05-02T06:31:50.961Z</time></trkpt><trkpt lat="44.0112824" lon="11.287814"><ele>279.5</ele><time>2026-05-02T06:31:51.975Z</time></trkpt><trkpt lat="44.0114242" lon="11.2877703"><ele>280.25</ele><time>2026-05-02T06:31:52.953Z</time></trkpt><trkpt lat="44.0115713" lon="11.2877217"><ele>281.0</ele><time>2026-05-02T06:31:54.038Z</time></trkpt><trkpt lat="44.0117173" lon="11.287671"><ele>281.5</ele><time>2026-05-02T06:31:54.958Z</time></trkpt><trkpt lat="44.0118613" lon="11.287617"><ele>282.0</ele><time>2026-05-02T06:31:55.958Z</time></trkpt><trkpt lat="44.0120043" lon="11.2875695"><ele>282.5</ele><time>2026-05-02T06:31:56.973Z</time></trkpt><trkpt lat="44.012146" lon="11.2875214"><ele>283.0</ele><time>2026-05-02T06:31:57.99Z</time></trkpt><trkpt lat="44.0122863" lon="11.2874724"><ele>283.0</ele><time>2026-05-02T06:31:58.99Z</time></trkpt><trkpt lat="44.0124278" lon="11.2874284"><ele>283.0</ele><time>2026-05-02T06:31:59.958Z</time></trkpt><trkpt lat="44.0125678" lon="11.2873992"><ele>283.0</ele><time>2026-05-02T06:32:00.945Z</time></trkpt><trkpt lat="44.0127098" lon="11.2873799"><ele>283.0</ele><time>2026-05-02T06:32:01.96Z</time></trkpt><trkpt lat="44.0128493" lon="11.2873644"><ele>283.25</ele><time>2026-05-02T06:32:02.962Z</time></trkpt><trkpt lat="44.0129891" lon="11.2873527"><ele>283.5</ele><time>2026-05-02T06:32:03.962Z</time></trkpt><trkpt lat="44.0131249" lon="11.2873366"><ele>283.75</ele><time>2026-05-02T06:32:05.031Z</time></trkpt><trkpt lat="44.013264" lon="11.2873279"><ele>284.0</ele><time>2026-05-02T06:32:05.963Z</time></trkpt><trkpt lat="44.0134023" lon="11.2873189"><ele>284.75</ele><time>2026-05-02T06:32:07.033Z</time></trkpt><trkpt lat="44.01354" lon="11.2873092"><ele>285.5</ele><time>2026-05-02T06:32:08.034Z</time></trkpt><trkpt lat="44.01368" lon="11.2873005"><ele>286.25</ele><time>2026-05-02T06:32:08.979Z</time></trkpt><trkpt lat="44.0138156" lon="11.2872856"><ele>287.0</ele><time>2026-05-02T06:32:10.018Z</time></trkpt><trkpt lat="44.0139501" lon="11.2872752"><ele>287.0</ele><time>2026-05-02T06:32:10.956Z</time></trkpt><trkpt lat="44.014087" lon="11.287266"><ele>287.0</ele><time>2026-05-02T06:32:11.96Z</time></trkpt><trkpt lat="44.0142248" lon="11.2872586"><ele>287.0</ele><time>2026-05-02T06:32:13.036Z</time></trkpt><trkpt lat="44.0143616" lon="11.2872689"><ele>287.0</ele><time>2026-05-02T06:32:13.962Z</time></trkpt><trkpt lat="44.0145021" lon="11.2872856"><ele>289.0</ele><time>2026-05-02T06:32:14.97Z</time></trkpt><trkpt lat="44.0146381" lon="11.2873244"><ele>291.0</ele><time>2026-05-02T06:32:15.965Z</time></trkpt><trkpt lat="44.0147704" lon="11.2873647"><ele>293.0</ele><time>2026-05-02T06:32:16.956Z</time></trkpt><trkpt lat="44.0149037" lon="11.2874127"><ele>295.0</ele><time>2026-05-02T06:32:17.958Z</time></trkpt><trkpt lat="44.0150356" lon="11.2874684"><ele>297.0</ele><time>2026-05-02T06:32:18.971Z</time></trkpt><trkpt lat="44.015166" lon="11.2875221"><ele>299.0</ele><time>2026-05-02T06:32:20.037Z</time></trkpt><trkpt lat="44.015293" lon="11.2875825"><ele>301.0</ele><time>2026-05-02T06:32:20.97Z</time></trkpt><trkpt lat="44.015427" lon="11.2876309"><ele>303.0</ele><time>2026-05-02T06:32:22.035Z</time></trkpt><trkpt lat="44.0155607" lon="11.2876769"><ele>303.0</ele><time>2026-05-02T06:32:22.999Z</time></trkpt><trkpt lat="44.0156962" lon="11.2877194"><ele>303.0</ele><time>2026-05-02T06:32:23.965Z</time></trkpt><trkpt lat="44.0158312" lon="11.2877653"><ele>303.0</ele><time>2026-05-02T06:32:24.964Z</time></trkpt><trkpt lat="44.015966" lon="11.2878138"><ele>303.0</ele><time>2026-05-02T06:32:25.97Z</time></trkpt><trkpt lat="44.0160994" lon="11.2878603"><ele>303.25</ele><time>2026-05-02T06:32:26.967Z</time></trkpt><trkpt lat="44.0162314" lon="11.2879138"><ele>303.5</ele><time>2026-05-02T06:32:28.055Z</time></trkpt><trkpt lat="44.016364" lon="11.2879621"><ele>303.75</ele><time>2026-05-02T06:32:29.037Z</time></trkpt><trkpt lat="44.0164964" lon="11.2880151"><ele>304.0</ele><time>2026-05-02T06:32:30.036Z</time></trkpt><trkpt lat="44.0166285" lon="11.2880674"><ele>304.25</ele><time>2026-05-02T06:32:30.972Z</time></trkpt><trkpt lat="44.016761" lon="11.2881322"><ele>304.5</ele><time>2026-05-02T06:32:32.03Z</time></trkpt><trkpt lat="44.0168872" lon="11.2882027"><ele>304.75</ele><time>2026-05-02T06:32:33.035Z</time></trkpt><trkpt lat="44.0170171" lon="11.2882751"><ele>305.0</ele><time>2026-05-02T06:32:34.036Z</time></trkpt><trkpt lat="44.0171455" lon="11.2883469"><ele>305.0</ele><time>2026-05-02T06:32:34.986Z</time></trkpt><trkpt lat="44.0172764" lon="11.2884205"><ele>305.0</ele><time>2026-05-02T06:32:35.971Z</time></trkpt><trkpt lat="44.0174044" lon="11.2884971"><ele>305.0</ele><time>2026-05-02T06:32:36.977Z</time></trkpt><trkpt lat="44.0175298" lon="11.2885753"><ele>305.0</ele><time>2026-05-02T06:32:38.068Z</time></trkpt><trkpt lat="44.017663" lon="11.2886515"><ele>305.5</ele><time>2026-05-02T06:32:39.035Z</time></trkpt><trkpt lat="44.0177938" lon="11.2887345"><ele>306.0</ele><time>2026-05-02T06:32:40.032Z</time></trkpt><trkpt lat="44.0179231" lon="11.288821"><ele>306.5</ele><time>2026-05-02T06:32:40.963Z</time></trkpt><trkpt lat="44.0180581" lon="11.2889022"><ele>307.0</ele><time>2026-05-02T06:32:41.962Z</time></trkpt><trkpt lat="44.0181951" lon="11.2889786"><ele>307.3333333333333</ele><time>2026-05-02T06:32:42.966Z</time></trkpt><trkpt lat="44.0183304" lon="11.2890505"><ele>307.6666666666667</ele><time>2026-05-02T06:32:44.076Z</time></trkpt><trkpt lat="44.0186082" lon="11.2891525"><ele>308.0</ele><time>2026-05-02T06:32:45.966Z</time></trkpt><trkpt lat="44.0187484" lon="11.28919"><ele>308.0</ele><time>2026-05-02T06:32:46.962Z</time></trkpt><trkpt lat="44.0188898" lon="11.2892112"><ele>308.0</ele><time>2026-05-02T06:32:48.037Z</time></trkpt><trkpt lat="44.019026" lon="11.2892312"><ele>308.0</ele><time>2026-05-02T06:32:49.036Z</time></trkpt><trkpt lat="44.0191623" lon="11.2892535"><ele>308.0</ele><time>2026-05-02T06:32:49.959Z</time></trkpt><trkpt lat="44.0192963" lon="11.289273"><ele>310.0</ele><time>2026-05-02T06:32:50.965Z</time></trkpt><trkpt lat="44.0194287" lon="11.2892912"><ele>312.0</ele><time>2026-05-02T06:32:51.961Z</time></trkpt><trkpt lat="44.019561" lon="11.2893065"><ele>314.0</ele><time>2026-05-02T06:32:53.022Z</time></trkpt><trkpt lat="44.0196899" lon="11.2893266"><ele>316.0</ele><time>2026-05-02T06:32:53.957Z</time></trkpt><trkpt lat="44.0198171" lon="11.2893488"><ele>316.0</ele><time>2026-05-02T06:32:54.962Z</time></trkpt><trkpt lat="44.0199451" lon="11.2893629"><ele>316.0</ele><time>2026-05-02T06:32:55.966Z</time></trkpt><trkpt lat="44.020075" lon="11.289377"><ele>316.0</ele><time>2026-05-02T06:32:56.97Z</time></trkpt><trkpt lat="44.0202052" lon="11.2893913"><ele>316.0</ele><time>2026-05-02T06:32:57.967Z</time></trkpt><trkpt lat="44.0203415" lon="11.2893805"><ele>317.25</ele><time>2026-05-02T06:32:58.967Z</time></trkpt><trkpt lat="44.020474" lon="11.2893343"><ele>318.5</ele><time>2026-05-02T06:32:59.958Z</time></trkpt><trkpt lat="44.0205932" lon="11.2892667"><ele>319.75</ele><time>2026-05-02T06:33:00.957Z</time></trkpt><trkpt lat="44.020706" lon="11.2891925"><ele>321.0</ele><time>2026-05-02T06:33:01.965Z</time></trkpt><trkpt lat="44.0208179" lon="11.2891229"><ele>322.0</ele><time>2026-05-02T06:33:03.088Z</time></trkpt><trkpt lat="44.021045" lon="11.2889719"><ele>323.0</ele><time>2026-05-02T06:33:04.954Z</time></trkpt><trkpt lat="44.0211626" lon="11.2888976"><ele>324.0</ele><time>2026-05-02T06:33:05.956Z</time></trkpt><trkpt lat="44.0212807" lon="11.2888178"><ele>324.25</ele><time>2026-05-02T06:33:06.956Z</time></trkpt><trkpt lat="44.0214054" lon="11.2887387"><ele>324.5</ele><time>2026-05-02T06:33:07.956Z</time></trkpt><trkpt lat="44.021509" lon="11.2886547"><ele>324.75</ele><time>2026-05-02T06:33:09.034Z</time></trkpt><trkpt lat="44.0216032" lon="11.2885491"><ele>325.0</ele><time>2026-05-02T06:33:09.966Z</time></trkpt><trkpt lat="44.021686" lon="11.2884231"><ele>326.25</ele><time>2026-05-02T06:33:10.967Z</time></trkpt><trkpt lat="44.0217671" lon="11.2883028"><ele>327.5</ele><time>2026-05-02T06:33:11.971Z</time></trkpt><trkpt lat="44.0218523" lon="11.2881766"><ele>328.75</ele><time>2026-05-02T06:33:13.055Z</time></trkpt><trkpt lat="44.021941" lon="11.2880685"><ele>330.0</ele><time>2026-05-02T06:33:13.998Z</time></trkpt><trkpt lat="44.0220233" lon="11.2880037"><ele>330.0</ele><time>2026-05-02T06:33:15.037Z</time></trkpt><trkpt lat="44.0221162" lon="11.2879751"><ele>330.0</ele><time>2026-05-02T06:33:15.956Z</time></trkpt><trkpt lat="44.0222265" lon="11.2879846"><ele>330.0</ele><time>2026-05-02T06:33:16.966Z</time></trkpt><trkpt lat="44.0223352" lon="11.2880394"><ele>330.0</ele><time>2026-05-02T06:33:17.969Z</time></trkpt><trkpt lat="44.0224395" lon="11.2881283"><ele>330.0</ele><time>2026-05-02T06:33:18.954Z</time></trkpt><trkpt lat="44.0225561" lon="11.2882119"><ele>331.25</ele><time>2026-05-02T06:33:20.031Z</time></trkpt><trkpt lat="44.0226763" lon="11.2882903"><ele>332.5</ele><time>2026-05-02T06:33:20.958Z</time></trkpt><trkpt lat="44.0227903" lon="11.288377"><ele>333.75</ele><time>2026-05-02T06:33:21.966Z</time></trkpt><trkpt lat="44.0229067" lon="11.2884629"><ele>335.0</ele><time>2026-05-02T06:33:22.986Z</time></trkpt><trkpt lat="44.0230257" lon="11.288558"><ele>335.0</ele><time>2026-05-02T06:33:24.032Z</time></trkpt><trkpt lat="44.0231602" lon="11.2886581"><ele>335.0</ele><time>2026-05-02T06:33:25.041Z</time></trkpt><trkpt lat="44.0232901" lon="11.2887529"><ele>335.0</ele><time>2026-05-02T06:33:25.964Z</time></trkpt><trkpt lat="44.023418" lon="11.288848"><ele>335.0</ele><time>2026-05-02T06:33:26.975Z</time></trkpt><trkpt lat="44.0235421" lon="11.2889447"><ele>336.75</ele><time>2026-05-02T06:33:28.006Z</time></trkpt><trkpt lat="44.0236604" lon="11.2890366"><ele>338.5</ele><time>2026-05-02T06:33:29.035Z</time></trkpt><trkpt lat="44.0237825" lon="11.2891332"><ele>340.25</ele><time>2026-05-02T06:33:30.039Z</time></trkpt><trkpt lat="44.0239064" lon="11.2892193"><ele>342.0</ele><time>2026-05-02T06:33:30.968Z</time></trkpt><trkpt lat="44.0240296" lon="11.2893141"><ele>343.25</ele><time>2026-05-02T06:33:31.97Z</time></trkpt><trkpt lat="44.0241466" lon="11.2894075"><ele>344.5</ele><time>2026-05-02T06:33:32.967Z</time></trkpt><trkpt lat="44.0242584" lon="11.2895014"><ele>345.75</ele><time>2026-05-02T06:33:34.032Z</time></trkpt><trkpt lat="44.0243747" lon="11.2895925"><ele>347.0</ele><time>2026-05-02T06:33:35.036Z</time></trkpt><trkpt lat="44.0244897" lon="11.2896777"><ele>348.0</ele><time>2026-05-02T06:33:35.964Z</time></trkpt><trkpt lat="44.0246047" lon="11.2897627"><ele>349.0</ele><time>2026-05-02T06:33:36.963Z</time></trkpt><trkpt lat="44.0247201" lon="11.289847"><ele>350.0</ele><time>2026-05-02T06:33:37.969Z</time></trkpt><trkpt lat="44.0248305" lon="11.2899209"><ele>351.0</ele><time>2026-05-02T06:33:38.96Z</time></trkpt><trkpt lat="44.0249456" lon="11.2899816"><ele>352.5</ele><time>2026-05-02T06:33:39.964Z</time></trkpt><trkpt lat="44.0250705" lon="11.2900127"><ele>354.0</ele><time>2026-05-02T06:33:40.965Z</time></trkpt><trkpt lat="44.0252076" lon="11.2899985"><ele>355.5</ele><time>2026-05-02T06:33:42.077Z</time></trkpt><trkpt lat="44.025343" lon="11.2899782"><ele>357.0</ele><time>2026-05-02T06:33:43.028Z</time></trkpt><trkpt lat="44.025479" lon="11.2899589"><ele>357.0</ele><time>2026-05-02T06:33:44.032Z</time></trkpt><trkpt lat="44.0256143" lon="11.2899396"><ele>357.0</ele><time>2026-05-02T06:33:44.971Z</time></trkpt><trkpt lat="44.0257463" lon="11.2899154"><ele>357.0</ele><time>2026-05-02T06:33:45.981Z</time></trkpt><trkpt lat="44.0258781" lon="11.2898916"><ele>357.0</ele><time>2026-05-02T06:33:46.968Z</time></trkpt><trkpt lat="44.0260071" lon="11.2898556"><ele>358.5</ele><time>2026-05-02T06:33:47.977Z</time></trkpt><trkpt lat="44.0261342" lon="11.2898315"><ele>360.0</ele><time>2026-05-02T06:33:48.976Z</time></trkpt><trkpt lat="44.0262505" lon="11.2898155"><ele>361.5</ele><time>2026-05-02T06:33:49.978Z</time></trkpt><trkpt lat="44.0263537" lon="11.2898185"><ele>363.0</ele><time>2026-05-02T06:33:50.977Z</time></trkpt><trkpt lat="44.0264565" lon="11.2898424"><ele>363.0</ele><time>2026-05-02T06:33:52.001Z</time></trkpt><trkpt lat="44.0265476" lon="11.2899029"><ele>363.0</ele><time>2026-05-02T06:33:52.971Z</time></trkpt><trkpt lat="44.0266234" lon="11.2900128"><ele>363.0</ele><time>2026-05-02T06:33:54.048Z</time></trkpt><trkpt lat="44.0266841" lon="11.2901374"><ele>363.0</ele><time>2026-05-02T06:33:55.038Z</time></trkpt><trkpt lat="44.0267562" lon="11.290254"><ele>363.0</ele><time>2026-05-02T06:33:55.971Z</time></trkpt><trkpt lat="44.0268551" lon="11.2903485"><ele>364.75</ele><time>2026-05-02T06:33:56.971Z</time></trkpt><trkpt lat="44.0269717" lon="11.2904035"><ele>366.5</ele><time>2026-05-02T06:33:57.966Z</time></trkpt><trkpt lat="44.0270845" lon="11.2904371"><ele>368.25</ele><time>2026-05-02T06:33:59.033Z</time></trkpt><trkpt lat="44.0271985" lon="11.2904426"><ele>370.0</ele><time>2026-05-02T06:33:59.978Z</time></trkpt><trkpt lat="44.0273183" lon="11.2904568"><ele>370.0</ele><time>2026-05-02T06:34:00.966Z</time></trkpt><trkpt lat="44.0274364" lon="11.2904441"><ele>370.0</ele><time>2026-05-02T06:34:01.966Z</time></trkpt><trkpt lat="44.0275463" lon="11.2904279"><ele>370.0</ele><time>2026-05-02T06:34:03.053Z</time></trkpt><trkpt lat="44.0276574" lon="11.2903889"><ele>370.0</ele><time>2026-05-02T06:34:04.038Z</time></trkpt><trkpt lat="44.0277767" lon="11.2903439"><ele>372.75</ele><time>2026-05-02T06:34:05.029Z</time></trkpt><trkpt lat="44.0278952" lon="11.2902885"><ele>375.5</ele><time>2026-05-02T06:34:05.954Z</time></trkpt><trkpt lat="44.0280091" lon="11.2902299"><ele>378.25</ele><time>2026-05-02T06:34:06.962Z</time></trkpt><trkpt lat="44.0281222" lon="11.2901742"><ele>381.0</ele><time>2026-05-02T06:34:07.965Z</time></trkpt><trkpt lat="44.0282357" lon="11.290114"><ele>383.5</ele><time>2026-05-02T06:34:09.029Z</time></trkpt><trkpt lat="44.0283491" lon="11.2900505"><ele>386.0</ele><time>2026-05-02T06:34:10.029Z</time></trkpt><trkpt lat="44.0284694" lon="11.2899906"><ele>388.5</ele><time>2026-05-02T06:34:10.987Z</time></trkpt><trkpt lat="44.0285836" lon="11.2899263"><ele>391.0</ele><time>2026-05-02T06:34:11.952Z</time></trkpt><trkpt lat="44.0286963" lon="11.2898544"><ele>391.0</ele><time>2026-05-02T06:34:13.034Z</time></trkpt><trkpt lat="44.028813" lon="11.2897839"><ele>391.0</ele><time>2026-05-02T06:34:14.035Z</time></trkpt><trkpt lat="44.0289366" lon="11.2897166"><ele>391.0</ele><time>2026-05-02T06:34:15.032Z</time></trkpt><trkpt lat="44.0290576" lon="11.2896523"><ele>391.0</ele><time>2026-05-02T06:34:15.975Z</time></trkpt><trkpt lat="44.0291833" lon="11.289595"><ele>392.5</ele><time>2026-05-02T06:34:16.966Z</time></trkpt><trkpt lat="44.029304" lon="11.2895404"><ele>394.0</ele><time>2026-05-02T06:34:17.953Z</time></trkpt><trkpt lat="44.0294393" lon="11.289488"><ele>395.5</ele><time>2026-05-02T06:34:18.966Z</time></trkpt><trkpt lat="44.029568" lon="11.2894265"><ele>397.0</ele><time>2026-05-02T06:34:19.968Z</time></trkpt><trkpt lat="44.0296907" lon="11.2893666"><ele>397.0</ele><time>2026-05-02T06:34:20.979Z</time></trkpt><trkpt lat="44.0298028" lon="11.2892774"><ele>397.0</ele><time>2026-05-02T06:34:21.965Z</time></trkpt><trkpt lat="44.029889" lon="11.2891595"><ele>397.0</ele><time>2026-05-02T06:34:22.98Z</time></trkpt><trkpt lat="44.0299514" lon="11.2890262"><ele>397.0</ele><time>2026-05-02T06:34:23.986Z</time></trkpt><trkpt lat="44.0300245" lon="11.2888912"><ele>400.0</ele><time>2026-05-02T06:34:24.982Z</time></trkpt><trkpt lat="44.0301287" lon="11.2887635"><ele>403.0</ele><time>2026-05-02T06:34:25.964Z</time></trkpt><trkpt lat="44.0302414" lon="11.2886577"><ele>406.0</ele><time>2026-05-02T06:34:26.977Z</time></trkpt><trkpt lat="44.0303656" lon="11.2885892"><ele>409.0</ele><time>2026-05-02T06:34:27.969Z</time></trkpt><trkpt lat="44.0304863" lon="11.2885259"><ele>409.0</ele><time>2026-05-02T06:34:28.967Z</time></trkpt><trkpt lat="44.0306079" lon="11.2884632"><ele>409.0</ele><time>2026-05-02T06:34:29.969Z</time></trkpt><trkpt lat="44.0307328" lon="11.288405"><ele>409.0</ele><time>2026-05-02T06:34:30.979Z</time></trkpt><trkpt lat="44.0308501" lon="11.2883475"><ele>409.0</ele><time>2026-05-02T06:34:31.97Z</time></trkpt><trkpt lat="44.0309678" lon="11.2882928"><ele>411.5</ele><time>2026-05-02T06:34:32.968Z</time></trkpt><trkpt lat="44.031077" lon="11.2882101"><ele>414.0</ele><time>2026-05-02T06:34:33.963Z</time></trkpt><trkpt lat="44.0311622" lon="11.2880948"><ele>416.5</ele><time>2026-05-02T06:34:34.973Z</time></trkpt><trkpt lat="44.0312063" lon="11.2879414"><ele>419.0</ele><time>2026-05-02T06:34:35.969Z</time></trkpt><trkpt lat="44.0312226" lon="11.2877654"><ele>419.25</ele><time>2026-05-02T06:34:36.969Z</time></trkpt><trkpt lat="44.0312289" lon="11.2875886"><ele>419.5</ele><time>2026-05-02T06:34:37.975Z</time></trkpt><trkpt lat="44.0312352" lon="11.2874254"><ele>419.75</ele><time>2026-05-02T06:34:38.97Z</time></trkpt><trkpt lat="44.0312461" lon="11.2872716"><ele>420.0</ele><time>2026-05-02T06:34:39.971Z</time></trkpt><trkpt lat="44.0312832" lon="11.2871468"><ele>420.0</ele><time>2026-05-02T06:34:40.962Z</time></trkpt><trkpt lat="44.0313403" lon="11.2870915"><ele>420.0</ele><time>2026-05-02T06:34:41.964Z</time></trkpt><trkpt lat="44.0314262" lon="11.2871001"><ele>420.0</ele><time>2026-05-02T06:34:42.964Z</time></trkpt><trkpt lat="44.0315056" lon="11.2871789"><ele>420.0</ele><time>2026-05-02T06:34:43.965Z</time></trkpt><trkpt lat="44.0315529" lon="11.2872764"><ele>420.0</ele><time>2026-05-02T06:34:44.959Z</time></trkpt><trkpt lat="44.0316125" lon="11.2873786"><ele>420.0</ele><time>2026-05-02T06:34:45.959Z</time></trkpt><trkpt lat="44.0316909" lon="11.2874659"><ele>423.4</ele><time>2026-05-02T06:34:46.965Z</time></trkpt><trkpt lat="44.0317904" lon="11.2875308"><ele>426.8</ele><time>2026-05-02T06:34:47.967Z</time></trkpt><trkpt lat="44.0318915" lon="11.2875727"><ele>430.20000000000005</ele><time>2026-05-02T06:34:48.969Z</time></trkpt><trkpt lat="44.0319953" lon="11.2875657"><ele>433.6</ele><time>2026-05-02T06:34:49.962Z</time></trkpt><trkpt lat="44.0321017" lon="11.2875182"><ele>437.0</ele><time>2026-05-02T06:34:50.979Z</time></trkpt><trkpt lat="44.032189" lon="11.2874596"><ele>437.0</ele><time>2026-05-02T06:34:51.961Z</time></trkpt><trkpt lat="44.0322799" lon="11.287386"><ele>437.0</ele><time>2026-05-02T06:34:52.95Z</time></trkpt><trkpt lat="44.0323746" lon="11.2873172"><ele>437.0</ele><time>2026-05-02T06:34:53.962Z</time></trkpt><trkpt lat="44.0324828" lon="11.287246"><ele>437.0</ele><time>2026-05-02T06:34:54.969Z</time></trkpt><trkpt lat="44.0326028" lon="11.2871763"><ele>441.5</ele><time>2026-05-02T06:34:55.969Z</time></trkpt><trkpt lat="44.0327339" lon="11.2871297"><ele>446.0</ele><time>2026-05-02T06:34:56.967Z</time></trkpt><trkpt lat="44.0328735" lon="11.2871065"><ele>450.5</ele><time>2026-05-02T06:34:57.972Z</time></trkpt><trkpt lat="44.0330074" lon="11.2870953"><ele>455.0</ele><time>2026-05-02T06:34:58.968Z</time></trkpt><trkpt lat="44.033145" lon="11.2870759"><ele>455.0</ele><time>2026-05-02T06:34:59.959Z</time></trkpt><trkpt lat="44.0332626" lon="11.2870141"><ele>455.0</ele><time>2026-05-02T06:35:00.954Z</time></trkpt><trkpt lat="44.0333679" lon="11.2868945"><ele>455.0</ele><time>2026-05-02T06:35:01.965Z</time></trkpt><trkpt lat="44.0334385" lon="11.2867411"><ele>455.0</ele><time>2026-05-02T06:35:02.973Z</time></trkpt><trkpt lat="44.0335137" lon="11.2865785"><ele>456.25</ele><time>2026-05-02T06:35:03.969Z</time></trkpt><trkpt lat="44.0336146" lon="11.2864517"><ele>457.5</ele><time>2026-05-02T06:35:04.976Z</time></trkpt><trkpt lat="44.0337167" lon="11.286347"><ele>458.75</ele><time>2026-05-02T06:35:05.971Z</time></trkpt><trkpt lat="44.0338324" lon="11.286284"><ele>460.0</ele><time>2026-05-02T06:35:06.971Z</time></trkpt><trkpt lat="44.0339707" lon="11.2862358"><ele>462.0</ele><time>2026-05-02T06:35:07.973Z</time></trkpt><trkpt lat="44.034114" lon="11.2862164"><ele>464.0</ele><time>2026-05-02T06:35:08.967Z</time></trkpt><trkpt lat="44.0342577" lon="11.2861941"><ele>466.0</ele><time>2026-05-02T06:35:09.969Z</time></trkpt><trkpt lat="44.0343832" lon="11.2861966"><ele>468.0</ele><time>2026-05-02T06:35:10.965Z</time></trkpt><trkpt lat="44.0344954" lon="11.286234"><ele>468.25</ele><time>2026-05-02T06:35:11.954Z</time></trkpt><trkpt lat="44.034595" lon="11.2863245"><ele>468.5</ele><time>2026-05-02T06:35:12.969Z</time></trkpt><trkpt lat="44.0346826" lon="11.286442"><ele>468.75</ele><time>2026-05-02T06:35:13.983Z</time></trkpt><trkpt lat="44.0347722" lon="11.2865791"><ele>469.0</ele><time>2026-05-02T06:35:14.967Z</time></trkpt><trkpt lat="44.0348702" lon="11.2866931"><ele>470.0</ele><time>2026-05-02T06:35:15.962Z</time></trkpt><trkpt lat="44.0349883" lon="11.2867744"><ele>471.0</ele><time>2026-05-02T06:35:16.977Z</time></trkpt><trkpt lat="44.0351225" lon="11.2868104"><ele>472.0</ele><time>2026-05-02T06:35:17.968Z</time></trkpt><trkpt lat="44.0352607" lon="11.2868125"><ele>473.0</ele><time>2026-05-02T06:35:18.966Z</time></trkpt><trkpt lat="44.0353969" lon="11.2867993"><ele>473.0</ele><time>2026-05-02T06:35:19.956Z</time></trkpt><trkpt lat="44.03553" lon="11.2867715"><ele>473.0</ele><time>2026-05-02T06:35:20.966Z</time></trkpt><trkpt lat="44.0356657" lon="11.2867476"><ele>473.0</ele><time>2026-05-02T06:35:21.972Z</time></trkpt><trkpt lat="44.0358013" lon="11.2867202"><ele>473.0</ele><time>2026-05-02T06:35:22.965Z</time></trkpt><trkpt lat="44.035933" lon="11.2866859"><ele>474.75</ele><time>2026-05-02T06:35:23.976Z</time></trkpt><trkpt lat="44.0360596" lon="11.2866476"><ele>476.5</ele><time>2026-05-02T06:35:24.977Z</time></trkpt><trkpt lat="44.0361895" lon="11.2865961"><ele>478.25</ele><time>2026-05-02T06:35:25.959Z</time></trkpt><trkpt lat="44.0363206" lon="11.2865399"><ele>480.0</ele><time>2026-05-02T06:35:26.969Z</time></trkpt><trkpt lat="44.0364541" lon="11.2864757"><ele>480.75</ele><time>2026-05-02T06:35:27.972Z</time></trkpt><trkpt lat="44.0365828" lon="11.2864017"><ele>481.5</ele><time>2026-05-02T06:35:28.964Z</time></trkpt><trkpt lat="44.0367048" lon="11.2863211"><ele>482.25</ele><time>2026-05-02T06:35:29.972Z</time></trkpt><trkpt lat="44.0368215" lon="11.2862382"><ele>483.0</ele><time>2026-05-02T06:35:30.973Z</time></trkpt><trkpt lat="44.0369457" lon="11.2861512"><ele>483.75</ele><time>2026-05-02T06:35:31.972Z</time></trkpt><trkpt lat="44.0370779" lon="11.286071"><ele>484.5</ele><time>2026-05-02T06:35:32.972Z</time></trkpt><trkpt lat="44.0372162" lon="11.2860251"><ele>485.25</ele><time>2026-05-02T06:35:33.968Z</time></trkpt><trkpt lat="44.0373505" lon="11.2859968"><ele>486.0</ele><time>2026-05-02T06:35:34.965Z</time></trkpt><trkpt lat="44.0374932" lon="11.286003"><ele>486.75</ele><time>2026-05-02T06:35:35.961Z</time></trkpt><trkpt lat="44.0376364" lon="11.2860184"><ele>487.5</ele><time>2026-05-02T06:35:36.974Z</time></trkpt><trkpt lat="44.0377825" lon="11.2860337"><ele>488.25</ele><time>2026-05-02T06:35:37.982Z</time></trkpt><trkpt lat="44.0379248" lon="11.2860501"><ele>489.0</ele><time>2026-05-02T06:35:38.971Z</time></trkpt><trkpt lat="44.038071" lon="11.2860595"><ele>489.0</ele><time>2026-05-02T06:35:39.969Z</time></trkpt><trkpt lat="44.0382091" lon="11.2860773"><ele>489.0</ele><time>2026-05-02T06:35:40.974Z</time></trkpt><trkpt lat="44.0383585" lon="11.2860959"><ele>489.0</ele><time>2026-05-02T06:35:41.967Z</time></trkpt><trkpt lat="44.0385055" lon="11.2861218"><ele>489.0</ele><time>2026-05-02T06:35:42.971Z</time></trkpt><trkpt lat="44.0386518" lon="11.286148"><ele>489.75</ele><time>2026-05-02T06:35:43.972Z</time></trkpt><trkpt lat="44.0387936" lon="11.2861724"><ele>490.5</ele><time>2026-05-02T06:35:44.97Z</time></trkpt><trkpt lat="44.0389362" lon="11.2861917"><ele>491.25</ele><time>2026-05-02T06:35:45.971Z</time></trkpt><trkpt lat="44.0390787" lon="11.286215"><ele>492.0</ele><time>2026-05-02T06:35:46.96Z</time></trkpt><trkpt lat="44.0392178" lon="11.2862438"><ele>493.5</ele><time>2026-05-02T06:35:47.961Z</time></trkpt><trkpt lat="44.03936" lon="11.2862762"><ele>495.0</ele><time>2026-05-02T06:35:48.966Z</time></trkpt><trkpt lat="44.039501" lon="11.2863211"><ele>496.5</ele><time>2026-05-02T06:35:49.962Z</time></trkpt><trkpt lat="44.0396434" lon="11.2863617"><ele>498.0</ele><time>2026-05-02T06:35:50.969Z</time></trkpt><trkpt lat="44.0397893" lon="11.2864034"><ele>499.33333333333337</ele><time>2026-05-02T06:35:51.961Z</time></trkpt><trkpt lat="44.0399379" lon="11.2864454"><ele>500.6666666666667</ele><time>2026-05-02T06:35:52.958Z</time></trkpt><trkpt lat="44.0400863" lon="11.2864875"><ele>502.0</ele><time>2026-05-02T06:35:53.975Z</time></trkpt><trkpt lat="44.0402359" lon="11.2865303"><ele>502.0</ele><time>2026-05-02T06:35:54.979Z</time></trkpt><trkpt lat="44.0403925" lon="11.2865744"><ele>502.0</ele><time>2026-05-02T06:35:55.97Z</time></trkpt><trkpt lat="44.0405481" lon="11.2866211"><ele>502.0</ele><time>2026-05-02T06:35:56.976Z</time></trkpt><trkpt lat="44.04071" lon="11.2866654"><ele>503.0</ele><time>2026-05-02T06:35:57.972Z</time></trkpt><trkpt lat="44.0408659" lon="11.2867078"><ele>504.0</ele><time>2026-05-02T06:35:58.973Z</time></trkpt><trkpt lat="44.0410223" lon="11.286755"><ele>505.0</ele><time>2026-05-02T06:35:59.968Z</time></trkpt><trkpt lat="44.041183" lon="11.286802"><ele>505.0</ele><time>2026-05-02T06:36:00.978Z</time></trkpt><trkpt lat="44.0413404" lon="11.2868473"><ele>505.0</ele><time>2026-05-02T06:36:01.972Z</time></trkpt><trkpt lat="44.0415001" lon="11.286894"><ele>505.0</ele><time>2026-05-02T06:36:02.978Z</time></trkpt><trkpt lat="44.0416549" lon="11.2869349"><ele>505.33333333333337</ele><time>2026-05-02T06:36:03.979Z</time></trkpt><trkpt lat="44.0418074" lon="11.2869747"><ele>505.66666666666663</ele><time>2026-05-02T06:36:04.972Z</time></trkpt><trkpt lat="44.0419593" lon="11.2870172"><ele>506.0</ele><time>2026-05-02T06:36:05.971Z</time></trkpt><trkpt lat="44.0421108" lon="11.2870622"><ele>506.0</ele><time>2026-05-02T06:36:06.971Z</time></trkpt><trkpt lat="44.0422623" lon="11.2871048"><ele>506.0</ele><time>2026-05-02T06:36:07.974Z</time></trkpt><trkpt lat="44.0424111" lon="11.2871405"><ele>506.0</ele><time>2026-05-02T06:36:09.053Z</time></trkpt><trkpt lat="44.0425547" lon="11.2871752"><ele>506.75</ele><time>2026-05-02T06:36:09.98Z</time></trkpt><trkpt lat="44.0426952" lon="11.287215"><ele>507.5</ele><time>2026-05-02T06:36:10.97Z</time></trkpt><trkpt lat="44.0428344" lon="11.2872583"><ele>508.25</ele><time>2026-05-02T06:36:11.971Z</time></trkpt><trkpt lat="44.042971" lon="11.2873019"><ele>509.0</ele><time>2026-05-02T06:36:13.024Z</time></trkpt><trkpt lat="44.0431072" lon="11.2873475"><ele>509.5</ele><time>2026-05-02T06:36:14.008Z</time></trkpt><trkpt lat="44.0432393" lon="11.2874033"><ele>510.0</ele><time>2026-05-02T06:36:14.98Z</time></trkpt><trkpt lat="44.0433783" lon="11.287461"><ele>510.5</ele><time>2026-05-02T06:36:15.975Z</time></trkpt><trkpt lat="44.0435185" lon="11.2875201"><ele>511.0</ele><time>2026-05-02T06:36:16.974Z</time></trkpt><trkpt lat="44.0436586" lon="11.2875774"><ele>512.5</ele><time>2026-05-02T06:36:17.971Z</time></trkpt><trkpt lat="44.0437919" lon="11.2876389"><ele>514.0</ele><time>2026-05-02T06:36:18.967Z</time></trkpt><trkpt lat="44.0439124" lon="11.2877305"><ele>515.5</ele><time>2026-05-02T06:36:20.032Z</time></trkpt><trkpt lat="44.0440203" lon="11.2878467"><ele>517.0</ele><time>2026-05-02T06:36:20.955Z</time></trkpt><trkpt lat="44.0441364" lon="11.2879581"><ele>519.0</ele><time>2026-05-02T06:36:21.965Z</time></trkpt><trkpt lat="44.0442433" lon="11.288068"><ele>521.0</ele><time>2026-05-02T06:36:22.959Z</time></trkpt><trkpt lat="44.0443555" lon="11.2881569"><ele>523.0</ele><time>2026-05-02T06:36:23.959Z</time></trkpt><trkpt lat="44.0444789" lon="11.2882206"><ele>525.0</ele><time>2026-05-02T06:36:24.967Z</time></trkpt><trkpt lat="44.0446168" lon="11.2882592"><ele>525.0</ele><time>2026-05-02T06:36:25.963Z</time></trkpt><trkpt lat="44.0447516" lon="11.2882921"><ele>525.0</ele><time>2026-05-02T06:36:26.966Z</time></trkpt><trkpt lat="44.0448894" lon="11.2883232"><ele>525.0</ele><time>2026-05-02T06:36:27.956Z</time></trkpt><trkpt lat="44.0450299" lon="11.288343"><ele>525.0</ele><time>2026-05-02T06:36:28.956Z</time></trkpt><trkpt lat="44.045164" lon="11.2883348"><ele>527.5</ele><time>2026-05-02T06:36:29.982Z</time></trkpt><trkpt lat="44.0452998" lon="11.2882988"><ele>530.0</ele><time>2026-05-02T06:36:30.937Z</time></trkpt><trkpt lat="44.0454338" lon="11.2882477"><ele>532.5</ele><time>2026-05-02T06:36:31.956Z</time></trkpt><trkpt lat="44.0455629" lon="11.2881963"><ele>535.0</ele><time>2026-05-02T06:36:32.979Z</time></trkpt><trkpt lat="44.0456913" lon="11.2881408"><ele>536.5</ele><time>2026-05-02T06:36:33.956Z</time></trkpt><trkpt lat="44.0458192" lon="11.2880878"><ele>538.0</ele><time>2026-05-02T06:36:35.034Z</time></trkpt><trkpt lat="44.0459447" lon="11.2880317"><ele>539.5</ele><time>2026-05-02T06:36:35.966Z</time></trkpt><trkpt lat="44.0460719" lon="11.2879753"><ele>541.0</ele><time>2026-05-02T06:36:36.962Z</time></trkpt><trkpt lat="44.0461936" lon="11.2879245"><ele>541.0</ele><time>2026-05-02T06:36:37.959Z</time></trkpt><trkpt lat="44.046319" lon="11.2878671"><ele>541.0</ele><time>2026-05-02T06:36:38.995Z</time></trkpt><trkpt lat="44.0464435" lon="11.2878137"><ele>541.0</ele><time>2026-05-02T06:36:39.958Z</time></trkpt><trkpt lat="44.0465765" lon="11.2877849"><ele>541.0</ele><time>2026-05-02T06:36:40.967Z</time></trkpt><trkpt lat="44.0467098" lon="11.2878219"><ele>542.0</ele><time>2026-05-02T06:36:41.964Z</time></trkpt><trkpt lat="44.0468324" lon="11.2878982"><ele>543.0</ele><time>2026-05-02T06:36:42.978Z</time></trkpt><trkpt lat="44.0469473" lon="11.2880034"><ele>544.0</ele><time>2026-05-02T06:36:43.963Z</time></trkpt><trkpt lat="44.04706" lon="11.2881082"><ele>545.0</ele><time>2026-05-02T06:36:44.957Z</time></trkpt><trkpt lat="44.0471816" lon="11.2881993"><ele>546.25</ele><time>2026-05-02T06:36:45.964Z</time></trkpt><trkpt lat="44.047312" lon="11.2882762"><ele>547.5</ele><time>2026-05-02T06:36:46.966Z</time></trkpt><trkpt lat="44.0474527" lon="11.2883353"><ele>548.75</ele><time>2026-05-02T06:36:47.967Z</time></trkpt><trkpt lat="44.0475878" lon="11.2883766"><ele>550.0</ele><time>2026-05-02T06:36:49.038Z</time></trkpt><trkpt lat="44.0477218" lon="11.2884169"><ele>552.0</ele><time>2026-05-02T06:36:50.038Z</time></trkpt><trkpt lat="44.047851" lon="11.2884801"><ele>554.0</ele><time>2026-05-02T06:36:50.957Z</time></trkpt><trkpt lat="44.0479574" lon="11.2885962"><ele>556.0</ele><time>2026-05-02T06:36:51.971Z</time></trkpt><trkpt lat="44.0480419" lon="11.2887355"><ele>558.0</ele><time>2026-05-02T06:36:52.964Z</time></trkpt><trkpt lat="44.0481196" lon="11.2888451"><ele>558.0</ele><time>2026-05-02T06:36:54.029Z</time></trkpt><trkpt lat="44.0482318" lon="11.2889168"><ele>558.0</ele><time>2026-05-02T06:36:55.018Z</time></trkpt><trkpt lat="44.0483517" lon="11.2889198"><ele>558.0</ele><time>2026-05-02T06:36:55.965Z</time></trkpt><trkpt lat="44.0484745" lon="11.2888785"><ele>558.0</ele><time>2026-05-02T06:36:56.963Z</time></trkpt><trkpt lat="44.0485889" lon="11.2888137"><ele>559.0</ele><time>2026-05-02T06:36:57.961Z</time></trkpt><trkpt lat="44.0487048" lon="11.2887658"><ele>560.0</ele><time>2026-05-02T06:36:58.964Z</time></trkpt><trkpt lat="44.048823" lon="11.2887633"><ele>561.0</ele><time>2026-05-02T06:36:59.96Z</time></trkpt><trkpt lat="44.04893" lon="11.288825"><ele>562.0</ele><time>2026-05-02T06:37:00.959Z</time></trkpt><trkpt lat="44.0490221" lon="11.2889295"><ele>562.0</ele><time>2026-05-02T06:37:01.975Z</time></trkpt><trkpt lat="44.0491198" lon="11.2890243"><ele>562.0</ele><time>2026-05-02T06:37:02.975Z</time></trkpt><trkpt lat="44.0492235" lon="11.2890212"><ele>562.0</ele><time>2026-05-02T06:37:03.976Z</time></trkpt><trkpt lat="44.0493273" lon="11.2889826"><ele>562.0</ele><time>2026-05-02T06:37:04.967Z</time></trkpt><trkpt lat="44.0494289" lon="11.2889304"><ele>562.0</ele><time>2026-05-02T06:37:05.947Z</time></trkpt><trkpt lat="44.0495379" lon="11.2888721"><ele>565.0</ele><time>2026-05-02T06:37:06.962Z</time></trkpt><trkpt lat="44.0496556" lon="11.28886"><ele>568.0</ele><time>2026-05-02T06:37:07.967Z</time></trkpt><trkpt lat="44.0497683" lon="11.2888538"><ele>571.0</ele><time>2026-05-02T06:37:08.959Z</time></trkpt><trkpt lat="44.0498933" lon="11.2888318"><ele>574.0</ele><time>2026-05-02T06:37:09.97Z</time></trkpt><trkpt lat="44.0500137" lon="11.2888151"><ele>575.5</ele><time>2026-05-02T06:37:10.97Z</time></trkpt><trkpt lat="44.0501415" lon="11.2887968"><ele>577.0</ele><time>2026-05-02T06:37:11.96Z</time></trkpt><trkpt lat="44.0502686" lon="11.288799"><ele>578.5</ele><time>2026-05-02T06:37:12.973Z</time></trkpt><trkpt lat="44.0503922" lon="11.28883"><ele>580.0</ele><time>2026-05-02T06:37:13.973Z</time></trkpt><trkpt lat="44.0505088" lon="11.2889226"><ele>581.25</ele><time>2026-05-02T06:37:14.959Z</time></trkpt><trkpt lat="44.0506167" lon="11.2890346"><ele>582.5</ele><time>2026-05-02T06:37:15.962Z</time></trkpt><trkpt lat="44.0507182" lon="11.2891478"><ele>583.75</ele><time>2026-05-02T06:37:16.96Z</time></trkpt><trkpt lat="44.05081" lon="11.2892596"><ele>585.0</ele><time>2026-05-02T06:37:17.954Z</time></trkpt><trkpt lat="44.0509072" lon="11.2893693"><ele>587.75</ele><time>2026-05-02T06:37:18.963Z</time></trkpt><trkpt lat="44.0510133" lon="11.2894664"><ele>590.5</ele><time>2026-05-02T06:37:19.964Z</time></trkpt><trkpt lat="44.0511348" lon="11.289532"><ele>593.25</ele><time>2026-05-02T06:37:20.958Z</time></trkpt><trkpt lat="44.0512694" lon="11.2895534"><ele>596.0</ele><time>2026-05-02T06:37:21.958Z</time></trkpt><trkpt lat="44.0514068" lon="11.2895276"><ele>596.0</ele><time>2026-05-02T06:37:22.969Z</time></trkpt><trkpt lat="44.0515393" lon="11.2894997"><ele>596.0</ele><time>2026-05-02T06:37:23.96Z</time></trkpt><trkpt lat="44.0516729" lon="11.2894902"><ele>596.0</ele><time>2026-05-02T06:37:24.964Z</time></trkpt><trkpt lat="44.0518109" lon="11.2895043"><ele>596.0</ele><time>2026-05-02T06:37:25.976Z</time></trkpt><trkpt lat="44.0519515" lon="11.2895201"><ele>597.75</ele><time>2026-05-02T06:37:26.965Z</time></trkpt><trkpt lat="44.0520924" lon="11.2895389"><ele>599.5</ele><time>2026-05-02T06:37:27.964Z</time></trkpt><trkpt lat="44.0522333" lon="11.2895692"><ele>601.25</ele><time>2026-05-02T06:37:28.967Z</time></trkpt><trkpt lat="44.0523751" lon="11.2895969"><ele>603.0</ele><time>2026-05-02T06:37:29.975Z</time></trkpt><trkpt lat="44.0525193" lon="11.2896251"><ele>604.75</ele><time>2026-05-02T06:37:30.959Z</time></trkpt><trkpt lat="44.0526674" lon="11.2896516"><ele>606.5</ele><time>2026-05-02T06:37:31.965Z</time></trkpt><trkpt lat="44.0528092" lon="11.2896787"><ele>608.25</ele><time>2026-05-02T06:37:32.952Z</time></trkpt><trkpt lat="44.0529491" lon="11.2897062"><ele>610.0</ele><time>2026-05-02T06:37:33.966Z</time></trkpt><trkpt lat="44.0530859" lon="11.2897429"><ele>611.75</ele><time>2026-05-02T06:37:34.959Z</time></trkpt><trkpt lat="44.0532172" lon="11.2897923"><ele>613.5</ele><time>2026-05-02T06:37:35.966Z</time></trkpt><trkpt lat="44.053345" lon="11.2898658"><ele>615.25</ele><time>2026-05-02T06:37:36.963Z</time></trkpt><trkpt lat="44.0534856" lon="11.2899227"><ele>617.0</ele><time>2026-05-02T06:37:37.972Z</time></trkpt><trkpt lat="44.0536255" lon="11.2899443"><ele>616.75</ele><time>2026-05-02T06:37:38.95Z</time></trkpt><trkpt lat="44.05376" lon="11.2899326"><ele>616.5</ele><time>2026-05-02T06:37:39.964Z</time></trkpt><trkpt lat="44.0539004" lon="11.2898524"><ele>616.25</ele><time>2026-05-02T06:37:40.971Z</time></trkpt><trkpt lat="44.0540317" lon="11.2897357"><ele>616.0</ele><time>2026-05-02T06:37:41.967Z</time></trkpt><trkpt lat="44.0541644" lon="11.2896082"><ele>616.0</ele><time>2026-05-02T06:37:42.968Z</time></trkpt><trkpt lat="44.054287" lon="11.2894825"><ele>616.0</ele><time>2026-05-02T06:37:43.973Z</time></trkpt><trkpt lat="44.0543915" lon="11.2893559"><ele>616.0</ele><time>2026-05-02T06:37:44.96Z</time></trkpt><trkpt lat="44.0544901" lon="11.2892504"><ele>616.0</ele><time>2026-05-02T06:37:45.973Z</time></trkpt><trkpt lat="44.0546056" lon="11.2891813"><ele>616.0</ele><time>2026-05-02T06:37:46.964Z</time></trkpt><trkpt lat="44.0547267" lon="11.2891527"><ele>616.0</ele><time>2026-05-02T06:37:47.945Z</time></trkpt><trkpt lat="44.0548697" lon="11.2891448"><ele>616.0</ele><time>2026-05-02T06:37:48.958Z</time></trkpt><trkpt lat="44.0550153" lon="11.2891735"><ele>616.0</ele><time>2026-05-02T06:37:49.962Z</time></trkpt><trkpt lat="44.0551599" lon="11.2892308"><ele>618.6666666666667</ele><time>2026-05-02T06:37:50.941Z</time></trkpt><trkpt lat="44.0553079" lon="11.2893204"><ele>621.3333333333334</ele><time>2026-05-02T06:37:51.961Z</time></trkpt><trkpt lat="44.0554533" lon="11.2894281"><ele>624.0</ele><time>2026-05-02T06:37:52.953Z</time></trkpt><trkpt lat="44.0555901" lon="11.2895323"><ele>624.0</ele><time>2026-05-02T06:37:53.969Z</time></trkpt><trkpt lat="44.0557236" lon="11.2896392"><ele>624.0</ele><time>2026-05-02T06:37:54.965Z</time></trkpt><trkpt lat="44.0558622" lon="11.2897392"><ele>624.0</ele><time>2026-05-02T06:37:55.959Z</time></trkpt><trkpt lat="44.056005" lon="11.2898315"><ele>625.3333333333334</ele><time>2026-05-02T06:37:56.962Z</time></trkpt><trkpt lat="44.056146" lon="11.289925"><ele>626.6666666666667</ele><time>2026-05-02T06:37:57.959Z</time></trkpt><trkpt lat="44.0562926" lon="11.2900068"><ele>628.0</ele><time>2026-05-02T06:37:58.964Z</time></trkpt><trkpt lat="44.0564294" lon="11.290078"><ele>628.0</ele><time>2026-05-02T06:37:59.96Z</time></trkpt><trkpt lat="44.0565588" lon="11.2901344"><ele>628.0</ele><time>2026-05-02T06:38:00.963Z</time></trkpt><trkpt lat="44.0566758" lon="11.2901721"><ele>628.0</ele><time>2026-05-02T06:38:01.963Z</time></trkpt><trkpt lat="44.0567924" lon="11.2902077"><ele>628.0</ele><time>2026-05-02T06:38:02.967Z</time></trkpt><trkpt lat="44.0569085" lon="11.2902499"><ele>626.5</ele><time>2026-05-02T06:38:03.971Z</time></trkpt><trkpt lat="44.0570251" lon="11.2902911"><ele>625.0</ele><time>2026-05-02T06:38:04.962Z</time></trkpt><trkpt lat="44.05714" lon="11.2903282"><ele>623.5</ele><time>2026-05-02T06:38:05.966Z</time></trkpt><trkpt lat="44.0572539" lon="11.2903717"><ele>622.0</ele><time>2026-05-02T06:38:06.969Z</time></trkpt><trkpt lat="44.0573704" lon="11.2904138"><ele>621.2</ele><time>2026-05-02T06:38:07.969Z</time></trkpt><trkpt lat="44.0574744" lon="11.290445"><ele>620.4000000000001</ele><time>2026-05-02T06:38:08.964Z</time></trkpt><trkpt lat="44.0575679" lon="11.2904844"><ele>619.5999999999999</ele><time>2026-05-02T06:38:09.963Z</time></trkpt><trkpt lat="44.0576632" lon="11.2905264"><ele>618.8</ele><time>2026-05-02T06:38:10.97Z</time></trkpt><trkpt lat="44.0577684" lon="11.2905732"><ele>618.0</ele><time>2026-05-02T06:38:11.962Z</time></trkpt><trkpt lat="44.0578888" lon="11.2906126"><ele>617.75</ele><time>2026-05-02T06:38:12.965Z</time></trkpt><trkpt lat="44.0580232" lon="11.2906329"><ele>617.5</ele><time>2026-05-02T06:38:13.962Z</time></trkpt><trkpt lat="44.0581774" lon="11.2905942"><ele>617.25</ele><time>2026-05-02T06:38:14.964Z</time></trkpt><trkpt lat="44.058319" lon="11.2905035"><ele>617.0</ele><time>2026-05-02T06:38:15.964Z</time></trkpt><trkpt lat="44.0584485" lon="11.2903929"><ele>617.0</ele><time>2026-05-02T06:38:16.959Z</time></trkpt><trkpt lat="44.0585818" lon="11.2903025"><ele>617.0</ele><time>2026-05-02T06:38:17.963Z</time></trkpt><trkpt lat="44.0587117" lon="11.2902141"><ele>617.0</ele><time>2026-05-02T06:38:18.966Z</time></trkpt><trkpt lat="44.0588595" lon="11.2901233"><ele>617.0</ele><time>2026-05-02T06:38:19.959Z</time></trkpt><trkpt lat="44.059002" lon="11.2900501"><ele>617.0</ele><time>2026-05-02T06:38:20.962Z</time></trkpt><trkpt lat="44.0591491" lon="11.2899961"><ele>617.0</ele><time>2026-05-02T06:38:21.966Z</time></trkpt><trkpt lat="44.0593068" lon="11.2899641"><ele>618.5</ele><time>2026-05-02T06:38:22.964Z</time></trkpt><trkpt lat="44.0594599" lon="11.2899474"><ele>620.0</ele><time>2026-05-02T06:38:23.97Z</time></trkpt><trkpt lat="44.0596153" lon="11.2899328"><ele>621.5</ele><time>2026-05-02T06:38:24.964Z</time></trkpt><trkpt lat="44.0597543" lon="11.2899129"><ele>623.0</ele><time>2026-05-02T06:38:25.97Z</time></trkpt><trkpt lat="44.059889" lon="11.2899012"><ele>622.5</ele><time>2026-05-02T06:38:26.969Z</time></trkpt><trkpt lat="44.0600203" lon="11.2899069"><ele>622.0</ele><time>2026-05-02T06:38:27.972Z</time></trkpt><trkpt lat="44.0601474" lon="11.2899456"><ele>621.5</ele><time>2026-05-02T06:38:28.977Z</time></trkpt><trkpt lat="44.0602814" lon="11.2900224"><ele>621.0</ele><time>2026-05-02T06:38:29.963Z</time></trkpt><trkpt lat="44.0604094" lon="11.2901117"><ele>621.0</ele><time>2026-05-02T06:38:30.965Z</time></trkpt><trkpt lat="44.0605352" lon="11.2901873"><ele>621.0</ele><time>2026-05-02T06:38:31.965Z</time></trkpt><trkpt lat="44.0606455" lon="11.2902412"><ele>621.0</ele><time>2026-05-02T06:38:32.96Z</time></trkpt><trkpt lat="44.060751" lon="11.2902793"><ele>621.0</ele><time>2026-05-02T06:38:33.963Z</time></trkpt><trkpt lat="44.0608587" lon="11.2903045"><ele>619.0</ele><time>2026-05-02T06:38:34.96Z</time></trkpt><trkpt lat="44.0609741" lon="11.2903016"><ele>617.0</ele><time>2026-05-02T06:38:35.964Z</time></trkpt><trkpt lat="44.0610932" lon="11.2902984"><ele>615.0</ele><time>2026-05-02T06:38:36.949Z</time></trkpt><trkpt lat="44.0612177" lon="11.2902911"><ele>613.0</ele><time>2026-05-02T06:38:37.963Z</time></trkpt><trkpt lat="44.0613472" lon="11.2902857"><ele>613.0</ele><time>2026-05-02T06:38:38.957Z</time></trkpt><trkpt lat="44.0614777" lon="11.2902813"><ele>613.0</ele><time>2026-05-02T06:38:39.961Z</time></trkpt><trkpt lat="44.0616059" lon="11.2902816"><ele>613.0</ele><time>2026-05-02T06:38:40.958Z</time></trkpt><trkpt lat="44.0617407" lon="11.2902762"><ele>613.0</ele><time>2026-05-02T06:38:41.961Z</time></trkpt><trkpt lat="44.0618744" lon="11.2902684"><ele>611.75</ele><time>2026-05-02T06:38:42.961Z</time></trkpt><trkpt lat="44.0619917" lon="11.2902372"><ele>610.5</ele><time>2026-05-02T06:38:43.957Z</time></trkpt><trkpt lat="44.0621054" lon="11.2901823"><ele>609.25</ele><time>2026-05-02T06:38:44.958Z</time></trkpt><trkpt lat="44.0622167" lon="11.2900953"><ele>608.0</ele><time>2026-05-02T06:38:45.964Z</time></trkpt><trkpt lat="44.0623163" lon="11.2899957"><ele>608.0</ele><time>2026-05-02T06:38:46.967Z</time></trkpt><trkpt lat="44.0624033" lon="11.2898943"><ele>608.0</ele><time>2026-05-02T06:38:47.964Z</time></trkpt><trkpt lat="44.0624737" lon="11.2897604"><ele>608.0</ele><time>2026-05-02T06:38:48.959Z</time></trkpt><trkpt lat="44.062523" lon="11.2896016"><ele>608.0</ele><time>2026-05-02T06:38:49.965Z</time></trkpt><trkpt lat="44.0625762" lon="11.2894449"><ele>604.6</ele><time>2026-05-02T06:38:50.963Z</time></trkpt><trkpt lat="44.0626387" lon="11.2893152"><ele>601.1999999999999</ele><time>2026-05-02T06:38:51.976Z</time></trkpt><trkpt lat="44.0627205" lon="11.2892173"><ele>597.8</ele><time>2026-05-02T06:38:52.961Z</time></trkpt><trkpt lat="44.0628189" lon="11.2891601"><ele>594.4</ele><time>2026-05-02T06:38:53.959Z</time></trkpt><trkpt lat="44.0629271" lon="11.2891364"><ele>591.0</ele><time>2026-05-02T06:38:54.961Z</time></trkpt><trkpt lat="44.0630402" lon="11.2891253"><ele>591.0</ele><time>2026-05-02T06:38:55.965Z</time></trkpt><trkpt lat="44.0631613" lon="11.2891115"><ele>591.0</ele><time>2026-05-02T06:38:57.033Z</time></trkpt><trkpt lat="44.0632874" lon="11.2891133"><ele>591.0</ele><time>2026-05-02T06:38:58.037Z</time></trkpt><trkpt lat="44.0634072" lon="11.2891119"><ele>591.0</ele><time>2026-05-02T06:38:58.976Z</time></trkpt><trkpt lat="44.0635243" lon="11.289104"><ele>592.0</ele><time>2026-05-02T06:39:00.035Z</time></trkpt><trkpt lat="44.0636344" lon="11.2890908"><ele>593.0</ele><time>2026-05-02T06:39:00.958Z</time></trkpt><trkpt lat="44.063742" lon="11.2890805"><ele>594.0</ele><time>2026-05-02T06:39:01.973Z</time></trkpt><trkpt lat="44.0638539" lon="11.2890712"><ele>595.0</ele><time>2026-05-02T06:39:02.992Z</time></trkpt><trkpt lat="44.0639564" lon="11.2890608"><ele>596.0</ele><time>2026-05-02T06:39:03.954Z</time></trkpt><trkpt lat="44.0640618" lon="11.2890551"><ele>595.6</ele><time>2026-05-02T06:39:04.956Z</time></trkpt><trkpt lat="44.0641613" lon="11.289049"><ele>595.2</ele><time>2026-05-02T06:39:05.964Z</time></trkpt><trkpt lat="44.0642624" lon="11.2890526"><ele>594.8</ele><time>2026-05-02T06:39:06.95Z</time></trkpt><trkpt lat="44.0643622" lon="11.2890629"><ele>594.4</ele><time>2026-05-02T06:39:07.96Z</time></trkpt><trkpt lat="44.0644483" lon="11.2890786"><ele>594.0</ele><time>2026-05-02T06:39:08.961Z</time></trkpt><trkpt lat="44.06452" lon="11.2891205"><ele>594.0</ele><time>2026-05-02T06:39:10.962Z</time></trkpt><trkpt lat="44.0645418" lon="11.2892169"><ele>594.0</ele><time>2026-05-02T06:39:13.958Z</time></trkpt><trkpt lat="44.0646191" lon="11.2892737"><ele>594.0</ele><time>2026-05-02T06:39:15.96Z</time></trkpt><trkpt lat="44.0647011" lon="11.2893638"><ele>594.0</ele><time>2026-05-02T06:39:17.953Z</time></trkpt><trkpt lat="44.0647807" lon="11.2894865"><ele>594.0</ele><time>2026-05-02T06:39:19.962Z</time></trkpt><trkpt lat="44.0648396" lon="11.2896124"><ele>594.0</ele><time>2026-05-02T06:39:21.963Z</time></trkpt><trkpt lat="44.0648519" lon="11.2897306"><ele>594.0</ele><time>2026-05-02T06:39:23.964Z</time></trkpt><trkpt lat="44.0648816" lon="11.2898671"><ele>594.0</ele><time>2026-05-02T06:39:25.959Z</time></trkpt><trkpt lat="44.0649645" lon="11.2899907"><ele>594.0</ele><time>2026-05-02T06:39:27.964Z</time></trkpt><trkpt lat="44.0650554" lon="11.2901308"><ele>594.0</ele><time>2026-05-02T06:39:29.962Z</time></trkpt><trkpt lat="44.0651059" lon="11.2902149"><ele>595.3333333333334</ele><time>2026-05-02T06:39:30.965Z</time></trkpt><trkpt lat="44.0651524" lon="11.2903025"><ele>596.6666666666666</ele><time>2026-05-02T06:39:31.97Z</time></trkpt><trkpt lat="44.0652068" lon="11.2903729"><ele>598.0</ele><time>2026-05-02T06:39:32.97Z</time></trkpt><trkpt lat="44.0652664" lon="11.2904366"><ele>599.3333333333333</ele><time>2026-05-02T06:39:34.03Z</time></trkpt><trkpt lat="44.0653181" lon="11.2905015"><ele>600.6666666666666</ele><time>2026-05-02T06:39:35.032Z</time></trkpt><trkpt lat="44.0653661" lon="11.2905803"><ele>602.0</ele><time>2026-05-02T06:39:35.962Z</time></trkpt><trkpt lat="44.0654174" lon="11.2906662"><ele>604.0</ele><time>2026-05-02T06:39:36.973Z</time></trkpt><trkpt lat="44.0654634" lon="11.290749"><ele>606.0</ele><time>2026-05-02T06:39:37.983Z</time></trkpt><trkpt lat="44.0654998" lon="11.2908285"><ele>608.0</ele><time>2026-05-02T06:39:39.032Z</time></trkpt><trkpt lat="44.0655345" lon="11.2909054"><ele>610.0</ele><time>2026-05-02T06:39:39.999Z</time></trkpt><trkpt lat="44.0655719" lon="11.2909787"><ele>612.0</ele><time>2026-05-02T06:39:40.95Z</time></trkpt><trkpt lat="44.0656074" lon="11.2910555"><ele>614.0</ele><time>2026-05-02T06:39:41.952Z</time></trkpt><trkpt lat="44.0656533" lon="11.2911166"><ele>616.0</ele><time>2026-05-02T06:39:43Z</time></trkpt><trkpt lat="44.0657117" lon="11.2911749"><ele>616.0</ele><time>2026-05-02T06:39:43.973Z</time></trkpt><trkpt lat="44.0657711" lon="11.2912263"><ele>616.0</ele><time>2026-05-02T06:39:44.954Z</time></trkpt><trkpt lat="44.0658321" lon="11.2912717"><ele>616.0</ele><time>2026-05-02T06:39:45.957Z</time></trkpt><trkpt lat="44.0658994" lon="11.2913281"><ele>616.0</ele><time>2026-05-02T06:39:46.953Z</time></trkpt><trkpt lat="44.0659547" lon="11.2913867"><ele>616.0</ele><time>2026-05-02T06:39:47.951Z</time></trkpt><trkpt lat="44.0660077" lon="11.2914535"><ele>616.0</ele><time>2026-05-02T06:39:48.957Z</time></trkpt><trkpt lat="44.0660528" lon="11.2915259"><ele>616.0</ele><time>2026-05-02T06:39:49.955Z</time></trkpt><trkpt lat="44.0661041" lon="11.2915975"><ele>618.1666666666667</ele><time>2026-05-02T06:39:50.953Z</time></trkpt><trkpt lat="44.0661539" lon="11.2916613"><ele>620.3333333333334</ele><time>2026-05-02T06:39:51.96Z</time></trkpt><trkpt lat="44.0662154" lon="11.2917192"><ele>622.5</ele><time>2026-05-02T06:39:52.959Z</time></trkpt><trkpt lat="44.066286" lon="11.2917591"><ele>624.6666666666666</ele><time>2026-05-02T06:39:53.953Z</time></trkpt><trkpt lat="44.0663633" lon="11.2917853"><ele>626.8333333333333</ele><time>2026-05-02T06:39:54.95Z</time></trkpt><trkpt lat="44.0664395" lon="11.2918185"><ele>629.0</ele><time>2026-05-02T06:39:55.956Z</time></trkpt><trkpt lat="44.0665079" lon="11.2918533"><ele>629.0</ele><time>2026-05-02T06:39:56.951Z</time></trkpt><trkpt lat="44.0665748" lon="11.291899"><ele>629.0</ele><time>2026-05-02T06:39:57.945Z</time></trkpt><trkpt lat="44.0666721" lon="11.2919862"><ele>629.0</ele><time>2026-05-02T06:40:00.033Z</time></trkpt><trkpt lat="44.0667609" lon="11.2921036"><ele>629.0</ele><time>2026-05-02T06:40:01.963Z</time></trkpt><trkpt lat="44.0668066" lon="11.2921661"><ele>629.0</ele><time>2026-05-02T06:40:02.958Z</time></trkpt><trkpt lat="44.0669051" lon="11.2922725"><ele>631.6666666666666</ele><time>2026-05-02T06:40:04.957Z</time></trkpt><trkpt lat="44.0669735" lon="11.2923307"><ele>634.3333333333333</ele><time>2026-05-02T06:40:05.954Z</time></trkpt><trkpt lat="44.0670482" lon="11.2923807"><ele>637.0</ele><time>2026-05-02T06:40:06.961Z</time></trkpt><trkpt lat="44.067132" lon="11.2924311"><ele>639.6666666666666</ele><time>2026-05-02T06:40:07.965Z</time></trkpt><trkpt lat="44.0672139" lon="11.2924742"><ele>642.3333333333334</ele><time>2026-05-02T06:40:08.976Z</time></trkpt><trkpt lat="44.0672896" lon="11.2925195"><ele>645.0</ele><time>2026-05-02T06:40:09.956Z</time></trkpt><trkpt lat="44.0673812" lon="11.2925702"><ele>645.4</ele><time>2026-05-02T06:40:10.955Z</time></trkpt><trkpt lat="44.0674665" lon="11.2926669"><ele>645.8</ele><time>2026-05-02T06:40:11.958Z</time></trkpt><trkpt lat="44.0675522" lon="11.2927561"><ele>646.2</ele><time>2026-05-02T06:40:12.961Z</time></trkpt><trkpt lat="44.0676384" lon="11.29282"><ele>646.6</ele><time>2026-05-02T06:40:13.958Z</time></trkpt><trkpt lat="44.0677165" lon="11.2928815"><ele>647.0</ele><time>2026-05-02T06:40:14.966Z</time></trkpt><trkpt lat="44.0677791" lon="11.2929392"><ele>647.0</ele><time>2026-05-02T06:40:15.969Z</time></trkpt><trkpt lat="44.0678498" lon="11.292993"><ele>647.0</ele><time>2026-05-02T06:40:16.954Z</time></trkpt><trkpt lat="44.0679261" lon="11.2930373"><ele>647.0</ele><time>2026-05-02T06:40:18.036Z</time></trkpt><trkpt lat="44.068015" lon="11.2930753"><ele>647.0</ele><time>2026-05-02T06:40:19.031Z</time></trkpt><trkpt lat="44.0681065" lon="11.2930951"><ele>647.0</ele><time>2026-05-02T06:40:20.026Z</time></trkpt><trkpt lat="44.0682047" lon="11.2931101"><ele>647.0</ele><time>2026-05-02T06:40:20.979Z</time></trkpt><trkpt lat="44.0683008" lon="11.2931261"><ele>648.6666666666666</ele><time>2026-05-02T06:40:21.984Z</time></trkpt><trkpt lat="44.0683862" lon="11.2931493"><ele>650.3333333333333</ele><time>2026-05-02T06:40:22.977Z</time></trkpt><trkpt lat="44.0684676" lon="11.2931687"><ele>652.0</ele><time>2026-05-02T06:40:23.97Z</time></trkpt><trkpt lat="44.0685452" lon="11.2931976"><ele>653.6666666666666</ele><time>2026-05-02T06:40:25.033Z</time></trkpt><trkpt lat="44.0686208" lon="11.2932245"><ele>655.3333333333334</ele><time>2026-05-02T06:40:25.95Z</time></trkpt><trkpt lat="44.0687061" lon="11.2932297"><ele>657.0</ele><time>2026-05-02T06:40:26.957Z</time></trkpt><trkpt lat="44.0688018" lon="11.2932391"><ele>657.0</ele><time>2026-05-02T06:40:27.958Z</time></trkpt><trkpt lat="44.0688956" lon="11.2932507"><ele>657.0</ele><time>2026-05-02T06:40:29.04Z</time></trkpt><trkpt lat="44.0689796" lon="11.2932628"><ele>657.0</ele><time>2026-05-02T06:40:30.031Z</time></trkpt><trkpt lat="44.0690514" lon="11.2932927"><ele>657.0</ele><time>2026-05-02T06:40:30.966Z</time></trkpt><trkpt lat="44.0691152" lon="11.2933401"><ele>657.0</ele><time>2026-05-02T06:40:31.971Z</time></trkpt><trkpt lat="44.0691765" lon="11.2934069"><ele>657.0</ele><time>2026-05-02T06:40:32.986Z</time></trkpt><trkpt lat="44.0692384" lon="11.2934851"><ele>657.8</ele><time>2026-05-02T06:40:33.956Z</time></trkpt><trkpt lat="44.0692907" lon="11.2935524"><ele>658.6</ele><time>2026-05-02T06:40:34.962Z</time></trkpt><trkpt lat="44.0693496" lon="11.2936921"><ele>659.4</ele><time>2026-05-02T06:40:36.957Z</time></trkpt><trkpt lat="44.0693738" lon="11.2938336"><ele>660.1999999999999</ele><time>2026-05-02T06:40:39.067Z</time></trkpt><trkpt lat="44.0693791" lon="11.2939949"><ele>661.0</ele><time>2026-05-02T06:40:40.962Z</time></trkpt><trkpt lat="44.0693927" lon="11.2941249"><ele>663.6666666666667</ele><time>2026-05-02T06:40:42.968Z</time></trkpt><trkpt lat="44.0694091" lon="11.2942357"><ele>666.3333333333334</ele><time>2026-05-02T06:40:44.962Z</time></trkpt><trkpt lat="44.0694347" lon="11.2943514"><ele>669.0</ele><time>2026-05-02T06:40:46.96Z</time></trkpt><trkpt lat="44.0694726" lon="11.2944565"><ele>671.6666666666666</ele><time>2026-05-02T06:40:48.97Z</time></trkpt><trkpt lat="44.0695316" lon="11.2945614"><ele>674.3333333333333</ele><time>2026-05-02T06:40:50.971Z</time></trkpt><trkpt lat="44.0695747" lon="11.2946253"><ele>677.0</ele><time>2026-05-02T06:40:51.961Z</time></trkpt><trkpt lat="44.0696281" lon="11.2946735"><ele>677.0</ele><time>2026-05-02T06:40:52.966Z</time></trkpt><trkpt lat="44.0696867" lon="11.2947194"><ele>677.0</ele><time>2026-05-02T06:40:53.957Z</time></trkpt><trkpt lat="44.0698014" lon="11.2947984"><ele>677.0</ele><time>2026-05-02T06:40:55.957Z</time></trkpt><trkpt lat="44.0698639" lon="11.2948479"><ele>677.0</ele><time>2026-05-02T06:40:56.962Z</time></trkpt><trkpt lat="44.0699336" lon="11.2949032"><ele>677.0</ele><time>2026-05-02T06:40:58.04Z</time></trkpt><trkpt lat="44.0699992" lon="11.2949596"><ele>677.0</ele><time>2026-05-02T06:40:59.037Z</time></trkpt><trkpt lat="44.0700569" lon="11.2950151"><ele>679.5</ele><time>2026-05-02T06:41:00.03Z</time></trkpt><trkpt lat="44.0701114" lon="11.2950697"><ele>682.0</ele><time>2026-05-02T06:41:00.959Z</time></trkpt><trkpt lat="44.070195" lon="11.2951464"><ele>684.5</ele><time>2026-05-02T06:41:02.985Z</time></trkpt><trkpt lat="44.0702545" lon="11.2951751"><ele>687.0</ele><time>2026-05-02T06:41:06.959Z</time></trkpt><trkpt lat="44.0701973" lon="11.2951379"><ele>689.5</ele><time>2026-05-02T06:41:09.96Z</time></trkpt><trkpt lat="44.0701225" lon="11.295111"><ele>692.0</ele><time>2026-05-02T06:41:11.957Z</time></trkpt><trkpt lat="44.0700476" lon="11.2950471"><ele>692.0</ele><time>2026-05-02T06:41:13.989Z</time></trkpt><trkpt lat="44.0699522" lon="11.2949589"><ele>692.0</ele><time>2026-05-02T06:41:15.953Z</time></trkpt><trkpt lat="44.0698842" lon="11.2949151"><ele>692.0</ele><time>2026-05-02T06:41:16.961Z</time></trkpt><trkpt lat="44.0698193" lon="11.294874"><ele>692.0</ele><time>2026-05-02T06:41:17.96Z</time></trkpt><trkpt lat="44.0697548" lon="11.2948359"><ele>692.0</ele><time>2026-05-02T06:41:18.981Z</time></trkpt><trkpt lat="44.0696943" lon="11.2947957"><ele>692.0</ele><time>2026-05-02T06:41:19.952Z</time></trkpt><trkpt lat="44.069595" lon="11.2947201"><ele>689.5</ele><time>2026-05-02T06:41:21.963Z</time></trkpt><trkpt lat="44.069537" lon="11.2946358"><ele>687.0</ele><time>2026-05-02T06:41:23.96Z</time></trkpt><trkpt lat="44.0694823" lon="11.2945482"><ele>684.5</ele><time>2026-05-02T06:41:26.944Z</time></trkpt><trkpt lat="44.069442" lon="11.2944364"><ele>682.0</ele><time>2026-05-02T06:41:29.955Z</time></trkpt><trkpt lat="44.069418" lon="11.2943439"><ele>679.5</ele><time>2026-05-02T06:41:32.949Z</time></trkpt><trkpt lat="44.0694313" lon="11.2942419"><ele>677.0</ele><time>2026-05-02T06:41:36.934Z</time></trkpt><trkpt lat="44.0694228" lon="11.2941231"><ele>677.0</ele><time>2026-05-02T06:41:39.943Z</time></trkpt><trkpt lat="44.0694114" lon="11.294015"><ele>677.0</ele><time>2026-05-02T06:41:41.948Z</time></trkpt><trkpt lat="44.0694065" lon="11.2939057"><ele>677.0</ele><time>2026-05-02T06:41:43.949Z</time></trkpt><trkpt lat="44.0693899" lon="11.2938017"><ele>677.0</ele><time>2026-05-02T06:41:45.947Z</time></trkpt><trkpt lat="44.0693643" lon="11.2937129"><ele>677.0</ele><time>2026-05-02T06:41:47.937Z</time></trkpt><trkpt lat="44.0693246" lon="11.2936106"><ele>677.0</ele><time>2026-05-02T06:41:49.947Z</time></trkpt><trkpt lat="44.0692457" lon="11.2935123"><ele>674.3333333333333</ele><time>2026-05-02T06:41:51.958Z</time></trkpt><trkpt lat="44.0691894" lon="11.2934584"><ele>671.6666666666666</ele><time>2026-05-02T06:41:52.962Z</time></trkpt><trkpt lat="44.0690923" lon="11.2933955"><ele>669.0</ele><time>2026-05-02T06:41:54.969Z</time></trkpt><trkpt lat="44.0690255" lon="11.2933758"><ele>666.3333333333334</ele><time>2026-05-02T06:41:55.955Z</time></trkpt><trkpt lat="44.0689504" lon="11.2933591"><ele>663.6666666666667</ele><time>2026-05-02T06:41:56.962Z</time></trkpt><trkpt lat="44.0688665" lon="11.2933442"><ele>661.0</ele><time>2026-05-02T06:41:57.954Z</time></trkpt><trkpt lat="44.0687761" lon="11.293327"><ele>660.1999999999999</ele><time>2026-05-02T06:41:58.959Z</time></trkpt><trkpt lat="44.0686849" lon="11.2932984"><ele>659.4</ele><time>2026-05-02T06:41:59.957Z</time></trkpt><trkpt lat="44.0685985" lon="11.2932672"><ele>658.6</ele><time>2026-05-02T06:42:00.96Z</time></trkpt><trkpt lat="44.0685142" lon="11.2932386"><ele>657.8</ele><time>2026-05-02T06:42:01.955Z</time></trkpt><trkpt lat="44.0684189" lon="11.2932151"><ele>657.0</ele><time>2026-05-02T06:42:02.954Z</time></trkpt><trkpt lat="44.068312" lon="11.2931926"><ele>657.0</ele><time>2026-05-02T06:42:03.949Z</time></trkpt><trkpt lat="44.0681988" lon="11.2931577"><ele>657.0</ele><time>2026-05-02T06:42:04.953Z</time></trkpt><trkpt lat="44.0680921" lon="11.2931111"><ele>657.0</ele><time>2026-05-02T06:42:05.949Z</time></trkpt><trkpt lat="44.0679844" lon="11.2930679"><ele>657.0</ele><time>2026-05-02T06:42:06.958Z</time></trkpt><trkpt lat="44.0679037" lon="11.29303"><ele>657.0</ele><time>2026-05-02T06:42:07.955Z</time></trkpt><trkpt lat="44.0678399" lon="11.2929984"><ele>655.3333333333334</ele><time>2026-05-02T06:42:08.952Z</time></trkpt><trkpt lat="44.0677752" lon="11.2929596"><ele>653.6666666666666</ele><time>2026-05-02T06:42:09.969Z</time></trkpt><trkpt lat="44.0677017" lon="11.2929099"><ele>652.0</ele><time>2026-05-02T06:42:10.974Z</time></trkpt><trkpt lat="44.067622" lon="11.2928728"><ele>650.3333333333333</ele><time>2026-05-02T06:42:11.959Z</time></trkpt><trkpt lat="44.0675391" lon="11.2928376"><ele>648.6666666666666</ele><time>2026-05-02T06:42:12.958Z</time></trkpt><trkpt lat="44.0674554" lon="11.2928075"><ele>647.0</ele><time>2026-05-02T06:42:13.952Z</time></trkpt><trkpt lat="44.0673771" lon="11.2927723"><ele>646.6666666666666</ele><time>2026-05-02T06:42:15.032Z</time></trkpt><trkpt lat="44.0673022" lon="11.2927383"><ele>646.3333333333333</ele><time>2026-05-02T06:42:15.951Z</time></trkpt><trkpt lat="44.067231" lon="11.2927169"><ele>646.0</ele><time>2026-05-02T06:42:16.954Z</time></trkpt><trkpt lat="44.0671622" lon="11.2926863"><ele>645.6666666666666</ele><time>2026-05-02T06:42:17.979Z</time></trkpt><trkpt lat="44.0670923" lon="11.2926455"><ele>645.3333333333334</ele><time>2026-05-02T06:42:19.032Z</time></trkpt><trkpt lat="44.0670274" lon="11.2925958"><ele>645.0</ele><time>2026-05-02T06:42:20.032Z</time></trkpt><trkpt lat="44.0669616" lon="11.2925337"><ele>645.0</ele><time>2026-05-02T06:42:20.956Z</time></trkpt><trkpt lat="44.0668702" lon="11.2924332"><ele>645.0</ele><time>2026-05-02T06:42:23.032Z</time></trkpt><trkpt lat="44.0668122" lon="11.2923008"><ele>645.0</ele><time>2026-05-02T06:42:25.036Z</time></trkpt><trkpt lat="44.0667553" lon="11.2921818"><ele>645.0</ele><time>2026-05-02T06:42:26.962Z</time></trkpt><trkpt lat="44.0666942" lon="11.2921077"><ele>645.0</ele><time>2026-05-02T06:42:29.05Z</time></trkpt><trkpt lat="44.0666027" lon="11.2920043"><ele>642.3333333333334</ele><time>2026-05-02T06:42:30.953Z</time></trkpt><trkpt lat="44.0665373" lon="11.2919575"><ele>639.6666666666666</ele><time>2026-05-02T06:42:31.96Z</time></trkpt><trkpt lat="44.0664672" lon="11.2919225"><ele>637.0</ele><time>2026-05-02T06:42:32.965Z</time></trkpt><trkpt lat="44.0663937" lon="11.2918915"><ele>634.3333333333333</ele><time>2026-05-02T06:42:34.035Z</time></trkpt><trkpt lat="44.066324" lon="11.2918627"><ele>631.6666666666666</ele><time>2026-05-02T06:42:34.96Z</time></trkpt><trkpt lat="44.0662189" lon="11.2917762"><ele>629.0</ele><time>2026-05-02T06:42:36.973Z</time></trkpt><trkpt lat="44.0661678" lon="11.2917137"><ele>629.0</ele><time>2026-05-02T06:42:38.035Z</time></trkpt><trkpt lat="44.0661146" lon="11.2916455"><ele>629.0</ele><time>2026-05-02T06:42:39.031Z</time></trkpt><trkpt lat="44.0660497" lon="11.2915635"><ele>629.0</ele><time>2026-05-02T06:42:39.973Z</time></trkpt><trkpt lat="44.0659645" lon="11.291497"><ele>629.0</ele><time>2026-05-02T06:42:40.963Z</time></trkpt><trkpt lat="44.0658905" lon="11.2914369"><ele>629.0</ele><time>2026-05-02T06:42:41.972Z</time></trkpt><trkpt lat="44.0658259" lon="11.2913807"><ele>629.0</ele><time>2026-05-02T06:42:42.968Z</time></trkpt><trkpt lat="44.0657739" lon="11.2913101"><ele>627.1428571428571</ele><time>2026-05-02T06:42:43.97Z</time></trkpt><trkpt lat="44.0657235" lon="11.2912404"><ele>625.2857142857143</ele><time>2026-05-02T06:42:44.968Z</time></trkpt><trkpt lat="44.0656758" lon="11.2911548"><ele>623.4285714285714</ele><time>2026-05-02T06:42:45.967Z</time></trkpt><trkpt lat="44.0656387" lon="11.2910692"><ele>621.5714285714286</ele><time>2026-05-02T06:42:46.973Z</time></trkpt><trkpt lat="44.0655944" lon="11.2909831"><ele>619.7142857142858</ele><time>2026-05-02T06:42:47.983Z</time></trkpt><trkpt lat="44.0655609" lon="11.2909019"><ele>617.8571428571429</ele><time>2026-05-02T06:42:48.961Z</time></trkpt><trkpt lat="44.0655287" lon="11.290824"><ele>616.0</ele><time>2026-05-02T06:42:49.965Z</time></trkpt><trkpt lat="44.0654501" lon="11.2906844"><ele>616.0</ele><time>2026-05-02T06:42:51.969Z</time></trkpt><trkpt lat="44.0653961" lon="11.2906154"><ele>616.0</ele><time>2026-05-02T06:42:52.972Z</time></trkpt><trkpt lat="44.0653347" lon="11.2905491"><ele>616.0</ele><time>2026-05-02T06:42:54.03Z</time></trkpt><trkpt lat="44.0652717" lon="11.2904801"><ele>616.0</ele><time>2026-05-02T06:42:55.032Z</time></trkpt><trkpt lat="44.0652036" lon="11.2904107"><ele>616.0</ele><time>2026-05-02T06:42:55.95Z</time></trkpt><trkpt lat="44.065136" lon="11.2903414"><ele>616.0</ele><time>2026-05-02T06:42:56.958Z</time></trkpt><trkpt lat="44.0650801" lon="11.2902624"><ele>616.2</ele><time>2026-05-02T06:42:57.954Z</time></trkpt><trkpt lat="44.065037" lon="11.2901831"><ele>616.4000000000001</ele><time>2026-05-02T06:42:59.036Z</time></trkpt><trkpt lat="44.064972" lon="11.2900502"><ele>616.6</ele><time>2026-05-02T06:43:00.964Z</time></trkpt><trkpt lat="44.0649443" lon="11.2898956"><ele>616.8000000000001</ele><time>2026-05-02T06:43:02.981Z</time></trkpt><trkpt lat="44.0649287" lon="11.2897372"><ele>617.0</ele><time>2026-05-02T06:43:05.032Z</time></trkpt><trkpt lat="44.0648687" lon="11.2896052"><ele>612.4</ele><time>2026-05-02T06:43:07.048Z</time></trkpt><trkpt lat="44.0647611" lon="11.2894978"><ele>607.8000000000001</ele><time>2026-05-02T06:43:09.031Z</time></trkpt><trkpt lat="44.0646996" lon="11.2894333"><ele>603.2</ele><time>2026-05-02T06:43:10.033Z</time></trkpt><trkpt lat="44.0646381" lon="11.2893778"><ele>598.6</ele><time>2026-05-02T06:43:10.972Z</time></trkpt><trkpt lat="44.0645486" lon="11.2892979"><ele>594.0</ele><time>2026-05-02T06:43:12.977Z</time></trkpt><trkpt lat="44.0645439" lon="11.2891999"><ele>594.0</ele><time>2026-05-02T06:43:15.97Z</time></trkpt><trkpt lat="44.0646412" lon="11.2892145"><ele>594.0</ele><time>2026-05-02T06:44:29.973Z</time></trkpt><trkpt lat="44.0647058" lon="11.2892534"><ele>594.0</ele><time>2026-05-02T06:44:30.969Z</time></trkpt><trkpt lat="44.0647755" lon="11.2892847"><ele>594.0</ele><time>2026-05-02T06:44:31.966Z</time></trkpt><trkpt lat="44.0648547" lon="11.2893312"><ele>594.0</ele><time>2026-05-02T06:44:32.952Z</time></trkpt><trkpt lat="44.0649409" lon="11.2893701"><ele>594.0</ele><time>2026-05-02T06:44:33.966Z</time></trkpt><trkpt lat="44.0650226" lon="11.2893898"><ele>592.4</ele><time>2026-05-02T06:44:34.969Z</time></trkpt><trkpt lat="44.0651125" lon="11.2893899"><ele>590.8</ele><time>2026-05-02T06:44:35.973Z</time></trkpt><trkpt lat="44.0652315" lon="11.2894029"><ele>589.2</ele><time>2026-05-02T06:44:36.978Z</time></trkpt><trkpt lat="44.0653552" lon="11.2894164"><ele>587.6</ele><time>2026-05-02T06:44:37.968Z</time></trkpt><trkpt lat="44.0654692" lon="11.2894182"><ele>586.0</ele><time>2026-05-02T06:44:38.97Z</time></trkpt><trkpt lat="44.0655897" lon="11.2894125"><ele>586.0</ele><time>2026-05-02T06:44:39.975Z</time></trkpt><trkpt lat="44.0656984" lon="11.2893984"><ele>586.0</ele><time>2026-05-02T06:44:40.972Z</time></trkpt><trkpt lat="44.0658013" lon="11.2893782"><ele>586.0</ele><time>2026-05-02T06:44:41.968Z</time></trkpt><trkpt lat="44.0658946" lon="11.2893374"><ele>586.0</ele><time>2026-05-02T06:44:42.976Z</time></trkpt><trkpt lat="44.0659837" lon="11.2892646"><ele>586.0</ele><time>2026-05-02T06:44:43.971Z</time></trkpt><trkpt lat="44.0660796" lon="11.2891816"><ele>585.2</ele><time>2026-05-02T06:44:44.967Z</time></trkpt><trkpt lat="44.0661735" lon="11.2890933"><ele>584.4000000000001</ele><time>2026-05-02T06:44:45.971Z</time></trkpt><trkpt lat="44.0662633" lon="11.2890051"><ele>583.6</ele><time>2026-05-02T06:44:46.968Z</time></trkpt><trkpt lat="44.0663514" lon="11.2889106"><ele>582.8000000000001</ele><time>2026-05-02T06:44:47.975Z</time></trkpt><trkpt lat="44.0664473" lon="11.2888365"><ele>582.0</ele><time>2026-05-02T06:44:48.973Z</time></trkpt><trkpt lat="44.0665388" lon="11.2887697"><ele>582.0</ele><time>2026-05-02T06:44:49.968Z</time></trkpt><trkpt lat="44.0666311" lon="11.2887059"><ele>582.0</ele><time>2026-05-02T06:44:50.953Z</time></trkpt><trkpt lat="44.0667027" lon="11.2886306"><ele>582.0</ele><time>2026-05-02T06:44:51.97Z</time></trkpt><trkpt lat="44.066781" lon="11.2885598"><ele>582.0</ele><time>2026-05-02T06:44:52.968Z</time></trkpt><trkpt lat="44.0668621" lon="11.2885104"><ele>582.0</ele><time>2026-05-02T06:44:53.968Z</time></trkpt><trkpt lat="44.0669308" lon="11.288449"><ele>582.0</ele><time>2026-05-02T06:44:55.034Z</time></trkpt><trkpt lat="44.0669929" lon="11.288387"><ele>582.0</ele><time>2026-05-02T06:44:55.974Z</time></trkpt><trkpt lat="44.0670655" lon="11.2883356"><ele>582.0</ele><time>2026-05-02T06:44:56.977Z</time></trkpt><trkpt lat="44.0671366" lon="11.2882775"><ele>582.0</ele><time>2026-05-02T06:44:58.006Z</time></trkpt><trkpt lat="44.0672163" lon="11.2882268"><ele>582.0</ele><time>2026-05-02T06:45:00.027Z</time></trkpt><trkpt lat="44.0672907" lon="11.2881845"><ele>582.0</ele><time>2026-05-02T06:45:00.958Z</time></trkpt><trkpt lat="44.0673672" lon="11.2881386"><ele>582.5</ele><time>2026-05-02T06:45:01.972Z</time></trkpt><trkpt lat="44.067445" lon="11.2880953"><ele>583.0</ele><time>2026-05-02T06:45:02.976Z</time></trkpt><trkpt lat="44.0675316" lon="11.288055"><ele>583.5</ele><time>2026-05-02T06:45:03.908Z</time></trkpt><trkpt lat="44.067712" lon="11.2879631"><ele>584.0</ele><time>2026-05-02T06:45:05.707Z</time></trkpt><trkpt lat="44.0678045" lon="11.2879282"><ele>581.0</ele><time>2026-05-02T06:45:06.714Z</time></trkpt><trkpt lat="44.0678989" lon="11.287894"><ele>578.0</ele><time>2026-05-02T06:45:07.722Z</time></trkpt><trkpt lat="44.06799" lon="11.2878611"><ele>575.0</ele><time>2026-05-02T06:45:08.656Z</time></trkpt><trkpt lat="44.0680775" lon="11.2878401"><ele>572.0</ele><time>2026-05-02T06:45:09.592Z</time></trkpt><trkpt lat="44.068168" lon="11.2878345"><ele>569.0</ele><time>2026-05-02T06:45:10.512Z</time></trkpt><trkpt lat="44.0682625" lon="11.2878366"><ele>568.4</ele><time>2026-05-02T06:45:11.508Z</time></trkpt><trkpt lat="44.0683546" lon="11.2878401"><ele>567.8</ele><time>2026-05-02T06:45:12.548Z</time></trkpt><trkpt lat="44.0684467" lon="11.2878246"><ele>567.2</ele><time>2026-05-02T06:45:13.498Z</time></trkpt><trkpt lat="44.0685317" lon="11.2877961"><ele>566.6</ele><time>2026-05-02T06:45:14.508Z</time></trkpt><trkpt lat="44.0685857" lon="11.2877435"><ele>566.0</ele><time>2026-05-02T06:45:15.488Z</time></trkpt><trkpt lat="44.0687607" lon="11.2877622"><ele>566.0</ele><time>2026-05-02T06:45:18.044Z</time></trkpt><trkpt lat="44.0689449" lon="11.2878026"><ele>566.0</ele><time>2026-05-02T06:45:19.862Z</time></trkpt><trkpt lat="44.0690252" lon="11.2878151"><ele>566.0</ele><time>2026-05-02T06:45:20.845Z</time></trkpt><trkpt lat="44.0691011" lon="11.2878298"><ele>566.0</ele><time>2026-05-02T06:45:21.857Z</time></trkpt><trkpt lat="44.0691818" lon="11.2878471"><ele>566.0</ele><time>2026-05-02T06:45:22.866Z</time></trkpt><trkpt lat="44.0692605" lon="11.287859"><ele>566.0</ele><time>2026-05-02T06:45:23.858Z</time></trkpt><trkpt lat="44.069344" lon="11.2878658"><ele>566.0</ele><time>2026-05-02T06:45:24.846Z</time></trkpt><trkpt lat="44.0694225" lon="11.2878696"><ele>566.0</ele><time>2026-05-02T06:45:25.862Z</time></trkpt><trkpt lat="44.0694988" lon="11.2878724"><ele>566.0</ele><time>2026-05-02T06:45:26.865Z</time></trkpt><trkpt lat="44.0695755" lon="11.2878782"><ele>566.0</ele><time>2026-05-02T06:45:27.96Z</time></trkpt><trkpt lat="44.0697059" lon="11.2878521"><ele>566.0</ele><time>2026-05-02T06:45:29.866Z</time></trkpt><trkpt lat="44.069779" lon="11.2877997"><ele>566.0</ele><time>2026-05-02T06:45:31.858Z</time></trkpt><trkpt lat="44.0697187" lon="11.2877542"><ele>566.0</ele><time>2026-05-02T06:45:36.894Z</time></trkpt><trkpt lat="44.0696377" lon="11.2878018"><ele>566.0</ele><time>2026-05-02T06:45:38.848Z</time></trkpt><trkpt lat="44.0695107" lon="11.2878046"><ele>566.0</ele><time>2026-05-02T06:45:40.852Z</time></trkpt><trkpt lat="44.0694451" lon="11.2878035"><ele>566.0</ele><time>2026-05-02T06:45:41.852Z</time></trkpt><trkpt lat="44.0693752" lon="11.2877953"><ele>566.0</ele><time>2026-05-02T06:45:42.86Z</time></trkpt><trkpt lat="44.0693005" lon="11.2877881"><ele>566.0</ele><time>2026-05-02T06:45:43.857Z</time></trkpt><trkpt lat="44.0692096" lon="11.2877808"><ele>566.0</ele><time>2026-05-02T06:45:44.85Z</time></trkpt><trkpt lat="44.0691099" lon="11.2877715"><ele>566.0</ele><time>2026-05-02T06:45:45.857Z</time></trkpt><trkpt lat="44.069014" lon="11.2877627"><ele>566.0</ele><time>2026-05-02T06:45:46.839Z</time></trkpt><trkpt lat="44.0689174" lon="11.2877605"><ele>566.0</ele><time>2026-05-02T06:45:47.856Z</time></trkpt><trkpt lat="44.0688075" lon="11.2877649"><ele>566.0</ele><time>2026-05-02T06:45:48.845Z</time></trkpt><trkpt lat="44.068696" lon="11.287766"><ele>566.0</ele><time>2026-05-02T06:45:49.858Z</time></trkpt><trkpt lat="44.0685776" lon="11.2877649"><ele>566.0</ele><time>2026-05-02T06:45:50.842Z</time></trkpt><trkpt lat="44.0684625" lon="11.2877681"><ele>566.0</ele><time>2026-05-02T06:45:51.864Z</time></trkpt><trkpt lat="44.0683486" lon="11.2877689"><ele>566.75</ele><time>2026-05-02T06:45:52.848Z</time></trkpt><trkpt lat="44.0682248" lon="11.2877747"><ele>567.5</ele><time>2026-05-02T06:45:53.881Z</time></trkpt><trkpt lat="44.068103" lon="11.2877992"><ele>568.25</ele><time>2026-05-02T06:45:54.863Z</time></trkpt><trkpt lat="44.067982" lon="11.2878362"><ele>569.0</ele><time>2026-05-02T06:45:55.863Z</time></trkpt><trkpt lat="44.0678584" lon="11.2878751"><ele>569.0</ele><time>2026-05-02T06:45:56.863Z</time></trkpt><trkpt lat="44.0677325" lon="11.2879238"><ele>569.0</ele><time>2026-05-02T06:45:57.86Z</time></trkpt><trkpt lat="44.0676072" lon="11.2879757"><ele>569.0</ele><time>2026-05-02T06:45:58.866Z</time></trkpt><trkpt lat="44.0674968" lon="11.288018"><ele>569.0</ele><time>2026-05-02T06:45:59.852Z</time></trkpt><trkpt lat="44.0673892" lon="11.2880673"><ele>572.25</ele><time>2026-05-02T06:46:00.861Z</time></trkpt><trkpt lat="44.0672807" lon="11.2881283"><ele>575.5</ele><time>2026-05-02T06:46:01.862Z</time></trkpt><trkpt lat="44.067172" lon="11.2881828"><ele>578.75</ele><time>2026-05-02T06:46:02.849Z</time></trkpt><trkpt lat="44.0670681" lon="11.288259"><ele>582.0</ele><time>2026-05-02T06:46:03.868Z</time></trkpt><trkpt lat="44.0669731" lon="11.2883366"><ele>582.0</ele><time>2026-05-02T06:46:04.863Z</time></trkpt><trkpt lat="44.066887" lon="11.2884222"><ele>582.0</ele><time>2026-05-02T06:46:05.859Z</time></trkpt><trkpt lat="44.0668058" lon="11.2885029"><ele>582.0</ele><time>2026-05-02T06:46:06.908Z</time></trkpt><trkpt lat="44.0667382" lon="11.2885663"><ele>582.0</ele><time>2026-05-02T06:46:07.867Z</time></trkpt><trkpt lat="44.0666803" lon="11.2886163"><ele>582.0</ele><time>2026-05-02T06:46:08.863Z</time></trkpt><trkpt lat="44.0666134" lon="11.2887202"><ele>582.0</ele><time>2026-05-02T06:46:10.864Z</time></trkpt><trkpt lat="44.0665892" lon="11.2888272"><ele>582.0</ele><time>2026-05-02T06:46:12.862Z</time></trkpt><trkpt lat="44.0665491" lon="11.2889292"><ele>582.0</ele><time>2026-05-02T06:46:14.862Z</time></trkpt><trkpt lat="44.0664801" lon="11.2890338"><ele>582.0</ele><time>2026-05-02T06:46:16.856Z</time></trkpt><trkpt lat="44.0664004" lon="11.2891434"><ele>582.0</ele><time>2026-05-02T06:46:18.862Z</time></trkpt><trkpt lat="44.0663103" lon="11.2892566"><ele>582.0</ele><time>2026-05-02T06:46:20.864Z</time></trkpt><trkpt lat="44.0662353" lon="11.2893588"><ele>582.0</ele><time>2026-05-02T06:46:22.868Z</time></trkpt><trkpt lat="44.0661903" lon="11.2894747"><ele>582.0</ele><time>2026-05-02T06:46:24.869Z</time></trkpt><trkpt lat="44.0661919" lon="11.28957"><ele>582.0</ele><time>2026-05-02T06:46:26.864Z</time></trkpt><trkpt lat="44.0662606" lon="11.2896601"><ele>582.0</ele><time>2026-05-02T06:46:29.86Z</time></trkpt><trkpt lat="44.0663411" lon="11.2896694"><ele>582.0</ele><time>2026-05-02T06:46:32.851Z</time></trkpt><trkpt lat="44.0664077" lon="11.2897222"><ele>585.0</ele><time>2026-05-02T06:46:48.888Z</time></trkpt><trkpt lat="44.0665032" lon="11.2897587"><ele>588.0</ele><time>2026-05-02T06:46:51.898Z</time></trkpt><trkpt lat="44.0665822" lon="11.2898214"><ele>591.0</ele><time>2026-05-02T06:46:53.909Z</time></trkpt><trkpt lat="44.0666688" lon="11.2898924"><ele>594.0</ele><time>2026-05-02T06:46:55.891Z</time></trkpt><trkpt lat="44.0667648" lon="11.2899779"><ele>597.0</ele><time>2026-05-02T06:46:57.885Z</time></trkpt><trkpt lat="44.0668576" lon="11.2900602"><ele>597.8571428571429</ele><time>2026-05-02T06:46:59.884Z</time></trkpt><trkpt lat="44.0669263" lon="11.2901186"><ele>598.7142857142858</ele><time>2026-05-02T06:47:01.892Z</time></trkpt><trkpt lat="44.0669936" lon="11.2901367"><ele>599.5714285714287</ele><time>2026-05-02T06:47:04.885Z</time></trkpt><trkpt lat="44.0670546" lon="11.2900924"><ele>600.4285714285714</ele><time>2026-05-02T06:47:12.887Z</time></trkpt><trkpt lat="44.0671172" lon="11.2900471"><ele>601.2857142857142</ele><time>2026-05-02T06:47:16.885Z</time></trkpt><trkpt lat="44.067187" lon="11.2900351"><ele>602.1428571428572</ele><time>2026-05-02T06:47:21.884Z</time></trkpt><trkpt lat="44.0671186" lon="11.2901083"><ele>603.0</ele><time>2026-05-02T06:47:41.88Z</time></trkpt><trkpt lat="44.0670562" lon="11.290164"><ele>603.0</ele><time>2026-05-02T06:47:43.874Z</time></trkpt><trkpt lat="44.0669934" lon="11.2901914"><ele>603.0</ele><time>2026-05-02T06:47:45.889Z</time></trkpt><trkpt lat="44.0669149" lon="11.2901683"><ele>603.0</ele><time>2026-05-02T06:47:47.876Z</time></trkpt><trkpt lat="44.0668475" lon="11.2901027"><ele>603.0</ele><time>2026-05-02T06:47:49.891Z</time></trkpt><trkpt lat="44.0667584" lon="11.2900466"><ele>603.0</ele><time>2026-05-02T06:47:51.891Z</time></trkpt><trkpt lat="44.0666661" lon="11.289966"><ele>603.0</ele><time>2026-05-02T06:47:53.886Z</time></trkpt><trkpt lat="44.0665717" lon="11.289879"><ele>601.8</ele><time>2026-05-02T06:47:55.886Z</time></trkpt><trkpt lat="44.0664777" lon="11.2898046"><ele>600.5999999999999</ele><time>2026-05-02T06:47:57.89Z</time></trkpt><trkpt lat="44.0663948" lon="11.2897427"><ele>599.4000000000001</ele><time>2026-05-02T06:47:59.987Z</time></trkpt><trkpt lat="44.0663084" lon="11.289682"><ele>598.2</ele><time>2026-05-02T06:48:01.897Z</time></trkpt><trkpt lat="44.0662192" lon="11.2896239"><ele>597.0</ele><time>2026-05-02T06:48:03.891Z</time></trkpt><trkpt lat="44.0661711" lon="11.2895431"><ele>594.5</ele><time>2026-05-02T06:48:05.954Z</time></trkpt><trkpt lat="44.0661705" lon="11.2894199"><ele>592.0</ele><time>2026-05-02T06:48:07.937Z</time></trkpt><trkpt lat="44.0662084" lon="11.2892922"><ele>589.5</ele><time>2026-05-02T06:48:09.951Z</time></trkpt><trkpt lat="44.0663049" lon="11.2891751"><ele>587.0</ele><time>2026-05-02T06:48:12.044Z</time></trkpt><trkpt lat="44.0663587" lon="11.2891183"><ele>584.5</ele><time>2026-05-02T06:48:12.964Z</time></trkpt><trkpt lat="44.06641" lon="11.289064"><ele>582.0</ele><time>2026-05-02T06:48:13.959Z</time></trkpt><trkpt lat="44.0664976" lon="11.2889571"><ele>581.3333333333334</ele><time>2026-05-02T06:48:15.877Z</time></trkpt><trkpt lat="44.0665563" lon="11.2888676"><ele>580.6666666666666</ele><time>2026-05-02T06:48:17.966Z</time></trkpt><trkpt lat="44.0666034" lon="11.2887863"><ele>580.0</ele><time>2026-05-02T06:48:20.955Z</time></trkpt><trkpt lat="44.0665393" lon="11.288715"><ele>579.3333333333333</ele><time>2026-05-02T06:48:32.967Z</time></trkpt><trkpt lat="44.0664693" lon="11.288747"><ele>578.6666666666666</ele><time>2026-05-02T06:48:35.951Z</time></trkpt><trkpt lat="44.0663991" lon="11.2887961"><ele>578.0</ele><time>2026-05-02T06:48:38.958Z</time></trkpt><trkpt lat="44.0663384" lon="11.2888502"><ele>578.8</ele><time>2026-05-02T06:48:42.955Z</time></trkpt><trkpt lat="44.0662797" lon="11.2889506"><ele>579.5999999999999</ele><time>2026-05-02T06:49:06.963Z</time></trkpt><trkpt lat="44.0662233" lon="11.2890129"><ele>580.4000000000001</ele><time>2026-05-02T06:49:08.968Z</time></trkpt><trkpt lat="44.0661566" lon="11.289092"><ele>581.2</ele><time>2026-05-02T06:49:10.95Z</time></trkpt><trkpt lat="44.0660671" lon="11.2891676"><ele>582.0</ele><time>2026-05-02T06:49:12.954Z</time></trkpt><trkpt lat="44.0659737" lon="11.2892741"><ele>582.0</ele><time>2026-05-02T06:49:15.035Z</time></trkpt><trkpt lat="44.0658679" lon="11.289369"><ele>582.0</ele><time>2026-05-02T06:49:17.03Z</time></trkpt><trkpt lat="44.0656986" lon="11.289413"><ele>582.0</ele><time>2026-05-02T06:49:20.05Z</time></trkpt><trkpt lat="44.065573" lon="11.2894212"><ele>582.0</ele><time>2026-05-02T06:49:22.029Z</time></trkpt><trkpt lat="44.0654734" lon="11.2894282"><ele>582.8000000000001</ele><time>2026-05-02T06:49:23.966Z</time></trkpt><trkpt lat="44.0653677" lon="11.2894716"><ele>583.6</ele><time>2026-05-02T06:49:26.03Z</time></trkpt><trkpt lat="44.0652505" lon="11.289454"><ele>584.4000000000001</ele><time>2026-05-02T06:49:27.959Z</time></trkpt><trkpt lat="44.0651824" lon="11.2894436"><ele>585.2</ele><time>2026-05-02T06:49:28.958Z</time></trkpt><trkpt lat="44.0650575" lon="11.2894193"><ele>586.0</ele><time>2026-05-02T06:49:31.029Z</time></trkpt><trkpt lat="44.0649904" lon="11.2893953"><ele>587.1428571428571</ele><time>2026-05-02T06:49:32.033Z</time></trkpt><trkpt lat="44.0649254" lon="11.2893628"><ele>588.2857142857142</ele><time>2026-05-02T06:49:32.972Z</time></trkpt><trkpt lat="44.0648604" lon="11.2893249"><ele>589.4285714285714</ele><time>2026-05-02T06:49:33.958Z</time></trkpt><trkpt lat="44.0648" lon="11.2892841"><ele>590.5714285714286</ele><time>2026-05-02T06:49:35.033Z</time></trkpt><trkpt lat="44.0647388" lon="11.2892327"><ele>591.7142857142858</ele><time>2026-05-02T06:49:36.031Z</time></trkpt><trkpt lat="44.064682" lon="11.2891808"><ele>592.8571428571429</ele><time>2026-05-02T06:49:37.033Z</time></trkpt><trkpt lat="44.0646211" lon="11.2891422"><ele>594.0</ele><time>2026-05-02T06:49:37.96Z</time></trkpt><trkpt lat="44.0645551" lon="11.2891128"><ele>594.0</ele><time>2026-05-02T06:49:38.959Z</time></trkpt><trkpt lat="44.0644455" lon="11.2890896"><ele>594.0</ele><time>2026-05-02T06:49:41.031Z</time></trkpt><trkpt lat="44.0643302" lon="11.2890823"><ele>594.0</ele><time>2026-05-02T06:49:42.966Z</time></trkpt><trkpt lat="44.0642576" lon="11.2890759"><ele>594.0</ele><time>2026-05-02T06:49:43.952Z</time></trkpt><trkpt lat="44.0641893" lon="11.2890732"><ele>594.0</ele><time>2026-05-02T06:49:44.962Z</time></trkpt><trkpt lat="44.0641178" lon="11.2890685"><ele>594.0</ele><time>2026-05-02T06:49:45.961Z</time></trkpt><trkpt lat="44.0640412" lon="11.2890565"><ele>594.3333333333334</ele><time>2026-05-02T06:49:46.991Z</time></trkpt><trkpt lat="44.0639616" lon="11.2890479"><ele>594.6666666666666</ele><time>2026-05-02T06:49:48.004Z</time></trkpt><trkpt lat="44.0638798" lon="11.2890471"><ele>595.0</ele><time>2026-05-02T06:49:48.963Z</time></trkpt><trkpt lat="44.063807" lon="11.2890574"><ele>595.3333333333333</ele><time>2026-05-02T06:49:50.035Z</time></trkpt><trkpt lat="44.0637292" lon="11.2890635"><ele>595.6666666666666</ele><time>2026-05-02T06:49:50.961Z</time></trkpt><trkpt lat="44.0636478" lon="11.2890677"><ele>596.0</ele><time>2026-05-02T06:49:51.946Z</time></trkpt><trkpt lat="44.0635717" lon="11.2890708"><ele>596.0</ele><time>2026-05-02T06:49:52.956Z</time></trkpt><trkpt lat="44.0634934" lon="11.2890684"><ele>596.0</ele><time>2026-05-02T06:49:53.961Z</time></trkpt><trkpt lat="44.0634101" lon="11.2890812"><ele>596.0</ele><time>2026-05-02T06:49:54.962Z</time></trkpt><trkpt lat="44.063331" lon="11.2890875"><ele>596.0</ele><time>2026-05-02T06:49:55.953Z</time></trkpt><trkpt lat="44.0632536" lon="11.2890892"><ele>596.0</ele><time>2026-05-02T06:49:56.953Z</time></trkpt><trkpt lat="44.0631723" lon="11.2890897"><ele>596.0</ele><time>2026-05-02T06:49:57.952Z</time></trkpt><trkpt lat="44.0630939" lon="11.289092"><ele>595.1666666666666</ele><time>2026-05-02T06:49:58.951Z</time></trkpt><trkpt lat="44.0630197" lon="11.2890942"><ele>594.3333333333333</ele><time>2026-05-02T06:49:59.954Z</time></trkpt><trkpt lat="44.0629456" lon="11.2891034"><ele>593.5</ele><time>2026-05-02T06:50:00.961Z</time></trkpt><trkpt lat="44.0628687" lon="11.2891229"><ele>592.6666666666666</ele><time>2026-05-02T06:50:01.96Z</time></trkpt><trkpt lat="44.0627953" lon="11.2891566"><ele>591.8333333333334</ele><time>2026-05-02T06:50:02.96Z</time></trkpt><trkpt lat="44.0627298" lon="11.2892126"><ele>591.0</ele><time>2026-05-02T06:50:03.956Z</time></trkpt><trkpt lat="44.0626641" lon="11.2892831"><ele>591.0</ele><time>2026-05-02T06:50:04.958Z</time></trkpt><trkpt lat="44.0626134" lon="11.2893627"><ele>591.0</ele><time>2026-05-02T06:50:05.967Z</time></trkpt><trkpt lat="44.0625801" lon="11.2894509"><ele>591.0</ele><time>2026-05-02T06:50:06.959Z</time></trkpt><trkpt lat="44.0625496" lon="11.2895472"><ele>591.0</ele><time>2026-05-02T06:50:07.958Z</time></trkpt><trkpt lat="44.0625286" lon="11.2896353"><ele>591.0</ele><time>2026-05-02T06:50:08.966Z</time></trkpt><trkpt lat="44.0625028" lon="11.2897264"><ele>591.0</ele><time>2026-05-02T06:50:09.965Z</time></trkpt><trkpt lat="44.0624669" lon="11.2898142"><ele>591.0</ele><time>2026-05-02T06:50:10.962Z</time></trkpt><trkpt lat="44.0624232" lon="11.289892"><ele>593.8333333333334</ele><time>2026-05-02T06:50:11.961Z</time></trkpt><trkpt lat="44.0623732" lon="11.2899667"><ele>596.6666666666666</ele><time>2026-05-02T06:50:12.96Z</time></trkpt><trkpt lat="44.0623113" lon="11.2900284"><ele>599.5</ele><time>2026-05-02T06:50:13.959Z</time></trkpt><trkpt lat="44.0622476" lon="11.2900901"><ele>602.3333333333333</ele><time>2026-05-02T06:50:14.959Z</time></trkpt><trkpt lat="44.0621826" lon="11.2901456"><ele>605.1666666666666</ele><time>2026-05-02T06:50:15.962Z</time></trkpt><trkpt lat="44.0621067" lon="11.2901937"><ele>608.0</ele><time>2026-05-02T06:50:16.962Z</time></trkpt><trkpt lat="44.0620262" lon="11.2902283"><ele>608.0</ele><time>2026-05-02T06:50:17.961Z</time></trkpt><trkpt lat="44.0619409" lon="11.2902594"><ele>608.0</ele><time>2026-05-02T06:50:18.96Z</time></trkpt><trkpt lat="44.061851" lon="11.2902643"><ele>608.0</ele><time>2026-05-02T06:50:19.956Z</time></trkpt><trkpt lat="44.0617541" lon="11.2902603"><ele>608.0</ele><time>2026-05-02T06:50:20.959Z</time></trkpt><trkpt lat="44.0616581" lon="11.2902543"><ele>608.0</ele><time>2026-05-02T06:50:21.96Z</time></trkpt><trkpt lat="44.0615591" lon="11.2902485"><ele>609.0</ele><time>2026-05-02T06:50:22.95Z</time></trkpt><trkpt lat="44.0614604" lon="11.2902456"><ele>610.0</ele><time>2026-05-02T06:50:23.953Z</time></trkpt><trkpt lat="44.0613528" lon="11.2902467"><ele>611.0</ele><time>2026-05-02T06:50:24.962Z</time></trkpt><trkpt lat="44.0612422" lon="11.2902527"><ele>612.0</ele><time>2026-05-02T06:50:25.952Z</time></trkpt><trkpt lat="44.0611292" lon="11.2902593"><ele>613.0</ele><time>2026-05-02T06:50:26.952Z</time></trkpt><trkpt lat="44.0610229" lon="11.290273"><ele>613.0</ele><time>2026-05-02T06:50:27.955Z</time></trkpt><trkpt lat="44.0609175" lon="11.2902874"><ele>613.0</ele><time>2026-05-02T06:50:28.96Z</time></trkpt><trkpt lat="44.0608174" lon="11.2902827"><ele>613.0</ele><time>2026-05-02T06:50:29.953Z</time></trkpt><trkpt lat="44.0607348" lon="11.2902631"><ele>613.0</ele><time>2026-05-02T06:50:30.963Z</time></trkpt><trkpt lat="44.0606583" lon="11.2902405"><ele>613.0</ele><time>2026-05-02T06:50:31.958Z</time></trkpt><trkpt lat="44.060594" lon="11.2902337"><ele>613.0</ele><time>2026-05-02T06:50:32.955Z</time></trkpt><trkpt lat="44.0605184" lon="11.2902914"><ele>614.6</ele><time>2026-05-02T06:50:34.965Z</time></trkpt><trkpt lat="44.0604871" lon="11.2903881"><ele>616.1999999999999</ele><time>2026-05-02T06:50:36.961Z</time></trkpt><trkpt lat="44.0604608" lon="11.2905164"><ele>617.8</ele><time>2026-05-02T06:50:38.964Z</time></trkpt><trkpt lat="44.0604384" lon="11.2906388"><ele>619.4</ele><time>2026-05-02T06:50:40.957Z</time></trkpt><trkpt lat="44.0604187" lon="11.2907708"><ele>621.0</ele><time>2026-05-02T06:50:42.965Z</time></trkpt><trkpt lat="44.0604256" lon="11.2908967"><ele>623.0</ele><time>2026-05-02T06:50:44.962Z</time></trkpt><trkpt lat="44.0604218" lon="11.2910418"><ele>625.0</ele><time>2026-05-02T06:50:46.96Z</time></trkpt><trkpt lat="44.0603959" lon="11.2911774"><ele>627.0</ele><time>2026-05-02T06:50:48.951Z</time></trkpt><trkpt lat="44.0603524" lon="11.291317"><ele>629.0</ele><time>2026-05-02T06:50:50.956Z</time></trkpt><trkpt lat="44.0603125" lon="11.2914529"><ele>631.0</ele><time>2026-05-02T06:50:52.96Z</time></trkpt><trkpt lat="44.0602713" lon="11.2915666"><ele>633.4</ele><time>2026-05-02T06:50:54.941Z</time></trkpt><trkpt lat="44.0602732" lon="11.2916786"><ele>635.8</ele><time>2026-05-02T06:50:56.953Z</time></trkpt><trkpt lat="44.0603122" lon="11.291775"><ele>638.1999999999999</ele><time>2026-05-02T06:50:59.957Z</time></trkpt><trkpt lat="44.0603847" lon="11.2918485"><ele>640.6</ele><time>2026-05-02T06:51:01.955Z</time></trkpt><trkpt lat="44.0604853" lon="11.2919346"><ele>643.0</ele><time>2026-05-02T06:51:03.963Z</time></trkpt><trkpt lat="44.0605746" lon="11.2919962"><ele>643.0</ele><time>2026-05-02T06:51:05.936Z</time></trkpt><trkpt lat="44.0606569" lon="11.2919811"><ele>643.0</ele><time>2026-05-02T06:51:07.957Z</time></trkpt><trkpt lat="44.0607432" lon="11.2919426"><ele>643.0</ele><time>2026-05-02T06:51:09.957Z</time></trkpt><trkpt lat="44.0608243" lon="11.2919717"><ele>643.0</ele><time>2026-05-02T06:51:11.959Z</time></trkpt><trkpt lat="44.0609192" lon="11.2920435"><ele>643.0</ele><time>2026-05-02T06:51:13.955Z</time></trkpt><trkpt lat="44.0609835" lon="11.2920565"><ele>643.0</ele><time>2026-05-02T06:51:14.956Z</time></trkpt><trkpt lat="44.0610725" lon="11.2920337"><ele>642.5</ele><time>2026-05-02T06:51:15.955Z</time></trkpt><trkpt lat="44.0611568" lon="11.2919973"><ele>642.0</ele><time>2026-05-02T06:51:16.957Z</time></trkpt><trkpt lat="44.0612397" lon="11.2919573"><ele>641.5</ele><time>2026-05-02T06:51:17.959Z</time></trkpt><trkpt lat="44.0613053" lon="11.2919185"><ele>641.0</ele><time>2026-05-02T06:51:18.95Z</time></trkpt><trkpt lat="44.0613704" lon="11.291874"><ele>640.5</ele><time>2026-05-02T06:51:19.966Z</time></trkpt><trkpt lat="44.0614879" lon="11.2918361"><ele>640.0</ele><time>2026-05-02T06:51:21.956Z</time></trkpt><trkpt lat="44.0616097" lon="11.2918655"><ele>640.8333333333334</ele><time>2026-05-02T06:51:23.96Z</time></trkpt><trkpt lat="44.0616751" lon="11.2919092"><ele>641.6666666666667</ele><time>2026-05-02T06:51:24.958Z</time></trkpt><trkpt lat="44.061752" lon="11.2919747"><ele>642.5</ele><time>2026-05-02T06:51:25.967Z</time></trkpt><trkpt lat="44.0618353" lon="11.2920244"><ele>643.3333333333334</ele><time>2026-05-02T06:51:26.958Z</time></trkpt><trkpt lat="44.0619151" lon="11.2920712"><ele>644.1666666666666</ele><time>2026-05-02T06:51:27.966Z</time></trkpt><trkpt lat="44.0620096" lon="11.2921451"><ele>645.0</ele><time>2026-05-02T06:51:29.96Z</time></trkpt><trkpt lat="44.062097" lon="11.2922012"><ele>646.8</ele><time>2026-05-02T06:51:31.957Z</time></trkpt><trkpt lat="44.0621748" lon="11.2922802"><ele>648.6</ele><time>2026-05-02T06:51:33.956Z</time></trkpt><trkpt lat="44.0622499" lon="11.2923458"><ele>650.4000000000001</ele><time>2026-05-02T06:51:35.96Z</time></trkpt><trkpt lat="44.0623572" lon="11.2923735"><ele>652.2</ele><time>2026-05-02T06:51:37.962Z</time></trkpt><trkpt lat="44.0624209" lon="11.2923716"><ele>654.0</ele><time>2026-05-02T06:51:38.962Z</time></trkpt><trkpt lat="44.0625175" lon="11.2923854"><ele>654.0</ele><time>2026-05-02T06:51:40.963Z</time></trkpt><trkpt lat="44.0625937" lon="11.2923898"><ele>654.0</ele><time>2026-05-02T06:51:42.95Z</time></trkpt><trkpt lat="44.0626712" lon="11.2924223"><ele>654.0</ele><time>2026-05-02T06:51:44.966Z</time></trkpt><trkpt lat="44.062728" lon="11.2925248"><ele>654.0</ele><time>2026-05-02T06:51:47.046Z</time></trkpt><trkpt lat="44.0627611" lon="11.2926547"><ele>654.0</ele><time>2026-05-02T06:51:48.959Z</time></trkpt><trkpt lat="44.0627946" lon="11.292817"><ele>654.0</ele><time>2026-05-02T06:51:50.961Z</time></trkpt><trkpt lat="44.0628258" lon="11.2929016"><ele>654.0</ele><time>2026-05-02T06:51:51.95Z</time></trkpt><trkpt lat="44.0628611" lon="11.2929778"><ele>654.0</ele><time>2026-05-02T06:51:52.95Z</time></trkpt><trkpt lat="44.0629111" lon="11.2930432"><ele>654.0</ele><time>2026-05-02T06:51:54.031Z</time></trkpt><trkpt lat="44.0629624" lon="11.2930992"><ele>654.0</ele><time>2026-05-02T06:51:55.02Z</time></trkpt><trkpt lat="44.0630179" lon="11.2931417"><ele>654.0</ele><time>2026-05-02T06:51:56.031Z</time></trkpt><trkpt lat="44.0631184" lon="11.2931772"><ele>654.0</ele><time>2026-05-02T06:51:57.957Z</time></trkpt><trkpt lat="44.0632402" lon="11.293192"><ele>653.2857142857142</ele><time>2026-05-02T06:52:00.043Z</time></trkpt><trkpt lat="44.0633057" lon="11.293208"><ele>652.5714285714286</ele><time>2026-05-02T06:52:01.029Z</time></trkpt><trkpt lat="44.0633731" lon="11.2932184"><ele>651.8571428571429</ele><time>2026-05-02T06:52:02.034Z</time></trkpt><trkpt lat="44.0634355" lon="11.2932398"><ele>651.1428571428571</ele><time>2026-05-02T06:52:02.961Z</time></trkpt><trkpt lat="44.0635066" lon="11.2932655"><ele>650.4285714285714</ele><time>2026-05-02T06:52:03.967Z</time></trkpt><trkpt lat="44.0635701" lon="11.2933245"><ele>649.7142857142857</ele><time>2026-05-02T06:52:04.979Z</time></trkpt><trkpt lat="44.0636357" lon="11.2934014"><ele>649.0</ele><time>2026-05-02T06:52:06.038Z</time></trkpt><trkpt lat="44.0637188" lon="11.2934636"><ele>649.0</ele><time>2026-05-02T06:52:06.961Z</time></trkpt><trkpt lat="44.0637969" lon="11.2935342"><ele>649.0</ele><time>2026-05-02T06:52:07.96Z</time></trkpt><trkpt lat="44.0638646" lon="11.2936122"><ele>649.0</ele><time>2026-05-02T06:52:08.951Z</time></trkpt><trkpt lat="44.0639099" lon="11.2936908"><ele>649.0</ele><time>2026-05-02T06:52:09.965Z</time></trkpt><trkpt lat="44.0639751" lon="11.2937658"><ele>649.0</ele><time>2026-05-02T06:52:10.984Z</time></trkpt><trkpt lat="44.0640347" lon="11.293848"><ele>649.0</ele><time>2026-05-02T06:52:11.952Z</time></trkpt><trkpt lat="44.0640937" lon="11.2939083"><ele>650.5</ele><time>2026-05-02T06:52:12.949Z</time></trkpt><trkpt lat="44.0641594" lon="11.2939627"><ele>652.0</ele><time>2026-05-02T06:52:14.028Z</time></trkpt><trkpt lat="44.0642181" lon="11.2939982"><ele>653.5</ele><time>2026-05-02T06:52:15.031Z</time></trkpt><trkpt lat="44.0643174" lon="11.2940776"><ele>655.0</ele><time>2026-05-02T06:52:17.038Z</time></trkpt><trkpt lat="44.0643911" lon="11.2941479"><ele>656.5</ele><time>2026-05-02T06:52:18.96Z</time></trkpt><trkpt lat="44.0644515" lon="11.2942187"><ele>658.0</ele><time>2026-05-02T06:52:21.971Z</time></trkpt><trkpt lat="44.0645354" lon="11.2942866"><ele>658.0</ele><time>2026-05-02T06:52:25.044Z</time></trkpt><trkpt lat="44.0646226" lon="11.2943742"><ele>658.0</ele><time>2026-05-02T06:52:27.964Z</time></trkpt><trkpt lat="44.0646893" lon="11.2944279"><ele>658.0</ele><time>2026-05-02T06:52:29.953Z</time></trkpt><trkpt lat="44.0647843" lon="11.2944749"><ele>658.0</ele><time>2026-05-02T06:52:32.057Z</time></trkpt><trkpt lat="44.0648838" lon="11.2945294"><ele>658.0</ele><time>2026-05-02T06:52:34.043Z</time></trkpt><trkpt lat="44.0649753" lon="11.2945601"><ele>660.5999999999999</ele><time>2026-05-02T06:52:35.95Z</time></trkpt><trkpt lat="44.0650669" lon="11.2945747"><ele>663.1999999999999</ele><time>2026-05-02T06:52:37.956Z</time></trkpt><trkpt lat="44.0651619" lon="11.2945701"><ele>665.8</ele><time>2026-05-02T06:52:39.96Z</time></trkpt><trkpt lat="44.0652574" lon="11.2945749"><ele>668.4</ele><time>2026-05-02T06:52:41.962Z</time></trkpt><trkpt lat="44.065375" lon="11.2945919"><ele>671.0</ele><time>2026-05-02T06:52:43.959Z</time></trkpt><trkpt lat="44.0654932" lon="11.2946242"><ele>671.0</ele><time>2026-05-02T06:52:45.975Z</time></trkpt><trkpt lat="44.0655939" lon="11.2946574"><ele>671.0</ele><time>2026-05-02T06:52:47.979Z</time></trkpt><trkpt lat="44.0656923" lon="11.2946866"><ele>671.0</ele><time>2026-05-02T06:52:49.977Z</time></trkpt><trkpt lat="44.0657998" lon="11.2947196"><ele>671.0</ele><time>2026-05-02T06:52:51.986Z</time></trkpt><trkpt lat="44.0659013" lon="11.2947444"><ele>671.0</ele><time>2026-05-02T06:52:53.999Z</time></trkpt><trkpt lat="44.0660102" lon="11.2947802"><ele>676.5999999999999</ele><time>2026-05-02T06:52:55.977Z</time></trkpt><trkpt lat="44.0661121" lon="11.2948243"><ele>682.2</ele><time>2026-05-02T06:52:57.973Z</time></trkpt><trkpt lat="44.0662131" lon="11.2948694"><ele>687.8</ele><time>2026-05-02T06:52:59.973Z</time></trkpt><trkpt lat="44.066337" lon="11.2949041"><ele>693.4000000000001</ele><time>2026-05-02T06:53:01.969Z</time></trkpt><trkpt lat="44.0664107" lon="11.2949183"><ele>699.0</ele><time>2026-05-02T06:53:02.967Z</time></trkpt><trkpt lat="44.0664929" lon="11.2949265"><ele>699.0</ele><time>2026-05-02T06:53:03.969Z</time></trkpt><trkpt lat="44.0665641" lon="11.2949369"><ele>699.0</ele><time>2026-05-02T06:53:05.034Z</time></trkpt><trkpt lat="44.0666289" lon="11.2949418"><ele>699.0</ele><time>2026-05-02T06:53:06.03Z</time></trkpt><trkpt lat="44.0666925" lon="11.2949759"><ele>699.0</ele><time>2026-05-02T06:53:07.03Z</time></trkpt><trkpt lat="44.0667519" lon="11.2950057"><ele>699.0</ele><time>2026-05-02T06:53:07.96Z</time></trkpt><trkpt lat="44.0668203" lon="11.29509"><ele>699.0</ele><time>2026-05-02T06:53:09.977Z</time></trkpt><trkpt lat="44.066802" lon="11.2952214"><ele>699.1666666666666</ele><time>2026-05-02T06:53:12.968Z</time></trkpt><trkpt lat="44.0667825" lon="11.295322"><ele>699.3333333333334</ele><time>2026-05-02T06:53:14.97Z</time></trkpt><trkpt lat="44.0667654" lon="11.2954313"><ele>699.5</ele><time>2026-05-02T06:53:16.96Z</time></trkpt><trkpt lat="44.066763" lon="11.2955392"><ele>699.6666666666667</ele><time>2026-05-02T06:53:18.961Z</time></trkpt><trkpt lat="44.0667936" lon="11.2956452"><ele>699.8333333333334</ele><time>2026-05-02T06:53:20.965Z</time></trkpt><trkpt lat="44.0668158" lon="11.2957522"><ele>700.0</ele><time>2026-05-02T06:53:22.959Z</time></trkpt><trkpt lat="44.0668071" lon="11.2959143"><ele>702.0</ele><time>2026-05-02T06:53:24.961Z</time></trkpt><trkpt lat="44.0667982" lon="11.2960097"><ele>704.0</ele><time>2026-05-02T06:53:25.955Z</time></trkpt><trkpt lat="44.0667924" lon="11.2961066"><ele>706.0</ele><time>2026-05-02T06:53:26.954Z</time></trkpt><trkpt lat="44.0667811" lon="11.2962218"><ele>708.0</ele><time>2026-05-02T06:53:27.961Z</time></trkpt><trkpt lat="44.0667662" lon="11.2963316"><ele>710.0</ele><time>2026-05-02T06:53:28.965Z</time></trkpt><trkpt lat="44.0667704" lon="11.2964295"><ele>712.0</ele><time>2026-05-02T06:53:29.963Z</time></trkpt><trkpt lat="44.066772" lon="11.296527"><ele>714.0</ele><time>2026-05-02T06:53:30.952Z</time></trkpt><trkpt lat="44.0667895" lon="11.2966112"><ele>714.3333333333334</ele><time>2026-05-02T06:53:31.953Z</time></trkpt><trkpt lat="44.066812" lon="11.2967297"><ele>714.6666666666666</ele><time>2026-05-02T06:53:33.945Z</time></trkpt><trkpt lat="44.0667673" lon="11.2968079"><ele>715.0</ele><time>2026-05-02T06:53:47.947Z</time></trkpt><trkpt lat="44.0667371" lon="11.2968965"><ele>715.3333333333333</ele><time>2026-05-02T06:56:00.934Z</time></trkpt><trkpt lat="44.0667158" lon="11.297021"><ele>715.6666666666666</ele><time>2026-05-02T06:56:03.962Z</time></trkpt><trkpt lat="44.0667266" lon="11.2971273"><ele>716.0</ele><time>2026-05-02T06:56:05.945Z</time></trkpt><trkpt lat="44.0667526" lon="11.2972466"><ele>717.1666666666666</ele><time>2026-05-02T06:56:07.949Z</time></trkpt><trkpt lat="44.0667841" lon="11.2973684"><ele>718.3333333333333</ele><time>2026-05-02T06:56:09.955Z</time></trkpt><trkpt lat="44.066806" lon="11.297463"><ele>719.5</ele><time>2026-05-02T06:56:11.955Z</time></trkpt><trkpt lat="44.0668306" lon="11.297564"><ele>720.6666666666666</ele><time>2026-05-02T06:56:13.953Z</time></trkpt><trkpt lat="44.0668655" lon="11.2976554"><ele>721.8333333333334</ele><time>2026-05-02T06:56:15.959Z</time></trkpt><trkpt lat="44.0669039" lon="11.2977696"><ele>723.0</ele><time>2026-05-02T06:56:17.959Z</time></trkpt><trkpt lat="44.0669089" lon="11.297919"><ele>723.0</ele><time>2026-05-02T06:56:19.957Z</time></trkpt><trkpt lat="44.0668951" lon="11.2980626"><ele>723.0</ele><time>2026-05-02T06:56:21.959Z</time></trkpt><trkpt lat="44.0668786" lon="11.2982192"><ele>723.0</ele><time>2026-05-02T06:56:23.947Z</time></trkpt><trkpt lat="44.0668773" lon="11.2983855"><ele>723.0</ele><time>2026-05-02T06:56:25.952Z</time></trkpt><trkpt lat="44.0668779" lon="11.2985457"><ele>722.8333333333334</ele><time>2026-05-02T06:56:27.94Z</time></trkpt><trkpt lat="44.0668816" lon="11.2986672"><ele>722.6666666666666</ele><time>2026-05-02T06:56:29.949Z</time></trkpt><trkpt lat="44.0668933" lon="11.2987772"><ele>722.5</ele><time>2026-05-02T06:56:31.948Z</time></trkpt><trkpt lat="44.0668991" lon="11.2988906"><ele>722.3333333333333</ele><time>2026-05-02T06:56:33.95Z</time></trkpt><trkpt lat="44.0669128" lon="11.2990576"><ele>722.1666666666666</ele><time>2026-05-02T06:56:35.946Z</time></trkpt><trkpt lat="44.0669223" lon="11.2991472"><ele>722.0</ele><time>2026-05-02T06:56:36.955Z</time></trkpt><trkpt lat="44.0669251" lon="11.2992353"><ele>722.0</ele><time>2026-05-02T06:56:37.936Z</time></trkpt><trkpt lat="44.0669332" lon="11.2993847"><ele>722.0</ele><time>2026-05-02T06:56:39.955Z</time></trkpt><trkpt lat="44.0669444" lon="11.2995505"><ele>722.0</ele><time>2026-05-02T06:56:41.956Z</time></trkpt><trkpt lat="44.0669404" lon="11.2996392"><ele>722.0</ele><time>2026-05-02T06:56:42.951Z</time></trkpt><trkpt lat="44.0669359" lon="11.29982"><ele>722.0</ele><time>2026-05-02T06:56:44.952Z</time></trkpt><trkpt lat="44.0669252" lon="11.2999116"><ele>723.6666666666666</ele><time>2026-05-02T06:56:45.951Z</time></trkpt><trkpt lat="44.06693" lon="11.300002"><ele>725.3333333333333</ele><time>2026-05-02T06:56:46.952Z</time></trkpt><trkpt lat="44.0669329" lon="11.3000949"><ele>727.0</ele><time>2026-05-02T06:56:47.952Z</time></trkpt><trkpt lat="44.0669578" lon="11.3002482"><ele>728.6666666666666</ele><time>2026-05-02T06:56:49.952Z</time></trkpt><trkpt lat="44.0669725" lon="11.3003337"><ele>730.3333333333334</ele><time>2026-05-02T06:56:50.958Z</time></trkpt><trkpt lat="44.0669997" lon="11.3004158"><ele>732.0</ele><time>2026-05-02T06:56:51.954Z</time></trkpt><trkpt lat="44.067027" lon="11.3005157"><ele>734.1666666666666</ele><time>2026-05-02T06:56:52.953Z</time></trkpt><trkpt lat="44.0670582" lon="11.3006129"><ele>736.3333333333334</ele><time>2026-05-02T06:56:53.961Z</time></trkpt><trkpt lat="44.0670796" lon="11.3007098"><ele>738.5</ele><time>2026-05-02T06:56:54.96Z</time></trkpt><trkpt lat="44.0671015" lon="11.3008123"><ele>740.6666666666667</ele><time>2026-05-02T06:56:55.955Z</time></trkpt><trkpt lat="44.0671262" lon="11.3009246"><ele>742.8333333333334</ele><time>2026-05-02T06:56:56.958Z</time></trkpt><trkpt lat="44.0671544" lon="11.3010277"><ele>745.0</ele><time>2026-05-02T06:56:57.957Z</time></trkpt><trkpt lat="44.0671744" lon="11.3011213"><ele>745.0</ele><time>2026-05-02T06:56:58.958Z</time></trkpt><trkpt lat="44.0671882" lon="11.3012075"><ele>745.0</ele><time>2026-05-02T06:56:59.953Z</time></trkpt><trkpt lat="44.0671902" lon="11.301298"><ele>745.0</ele><time>2026-05-02T06:57:00.961Z</time></trkpt><trkpt lat="44.067172" lon="11.3014692"><ele>745.0</ele><time>2026-05-02T06:57:02.951Z</time></trkpt><trkpt lat="44.0671898" lon="11.3015983"><ele>745.0</ele><time>2026-05-02T06:57:04.946Z</time></trkpt><trkpt lat="44.0672342" lon="11.3016982"><ele>745.0</ele><time>2026-05-02T06:57:06.955Z</time></trkpt><trkpt lat="44.067293" lon="11.3018143"><ele>748.3333333333334</ele><time>2026-05-02T06:57:08.951Z</time></trkpt><trkpt lat="44.0673178" lon="11.301909"><ele>751.6666666666667</ele><time>2026-05-02T06:57:10.952Z</time></trkpt><trkpt lat="44.0673702" lon="11.3019852"><ele>755.0</ele><time>2026-05-02T06:57:12.949Z</time></trkpt><trkpt lat="44.0674387" lon="11.3020507"><ele>758.3333333333334</ele><time>2026-05-02T06:57:14.95Z</time></trkpt><trkpt lat="44.0675165" lon="11.3020794"><ele>761.6666666666666</ele><time>2026-05-02T06:57:17.945Z</time></trkpt><trkpt lat="44.0676142" lon="11.302069"><ele>765.0</ele><time>2026-05-02T06:57:20.949Z</time></trkpt><trkpt lat="44.0676877" lon="11.3020795"><ele>766.0</ele><time>2026-05-02T06:57:22.946Z</time></trkpt><trkpt lat="44.0677597" lon="11.3020871"><ele>767.0</ele><time>2026-05-02T06:57:24.949Z</time></trkpt><trkpt lat="44.0678221" lon="11.3021299"><ele>768.0</ele><time>2026-05-02T06:57:26.951Z</time></trkpt><trkpt lat="44.067851" lon="11.3022107"><ele>769.0</ele><time>2026-05-02T06:57:28.959Z</time></trkpt><trkpt lat="44.0678475" lon="11.3023255"><ele>770.0</ele><time>2026-05-02T06:57:30.959Z</time></trkpt><trkpt lat="44.0678952" lon="11.3024502"><ele>771.0</ele><time>2026-05-02T06:57:32.946Z</time></trkpt><trkpt lat="44.0679834" lon="11.3025108"><ele>771.8333333333334</ele><time>2026-05-02T06:57:34.935Z</time></trkpt><trkpt lat="44.0680654" lon="11.3025601"><ele>772.6666666666667</ele><time>2026-05-02T06:57:36.949Z</time></trkpt><trkpt lat="44.0681351" lon="11.3026301"><ele>773.5</ele><time>2026-05-02T06:57:38.947Z</time></trkpt><trkpt lat="44.06817" lon="11.302706"><ele>774.3333333333334</ele><time>2026-05-02T06:57:40.937Z</time></trkpt><trkpt lat="44.0681917" lon="11.3027974"><ele>775.1666666666667</ele><time>2026-05-02T06:57:42.95Z</time></trkpt><trkpt lat="44.0681888" lon="11.302901"><ele>776.0</ele><time>2026-05-02T06:57:44.949Z</time></trkpt><trkpt lat="44.0681388" lon="11.3029948"><ele>780.4</ele><time>2026-05-02T06:57:46.945Z</time></trkpt><trkpt lat="44.0680556" lon="11.3030823"><ele>784.8</ele><time>2026-05-02T06:57:48.953Z</time></trkpt><trkpt lat="44.0679602" lon="11.3031639"><ele>789.1999999999999</ele><time>2026-05-02T06:57:50.958Z</time></trkpt><trkpt lat="44.0678597" lon="11.3032567"><ele>793.5999999999999</ele><time>2026-05-02T06:57:52.954Z</time></trkpt><trkpt lat="44.0677947" lon="11.3033573"><ele>798.0</ele><time>2026-05-02T06:57:54.957Z</time></trkpt><trkpt lat="44.0677596" lon="11.3034684"><ele>798.0</ele><time>2026-05-02T06:57:56.948Z</time></trkpt><trkpt lat="44.0678187" lon="11.3035576"><ele>798.0</ele><time>2026-05-02T06:57:58.968Z</time></trkpt><trkpt lat="44.0678785" lon="11.3036133"><ele>798.0</ele><time>2026-05-02T06:58:00.944Z</time></trkpt><trkpt lat="44.0679507" lon="11.3036916"><ele>798.0</ele><time>2026-05-02T06:58:03.944Z</time></trkpt><trkpt lat="44.0680055" lon="11.3037667"><ele>798.0</ele><time>2026-05-02T06:58:05.945Z</time></trkpt><trkpt lat="44.0680719" lon="11.3038191"><ele>798.0</ele><time>2026-05-02T06:58:07.956Z</time></trkpt><trkpt lat="44.0681529" lon="11.3038683"><ele>801.2</ele><time>2026-05-02T06:58:09.959Z</time></trkpt><trkpt lat="44.0682137" lon="11.3039362"><ele>804.4</ele><time>2026-05-02T06:58:11.948Z</time></trkpt><trkpt lat="44.0682725" lon="11.3040393"><ele>807.6</ele><time>2026-05-02T06:58:13.948Z</time></trkpt><trkpt lat="44.0683341" lon="11.3041321"><ele>810.8000000000001</ele><time>2026-05-02T06:58:15.956Z</time></trkpt><trkpt lat="44.0683994" lon="11.3042482"><ele>814.0</ele><time>2026-05-02T06:58:17.949Z</time></trkpt><trkpt lat="44.0684399" lon="11.304397"><ele>813.9999999999999</ele><time>2026-05-02T06:58:19.951Z</time></trkpt><trkpt lat="44.0684443" lon="11.3045273"><ele>814.0</ele><time>2026-05-02T06:58:21.958Z</time></trkpt><trkpt lat="44.0684442" lon="11.3046419"><ele>814.0</ele><time>2026-05-02T06:58:23.955Z</time></trkpt><trkpt lat="44.0684428" lon="11.3047538"><ele>814.0</ele><time>2026-05-02T06:58:25.967Z</time></trkpt><trkpt lat="44.0684337" lon="11.3048488"><ele>813.9999999999999</ele><time>2026-05-02T06:58:27.964Z</time></trkpt><trkpt lat="44.0683865" lon="11.3049139"><ele>814.0</ele><time>2026-05-02T06:58:30.953Z</time></trkpt><trkpt lat="44.0683072" lon="11.3049153"><ele>817.8000000000001</ele><time>2026-05-02T06:58:33.968Z</time></trkpt><trkpt lat="44.0682177" lon="11.3048719"><ele>821.6</ele><time>2026-05-02T06:58:35.949Z</time></trkpt><trkpt lat="44.0681431" lon="11.3048487"><ele>825.4</ele><time>2026-05-02T06:58:36.958Z</time></trkpt><trkpt lat="44.0680337" lon="11.304799"><ele>829.2</ele><time>2026-05-02T06:58:38.949Z</time></trkpt><trkpt lat="44.0679598" lon="11.3047866"><ele>833.0</ele><time>2026-05-02T06:58:40.943Z</time></trkpt><trkpt lat="44.0678677" lon="11.3048077"><ele>833.0</ele><time>2026-05-02T06:58:42.95Z</time></trkpt><trkpt lat="44.0677731" lon="11.3048611"><ele>833.0</ele><time>2026-05-02T06:58:44.958Z</time></trkpt><trkpt lat="44.0676561" lon="11.3048868"><ele>833.0</ele><time>2026-05-02T06:58:46.96Z</time></trkpt><trkpt lat="44.0675408" lon="11.3048702"><ele>833.0</ele><time>2026-05-02T06:58:48.96Z</time></trkpt><trkpt lat="44.0674782" lon="11.3048583"><ele>833.0</ele><time>2026-05-02T06:58:49.959Z</time></trkpt><trkpt lat="44.0674142" lon="11.3048481"><ele>832.8333333333334</ele><time>2026-05-02T06:58:50.933Z</time></trkpt><trkpt lat="44.0673307" lon="11.3048129"><ele>832.6666666666667</ele><time>2026-05-02T06:58:52.958Z</time></trkpt><trkpt lat="44.0672629" lon="11.3047642"><ele>832.5</ele><time>2026-05-02T06:58:54.958Z</time></trkpt><trkpt lat="44.0672213" lon="11.3046842"><ele>832.3333333333333</ele><time>2026-05-02T06:58:56.964Z</time></trkpt><trkpt lat="44.0671831" lon="11.3046009"><ele>832.1666666666666</ele><time>2026-05-02T06:58:58.952Z</time></trkpt><trkpt lat="44.0671363" lon="11.3045045"><ele>832.0</ele><time>2026-05-02T06:59:00.95Z</time></trkpt><trkpt lat="44.0670707" lon="11.304397"><ele>832.0</ele><time>2026-05-02T06:59:02.971Z</time></trkpt><trkpt lat="44.0669915" lon="11.3042917"><ele>832.0</ele><time>2026-05-02T06:59:04.951Z</time></trkpt><trkpt lat="44.0669384" lon="11.3042365"><ele>832.0</ele><time>2026-05-02T06:59:05.944Z</time></trkpt><trkpt lat="44.0668408" lon="11.3041258"><ele>832.0</ele><time>2026-05-02T06:59:07.951Z</time></trkpt><trkpt lat="44.0667867" lon="11.3040749"><ele>832.0</ele><time>2026-05-02T06:59:08.945Z</time></trkpt><trkpt lat="44.066689" lon="11.3039839"><ele>830.9999999999999</ele><time>2026-05-02T06:59:10.957Z</time></trkpt><trkpt lat="44.0665921" lon="11.3039088"><ele>830.0</ele><time>2026-05-02T06:59:12.948Z</time></trkpt><trkpt lat="44.0665046" lon="11.3038971"><ele>829.0</ele><time>2026-05-02T06:59:14.954Z</time></trkpt><trkpt lat="44.0664464" lon="11.303969"><ele>828.0</ele><time>2026-05-02T06:59:16.947Z</time></trkpt><trkpt lat="44.0664616" lon="11.3040645"><ele>826.9999999999999</ele><time>2026-05-02T06:59:19.96Z</time></trkpt><trkpt lat="44.0664777" lon="11.3041912"><ele>826.0</ele><time>2026-05-02T06:59:21.957Z</time></trkpt><trkpt lat="44.0664965" lon="11.3043554"><ele>826.0</ele><time>2026-05-02T06:59:23.946Z</time></trkpt><trkpt lat="44.0665205" lon="11.3045206"><ele>826.0</ele><time>2026-05-02T06:59:25.951Z</time></trkpt><trkpt lat="44.0665277" lon="11.3046885"><ele>826.0</ele><time>2026-05-02T06:59:27.958Z</time></trkpt><trkpt lat="44.0665287" lon="11.3047941"><ele>826.0</ele><time>2026-05-02T06:59:28.961Z</time></trkpt><trkpt lat="44.0665272" lon="11.3049699"><ele>826.0</ele><time>2026-05-02T06:59:30.943Z</time></trkpt><trkpt lat="44.0665306" lon="11.3051182"><ele>829.1999999999999</ele><time>2026-05-02T06:59:32.958Z</time></trkpt><trkpt lat="44.0665352" lon="11.305243"><ele>832.4</ele><time>2026-05-02T06:59:34.962Z</time></trkpt><trkpt lat="44.066534" lon="11.305351"><ele>835.6</ele><time>2026-05-02T06:59:36.951Z</time></trkpt><trkpt lat="44.0665409" lon="11.3054672"><ele>838.8</ele><time>2026-05-02T06:59:38.956Z</time></trkpt><trkpt lat="44.0665308" lon="11.3056242"><ele>842.0</ele><time>2026-05-02T06:59:40.956Z</time></trkpt><trkpt lat="44.0664985" lon="11.3057847"><ele>845.25</ele><time>2026-05-02T06:59:42.944Z</time></trkpt><trkpt lat="44.0664859" lon="11.3059397"><ele>848.5</ele><time>2026-05-02T06:59:44.96Z</time></trkpt><trkpt lat="44.0664668" lon="11.3060992"><ele>851.75</ele><time>2026-05-02T06:59:46.955Z</time></trkpt><trkpt lat="44.0664497" lon="11.3062511"><ele>855.0</ele><time>2026-05-02T06:59:48.958Z</time></trkpt><trkpt lat="44.0664438" lon="11.3064283"><ele>855.6666666666666</ele><time>2026-05-02T06:59:50.959Z</time></trkpt><trkpt lat="44.0664445" lon="11.3065269"><ele>856.3333333333333</ele><time>2026-05-02T06:59:51.963Z</time></trkpt><trkpt lat="44.066442" lon="11.3066379"><ele>857.0</ele><time>2026-05-02T06:59:52.968Z</time></trkpt><trkpt lat="44.0664461" lon="11.3067393"><ele>857.6666666666666</ele><time>2026-05-02T06:59:53.956Z</time></trkpt><trkpt lat="44.066448" lon="11.3068556"><ele>858.3333333333333</ele><time>2026-05-02T06:59:54.956Z</time></trkpt><trkpt lat="44.0664548" lon="11.3069787"><ele>859.0</ele><time>2026-05-02T06:59:55.951Z</time></trkpt><trkpt lat="44.0664683" lon="11.3071008"><ele>859.0</ele><time>2026-05-02T06:59:56.953Z</time></trkpt><trkpt lat="44.066481" lon="11.3072285"><ele>859.0000000000001</ele><time>2026-05-02T06:59:57.953Z</time></trkpt><trkpt lat="44.0665018" lon="11.3073394"><ele>859.0000000000001</ele><time>2026-05-02T06:59:58.931Z</time></trkpt><trkpt lat="44.066528" lon="11.3074292"><ele>859.0</ele><time>2026-05-02T06:59:59.943Z</time></trkpt><trkpt lat="44.0665847" lon="11.3075727"><ele>859.0</ele><time>2026-05-02T07:00:01.935Z</time></trkpt><trkpt lat="44.0666553" lon="11.3076673"><ele>859.4000000000001</ele><time>2026-05-02T07:00:03.957Z</time></trkpt><trkpt lat="44.0667374" lon="11.3077665"><ele>859.8000000000001</ele><time>2026-05-02T07:00:05.954Z</time></trkpt><trkpt lat="44.0668229" lon="11.3078713"><ele>860.1999999999999</ele><time>2026-05-02T07:00:07.938Z</time></trkpt><trkpt lat="44.0669062" lon="11.3079733"><ele>860.5999999999999</ele><time>2026-05-02T07:00:10.032Z</time></trkpt><trkpt lat="44.066993" lon="11.3080591"><ele>861.0</ele><time>2026-05-02T07:00:11.97Z</time></trkpt><trkpt lat="44.0670753" lon="11.3081204"><ele>862.3333333333334</ele><time>2026-05-02T07:00:13.969Z</time></trkpt><trkpt lat="44.0671495" lon="11.3081917"><ele>863.6666666666667</ele><time>2026-05-02T07:00:15.964Z</time></trkpt><trkpt lat="44.0672088" lon="11.3082324"><ele>865.0</ele><time>2026-05-02T07:00:17.957Z</time></trkpt><trkpt lat="44.0672965" lon="11.3082318"><ele>866.3333333333334</ele><time>2026-05-02T07:00:21.023Z</time></trkpt><trkpt lat="44.0673685" lon="11.3082195"><ele>867.6666666666667</ele><time>2026-05-02T07:00:22.961Z</time></trkpt><trkpt lat="44.0674429" lon="11.3082127"><ele>869.0</ele><time>2026-05-02T07:00:24.959Z</time></trkpt><trkpt lat="44.0675292" lon="11.308213"><ele>871.1666666666667</ele><time>2026-05-02T07:00:26.965Z</time></trkpt><trkpt lat="44.0676046" lon="11.3082355"><ele>873.3333333333334</ele><time>2026-05-02T07:00:28.958Z</time></trkpt><trkpt lat="44.0676665" lon="11.3082541"><ele>875.5</ele><time>2026-05-02T07:00:30.965Z</time></trkpt><trkpt lat="44.0677479" lon="11.3082681"><ele>877.6666666666667</ele><time>2026-05-02T07:00:32.964Z</time></trkpt><trkpt lat="44.0678341" lon="11.3083012"><ele>879.8333333333334</ele><time>2026-05-02T07:00:34.963Z</time></trkpt><trkpt lat="44.0679055" lon="11.3083346"><ele>882.0</ele><time>2026-05-02T07:00:36.949Z</time></trkpt><trkpt lat="44.0679722" lon="11.3083823"><ele>882.0</ele><time>2026-05-02T07:00:38.951Z</time></trkpt><trkpt lat="44.0680465" lon="11.3084432"><ele>882.0</ele><time>2026-05-02T07:00:40.954Z</time></trkpt><trkpt lat="44.0681426" lon="11.3084704"><ele>882.0</ele><time>2026-05-02T07:00:42.963Z</time></trkpt><trkpt lat="44.0682307" lon="11.3084605"><ele>882.0</ele><time>2026-05-02T07:00:45.029Z</time></trkpt><trkpt lat="44.0683057" lon="11.3084132"><ele>882.0</ele><time>2026-05-02T07:00:47.968Z</time></trkpt><trkpt lat="44.0683703" lon="11.3083494"><ele>882.0</ele><time>2026-05-02T07:00:50.968Z</time></trkpt><trkpt lat="44.0684526" lon="11.3083056"><ele>882.3333333333334</ele><time>2026-05-02T07:00:53.952Z</time></trkpt><trkpt lat="44.0685233" lon="11.308312"><ele>882.6666666666667</ele><time>2026-05-02T07:00:55.98Z</time></trkpt><trkpt lat="44.0685887" lon="11.3083187"><ele>883.0</ele><time>2026-05-02T07:00:57.972Z</time></trkpt><trkpt lat="44.0686657" lon="11.3083203"><ele>883.3333333333334</ele><time>2026-05-02T07:01:00.965Z</time></trkpt><trkpt lat="44.0687407" lon="11.3083487"><ele>883.6666666666667</ele><time>2026-05-02T07:01:02.972Z</time></trkpt><trkpt lat="44.0688283" lon="11.3083819"><ele>884.0</ele><time>2026-05-02T07:01:05.04Z</time></trkpt><trkpt lat="44.0689094" lon="11.3084317"><ele>884.0000000000001</ele><time>2026-05-02T07:01:06.978Z</time></trkpt><trkpt lat="44.0689711" lon="11.308467"><ele>884.0</ele><time>2026-05-02T07:01:08.97Z</time></trkpt><trkpt lat="44.0690506" lon="11.3085309"><ele>884.0</ele><time>2026-05-02T07:01:10.973Z</time></trkpt><trkpt lat="44.0691343" lon="11.3085849"><ele>884.0</ele><time>2026-05-02T07:01:12.974Z</time></trkpt><trkpt lat="44.0692109" lon="11.3086625"><ele>884.0000000000001</ele><time>2026-05-02T07:01:14.974Z</time></trkpt><trkpt lat="44.0692927" lon="11.3087436"><ele>884.0</ele><time>2026-05-02T07:01:17.056Z</time></trkpt><trkpt lat="44.0693571" lon="11.3088228"><ele>885.0000000000001</ele><time>2026-05-02T07:01:18.976Z</time></trkpt><trkpt lat="44.069419" lon="11.3088976"><ele>886.0</ele><time>2026-05-02T07:01:20.975Z</time></trkpt><trkpt lat="44.0694838" lon="11.3089684"><ele>887.0</ele><time>2026-05-02T07:01:22.976Z</time></trkpt><trkpt lat="44.069552" lon="11.3090315"><ele>888.0</ele><time>2026-05-02T07:01:24.97Z</time></trkpt><trkpt lat="44.0696306" lon="11.3090782"><ele>889.0000000000001</ele><time>2026-05-02T07:01:27.956Z</time></trkpt><trkpt lat="44.069713" lon="11.309124"><ele>890.0</ele><time>2026-05-02T07:01:30.958Z</time></trkpt><trkpt lat="44.0697811" lon="11.3091671"><ele>892.2857142857143</ele><time>2026-05-02T07:01:32.961Z</time></trkpt><trkpt lat="44.0698487" lon="11.3092181"><ele>894.5714285714284</ele><time>2026-05-02T07:01:34.957Z</time></trkpt><trkpt lat="44.069915" lon="11.3092585"><ele>896.8571428571428</ele><time>2026-05-02T07:01:37.041Z</time></trkpt><trkpt lat="44.0699783" lon="11.3093222"><ele>899.1428571428571</ele><time>2026-05-02T07:01:38.978Z</time></trkpt><trkpt lat="44.0700405" lon="11.3093731"><ele>901.4285714285713</ele><time>2026-05-02T07:01:40.97Z</time></trkpt><trkpt lat="44.070104" lon="11.3094074"><ele>903.7142857142856</ele><time>2026-05-02T07:01:42.961Z</time></trkpt><trkpt lat="44.0701824" lon="11.3093982"><ele>905.9999999999999</ele><time>2026-05-02T07:01:45.969Z</time></trkpt><trkpt lat="44.0702495" lon="11.3094086"><ele>906.0</ele><time>2026-05-02T07:01:48.969Z</time></trkpt><trkpt lat="44.0703374" lon="11.3094032"><ele>905.9999999999999</ele><time>2026-05-02T07:01:52.978Z</time></trkpt><trkpt lat="44.0704761" lon="11.3094358"><ele>905.9999999999999</ele><time>2026-05-02T07:01:58.971Z</time></trkpt><trkpt lat="44.0705711" lon="11.3094414"><ele>906.0</ele><time>2026-05-02T07:02:01.963Z</time></trkpt><trkpt lat="44.0706337" lon="11.3094315"><ele>906.0</ele><time>2026-05-02T07:02:03.968Z</time></trkpt><trkpt lat="44.0707038" lon="11.3094266"><ele>905.142857142857</ele><time>2026-05-02T07:02:05.981Z</time></trkpt><trkpt lat="44.0707982" lon="11.3094236"><ele>904.2857142857142</ele><time>2026-05-02T07:02:08.97Z</time></trkpt><trkpt lat="44.0708726" lon="11.3094207"><ele>903.4285714285714</ele><time>2026-05-02T07:02:11.979Z</time></trkpt><trkpt lat="44.0709442" lon="11.3094321"><ele>902.5714285714286</ele><time>2026-05-02T07:02:15.027Z</time></trkpt><trkpt lat="44.0710132" lon="11.3094564"><ele>901.7142857142858</ele><time>2026-05-02T07:02:18.956Z</time></trkpt><trkpt lat="44.0710767" lon="11.309475"><ele>900.857142857143</ele><time>2026-05-02T07:02:22.961Z</time></trkpt><trkpt lat="44.071146" lon="11.3094497"><ele>900.0000000000001</ele><time>2026-05-02T07:02:25.962Z</time></trkpt><trkpt lat="44.0712087" lon="11.3094168"><ele>900.0</ele><time>2026-05-02T07:02:27.958Z</time></trkpt><trkpt lat="44.071284" lon="11.3093802"><ele>900.0</ele><time>2026-05-02T07:02:30.953Z</time></trkpt><trkpt lat="44.0713558" lon="11.3093254"><ele>900.0</ele><time>2026-05-02T07:02:33.962Z</time></trkpt><trkpt lat="44.0714227" lon="11.3092625"><ele>900.0</ele><time>2026-05-02T07:02:35.959Z</time></trkpt><trkpt lat="44.0714834" lon="11.3092037"><ele>900.0</ele><time>2026-05-02T07:02:37.96Z</time></trkpt><trkpt lat="44.0715443" lon="11.3091729"><ele>900.0</ele><time>2026-05-02T07:02:39.958Z</time></trkpt><trkpt lat="44.0716293" lon="11.3091543"><ele>900.857142857143</ele><time>2026-05-02T07:02:42.951Z</time></trkpt><trkpt lat="44.0716986" lon="11.3091518"><ele>901.7142857142858</ele><time>2026-05-02T07:02:44.958Z</time></trkpt><trkpt lat="44.0717629" lon="11.3091419"><ele>902.5714285714286</ele><time>2026-05-02T07:02:46.953Z</time></trkpt><trkpt lat="44.0718239" lon="11.3091202"><ele>903.4285714285714</ele><time>2026-05-02T07:02:48.964Z</time></trkpt><trkpt lat="44.0719004" lon="11.3090972"><ele>904.2857142857142</ele><time>2026-05-02T07:02:50.965Z</time></trkpt><trkpt lat="44.0719781" lon="11.3090771"><ele>905.142857142857</ele><time>2026-05-02T07:02:52.954Z</time></trkpt><trkpt lat="44.0720567" lon="11.3090967"><ele>905.9999999999999</ele><time>2026-05-02T07:02:54.951Z</time></trkpt><trkpt lat="44.0721302" lon="11.3091329"><ele>906.0</ele><time>2026-05-02T07:02:56.941Z</time></trkpt><trkpt lat="44.0722009" lon="11.3091795"><ele>906.0</ele><time>2026-05-02T07:02:58.957Z</time></trkpt><trkpt lat="44.0722558" lon="11.3092402"><ele>906.0</ele><time>2026-05-02T07:03:00.959Z</time></trkpt><trkpt lat="44.0723114" lon="11.3092945"><ele>906.0</ele><time>2026-05-02T07:03:02.964Z</time></trkpt><trkpt lat="44.0723794" lon="11.3093592"><ele>906.0</ele><time>2026-05-02T07:03:04.968Z</time></trkpt><trkpt lat="44.0724446" lon="11.3094232"><ele>906.0</ele><time>2026-05-02T07:03:06.962Z</time></trkpt><trkpt lat="44.0724976" lon="11.3095039"><ele>907.0</ele><time>2026-05-02T07:03:09.956Z</time></trkpt><trkpt lat="44.0725416" lon="11.3095704"><ele>908.0</ele><time>2026-05-02T07:03:11.966Z</time></trkpt><trkpt lat="44.072606" lon="11.3096673"><ele>909.0</ele><time>2026-05-02T07:03:14.957Z</time></trkpt><trkpt lat="44.0726654" lon="11.3097494"><ele>910.0</ele><time>2026-05-02T07:03:17.966Z</time></trkpt><trkpt lat="44.0727196" lon="11.3098143"><ele>911.0</ele><time>2026-05-02T07:03:22.034Z</time></trkpt><trkpt lat="44.0727882" lon="11.3099032"><ele>912.0</ele><time>2026-05-02T07:03:24.971Z</time></trkpt><trkpt lat="44.0728703" lon="11.3100145"><ele>914.6666666666666</ele><time>2026-05-02T07:03:26.959Z</time></trkpt><trkpt lat="44.0729122" lon="11.3100974"><ele>917.3333333333333</ele><time>2026-05-02T07:03:27.961Z</time></trkpt><trkpt lat="44.0729483" lon="11.3101713"><ele>920.0</ele><time>2026-05-02T07:03:28.957Z</time></trkpt><trkpt lat="44.0730404" lon="11.3103034"><ele>922.6666666666666</ele><time>2026-05-02T07:03:30.954Z</time></trkpt><trkpt lat="44.0730875" lon="11.3103619"><ele>925.3333333333333</ele><time>2026-05-02T07:03:31.962Z</time></trkpt><trkpt lat="44.0731442" lon="11.3104603"><ele>928.0</ele><time>2026-05-02T07:03:33.958Z</time></trkpt><trkpt lat="44.073246" lon="11.3104996"><ele>929.25</ele><time>2026-05-02T07:03:34.955Z</time></trkpt><trkpt lat="44.0734067" lon="11.3104942"><ele>930.5</ele><time>2026-05-02T07:03:35.956Z</time></trkpt><trkpt lat="44.0735775" lon="11.3105034"><ele>931.75</ele><time>2026-05-02T07:03:37.958Z</time></trkpt><trkpt lat="44.0736642" lon="11.3105002"><ele>933.0</ele><time>2026-05-02T07:03:38.966Z</time></trkpt><trkpt lat="44.0737724" lon="11.3104903"><ele>933.0</ele><time>2026-05-02T07:07:46.966Z</time></trkpt><trkpt lat="44.0738405" lon="11.3104932"><ele>932.9999999999999</ele><time>2026-05-02T07:08:07.959Z</time></trkpt><trkpt lat="44.0738597" lon="11.3105813"><ele>933.0</ele><time>2026-05-02T07:08:13.967Z</time></trkpt><trkpt lat="44.0738654" lon="11.3106801"><ele>933.0</ele><time>2026-05-02T07:08:18.95Z</time></trkpt><trkpt lat="44.0738867" lon="11.3107791"><ele>932.9999999999999</ele><time>2026-05-02T07:08:24.976Z</time></trkpt><trkpt lat="44.0738673" lon="11.3108841"><ele>933.0</ele><time>2026-05-02T07:08:28.957Z</time></trkpt><trkpt lat="44.0738572" lon="11.3109932"><ele>933.0</ele><time>2026-05-02T07:08:32.942Z</time></trkpt><trkpt lat="44.0738836" lon="11.3110787"><ele>933.2857142857142</ele><time>2026-05-02T07:08:36.958Z</time></trkpt><trkpt lat="44.0739034" lon="11.3111808"><ele>933.5714285714284</ele><time>2026-05-02T07:08:43.961Z</time></trkpt><trkpt lat="44.0739242" lon="11.3112852"><ele>933.8571428571429</ele><time>2026-05-02T07:08:51.959Z</time></trkpt><trkpt lat="44.0739273" lon="11.3114067"><ele>934.1428571428571</ele><time>2026-05-02T07:08:55.965Z</time></trkpt><trkpt lat="44.0739157" lon="11.3115134"><ele>934.4285714285714</ele><time>2026-05-02T07:08:58.973Z</time></trkpt><trkpt lat="44.0739176" lon="11.3116033"><ele>934.7142857142858</ele><time>2026-05-02T07:09:01.962Z</time></trkpt><trkpt lat="44.0739227" lon="11.311695"><ele>935.0000000000001</ele><time>2026-05-02T07:09:04.953Z</time></trkpt><trkpt lat="44.0739362" lon="11.311787"><ele>931.1666666666667</ele><time>2026-05-02T07:09:07.968Z</time></trkpt><trkpt lat="44.0739564" lon="11.3118898"><ele>927.3333333333334</ele><time>2026-05-02T07:09:10.968Z</time></trkpt><trkpt lat="44.073954" lon="11.3120055"><ele>923.5</ele><time>2026-05-02T07:09:13.974Z</time></trkpt><trkpt lat="44.073952" lon="11.3121051"><ele>919.6666666666667</ele><time>2026-05-02T07:09:16.966Z</time></trkpt><trkpt lat="44.0739543" lon="11.3122081"><ele>915.8333333333334</ele><time>2026-05-02T07:09:19.954Z</time></trkpt><trkpt lat="44.0739605" lon="11.3123268"><ele>912.0</ele><time>2026-05-02T07:09:22.963Z</time></trkpt><trkpt lat="44.0739655" lon="11.3124433"><ele>909.6666666666666</ele><time>2026-05-02T07:09:25.967Z</time></trkpt><trkpt lat="44.0739698" lon="11.3125682"><ele>907.3333333333333</ele><time>2026-05-02T07:09:28.946Z</time></trkpt><trkpt lat="44.0739409" lon="11.3126803"><ele>905.0</ele><time>2026-05-02T07:09:31.956Z</time></trkpt><trkpt lat="44.0739003" lon="11.3127841"><ele>902.6666666666666</ele><time>2026-05-02T07:09:34.96Z</time></trkpt><trkpt lat="44.0738558" lon="11.3128948"><ele>900.3333333333333</ele><time>2026-05-02T07:09:37.942Z</time></trkpt><trkpt lat="44.0738071" lon="11.3130001"><ele>898.0</ele><time>2026-05-02T07:09:40.96Z</time></trkpt><trkpt lat="44.0737777" lon="11.3130789"><ele>897.1666666666666</ele><time>2026-05-02T07:09:42.954Z</time></trkpt><trkpt lat="44.0737381" lon="11.3131939"><ele>896.3333333333333</ele><time>2026-05-02T07:09:45.961Z</time></trkpt><trkpt lat="44.0737294" lon="11.3133092"><ele>895.5</ele><time>2026-05-02T07:09:48.957Z</time></trkpt><trkpt lat="44.0737592" lon="11.3134047"><ele>894.6666666666667</ele><time>2026-05-02T07:09:51.966Z</time></trkpt><trkpt lat="44.0737919" lon="11.3135218"><ele>893.8333333333334</ele><time>2026-05-02T07:09:54.968Z</time></trkpt><trkpt lat="44.0738203" lon="11.3136128"><ele>893.0</ele><time>2026-05-02T07:09:56.968Z</time></trkpt><trkpt lat="44.0738477" lon="11.313694"><ele>893.0</ele><time>2026-05-02T07:09:58.957Z</time></trkpt><trkpt lat="44.0738712" lon="11.3137765"><ele>893.0</ele><time>2026-05-02T07:10:00.957Z</time></trkpt><trkpt lat="44.0738846" lon="11.313866"><ele>893.0</ele><time>2026-05-02T07:10:02.953Z</time></trkpt><trkpt lat="44.0738999" lon="11.3139598"><ele>893.0</ele><time>2026-05-02T07:10:05.954Z</time></trkpt><trkpt lat="44.0739198" lon="11.3140538"><ele>893.0</ele><time>2026-05-02T07:10:08.957Z</time></trkpt><trkpt lat="44.0739365" lon="11.3141595"><ele>893.0</ele><time>2026-05-02T07:10:11.955Z</time></trkpt><trkpt lat="44.0739606" lon="11.314256"><ele>893.0</ele><time>2026-05-02T07:10:14.953Z</time></trkpt><trkpt lat="44.0739962" lon="11.3143604"><ele>892.2857142857143</ele><time>2026-05-02T07:10:17.965Z</time></trkpt><trkpt lat="44.0740202" lon="11.3144531"><ele>891.5714285714287</ele><time>2026-05-02T07:10:19.965Z</time></trkpt><trkpt lat="44.0740441" lon="11.3145402"><ele>890.8571428571429</ele><time>2026-05-02T07:10:22.968Z</time></trkpt><trkpt lat="44.0740803" lon="11.314631"><ele>890.1428571428571</ele><time>2026-05-02T07:10:26.966Z</time></trkpt><trkpt lat="44.0741123" lon="11.3147079"><ele>889.4285714285714</ele><time>2026-05-02T07:10:29.953Z</time></trkpt><trkpt lat="44.0741391" lon="11.3147928"><ele>888.7142857142857</ele><time>2026-05-02T07:10:32.961Z</time></trkpt><trkpt lat="44.0741551" lon="11.3148919"><ele>888.0</ele><time>2026-05-02T07:10:35.944Z</time></trkpt><trkpt lat="44.0741841" lon="11.3150021"><ele>890.0</ele><time>2026-05-02T07:10:38.966Z</time></trkpt><trkpt lat="44.074179" lon="11.315115"><ele>892.0</ele><time>2026-05-02T07:10:41.96Z</time></trkpt><trkpt lat="44.0741595" lon="11.3152032"><ele>894.0</ele><time>2026-05-02T07:10:44.959Z</time></trkpt><trkpt lat="44.074139" lon="11.3152978"><ele>896.0</ele><time>2026-05-02T07:10:47.966Z</time></trkpt><trkpt lat="44.0741233" lon="11.3154177"><ele>898.0</ele><time>2026-05-02T07:10:50.957Z</time></trkpt><trkpt lat="44.0741348" lon="11.3155161"><ele>900.0</ele><time>2026-05-02T07:10:53.946Z</time></trkpt><trkpt lat="44.0741572" lon="11.3156067"><ele>902.0</ele><time>2026-05-02T07:10:56.97Z</time></trkpt><trkpt lat="44.0741714" lon="11.3157114"><ele>902.0</ele><time>2026-05-02T07:11:01.05Z</time></trkpt><trkpt lat="44.0741739" lon="11.3158263"><ele>902.0</ele><time>2026-05-02T07:11:03.976Z</time></trkpt><trkpt lat="44.0741705" lon="11.3159141"><ele>902.0</ele><time>2026-05-02T07:11:06.958Z</time></trkpt><trkpt lat="44.0741737" lon="11.3160211"><ele>902.0</ele><time>2026-05-02T07:11:09.957Z</time></trkpt><trkpt lat="44.0741964" lon="11.3161064"><ele>902.0</ele><time>2026-05-02T07:11:12.954Z</time></trkpt><trkpt lat="44.0742611" lon="11.3161341"><ele>902.0</ele><time>2026-05-02T07:11:16.955Z</time></trkpt><trkpt lat="44.0743263" lon="11.316163"><ele>902.0</ele><time>2026-05-02T07:11:19.953Z</time></trkpt><trkpt lat="44.0744006" lon="11.3162072"><ele>902.0000000000001</ele><time>2026-05-02T07:11:22.949Z</time></trkpt><trkpt lat="44.0744624" lon="11.3162776"><ele>902.0</ele><time>2026-05-02T07:11:25.949Z</time></trkpt><trkpt lat="44.074484" lon="11.3163998"><ele>902.0</ele><time>2026-05-02T07:11:28.957Z</time></trkpt><trkpt lat="44.0744834" lon="11.3164893"><ele>902.0</ele><time>2026-05-02T07:11:30.949Z</time></trkpt><trkpt lat="44.07452" lon="11.316594"><ele>902.0000000000001</ele><time>2026-05-02T07:11:33.95Z</time></trkpt><trkpt lat="44.0745677" lon="11.3167049"><ele>902.0</ele><time>2026-05-02T07:11:36.953Z</time></trkpt><trkpt lat="44.0746069" lon="11.3167835"><ele>900.1666666666667</ele><time>2026-05-02T07:11:38.956Z</time></trkpt><trkpt lat="44.0746732" lon="11.316912"><ele>898.3333333333334</ele><time>2026-05-02T07:11:41.954Z</time></trkpt><trkpt lat="44.0747207" lon="11.3169903"><ele>896.5</ele><time>2026-05-02T07:11:43.958Z</time></trkpt><trkpt lat="44.0747652" lon="11.3171065"><ele>894.6666666666667</ele><time>2026-05-02T07:11:46.958Z</time></trkpt><trkpt lat="44.0747948" lon="11.3171911"><ele>892.8333333333334</ele><time>2026-05-02T07:11:48.957Z</time></trkpt><trkpt lat="44.0748295" lon="11.3172847"><ele>891.0</ele><time>2026-05-02T07:11:50.953Z</time></trkpt><trkpt lat="44.0748788" lon="11.3173646"><ele>891.0</ele><time>2026-05-02T07:11:52.947Z</time></trkpt><trkpt lat="44.0749284" lon="11.317419"><ele>891.0</ele><time>2026-05-02T07:11:54.961Z</time></trkpt><trkpt lat="44.0749979" lon="11.3175011"><ele>891.0</ele><time>2026-05-02T07:11:58.032Z</time></trkpt><trkpt lat="44.0750484" lon="11.3175923"><ele>891.0</ele><time>2026-05-02T07:11:59.98Z</time></trkpt><trkpt lat="44.0750794" lon="11.3176735"><ele>891.0</ele><time>2026-05-02T07:12:00.938Z</time></trkpt><trkpt lat="44.0751178" lon="11.3177599"><ele>891.0</ele><time>2026-05-02T07:12:01.947Z</time></trkpt><trkpt lat="44.0751722" lon="11.3178632"><ele>891.0</ele><time>2026-05-02T07:12:03.942Z</time></trkpt><trkpt lat="44.0751925" lon="11.3179799"><ele>890.9999999999999</ele><time>2026-05-02T07:12:05.945Z</time></trkpt><trkpt lat="44.0752275" lon="11.3181359"><ele>890.9999999999999</ele><time>2026-05-02T07:12:07.972Z</time></trkpt><trkpt lat="44.0752676" lon="11.3182115"><ele>891.0</ele><time>2026-05-02T07:12:08.962Z</time></trkpt><trkpt lat="44.0753087" lon="11.3183365"><ele>891.0</ele><time>2026-05-02T07:12:10.963Z</time></trkpt><trkpt lat="44.0753283" lon="11.3184589"><ele>887.8333333333334</ele><time>2026-05-02T07:12:12.972Z</time></trkpt><trkpt lat="44.075357" lon="11.3185382"><ele>884.6666666666667</ele><time>2026-05-02T07:12:14.973Z</time></trkpt><trkpt lat="44.0753875" lon="11.3186614"><ele>881.5</ele><time>2026-05-02T07:12:17.969Z</time></trkpt><trkpt lat="44.075428" lon="11.3187842"><ele>878.3333333333334</ele><time>2026-05-02T07:12:19.968Z</time></trkpt><trkpt lat="44.0754732" lon="11.3189022"><ele>875.1666666666667</ele><time>2026-05-02T07:12:21.982Z</time></trkpt><trkpt lat="44.0755127" lon="11.3190059"><ele>872.0</ele><time>2026-05-02T07:12:23.977Z</time></trkpt><trkpt lat="44.0755356" lon="11.3190935"><ele>871.4285714285714</ele><time>2026-05-02T07:12:26.039Z</time></trkpt><trkpt lat="44.0755532" lon="11.3191935"><ele>870.8571428571429</ele><time>2026-05-02T07:12:27.984Z</time></trkpt><trkpt lat="44.0755643" lon="11.3193053"><ele>870.2857142857142</ele><time>2026-05-02T07:12:29.958Z</time></trkpt><trkpt lat="44.0755779" lon="11.3194126"><ele>869.7142857142858</ele><time>2026-05-02T07:12:31.965Z</time></trkpt><trkpt lat="44.0755913" lon="11.3195129"><ele>869.1428571428571</ele><time>2026-05-02T07:12:33.962Z</time></trkpt><trkpt lat="44.0755999" lon="11.3196016"><ele>868.5714285714286</ele><time>2026-05-02T07:12:36.021Z</time></trkpt><trkpt lat="44.0756055" lon="11.319699"><ele>868.0</ele><time>2026-05-02T07:12:37.962Z</time></trkpt><trkpt lat="44.0755954" lon="11.3198046"><ele>867.9999999999999</ele><time>2026-05-02T07:12:39.954Z</time></trkpt><trkpt lat="44.0755776" lon="11.3199075"><ele>868.0</ele><time>2026-05-02T07:12:41.964Z</time></trkpt><trkpt lat="44.0755492" lon="11.3200166"><ele>868.0</ele><time>2026-05-02T07:12:43.952Z</time></trkpt><trkpt lat="44.0755299" lon="11.3201295"><ele>868.0</ele><time>2026-05-02T07:12:45.96Z</time></trkpt><trkpt lat="44.0755257" lon="11.3202543"><ele>867.9999999999999</ele><time>2026-05-02T07:12:48.04Z</time></trkpt><trkpt lat="44.0755272" lon="11.3203727"><ele>868.0</ele><time>2026-05-02T07:12:49.952Z</time></trkpt><trkpt lat="44.0755341" lon="11.3204912"><ele>869.4999999999999</ele><time>2026-05-02T07:12:51.977Z</time></trkpt><trkpt lat="44.0755401" lon="11.3206035"><ele>871.0</ele><time>2026-05-02T07:12:53.972Z</time></trkpt><trkpt lat="44.0755193" lon="11.320743"><ele>872.5</ele><time>2026-05-02T07:12:55.974Z</time></trkpt><trkpt lat="44.0754812" lon="11.3208665"><ele>874.0</ele><time>2026-05-02T07:12:57.954Z</time></trkpt><trkpt lat="44.0754454" lon="11.3209859"><ele>875.4999999999999</ele><time>2026-05-02T07:12:59.966Z</time></trkpt><trkpt lat="44.0754135" lon="11.3210769"><ele>877.0</ele><time>2026-05-02T07:13:01.962Z</time></trkpt><trkpt lat="44.0753858" lon="11.3211574"><ele>877.0000000000001</ele><time>2026-05-02T07:13:03.947Z</time></trkpt><trkpt lat="44.0753655" lon="11.3212633"><ele>877.0</ele><time>2026-05-02T07:13:06.957Z</time></trkpt><trkpt lat="44.0754109" lon="11.3213379"><ele>877.0</ele><time>2026-05-02T07:13:09.97Z</time></trkpt><trkpt lat="44.0754748" lon="11.3213898"><ele>877.0</ele><time>2026-05-02T07:13:11.963Z</time></trkpt><trkpt lat="44.075549" lon="11.3214496"><ele>877.0</ele><time>2026-05-02T07:13:13.968Z</time></trkpt><trkpt lat="44.0756038" lon="11.3215045"><ele>877.0000000000001</ele><time>2026-05-02T07:13:15.962Z</time></trkpt><trkpt lat="44.0756209" lon="11.3215949"><ele>877.0</ele><time>2026-05-02T07:13:18.966Z</time></trkpt><trkpt lat="44.075624" lon="11.3216847"><ele>878.3333333333333</ele><time>2026-05-02T07:13:21.037Z</time></trkpt><trkpt lat="44.0756316" lon="11.3218021"><ele>879.6666666666666</ele><time>2026-05-02T07:13:23.041Z</time></trkpt><trkpt lat="44.0756482" lon="11.3219073"><ele>881.0</ele><time>2026-05-02T07:13:24.954Z</time></trkpt><trkpt lat="44.075684" lon="11.32198"><ele>882.3333333333333</ele><time>2026-05-02T07:13:26.949Z</time></trkpt><trkpt lat="44.0757127" lon="11.3220722"><ele>883.6666666666666</ele><time>2026-05-02T07:13:28.963Z</time></trkpt><trkpt lat="44.075696" lon="11.3221889"><ele>885.0</ele><time>2026-05-02T07:13:31.968Z</time></trkpt><trkpt lat="44.0756568" lon="11.3222678"><ele>886.2</ele><time>2026-05-02T07:13:33.962Z</time></trkpt><trkpt lat="44.0755887" lon="11.3223626"><ele>887.4</ele><time>2026-05-02T07:13:35.973Z</time></trkpt><trkpt lat="44.0755269" lon="11.322502"><ele>888.5999999999999</ele><time>2026-05-02T07:13:37.966Z</time></trkpt><trkpt lat="44.0754936" lon="11.3226266"><ele>889.8</ele><time>2026-05-02T07:13:39.941Z</time></trkpt><trkpt lat="44.0754651" lon="11.3227262"><ele>891.0</ele><time>2026-05-02T07:13:41.945Z</time></trkpt><trkpt lat="44.0754194" lon="11.3228029"><ele>891.0</ele><time>2026-05-02T07:13:43.953Z</time></trkpt><trkpt lat="44.0753912" lon="11.3228927"><ele>891.0</ele><time>2026-05-02T07:13:45.955Z</time></trkpt><trkpt lat="44.0753513" lon="11.3229818"><ele>891.0</ele><time>2026-05-02T07:13:47.963Z</time></trkpt><trkpt lat="44.0753209" lon="11.3230801"><ele>891.0</ele><time>2026-05-02T07:13:49.953Z</time></trkpt><trkpt lat="44.0752724" lon="11.3231802"><ele>891.0</ele><time>2026-05-02T07:13:51.959Z</time></trkpt><trkpt lat="44.0751953" lon="11.3232658"><ele>891.0</ele><time>2026-05-02T07:13:53.959Z</time></trkpt><trkpt lat="44.0751157" lon="11.3233488"><ele>893.0</ele><time>2026-05-02T07:13:55.958Z</time></trkpt><trkpt lat="44.0750512" lon="11.3234356"><ele>895.0</ele><time>2026-05-02T07:13:57.956Z</time></trkpt><trkpt lat="44.0750125" lon="11.3235327"><ele>897.0</ele><time>2026-05-02T07:13:59.954Z</time></trkpt><trkpt lat="44.074995" lon="11.3236567"><ele>899.0</ele><time>2026-05-02T07:14:01.952Z</time></trkpt><trkpt lat="44.0750051" lon="11.3237801"><ele>901.0</ele><time>2026-05-02T07:14:03.96Z</time></trkpt><trkpt lat="44.0750153" lon="11.323903"><ele>903.0</ele><time>2026-05-02T07:14:05.952Z</time></trkpt><trkpt lat="44.0749989" lon="11.3240146"><ele>903.8333333333334</ele><time>2026-05-02T07:14:08.957Z</time></trkpt><trkpt lat="44.0749774" lon="11.3241192"><ele>904.6666666666667</ele><time>2026-05-02T07:14:12.958Z</time></trkpt><trkpt lat="44.0749785" lon="11.3242305"><ele>905.5</ele><time>2026-05-02T07:14:16.961Z</time></trkpt><trkpt lat="44.075021" lon="11.3243041"><ele>906.3333333333334</ele><time>2026-05-02T07:14:21.955Z</time></trkpt><trkpt lat="44.0750353" lon="11.3244047"><ele>907.1666666666667</ele><time>2026-05-02T07:14:24.96Z</time></trkpt><trkpt lat="44.0750374" lon="11.3244931"><ele>908.0</ele><time>2026-05-02T07:14:26.951Z</time></trkpt><trkpt lat="44.0750295" lon="11.3246262"><ele>908.0000000000001</ele><time>2026-05-02T07:14:29.961Z</time></trkpt><trkpt lat="44.0750239" lon="11.3247242"><ele>908.0</ele><time>2026-05-02T07:14:31.968Z</time></trkpt><trkpt lat="44.0750038" lon="11.3248311"><ele>908.0</ele><time>2026-05-02T07:14:33.964Z</time></trkpt><trkpt lat="44.0749927" lon="11.3249367"><ele>908.0</ele><time>2026-05-02T07:14:35.965Z</time></trkpt><trkpt lat="44.0750032" lon="11.3250334"><ele>908.0000000000001</ele><time>2026-05-02T07:14:38.967Z</time></trkpt><trkpt lat="44.0750386" lon="11.3251341"><ele>908.0</ele><time>2026-05-02T07:14:42.955Z</time></trkpt><trkpt lat="44.0750643" lon="11.3252295"><ele>907.5714285714287</ele><time>2026-05-02T07:14:46.959Z</time></trkpt><trkpt lat="44.0750657" lon="11.3253208"><ele>907.1428571428572</ele><time>2026-05-02T07:14:54.954Z</time></trkpt><trkpt lat="44.075116" lon="11.3253853"><ele>906.7142857142858</ele><time>2026-05-02T07:14:56.954Z</time></trkpt><trkpt lat="44.0751724" lon="11.3254414"><ele>906.2857142857142</ele><time>2026-05-02T07:14:58.957Z</time></trkpt><trkpt lat="44.0752304" lon="11.3254874"><ele>905.8571428571428</ele><time>2026-05-02T07:15:00.954Z</time></trkpt><trkpt lat="44.0753216" lon="11.3255015"><ele>905.4285714285713</ele><time>2026-05-02T07:15:03.947Z</time></trkpt><trkpt lat="44.0754007" lon="11.3255303"><ele>905.0</ele><time>2026-05-02T07:15:06.959Z</time></trkpt><trkpt lat="44.0754528" lon="11.3256176"><ele>904.1666666666667</ele><time>2026-05-02T07:15:13.953Z</time></trkpt><trkpt lat="44.0754909" lon="11.3257039"><ele>903.3333333333334</ele><time>2026-05-02T07:15:15.963Z</time></trkpt><trkpt lat="44.0755511" lon="11.3258049"><ele>902.5</ele><time>2026-05-02T07:15:18.952Z</time></trkpt><trkpt lat="44.0755664" lon="11.3259116"><ele>901.6666666666667</ele><time>2026-05-02T07:15:21.957Z</time></trkpt><trkpt lat="44.0755778" lon="11.3259986"><ele>900.8333333333334</ele><time>2026-05-02T07:15:23.948Z</time></trkpt><trkpt lat="44.0756179" lon="11.3261055"><ele>900.0</ele><time>2026-05-02T07:15:25.959Z</time></trkpt><trkpt lat="44.0756507" lon="11.3262003"><ele>900.0</ele><time>2026-05-02T07:15:27.946Z</time></trkpt><trkpt lat="44.0756752" lon="11.326282"><ele>900.0</ele><time>2026-05-02T07:15:29.952Z</time></trkpt><trkpt lat="44.075732" lon="11.3263671"><ele>900.0</ele><time>2026-05-02T07:15:32.954Z</time></trkpt><trkpt lat="44.0757923" lon="11.3264772"><ele>900.0</ele><time>2026-05-02T07:15:35.955Z</time></trkpt><trkpt lat="44.0758058" lon="11.3265834"><ele>900.0</ele><time>2026-05-02T07:15:37.961Z</time></trkpt><trkpt lat="44.075798" lon="11.326676"><ele>900.0</ele><time>2026-05-02T07:15:40.02Z</time></trkpt><trkpt lat="44.0757726" lon="11.3267968"><ele>900.8333333333334</ele><time>2026-05-02T07:15:42.95Z</time></trkpt><trkpt lat="44.0757612" lon="11.3268864"><ele>901.6666666666667</ele><time>2026-05-02T07:15:44.94Z</time></trkpt><trkpt lat="44.0757326" lon="11.3270114"><ele>902.5</ele><time>2026-05-02T07:15:47.948Z</time></trkpt><trkpt lat="44.0757034" lon="11.3271007"><ele>903.3333333333334</ele><time>2026-05-02T07:15:49.951Z</time></trkpt><trkpt lat="44.0756847" lon="11.3271894"><ele>904.1666666666667</ele><time>2026-05-02T07:15:51.951Z</time></trkpt><trkpt lat="44.075667" lon="11.3273102"><ele>905.0</ele><time>2026-05-02T07:15:54.964Z</time></trkpt><trkpt lat="44.0756302" lon="11.3274117"><ele>906.3333333333334</ele><time>2026-05-02T07:15:57.955Z</time></trkpt><trkpt lat="44.0755875" lon="11.3275133"><ele>907.6666666666667</ele><time>2026-05-02T07:16:00.958Z</time></trkpt><trkpt lat="44.0755332" lon="11.327622"><ele>909.0</ele><time>2026-05-02T07:16:03.968Z</time></trkpt><trkpt lat="44.0754823" lon="11.3277342"><ele>910.3333333333333</ele><time>2026-05-02T07:16:06.962Z</time></trkpt><trkpt lat="44.0754418" lon="11.3278041"><ele>911.6666666666666</ele><time>2026-05-02T07:16:08.963Z</time></trkpt><trkpt lat="44.0753866" lon="11.3278525"><ele>913.0</ele><time>2026-05-02T07:16:10.958Z</time></trkpt><trkpt lat="44.0753336" lon="11.327911"><ele>912.9999999999999</ele><time>2026-05-02T07:16:13.956Z</time></trkpt><trkpt lat="44.0752712" lon="11.3279811"><ele>913.0</ele><time>2026-05-02T07:16:16.964Z</time></trkpt><trkpt lat="44.0752214" lon="11.3280591"><ele>912.9999999999999</ele><time>2026-05-02T07:16:19.966Z</time></trkpt><trkpt lat="44.0751657" lon="11.3281327"><ele>912.9999999999999</ele><time>2026-05-02T07:16:23.955Z</time></trkpt><trkpt lat="44.0751322" lon="11.3282151"><ele>913.0</ele><time>2026-05-02T07:18:14.944Z</time></trkpt><trkpt lat="44.0751148" lon="11.3283108"><ele>912.9999999999999</ele><time>2026-05-02T07:18:46.954Z</time></trkpt><trkpt lat="44.0751381" lon="11.3282255"><ele>912.9999999999999</ele><time>2026-05-02T07:22:12.947Z</time></trkpt><trkpt lat="44.0751057" lon="11.3283007"><ele>913.4285714285713</ele><time>2026-05-02T07:22:21.95Z</time></trkpt><trkpt lat="44.0751671" lon="11.3282628"><ele>913.8571428571429</ele><time>2026-05-02T07:23:47.946Z</time></trkpt><trkpt lat="44.0751242" lon="11.3281949"><ele>914.2857142857142</ele><time>2026-05-02T07:24:23.941Z</time></trkpt><trkpt lat="44.075099" lon="11.3282874"><ele>914.7142857142857</ele><time>2026-05-02T07:25:01.949Z</time></trkpt><trkpt lat="44.075038" lon="11.3283218"><ele>915.1428571428571</ele><time>2026-05-02T07:25:04.958Z</time></trkpt><trkpt lat="44.0749485" lon="11.3282899"><ele>915.5714285714286</ele><time>2026-05-02T07:25:07.947Z</time></trkpt><trkpt lat="44.0748809" lon="11.3282985"><ele>916.0</ele><time>2026-05-02T07:25:09.939Z</time></trkpt><trkpt lat="44.0747991" lon="11.3283391"><ele>917.6666666666666</ele><time>2026-05-02T07:25:11.95Z</time></trkpt><trkpt lat="44.0747321" lon="11.3283546"><ele>919.3333333333333</ele><time>2026-05-02T07:25:13.965Z</time></trkpt><trkpt lat="44.0746606" lon="11.3283804"><ele>921.0</ele><time>2026-05-02T07:25:15.945Z</time></trkpt><trkpt lat="44.0745889" lon="11.3283421"><ele>922.6666666666667</ele><time>2026-05-02T07:25:18.944Z</time></trkpt><trkpt lat="44.0745878" lon="11.3282528"><ele>924.3333333333334</ele><time>2026-05-02T07:25:20.96Z</time></trkpt><trkpt lat="44.074578" lon="11.3281136"><ele>926.0</ele><time>2026-05-02T07:25:22.945Z</time></trkpt><trkpt lat="44.0745413" lon="11.3279924"><ele>926.0000000000001</ele><time>2026-05-02T07:25:24.948Z</time></trkpt><trkpt lat="44.0744624" lon="11.327962"><ele>926.0</ele><time>2026-05-02T07:25:26.945Z</time></trkpt><trkpt lat="44.0743771" lon="11.3279426"><ele>926.0</ele><time>2026-05-02T07:25:28.955Z</time></trkpt><trkpt lat="44.0742958" lon="11.3279347"><ele>926.0</ele><time>2026-05-02T07:25:30.947Z</time></trkpt><trkpt lat="44.0742154" lon="11.3279452"><ele>926.0000000000001</ele><time>2026-05-02T07:25:33.961Z</time></trkpt><trkpt lat="44.0741483" lon="11.3279603"><ele>926.0</ele><time>2026-05-02T07:25:35.964Z</time></trkpt><trkpt lat="44.0740536" lon="11.3280012"><ele>930.0</ele><time>2026-05-02T07:25:37.958Z</time></trkpt><trkpt lat="44.0739736" lon="11.3280846"><ele>933.9999999999999</ele><time>2026-05-02T07:25:40.012Z</time></trkpt><trkpt lat="44.0738847" lon="11.3281994"><ele>937.9999999999999</ele><time>2026-05-02T07:25:41.955Z</time></trkpt><trkpt lat="44.0738083" lon="11.3283205"><ele>942.0</ele><time>2026-05-02T07:25:43.96Z</time></trkpt><trkpt lat="44.0737462" lon="11.3284423"><ele>946.0</ele><time>2026-05-02T07:25:45.965Z</time></trkpt><trkpt lat="44.0736902" lon="11.3285438"><ele>945.9999999999999</ele><time>2026-05-02T07:25:48.016Z</time></trkpt><trkpt lat="44.0736213" lon="11.3286298"><ele>946.0</ele><time>2026-05-02T07:25:49.962Z</time></trkpt><trkpt lat="44.0735465" lon="11.3286767"><ele>946.0</ele><time>2026-05-02T07:25:52.02Z</time></trkpt><trkpt lat="44.0734798" lon="11.3286804"><ele>946.0</ele><time>2026-05-02T07:25:53.958Z</time></trkpt><trkpt lat="44.0734107" lon="11.3286663"><ele>945.9999999999999</ele><time>2026-05-02T07:25:55.956Z</time></trkpt><trkpt lat="44.0733222" lon="11.3286314"><ele>946.0</ele><time>2026-05-02T07:25:58.963Z</time></trkpt><trkpt lat="44.0732546" lon="11.3285943"><ele>947.6666666666666</ele><time>2026-05-02T07:26:00.946Z</time></trkpt><trkpt lat="44.07319" lon="11.3285801"><ele>949.3333333333333</ele><time>2026-05-02T07:26:02.956Z</time></trkpt><trkpt lat="44.0731079" lon="11.328596"><ele>951.0</ele><time>2026-05-02T07:26:04.944Z</time></trkpt><trkpt lat="44.0730253" lon="11.3286431"><ele>952.6666666666667</ele><time>2026-05-02T07:26:06.962Z</time></trkpt><trkpt lat="44.0729512" lon="11.3286865"><ele>954.3333333333334</ele><time>2026-05-02T07:26:08.966Z</time></trkpt><trkpt lat="44.0728839" lon="11.3287409"><ele>956.0</ele><time>2026-05-02T07:26:10.964Z</time></trkpt><trkpt lat="44.0728047" lon="11.3288107"><ele>956.0000000000001</ele><time>2026-05-02T07:26:12.975Z</time></trkpt><trkpt lat="44.0727191" lon="11.3288853"><ele>956.0</ele><time>2026-05-02T07:26:14.978Z</time></trkpt><trkpt lat="44.0726588" lon="11.3289804"><ele>956.0</ele><time>2026-05-02T07:26:16.951Z</time></trkpt><trkpt lat="44.0726124" lon="11.3290757"><ele>956.0</ele><time>2026-05-02T07:26:18.96Z</time></trkpt><trkpt lat="44.0725815" lon="11.3291802"><ele>956.0000000000001</ele><time>2026-05-02T07:26:20.96Z</time></trkpt><trkpt lat="44.0725466" lon="11.3293005"><ele>956.0</ele><time>2026-05-02T07:26:22.962Z</time></trkpt><trkpt lat="44.0725113" lon="11.3294098"><ele>956.5714285714287</ele><time>2026-05-02T07:26:24.953Z</time></trkpt><trkpt lat="44.0724757" lon="11.3294918"><ele>957.1428571428571</ele><time>2026-05-02T07:26:26.959Z</time></trkpt><trkpt lat="44.0724312" lon="11.3295598"><ele>957.7142857142858</ele><time>2026-05-02T07:26:28.955Z</time></trkpt><trkpt lat="44.0723784" lon="11.329621"><ele>958.2857142857143</ele><time>2026-05-02T07:26:30.964Z</time></trkpt><trkpt lat="44.0723364" lon="11.329691"><ele>958.8571428571429</ele><time>2026-05-02T07:26:33.038Z</time></trkpt><trkpt lat="44.0722766" lon="11.3297779"><ele>959.4285714285714</ele><time>2026-05-02T07:26:34.941Z</time></trkpt><trkpt lat="44.0722219" lon="11.3298784"><ele>960.0</ele><time>2026-05-02T07:26:36.958Z</time></trkpt><trkpt lat="44.072168" lon="11.3299846"><ele>963.0</ele><time>2026-05-02T07:26:38.962Z</time></trkpt><trkpt lat="44.0721198" lon="11.3300893"><ele>966.0</ele><time>2026-05-02T07:26:40.959Z</time></trkpt><trkpt lat="44.072073" lon="11.3301965"><ele>969.0</ele><time>2026-05-02T07:26:43.034Z</time></trkpt><trkpt lat="44.072017" lon="11.3303089"><ele>972.0</ele><time>2026-05-02T07:26:44.978Z</time></trkpt><trkpt lat="44.0719775" lon="11.3303778"><ele>975.0</ele><time>2026-05-02T07:26:46.958Z</time></trkpt><trkpt lat="44.0718999" lon="11.3304249"><ele>978.0</ele><time>2026-05-02T07:26:50.961Z</time></trkpt><trkpt lat="44.0718318" lon="11.3304682"><ele>978.0</ele><time>2026-05-02T07:27:04.964Z</time></trkpt><trkpt lat="44.071766" lon="11.330495"><ele>978.0000000000001</ele><time>2026-05-02T07:27:07.961Z</time></trkpt><trkpt lat="44.0716952" lon="11.3305528"><ele>978.0</ele><time>2026-05-02T07:27:11.949Z</time></trkpt><trkpt lat="44.071627" lon="11.3306002"><ele>978.0</ele><time>2026-05-02T07:27:15.954Z</time></trkpt><trkpt lat="44.0715726" lon="11.3306508"><ele>978.0000000000001</ele><time>2026-05-02T07:27:19.964Z</time></trkpt><trkpt lat="44.0715037" lon="11.3306852"><ele>978.0</ele><time>2026-05-02T07:27:23.965Z</time></trkpt><trkpt lat="44.0714376" lon="11.3307003"><ele>978.0</ele><time>2026-05-02T07:27:26.963Z</time></trkpt><trkpt lat="44.0713618" lon="11.3307416"><ele>982.6666666666666</ele><time>2026-05-02T07:27:30.952Z</time></trkpt><trkpt lat="44.0712918" lon="11.3307708"><ele>987.3333333333333</ele><time>2026-05-02T07:27:34.963Z</time></trkpt><trkpt lat="44.0712099" lon="11.3307697"><ele>992.0</ele><time>2026-05-02T07:27:38.975Z</time></trkpt><trkpt lat="44.0711379" lon="11.330802"><ele>996.6666666666666</ele><time>2026-05-02T07:27:41.958Z</time></trkpt><trkpt lat="44.0710574" lon="11.3308265"><ele>1001.3333333333333</ele><time>2026-05-02T07:27:44.966Z</time></trkpt><trkpt lat="44.0709917" lon="11.3308725"><ele>1006.0</ele><time>2026-05-02T07:27:47.966Z</time></trkpt><trkpt lat="44.0709235" lon="11.3309359"><ele>1005.9999999999999</ele><time>2026-05-02T07:27:50.956Z</time></trkpt><trkpt lat="44.0708565" lon="11.3310041"><ele>1006.0</ele><time>2026-05-02T07:27:53.947Z</time></trkpt><trkpt lat="44.0708058" lon="11.331097"><ele>1006.0</ele><time>2026-05-02T07:27:56.962Z</time></trkpt><trkpt lat="44.070789" lon="11.3311849"><ele>1006.0</ele><time>2026-05-02T07:27:58.965Z</time></trkpt><trkpt lat="44.0707846" lon="11.3312973"><ele>1005.9999999999999</ele><time>2026-05-02T07:28:00.967Z</time></trkpt><trkpt lat="44.0707629" lon="11.3314042"><ele>1006.0</ele><time>2026-05-02T07:28:02.949Z</time></trkpt><trkpt lat="44.0707373" lon="11.3314972"><ele>1007.4999999999999</ele><time>2026-05-02T07:28:04.968Z</time></trkpt><trkpt lat="44.0707152" lon="11.3315978"><ele>1009.0</ele><time>2026-05-02T07:28:06.962Z</time></trkpt><trkpt lat="44.070702" lon="11.3316944"><ele>1010.5</ele><time>2026-05-02T07:28:08.966Z</time></trkpt><trkpt lat="44.070697" lon="11.3318196"><ele>1012.0</ele><time>2026-05-02T07:28:11.96Z</time></trkpt><trkpt lat="44.0706695" lon="11.3319308"><ele>1013.4999999999999</ele><time>2026-05-02T07:28:15.014Z</time></trkpt><trkpt lat="44.0706588" lon="11.3320585"><ele>1015.0</ele><time>2026-05-02T07:28:17.955Z</time></trkpt><trkpt lat="44.0706505" lon="11.3321562"><ele>1016.7142857142858</ele><time>2026-05-02T07:28:19.968Z</time></trkpt><trkpt lat="44.0706329" lon="11.3322456"><ele>1018.4285714285714</ele><time>2026-05-02T07:28:21.943Z</time></trkpt><trkpt lat="44.0706186" lon="11.332342"><ele>1020.1428571428571</ele><time>2026-05-02T07:28:24.031Z</time></trkpt><trkpt lat="44.0705848" lon="11.3324452"><ele>1021.8571428571429</ele><time>2026-05-02T07:28:25.97Z</time></trkpt><trkpt lat="44.0705471" lon="11.3325264"><ele>1023.5714285714287</ele><time>2026-05-02T07:28:27.973Z</time></trkpt><trkpt lat="44.0705114" lon="11.3326164"><ele>1025.2857142857142</ele><time>2026-05-02T07:28:29.971Z</time></trkpt><trkpt lat="44.0704756" lon="11.3327094"><ele>1027.0</ele><time>2026-05-02T07:28:31.965Z</time></trkpt><trkpt lat="44.0704377" lon="11.3327929"><ele>1027.0</ele><time>2026-05-02T07:28:34.041Z</time></trkpt><trkpt lat="44.0703953" lon="11.3328745"><ele>1027.0</ele><time>2026-05-02T07:28:36.01Z</time></trkpt><trkpt lat="44.0703516" lon="11.3329542"><ele>1027.0</ele><time>2026-05-02T07:28:37.976Z</time></trkpt><trkpt lat="44.0703074" lon="11.3330641"><ele>1027.0</ele><time>2026-05-02T07:28:39.974Z</time></trkpt><trkpt lat="44.0702685" lon="11.3331688"><ele>1027.0</ele><time>2026-05-02T07:28:41.968Z</time></trkpt><trkpt lat="44.0702201" lon="11.3332794"><ele>1027.0</ele><time>2026-05-02T07:28:43.986Z</time></trkpt><trkpt lat="44.0701791" lon="11.3333956"><ele>1028.0</ele><time>2026-05-02T07:28:45.975Z</time></trkpt><trkpt lat="44.0701414" lon="11.3335006"><ele>1029.0</ele><time>2026-05-02T07:28:47.981Z</time></trkpt><trkpt lat="44.0700932" lon="11.333601"><ele>1030.0</ele><time>2026-05-02T07:28:49.982Z</time></trkpt><trkpt lat="44.0700499" lon="11.3336914"><ele>1031.0</ele><time>2026-05-02T07:28:51.977Z</time></trkpt><trkpt lat="44.0699946" lon="11.3338032"><ele>1032.0</ele><time>2026-05-02T07:28:53.985Z</time></trkpt><trkpt lat="44.0699523" lon="11.3339143"><ele>1033.0</ele><time>2026-05-02T07:28:55.976Z</time></trkpt><trkpt lat="44.0699316" lon="11.3340374"><ele>1033.0</ele><time>2026-05-02T07:28:57.97Z</time></trkpt><trkpt lat="44.0699094" lon="11.3341265"><ele>1033.0</ele><time>2026-05-02T07:28:59.984Z</time></trkpt><trkpt lat="44.0698755" lon="11.3342276"><ele>1033.0</ele><time>2026-05-02T07:29:02.976Z</time></trkpt><trkpt lat="44.0698389" lon="11.3343038"><ele>1033.0</ele><time>2026-05-02T07:29:04.98Z</time></trkpt><trkpt lat="44.069807" lon="11.3343804"><ele>1033.0</ele><time>2026-05-02T07:29:06.973Z</time></trkpt><trkpt lat="44.0697753" lon="11.3344741"><ele>1033.0</ele><time>2026-05-02T07:29:08.972Z</time></trkpt><trkpt lat="44.0697268" lon="11.3346037"><ele>1033.0</ele><time>2026-05-02T07:29:10.982Z</time></trkpt><trkpt lat="44.0696782" lon="11.3347176"><ele>1033.0</ele><time>2026-05-02T07:29:12.98Z</time></trkpt><trkpt lat="44.0696281" lon="11.334828"><ele>1033.0</ele><time>2026-05-02T07:29:14.976Z</time></trkpt><trkpt lat="44.0695675" lon="11.3349219"><ele>1033.0</ele><time>2026-05-02T07:29:16.98Z</time></trkpt><trkpt lat="44.0695152" lon="11.3349931"><ele>1033.0</ele><time>2026-05-02T07:29:18.987Z</time></trkpt><trkpt lat="44.069437" lon="11.335078"><ele>1035.1666666666665</ele><time>2026-05-02T07:30:06.857Z</time></trkpt><trkpt lat="44.0693666" lon="11.3351714"><ele>1037.3333333333333</ele><time>2026-05-02T07:30:08.967Z</time></trkpt><trkpt lat="44.0693167" lon="11.3352591"><ele>1039.5</ele><time>2026-05-02T07:30:10.869Z</time></trkpt><trkpt lat="44.0692682" lon="11.3353621"><ele>1041.6666666666667</ele><time>2026-05-02T07:30:12.872Z</time></trkpt><trkpt lat="44.0692511" lon="11.3354869"><ele>1043.8333333333335</ele><time>2026-05-02T07:30:14.872Z</time></trkpt><trkpt lat="44.0692505" lon="11.3356069"><ele>1046.0</ele><time>2026-05-02T07:30:16.863Z</time></trkpt><trkpt lat="44.0692272" lon="11.3357105"><ele>1046.9999999999998</ele><time>2026-05-02T07:30:18.86Z</time></trkpt><trkpt lat="44.0691846" lon="11.3358164"><ele>1048.0</ele><time>2026-05-02T07:30:20.899Z</time></trkpt><trkpt lat="44.0691548" lon="11.3358996"><ele>1049.0</ele><time>2026-05-02T07:30:23.871Z</time></trkpt><trkpt lat="44.0692181" lon="11.335963"><ele>1050.0</ele><time>2026-05-02T07:30:27.882Z</time></trkpt><trkpt lat="44.0692953" lon="11.3359992"><ele>1051.0</ele><time>2026-05-02T07:30:32.873Z</time></trkpt><trkpt lat="44.0693362" lon="11.336068"><ele>1051.9999999999998</ele><time>2026-05-02T07:30:37.87Z</time></trkpt><trkpt lat="44.0693407" lon="11.3361649"><ele>1053.0</ele><time>2026-05-02T07:30:45.874Z</time></trkpt><trkpt lat="44.0693452" lon="11.3362684"><ele>1053.0</ele><time>2026-05-02T07:30:48.033Z</time></trkpt><trkpt lat="44.0693656" lon="11.3363575"><ele>1053.0</ele><time>2026-05-02T07:30:49.978Z</time></trkpt><trkpt lat="44.0694149" lon="11.336425"><ele>1053.0</ele><time>2026-05-02T07:30:51.968Z</time></trkpt><trkpt lat="44.0694804" lon="11.3364813"><ele>1053.0</ele><time>2026-05-02T07:30:54.959Z</time></trkpt><trkpt lat="44.0695561" lon="11.336536"><ele>1053.0</ele><time>2026-05-02T07:30:57.967Z</time></trkpt><trkpt lat="44.0696374" lon="11.3365784"><ele>1053.0</ele><time>2026-05-02T07:31:00.966Z</time></trkpt><trkpt lat="44.0697135" lon="11.3366543"><ele>1051.1666666666667</ele><time>2026-05-02T07:31:03.969Z</time></trkpt><trkpt lat="44.0697692" lon="11.3367019"><ele>1049.3333333333333</ele><time>2026-05-02T07:31:05.975Z</time></trkpt><trkpt lat="44.0698388" lon="11.3367665"><ele>1047.5</ele><time>2026-05-02T07:31:08.973Z</time></trkpt><trkpt lat="44.0698861" lon="11.3368692"><ele>1045.6666666666665</ele><time>2026-05-02T07:31:11.97Z</time></trkpt><trkpt lat="44.0699146" lon="11.3369589"><ele>1043.8333333333333</ele><time>2026-05-02T07:31:14.968Z</time></trkpt><trkpt lat="44.0699636" lon="11.337052"><ele>1042.0</ele><time>2026-05-02T07:31:22.971Z</time></trkpt><trkpt lat="44.0700075" lon="11.3371462"><ele>1040.857142857143</ele><time>2026-05-02T07:31:27.961Z</time></trkpt><trkpt lat="44.0700112" lon="11.3372348"><ele>1039.7142857142858</ele><time>2026-05-02T07:31:32.963Z</time></trkpt><trkpt lat="44.0700415" lon="11.3373176"><ele>1038.5714285714287</ele><time>2026-05-02T07:31:39.971Z</time></trkpt><trkpt lat="44.0700732" lon="11.3374054"><ele>1037.4285714285716</ele><time>2026-05-02T07:31:44.965Z</time></trkpt><trkpt lat="44.0701158" lon="11.3374846"><ele>1036.2857142857144</ele><time>2026-05-02T07:31:49.975Z</time></trkpt><trkpt lat="44.0701416" lon="11.3375672"><ele>1035.142857142857</ele><time>2026-05-02T07:32:00.973Z</time></trkpt><trkpt lat="44.0701964" lon="11.3376587"><ele>1034.0</ele><time>2026-05-02T07:32:20.959Z</time></trkpt><trkpt lat="44.0702427" lon="11.3377223"><ele>1034.0</ele><time>2026-05-02T07:32:35.954Z</time></trkpt><trkpt lat="44.0703002" lon="11.337782"><ele>1034.0</ele><time>2026-05-02T07:32:42.958Z</time></trkpt><trkpt lat="44.0703347" lon="11.3378573"><ele>1034.0</ele><time>2026-05-02T07:32:50.934Z</time></trkpt><trkpt lat="44.0703953" lon="11.3378857"><ele>1034.0</ele><time>2026-05-02T07:32:58.961Z</time></trkpt><trkpt lat="44.070446" lon="11.3379464"><ele>1034.0</ele><time>2026-05-02T07:33:13.96Z</time></trkpt><trkpt lat="44.0704771" lon="11.3380233"><ele>1034.0</ele><time>2026-05-02T07:33:33.963Z</time></trkpt><trkpt lat="44.0705065" lon="11.33811"><ele>1034.0</ele><time>2026-05-02T07:33:43.959Z</time></trkpt><trkpt lat="44.0705393" lon="11.3381881"><ele>1032.4285714285716</ele><time>2026-05-02T07:33:51.973Z</time></trkpt><trkpt lat="44.0705647" lon="11.3382827"><ele>1030.857142857143</ele><time>2026-05-02T07:33:59.959Z</time></trkpt><trkpt lat="44.0705786" lon="11.3383755"><ele>1029.2857142857142</ele><time>2026-05-02T07:34:06.954Z</time></trkpt><trkpt lat="44.0705883" lon="11.3384712"><ele>1027.7142857142858</ele><time>2026-05-02T07:34:15.962Z</time></trkpt><trkpt lat="44.0706048" lon="11.3385656"><ele>1026.142857142857</ele><time>2026-05-02T07:34:25.963Z</time></trkpt><trkpt lat="44.0706164" lon="11.338661"><ele>1024.5714285714287</ele><time>2026-05-02T07:34:31.957Z</time></trkpt><trkpt lat="44.0706378" lon="11.3387473"><ele>1023.0</ele><time>2026-05-02T07:35:24.894Z</time></trkpt><trkpt lat="44.0706363" lon="11.338846"><ele>1021.7142857142858</ele><time>2026-05-02T07:35:31.947Z</time></trkpt><trkpt lat="44.0706247" lon="11.3389425"><ele>1020.4285714285713</ele><time>2026-05-02T07:35:37.942Z</time></trkpt><trkpt lat="44.0705913" lon="11.3390271"><ele>1019.1428571428571</ele><time>2026-05-02T07:35:44.946Z</time></trkpt><trkpt lat="44.0705714" lon="11.3391244"><ele>1017.8571428571429</ele><time>2026-05-02T07:35:52.957Z</time></trkpt><trkpt lat="44.0705178" lon="11.3391815"><ele>1016.5714285714287</ele><time>2026-05-02T07:35:59.939Z</time></trkpt><trkpt lat="44.0704686" lon="11.3392476"><ele>1015.2857142857142</ele><time>2026-05-02T07:36:07.942Z</time></trkpt><trkpt lat="44.0704312" lon="11.3393278"><ele>1014.0</ele><time>2026-05-02T07:36:15.945Z</time></trkpt><trkpt lat="44.0704015" lon="11.339408"><ele>1014.0</ele><time>2026-05-02T07:36:22.915Z</time></trkpt><trkpt lat="44.0703689" lon="11.3394931"><ele>1014.0</ele><time>2026-05-02T07:36:29.875Z</time></trkpt><trkpt lat="44.070338" lon="11.3395876"><ele>1014.0</ele><time>2026-05-02T07:36:37.959Z</time></trkpt><trkpt lat="44.0703234" lon="11.3396799"><ele>1014.0</ele><time>2026-05-02T07:36:44.944Z</time></trkpt><trkpt lat="44.0702832" lon="11.339751"><ele>1014.0</ele><time>2026-05-02T07:36:49.944Z</time></trkpt><trkpt lat="44.0702403" lon="11.3398312"><ele>1014.0</ele><time>2026-05-02T07:36:58.949Z</time></trkpt><trkpt lat="44.0702172" lon="11.3399226"><ele>1014.0</ele><time>2026-05-02T07:37:03.948Z</time></trkpt><trkpt lat="44.0701881" lon="11.3400086"><ele>1012.1428571428571</ele><time>2026-05-02T07:37:11.96Z</time></trkpt><trkpt lat="44.0701797" lon="11.340103"><ele>1010.2857142857143</ele><time>2026-05-02T07:37:20.939Z</time></trkpt><trkpt lat="44.0701733" lon="11.3402052"><ele>1008.4285714285714</ele><time>2026-05-02T07:37:26.949Z</time></trkpt><trkpt lat="44.0701612" lon="11.3403066"><ele>1006.5714285714286</ele><time>2026-05-02T07:37:31.948Z</time></trkpt><trkpt lat="44.070148" lon="11.3403999"><ele>1004.7142857142858</ele><time>2026-05-02T07:37:37.913Z</time></trkpt><trkpt lat="44.0701757" lon="11.3404787"><ele>1002.8571428571429</ele><time>2026-05-02T07:37:43.952Z</time></trkpt><trkpt lat="44.0701897" lon="11.3405763"><ele>1001.0</ele><time>2026-05-02T07:37:49.949Z</time></trkpt><trkpt lat="44.0702248" lon="11.340657"><ele>1001.0</ele><time>2026-05-02T07:38:04.944Z</time></trkpt><trkpt lat="44.0702114" lon="11.3405497"><ele>1001.0</ele><time>2026-05-02T07:38:26.942Z</time></trkpt><trkpt lat="44.0702098" lon="11.3404482"><ele>1001.0</ele><time>2026-05-02T07:38:36.945Z</time></trkpt><trkpt lat="44.0702073" lon="11.34036"><ele>1001.0</ele><time>2026-05-02T07:38:51.947Z</time></trkpt><trkpt lat="44.0702389" lon="11.340275"><ele>1001.0</ele><time>2026-05-02T07:39:02.915Z</time></trkpt><trkpt lat="44.0702769" lon="11.3402014"><ele>1001.0</ele><time>2026-05-02T07:39:09.944Z</time></trkpt><trkpt lat="44.0703108" lon="11.3401249"><ele>1001.0</ele><time>2026-05-02T07:39:21.948Z</time></trkpt><trkpt lat="44.0703519" lon="11.3400515"><ele>1001.0</ele><time>2026-05-02T07:39:31.912Z</time></trkpt><trkpt lat="44.0703848" lon="11.3399743"><ele>1001.0</ele><time>2026-05-02T07:39:37.895Z</time></trkpt><trkpt lat="44.070404" lon="11.3398868"><ele>1001.0</ele><time>2026-05-02T07:39:43.951Z</time></trkpt><trkpt lat="44.0704189" lon="11.3397968"><ele>1001.0</ele><time>2026-05-02T07:39:51.957Z</time></trkpt><trkpt lat="44.0704267" lon="11.3397063"><ele>1001.0</ele><time>2026-05-02T07:39:59.959Z</time></trkpt><trkpt lat="44.0704569" lon="11.3396277"><ele>1001.0</ele><time>2026-05-02T07:40:06.965Z</time></trkpt><trkpt lat="44.0704729" lon="11.3395374"><ele>1001.0</ele><time>2026-05-02T07:40:12.95Z</time></trkpt><trkpt lat="44.0704942" lon="11.3394356"><ele>1002.8571428571429</ele><time>2026-05-02T07:40:19.959Z</time></trkpt><trkpt lat="44.0705191" lon="11.3393452"><ele>1004.7142857142858</ele><time>2026-05-02T07:40:26.954Z</time></trkpt><trkpt lat="44.0705327" lon="11.3392522"><ele>1006.5714285714286</ele><time>2026-05-02T07:40:34.961Z</time></trkpt><trkpt lat="44.0705411" lon="11.3391566"><ele>1008.4285714285714</ele><time>2026-05-02T07:40:42.878Z</time></trkpt><trkpt lat="44.0705554" lon="11.3390707"><ele>1010.2857142857143</ele><time>2026-05-02T07:40:51.954Z</time></trkpt><trkpt lat="44.0705871" lon="11.3389929"><ele>1012.1428571428571</ele><time>2026-05-02T07:41:02.958Z</time></trkpt><trkpt lat="44.0705929" lon="11.3388991"><ele>1014.0</ele><time>2026-05-02T07:41:14.863Z</time></trkpt><trkpt lat="44.0706181" lon="11.3388133"><ele>1015.2857142857142</ele><time>2026-05-02T07:41:20.956Z</time></trkpt><trkpt lat="44.0706262" lon="11.3387205"><ele>1016.5714285714287</ele><time>2026-05-02T07:41:29.969Z</time></trkpt><trkpt lat="44.0706292" lon="11.3386295"><ele>1017.8571428571429</ele><time>2026-05-02T07:41:40.964Z</time></trkpt><trkpt lat="44.0706275" lon="11.3385371"><ele>1019.1428571428571</ele><time>2026-05-02T07:41:47.95Z</time></trkpt><trkpt lat="44.0706195" lon="11.3384458"><ele>1020.4285714285713</ele><time>2026-05-02T07:41:54.954Z</time></trkpt><trkpt lat="44.0705974" lon="11.3383561"><ele>1021.7142857142858</ele><time>2026-05-02T07:42:01.924Z</time></trkpt><trkpt lat="44.0705689" lon="11.3382733"><ele>1023.0</ele><time>2026-05-02T07:42:12.926Z</time></trkpt><trkpt lat="44.0705392" lon="11.3381125"><ele>1024.5714285714287</ele><time>2026-05-02T07:42:28.955Z</time></trkpt><trkpt lat="44.0705073" lon="11.3380308"><ele>1026.142857142857</ele><time>2026-05-02T07:42:35.952Z</time></trkpt><trkpt lat="44.0704596" lon="11.3379693"><ele>1027.7142857142858</ele><time>2026-05-02T07:42:44.961Z</time></trkpt><trkpt lat="44.0704128" lon="11.3378965"><ele>1029.2857142857142</ele><time>2026-05-02T07:43:01.961Z</time></trkpt><trkpt lat="44.0703247" lon="11.3378021"><ele>1030.857142857143</ele><time>2026-05-02T07:43:21.959Z</time></trkpt><trkpt lat="44.0702673" lon="11.3377475"><ele>1032.4285714285716</ele><time>2026-05-02T07:43:30.958Z</time></trkpt><trkpt lat="44.0702169" lon="11.3376902"><ele>1034.0</ele><time>2026-05-02T07:43:58.947Z</time></trkpt><trkpt lat="44.0701819" lon="11.33759"><ele>1034.0</ele><time>2026-05-02T07:44:42.948Z</time></trkpt><trkpt lat="44.0701334" lon="11.337525"><ele>1034.0</ele><time>2026-05-02T07:45:10.943Z</time></trkpt><trkpt lat="44.0700895" lon="11.3374606"><ele>1034.0</ele><time>2026-05-02T07:45:13.955Z</time></trkpt><trkpt lat="44.0700462" lon="11.3373924"><ele>1034.0</ele><time>2026-05-02T07:45:16.955Z</time></trkpt><trkpt lat="44.0699987" lon="11.3372977"><ele>1034.0</ele><time>2026-05-02T07:45:20.945Z</time></trkpt><trkpt lat="44.0699518" lon="11.3372224"><ele>1034.0</ele><time>2026-05-02T07:45:23.939Z</time></trkpt><trkpt lat="44.0698738" lon="11.3371456"><ele>1034.0</ele><time>2026-05-02T07:45:26.938Z</time></trkpt><trkpt lat="44.0698172" lon="11.3370899"><ele>1034.2857142857142</ele><time>2026-05-02T07:45:28.951Z</time></trkpt><trkpt lat="44.0697619" lon="11.3370423"><ele>1034.5714285714287</ele><time>2026-05-02T07:45:30.941Z</time></trkpt><trkpt lat="44.069676" lon="11.336998"><ele>1034.857142857143</ele><time>2026-05-02T07:45:33.943Z</time></trkpt><trkpt lat="44.0696285" lon="11.3369128"><ele>1035.142857142857</ele><time>2026-05-02T07:45:36.949Z</time></trkpt><trkpt lat="44.0696194" lon="11.3368254"><ele>1035.4285714285716</ele><time>2026-05-02T07:45:39.944Z</time></trkpt><trkpt lat="44.069587" lon="11.3367347"><ele>1035.7142857142858</ele><time>2026-05-02T07:45:43.941Z</time></trkpt><trkpt lat="44.0695657" lon="11.3366298"><ele>1036.0</ele><time>2026-05-02T07:45:48.946Z</time></trkpt><trkpt lat="44.0695211" lon="11.3365551"><ele>1036.0</ele><time>2026-05-02T07:45:51.953Z</time></trkpt><trkpt lat="44.0694713" lon="11.3364948"><ele>1036.0</ele><time>2026-05-02T07:45:54.962Z</time></trkpt><trkpt lat="44.0694151" lon="11.3364483"><ele>1036.0</ele><time>2026-05-02T07:45:57.958Z</time></trkpt><trkpt lat="44.0693728" lon="11.3363802"><ele>1036.0</ele><time>2026-05-02T07:46:03.94Z</time></trkpt><trkpt lat="44.0693974" lon="11.3362831"><ele>1036.0</ele><time>2026-05-02T07:46:07.959Z</time></trkpt><trkpt lat="44.0693775" lon="11.3361698"><ele>1036.0</ele><time>2026-05-02T07:46:11.963Z</time></trkpt><trkpt lat="44.0693573" lon="11.3360715"><ele>1036.0</ele><time>2026-05-02T07:46:14.961Z</time></trkpt><trkpt lat="44.0693715" lon="11.335981"><ele>1037.6666666666665</ele><time>2026-05-02T07:46:16.951Z</time></trkpt><trkpt lat="44.0694012" lon="11.3358917"><ele>1039.3333333333333</ele><time>2026-05-02T07:46:18.96Z</time></trkpt><trkpt lat="44.0694354" lon="11.3358021"><ele>1041.0</ele><time>2026-05-02T07:46:20.959Z</time></trkpt><trkpt lat="44.0694761" lon="11.3356698"><ele>1042.6666666666667</ele><time>2026-05-02T07:46:22.948Z</time></trkpt><trkpt lat="44.0695095" lon="11.3355149"><ele>1044.3333333333335</ele><time>2026-05-02T07:46:24.943Z</time></trkpt><trkpt lat="44.0695389" lon="11.3354291"><ele>1046.0</ele><time>2026-05-02T07:46:25.957Z</time></trkpt><trkpt lat="44.0695745" lon="11.3353357"><ele>1046.0</ele><time>2026-05-02T07:46:26.954Z</time></trkpt><trkpt lat="44.0696079" lon="11.3352375"><ele>1046.0</ele><time>2026-05-02T07:46:27.961Z</time></trkpt><trkpt lat="44.0696364" lon="11.3351393"><ele>1046.0</ele><time>2026-05-02T07:46:28.959Z</time></trkpt><trkpt lat="44.0696666" lon="11.3350318"><ele>1046.0</ele><time>2026-05-02T07:46:29.944Z</time></trkpt><trkpt lat="44.0696895" lon="11.3349145"><ele>1046.0</ele><time>2026-05-02T07:46:30.943Z</time></trkpt><trkpt lat="44.0697207" lon="11.33483"><ele>1046.0</ele><time>2026-05-02T07:46:31.94Z</time></trkpt><trkpt lat="44.0697742" lon="11.3346535"><ele>1045.8333333333335</ele><time>2026-05-02T07:46:33.96Z</time></trkpt><trkpt lat="44.0697947" lon="11.3345435"><ele>1045.6666666666667</ele><time>2026-05-02T07:46:34.942Z</time></trkpt><trkpt lat="44.0698204" lon="11.3344501"><ele>1045.5</ele><time>2026-05-02T07:46:35.944Z</time></trkpt><trkpt lat="44.0698702" lon="11.3343171"><ele>1045.3333333333333</ele><time>2026-05-02T07:46:37.945Z</time></trkpt><trkpt lat="44.0699104" lon="11.3341923"><ele>1045.1666666666665</ele><time>2026-05-02T07:46:39.944Z</time></trkpt><trkpt lat="44.069928" lon="11.3340728"><ele>1045.0</ele><time>2026-05-02T07:46:41.957Z</time></trkpt><trkpt lat="44.0699496" lon="11.3339596"><ele>1044.1666666666665</ele><time>2026-05-02T07:46:43.964Z</time></trkpt><trkpt lat="44.0699763" lon="11.3338521"><ele>1043.3333333333333</ele><time>2026-05-02T07:46:45.955Z</time></trkpt><trkpt lat="44.0700261" lon="11.3337771"><ele>1042.5</ele><time>2026-05-02T07:46:47.958Z</time></trkpt><trkpt lat="44.0700729" lon="11.3337028"><ele>1041.6666666666667</ele><time>2026-05-02T07:46:49.951Z</time></trkpt><trkpt lat="44.0701311" lon="11.333604"><ele>1040.8333333333335</ele><time>2026-05-02T07:46:51.96Z</time></trkpt><trkpt lat="44.0701844" lon="11.3334978"><ele>1040.0</ele><time>2026-05-02T07:46:53.947Z</time></trkpt><trkpt lat="44.0702151" lon="11.3333793"><ele>1040.0</ele><time>2026-05-02T07:46:55.948Z</time></trkpt><trkpt lat="44.0702343" lon="11.3332484"><ele>1040.0</ele><time>2026-05-02T07:46:57.957Z</time></trkpt><trkpt lat="44.0702565" lon="11.3331433"><ele>1040.0</ele><time>2026-05-02T07:46:59.935Z</time></trkpt><trkpt lat="44.0702918" lon="11.333031"><ele>1040.0</ele><time>2026-05-02T07:47:01.941Z</time></trkpt><trkpt lat="44.0703512" lon="11.3329266"><ele>1040.0</ele><time>2026-05-02T07:47:03.962Z</time></trkpt><trkpt lat="44.0703912" lon="11.332844"><ele>1040.0</ele><time>2026-05-02T07:47:05.942Z</time></trkpt><trkpt lat="44.0704269" lon="11.3327698"><ele>1038.1428571428573</ele><time>2026-05-02T07:47:07.942Z</time></trkpt><trkpt lat="44.070465" lon="11.3326917"><ele>1036.2857142857142</ele><time>2026-05-02T07:47:09.941Z</time></trkpt><trkpt lat="44.0705085" lon="11.3325926"><ele>1034.4285714285716</ele><time>2026-05-02T07:47:11.951Z</time></trkpt><trkpt lat="44.070545" lon="11.3325049"><ele>1032.5714285714287</ele><time>2026-05-02T07:47:13.956Z</time></trkpt><trkpt lat="44.0705797" lon="11.3324074"><ele>1030.7142857142858</ele><time>2026-05-02T07:47:15.949Z</time></trkpt><trkpt lat="44.0705963" lon="11.33231"><ele>1028.857142857143</ele><time>2026-05-02T07:47:17.956Z</time></trkpt><trkpt lat="44.070602" lon="11.332221"><ele>1027.0</ele><time>2026-05-02T07:47:20.954Z</time></trkpt><trkpt lat="44.0706011" lon="11.3321287"><ele>1025.2857142857142</ele><time>2026-05-02T07:47:23.96Z</time></trkpt><trkpt lat="44.0706062" lon="11.3320295"><ele>1023.5714285714287</ele><time>2026-05-02T07:47:26.966Z</time></trkpt><trkpt lat="44.0706372" lon="11.3319357"><ele>1021.8571428571429</ele><time>2026-05-02T07:47:30.96Z</time></trkpt><trkpt lat="44.0706543" lon="11.3318282"><ele>1020.1428571428571</ele><time>2026-05-02T07:47:34.959Z</time></trkpt><trkpt lat="44.0706594" lon="11.3317403"><ele>1018.4285714285714</ele><time>2026-05-02T07:47:38.956Z</time></trkpt><trkpt lat="44.0706838" lon="11.3316527"><ele>1016.7142857142858</ele><time>2026-05-02T07:47:42.955Z</time></trkpt><trkpt lat="44.0707199" lon="11.3315547"><ele>1015.0</ele><time>2026-05-02T07:47:46.952Z</time></trkpt><trkpt lat="44.0707586" lon="11.3314722"><ele>1013.7142857142858</ele><time>2026-05-02T07:47:50.948Z</time></trkpt><trkpt lat="44.0707892" lon="11.3313677"><ele>1012.4285714285714</ele><time>2026-05-02T07:47:55.959Z</time></trkpt><trkpt lat="44.0708088" lon="11.3312633"><ele>1011.1428571428571</ele><time>2026-05-02T07:47:59.967Z</time></trkpt><trkpt lat="44.0708087" lon="11.3311728"><ele>1009.8571428571429</ele><time>2026-05-02T07:48:03.959Z</time></trkpt><trkpt lat="44.0708462" lon="11.3310701"><ele>1008.5714285714287</ele><time>2026-05-02T07:48:09.963Z</time></trkpt><trkpt lat="44.0708768" lon="11.3309823"><ele>1007.2857142857143</ele><time>2026-05-02T07:48:12.96Z</time></trkpt><trkpt lat="44.0709349" lon="11.330924"><ele>1006.0</ele><time>2026-05-02T07:48:16.962Z</time></trkpt><trkpt lat="44.0710054" lon="11.3308709"><ele>1005.9999999999999</ele><time>2026-05-02T07:48:20.956Z</time></trkpt><trkpt lat="44.0710758" lon="11.3308157"><ele>1006.0</ele><time>2026-05-02T07:48:24.955Z</time></trkpt><trkpt lat="44.0711552" lon="11.3308384"><ele>1006.0</ele><time>2026-05-02T07:48:29.964Z</time></trkpt><trkpt lat="44.0712178" lon="11.3308546"><ele>1006.0</ele><time>2026-05-02T07:48:33.96Z</time></trkpt><trkpt lat="44.0713043" lon="11.3308121"><ele>1005.9999999999999</ele><time>2026-05-02T07:48:39.956Z</time></trkpt><trkpt lat="44.0713786" lon="11.330785"><ele>1006.0</ele><time>2026-05-02T07:48:46.953Z</time></trkpt><trkpt lat="44.0714637" lon="11.3307954"><ele>1006.0</ele><time>2026-05-02T07:49:07.964Z</time></trkpt><trkpt lat="44.0715097" lon="11.3308642"><ele>1006.0000000000001</ele><time>2026-05-02T07:49:13.956Z</time></trkpt><trkpt lat="44.0715709" lon="11.3308951"><ele>1006.0</ele><time>2026-05-02T07:49:19.961Z</time></trkpt><trkpt lat="44.0716321" lon="11.3308511"><ele>1006.0</ele><time>2026-05-02T07:49:25.959Z</time></trkpt><trkpt lat="44.0716748" lon="11.3307837"><ele>1006.0000000000001</ele><time>2026-05-02T07:49:28.956Z</time></trkpt><trkpt lat="44.0717234" lon="11.3307138"><ele>1006.0</ele><time>2026-05-02T07:49:32.962Z</time></trkpt><trkpt lat="44.0717711" lon="11.3306408"><ele>1006.0</ele><time>2026-05-02T07:49:35.959Z</time></trkpt><trkpt lat="44.071824" lon="11.3305412"><ele>1001.3333333333333</ele><time>2026-05-02T07:49:38.958Z</time></trkpt><trkpt lat="44.0718531" lon="11.330462"><ele>996.6666666666666</ele><time>2026-05-02T07:49:40.964Z</time></trkpt><trkpt lat="44.0719012" lon="11.330357"><ele>992.0</ele><time>2026-05-02T07:49:43.963Z</time></trkpt><trkpt lat="44.0719528" lon="11.3302861"><ele>987.3333333333333</ele><time>2026-05-02T07:49:45.959Z</time></trkpt><trkpt lat="44.0720061" lon="11.3302094"><ele>982.6666666666666</ele><time>2026-05-02T07:49:47.946Z</time></trkpt><trkpt lat="44.0720577" lon="11.3301236"><ele>978.0</ele><time>2026-05-02T07:49:49.956Z</time></trkpt><trkpt lat="44.0721017" lon="11.3300497"><ele>978.0</ele><time>2026-05-02T07:49:51.971Z</time></trkpt><trkpt lat="44.0721507" lon="11.3299739"><ele>978.0</ele><time>2026-05-02T07:49:53.97Z</time></trkpt><trkpt lat="44.0721987" lon="11.3299028"><ele>978.0</ele><time>2026-05-02T07:49:55.941Z</time></trkpt><trkpt lat="44.072254" lon="11.3298123"><ele>978.0</ele><time>2026-05-02T07:49:57.97Z</time></trkpt><trkpt lat="44.0723088" lon="11.3297406"><ele>978.0</ele><time>2026-05-02T07:49:59.954Z</time></trkpt><trkpt lat="44.072372" lon="11.3296468"><ele>978.0</ele><time>2026-05-02T07:50:02.971Z</time></trkpt><trkpt lat="44.0724333" lon="11.3295605"><ele>975.0</ele><time>2026-05-02T07:50:05.966Z</time></trkpt><trkpt lat="44.0724789" lon="11.3294749"><ele>972.0</ele><time>2026-05-02T07:50:08.966Z</time></trkpt><trkpt lat="44.0725112" lon="11.3293569"><ele>969.0</ele><time>2026-05-02T07:50:11.951Z</time></trkpt><trkpt lat="44.0725311" lon="11.3292323"><ele>966.0</ele><time>2026-05-02T07:50:14.956Z</time></trkpt><trkpt lat="44.0725565" lon="11.329141"><ele>963.0</ele><time>2026-05-02T07:50:16.964Z</time></trkpt><trkpt lat="44.0725873" lon="11.3290625"><ele>960.0</ele><time>2026-05-02T07:50:18.957Z</time></trkpt><trkpt lat="44.072636" lon="11.3289615"><ele>959.3333333333334</ele><time>2026-05-02T07:50:21.976Z</time></trkpt><trkpt lat="44.072693" lon="11.3288774"><ele>958.6666666666667</ele><time>2026-05-02T07:50:24.957Z</time></trkpt><trkpt lat="44.0727452" lon="11.3288059"><ele>958.0</ele><time>2026-05-02T07:50:28.962Z</time></trkpt><trkpt lat="44.0727845" lon="11.3287265"><ele>957.3333333333334</ele><time>2026-05-02T07:50:31.972Z</time></trkpt><trkpt lat="44.0728485" lon="11.3286373"><ele>956.6666666666667</ele><time>2026-05-02T07:50:35.962Z</time></trkpt><trkpt lat="44.0729212" lon="11.3286664"><ele>956.0</ele><time>2026-05-02T07:50:41.956Z</time></trkpt><trkpt lat="44.0729702" lon="11.3287319"><ele>956.0000000000001</ele><time>2026-05-02T07:50:44.959Z</time></trkpt><trkpt lat="44.0730349" lon="11.3287785"><ele>956.0</ele><time>2026-05-02T07:50:47.951Z</time></trkpt><trkpt lat="44.0730885" lon="11.3288289"><ele>956.0000000000001</ele><time>2026-05-02T07:50:50.952Z</time></trkpt><trkpt lat="44.0730726" lon="11.3287337"><ele>956.0000000000001</ele><time>2026-05-02T07:51:52.954Z</time></trkpt><trkpt lat="44.0730308" lon="11.328635"><ele>956.0</ele><time>2026-05-02T07:51:55.969Z</time></trkpt><trkpt lat="44.0730706" lon="11.3285653"><ele>956.0000000000001</ele><time>2026-05-02T07:52:02.964Z</time></trkpt><trkpt lat="44.0731305" lon="11.3286037"><ele>956.0000000000001</ele><time>2026-05-02T07:52:07.955Z</time></trkpt><trkpt lat="44.0732086" lon="11.3286557"><ele>954.3333333333334</ele><time>2026-05-02T07:52:11.965Z</time></trkpt><trkpt lat="44.0732786" lon="11.3286686"><ele>952.6666666666667</ele><time>2026-05-02T07:52:13.958Z</time></trkpt><trkpt lat="44.0733472" lon="11.3286628"><ele>951.0</ele><time>2026-05-02T07:52:15.976Z</time></trkpt><trkpt lat="44.0734267" lon="11.3285951"><ele>949.3333333333333</ele><time>2026-05-02T07:52:17.967Z</time></trkpt><trkpt lat="44.0734955" lon="11.3285438"><ele>947.6666666666666</ele><time>2026-05-02T07:52:18.958Z</time></trkpt><trkpt lat="44.0735581" lon="11.3284889"><ele>946.0</ele><time>2026-05-02T07:52:19.97Z</time></trkpt><trkpt lat="44.0736282" lon="11.3284467"><ele>945.9999999999999</ele><time>2026-05-02T07:52:20.959Z</time></trkpt><trkpt lat="44.0736874" lon="11.3283961"><ele>946.0</ele><time>2026-05-02T07:52:21.97Z</time></trkpt><trkpt lat="44.0737699" lon="11.3282884"><ele>946.0</ele><time>2026-05-02T07:52:23.956Z</time></trkpt><trkpt lat="44.073836" lon="11.3282008"><ele>946.0</ele><time>2026-05-02T07:52:25.96Z</time></trkpt><trkpt lat="44.0738875" lon="11.3281405"><ele>945.9999999999999</ele><time>2026-05-02T07:52:27.961Z</time></trkpt><trkpt lat="44.07394" lon="11.3280442"><ele>946.0</ele><time>2026-05-02T07:52:30.963Z</time></trkpt><trkpt lat="44.0739901" lon="11.3279888"><ele>944.1999999999999</ele><time>2026-05-02T07:52:32.958Z</time></trkpt><trkpt lat="44.0740926" lon="11.3279571"><ele>942.3999999999999</ele><time>2026-05-02T07:52:35.962Z</time></trkpt><trkpt lat="44.0741716" lon="11.3279428"><ele>940.6</ele><time>2026-05-02T07:52:37.962Z</time></trkpt><trkpt lat="44.0742606" lon="11.3279443"><ele>938.8</ele><time>2026-05-02T07:52:39.959Z</time></trkpt><trkpt lat="44.0743478" lon="11.3279592"><ele>937.0</ele><time>2026-05-02T07:52:41.959Z</time></trkpt><trkpt lat="44.074447" lon="11.3279713"><ele>935.6666666666666</ele><time>2026-05-02T07:52:43.971Z</time></trkpt><trkpt lat="44.0745418" lon="11.3280078"><ele>934.3333333333333</ele><time>2026-05-02T07:52:45.959Z</time></trkpt><trkpt lat="44.0745852" lon="11.3281065"><ele>933.0</ele><time>2026-05-02T07:52:47.961Z</time></trkpt><trkpt lat="44.0745931" lon="11.3282022"><ele>931.6666666666667</ele><time>2026-05-02T07:52:50.033Z</time></trkpt><trkpt lat="44.0745799" lon="11.3282934"><ele>930.3333333333334</ele><time>2026-05-02T07:52:51.964Z</time></trkpt><trkpt lat="44.0746103" lon="11.3283856"><ele>929.0</ele><time>2026-05-02T07:52:54.952Z</time></trkpt><trkpt lat="44.0746767" lon="11.3283911"><ele>929.0000000000001</ele><time>2026-05-02T07:52:57.978Z</time></trkpt><trkpt lat="44.0747439" lon="11.3283541"><ele>929.0</ele><time>2026-05-02T07:53:01.954Z</time></trkpt><trkpt lat="44.0748144" lon="11.3283023"><ele>929.0</ele><time>2026-05-02T07:53:04.954Z</time></trkpt><trkpt lat="44.0749072" lon="11.3283238"><ele>929.0</ele><time>2026-05-02T07:53:09.955Z</time></trkpt><trkpt lat="44.0749678" lon="11.3283562"><ele>929.0000000000001</ele><time>2026-05-02T07:53:11.958Z</time></trkpt><trkpt lat="44.0750218" lon="11.3284157"><ele>929.0</ele><time>2026-05-02T07:53:14.019Z</time></trkpt><trkpt lat="44.075066" lon="11.3285088"><ele>926.8333333333334</ele><time>2026-05-02T07:53:16.953Z</time></trkpt><trkpt lat="44.0750934" lon="11.3285959"><ele>924.6666666666667</ele><time>2026-05-02T07:53:18.952Z</time></trkpt><trkpt lat="44.0751173" lon="11.3286887"><ele>922.5</ele><time>2026-05-02T07:53:20.972Z</time></trkpt><trkpt lat="44.0751316" lon="11.3287953"><ele>920.3333333333333</ele><time>2026-05-02T07:53:22.979Z</time></trkpt><trkpt lat="44.0751357" lon="11.3288851"><ele>918.1666666666666</ele><time>2026-05-02T07:53:24.015Z</time></trkpt><trkpt lat="44.0751434" lon="11.3290378"><ele>916.0</ele><time>2026-05-02T07:53:25.978Z</time></trkpt><trkpt lat="44.0751406" lon="11.3291791"><ele>914.5999999999999</ele><time>2026-05-02T07:53:28.031Z</time></trkpt><trkpt lat="44.0751351" lon="11.329315"><ele>913.1999999999999</ele><time>2026-05-02T07:53:30.032Z</time></trkpt><trkpt lat="44.0751379" lon="11.3294463"><ele>911.8000000000001</ele><time>2026-05-02T07:53:31.962Z</time></trkpt><trkpt lat="44.0751535" lon="11.3295867"><ele>910.4000000000001</ele><time>2026-05-02T07:53:34.042Z</time></trkpt><trkpt lat="44.0751962" lon="11.3297066"><ele>909.0</ele><time>2026-05-02T07:53:35.964Z</time></trkpt><trkpt lat="44.0752553" lon="11.3297902"><ele>909.0</ele><time>2026-05-02T07:53:37.96Z</time></trkpt><trkpt lat="44.0753382" lon="11.3298306"><ele>909.0</ele><time>2026-05-02T07:53:39.961Z</time></trkpt><trkpt lat="44.0754443" lon="11.3298216"><ele>909.0</ele><time>2026-05-02T07:53:41.974Z</time></trkpt><trkpt lat="44.0755052" lon="11.3297897"><ele>909.0</ele><time>2026-05-02T07:53:43.955Z</time></trkpt><trkpt lat="44.0755731" lon="11.3297541"><ele>909.0</ele><time>2026-05-02T07:53:46.957Z</time></trkpt><trkpt lat="44.075628" lon="11.3297111"><ele>909.0</ele><time>2026-05-02T07:53:48.949Z</time></trkpt><trkpt lat="44.0756878" lon="11.3296592"><ele>909.0</ele><time>2026-05-02T07:53:50.963Z</time></trkpt><trkpt lat="44.0757422" lon="11.3295951"><ele>909.0</ele><time>2026-05-02T07:53:52.963Z</time></trkpt><trkpt lat="44.075788" lon="11.329528"><ele>909.0</ele><time>2026-05-02T07:53:54.983Z</time></trkpt><trkpt lat="44.0758317" lon="11.329458"><ele>909.0</ele><time>2026-05-02T07:53:56.963Z</time></trkpt><trkpt lat="44.0758885" lon="11.3294139"><ele>909.0</ele><time>2026-05-02T07:53:59.976Z</time></trkpt><trkpt lat="44.0759544" lon="11.329421"><ele>909.0</ele><time>2026-05-02T07:54:01.944Z</time></trkpt><trkpt lat="44.0760645" lon="11.3294312"><ele>909.0</ele><time>2026-05-02T07:54:03.939Z</time></trkpt><trkpt lat="44.0761274" lon="11.3294422"><ele>908.2</ele><time>2026-05-02T07:54:04.958Z</time></trkpt><trkpt lat="44.0762334" lon="11.3294955"><ele>907.4000000000001</ele><time>2026-05-02T07:54:06.946Z</time></trkpt><trkpt lat="44.0763335" lon="11.3295568"><ele>906.6</ele><time>2026-05-02T07:54:08.96Z</time></trkpt><trkpt lat="44.0764228" lon="11.3296022"><ele>905.8</ele><time>2026-05-02T07:54:10.946Z</time></trkpt><trkpt lat="44.0765247" lon="11.3296479"><ele>905.0</ele><time>2026-05-02T07:54:12.954Z</time></trkpt><trkpt lat="44.076612" lon="11.3296723"><ele>903.3333333333334</ele><time>2026-05-02T07:54:13.954Z</time></trkpt><trkpt lat="44.0766747" lon="11.3296976"><ele>901.6666666666667</ele><time>2026-05-02T07:54:14.96Z</time></trkpt><trkpt lat="44.0767425" lon="11.3297206"><ele>900.0</ele><time>2026-05-02T07:54:15.95Z</time></trkpt><trkpt lat="44.0768094" lon="11.3297449"><ele>898.3333333333333</ele><time>2026-05-02T07:54:16.966Z</time></trkpt><trkpt lat="44.0769249" lon="11.3298069"><ele>896.6666666666666</ele><time>2026-05-02T07:54:18.954Z</time></trkpt><trkpt lat="44.0769846" lon="11.3298349"><ele>895.0</ele><time>2026-05-02T07:54:19.964Z</time></trkpt><trkpt lat="44.077052" lon="11.3298537"><ele>891.4</ele><time>2026-05-02T07:54:20.956Z</time></trkpt><trkpt lat="44.0771654" lon="11.3298774"><ele>887.8</ele><time>2026-05-02T07:54:22.956Z</time></trkpt><trkpt lat="44.0772716" lon="11.3298807"><ele>884.2</ele><time>2026-05-02T07:54:24.957Z</time></trkpt><trkpt lat="44.0773666" lon="11.3298862"><ele>880.6</ele><time>2026-05-02T07:54:26.954Z</time></trkpt><trkpt lat="44.0774618" lon="11.3298887"><ele>877.0</ele><time>2026-05-02T07:54:28.956Z</time></trkpt><trkpt lat="44.0775603" lon="11.3298737"><ele>877.0</ele><time>2026-05-02T07:54:30.958Z</time></trkpt><trkpt lat="44.0776655" lon="11.3298411"><ele>877.0</ele><time>2026-05-02T07:54:32.957Z</time></trkpt><trkpt lat="44.0777554" lon="11.3297951"><ele>877.0</ele><time>2026-05-02T07:54:34.96Z</time></trkpt><trkpt lat="44.0778412" lon="11.3297417"><ele>877.0</ele><time>2026-05-02T07:54:36.949Z</time></trkpt><trkpt lat="44.0779084" lon="11.3296448"><ele>877.0</ele><time>2026-05-02T07:54:39.956Z</time></trkpt><trkpt lat="44.0779592" lon="11.329541"><ele>879.8333333333333</ele><time>2026-05-02T07:54:41.956Z</time></trkpt><trkpt lat="44.0779967" lon="11.3294076"><ele>882.6666666666666</ele><time>2026-05-02T07:54:43.958Z</time></trkpt><trkpt lat="44.0780278" lon="11.3293135"><ele>885.5</ele><time>2026-05-02T07:54:45.962Z</time></trkpt><trkpt lat="44.0780647" lon="11.3292282"><ele>888.3333333333333</ele><time>2026-05-02T07:54:47.959Z</time></trkpt><trkpt lat="44.0781199" lon="11.3291462"><ele>891.1666666666666</ele><time>2026-05-02T07:54:49.963Z</time></trkpt><trkpt lat="44.0781723" lon="11.3290838"><ele>894.0</ele><time>2026-05-02T07:54:51.954Z</time></trkpt><trkpt lat="44.0782598" lon="11.3290372"><ele>894.8000000000001</ele><time>2026-05-02T07:54:54.952Z</time></trkpt><trkpt lat="44.0783469" lon="11.3290413"><ele>895.6000000000001</ele><time>2026-05-02T07:54:56.959Z</time></trkpt><trkpt lat="44.0784411" lon="11.3290191"><ele>896.4</ele><time>2026-05-02T07:54:58.941Z</time></trkpt><trkpt lat="44.078522" lon="11.3289748"><ele>897.2</ele><time>2026-05-02T07:55:00.941Z</time></trkpt><trkpt lat="44.0785975" lon="11.3289053"><ele>898.0</ele><time>2026-05-02T07:55:02.957Z</time></trkpt><trkpt lat="44.078673" lon="11.3288319"><ele>898.0</ele><time>2026-05-02T07:55:04.964Z</time></trkpt><trkpt lat="44.0787419" lon="11.3287502"><ele>898.0</ele><time>2026-05-02T07:55:06.963Z</time></trkpt><trkpt lat="44.0788148" lon="11.3286544"><ele>898.0</ele><time>2026-05-02T07:55:08.957Z</time></trkpt><trkpt lat="44.0788923" lon="11.3285482"><ele>898.0</ele><time>2026-05-02T07:55:10.948Z</time></trkpt><trkpt lat="44.0789633" lon="11.3284819"><ele>898.0</ele><time>2026-05-02T07:55:12.952Z</time></trkpt><trkpt lat="44.079043" lon="11.3284169"><ele>893.1666666666666</ele><time>2026-05-02T07:55:14.953Z</time></trkpt><trkpt lat="44.0791233" lon="11.3283511"><ele>888.3333333333333</ele><time>2026-05-02T07:55:16.957Z</time></trkpt><trkpt lat="44.0791865" lon="11.3282985"><ele>883.5</ele><time>2026-05-02T07:55:18.937Z</time></trkpt><trkpt lat="44.0792543" lon="11.3282531"><ele>878.6666666666667</ele><time>2026-05-02T07:55:20.949Z</time></trkpt><trkpt lat="44.0793252" lon="11.3282161"><ele>873.8333333333334</ele><time>2026-05-02T07:55:22.952Z</time></trkpt><trkpt lat="44.0794274" lon="11.3281872"><ele>869.0</ele><time>2026-05-02T07:55:24.952Z</time></trkpt><trkpt lat="44.0795551" lon="11.328146"><ele>869.0</ele><time>2026-05-02T07:55:26.958Z</time></trkpt><trkpt lat="44.0796323" lon="11.3281078"><ele>869.0000000000001</ele><time>2026-05-02T07:55:27.96Z</time></trkpt><trkpt lat="44.0796952" lon="11.3280722"><ele>869.0000000000001</ele><time>2026-05-02T07:55:28.963Z</time></trkpt><trkpt lat="44.0797934" lon="11.3279869"><ele>869.0</ele><time>2026-05-02T07:55:30.952Z</time></trkpt><trkpt lat="44.0798985" lon="11.3278979"><ele>869.0</ele><time>2026-05-02T07:55:32.957Z</time></trkpt><trkpt lat="44.0799881" lon="11.3278598"><ele>870.0</ele><time>2026-05-02T07:55:34.965Z</time></trkpt><trkpt lat="44.0800824" lon="11.3278701"><ele>871.0000000000001</ele><time>2026-05-02T07:55:36.953Z</time></trkpt><trkpt lat="44.0801724" lon="11.3279199"><ele>872.0000000000001</ele><time>2026-05-02T07:55:38.974Z</time></trkpt><trkpt lat="44.0802674" lon="11.3279792"><ele>873.0</ele><time>2026-05-02T07:55:40.973Z</time></trkpt><trkpt lat="44.0803395" lon="11.3280712"><ele>874.0</ele><time>2026-05-02T07:55:42.962Z</time></trkpt><trkpt lat="44.0804141" lon="11.3281716"><ele>872.0</ele><time>2026-05-02T07:55:44.959Z</time></trkpt><trkpt lat="44.0804976" lon="11.3282493"><ele>870.0000000000001</ele><time>2026-05-02T07:55:46.951Z</time></trkpt><trkpt lat="44.0805957" lon="11.3282876"><ele>868.0000000000001</ele><time>2026-05-02T07:55:48.976Z</time></trkpt><trkpt lat="44.0806851" lon="11.328334"><ele>866.0</ele><time>2026-05-02T07:55:50.957Z</time></trkpt><trkpt lat="44.0807641" lon="11.3283379"><ele>864.0</ele><time>2026-05-02T07:55:52.964Z</time></trkpt><trkpt lat="44.0808355" lon="11.328293"><ele>864.0</ele><time>2026-05-02T07:55:54.978Z</time></trkpt><trkpt lat="44.0808741" lon="11.328209"><ele>864.0</ele><time>2026-05-02T07:55:58.95Z</time></trkpt><trkpt lat="44.0809298" lon="11.3281431"><ele>864.0</ele><time>2026-05-02T07:56:11.97Z</time></trkpt><trkpt lat="44.0809892" lon="11.3280525"><ele>864.0</ele><time>2026-05-02T07:56:14.974Z</time></trkpt><trkpt lat="44.0810582" lon="11.3280046"><ele>864.0</ele><time>2026-05-02T07:56:18.007Z</time></trkpt><trkpt lat="44.0811238" lon="11.3279768"><ele>864.0</ele><time>2026-05-02T07:56:19.962Z</time></trkpt><trkpt lat="44.0812046" lon="11.3279347"><ele>866.8333333333334</ele><time>2026-05-02T07:56:21.96Z</time></trkpt><trkpt lat="44.0812958" lon="11.327881"><ele>869.6666666666667</ele><time>2026-05-02T07:56:23.974Z</time></trkpt><trkpt lat="44.0813627" lon="11.3278087"><ele>872.5</ele><time>2026-05-02T07:56:25.964Z</time></trkpt><trkpt lat="44.0814279" lon="11.3277207"><ele>875.3333333333334</ele><time>2026-05-02T07:56:29.033Z</time></trkpt><trkpt lat="44.0814919" lon="11.3276331"><ele>878.1666666666667</ele><time>2026-05-02T07:56:30.954Z</time></trkpt><trkpt lat="44.0815559" lon="11.3275719"><ele>881.0</ele><time>2026-05-02T07:56:32.949Z</time></trkpt><trkpt lat="44.0816262" lon="11.3275597"><ele>881.5000000000001</ele><time>2026-05-02T07:56:34.955Z</time></trkpt><trkpt lat="44.0816956" lon="11.3275431"><ele>882.0</ele><time>2026-05-02T07:56:36.942Z</time></trkpt><trkpt lat="44.0817836" lon="11.3274982"><ele>882.5</ele><time>2026-05-02T07:56:39.032Z</time></trkpt><trkpt lat="44.0818404" lon="11.3274267"><ele>883.0</ele><time>2026-05-02T07:56:41.959Z</time></trkpt><trkpt lat="44.0819252" lon="11.3273941"><ele>883.5000000000001</ele><time>2026-05-02T07:56:44.968Z</time></trkpt><trkpt lat="44.0819853" lon="11.3273541"><ele>884.0</ele><time>2026-05-02T07:56:46.964Z</time></trkpt><trkpt lat="44.0820914" lon="11.3272815"><ele>887.8000000000001</ele><time>2026-05-02T07:56:49Z</time></trkpt><trkpt lat="44.0821726" lon="11.3272159"><ele>891.6000000000001</ele><time>2026-05-02T07:56:50.967Z</time></trkpt><trkpt lat="44.0822517" lon="11.3271242"><ele>895.4</ele><time>2026-05-02T07:56:52.959Z</time></trkpt><trkpt lat="44.0823304" lon="11.3270419"><ele>899.2</ele><time>2026-05-02T07:56:54.975Z</time></trkpt><trkpt lat="44.0824114" lon="11.3270099"><ele>903.0</ele><time>2026-05-02T07:56:56.962Z</time></trkpt><trkpt lat="44.0824972" lon="11.3270107"><ele>903.0</ele><time>2026-05-02T07:56:58.973Z</time></trkpt><trkpt lat="44.0825924" lon="11.3269553"><ele>903.0</ele><time>2026-05-02T07:57:00.963Z</time></trkpt><trkpt lat="44.0826836" lon="11.3269061"><ele>903.0</ele><time>2026-05-02T07:57:02.956Z</time></trkpt><trkpt lat="44.0827581" lon="11.3268874"><ele>903.0</ele><time>2026-05-02T07:57:05.962Z</time></trkpt><trkpt lat="44.0828211" lon="11.3268746"><ele>903.0</ele><time>2026-05-02T07:57:07.956Z</time></trkpt><trkpt lat="44.0828948" lon="11.3268672"><ele>903.0</ele><time>2026-05-02T07:57:10.961Z</time></trkpt><trkpt lat="44.0829639" lon="11.3268433"><ele>903.0</ele><time>2026-05-02T07:57:14.96Z</time></trkpt><trkpt lat="44.0830218" lon="11.3267774"><ele>903.0</ele><time>2026-05-02T07:57:18.992Z</time></trkpt><trkpt lat="44.0830654" lon="11.3266949"><ele>903.0</ele><time>2026-05-02T07:57:21.972Z</time></trkpt><trkpt lat="44.0831059" lon="11.326612"><ele>903.0</ele><time>2026-05-02T07:57:27.962Z</time></trkpt><trkpt lat="44.0831741" lon="11.3265157"><ele>903.0</ele><time>2026-05-02T07:57:30.958Z</time></trkpt><trkpt lat="44.0832313" lon="11.3264528"><ele>903.0</ele><time>2026-05-02T07:57:32.968Z</time></trkpt><trkpt lat="44.0833046" lon="11.3264173"><ele>899.3333333333334</ele><time>2026-05-02T07:57:35.967Z</time></trkpt><trkpt lat="44.0833838" lon="11.3264388"><ele>895.6666666666667</ele><time>2026-05-02T07:57:37.969Z</time></trkpt><trkpt lat="44.0834558" lon="11.3264711"><ele>892.0</ele><time>2026-05-02T07:57:39.96Z</time></trkpt><trkpt lat="44.0835166" lon="11.3265091"><ele>888.3333333333334</ele><time>2026-05-02T07:57:41.962Z</time></trkpt><trkpt lat="44.0835868" lon="11.3265633"><ele>884.6666666666667</ele><time>2026-05-02T07:57:44.962Z</time></trkpt><trkpt lat="44.0836446" lon="11.326615"><ele>881.0</ele><time>2026-05-02T07:57:47.953Z</time></trkpt><trkpt lat="44.083718" lon="11.326666"><ele>881.0000000000001</ele><time>2026-05-02T07:57:50.949Z</time></trkpt><trkpt lat="44.0837835" lon="11.3267072"><ele>881.0</ele><time>2026-05-02T07:57:53.961Z</time></trkpt><trkpt lat="44.0838532" lon="11.3267656"><ele>881.0</ele><time>2026-05-02T07:57:57.963Z</time></trkpt><trkpt lat="44.083932" lon="11.3267708"><ele>881.0</ele><time>2026-05-02T07:58:01.969Z</time></trkpt><trkpt lat="44.0840071" lon="11.3267491"><ele>881.0000000000001</ele><time>2026-05-02T07:58:05.954Z</time></trkpt><trkpt lat="44.084079" lon="11.3267237"><ele>881.0</ele><time>2026-05-02T07:58:09.943Z</time></trkpt><trkpt lat="44.084155" lon="11.3267185"><ele>876.5000000000001</ele><time>2026-05-02T07:58:12.958Z</time></trkpt><trkpt lat="44.0842237" lon="11.3267344"><ele>872.0</ele><time>2026-05-02T07:58:15.963Z</time></trkpt><trkpt lat="44.0842933" lon="11.3267563"><ele>867.5</ele><time>2026-05-02T07:58:17.96Z</time></trkpt><trkpt lat="44.0843815" lon="11.3268015"><ele>863.0</ele><time>2026-05-02T07:58:19.954Z</time></trkpt><trkpt lat="44.0844527" lon="11.3268674"><ele>858.5000000000001</ele><time>2026-05-02T07:58:21.965Z</time></trkpt><trkpt lat="44.084502" lon="11.3269322"><ele>854.0</ele><time>2026-05-02T07:58:23.982Z</time></trkpt><trkpt lat="44.0845558" lon="11.3269907"><ele>854.0000000000001</ele><time>2026-05-02T07:58:25.955Z</time></trkpt><trkpt lat="44.0846093" lon="11.3270443"><ele>854.0</ele><time>2026-05-02T07:58:27.955Z</time></trkpt><trkpt lat="44.0846792" lon="11.3270778"><ele>854.0</ele><time>2026-05-02T07:58:29.956Z</time></trkpt><trkpt lat="44.0847562" lon="11.3270796"><ele>854.0</ele><time>2026-05-02T07:58:31.962Z</time></trkpt><trkpt lat="44.0848794" lon="11.327085"><ele>854.0000000000001</ele><time>2026-05-02T07:58:34.43Z</time></trkpt><trkpt lat="44.084949" lon="11.3270697"><ele>854.0</ele><time>2026-05-02T07:58:36.428Z</time></trkpt><trkpt lat="44.0850371" lon="11.3270201"><ele>850.5000000000001</ele><time>2026-05-02T07:58:38.425Z</time></trkpt><trkpt lat="44.0851249" lon="11.3269791"><ele>847.0</ele><time>2026-05-02T07:58:40.428Z</time></trkpt><trkpt lat="44.0852011" lon="11.3269682"><ele>843.5</ele><time>2026-05-02T07:58:42.431Z</time></trkpt><trkpt lat="44.0852732" lon="11.3269404"><ele>840.0</ele><time>2026-05-02T07:58:44.508Z</time></trkpt><trkpt lat="44.0853526" lon="11.3269014"><ele>836.5000000000001</ele><time>2026-05-02T07:58:46.437Z</time></trkpt><trkpt lat="44.0854297" lon="11.3268523"><ele>833.0</ele><time>2026-05-02T07:58:48.432Z</time></trkpt><trkpt lat="44.0855061" lon="11.3268015"><ele>833.0000000000001</ele><time>2026-05-02T07:58:50.442Z</time></trkpt><trkpt lat="44.0855624" lon="11.3267622"><ele>833.0</ele><time>2026-05-02T07:58:52.443Z</time></trkpt><trkpt lat="44.0856369" lon="11.3267153"><ele>833.0</ele><time>2026-05-02T07:58:54.502Z</time></trkpt><trkpt lat="44.0857142" lon="11.3266623"><ele>833.0</ele><time>2026-05-02T07:58:56.437Z</time></trkpt><trkpt lat="44.0857846" lon="11.3266181"><ele>833.0000000000001</ele><time>2026-05-02T07:58:58.435Z</time></trkpt><trkpt lat="44.0858519" lon="11.326558"><ele>833.0</ele><time>2026-05-02T07:59:00.443Z</time></trkpt><trkpt lat="44.0859142" lon="11.3264653"><ele>832.4285714285714</ele><time>2026-05-02T07:59:02.442Z</time></trkpt><trkpt lat="44.0859579" lon="11.3263952"><ele>831.8571428571429</ele><time>2026-05-02T07:59:04.435Z</time></trkpt><trkpt lat="44.085998" lon="11.3263237"><ele>831.2857142857142</ele><time>2026-05-02T07:59:06.448Z</time></trkpt><trkpt lat="44.0860587" lon="11.3262246"><ele>830.7142857142858</ele><time>2026-05-02T07:59:09.433Z</time></trkpt><trkpt lat="44.0861091" lon="11.3261529"><ele>830.1428571428571</ele><time>2026-05-02T07:59:11.437Z</time></trkpt><trkpt lat="44.0861601" lon="11.3260809"><ele>829.5714285714286</ele><time>2026-05-02T07:59:13.503Z</time></trkpt><trkpt lat="44.0862055" lon="11.3260149"><ele>829.0</ele><time>2026-05-02T07:59:16.041Z</time></trkpt><trkpt lat="44.0862419" lon="11.3259247"><ele>825.9999999999999</ele><time>2026-05-02T07:59:18.958Z</time></trkpt><trkpt lat="44.0862281" lon="11.3258297"><ele>823.0</ele><time>2026-05-02T07:59:22.954Z</time></trkpt><trkpt lat="44.086271" lon="11.3257358"><ele>820.0</ele><time>2026-05-02T07:59:26.968Z</time></trkpt><trkpt lat="44.0863239" lon="11.3256523"><ele>817.0</ele><time>2026-05-02T07:59:30.952Z</time></trkpt><trkpt lat="44.0863783" lon="11.3255649"><ele>813.9999999999999</ele><time>2026-05-02T07:59:34.016Z</time></trkpt><trkpt lat="44.086446" lon="11.325472"><ele>811.0</ele><time>2026-05-02T07:59:36.956Z</time></trkpt><trkpt lat="44.0864978" lon="11.3254084"><ele>809.9999999999999</ele><time>2026-05-02T07:59:39.953Z</time></trkpt><trkpt lat="44.0865635" lon="11.3253361"><ele>809.0</ele><time>2026-05-02T07:59:42.952Z</time></trkpt><trkpt lat="44.0866232" lon="11.325263"><ele>808.0</ele><time>2026-05-02T07:59:44.963Z</time></trkpt><trkpt lat="44.0866868" lon="11.3251806"><ele>807.0</ele><time>2026-05-02T07:59:46.955Z</time></trkpt><trkpt lat="44.086744" lon="11.3250998"><ele>805.9999999999999</ele><time>2026-05-02T07:59:48.961Z</time></trkpt><trkpt lat="44.0867994" lon="11.3250338"><ele>805.0</ele><time>2026-05-02T07:59:50.972Z</time></trkpt><trkpt lat="44.0868575" lon="11.3249579"><ele>804.9999999999999</ele><time>2026-05-02T07:59:52.956Z</time></trkpt><trkpt lat="44.0869221" lon="11.3248677"><ele>805.0</ele><time>2026-05-02T07:59:54.951Z</time></trkpt><trkpt lat="44.0869724" lon="11.3247926"><ele>805.0</ele><time>2026-05-02T07:59:56.963Z</time></trkpt><trkpt lat="44.0870301" lon="11.3247018"><ele>805.0</ele><time>2026-05-02T07:59:59.033Z</time></trkpt><trkpt lat="44.0870836" lon="11.3246158"><ele>804.9999999999999</ele><time>2026-05-02T08:00:00.974Z</time></trkpt><trkpt lat="44.0871385" lon="11.3245434"><ele>805.0</ele><time>2026-05-02T08:00:02.96Z</time></trkpt><trkpt lat="44.0871945" lon="11.3244714"><ele>804.3333333333333</ele><time>2026-05-02T08:00:05.971Z</time></trkpt><trkpt lat="44.0872411" lon="11.3243984"><ele>803.6666666666666</ele><time>2026-05-02T08:00:23.951Z</time></trkpt><trkpt lat="44.0872607" lon="11.3242793"><ele>803.0</ele><time>2026-05-02T08:01:20.95Z</time></trkpt><trkpt lat="44.0873164" lon="11.324128"><ele>802.3333333333333</ele><time>2026-05-02T08:02:32.973Z</time></trkpt><trkpt lat="44.0873662" lon="11.3240728"><ele>801.6666666666666</ele><time>2026-05-02T08:02:36.961Z</time></trkpt><trkpt lat="44.0874239" lon="11.3239995"><ele>801.0</ele><time>2026-05-02T08:02:39.975Z</time></trkpt><trkpt lat="44.0874828" lon="11.3239447"><ele>797.4285714285714</ele><time>2026-05-02T08:02:42.958Z</time></trkpt><trkpt lat="44.0875488" lon="11.3238873"><ele>793.8571428571429</ele><time>2026-05-02T08:02:45.955Z</time></trkpt><trkpt lat="44.0875963" lon="11.3238275"><ele>790.2857142857142</ele><time>2026-05-02T08:02:48.03Z</time></trkpt><trkpt lat="44.0876538" lon="11.3237336"><ele>786.7142857142858</ele><time>2026-05-02T08:02:50.961Z</time></trkpt><trkpt lat="44.0876986" lon="11.3236675"><ele>783.1428571428572</ele><time>2026-05-02T08:02:52.951Z</time></trkpt><trkpt lat="44.0877568" lon="11.3235947"><ele>779.5714285714286</ele><time>2026-05-02T08:02:55.037Z</time></trkpt><trkpt lat="44.0877986" lon="11.3235188"><ele>776.0</ele><time>2026-05-02T08:02:56.953Z</time></trkpt><trkpt lat="44.0878451" lon="11.3234484"><ele>776.0000000000001</ele><time>2026-05-02T08:02:58.96Z</time></trkpt><trkpt lat="44.0879002" lon="11.3233685"><ele>776.0</ele><time>2026-05-02T08:03:01.963Z</time></trkpt><trkpt lat="44.0879575" lon="11.3232826"><ele>776.0</ele><time>2026-05-02T08:03:04.951Z</time></trkpt><trkpt lat="44.0880161" lon="11.3231935"><ele>776.0</ele><time>2026-05-02T08:03:07.97Z</time></trkpt><trkpt lat="44.0880784" lon="11.3231077"><ele>776.0000000000001</ele><time>2026-05-02T08:03:10.957Z</time></trkpt><trkpt lat="44.0881398" lon="11.3230272"><ele>776.0</ele><time>2026-05-02T08:03:13.955Z</time></trkpt><trkpt lat="44.0881964" lon="11.3229682"><ele>776.0000000000001</ele><time>2026-05-02T08:03:18.055Z</time></trkpt><trkpt lat="44.0882562" lon="11.3229402"><ele>776.0</ele><time>2026-05-02T08:03:31.049Z</time></trkpt><trkpt lat="44.0881672" lon="11.3229575"><ele>776.0</ele><time>2026-05-02T08:03:49.962Z</time></trkpt><trkpt lat="44.0880836" lon="11.3229744"><ele>776.0</ele><time>2026-05-02T08:03:52.965Z</time></trkpt><trkpt lat="44.088009" lon="11.3230371"><ele>776.0000000000001</ele><time>2026-05-02T08:03:56.084Z</time></trkpt><trkpt lat="44.087941" lon="11.3231079"><ele>776.0</ele><time>2026-05-02T08:03:58.958Z</time></trkpt><trkpt lat="44.0878604" lon="11.3231923"><ele>776.0</ele><time>2026-05-02T08:04:01.96Z</time></trkpt><trkpt lat="44.0877619" lon="11.3233265"><ele>776.0</ele><time>2026-05-02T08:04:03.956Z</time></trkpt><trkpt lat="44.0877067" lon="11.3234217"><ele>776.0</ele><time>2026-05-02T08:04:04.955Z</time></trkpt><trkpt lat="44.0876327" lon="11.3235623"><ele>776.0</ele><time>2026-05-02T08:04:07.026Z</time></trkpt><trkpt lat="44.0875629" lon="11.3236718"><ele>776.0000000000001</ele><time>2026-05-02T08:04:09.029Z</time></trkpt><trkpt lat="44.0874901" lon="11.3237348"><ele>776.0</ele><time>2026-05-02T08:04:10.959Z</time></trkpt><trkpt lat="44.0874127" lon="11.3237802"><ele>776.0</ele><time>2026-05-02T08:04:12.951Z</time></trkpt><trkpt lat="44.0873084" lon="11.323824"><ele>776.0</ele><time>2026-05-02T08:04:14.95Z</time></trkpt><trkpt lat="44.0872431" lon="11.3238518"><ele>776.0000000000001</ele><time>2026-05-02T08:04:15.951Z</time></trkpt><trkpt lat="44.0871813" lon="11.3238711"><ele>776.0</ele><time>2026-05-02T08:04:16.986Z</time></trkpt><trkpt lat="44.0871194" lon="11.3238982"><ele>778.5</ele><time>2026-05-02T08:04:17.96Z</time></trkpt><trkpt lat="44.0869901" lon="11.3239264"><ele>781.0</ele><time>2026-05-02T08:04:19.96Z</time></trkpt><trkpt lat="44.0868722" lon="11.3239404"><ele>783.5</ele><time>2026-05-02T08:04:21.956Z</time></trkpt><trkpt lat="44.0867619" lon="11.3239321"><ele>786.0</ele><time>2026-05-02T08:04:23.971Z</time></trkpt><trkpt lat="44.0866637" lon="11.3239167"><ele>782.1999999999999</ele><time>2026-05-02T08:04:25.962Z</time></trkpt><trkpt lat="44.0865592" lon="11.3238891"><ele>778.4</ele><time>2026-05-02T08:04:27.97Z</time></trkpt><trkpt lat="44.0864582" lon="11.3238495"><ele>774.6</ele><time>2026-05-02T08:04:29.971Z</time></trkpt><trkpt lat="44.0863777" lon="11.3237473"><ele>770.8</ele><time>2026-05-02T08:04:31.961Z</time></trkpt><trkpt lat="44.08633" lon="11.3236007"><ele>767.0</ele><time>2026-05-02T08:04:33.963Z</time></trkpt><trkpt lat="44.0862899" lon="11.3234701"><ele>767.0</ele><time>2026-05-02T08:04:35.962Z</time></trkpt><trkpt lat="44.0862632" lon="11.3233515"><ele>767.0</ele><time>2026-05-02T08:04:37.961Z</time></trkpt><trkpt lat="44.0862512" lon="11.3232646"><ele>767.0</ele><time>2026-05-02T08:04:39.957Z</time></trkpt><trkpt lat="44.0862201" lon="11.3231836"><ele>767.0</ele><time>2026-05-02T08:04:42.957Z</time></trkpt><trkpt lat="44.0861485" lon="11.3231445"><ele>767.0</ele><time>2026-05-02T08:04:45.948Z</time></trkpt><trkpt lat="44.086072" lon="11.3231827"><ele>767.0</ele><time>2026-05-02T08:04:48.025Z</time></trkpt><trkpt lat="44.0859893" lon="11.3231929"><ele>767.0</ele><time>2026-05-02T08:04:49.963Z</time></trkpt><trkpt lat="44.0859056" lon="11.3231324"><ele>767.0</ele><time>2026-05-02T08:04:51.956Z</time></trkpt><trkpt lat="44.0858947" lon="11.3229894"><ele>767.0</ele><time>2026-05-02T08:04:54.958Z</time></trkpt><trkpt lat="44.0858938" lon="11.3228882"><ele>767.0</ele><time>2026-05-02T08:04:56.964Z</time></trkpt><trkpt lat="44.0858739" lon="11.3227933"><ele>767.0</ele><time>2026-05-02T08:04:59.045Z</time></trkpt><trkpt lat="44.0858375" lon="11.322692"><ele>767.0</ele><time>2026-05-02T08:05:00.953Z</time></trkpt><trkpt lat="44.0857481" lon="11.3226076"><ele>769.0</ele><time>2026-05-02T08:05:02.966Z</time></trkpt><trkpt lat="44.0856585" lon="11.3225383"><ele>771.0</ele><time>2026-05-02T08:05:04.961Z</time></trkpt><trkpt lat="44.0855717" lon="11.3224452"><ele>773.0</ele><time>2026-05-02T08:05:06.945Z</time></trkpt><trkpt lat="44.0854844" lon="11.3223757"><ele>775.0</ele><time>2026-05-02T08:05:08.951Z</time></trkpt><trkpt lat="44.0854162" lon="11.3223262"><ele>777.0</ele><time>2026-05-02T08:05:10.956Z</time></trkpt><trkpt lat="44.0853619" lon="11.3222541"><ele>776.8333333333334</ele><time>2026-05-02T08:05:12.959Z</time></trkpt><trkpt lat="44.0853452" lon="11.3221239"><ele>776.6666666666667</ele><time>2026-05-02T08:05:14.978Z</time></trkpt><trkpt lat="44.0853466" lon="11.3219928"><ele>776.5</ele><time>2026-05-02T08:05:16.967Z</time></trkpt><trkpt lat="44.0853625" lon="11.3219039"><ele>776.3333333333334</ele><time>2026-05-02T08:05:18.959Z</time></trkpt><trkpt lat="44.0853989" lon="11.3218229"><ele>776.1666666666667</ele><time>2026-05-02T08:05:20.965Z</time></trkpt><trkpt lat="44.0854599" lon="11.321718"><ele>776.0</ele><time>2026-05-02T08:05:23.034Z</time></trkpt><trkpt lat="44.0855419" lon="11.3215843"><ele>776.0</ele><time>2026-05-02T08:05:24.989Z</time></trkpt><trkpt lat="44.0856085" lon="11.3214336"><ele>776.0</ele><time>2026-05-02T08:05:26.965Z</time></trkpt><trkpt lat="44.0856614" lon="11.3212807"><ele>776.0</ele><time>2026-05-02T08:05:28.958Z</time></trkpt><trkpt lat="44.0857166" lon="11.3211295"><ele>776.0</ele><time>2026-05-02T08:05:30.968Z</time></trkpt><trkpt lat="44.0857581" lon="11.3209839"><ele>774.1999999999999</ele><time>2026-05-02T08:05:32.986Z</time></trkpt><trkpt lat="44.0858164" lon="11.3208607"><ele>772.4</ele><time>2026-05-02T08:05:34.961Z</time></trkpt><trkpt lat="44.0858691" lon="11.3207476"><ele>770.6</ele><time>2026-05-02T08:05:36.963Z</time></trkpt><trkpt lat="44.0859223" lon="11.320618"><ele>768.8</ele><time>2026-05-02T08:05:38.967Z</time></trkpt><trkpt lat="44.0859453" lon="11.3205106"><ele>767.0</ele><time>2026-05-02T08:05:40.954Z</time></trkpt><trkpt lat="44.0859806" lon="11.3204314"><ele>767.0</ele><time>2026-05-02T08:05:42.955Z</time></trkpt><trkpt lat="44.0860299" lon="11.32037"><ele>767.0</ele><time>2026-05-02T08:05:44.96Z</time></trkpt><trkpt lat="44.0860931" lon="11.3202951"><ele>767.0</ele><time>2026-05-02T08:05:47.044Z</time></trkpt><trkpt lat="44.0861448" lon="11.3201929"><ele>767.0</ele><time>2026-05-02T08:05:48.957Z</time></trkpt><trkpt lat="44.086176" lon="11.3200988"><ele>767.0</ele><time>2026-05-02T08:05:50.955Z</time></trkpt><trkpt lat="44.0861894" lon="11.3199633"><ele>767.0</ele><time>2026-05-02T08:05:53.034Z</time></trkpt><trkpt lat="44.0861668" lon="11.3198535"><ele>766.4000000000001</ele><time>2026-05-02T08:05:55.03Z</time></trkpt><trkpt lat="44.0861381" lon="11.3197249"><ele>765.8000000000001</ele><time>2026-05-02T08:05:56.958Z</time></trkpt><trkpt lat="44.0861056" lon="11.3196083"><ele>765.2</ele><time>2026-05-02T08:05:58.964Z</time></trkpt><trkpt lat="44.0860625" lon="11.319505"><ele>764.6</ele><time>2026-05-02T08:06:00.983Z</time></trkpt><trkpt lat="44.0860504" lon="11.3193547"><ele>764.0</ele><time>2026-05-02T08:06:02.986Z</time></trkpt><trkpt lat="44.0860488" lon="11.3192321"><ele>764.0</ele><time>2026-05-02T08:06:05.038Z</time></trkpt><trkpt lat="44.0860925" lon="11.3191197"><ele>764.0</ele><time>2026-05-02T08:06:07.954Z</time></trkpt><trkpt lat="44.0861442" lon="11.319038"><ele>764.0</ele><time>2026-05-02T08:06:09.946Z</time></trkpt><trkpt lat="44.0861962" lon="11.3189788"><ele>764.0</ele><time>2026-05-02T08:06:12.045Z</time></trkpt><trkpt lat="44.0862767" lon="11.3189122"><ele>764.0</ele><time>2026-05-02T08:06:14.03Z</time></trkpt><trkpt lat="44.0863502" lon="11.3188447"><ele>764.0</ele><time>2026-05-02T08:06:16.965Z</time></trkpt><trkpt lat="44.0863909" lon="11.3187674"><ele>764.1666666666666</ele><time>2026-05-02T08:06:18.97Z</time></trkpt><trkpt lat="44.0864137" lon="11.3186629"><ele>764.3333333333333</ele><time>2026-05-02T08:06:20.963Z</time></trkpt><trkpt lat="44.0864044" lon="11.3185185"><ele>764.5</ele><time>2026-05-02T08:06:22.965Z</time></trkpt><trkpt lat="44.0863803" lon="11.3184134"><ele>764.6666666666666</ele><time>2026-05-02T08:06:24.954Z</time></trkpt><trkpt lat="44.086385" lon="11.3183"><ele>764.8333333333334</ele><time>2026-05-02T08:06:27.97Z</time></trkpt><trkpt lat="44.0863978" lon="11.3181697"><ele>765.0</ele><time>2026-05-02T08:06:30.969Z</time></trkpt><trkpt lat="44.0863954" lon="11.3180736"><ele>767.0</ele><time>2026-05-02T08:06:33.032Z</time></trkpt><trkpt lat="44.0863975" lon="11.3179376"><ele>769.0</ele><time>2026-05-02T08:06:35.954Z</time></trkpt><trkpt lat="44.0864412" lon="11.3178619"><ele>771.0</ele><time>2026-05-02T08:06:37.962Z</time></trkpt><trkpt lat="44.0865313" lon="11.3177682"><ele>773.0</ele><time>2026-05-02T08:06:39.963Z</time></trkpt><trkpt lat="44.0866221" lon="11.3176842"><ele>775.0</ele><time>2026-05-02T08:06:41.962Z</time></trkpt><trkpt lat="44.0867129" lon="11.3176011"><ele>770.8</ele><time>2026-05-02T08:06:43.963Z</time></trkpt><trkpt lat="44.0868113" lon="11.3175322"><ele>766.6</ele><time>2026-05-02T08:06:45.959Z</time></trkpt><trkpt lat="44.0869269" lon="11.3174727"><ele>762.4000000000001</ele><time>2026-05-02T08:06:47.952Z</time></trkpt><trkpt lat="44.0869946" lon="11.3174591"><ele>758.2</ele><time>2026-05-02T08:06:49.039Z</time></trkpt><trkpt lat="44.0870623" lon="11.3174472"><ele>754.0</ele><time>2026-05-02T08:06:50.019Z</time></trkpt><trkpt lat="44.0871827" lon="11.3173979"><ele>754.0</ele><time>2026-05-02T08:06:51.956Z</time></trkpt><trkpt lat="44.0872891" lon="11.3173041"><ele>754.0</ele><time>2026-05-02T08:06:54.031Z</time></trkpt><trkpt lat="44.0873369" lon="11.3172437"><ele>754.0</ele><time>2026-05-02T08:06:55.034Z</time></trkpt><trkpt lat="44.0873811" lon="11.3171754"><ele>754.0</ele><time>2026-05-02T08:06:55.96Z</time></trkpt><trkpt lat="44.0874224" lon="11.3171034"><ele>754.0</ele><time>2026-05-02T08:06:56.965Z</time></trkpt><trkpt lat="44.0874681" lon="11.3170428"><ele>754.0</ele><time>2026-05-02T08:06:57.956Z</time></trkpt><trkpt lat="44.0875584" lon="11.316937"><ele>756.4000000000001</ele><time>2026-05-02T08:06:59.951Z</time></trkpt><trkpt lat="44.0876274" lon="11.316903"><ele>758.8</ele><time>2026-05-02T08:07:00.949Z</time></trkpt><trkpt lat="44.0877101" lon="11.3168682"><ele>761.2</ele><time>2026-05-02T08:07:02.032Z</time></trkpt><trkpt lat="44.0878073" lon="11.3168427"><ele>763.5999999999999</ele><time>2026-05-02T08:07:03.035Z</time></trkpt><trkpt lat="44.0878992" lon="11.3168172"><ele>766.0</ele><time>2026-05-02T08:07:03.97Z</time></trkpt><trkpt lat="44.0879984" lon="11.3167894"><ele>766.0</ele><time>2026-05-02T08:07:04.957Z</time></trkpt><trkpt lat="44.0880918" lon="11.3167535"><ele>766.0</ele><time>2026-05-02T08:07:05.969Z</time></trkpt><trkpt lat="44.0881848" lon="11.3167231"><ele>766.0</ele><time>2026-05-02T08:07:06.946Z</time></trkpt><trkpt lat="44.0882656" lon="11.3166949"><ele>766.0</ele><time>2026-05-02T08:07:07.966Z</time></trkpt><trkpt lat="44.0883405" lon="11.3166741"><ele>766.0</ele><time>2026-05-02T08:07:08.963Z</time></trkpt><trkpt lat="44.0884107" lon="11.3166682"><ele>766.0</ele><time>2026-05-02T08:07:09.959Z</time></trkpt><trkpt lat="44.0884815" lon="11.3166653"><ele>765.8</ele><time>2026-05-02T08:07:10.944Z</time></trkpt><trkpt lat="44.0885877" lon="11.3166231"><ele>765.5999999999999</ele><time>2026-05-02T08:07:13.034Z</time></trkpt><trkpt lat="44.0886604" lon="11.3165283"><ele>765.4</ele><time>2026-05-02T08:07:15.031Z</time></trkpt><trkpt lat="44.0887318" lon="11.3164094"><ele>765.2</ele><time>2026-05-02T08:07:16.991Z</time></trkpt><trkpt lat="44.0888243" lon="11.3163412"><ele>765.0</ele><time>2026-05-02T08:07:18.978Z</time></trkpt><trkpt lat="44.088938" lon="11.3162843"><ele>768.0</ele><time>2026-05-02T08:07:20.985Z</time></trkpt><trkpt lat="44.0889976" lon="11.3162397"><ele>771.0</ele><time>2026-05-02T08:07:21.975Z</time></trkpt><trkpt lat="44.0891587" lon="11.3161677"><ele>774.0</ele><time>2026-05-02T08:07:24.041Z</time></trkpt><trkpt lat="44.0892482" lon="11.316103"><ele>777.0</ele><time>2026-05-02T08:07:24.965Z</time></trkpt><trkpt lat="44.0893296" lon="11.3160481"><ele>780.0</ele><time>2026-05-02T08:07:25.97Z</time></trkpt><trkpt lat="44.0894022" lon="11.31598"><ele>780.0</ele><time>2026-05-02T08:07:26.973Z</time></trkpt><trkpt lat="44.0894608" lon="11.3159212"><ele>780.0</ele><time>2026-05-02T08:07:27.962Z</time></trkpt><trkpt lat="44.0895149" lon="11.3158653"><ele>780.0</ele><time>2026-05-02T08:07:28.958Z</time></trkpt><trkpt lat="44.089562" lon="11.3157896"><ele>780.0</ele><time>2026-05-02T08:07:29.984Z</time></trkpt><trkpt lat="44.0896197" lon="11.315703"><ele>780.0</ele><time>2026-05-02T08:07:30.965Z</time></trkpt><trkpt lat="44.0896726" lon="11.3156172"><ele>780.0</ele><time>2026-05-02T08:07:31.963Z</time></trkpt><trkpt lat="44.0897375" lon="11.3155491"><ele>777.8333333333334</ele><time>2026-05-02T08:07:32.961Z</time></trkpt><trkpt lat="44.0898047" lon="11.3154785"><ele>775.6666666666666</ele><time>2026-05-02T08:07:33.958Z</time></trkpt><trkpt lat="44.0898726" lon="11.3154446"><ele>773.5</ele><time>2026-05-02T08:07:34.963Z</time></trkpt><trkpt lat="44.0899394" lon="11.3154282"><ele>771.3333333333333</ele><time>2026-05-02T08:07:35.97Z</time></trkpt><trkpt lat="44.090007" lon="11.3154075"><ele>769.1666666666666</ele><time>2026-05-02T08:07:36.968Z</time></trkpt><trkpt lat="44.0901107" lon="11.3153446"><ele>767.0</ele><time>2026-05-02T08:07:38.955Z</time></trkpt><trkpt lat="44.0901684" lon="11.3152382"><ele>767.0</ele><time>2026-05-02T08:07:40.968Z</time></trkpt><trkpt lat="44.0901633" lon="11.3151357"><ele>767.0</ele><time>2026-05-02T08:07:43.038Z</time></trkpt><trkpt lat="44.0901426" lon="11.3150141"><ele>767.0</ele><time>2026-05-02T08:07:45.036Z</time></trkpt><trkpt lat="44.0901269" lon="11.3148732"><ele>767.0</ele><time>2026-05-02T08:07:46.946Z</time></trkpt><trkpt lat="44.0901184" lon="11.3147182"><ele>767.0</ele><time>2026-05-02T08:07:48.965Z</time></trkpt><trkpt lat="44.0901266" lon="11.3145686"><ele>768.25</ele><time>2026-05-02T08:07:50.956Z</time></trkpt><trkpt lat="44.0901472" lon="11.3144105"><ele>769.5</ele><time>2026-05-02T08:07:52.97Z</time></trkpt><trkpt lat="44.0901832" lon="11.314246"><ele>770.75</ele><time>2026-05-02T08:07:54.966Z</time></trkpt><trkpt lat="44.0902366" lon="11.3141037"><ele>772.0</ele><time>2026-05-02T08:07:56.967Z</time></trkpt><trkpt lat="44.0903004" lon="11.3139571"><ele>774.25</ele><time>2026-05-02T08:07:58.963Z</time></trkpt><trkpt lat="44.0903754" lon="11.3138258"><ele>776.5</ele><time>2026-05-02T08:08:00.965Z</time></trkpt><trkpt lat="44.0904467" lon="11.3136948"><ele>778.75</ele><time>2026-05-02T08:08:02.965Z</time></trkpt><trkpt lat="44.0905174" lon="11.3135661"><ele>781.0</ele><time>2026-05-02T08:08:04.971Z</time></trkpt><trkpt lat="44.0905747" lon="11.3134118"><ele>780.9999999999999</ele><time>2026-05-02T08:08:06.978Z</time></trkpt><trkpt lat="44.0906197" lon="11.3132472"><ele>781.0</ele><time>2026-05-02T08:08:08.969Z</time></trkpt><trkpt lat="44.0906459" lon="11.3131543"><ele>781.0</ele><time>2026-05-02T08:08:10.036Z</time></trkpt><trkpt lat="44.0906601" lon="11.3130623"><ele>781.0</ele><time>2026-05-02T08:08:10.958Z</time></trkpt><trkpt lat="44.0906781" lon="11.3129665"><ele>780.9999999999999</ele><time>2026-05-02T08:08:11.973Z</time></trkpt><trkpt lat="44.0906952" lon="11.3128685"><ele>781.0</ele><time>2026-05-02T08:08:12.959Z</time></trkpt><trkpt lat="44.0907378" lon="11.3127034"><ele>775.4</ele><time>2026-05-02T08:08:14.973Z</time></trkpt><trkpt lat="44.0907981" lon="11.3125574"><ele>769.8</ele><time>2026-05-02T08:08:16.976Z</time></trkpt><trkpt lat="44.0908617" lon="11.3124258"><ele>764.1999999999999</ele><time>2026-05-02T08:08:19.002Z</time></trkpt><trkpt lat="44.0909448" lon="11.312331"><ele>758.5999999999999</ele><time>2026-05-02T08:08:20.963Z</time></trkpt><trkpt lat="44.0909934" lon="11.312262"><ele>753.0</ele><time>2026-05-02T08:08:21.971Z</time></trkpt><trkpt lat="44.0910525" lon="11.3121836"><ele>753.0</ele><time>2026-05-02T08:08:22.964Z</time></trkpt><trkpt lat="44.091092" lon="11.3120977"><ele>753.0</ele><time>2026-05-02T08:08:23.972Z</time></trkpt><trkpt lat="44.091121" lon="11.3120173"><ele>753.0</ele><time>2026-05-02T08:08:24.969Z</time></trkpt><trkpt lat="44.0911247" lon="11.311845"><ele>753.0</ele><time>2026-05-02T08:08:26.97Z</time></trkpt><trkpt lat="44.0911699" lon="11.3117019"><ele>753.0</ele><time>2026-05-02T08:08:28.971Z</time></trkpt><trkpt lat="44.0912514" lon="11.3116929"><ele>753.0</ele><time>2026-05-02T08:08:30.968Z</time></trkpt><trkpt lat="44.0913044" lon="11.3117642"><ele>753.0</ele><time>2026-05-02T08:08:31.971Z</time></trkpt><trkpt lat="44.0913572" lon="11.3119133"><ele>753.0</ele><time>2026-05-02T08:08:33.964Z</time></trkpt><trkpt lat="44.0913503" lon="11.3120148"><ele>753.0</ele><time>2026-05-02T08:08:34.961Z</time></trkpt><trkpt lat="44.0913555" lon="11.3121205"><ele>753.0</ele><time>2026-05-02T08:08:35.968Z</time></trkpt><trkpt lat="44.0913783" lon="11.3122276"><ele>753.0</ele><time>2026-05-02T08:08:36.972Z</time></trkpt><trkpt lat="44.091413" lon="11.3123181"><ele>751.8571428571429</ele><time>2026-05-02T08:08:37.966Z</time></trkpt><trkpt lat="44.0914681" lon="11.3123966"><ele>750.7142857142858</ele><time>2026-05-02T08:08:38.972Z</time></trkpt><trkpt lat="44.0915265" lon="11.3124748"><ele>749.5714285714286</ele><time>2026-05-02T08:08:39.97Z</time></trkpt><trkpt lat="44.0915879" lon="11.3125443"><ele>748.4285714285714</ele><time>2026-05-02T08:08:40.973Z</time></trkpt><trkpt lat="44.0916448" lon="11.3126038"><ele>747.2857142857142</ele><time>2026-05-02T08:08:42.036Z</time></trkpt><trkpt lat="44.0916836" lon="11.3126816"><ele>746.1428571428571</ele><time>2026-05-02T08:08:43.048Z</time></trkpt><trkpt lat="44.0917188" lon="11.3127608"><ele>745.0</ele><time>2026-05-02T08:08:44.038Z</time></trkpt><trkpt lat="44.0917441" lon="11.3128465"><ele>740.3333333333334</ele><time>2026-05-02T08:08:44.955Z</time></trkpt><trkpt lat="44.0917535" lon="11.3129535"><ele>735.6666666666667</ele><time>2026-05-02T08:08:45.957Z</time></trkpt><trkpt lat="44.0917418" lon="11.3130742"><ele>731.0</ele><time>2026-05-02T08:08:46.957Z</time></trkpt><trkpt lat="44.0917393" lon="11.313177"><ele>726.3333333333334</ele><time>2026-05-02T08:08:47.959Z</time></trkpt><trkpt lat="44.0917645" lon="11.3132645"><ele>721.6666666666666</ele><time>2026-05-02T08:08:48.964Z</time></trkpt><trkpt lat="44.0918646" lon="11.3133476"><ele>717.0</ele><time>2026-05-02T08:08:50.958Z</time></trkpt><trkpt lat="44.0919621" lon="11.3132416"><ele>717.0</ele><time>2026-05-02T08:08:53.013Z</time></trkpt><trkpt lat="44.0919909" lon="11.3131522"><ele>717.0</ele><time>2026-05-02T08:08:53.96Z</time></trkpt><trkpt lat="44.0920088" lon="11.3130578"><ele>717.0</ele><time>2026-05-02T08:08:54.953Z</time></trkpt><trkpt lat="44.0920267" lon="11.3129732"><ele>717.0</ele><time>2026-05-02T08:08:55.954Z</time></trkpt><trkpt lat="44.0920497" lon="11.3128877"><ele>717.0</ele><time>2026-05-02T08:08:56.958Z</time></trkpt><trkpt lat="44.0920795" lon="11.3128075"><ele>717.0</ele><time>2026-05-02T08:08:57.955Z</time></trkpt><trkpt lat="44.0921115" lon="11.3127248"><ele>717.0</ele><time>2026-05-02T08:08:59.032Z</time></trkpt><trkpt lat="44.0921455" lon="11.3126383"><ele>716.6666666666666</ele><time>2026-05-02T08:09:00.03Z</time></trkpt><trkpt lat="44.0921883" lon="11.3124859"><ele>716.3333333333334</ele><time>2026-05-02T08:09:01.959Z</time></trkpt><trkpt lat="44.0922104" lon="11.3123474"><ele>716.0</ele><time>2026-05-02T08:09:03.945Z</time></trkpt><trkpt lat="44.0922517" lon="11.3122697"><ele>715.6666666666667</ele><time>2026-05-02T08:09:05.955Z</time></trkpt><trkpt lat="44.0923126" lon="11.3123025"><ele>715.3333333333334</ele><time>2026-05-02T08:09:19.968Z</time></trkpt><trkpt lat="44.0923126" lon="11.3123923"><ele>715.0</ele><time>2026-05-02T08:09:21.96Z</time></trkpt><trkpt lat="44.0923204" lon="11.3125267"><ele>715.0</ele><time>2026-05-02T08:09:24.036Z</time></trkpt><trkpt lat="44.0923211" lon="11.3127075"><ele>715.0</ele><time>2026-05-02T08:09:25.969Z</time></trkpt><trkpt lat="44.0923308" lon="11.3128059"><ele>715.0</ele><time>2026-05-02T08:09:26.957Z</time></trkpt><trkpt lat="44.0923662" lon="11.3128957"><ele>715.0</ele><time>2026-05-02T08:09:27.963Z</time></trkpt><trkpt lat="44.0924335" lon="11.3129587"><ele>715.0</ele><time>2026-05-02T08:09:28.969Z</time></trkpt><trkpt lat="44.0925185" lon="11.3129933"><ele>715.0</ele><time>2026-05-02T08:09:29.97Z</time></trkpt><trkpt lat="44.0926164" lon="11.3130193"><ele>712.4</ele><time>2026-05-02T08:09:30.958Z</time></trkpt><trkpt lat="44.0927138" lon="11.3130381"><ele>709.8</ele><time>2026-05-02T08:09:31.964Z</time></trkpt><trkpt lat="44.0928138" lon="11.3130655"><ele>707.2</ele><time>2026-05-02T08:09:32.948Z</time></trkpt><trkpt lat="44.0929142" lon="11.3130828"><ele>704.6</ele><time>2026-05-02T08:09:33.962Z</time></trkpt><trkpt lat="44.0930165" lon="11.3130902"><ele>702.0</ele><time>2026-05-02T08:09:34.966Z</time></trkpt><trkpt lat="44.0931183" lon="11.3131023"><ele>702.0</ele><time>2026-05-02T08:09:35.968Z</time></trkpt><trkpt lat="44.0932154" lon="11.3131148"><ele>702.0</ele><time>2026-05-02T08:09:36.959Z</time></trkpt><trkpt lat="44.0933137" lon="11.3131271"><ele>702.0</ele><time>2026-05-02T08:09:37.956Z</time></trkpt><trkpt lat="44.0934131" lon="11.3131493"><ele>702.0</ele><time>2026-05-02T08:09:38.959Z</time></trkpt><trkpt lat="44.0935101" lon="11.3131894"><ele>702.0</ele><time>2026-05-02T08:09:39.959Z</time></trkpt><trkpt lat="44.0936103" lon="11.3132519"><ele>702.4000000000001</ele><time>2026-05-02T08:09:40.962Z</time></trkpt><trkpt lat="44.0936838" lon="11.3133496"><ele>702.8000000000001</ele><time>2026-05-02T08:09:41.968Z</time></trkpt><trkpt lat="44.0937344" lon="11.3134917"><ele>703.2</ele><time>2026-05-02T08:09:43.099Z</time></trkpt><trkpt lat="44.093781" lon="11.3136328"><ele>703.6</ele><time>2026-05-02T08:09:44.03Z</time></trkpt><trkpt lat="44.0938165" lon="11.3137782"><ele>704.0</ele><time>2026-05-02T08:09:44.964Z</time></trkpt><trkpt lat="44.0938509" lon="11.3139361"><ele>704.0</ele><time>2026-05-02T08:09:45.961Z</time></trkpt><trkpt lat="44.0938961" lon="11.3140955"><ele>704.0</ele><time>2026-05-02T08:09:46.964Z</time></trkpt><trkpt lat="44.0939385" lon="11.3142516"><ele>704.0</ele><time>2026-05-02T08:09:47.984Z</time></trkpt><trkpt lat="44.0939872" lon="11.314389"><ele>704.0</ele><time>2026-05-02T08:09:48.976Z</time></trkpt><trkpt lat="44.0940493" lon="11.3144944"><ele>697.2</ele><time>2026-05-02T08:09:49.959Z</time></trkpt><trkpt lat="44.0941256" lon="11.3145542"><ele>690.4000000000001</ele><time>2026-05-02T08:09:50.966Z</time></trkpt><trkpt lat="44.0942205" lon="11.3145578"><ele>683.6</ele><time>2026-05-02T08:09:51.944Z</time></trkpt><trkpt lat="44.0943158" lon="11.3145302"><ele>676.8</ele><time>2026-05-02T08:09:52.958Z</time></trkpt><trkpt lat="44.0944252" lon="11.3144829"><ele>670.0</ele><time>2026-05-02T08:09:53.959Z</time></trkpt><trkpt lat="44.0945438" lon="11.3144442"><ele>670.0</ele><time>2026-05-02T08:09:54.95Z</time></trkpt><trkpt lat="44.0946652" lon="11.3144019"><ele>670.0</ele><time>2026-05-02T08:09:55.963Z</time></trkpt><trkpt lat="44.0947817" lon="11.3143661"><ele>670.0</ele><time>2026-05-02T08:09:57.052Z</time></trkpt><trkpt lat="44.0949068" lon="11.3143341"><ele>670.0</ele><time>2026-05-02T08:09:57.965Z</time></trkpt><trkpt lat="44.0950242" lon="11.3143364"><ele>666.25</ele><time>2026-05-02T08:09:58.969Z</time></trkpt><trkpt lat="44.0951431" lon="11.3143768"><ele>662.5</ele><time>2026-05-02T08:09:59.965Z</time></trkpt><trkpt lat="44.0952676" lon="11.3144409"><ele>658.75</ele><time>2026-05-02T08:10:00.971Z</time></trkpt><trkpt lat="44.0953904" lon="11.3145125"><ele>655.0</ele><time>2026-05-02T08:10:01.964Z</time></trkpt><trkpt lat="44.0955121" lon="11.3145698"><ele>655.0</ele><time>2026-05-02T08:10:02.999Z</time></trkpt><trkpt lat="44.0956368" lon="11.3145868"><ele>655.0</ele><time>2026-05-02T08:10:04.014Z</time></trkpt><trkpt lat="44.0957485" lon="11.3146044"><ele>655.0</ele><time>2026-05-02T08:10:04.986Z</time></trkpt><trkpt lat="44.0958559" lon="11.314624"><ele>655.0</ele><time>2026-05-02T08:10:05.967Z</time></trkpt><trkpt lat="44.0959497" lon="11.3146672"><ele>655.0</ele><time>2026-05-02T08:10:06.961Z</time></trkpt><trkpt lat="44.0959982" lon="11.3147443"><ele>655.0</ele><time>2026-05-02T08:10:07.959Z</time></trkpt><trkpt lat="44.0960065" lon="11.314848"><ele>655.0</ele><time>2026-05-02T08:10:08.967Z</time></trkpt><trkpt lat="44.0959827" lon="11.3149807"><ele>655.0</ele><time>2026-05-02T08:10:09.969Z</time></trkpt><trkpt lat="44.0959489" lon="11.3151045"><ele>655.0</ele><time>2026-05-02T08:10:10.965Z</time></trkpt><trkpt lat="44.0958999" lon="11.315232"><ele>655.0</ele><time>2026-05-02T08:10:11.973Z</time></trkpt><trkpt lat="44.0958437" lon="11.3153521"><ele>655.0</ele><time>2026-05-02T08:10:12.976Z</time></trkpt><trkpt lat="44.0957999" lon="11.3154837"><ele>655.0</ele><time>2026-05-02T08:10:13.971Z</time></trkpt><trkpt lat="44.0958023" lon="11.3156388"><ele>655.0</ele><time>2026-05-02T08:10:14.976Z</time></trkpt><trkpt lat="44.0958321" lon="11.3157987"><ele>655.0</ele><time>2026-05-02T08:10:15.965Z</time></trkpt><trkpt lat="44.0958715" lon="11.3159462"><ele>655.0</ele><time>2026-05-02T08:10:16.964Z</time></trkpt><trkpt lat="44.0958919" lon="11.316103"><ele>654.8</ele><time>2026-05-02T08:10:17.97Z</time></trkpt><trkpt lat="44.0958995" lon="11.3162467"><ele>654.6</ele><time>2026-05-02T08:10:18.965Z</time></trkpt><trkpt lat="44.0958901" lon="11.3163912"><ele>654.4000000000001</ele><time>2026-05-02T08:10:19.965Z</time></trkpt><trkpt lat="44.0959058" lon="11.3165297"><ele>654.2</ele><time>2026-05-02T08:10:20.961Z</time></trkpt><trkpt lat="44.0959439" lon="11.3166793"><ele>654.0</ele><time>2026-05-02T08:10:21.968Z</time></trkpt><trkpt lat="44.0960412" lon="11.3167829"><ele>655.0</ele><time>2026-05-02T08:10:22.959Z</time></trkpt><trkpt lat="44.0961471" lon="11.3168633"><ele>656.0</ele><time>2026-05-02T08:10:23.958Z</time></trkpt><trkpt lat="44.0962663" lon="11.3169048"><ele>657.0</ele><time>2026-05-02T08:10:24.963Z</time></trkpt><trkpt lat="44.0963794" lon="11.3169464"><ele>658.0</ele><time>2026-05-02T08:10:25.97Z</time></trkpt><trkpt lat="44.0964848" lon="11.3170088"><ele>658.0</ele><time>2026-05-02T08:10:26.963Z</time></trkpt><trkpt lat="44.0965787" lon="11.3171068"><ele>658.0</ele><time>2026-05-02T08:10:27.965Z</time></trkpt><trkpt lat="44.096679" lon="11.3171913"><ele>658.0</ele><time>2026-05-02T08:10:28.966Z</time></trkpt><trkpt lat="44.0967964" lon="11.3172078"><ele>658.0</ele><time>2026-05-02T08:10:29.968Z</time></trkpt><trkpt lat="44.0969001" lon="11.3171961"><ele>656.8</ele><time>2026-05-02T08:10:30.971Z</time></trkpt><trkpt lat="44.0970093" lon="11.3171931"><ele>655.5999999999999</ele><time>2026-05-02T08:10:31.975Z</time></trkpt><trkpt lat="44.097117" lon="11.3172297"><ele>654.4000000000001</ele><time>2026-05-02T08:10:32.965Z</time></trkpt><trkpt lat="44.0972119" lon="11.3172742"><ele>653.2</ele><time>2026-05-02T08:10:33.965Z</time></trkpt><trkpt lat="44.0973141" lon="11.3173376"><ele>652.0</ele><time>2026-05-02T08:10:35.035Z</time></trkpt><trkpt lat="44.0974182" lon="11.3174104"><ele>645.6</ele><time>2026-05-02T08:10:35.962Z</time></trkpt><trkpt lat="44.0975109" lon="11.3174834"><ele>639.2</ele><time>2026-05-02T08:10:36.958Z</time></trkpt><trkpt lat="44.097585" lon="11.317561"><ele>632.8</ele><time>2026-05-02T08:10:37.983Z</time></trkpt><trkpt lat="44.0976504" lon="11.3176623"><ele>626.4</ele><time>2026-05-02T08:10:39.024Z</time></trkpt><trkpt lat="44.0976926" lon="11.3177792"><ele>620.0</ele><time>2026-05-02T08:10:39.938Z</time></trkpt><trkpt lat="44.0977483" lon="11.3178945"><ele>620.0</ele><time>2026-05-02T08:10:40.945Z</time></trkpt><trkpt lat="44.0978022" lon="11.3180096"><ele>620.0</ele><time>2026-05-02T08:10:41.955Z</time></trkpt><trkpt lat="44.0978625" lon="11.3180999"><ele>620.0</ele><time>2026-05-02T08:10:42.994Z</time></trkpt><trkpt lat="44.0979252" lon="11.3181727"><ele>620.0</ele><time>2026-05-02T08:10:44.042Z</time></trkpt><trkpt lat="44.0980081" lon="11.3181908"><ele>620.0</ele><time>2026-05-02T08:10:45.031Z</time></trkpt><trkpt lat="44.0980787" lon="11.3181798"><ele>620.0</ele><time>2026-05-02T08:10:45.962Z</time></trkpt><trkpt lat="44.0981349" lon="11.3181199"><ele>620.0</ele><time>2026-05-02T08:10:46.965Z</time></trkpt><trkpt lat="44.0981576" lon="11.3180198"><ele>620.0</ele><time>2026-05-02T08:10:47.995Z</time></trkpt><trkpt lat="44.0981674" lon="11.3179129"><ele>620.0</ele><time>2026-05-02T08:10:48.963Z</time></trkpt><trkpt lat="44.0981543" lon="11.3178087"><ele>620.0</ele><time>2026-05-02T08:10:49.966Z</time></trkpt><trkpt lat="44.0980973" lon="11.3177099"><ele>620.0</ele><time>2026-05-02T08:10:50.97Z</time></trkpt><trkpt lat="44.0979811" lon="11.3175896"><ele>620.0</ele><time>2026-05-02T08:10:51.967Z</time></trkpt><trkpt lat="44.0978737" lon="11.3174436"><ele>620.0</ele><time>2026-05-02T08:10:53.037Z</time></trkpt><trkpt lat="44.0977591" lon="11.3173191"><ele>620.0</ele><time>2026-05-02T08:10:54.036Z</time></trkpt><trkpt lat="44.0976557" lon="11.3171994"><ele>620.0</ele><time>2026-05-02T08:10:55.038Z</time></trkpt><trkpt lat="44.0975642" lon="11.3170795"><ele>620.25</ele><time>2026-05-02T08:10:55.975Z</time></trkpt><trkpt lat="44.097485" lon="11.3169575"><ele>620.5</ele><time>2026-05-02T08:10:56.974Z</time></trkpt><trkpt lat="44.0974046" lon="11.3168278"><ele>620.75</ele><time>2026-05-02T08:10:57.974Z</time></trkpt><trkpt lat="44.0973429" lon="11.3167054"><ele>621.0</ele><time>2026-05-02T08:10:58.968Z</time></trkpt><trkpt lat="44.0972851" lon="11.3165789"><ele>621.0</ele><time>2026-05-02T08:10:59.977Z</time></trkpt><trkpt lat="44.0972226" lon="11.3164471"><ele>621.0</ele><time>2026-05-02T08:11:00.976Z</time></trkpt><trkpt lat="44.0971481" lon="11.3163263"><ele>621.0</ele><time>2026-05-02T08:11:02.034Z</time></trkpt><trkpt lat="44.0970492" lon="11.3162242"><ele>621.0</ele><time>2026-05-02T08:11:03.019Z</time></trkpt><trkpt lat="44.0969421" lon="11.3161474"><ele>618.6</ele><time>2026-05-02T08:11:04.034Z</time></trkpt><trkpt lat="44.096842" lon="11.3160695"><ele>616.2</ele><time>2026-05-02T08:11:04.972Z</time></trkpt><trkpt lat="44.0967622" lon="11.3159648"><ele>613.8</ele><time>2026-05-02T08:11:05.972Z</time></trkpt><trkpt lat="44.0967105" lon="11.3158619"><ele>611.4</ele><time>2026-05-02T08:11:06.969Z</time></trkpt><trkpt lat="44.0967095" lon="11.3157373"><ele>609.0</ele><time>2026-05-02T08:11:07.963Z</time></trkpt><trkpt lat="44.0967551" lon="11.3156175"><ele>611.25</ele><time>2026-05-02T08:11:08.977Z</time></trkpt><trkpt lat="44.0968452" lon="11.3155224"><ele>613.5</ele><time>2026-05-02T08:11:09.982Z</time></trkpt><trkpt lat="44.0969259" lon="11.3154129"><ele>615.75</ele><time>2026-05-02T08:11:10.968Z</time></trkpt><trkpt lat="44.0970019" lon="11.3152707"><ele>618.0</ele><time>2026-05-02T08:11:11.955Z</time></trkpt><trkpt lat="44.0970793" lon="11.3151184"><ele>618.0</ele><time>2026-05-02T08:11:12.976Z</time></trkpt><trkpt lat="44.09715" lon="11.3149639"><ele>618.0</ele><time>2026-05-02T08:11:14.053Z</time></trkpt><trkpt lat="44.0972003" lon="11.3148132"><ele>618.0</ele><time>2026-05-02T08:11:15.037Z</time></trkpt><trkpt lat="44.0972433" lon="11.31465"><ele>618.0</ele><time>2026-05-02T08:11:15.957Z</time></trkpt><trkpt lat="44.0972684" lon="11.3144868"><ele>617.8333333333334</ele><time>2026-05-02T08:11:17.034Z</time></trkpt><trkpt lat="44.0973048" lon="11.3143549"><ele>617.6666666666666</ele><time>2026-05-02T08:11:18.021Z</time></trkpt><trkpt lat="44.097358" lon="11.3142667"><ele>617.5</ele><time>2026-05-02T08:11:18.996Z</time></trkpt><trkpt lat="44.0974229" lon="11.3142351"><ele>617.3333333333333</ele><time>2026-05-02T08:11:20.03Z</time></trkpt><trkpt lat="44.0974924" lon="11.3142827"><ele>617.1666666666666</ele><time>2026-05-02T08:11:20.977Z</time></trkpt><trkpt lat="44.0975481" lon="11.3143793"><ele>617.0</ele><time>2026-05-02T08:11:21.984Z</time></trkpt><trkpt lat="44.0975563" lon="11.3144908"><ele>609.6</ele><time>2026-05-02T08:11:22.978Z</time></trkpt><trkpt lat="44.0975152" lon="11.3146057"><ele>602.2</ele><time>2026-05-02T08:11:23.977Z</time></trkpt><trkpt lat="44.0974536" lon="11.3147142"><ele>594.8</ele><time>2026-05-02T08:11:25.032Z</time></trkpt><trkpt lat="44.0974249" lon="11.314832"><ele>587.4</ele><time>2026-05-02T08:11:25.973Z</time></trkpt><trkpt lat="44.0974414" lon="11.3149437"><ele>580.0</ele><time>2026-05-02T08:11:26.979Z</time></trkpt><trkpt lat="44.0974876" lon="11.3150569"><ele>579.5</ele><time>2026-05-02T08:11:28.039Z</time></trkpt><trkpt lat="44.0975756" lon="11.3151352"><ele>579.0</ele><time>2026-05-02T08:11:29.029Z</time></trkpt><trkpt lat="44.0976953" lon="11.3151709"><ele>578.5</ele><time>2026-05-02T08:11:30.02Z</time></trkpt><trkpt lat="44.0978208" lon="11.3152011"><ele>578.0</ele><time>2026-05-02T08:11:30.969Z</time></trkpt><trkpt lat="44.0979501" lon="11.3152248"><ele>578.0</ele><time>2026-05-02T08:11:31.96Z</time></trkpt><trkpt lat="44.0980713" lon="11.3152559"><ele>578.0</ele><time>2026-05-02T08:11:32.986Z</time></trkpt><trkpt lat="44.0981989" lon="11.3152927"><ele>578.0</ele><time>2026-05-02T08:11:34.031Z</time></trkpt><trkpt lat="44.098332" lon="11.3153394"><ele>578.0</ele><time>2026-05-02T08:11:35.044Z</time></trkpt><trkpt lat="44.0984453" lon="11.3154233"><ele>576.6666666666666</ele><time>2026-05-02T08:11:35.952Z</time></trkpt><trkpt lat="44.0985709" lon="11.3155586"><ele>575.3333333333334</ele><time>2026-05-02T08:11:36.952Z</time></trkpt><trkpt lat="44.098696" lon="11.3156976"><ele>574.0</ele><time>2026-05-02T08:11:37.956Z</time></trkpt><trkpt lat="44.0988241" lon="11.3158321"><ele>574.0</ele><time>2026-05-02T08:11:38.955Z</time></trkpt><trkpt lat="44.0989605" lon="11.3159678"><ele>574.0</ele><time>2026-05-02T08:11:39.966Z</time></trkpt><trkpt lat="44.0990911" lon="11.3160915"><ele>574.0</ele><time>2026-05-02T08:11:40.961Z</time></trkpt><trkpt lat="44.099214" lon="11.3162151"><ele>571.6666666666667</ele><time>2026-05-02T08:11:41.953Z</time></trkpt><trkpt lat="44.0993389" lon="11.3163364"><ele>569.3333333333334</ele><time>2026-05-02T08:11:43.033Z</time></trkpt><trkpt lat="44.0994572" lon="11.3164613"><ele>567.0</ele><time>2026-05-02T08:11:44.033Z</time></trkpt><trkpt lat="44.099573" lon="11.3165961"><ele>567.0</ele><time>2026-05-02T08:11:45.032Z</time></trkpt><trkpt lat="44.0996818" lon="11.3167334"><ele>567.0</ele><time>2026-05-02T08:11:45.958Z</time></trkpt><trkpt lat="44.0997722" lon="11.3168722"><ele>567.0</ele><time>2026-05-02T08:11:46.96Z</time></trkpt><trkpt lat="44.0998392" lon="11.3170131"><ele>567.0</ele><time>2026-05-02T08:11:47.947Z</time></trkpt><trkpt lat="44.0998841" lon="11.3171478"><ele>569.25</ele><time>2026-05-02T08:11:48.956Z</time></trkpt><trkpt lat="44.0999182" lon="11.3172835"><ele>571.5</ele><time>2026-05-02T08:11:49.958Z</time></trkpt><trkpt lat="44.0999174" lon="11.3174384"><ele>573.75</ele><time>2026-05-02T08:11:50.944Z</time></trkpt><trkpt lat="44.0998944" lon="11.3176169"><ele>576.0</ele><time>2026-05-02T08:11:51.952Z</time></trkpt><trkpt lat="44.0998657" lon="11.3177622"><ele>576.0</ele><time>2026-05-02T08:11:53.031Z</time></trkpt><trkpt lat="44.0998144" lon="11.3178953"><ele>576.0</ele><time>2026-05-02T08:11:53.973Z</time></trkpt><trkpt lat="44.0997468" lon="11.3180044"><ele>576.0</ele><time>2026-05-02T08:11:54.967Z</time></trkpt><trkpt lat="44.0996808" lon="11.318095"><ele>576.0</ele><time>2026-05-02T08:11:55.976Z</time></trkpt><trkpt lat="44.0996478" lon="11.3181895"><ele>576.0</ele><time>2026-05-02T08:11:56.972Z</time></trkpt><trkpt lat="44.0996429" lon="11.3183181"><ele>573.8</ele><time>2026-05-02T08:11:57.969Z</time></trkpt><trkpt lat="44.0996744" lon="11.3184288"><ele>571.6</ele><time>2026-05-02T08:11:58.968Z</time></trkpt><trkpt lat="44.0997173" lon="11.3185387"><ele>569.4</ele><time>2026-05-02T08:11:59.975Z</time></trkpt><trkpt lat="44.099764" lon="11.3186587"><ele>567.2</ele><time>2026-05-02T08:12:00.951Z</time></trkpt><trkpt lat="44.0998371" lon="11.3187876"><ele>565.0</ele><time>2026-05-02T08:12:02.033Z</time></trkpt><trkpt lat="44.0999283" lon="11.3189026"><ele>558.75</ele><time>2026-05-02T08:12:02.96Z</time></trkpt><trkpt lat="44.1000098" lon="11.3190409"><ele>552.5</ele><time>2026-05-02T08:12:04.031Z</time></trkpt><trkpt lat="44.1000618" lon="11.3192008"><ele>546.25</ele><time>2026-05-02T08:12:05.033Z</time></trkpt><trkpt lat="44.1000999" lon="11.3193612"><ele>540.0</ele><time>2026-05-02T08:12:05.958Z</time></trkpt><trkpt lat="44.1001204" lon="11.3195246"><ele>540.0</ele><time>2026-05-02T08:12:06.954Z</time></trkpt><trkpt lat="44.1001261" lon="11.3196781"><ele>540.0</ele><time>2026-05-02T08:12:07.982Z</time></trkpt><trkpt lat="44.1001501" lon="11.3198248"><ele>540.0</ele><time>2026-05-02T08:12:09.028Z</time></trkpt><trkpt lat="44.100219" lon="11.3199481"><ele>540.0</ele><time>2026-05-02T08:12:09.966Z</time></trkpt><trkpt lat="44.1003116" lon="11.320052"><ele>544.25</ele><time>2026-05-02T08:12:10.954Z</time></trkpt><trkpt lat="44.1004422" lon="11.3201188"><ele>548.5</ele><time>2026-05-02T08:12:11.959Z</time></trkpt><trkpt lat="44.100564" lon="11.3201889"><ele>552.75</ele><time>2026-05-02T08:12:12.993Z</time></trkpt><trkpt lat="44.100685" lon="11.3203046"><ele>557.0</ele><time>2026-05-02T08:12:13.988Z</time></trkpt><trkpt lat="44.1008041" lon="11.320442"><ele>550.25</ele><time>2026-05-02T08:12:14.967Z</time></trkpt><trkpt lat="44.1008838" lon="11.3206016"><ele>543.5</ele><time>2026-05-02T08:12:15.964Z</time></trkpt><trkpt lat="44.1009454" lon="11.3207892"><ele>536.75</ele><time>2026-05-02T08:12:16.96Z</time></trkpt><trkpt lat="44.100995" lon="11.3209829"><ele>530.0</ele><time>2026-05-02T08:12:17.966Z</time></trkpt><trkpt lat="44.1010437" lon="11.3211765"><ele>530.0</ele><time>2026-05-02T08:12:18.965Z</time></trkpt><trkpt lat="44.1011035" lon="11.3213691"><ele>530.0</ele><time>2026-05-02T08:12:20.031Z</time></trkpt><trkpt lat="44.1011724" lon="11.321561"><ele>530.0</ele><time>2026-05-02T08:12:20.963Z</time></trkpt><trkpt lat="44.1012493" lon="11.3217287"><ele>530.0</ele><time>2026-05-02T08:12:21.959Z</time></trkpt><trkpt lat="44.1013514" lon="11.3218674"><ele>533.75</ele><time>2026-05-02T08:12:22.958Z</time></trkpt><trkpt lat="44.1014372" lon="11.3220099"><ele>537.5</ele><time>2026-05-02T08:12:24.032Z</time></trkpt><trkpt lat="44.1015016" lon="11.3221894"><ele>541.25</ele><time>2026-05-02T08:12:25.033Z</time></trkpt><trkpt lat="44.1015513" lon="11.3223884"><ele>545.0</ele><time>2026-05-02T08:12:25.956Z</time></trkpt><trkpt lat="44.101601" lon="11.3225816"><ele>537.0</ele><time>2026-05-02T08:12:26.954Z</time></trkpt><trkpt lat="44.1016698" lon="11.3227581"><ele>529.0</ele><time>2026-05-02T08:12:27.976Z</time></trkpt><trkpt lat="44.1017319" lon="11.3229382"><ele>521.0</ele><time>2026-05-02T08:12:28.959Z</time></trkpt><trkpt lat="44.1017782" lon="11.3231153"><ele>513.0</ele><time>2026-05-02T08:12:29.947Z</time></trkpt><trkpt lat="44.1018064" lon="11.3233108"><ele>513.0</ele><time>2026-05-02T08:12:30.942Z</time></trkpt><trkpt lat="44.1018208" lon="11.323514"><ele>513.0</ele><time>2026-05-02T08:12:31.955Z</time></trkpt><trkpt lat="44.1018411" lon="11.3237112"><ele>513.0</ele><time>2026-05-02T08:12:33.011Z</time></trkpt><trkpt lat="44.1018603" lon="11.323923"><ele>513.0</ele><time>2026-05-02T08:12:34.036Z</time></trkpt><trkpt lat="44.1018808" lon="11.3241365"><ele>512.75</ele><time>2026-05-02T08:12:34.957Z</time></trkpt><trkpt lat="44.1018945" lon="11.3243311"><ele>512.5</ele><time>2026-05-02T08:12:35.954Z</time></trkpt><trkpt lat="44.1019367" lon="11.3245045"><ele>512.25</ele><time>2026-05-02T08:12:36.969Z</time></trkpt><trkpt lat="44.1019913" lon="11.3246539"><ele>512.0</ele><time>2026-05-02T08:12:37.96Z</time></trkpt><trkpt lat="44.1020748" lon="11.3247634"><ele>512.0</ele><time>2026-05-02T08:12:38.968Z</time></trkpt><trkpt lat="44.1021745" lon="11.3248503"><ele>512.0</ele><time>2026-05-02T08:12:39.95Z</time></trkpt><trkpt lat="44.1022877" lon="11.324905"><ele>512.0</ele><time>2026-05-02T08:12:40.965Z</time></trkpt><trkpt lat="44.1023892" lon="11.3249565"><ele>512.0</ele><time>2026-05-02T08:12:42.022Z</time></trkpt><trkpt lat="44.1024869" lon="11.3250153"><ele>509.6</ele><time>2026-05-02T08:12:42.956Z</time></trkpt><trkpt lat="44.1025822" lon="11.3250822"><ele>507.20000000000005</ele><time>2026-05-02T08:12:44.026Z</time></trkpt><trkpt lat="44.102664" lon="11.3251669"><ele>504.8</ele><time>2026-05-02T08:12:45.038Z</time></trkpt><trkpt lat="44.1027397" lon="11.3252645"><ele>502.4</ele><time>2026-05-02T08:12:45.966Z</time></trkpt><trkpt lat="44.1028183" lon="11.3253908"><ele>500.0</ele><time>2026-05-02T08:12:46.977Z</time></trkpt><trkpt lat="44.1028883" lon="11.3255406"><ele>502.0</ele><time>2026-05-02T08:12:48.009Z</time></trkpt><trkpt lat="44.1029704" lon="11.3256866"><ele>504.0</ele><time>2026-05-02T08:12:48.969Z</time></trkpt><trkpt lat="44.103056" lon="11.325814"><ele>506.0</ele><time>2026-05-02T08:12:49.961Z</time></trkpt><trkpt lat="44.1031397" lon="11.3259358"><ele>508.0</ele><time>2026-05-02T08:12:50.966Z</time></trkpt><trkpt lat="44.1032148" lon="11.3260742"><ele>505.25</ele><time>2026-05-02T08:12:51.969Z</time></trkpt><trkpt lat="44.1032765" lon="11.3262378"><ele>502.5</ele><time>2026-05-02T08:12:53.039Z</time></trkpt><trkpt lat="44.1033353" lon="11.3264061"><ele>499.75</ele><time>2026-05-02T08:12:54.034Z</time></trkpt><trkpt lat="44.1034059" lon="11.3265939"><ele>497.0</ele><time>2026-05-02T08:12:54.938Z</time></trkpt><trkpt lat="44.1034757" lon="11.3267905"><ele>497.0</ele><time>2026-05-02T08:12:55.952Z</time></trkpt><trkpt lat="44.1035419" lon="11.3269852"><ele>497.0</ele><time>2026-05-02T08:12:57.033Z</time></trkpt><trkpt lat="44.103603" lon="11.3271854"><ele>497.0</ele><time>2026-05-02T08:12:58.029Z</time></trkpt><trkpt lat="44.1036588" lon="11.3273924"><ele>499.3333333333333</ele><time>2026-05-02T08:12:59.024Z</time></trkpt><trkpt lat="44.1037161" lon="11.327599"><ele>501.66666666666663</ele><time>2026-05-02T08:12:59.958Z</time></trkpt><trkpt lat="44.1037685" lon="11.3278003"><ele>504.0</ele><time>2026-05-02T08:13:00.969Z</time></trkpt><trkpt lat="44.1038245" lon="11.3279856"><ele>504.5</ele><time>2026-05-02T08:13:01.962Z</time></trkpt><trkpt lat="44.1038715" lon="11.3281584"><ele>505.0</ele><time>2026-05-02T08:13:03.008Z</time></trkpt><trkpt lat="44.1038907" lon="11.3283308"><ele>505.5</ele><time>2026-05-02T08:13:04.021Z</time></trkpt><trkpt lat="44.1038836" lon="11.3285175"><ele>506.0</ele><time>2026-05-02T08:13:04.959Z</time></trkpt><trkpt lat="44.1038547" lon="11.3286894"><ele>506.0</ele><time>2026-05-02T08:13:05.962Z</time></trkpt><trkpt lat="44.1038321" lon="11.3288669"><ele>506.0</ele><time>2026-05-02T08:13:06.969Z</time></trkpt><trkpt lat="44.1038334" lon="11.3290554"><ele>506.0</ele><time>2026-05-02T08:13:08.066Z</time></trkpt><trkpt lat="44.1038588" lon="11.3292465"><ele>506.0</ele><time>2026-05-02T08:13:08.97Z</time></trkpt><trkpt lat="44.1039137" lon="11.3294539"><ele>505.3333333333333</ele><time>2026-05-02T08:13:09.965Z</time></trkpt><trkpt lat="44.1039608" lon="11.3296696"><ele>504.66666666666663</ele><time>2026-05-02T08:13:10.948Z</time></trkpt><trkpt lat="44.1039746" lon="11.3298884"><ele>504.0</ele><time>2026-05-02T08:13:11.967Z</time></trkpt><trkpt lat="44.1039736" lon="11.3301104"><ele>505.33333333333337</ele><time>2026-05-02T08:13:12.96Z</time></trkpt><trkpt lat="44.1039813" lon="11.3303298"><ele>506.6666666666667</ele><time>2026-05-02T08:13:13.969Z</time></trkpt><trkpt lat="44.1039851" lon="11.3305504"><ele>508.0</ele><time>2026-05-02T08:13:15.045Z</time></trkpt><trkpt lat="44.1039759" lon="11.3307772"><ele>508.0</ele><time>2026-05-02T08:13:15.962Z</time></trkpt><trkpt lat="44.1039506" lon="11.3309935"><ele>508.0</ele><time>2026-05-02T08:13:16.962Z</time></trkpt><trkpt lat="44.1039044" lon="11.3312066"><ele>508.0</ele><time>2026-05-02T08:13:17.974Z</time></trkpt><trkpt lat="44.1038718" lon="11.331422"><ele>505.33333333333337</ele><time>2026-05-02T08:13:18.962Z</time></trkpt><trkpt lat="44.1038554" lon="11.3316477"><ele>502.66666666666663</ele><time>2026-05-02T08:13:19.961Z</time></trkpt><trkpt lat="44.1038518" lon="11.3318853"><ele>500.0</ele><time>2026-05-02T08:13:20.958Z</time></trkpt><trkpt lat="44.1038681" lon="11.3321219"><ele>499.3333333333333</ele><time>2026-05-02T08:13:21.965Z</time></trkpt><trkpt lat="44.103885" lon="11.3323503"><ele>498.66666666666663</ele><time>2026-05-02T08:13:23.054Z</time></trkpt><trkpt lat="44.1038816" lon="11.3325836"><ele>498.0</ele><time>2026-05-02T08:13:24.018Z</time></trkpt><trkpt lat="44.1038678" lon="11.332806"><ele>498.0</ele><time>2026-05-02T08:13:25.032Z</time></trkpt><trkpt lat="44.1038611" lon="11.3330245"><ele>498.0</ele><time>2026-05-02T08:13:25.949Z</time></trkpt><trkpt lat="44.1038864" lon="11.3332523"><ele>498.0</ele><time>2026-05-02T08:13:26.962Z</time></trkpt><trkpt lat="44.1039285" lon="11.3334872"><ele>498.66666666666663</ele><time>2026-05-02T08:13:27.96Z</time></trkpt><trkpt lat="44.10398" lon="11.3337083"><ele>499.3333333333333</ele><time>2026-05-02T08:13:28.961Z</time></trkpt><trkpt lat="44.1040271" lon="11.3339063"><ele>500.0</ele><time>2026-05-02T08:13:29.966Z</time></trkpt><trkpt lat="44.104065" lon="11.3341022"><ele>501.25</ele><time>2026-05-02T08:13:30.962Z</time></trkpt><trkpt lat="44.1040795" lon="11.3342854"><ele>502.5</ele><time>2026-05-02T08:13:31.999Z</time></trkpt><trkpt lat="44.1040794" lon="11.3344841"><ele>503.75</ele><time>2026-05-02T08:13:33.02Z</time></trkpt><trkpt lat="44.1040815" lon="11.3346786"><ele>505.0</ele><time>2026-05-02T08:13:34.015Z</time></trkpt><trkpt lat="44.1040877" lon="11.3348627"><ele>504.25</ele><time>2026-05-02T08:13:34.951Z</time></trkpt><trkpt lat="44.1040889" lon="11.3350449"><ele>503.5</ele><time>2026-05-02T08:13:35.95Z</time></trkpt><trkpt lat="44.1040589" lon="11.3352355"><ele>502.75</ele><time>2026-05-02T08:13:36.965Z</time></trkpt><trkpt lat="44.1040059" lon="11.3354354"><ele>502.0</ele><time>2026-05-02T08:13:37.956Z</time></trkpt><trkpt lat="44.1039582" lon="11.3356274"><ele>500.0</ele><time>2026-05-02T08:13:39.083Z</time></trkpt><trkpt lat="44.1039314" lon="11.3358096"><ele>498.0</ele><time>2026-05-02T08:13:39.996Z</time></trkpt><trkpt lat="44.1039185" lon="11.3359837"><ele>496.0</ele><time>2026-05-02T08:13:40.961Z</time></trkpt><trkpt lat="44.1039161" lon="11.3361558"><ele>494.0</ele><time>2026-05-02T08:13:41.964Z</time></trkpt><trkpt lat="44.1039277" lon="11.3363287"><ele>492.0</ele><time>2026-05-02T08:13:42.99Z</time></trkpt><trkpt lat="44.1039395" lon="11.3364939"><ele>490.0</ele><time>2026-05-02T08:13:43.978Z</time></trkpt><trkpt lat="44.1039393" lon="11.3366405"><ele>488.0</ele><time>2026-05-02T08:13:44.949Z</time></trkpt><trkpt lat="44.1039079" lon="11.3367706"><ele>486.0</ele><time>2026-05-02T08:13:45.954Z</time></trkpt><trkpt lat="44.1038502" lon="11.3368951"><ele>484.0</ele><time>2026-05-02T08:13:46.954Z</time></trkpt><trkpt lat="44.1037572" lon="11.3369886"><ele>484.0</ele><time>2026-05-02T08:13:47.957Z</time></trkpt><trkpt lat="44.1036605" lon="11.3370634"><ele>484.0</ele><time>2026-05-02T08:13:48.961Z</time></trkpt><trkpt lat="44.1035388" lon="11.3371078"><ele>484.0</ele><time>2026-05-02T08:13:49.952Z</time></trkpt><trkpt lat="44.1034061" lon="11.3371412"><ele>484.0</ele><time>2026-05-02T08:13:50.952Z</time></trkpt><trkpt lat="44.1032687" lon="11.3371987"><ele>482.25</ele><time>2026-05-02T08:13:51.958Z</time></trkpt><trkpt lat="44.1031295" lon="11.3372873"><ele>480.5</ele><time>2026-05-02T08:13:52.96Z</time></trkpt><trkpt lat="44.1029981" lon="11.3373865"><ele>478.75</ele><time>2026-05-02T08:13:53.959Z</time></trkpt><trkpt lat="44.1028742" lon="11.3374942"><ele>477.0</ele><time>2026-05-02T08:13:54.957Z</time></trkpt><trkpt lat="44.1027673" lon="11.337607"><ele>477.0</ele><time>2026-05-02T08:13:55.951Z</time></trkpt><trkpt lat="44.1027023" lon="11.3377537"><ele>477.0</ele><time>2026-05-02T08:13:57.032Z</time></trkpt><trkpt lat="44.1026574" lon="11.3379316"><ele>477.0</ele><time>2026-05-02T08:13:58.037Z</time></trkpt><trkpt lat="44.1026484" lon="11.3380958"><ele>477.0</ele><time>2026-05-02T08:13:58.952Z</time></trkpt><trkpt lat="44.1026541" lon="11.3382539"><ele>477.40000000000003</ele><time>2026-05-02T08:13:59.956Z</time></trkpt><trkpt lat="44.1026694" lon="11.3384102"><ele>477.80000000000007</ele><time>2026-05-02T08:14:00.96Z</time></trkpt><trkpt lat="44.1026841" lon="11.3385591"><ele>478.2</ele><time>2026-05-02T08:14:01.959Z</time></trkpt><trkpt lat="44.1027129" lon="11.3387049"><ele>478.6</ele><time>2026-05-02T08:14:02.964Z</time></trkpt><trkpt lat="44.1027707" lon="11.3388359"><ele>479.0</ele><time>2026-05-02T08:14:03.955Z</time></trkpt><trkpt lat="44.1028534" lon="11.338958"><ele>479.0</ele><time>2026-05-02T08:14:05.061Z</time></trkpt><trkpt lat="44.1029334" lon="11.3390883"><ele>479.0</ele><time>2026-05-02T08:14:05.959Z</time></trkpt><trkpt lat="44.1030226" lon="11.3392068"><ele>479.0</ele><time>2026-05-02T08:14:06.968Z</time></trkpt><trkpt lat="44.1031124" lon="11.3393243"><ele>479.0</ele><time>2026-05-02T08:14:07.963Z</time></trkpt><trkpt lat="44.1032139" lon="11.3394369"><ele>478.5</ele><time>2026-05-02T08:14:08.952Z</time></trkpt><trkpt lat="44.1033118" lon="11.3395415"><ele>478.0</ele><time>2026-05-02T08:14:09.952Z</time></trkpt><trkpt lat="44.1034127" lon="11.3396548"><ele>477.5</ele><time>2026-05-02T08:14:10.959Z</time></trkpt><trkpt lat="44.1035084" lon="11.3397697"><ele>477.0</ele><time>2026-05-02T08:14:11.954Z</time></trkpt><trkpt lat="44.1035974" lon="11.3398804"><ele>477.0</ele><time>2026-05-02T08:14:12.959Z</time></trkpt><trkpt lat="44.10368" lon="11.3400005"><ele>477.0</ele><time>2026-05-02T08:14:14.031Z</time></trkpt><trkpt lat="44.1037287" lon="11.3401434"><ele>477.0</ele><time>2026-05-02T08:14:14.971Z</time></trkpt><trkpt lat="44.1037179" lon="11.3403217"><ele>477.0</ele><time>2026-05-02T08:14:15.948Z</time></trkpt><trkpt lat="44.1037074" lon="11.3404981"><ele>476.5</ele><time>2026-05-02T08:14:16.969Z</time></trkpt><trkpt lat="44.10372" lon="11.3406841"><ele>476.0</ele><time>2026-05-02T08:14:17.981Z</time></trkpt><trkpt lat="44.1037321" lon="11.3408721"><ele>475.5</ele><time>2026-05-02T08:14:18.987Z</time></trkpt><trkpt lat="44.1038026" lon="11.3410251"><ele>475.0</ele><time>2026-05-02T08:14:19.964Z</time></trkpt><trkpt lat="44.1038948" lon="11.3411607"><ele>475.0</ele><time>2026-05-02T08:14:20.945Z</time></trkpt><trkpt lat="44.1040033" lon="11.3412812"><ele>475.0</ele><time>2026-05-02T08:14:21.964Z</time></trkpt><trkpt lat="44.1041173" lon="11.3413814"><ele>475.0</ele><time>2026-05-02T08:14:22.957Z</time></trkpt><trkpt lat="44.1042242" lon="11.3414756"><ele>475.0</ele><time>2026-05-02T08:14:23.956Z</time></trkpt><trkpt lat="44.1043169" lon="11.3415753"><ele>470.33333333333337</ele><time>2026-05-02T08:14:25.062Z</time></trkpt><trkpt lat="44.1044892" lon="11.3418123"><ele>465.66666666666663</ele><time>2026-05-02T08:14:26.954Z</time></trkpt><trkpt lat="44.1045716" lon="11.3419424"><ele>461.0</ele><time>2026-05-02T08:14:27.964Z</time></trkpt><trkpt lat="44.1046533" lon="11.3420785"><ele>461.0</ele><time>2026-05-02T08:14:29.036Z</time></trkpt><trkpt lat="44.1047402" lon="11.3421984"><ele>461.0</ele><time>2026-05-02T08:14:30.042Z</time></trkpt><trkpt lat="44.1048402" lon="11.3423097"><ele>461.0</ele><time>2026-05-02T08:14:30.969Z</time></trkpt><trkpt lat="44.1049531" lon="11.3423993"><ele>461.0</ele><time>2026-05-02T08:14:31.965Z</time></trkpt><trkpt lat="44.105074" lon="11.3424846"><ele>461.5</ele><time>2026-05-02T08:14:32.991Z</time></trkpt><trkpt lat="44.1051943" lon="11.3425692"><ele>462.0</ele><time>2026-05-02T08:14:34.031Z</time></trkpt><trkpt lat="44.1053064" lon="11.3426719"><ele>462.5</ele><time>2026-05-02T08:14:35.041Z</time></trkpt><trkpt lat="44.1054008" lon="11.3427923"><ele>463.0</ele><time>2026-05-02T08:14:35.96Z</time></trkpt><trkpt lat="44.1055004" lon="11.3429309"><ele>462.5</ele><time>2026-05-02T08:14:36.953Z</time></trkpt><trkpt lat="44.1055998" lon="11.3430653"><ele>462.0</ele><time>2026-05-02T08:14:37.975Z</time></trkpt><trkpt lat="44.1057045" lon="11.3432053"><ele>461.5</ele><time>2026-05-02T08:14:39.028Z</time></trkpt><trkpt lat="44.105812" lon="11.3433453"><ele>461.0</ele><time>2026-05-02T08:14:39.961Z</time></trkpt><trkpt lat="44.1059147" lon="11.3434866"><ele>461.0</ele><time>2026-05-02T08:14:40.967Z</time></trkpt><trkpt lat="44.10602" lon="11.3436405"><ele>461.0</ele><time>2026-05-02T08:14:41.964Z</time></trkpt><trkpt lat="44.1061287" lon="11.3438035"><ele>461.0</ele><time>2026-05-02T08:14:42.96Z</time></trkpt><trkpt lat="44.1062385" lon="11.3439582"><ele>463.0</ele><time>2026-05-02T08:14:43.966Z</time></trkpt><trkpt lat="44.1063517" lon="11.3441132"><ele>465.0</ele><time>2026-05-02T08:14:44.982Z</time></trkpt><trkpt lat="44.1064633" lon="11.3442765"><ele>467.0</ele><time>2026-05-02T08:14:45.962Z</time></trkpt><trkpt lat="44.1065663" lon="11.3444419"><ele>465.3333333333333</ele><time>2026-05-02T08:14:47.045Z</time></trkpt><trkpt lat="44.1066576" lon="11.3446137"><ele>463.66666666666663</ele><time>2026-05-02T08:14:48.029Z</time></trkpt><trkpt lat="44.106728" lon="11.3448171"><ele>462.0</ele><time>2026-05-02T08:14:48.947Z</time></trkpt><trkpt lat="44.106774" lon="11.3450451"><ele>462.0</ele><time>2026-05-02T08:14:49.959Z</time></trkpt><trkpt lat="44.1068102" lon="11.345282"><ele>462.0</ele><time>2026-05-02T08:14:50.97Z</time></trkpt><trkpt lat="44.1068266" lon="11.345522"><ele>462.0</ele><time>2026-05-02T08:14:51.962Z</time></trkpt><trkpt lat="44.1068116" lon="11.3457655"><ele>460.66666666666663</ele><time>2026-05-02T08:14:52.967Z</time></trkpt><trkpt lat="44.1067883" lon="11.3460072"><ele>459.3333333333333</ele><time>2026-05-02T08:14:54.031Z</time></trkpt><trkpt lat="44.1067612" lon="11.3462516"><ele>458.0</ele><time>2026-05-02T08:14:55.036Z</time></trkpt><trkpt lat="44.1067402" lon="11.3464976"><ele>458.0</ele><time>2026-05-02T08:14:55.957Z</time></trkpt><trkpt lat="44.1067239" lon="11.346752"><ele>458.0</ele><time>2026-05-02T08:14:56.958Z</time></trkpt><trkpt lat="44.1067168" lon="11.346995"><ele>458.0</ele><time>2026-05-02T08:14:57.99Z</time></trkpt><trkpt lat="44.1067183" lon="11.3472152"><ele>457.25</ele><time>2026-05-02T08:14:58.958Z</time></trkpt><trkpt lat="44.1067143" lon="11.3474198"><ele>456.5</ele><time>2026-05-02T08:14:59.964Z</time></trkpt><trkpt lat="44.1067118" lon="11.3476098"><ele>455.75</ele><time>2026-05-02T08:15:00.964Z</time></trkpt><trkpt lat="44.1067051" lon="11.3477867"><ele>455.0</ele><time>2026-05-02T08:15:01.95Z</time></trkpt><trkpt lat="44.1067015" lon="11.347965"><ele>454.5</ele><time>2026-05-02T08:15:03.031Z</time></trkpt><trkpt lat="44.1067021" lon="11.3481355"><ele>454.0</ele><time>2026-05-02T08:15:04.035Z</time></trkpt><trkpt lat="44.1067038" lon="11.3483073"><ele>453.5</ele><time>2026-05-02T08:15:05.046Z</time></trkpt><trkpt lat="44.1067072" lon="11.3484729"><ele>453.0</ele><time>2026-05-02T08:15:05.955Z</time></trkpt><trkpt lat="44.1067126" lon="11.3486426"><ele>453.0</ele><time>2026-05-02T08:15:06.961Z</time></trkpt><trkpt lat="44.1067348" lon="11.3488131"><ele>453.0</ele><time>2026-05-02T08:15:07.985Z</time></trkpt><trkpt lat="44.1067807" lon="11.3489791"><ele>453.0</ele><time>2026-05-02T08:15:09.039Z</time></trkpt><trkpt lat="44.1068393" lon="11.3491339"><ele>453.0</ele><time>2026-05-02T08:15:10.011Z</time></trkpt><trkpt lat="44.1069206" lon="11.3492795"><ele>454.0</ele><time>2026-05-02T08:15:10.95Z</time></trkpt><trkpt lat="44.1070185" lon="11.3494071"><ele>455.0</ele><time>2026-05-02T08:15:11.956Z</time></trkpt><trkpt lat="44.107118" lon="11.3495299"><ele>456.0</ele><time>2026-05-02T08:15:12.969Z</time></trkpt><trkpt lat="44.1072236" lon="11.3496426"><ele>457.0</ele><time>2026-05-02T08:15:14.039Z</time></trkpt><trkpt lat="44.1073374" lon="11.3497569"><ele>454.75</ele><time>2026-05-02T08:15:15.036Z</time></trkpt><trkpt lat="44.1074492" lon="11.3498819"><ele>452.5</ele><time>2026-05-02T08:15:15.956Z</time></trkpt><trkpt lat="44.1075564" lon="11.3500116"><ele>450.25</ele><time>2026-05-02T08:15:16.966Z</time></trkpt><trkpt lat="44.1076548" lon="11.3501486"><ele>448.0</ele><time>2026-05-02T08:15:17.972Z</time></trkpt><trkpt lat="44.1077533" lon="11.3502774"><ele>448.0</ele><time>2026-05-02T08:15:19.009Z</time></trkpt><trkpt lat="44.1078484" lon="11.3503911"><ele>448.0</ele><time>2026-05-02T08:15:20.028Z</time></trkpt><trkpt lat="44.1079565" lon="11.3504827"><ele>448.0</ele><time>2026-05-02T08:15:20.954Z</time></trkpt><trkpt lat="44.1080711" lon="11.3505559"><ele>448.0</ele><time>2026-05-02T08:15:21.962Z</time></trkpt><trkpt lat="44.1081768" lon="11.3506297"><ele>447.25</ele><time>2026-05-02T08:15:22.965Z</time></trkpt><trkpt lat="44.1082794" lon="11.3507162"><ele>446.5</ele><time>2026-05-02T08:15:24.034Z</time></trkpt><trkpt lat="44.1083758" lon="11.3508175"><ele>445.75</ele><time>2026-05-02T08:15:25.017Z</time></trkpt><trkpt lat="44.1084504" lon="11.3509319"><ele>445.0</ele><time>2026-05-02T08:15:25.973Z</time></trkpt><trkpt lat="44.1085121" lon="11.3510527"><ele>445.00000000000006</ele><time>2026-05-02T08:15:26.939Z</time></trkpt><trkpt lat="44.108558" lon="11.3511708"><ele>445.0</ele><time>2026-05-02T08:15:27.959Z</time></trkpt><trkpt lat="44.1085851" lon="11.3512878"><ele>445.0</ele><time>2026-05-02T08:15:28.961Z</time></trkpt><trkpt lat="44.1085975" lon="11.3513963"><ele>445.0</ele><time>2026-05-02T08:15:29.962Z</time></trkpt><trkpt lat="44.1086068" lon="11.351495"><ele>445.00000000000006</ele><time>2026-05-02T08:15:30.963Z</time></trkpt><trkpt lat="44.1086091" lon="11.3515831"><ele>445.0</ele><time>2026-05-02T08:15:31.96Z</time></trkpt><trkpt lat="44.108569" lon="11.3517168"><ele>444.83333333333337</ele><time>2026-05-02T08:15:33.967Z</time></trkpt><trkpt lat="44.1085112" lon="11.3517665"><ele>444.6666666666667</ele><time>2026-05-02T08:15:35.964Z</time></trkpt><trkpt lat="44.1084509" lon="11.3517989"><ele>444.5</ele><time>2026-05-02T08:17:08.951Z</time></trkpt><trkpt lat="44.1083737" lon="11.3518581"><ele>444.33333333333337</ele><time>2026-05-02T08:17:10.957Z</time></trkpt><trkpt lat="44.1082718" lon="11.3519115"><ele>444.1666666666667</ele><time>2026-05-02T08:17:12.954Z</time></trkpt><trkpt lat="44.1081707" lon="11.3519449"><ele>444.0</ele><time>2026-05-02T08:17:14.957Z</time></trkpt><trkpt lat="44.1081077" lon="11.351938"><ele>444.0</ele><time>2026-05-02T08:20:58.957Z</time></trkpt><trkpt lat="44.1080458" lon="11.3519078"><ele>444.0</ele><time>2026-05-02T08:21:01.955Z</time></trkpt><trkpt lat="44.108129" lon="11.3518553"><ele>444.0</ele><time>2026-05-02T08:21:04.969Z</time></trkpt><trkpt lat="44.1082479" lon="11.3519208"><ele>444.0</ele><time>2026-05-02T08:21:06.961Z</time></trkpt><trkpt lat="44.1083276" lon="11.351934"><ele>444.0</ele><time>2026-05-02T08:21:07.973Z</time></trkpt><trkpt lat="44.1084154" lon="11.3519328"><ele>444.0</ele><time>2026-05-02T08:21:08.966Z</time></trkpt><trkpt lat="44.1084887" lon="11.3519431"><ele>444.0</ele><time>2026-05-02T08:21:09.968Z</time></trkpt><trkpt lat="44.1085589" lon="11.3519796"><ele>444.0</ele><time>2026-05-02T08:21:10.961Z</time></trkpt><trkpt lat="44.108614" lon="11.352047"><ele>444.0</ele><time>2026-05-02T08:21:12.038Z</time></trkpt><trkpt lat="44.1086413" lon="11.3521462"><ele>444.0</ele><time>2026-05-02T08:21:13.027Z</time></trkpt><trkpt lat="44.108661" lon="11.3522603"><ele>444.0</ele><time>2026-05-02T08:21:13.961Z</time></trkpt><trkpt lat="44.1086815" lon="11.3523846"><ele>443.79999999999995</ele><time>2026-05-02T08:21:14.964Z</time></trkpt><trkpt lat="44.1086895" lon="11.3525245"><ele>443.59999999999997</ele><time>2026-05-02T08:21:15.958Z</time></trkpt><trkpt lat="44.1087081" lon="11.3526738"><ele>443.4</ele><time>2026-05-02T08:21:16.962Z</time></trkpt><trkpt lat="44.1087168" lon="11.3528332"><ele>443.2</ele><time>2026-05-02T08:21:17.966Z</time></trkpt><trkpt lat="44.1087227" lon="11.3529958"><ele>443.0</ele><time>2026-05-02T08:21:18.972Z</time></trkpt><trkpt lat="44.1087371" lon="11.3531527"><ele>443.0</ele><time>2026-05-02T08:21:19.954Z</time></trkpt><trkpt lat="44.1087511" lon="11.3533048"><ele>443.0</ele><time>2026-05-02T08:21:20.962Z</time></trkpt><trkpt lat="44.1087603" lon="11.3534684"><ele>443.0</ele><time>2026-05-02T08:21:21.961Z</time></trkpt><trkpt lat="44.1087725" lon="11.3536353"><ele>443.0</ele><time>2026-05-02T08:21:22.966Z</time></trkpt><trkpt lat="44.108786" lon="11.3537998"><ele>442.75</ele><time>2026-05-02T08:21:23.961Z</time></trkpt><trkpt lat="44.1088019" lon="11.3539714"><ele>442.5</ele><time>2026-05-02T08:21:24.971Z</time></trkpt><trkpt lat="44.1088158" lon="11.354144"><ele>442.25</ele><time>2026-05-02T08:21:25.971Z</time></trkpt><trkpt lat="44.1088101" lon="11.3543165"><ele>442.0</ele><time>2026-05-02T08:21:26.962Z</time></trkpt><trkpt lat="44.1087999" lon="11.3544833"><ele>442.0</ele><time>2026-05-02T08:21:28.045Z</time></trkpt><trkpt lat="44.1087971" lon="11.3546496"><ele>442.0</ele><time>2026-05-02T08:21:29.031Z</time></trkpt><trkpt lat="44.1087973" lon="11.3548084"><ele>442.0</ele><time>2026-05-02T08:21:30.034Z</time></trkpt><trkpt lat="44.1088055" lon="11.3549716"><ele>442.0</ele><time>2026-05-02T08:21:30.958Z</time></trkpt><trkpt lat="44.1088164" lon="11.3551418"><ele>442.0</ele><time>2026-05-02T08:21:31.96Z</time></trkpt><trkpt lat="44.1088232" lon="11.3553061"><ele>442.0</ele><time>2026-05-02T08:21:32.983Z</time></trkpt><trkpt lat="44.1088381" lon="11.3554732"><ele>442.0</ele><time>2026-05-02T08:21:34.037Z</time></trkpt><trkpt lat="44.1088519" lon="11.3556441"><ele>442.0</ele><time>2026-05-02T08:21:35.035Z</time></trkpt><trkpt lat="44.1088638" lon="11.3558158"><ele>442.25</ele><time>2026-05-02T08:21:35.953Z</time></trkpt><trkpt lat="44.1088769" lon="11.3559918"><ele>442.5</ele><time>2026-05-02T08:21:36.946Z</time></trkpt><trkpt lat="44.1088974" lon="11.3561755"><ele>442.75</ele><time>2026-05-02T08:21:38.026Z</time></trkpt><trkpt lat="44.1089134" lon="11.3563616"><ele>443.0</ele><time>2026-05-02T08:21:39.031Z</time></trkpt><trkpt lat="44.1089366" lon="11.3565476"><ele>443.25</ele><time>2026-05-02T08:21:40.032Z</time></trkpt><trkpt lat="44.1089691" lon="11.356737"><ele>443.5</ele><time>2026-05-02T08:21:40.967Z</time></trkpt><trkpt lat="44.1090126" lon="11.3569254"><ele>443.75</ele><time>2026-05-02T08:21:41.973Z</time></trkpt><trkpt lat="44.1090609" lon="11.357119"><ele>444.0</ele><time>2026-05-02T08:21:43Z</time></trkpt><trkpt lat="44.1091258" lon="11.3573034"><ele>444.0</ele><time>2026-05-02T08:21:44.027Z</time></trkpt><trkpt lat="44.1091937" lon="11.357487"><ele>444.0</ele><time>2026-05-02T08:21:45.037Z</time></trkpt><trkpt lat="44.1092757" lon="11.3576617"><ele>444.0</ele><time>2026-05-02T08:21:46.001Z</time></trkpt><trkpt lat="44.1093623" lon="11.3578239"><ele>444.0</ele><time>2026-05-02T08:21:46.964Z</time></trkpt><trkpt lat="44.1094546" lon="11.3579709"><ele>445.0</ele><time>2026-05-02T08:21:48.032Z</time></trkpt><trkpt lat="44.1095515" lon="11.3580991"><ele>446.0</ele><time>2026-05-02T08:21:48.981Z</time></trkpt><trkpt lat="44.109643" lon="11.3582382"><ele>447.0</ele><time>2026-05-02T08:21:50.032Z</time></trkpt><trkpt lat="44.109734" lon="11.3583761"><ele>448.0</ele><time>2026-05-02T08:21:50.959Z</time></trkpt><trkpt lat="44.109818" lon="11.358526"><ele>448.0</ele><time>2026-05-02T08:21:51.96Z</time></trkpt><trkpt lat="44.1099005" lon="11.3586802"><ele>448.0</ele><time>2026-05-02T08:21:52.966Z</time></trkpt><trkpt lat="44.1099871" lon="11.3588414"><ele>448.0</ele><time>2026-05-02T08:21:54.053Z</time></trkpt><trkpt lat="44.1100848" lon="11.359002"><ele>448.0</ele><time>2026-05-02T08:21:54.96Z</time></trkpt><trkpt lat="44.1101892" lon="11.3591595"><ele>446.0</ele><time>2026-05-02T08:21:55.97Z</time></trkpt><trkpt lat="44.1102931" lon="11.3593215"><ele>444.0</ele><time>2026-05-02T08:21:56.96Z</time></trkpt><trkpt lat="44.110394" lon="11.3594939"><ele>442.0</ele><time>2026-05-02T08:21:57.962Z</time></trkpt><trkpt lat="44.1104945" lon="11.3596658"><ele>441.0</ele><time>2026-05-02T08:21:58.962Z</time></trkpt><trkpt lat="44.1105875" lon="11.3598427"><ele>440.0</ele><time>2026-05-02T08:21:59.97Z</time></trkpt><trkpt lat="44.1106677" lon="11.3600216"><ele>439.0</ele><time>2026-05-02T08:22:00.948Z</time></trkpt><trkpt lat="44.1107439" lon="11.360207"><ele>439.0</ele><time>2026-05-02T08:22:01.972Z</time></trkpt><trkpt lat="44.1108185" lon="11.3603955"><ele>439.0</ele><time>2026-05-02T08:22:02.964Z</time></trkpt><trkpt lat="44.110884" lon="11.3605845"><ele>439.0</ele><time>2026-05-02T08:22:03.964Z</time></trkpt><trkpt lat="44.1109413" lon="11.360779"><ele>439.6666666666667</ele><time>2026-05-02T08:22:04.961Z</time></trkpt><trkpt lat="44.1110008" lon="11.360982"><ele>440.33333333333337</ele><time>2026-05-02T08:22:05.963Z</time></trkpt><trkpt lat="44.1110612" lon="11.361187"><ele>441.0</ele><time>2026-05-02T08:22:06.966Z</time></trkpt><trkpt lat="44.1111275" lon="11.3613974"><ele>442.0</ele><time>2026-05-02T08:22:07.954Z</time></trkpt><trkpt lat="44.1111936" lon="11.3615944"><ele>443.0</ele><time>2026-05-02T08:22:09.043Z</time></trkpt><trkpt lat="44.1112523" lon="11.3617838"><ele>444.0</ele><time>2026-05-02T08:22:10.03Z</time></trkpt><trkpt lat="44.111322" lon="11.3619661"><ele>444.0</ele><time>2026-05-02T08:22:10.96Z</time></trkpt><trkpt lat="44.1114018" lon="11.3621481"><ele>444.0</ele><time>2026-05-02T08:22:11.964Z</time></trkpt><trkpt lat="44.1114951" lon="11.3623182"><ele>444.0</ele><time>2026-05-02T08:22:12.955Z</time></trkpt><trkpt lat="44.1115934" lon="11.3624882"><ele>441.5</ele><time>2026-05-02T08:22:14.047Z</time></trkpt><trkpt lat="44.1116935" lon="11.3626439"><ele>439.0</ele><time>2026-05-02T08:22:14.965Z</time></trkpt><trkpt lat="44.1117969" lon="11.3627886"><ele>436.5</ele><time>2026-05-02T08:22:15.961Z</time></trkpt><trkpt lat="44.11191" lon="11.3629176"><ele>434.0</ele><time>2026-05-02T08:22:16.976Z</time></trkpt><trkpt lat="44.1120297" lon="11.3630294"><ele>434.5</ele><time>2026-05-02T08:22:18.031Z</time></trkpt><trkpt lat="44.1121499" lon="11.3631383"><ele>435.0</ele><time>2026-05-02T08:22:18.988Z</time></trkpt><trkpt lat="44.1122751" lon="11.3632447"><ele>435.5</ele><time>2026-05-02T08:22:19.962Z</time></trkpt><trkpt lat="44.1124056" lon="11.3633429"><ele>436.0</ele><time>2026-05-02T08:22:20.955Z</time></trkpt><trkpt lat="44.1125393" lon="11.3634415"><ele>436.0</ele><time>2026-05-02T08:22:21.963Z</time></trkpt><trkpt lat="44.112678" lon="11.3635429"><ele>436.0</ele><time>2026-05-02T08:22:22.973Z</time></trkpt><trkpt lat="44.1128204" lon="11.3636462"><ele>436.0</ele><time>2026-05-02T08:22:23.965Z</time></trkpt><trkpt lat="44.1129584" lon="11.3637573"><ele>435.33333333333337</ele><time>2026-05-02T08:22:24.98Z</time></trkpt><trkpt lat="44.1130967" lon="11.3638687"><ele>434.66666666666663</ele><time>2026-05-02T08:22:25.976Z</time></trkpt><trkpt lat="44.1132424" lon="11.3639803"><ele>434.0</ele><time>2026-05-02T08:22:26.953Z</time></trkpt><trkpt lat="44.1133834" lon="11.3640899"><ele>434.0</ele><time>2026-05-02T08:22:27.987Z</time></trkpt><trkpt lat="44.1135108" lon="11.3641998"><ele>434.0</ele><time>2026-05-02T08:22:28.969Z</time></trkpt><trkpt lat="44.1136263" lon="11.3643113"><ele>434.0</ele><time>2026-05-02T08:22:29.961Z</time></trkpt><trkpt lat="44.1137347" lon="11.3644271"><ele>434.0</ele><time>2026-05-02T08:22:30.974Z</time></trkpt><trkpt lat="44.1138397" lon="11.3645469"><ele>434.0</ele><time>2026-05-02T08:22:32.042Z</time></trkpt><trkpt lat="44.1139345" lon="11.3646736"><ele>434.0</ele><time>2026-05-02T08:22:33.026Z</time></trkpt><trkpt lat="44.1140289" lon="11.3648167"><ele>434.0</ele><time>2026-05-02T08:22:34.034Z</time></trkpt><trkpt lat="44.1141172" lon="11.3649644"><ele>434.0</ele><time>2026-05-02T08:22:34.974Z</time></trkpt><trkpt lat="44.1141994" lon="11.3651192"><ele>434.0</ele><time>2026-05-02T08:22:35.962Z</time></trkpt><trkpt lat="44.1142762" lon="11.3652919"><ele>434.0</ele><time>2026-05-02T08:22:36.975Z</time></trkpt><trkpt lat="44.1143441" lon="11.3654692"><ele>434.0</ele><time>2026-05-02T08:22:37.97Z</time></trkpt><trkpt lat="44.1144172" lon="11.3656362"><ele>434.0</ele><time>2026-05-02T08:22:38.977Z</time></trkpt><trkpt lat="44.1144779" lon="11.3658079"><ele>434.0</ele><time>2026-05-02T08:22:39.979Z</time></trkpt><trkpt lat="44.1145282" lon="11.3659916"><ele>434.0</ele><time>2026-05-02T08:22:40.982Z</time></trkpt><trkpt lat="44.1145778" lon="11.3661823"><ele>434.0</ele><time>2026-05-02T08:22:42.035Z</time></trkpt><trkpt lat="44.1146314" lon="11.3663757"><ele>434.0</ele><time>2026-05-02T08:22:43.036Z</time></trkpt><trkpt lat="44.114688" lon="11.3665743"><ele>436.0</ele><time>2026-05-02T08:22:43.97Z</time></trkpt><trkpt lat="44.1147427" lon="11.3667848"><ele>438.0</ele><time>2026-05-02T08:22:44.967Z</time></trkpt><trkpt lat="44.1147996" lon="11.3669936"><ele>440.0</ele><time>2026-05-02T08:22:45.965Z</time></trkpt><trkpt lat="44.1148525" lon="11.3672077"><ele>436.66666666666663</ele><time>2026-05-02T08:22:46.969Z</time></trkpt><trkpt lat="44.1149056" lon="11.3674255"><ele>433.33333333333337</ele><time>2026-05-02T08:22:47.968Z</time></trkpt><trkpt lat="44.1149618" lon="11.3676402"><ele>430.0</ele><time>2026-05-02T08:22:48.964Z</time></trkpt><trkpt lat="44.1150164" lon="11.3678537"><ele>432.33333333333337</ele><time>2026-05-02T08:22:50.05Z</time></trkpt><trkpt lat="44.1150735" lon="11.3680668"><ele>434.66666666666663</ele><time>2026-05-02T08:22:50.963Z</time></trkpt><trkpt lat="44.1151288" lon="11.3682801"><ele>437.0</ele><time>2026-05-02T08:22:51.965Z</time></trkpt><trkpt lat="44.1151901" lon="11.368492"><ele>437.0</ele><time>2026-05-02T08:22:52.99Z</time></trkpt><trkpt lat="44.1152463" lon="11.3686939"><ele>437.0</ele><time>2026-05-02T08:22:54.034Z</time></trkpt><trkpt lat="44.115299" lon="11.3688836"><ele>437.0</ele><time>2026-05-02T08:22:55.039Z</time></trkpt><trkpt lat="44.1153493" lon="11.3690681"><ele>437.0</ele><time>2026-05-02T08:22:55.96Z</time></trkpt><trkpt lat="44.1153974" lon="11.3692492"><ele>439.0</ele><time>2026-05-02T08:22:56.96Z</time></trkpt><trkpt lat="44.1154455" lon="11.3694197"><ele>441.0</ele><time>2026-05-02T08:22:57.988Z</time></trkpt><trkpt lat="44.1154889" lon="11.3695813"><ele>443.0</ele><time>2026-05-02T08:22:59.033Z</time></trkpt><trkpt lat="44.1155238" lon="11.3697575"><ele>445.0</ele><time>2026-05-02T08:23:00.03Z</time></trkpt><trkpt lat="44.1155511" lon="11.3699376"><ele>444.5</ele><time>2026-05-02T08:23:00.95Z</time></trkpt><trkpt lat="44.1155738" lon="11.3701333"><ele>444.0</ele><time>2026-05-02T08:23:01.961Z</time></trkpt><trkpt lat="44.115591" lon="11.3703344"><ele>443.5</ele><time>2026-05-02T08:23:02.953Z</time></trkpt><trkpt lat="44.1156008" lon="11.370549"><ele>443.0</ele><time>2026-05-02T08:23:04.015Z</time></trkpt><trkpt lat="44.115603" lon="11.3707666"><ele>443.0</ele><time>2026-05-02T08:23:05.036Z</time></trkpt><trkpt lat="44.1155912" lon="11.3709788"><ele>443.0</ele><time>2026-05-02T08:23:05.98Z</time></trkpt><trkpt lat="44.1155715" lon="11.3711822"><ele>443.0</ele><time>2026-05-02T08:23:06.969Z</time></trkpt><trkpt lat="44.115541" lon="11.3713754"><ele>443.0</ele><time>2026-05-02T08:23:07.971Z</time></trkpt><trkpt lat="44.1155062" lon="11.3715577"><ele>441.25</ele><time>2026-05-02T08:23:08.968Z</time></trkpt><trkpt lat="44.1154725" lon="11.3717409"><ele>439.5</ele><time>2026-05-02T08:23:09.975Z</time></trkpt><trkpt lat="44.1154388" lon="11.3719253"><ele>437.75</ele><time>2026-05-02T08:23:10.964Z</time></trkpt><trkpt lat="44.1154065" lon="11.3721059"><ele>436.0</ele><time>2026-05-02T08:23:11.961Z</time></trkpt><trkpt lat="44.1153741" lon="11.372278"><ele>433.75</ele><time>2026-05-02T08:23:12.976Z</time></trkpt><trkpt lat="44.115349" lon="11.3724454"><ele>431.5</ele><time>2026-05-02T08:23:13.987Z</time></trkpt><trkpt lat="44.1153314" lon="11.3726176"><ele>429.25</ele><time>2026-05-02T08:23:14.979Z</time></trkpt><trkpt lat="44.1153173" lon="11.3727942"><ele>427.0</ele><time>2026-05-02T08:23:15.974Z</time></trkpt><trkpt lat="44.1153078" lon="11.3729843"><ele>427.25</ele><time>2026-05-02T08:23:16.977Z</time></trkpt><trkpt lat="44.1153055" lon="11.3731729"><ele>427.5</ele><time>2026-05-02T08:23:17.974Z</time></trkpt><trkpt lat="44.1153019" lon="11.3733724"><ele>427.75</ele><time>2026-05-02T08:23:18.975Z</time></trkpt><trkpt lat="44.1152989" lon="11.3735742"><ele>428.0</ele><time>2026-05-02T08:23:19.973Z</time></trkpt><trkpt lat="44.1152976" lon="11.3737855"><ele>428.3333333333333</ele><time>2026-05-02T08:23:20.975Z</time></trkpt><trkpt lat="44.1152929" lon="11.3740007"><ele>428.66666666666663</ele><time>2026-05-02T08:23:21.98Z</time></trkpt><trkpt lat="44.1152901" lon="11.3742192"><ele>429.0</ele><time>2026-05-02T08:23:23.047Z</time></trkpt><trkpt lat="44.1152852" lon="11.3744348"><ele>429.0</ele><time>2026-05-02T08:23:24.032Z</time></trkpt><trkpt lat="44.1152729" lon="11.37465"><ele>429.0</ele><time>2026-05-02T08:23:24.989Z</time></trkpt><trkpt lat="44.1152494" lon="11.3748588"><ele>429.0</ele><time>2026-05-02T08:23:25.962Z</time></trkpt><trkpt lat="44.1152189" lon="11.3750743"><ele>428.33333333333337</ele><time>2026-05-02T08:23:26.967Z</time></trkpt><trkpt lat="44.1151851" lon="11.3752841"><ele>427.6666666666667</ele><time>2026-05-02T08:23:27.959Z</time></trkpt><trkpt lat="44.1151426" lon="11.3755035"><ele>427.0</ele><time>2026-05-02T08:23:28.964Z</time></trkpt><trkpt lat="44.1150968" lon="11.3757095"><ele>426.0</ele><time>2026-05-02T08:23:29.956Z</time></trkpt><trkpt lat="44.1150426" lon="11.3759125"><ele>425.0</ele><time>2026-05-02T08:23:30.963Z</time></trkpt><trkpt lat="44.1149815" lon="11.3761043"><ele>424.0</ele><time>2026-05-02T08:23:32.05Z</time></trkpt><trkpt lat="44.1149179" lon="11.3762929"><ele>427.25</ele><time>2026-05-02T08:23:33.035Z</time></trkpt><trkpt lat="44.114868" lon="11.3764822"><ele>430.5</ele><time>2026-05-02T08:23:34.041Z</time></trkpt><trkpt lat="44.1148349" lon="11.3766823"><ele>433.75</ele><time>2026-05-02T08:23:34.977Z</time></trkpt><trkpt lat="44.1148147" lon="11.3768797"><ele>437.0</ele><time>2026-05-02T08:23:35.983Z</time></trkpt><trkpt lat="44.1148067" lon="11.3770831"><ele>436.5</ele><time>2026-05-02T08:23:36.963Z</time></trkpt><trkpt lat="44.1148331" lon="11.3772805"><ele>436.0</ele><time>2026-05-02T08:23:37.986Z</time></trkpt><trkpt lat="44.1148706" lon="11.3774794"><ele>435.5</ele><time>2026-05-02T08:23:38.989Z</time></trkpt><trkpt lat="44.1149133" lon="11.3776787"><ele>435.0</ele><time>2026-05-02T08:23:39.969Z</time></trkpt><trkpt lat="44.114954" lon="11.377872"><ele>431.75</ele><time>2026-05-02T08:23:40.962Z</time></trkpt><trkpt lat="44.1149857" lon="11.3780627"><ele>428.5</ele><time>2026-05-02T08:23:41.966Z</time></trkpt><trkpt lat="44.1150146" lon="11.3782559"><ele>425.25</ele><time>2026-05-02T08:23:42.967Z</time></trkpt><trkpt lat="44.1150326" lon="11.3784467"><ele>422.0</ele><time>2026-05-02T08:23:43.969Z</time></trkpt><trkpt lat="44.1150501" lon="11.3786404"><ele>422.0</ele><time>2026-05-02T08:23:44.96Z</time></trkpt><trkpt lat="44.115061" lon="11.3788413"><ele>422.0</ele><time>2026-05-02T08:23:45.96Z</time></trkpt><trkpt lat="44.1150637" lon="11.3790364"><ele>422.0</ele><time>2026-05-02T08:23:46.959Z</time></trkpt><trkpt lat="44.1150605" lon="11.3792225"><ele>422.0</ele><time>2026-05-02T08:23:47.951Z</time></trkpt><trkpt lat="44.1150536" lon="11.3793997"><ele>422.75</ele><time>2026-05-02T08:23:48.957Z</time></trkpt><trkpt lat="44.115044" lon="11.379572"><ele>423.5</ele><time>2026-05-02T08:23:49.957Z</time></trkpt><trkpt lat="44.1150269" lon="11.3797498"><ele>424.25</ele><time>2026-05-02T08:23:50.959Z</time></trkpt><trkpt lat="44.115019" lon="11.3799252"><ele>425.0</ele><time>2026-05-02T08:23:51.965Z</time></trkpt><trkpt lat="44.1150105" lon="11.3800977"><ele>425.0</ele><time>2026-05-02T08:23:52.961Z</time></trkpt><trkpt lat="44.1149992" lon="11.3802601"><ele>425.0</ele><time>2026-05-02T08:23:53.958Z</time></trkpt><trkpt lat="44.1149906" lon="11.3804092"><ele>425.0</ele><time>2026-05-02T08:23:54.967Z</time></trkpt><trkpt lat="44.1149805" lon="11.3805494"><ele>425.0</ele><time>2026-05-02T08:23:55.962Z</time></trkpt><trkpt lat="44.1149746" lon="11.3806813"><ele>425.0</ele><time>2026-05-02T08:23:56.969Z</time></trkpt><trkpt lat="44.1149742" lon="11.3808017"><ele>425.2857142857143</ele><time>2026-05-02T08:23:57.975Z</time></trkpt><trkpt lat="44.1149718" lon="11.3809094"><ele>425.57142857142856</ele><time>2026-05-02T08:23:58.976Z</time></trkpt><trkpt lat="44.1149667" lon="11.3809968"><ele>425.8571428571429</ele><time>2026-05-02T08:23:59.969Z</time></trkpt><trkpt lat="44.1149314" lon="11.3810759"><ele>426.1428571428571</ele><time>2026-05-02T08:24:00.972Z</time></trkpt><trkpt lat="44.1148793" lon="11.381148"><ele>426.42857142857144</ele><time>2026-05-02T08:24:01.981Z</time></trkpt><trkpt lat="44.1148194" lon="11.3812011"><ele>426.7142857142857</ele><time>2026-05-02T08:24:02.966Z</time></trkpt><trkpt lat="44.1147582" lon="11.3812596"><ele>427.0</ele><time>2026-05-02T08:24:04.061Z</time></trkpt><trkpt lat="44.1146914" lon="11.3813275"><ele>427.0</ele><time>2026-05-02T08:24:05.031Z</time></trkpt><trkpt lat="44.1146116" lon="11.3813715"><ele>427.00000000000006</ele><time>2026-05-02T08:24:05.966Z</time></trkpt><trkpt lat="44.1145319" lon="11.3813746"><ele>427.00000000000006</ele><time>2026-05-02T08:24:06.964Z</time></trkpt><trkpt lat="44.1144372" lon="11.3813513"><ele>427.0</ele><time>2026-05-02T08:24:07.969Z</time></trkpt><trkpt lat="44.1143394" lon="11.3813328"><ele>427.0</ele><time>2026-05-02T08:24:08.967Z</time></trkpt><trkpt lat="44.1142338" lon="11.3813215"><ele>427.0</ele><time>2026-05-02T08:24:09.966Z</time></trkpt><trkpt lat="44.1141217" lon="11.3813088"><ele>427.0</ele><time>2026-05-02T08:24:10.968Z</time></trkpt><trkpt lat="44.1140079" lon="11.3813058"><ele>427.0</ele><time>2026-05-02T08:24:11.969Z</time></trkpt><trkpt lat="44.1138923" lon="11.3812956"><ele>427.0</ele><time>2026-05-02T08:24:13.034Z</time></trkpt><trkpt lat="44.1137786" lon="11.3812867"><ele>426.20000000000005</ele><time>2026-05-02T08:24:14.027Z</time></trkpt><trkpt lat="44.113667" lon="11.3812778"><ele>425.40000000000003</ele><time>2026-05-02T08:24:15.039Z</time></trkpt><trkpt lat="44.1135616" lon="11.3812617"><ele>424.6</ele><time>2026-05-02T08:24:15.965Z</time></trkpt><trkpt lat="44.1134621" lon="11.3812351"><ele>423.79999999999995</ele><time>2026-05-02T08:24:16.965Z</time></trkpt><trkpt lat="44.1133792" lon="11.3811927"><ele>423.0</ele><time>2026-05-02T08:24:17.967Z</time></trkpt><trkpt lat="44.1132951" lon="11.3811125"><ele>423.0</ele><time>2026-05-02T08:24:18.975Z</time></trkpt><trkpt lat="44.1132537" lon="11.3809962"><ele>423.0</ele><time>2026-05-02T08:24:19.969Z</time></trkpt><trkpt lat="44.1132422" lon="11.380877"><ele>423.0</ele><time>2026-05-02T08:24:20.967Z</time></trkpt><trkpt lat="44.113248" lon="11.3807772"><ele>423.0</ele><time>2026-05-02T08:24:22.042Z</time></trkpt><trkpt lat="44.1132986" lon="11.380647"><ele>423.0</ele><time>2026-05-02T08:24:24.027Z</time></trkpt><trkpt lat="44.1133191" lon="11.3805616"><ele>423.0</ele><time>2026-05-02T08:24:25.966Z</time></trkpt><trkpt lat="44.1132753" lon="11.3804606"><ele>423.8333333333333</ele><time>2026-05-02T08:24:27.987Z</time></trkpt><trkpt lat="44.1132166" lon="11.3804184"><ele>424.66666666666663</ele><time>2026-05-02T08:24:29.042Z</time></trkpt><trkpt lat="44.1131545" lon="11.3803821"><ele>425.5</ele><time>2026-05-02T08:24:29.953Z</time></trkpt><trkpt lat="44.113083" lon="11.380343"><ele>426.3333333333333</ele><time>2026-05-02T08:24:30.961Z</time></trkpt><trkpt lat="44.1130007" lon="11.3802912"><ele>427.16666666666663</ele><time>2026-05-02T08:24:31.97Z</time></trkpt><trkpt lat="44.1129128" lon="11.3802348"><ele>428.0</ele><time>2026-05-02T08:24:33.035Z</time></trkpt><trkpt lat="44.1128241" lon="11.3801801"><ele>428.0</ele><time>2026-05-02T08:24:33.968Z</time></trkpt><trkpt lat="44.1127253" lon="11.3801265"><ele>428.0</ele><time>2026-05-02T08:24:35.038Z</time></trkpt><trkpt lat="44.1126216" lon="11.3800725"><ele>428.0</ele><time>2026-05-02T08:24:35.955Z</time></trkpt><trkpt lat="44.1125116" lon="11.3800163"><ele>428.0</ele><time>2026-05-02T08:24:36.958Z</time></trkpt><trkpt lat="44.1123954" lon="11.3799549"><ele>427.5</ele><time>2026-05-02T08:24:37.953Z</time></trkpt><trkpt lat="44.1122837" lon="11.3798939"><ele>427.0</ele><time>2026-05-02T08:24:39.03Z</time></trkpt><trkpt lat="44.1121759" lon="11.3798342"><ele>426.5</ele><time>2026-05-02T08:24:40.045Z</time></trkpt><trkpt lat="44.1120697" lon="11.3797784"><ele>426.0</ele><time>2026-05-02T08:24:40.954Z</time></trkpt><trkpt lat="44.1119665" lon="11.3797208"><ele>428.0</ele><time>2026-05-02T08:24:41.963Z</time></trkpt><trkpt lat="44.1118693" lon="11.3796683"><ele>430.0</ele><time>2026-05-02T08:24:42.996Z</time></trkpt><trkpt lat="44.1117616" lon="11.3796217"><ele>432.0</ele><time>2026-05-02T08:24:43.961Z</time></trkpt><trkpt lat="44.1116437" lon="11.3795892"><ele>434.0</ele><time>2026-05-02T08:24:45.036Z</time></trkpt><trkpt lat="44.1115207" lon="11.3795763"><ele>434.0</ele><time>2026-05-02T08:24:45.96Z</time></trkpt><trkpt lat="44.1113974" lon="11.3796048"><ele>434.0</ele><time>2026-05-02T08:24:46.975Z</time></trkpt><trkpt lat="44.1112726" lon="11.3796402"><ele>434.0</ele><time>2026-05-02T08:24:47.974Z</time></trkpt><trkpt lat="44.1111432" lon="11.3796763"><ele>434.0</ele><time>2026-05-02T08:24:48.957Z</time></trkpt><trkpt lat="44.1110182" lon="11.3797187"><ele>433.5</ele><time>2026-05-02T08:24:49.967Z</time></trkpt><trkpt lat="44.1108895" lon="11.3797615"><ele>433.0</ele><time>2026-05-02T08:24:50.966Z</time></trkpt><trkpt lat="44.1107584" lon="11.3798023"><ele>432.5</ele><time>2026-05-02T08:24:51.96Z</time></trkpt><trkpt lat="44.1106259" lon="11.3798444"><ele>432.0</ele><time>2026-05-02T08:24:52.962Z</time></trkpt><trkpt lat="44.1104942" lon="11.3798854"><ele>432.0</ele><time>2026-05-02T08:24:53.963Z</time></trkpt><trkpt lat="44.1103698" lon="11.3799268"><ele>432.0</ele><time>2026-05-02T08:24:55.031Z</time></trkpt><trkpt lat="44.1102387" lon="11.3799778"><ele>432.0</ele><time>2026-05-02T08:24:55.968Z</time></trkpt><trkpt lat="44.1101092" lon="11.3800247"><ele>432.0</ele><time>2026-05-02T08:24:56.973Z</time></trkpt><trkpt lat="44.109973" lon="11.3800517"><ele>431.25</ele><time>2026-05-02T08:24:58.006Z</time></trkpt><trkpt lat="44.1098344" lon="11.3800607"><ele>430.5</ele><time>2026-05-02T08:24:58.968Z</time></trkpt><trkpt lat="44.1096925" lon="11.3800306"><ele>429.75</ele><time>2026-05-02T08:24:59.971Z</time></trkpt><trkpt lat="44.1095522" lon="11.3799773"><ele>429.0</ele><time>2026-05-02T08:25:00.986Z</time></trkpt><trkpt lat="44.1094129" lon="11.3799095"><ele>429.0</ele><time>2026-05-02T08:25:01.971Z</time></trkpt><trkpt lat="44.1092687" lon="11.3798416"><ele>429.0</ele><time>2026-05-02T08:25:03.032Z</time></trkpt><trkpt lat="44.1091238" lon="11.3797736"><ele>429.0</ele><time>2026-05-02T08:25:03.961Z</time></trkpt><trkpt lat="44.1089785" lon="11.3797095"><ele>431.0</ele><time>2026-05-02T08:25:05.034Z</time></trkpt><trkpt lat="44.1088353" lon="11.3796401"><ele>433.0</ele><time>2026-05-02T08:25:05.967Z</time></trkpt><trkpt lat="44.1086879" lon="11.3795739"><ele>435.0</ele><time>2026-05-02T08:25:06.966Z</time></trkpt><trkpt lat="44.1085442" lon="11.3795106"><ele>435.0</ele><time>2026-05-02T08:25:07.965Z</time></trkpt><trkpt lat="44.1083994" lon="11.3794454"><ele>435.0</ele><time>2026-05-02T08:25:08.963Z</time></trkpt><trkpt lat="44.108256" lon="11.37938"><ele>435.0</ele><time>2026-05-02T08:25:10.041Z</time></trkpt><trkpt lat="44.1081124" lon="11.3793099"><ele>433.33333333333337</ele><time>2026-05-02T08:25:10.956Z</time></trkpt><trkpt lat="44.1079661" lon="11.3792396"><ele>431.6666666666667</ele><time>2026-05-02T08:25:11.954Z</time></trkpt><trkpt lat="44.1078196" lon="11.3791713"><ele>430.0</ele><time>2026-05-02T08:25:12.943Z</time></trkpt><trkpt lat="44.1076757" lon="11.3791004"><ele>430.0</ele><time>2026-05-02T08:25:14.033Z</time></trkpt><trkpt lat="44.1075316" lon="11.3790312"><ele>430.0</ele><time>2026-05-02T08:25:15.035Z</time></trkpt><trkpt lat="44.1073876" lon="11.3789607"><ele>430.0</ele><time>2026-05-02T08:25:15.954Z</time></trkpt><trkpt lat="44.1072375" lon="11.378891"><ele>432.0</ele><time>2026-05-02T08:25:17.037Z</time></trkpt><trkpt lat="44.107089" lon="11.3788192"><ele>434.0</ele><time>2026-05-02T08:25:18.033Z</time></trkpt><trkpt lat="44.1069395" lon="11.37875"><ele>436.0</ele><time>2026-05-02T08:25:18.975Z</time></trkpt><trkpt lat="44.1067884" lon="11.3786923"><ele>436.0</ele><time>2026-05-02T08:25:20.048Z</time></trkpt><trkpt lat="44.1066361" lon="11.3786371"><ele>436.0</ele><time>2026-05-02T08:25:20.985Z</time></trkpt><trkpt lat="44.1064833" lon="11.3785886"><ele>436.0</ele><time>2026-05-02T08:25:21.98Z</time></trkpt><trkpt lat="44.1063276" lon="11.3785511"><ele>435.6666666666667</ele><time>2026-05-02T08:25:23.011Z</time></trkpt><trkpt lat="44.1061717" lon="11.3785131"><ele>435.33333333333337</ele><time>2026-05-02T08:25:23.98Z</time></trkpt><trkpt lat="44.1060162" lon="11.3784851"><ele>435.0</ele><time>2026-05-02T08:25:25.033Z</time></trkpt><trkpt lat="44.1058633" lon="11.3784575"><ele>436.0</ele><time>2026-05-02T08:25:25.962Z</time></trkpt><trkpt lat="44.1057083" lon="11.3784349"><ele>437.0</ele><time>2026-05-02T08:25:26.967Z</time></trkpt><trkpt lat="44.1055518" lon="11.3784173"><ele>438.0</ele><time>2026-05-02T08:25:28.041Z</time></trkpt><trkpt lat="44.105397" lon="11.3784007"><ele>438.0</ele><time>2026-05-02T08:25:28.986Z</time></trkpt><trkpt lat="44.1052456" lon="11.3783829"><ele>438.0</ele><time>2026-05-02T08:25:29.967Z</time></trkpt><trkpt lat="44.1050891" lon="11.3783619"><ele>438.0</ele><time>2026-05-02T08:25:30.967Z</time></trkpt><trkpt lat="44.1049344" lon="11.3783392"><ele>438.33333333333337</ele><time>2026-05-02T08:25:31.963Z</time></trkpt><trkpt lat="44.104776" lon="11.3783109"><ele>438.6666666666667</ele><time>2026-05-02T08:25:32.967Z</time></trkpt><trkpt lat="44.10462" lon="11.3782917"><ele>439.0</ele><time>2026-05-02T08:25:33.975Z</time></trkpt><trkpt lat="44.104468" lon="11.3782639"><ele>439.0</ele><time>2026-05-02T08:25:34.972Z</time></trkpt><trkpt lat="44.1043163" lon="11.3782394"><ele>439.0</ele><time>2026-05-02T08:25:35.975Z</time></trkpt><trkpt lat="44.1041605" lon="11.3782122"><ele>439.0</ele><time>2026-05-02T08:25:37.036Z</time></trkpt><trkpt lat="44.1040047" lon="11.3781866"><ele>439.0</ele><time>2026-05-02T08:25:38.036Z</time></trkpt><trkpt lat="44.1038519" lon="11.3781657"><ele>439.0</ele><time>2026-05-02T08:25:38.956Z</time></trkpt><trkpt lat="44.103696" lon="11.378144"><ele>439.0</ele><time>2026-05-02T08:25:39.959Z</time></trkpt><trkpt lat="44.1035377" lon="11.3781261"><ele>439.0</ele><time>2026-05-02T08:25:40.967Z</time></trkpt><trkpt lat="44.1033795" lon="11.3781032"><ele>439.0</ele><time>2026-05-02T08:25:41.965Z</time></trkpt><trkpt lat="44.1032221" lon="11.3780823"><ele>439.0</ele><time>2026-05-02T08:25:42.964Z</time></trkpt><trkpt lat="44.1030601" lon="11.3780598"><ele>439.33333333333337</ele><time>2026-05-02T08:25:44.02Z</time></trkpt><trkpt lat="44.1028984" lon="11.378045"><ele>439.66666666666663</ele><time>2026-05-02T08:25:45.036Z</time></trkpt><trkpt lat="44.1027313" lon="11.3780425"><ele>440.0</ele><time>2026-05-02T08:25:45.961Z</time></trkpt><trkpt lat="44.1025635" lon="11.3780585"><ele>440.3333333333333</ele><time>2026-05-02T08:25:46.959Z</time></trkpt><trkpt lat="44.1023998" lon="11.3780881"><ele>440.66666666666663</ele><time>2026-05-02T08:25:47.956Z</time></trkpt><trkpt lat="44.1022319" lon="11.3781435"><ele>441.0</ele><time>2026-05-02T08:25:49.032Z</time></trkpt><trkpt lat="44.1020666" lon="11.3782123"><ele>441.0</ele><time>2026-05-02T08:25:50.043Z</time></trkpt><trkpt lat="44.1019076" lon="11.3783105"><ele>441.0</ele><time>2026-05-02T08:25:50.963Z</time></trkpt><trkpt lat="44.10175" lon="11.3784184"><ele>441.0</ele><time>2026-05-02T08:25:51.963Z</time></trkpt><trkpt lat="44.101587" lon="11.3785305"><ele>441.66666666666663</ele><time>2026-05-02T08:25:52.996Z</time></trkpt><trkpt lat="44.1014243" lon="11.3786345"><ele>442.3333333333333</ele><time>2026-05-02T08:25:53.958Z</time></trkpt><trkpt lat="44.1012685" lon="11.3787418"><ele>443.0</ele><time>2026-05-02T08:25:54.996Z</time></trkpt><trkpt lat="44.1011134" lon="11.3788597"><ele>443.0</ele><time>2026-05-02T08:25:55.959Z</time></trkpt><trkpt lat="44.100964" lon="11.3789671"><ele>443.0</ele><time>2026-05-02T08:25:57.018Z</time></trkpt><trkpt lat="44.1008085" lon="11.3790749"><ele>443.0</ele><time>2026-05-02T08:25:57.961Z</time></trkpt><trkpt lat="44.1006545" lon="11.3791838"><ele>445.3333333333333</ele><time>2026-05-02T08:25:59.043Z</time></trkpt><trkpt lat="44.1004995" lon="11.3792919"><ele>447.66666666666663</ele><time>2026-05-02T08:26:00.042Z</time></trkpt><trkpt lat="44.1003434" lon="11.3793986"><ele>450.0</ele><time>2026-05-02T08:26:00.957Z</time></trkpt><trkpt lat="44.1001838" lon="11.3795072"><ele>450.0</ele><time>2026-05-02T08:26:02.034Z</time></trkpt><trkpt lat="44.1000277" lon="11.3796178"><ele>450.0</ele><time>2026-05-02T08:26:03.036Z</time></trkpt><trkpt lat="44.0998694" lon="11.3797266"><ele>450.0</ele><time>2026-05-02T08:26:04.033Z</time></trkpt><trkpt lat="44.0997049" lon="11.3798338"><ele>449.0</ele><time>2026-05-02T08:26:04.972Z</time></trkpt><trkpt lat="44.0995474" lon="11.3799409"><ele>448.0</ele><time>2026-05-02T08:26:05.964Z</time></trkpt><trkpt lat="44.0993856" lon="11.3800473"><ele>447.0</ele><time>2026-05-02T08:26:06.968Z</time></trkpt><trkpt lat="44.0992277" lon="11.380153"><ele>451.33333333333337</ele><time>2026-05-02T08:26:08.059Z</time></trkpt><trkpt lat="44.0990645" lon="11.3802557"><ele>455.6666666666667</ele><time>2026-05-02T08:26:09.035Z</time></trkpt><trkpt lat="44.0989023" lon="11.3803542"><ele>460.0</ele><time>2026-05-02T08:26:10.002Z</time></trkpt><trkpt lat="44.0987404" lon="11.3804496"><ele>456.33333333333337</ele><time>2026-05-02T08:26:10.969Z</time></trkpt><trkpt lat="44.0985783" lon="11.3805437"><ele>452.66666666666663</ele><time>2026-05-02T08:26:11.965Z</time></trkpt><trkpt lat="44.0984144" lon="11.3806399"><ele>449.0</ele><time>2026-05-02T08:26:12.962Z</time></trkpt><trkpt lat="44.0982565" lon="11.3807243"><ele>451.66666666666663</ele><time>2026-05-02T08:26:13.958Z</time></trkpt><trkpt lat="44.0981013" lon="11.380791"><ele>454.33333333333337</ele><time>2026-05-02T08:26:14.958Z</time></trkpt><trkpt lat="44.0979468" lon="11.3808338"><ele>457.0</ele><time>2026-05-02T08:26:15.95Z</time></trkpt><trkpt lat="44.0977818" lon="11.3808517"><ele>457.0</ele><time>2026-05-02T08:26:16.991Z</time></trkpt><trkpt lat="44.0976141" lon="11.3808391"><ele>457.0</ele><time>2026-05-02T08:26:17.959Z</time></trkpt><trkpt lat="44.0974448" lon="11.3808019"><ele>457.0</ele><time>2026-05-02T08:26:18.991Z</time></trkpt><trkpt lat="44.0972815" lon="11.3807734"><ele>460.33333333333337</ele><time>2026-05-02T08:26:19.968Z</time></trkpt><trkpt lat="44.097112" lon="11.380784"><ele>463.66666666666663</ele><time>2026-05-02T08:26:20.971Z</time></trkpt><trkpt lat="44.0969387" lon="11.3808249"><ele>467.0</ele><time>2026-05-02T08:26:21.955Z</time></trkpt><trkpt lat="44.0967718" lon="11.3808984"><ele>467.0</ele><time>2026-05-02T08:26:22.959Z</time></trkpt><trkpt lat="44.0966168" lon="11.3810074"><ele>467.0</ele><time>2026-05-02T08:26:23.963Z</time></trkpt><trkpt lat="44.0964708" lon="11.3811166"><ele>467.0</ele><time>2026-05-02T08:26:25.042Z</time></trkpt><trkpt lat="44.0963199" lon="11.3812247"><ele>469.66666666666663</ele><time>2026-05-02T08:26:25.962Z</time></trkpt><trkpt lat="44.0961638" lon="11.3813264"><ele>472.33333333333337</ele><time>2026-05-02T08:26:26.963Z</time></trkpt><trkpt lat="44.096014" lon="11.3814298"><ele>475.0</ele><time>2026-05-02T08:26:27.953Z</time></trkpt><trkpt lat="44.0958791" lon="11.3815552"><ele>475.0</ele><time>2026-05-02T08:26:29.017Z</time></trkpt><trkpt lat="44.0957683" lon="11.3817283"><ele>475.0</ele><time>2026-05-02T08:26:30.044Z</time></trkpt><trkpt lat="44.0956917" lon="11.3819164"><ele>475.0</ele><time>2026-05-02T08:26:30.971Z</time></trkpt><trkpt lat="44.0956488" lon="11.382104"><ele>476.0</ele><time>2026-05-02T08:26:32.038Z</time></trkpt><trkpt lat="44.0956021" lon="11.3822763"><ele>477.0</ele><time>2026-05-02T08:26:32.969Z</time></trkpt><trkpt lat="44.0955183" lon="11.3824136"><ele>478.0</ele><time>2026-05-02T08:26:33.975Z</time></trkpt><trkpt lat="44.0954129" lon="11.3824917"><ele>479.0</ele><time>2026-05-02T08:26:35.007Z</time></trkpt><trkpt lat="44.095285" lon="11.3825162"><ele>479.0</ele><time>2026-05-02T08:26:35.969Z</time></trkpt><trkpt lat="44.0951546" lon="11.3824863"><ele>479.0</ele><time>2026-05-02T08:26:37.027Z</time></trkpt><trkpt lat="44.0950167" lon="11.3824228"><ele>479.0</ele><time>2026-05-02T08:26:38.049Z</time></trkpt><trkpt lat="44.0948856" lon="11.3823567"><ele>479.0</ele><time>2026-05-02T08:26:39.038Z</time></trkpt><trkpt lat="44.0947595" lon="11.3822814"><ele>480.75</ele><time>2026-05-02T08:26:39.975Z</time></trkpt><trkpt lat="44.0946347" lon="11.3821852"><ele>482.5</ele><time>2026-05-02T08:26:40.977Z</time></trkpt><trkpt lat="44.0945154" lon="11.3820757"><ele>484.25</ele><time>2026-05-02T08:26:41.971Z</time></trkpt><trkpt lat="44.0943986" lon="11.3819851"><ele>486.0</ele><time>2026-05-02T08:26:42.983Z</time></trkpt><trkpt lat="44.0942736" lon="11.3819384"><ele>489.0</ele><time>2026-05-02T08:26:43.973Z</time></trkpt><trkpt lat="44.094156" lon="11.3819457"><ele>492.0</ele><time>2026-05-02T08:26:44.982Z</time></trkpt><trkpt lat="44.0940529" lon="11.3820208"><ele>495.0</ele><time>2026-05-02T08:26:46.037Z</time></trkpt><trkpt lat="44.0939555" lon="11.3821399"><ele>498.0</ele><time>2026-05-02T08:26:46.975Z</time></trkpt><trkpt lat="44.0938933" lon="11.3822943"><ele>499.5</ele><time>2026-05-02T08:26:47.979Z</time></trkpt><trkpt lat="44.0938364" lon="11.382462"><ele>501.0</ele><time>2026-05-02T08:26:48.978Z</time></trkpt><trkpt lat="44.0937711" lon="11.3826344"><ele>502.5</ele><time>2026-05-02T08:26:49.98Z</time></trkpt><trkpt lat="44.093695" lon="11.3827973"><ele>504.0</ele><time>2026-05-02T08:26:50.972Z</time></trkpt><trkpt lat="44.0936049" lon="11.3829374"><ele>502.5</ele><time>2026-05-02T08:26:51.973Z</time></trkpt><trkpt lat="44.0934932" lon="11.3830633"><ele>501.0</ele><time>2026-05-02T08:26:52.976Z</time></trkpt><trkpt lat="44.0933647" lon="11.3831655"><ele>499.5</ele><time>2026-05-02T08:26:53.971Z</time></trkpt><trkpt lat="44.0932294" lon="11.3832531"><ele>498.0</ele><time>2026-05-02T08:26:54.972Z</time></trkpt><trkpt lat="44.0931038" lon="11.3833321"><ele>498.0</ele><time>2026-05-02T08:26:55.974Z</time></trkpt><trkpt lat="44.0929806" lon="11.3833591"><ele>497.99999999999994</ele><time>2026-05-02T08:26:56.976Z</time></trkpt><trkpt lat="44.0928695" lon="11.3833304"><ele>497.99999999999994</ele><time>2026-05-02T08:26:57.974Z</time></trkpt><trkpt lat="44.0927881" lon="11.3832449"><ele>498.0</ele><time>2026-05-02T08:26:58.975Z</time></trkpt><trkpt lat="44.0927253" lon="11.383129"><ele>498.0</ele><time>2026-05-02T08:26:59.983Z</time></trkpt><trkpt lat="44.092673" lon="11.3829794"><ele>499.25</ele><time>2026-05-02T08:27:00.972Z</time></trkpt><trkpt lat="44.0926058" lon="11.382843"><ele>500.5</ele><time>2026-05-02T08:27:01.974Z</time></trkpt><trkpt lat="44.0924947" lon="11.3827832"><ele>501.75</ele><time>2026-05-02T08:27:02.972Z</time></trkpt><trkpt lat="44.0923583" lon="11.3828075"><ele>503.0</ele><time>2026-05-02T08:27:03.974Z</time></trkpt><trkpt lat="44.0922402" lon="11.3828185"><ele>503.0</ele><time>2026-05-02T08:27:04.981Z</time></trkpt><trkpt lat="44.0921427" lon="11.3827857"><ele>502.99999999999994</ele><time>2026-05-02T08:27:05.981Z</time></trkpt><trkpt lat="44.0920807" lon="11.3826908"><ele>502.99999999999994</ele><time>2026-05-02T08:27:06.975Z</time></trkpt><trkpt lat="44.0920528" lon="11.3825454"><ele>503.0</ele><time>2026-05-02T08:27:07.972Z</time></trkpt><trkpt lat="44.0920518" lon="11.3823871"><ele>503.0</ele><time>2026-05-02T08:27:08.971Z</time></trkpt><trkpt lat="44.0920559" lon="11.3822272"><ele>505.0</ele><time>2026-05-02T08:27:09.98Z</time></trkpt><trkpt lat="44.0920321" lon="11.3820747"><ele>507.0</ele><time>2026-05-02T08:27:10.977Z</time></trkpt><trkpt lat="44.091966" lon="11.3819255"><ele>509.0</ele><time>2026-05-02T08:27:11.973Z</time></trkpt><trkpt lat="44.091865" lon="11.3818142"><ele>511.0</ele><time>2026-05-02T08:27:12.979Z</time></trkpt><trkpt lat="44.0917473" lon="11.3817269"><ele>511.0</ele><time>2026-05-02T08:27:13.985Z</time></trkpt><trkpt lat="44.0916068" lon="11.3816715"><ele>511.0</ele><time>2026-05-02T08:27:14.995Z</time></trkpt><trkpt lat="44.0914693" lon="11.3816355"><ele>511.0</ele><time>2026-05-02T08:27:15.984Z</time></trkpt><trkpt lat="44.0913354" lon="11.3816068"><ele>511.0</ele><time>2026-05-02T08:27:16.976Z</time></trkpt><trkpt lat="44.0912084" lon="11.3815535"><ele>509.75</ele><time>2026-05-02T08:27:17.974Z</time></trkpt><trkpt lat="44.0910925" lon="11.381464"><ele>508.5</ele><time>2026-05-02T08:27:18.973Z</time></trkpt><trkpt lat="44.0909842" lon="11.3813381"><ele>507.25</ele><time>2026-05-02T08:27:19.973Z</time></trkpt><trkpt lat="44.0908775" lon="11.3812008"><ele>506.0</ele><time>2026-05-02T08:27:20.971Z</time></trkpt><trkpt lat="44.0907759" lon="11.3810435"><ele>507.3333333333333</ele><time>2026-05-02T08:27:21.975Z</time></trkpt><trkpt lat="44.0906715" lon="11.3808776"><ele>508.66666666666663</ele><time>2026-05-02T08:27:22.973Z</time></trkpt><trkpt lat="44.0905655" lon="11.3807072"><ele>510.0</ele><time>2026-05-02T08:27:23.972Z</time></trkpt><trkpt lat="44.0904662" lon="11.3805267"><ele>513.3333333333334</ele><time>2026-05-02T08:27:24.976Z</time></trkpt><trkpt lat="44.0903852" lon="11.3803306"><ele>516.6666666666667</ele><time>2026-05-02T08:27:25.974Z</time></trkpt><trkpt lat="44.090318" lon="11.3801297"><ele>520.0</ele><time>2026-05-02T08:27:26.985Z</time></trkpt><trkpt lat="44.0902593" lon="11.37994"><ele>520.0</ele><time>2026-05-02T08:27:27.986Z</time></trkpt><trkpt lat="44.090196" lon="11.3797789"><ele>520.0</ele><time>2026-05-02T08:27:28.981Z</time></trkpt><trkpt lat="44.0901074" lon="11.3796576"><ele>520.0</ele><time>2026-05-02T08:27:29.984Z</time></trkpt><trkpt lat="44.0899841" lon="11.3795711"><ele>520.0</ele><time>2026-05-02T08:27:30.976Z</time></trkpt><trkpt lat="44.0898515" lon="11.3795224"><ele>522.25</ele><time>2026-05-02T08:27:31.976Z</time></trkpt><trkpt lat="44.0897168" lon="11.3794747"><ele>524.5</ele><time>2026-05-02T08:27:32.981Z</time></trkpt><trkpt lat="44.0895929" lon="11.3794086"><ele>526.75</ele><time>2026-05-02T08:27:33.978Z</time></trkpt><trkpt lat="44.0894857" lon="11.3792859"><ele>529.0</ele><time>2026-05-02T08:27:34.977Z</time></trkpt><trkpt lat="44.0894002" lon="11.3791191"><ele>529.0</ele><time>2026-05-02T08:27:35.976Z</time></trkpt><trkpt lat="44.0893211" lon="11.3789571"><ele>529.0</ele><time>2026-05-02T08:27:36.973Z</time></trkpt><trkpt lat="44.0892371" lon="11.3787963"><ele>529.0</ele><time>2026-05-02T08:27:37.97Z</time></trkpt><trkpt lat="44.0891498" lon="11.3786745"><ele>529.0</ele><time>2026-05-02T08:27:38.98Z</time></trkpt><trkpt lat="44.08905" lon="11.3786185"><ele>532.25</ele><time>2026-05-02T08:27:39.972Z</time></trkpt><trkpt lat="44.0889386" lon="11.3786134"><ele>535.5</ele><time>2026-05-02T08:27:40.98Z</time></trkpt><trkpt lat="44.0888231" lon="11.3786539"><ele>538.75</ele><time>2026-05-02T08:27:41.98Z</time></trkpt><trkpt lat="44.0887001" lon="11.3787145"><ele>542.0</ele><time>2026-05-02T08:27:42.982Z</time></trkpt><trkpt lat="44.0885688" lon="11.3787686"><ele>542.0</ele><time>2026-05-02T08:27:43.968Z</time></trkpt><trkpt lat="44.0884323" lon="11.3788188"><ele>542.0</ele><time>2026-05-02T08:27:44.965Z</time></trkpt><trkpt lat="44.0882939" lon="11.3788783"><ele>542.0</ele><time>2026-05-02T08:27:45.969Z</time></trkpt><trkpt lat="44.0881507" lon="11.3789238"><ele>542.0</ele><time>2026-05-02T08:27:46.972Z</time></trkpt><trkpt lat="44.0880069" lon="11.3789401"><ele>542.3333333333333</ele><time>2026-05-02T08:27:47.97Z</time></trkpt><trkpt lat="44.087859" lon="11.3789112"><ele>542.6666666666666</ele><time>2026-05-02T08:27:48.984Z</time></trkpt><trkpt lat="44.087712" lon="11.3788413"><ele>543.0</ele><time>2026-05-02T08:27:49.98Z</time></trkpt><trkpt lat="44.0875683" lon="11.3787564"><ele>543.0</ele><time>2026-05-02T08:27:50.973Z</time></trkpt><trkpt lat="44.0874272" lon="11.37867"><ele>543.0</ele><time>2026-05-02T08:27:51.971Z</time></trkpt><trkpt lat="44.0872788" lon="11.3785803"><ele>543.0</ele><time>2026-05-02T08:27:52.97Z</time></trkpt><trkpt lat="44.0871335" lon="11.3784996"><ele>545.0</ele><time>2026-05-02T08:27:53.987Z</time></trkpt><trkpt lat="44.0869877" lon="11.3784247"><ele>547.0</ele><time>2026-05-02T08:27:54.976Z</time></trkpt><trkpt lat="44.0868439" lon="11.37835"><ele>549.0</ele><time>2026-05-02T08:27:55.978Z</time></trkpt><trkpt lat="44.0866981" lon="11.3782963"><ele>550.3333333333334</ele><time>2026-05-02T08:27:56.98Z</time></trkpt><trkpt lat="44.0865465" lon="11.3782842"><ele>551.6666666666667</ele><time>2026-05-02T08:27:57.983Z</time></trkpt><trkpt lat="44.0863942" lon="11.3782934"><ele>553.0</ele><time>2026-05-02T08:27:58.989Z</time></trkpt><trkpt lat="44.0862422" lon="11.378338"><ele>553.0</ele><time>2026-05-02T08:27:59.984Z</time></trkpt><trkpt lat="44.0860893" lon="11.3783964"><ele>553.0</ele><time>2026-05-02T08:28:00.973Z</time></trkpt><trkpt lat="44.0859335" lon="11.3784559"><ele>553.0</ele><time>2026-05-02T08:28:01.973Z</time></trkpt><trkpt lat="44.0857781" lon="11.3785105"><ele>555.5</ele><time>2026-05-02T08:28:02.984Z</time></trkpt><trkpt lat="44.0856308" lon="11.3785635"><ele>558.0</ele><time>2026-05-02T08:28:03.969Z</time></trkpt><trkpt lat="44.0854927" lon="11.3786162"><ele>560.5</ele><time>2026-05-02T08:28:04.979Z</time></trkpt><trkpt lat="44.085375" lon="11.378671"><ele>563.0</ele><time>2026-05-02T08:28:05.996Z</time></trkpt><trkpt lat="44.0852606" lon="11.3787259"><ele>563.0</ele><time>2026-05-02T08:28:06.969Z</time></trkpt><trkpt lat="44.0851697" lon="11.3787695"><ele>563.0</ele><time>2026-05-02T08:28:07.975Z</time></trkpt><trkpt lat="44.0851029" lon="11.3787864"><ele>563.0</ele><time>2026-05-02T08:28:08.981Z</time></trkpt><trkpt lat="44.0850204" lon="11.3787707"><ele>563.0</ele><time>2026-05-02T08:28:10.975Z</time></trkpt><trkpt lat="44.0849505" lon="11.378737"><ele>563.0</ele><time>2026-05-02T08:28:13.983Z</time></trkpt><trkpt lat="44.0849206" lon="11.3786406"><ele>563.0</ele><time>2026-05-02T08:28:21.976Z</time></trkpt><trkpt lat="44.0849157" lon="11.3785419"><ele>565.1666666666666</ele><time>2026-05-02T08:28:23.966Z</time></trkpt><trkpt lat="44.0849045" lon="11.378455"><ele>567.3333333333333</ele><time>2026-05-02T08:28:25.975Z</time></trkpt><trkpt lat="44.0849041" lon="11.3783566"><ele>569.5</ele><time>2026-05-02T08:29:38.985Z</time></trkpt><trkpt lat="44.0848879" lon="11.3782376"><ele>571.6666666666666</ele><time>2026-05-02T08:29:42.97Z</time></trkpt><trkpt lat="44.0848497" lon="11.378115"><ele>573.8333333333334</ele><time>2026-05-02T08:29:45.975Z</time></trkpt><trkpt lat="44.084811" lon="11.3780047"><ele>576.0</ele><time>2026-05-02T08:29:47.977Z</time></trkpt><trkpt lat="44.084784" lon="11.3778923"><ele>577.0</ele><time>2026-05-02T08:29:49.981Z</time></trkpt><trkpt lat="44.0847559" lon="11.3777837"><ele>578.0</ele><time>2026-05-02T08:29:51.97Z</time></trkpt><trkpt lat="44.0847313" lon="11.3776717"><ele>579.0</ele><time>2026-05-02T08:29:53.968Z</time></trkpt><trkpt lat="44.0846809" lon="11.3775971"><ele>580.0</ele><time>2026-05-02T08:29:56.976Z</time></trkpt><trkpt lat="44.0847202" lon="11.3777207"><ele>581.0</ele><time>2026-05-02T08:30:10.977Z</time></trkpt><trkpt lat="44.0847829" lon="11.3778684"><ele>580.0</ele><time>2026-05-02T08:30:12.98Z</time></trkpt><trkpt lat="44.0848302" lon="11.3780186"><ele>579.0</ele><time>2026-05-02T08:30:14.971Z</time></trkpt><trkpt lat="44.0848517" lon="11.3781305"><ele>578.0</ele><time>2026-05-02T08:30:16.977Z</time></trkpt><trkpt lat="44.08489" lon="11.3782341"><ele>577.0</ele><time>2026-05-02T08:30:18.977Z</time></trkpt><trkpt lat="44.0849218" lon="11.3783257"><ele>576.0</ele><time>2026-05-02T08:30:20.973Z</time></trkpt><trkpt lat="44.0849397" lon="11.3784524"><ele>574.8</ele><time>2026-05-02T08:30:22.964Z</time></trkpt><trkpt lat="44.0849512" lon="11.378585"><ele>573.6</ele><time>2026-05-02T08:30:24.972Z</time></trkpt><trkpt lat="44.0849648" lon="11.3787424"><ele>572.4</ele><time>2026-05-02T08:30:26.975Z</time></trkpt><trkpt lat="44.0849726" lon="11.37889"><ele>571.2</ele><time>2026-05-02T08:30:28.972Z</time></trkpt><trkpt lat="44.0849251" lon="11.3790461"><ele>570.0</ele><time>2026-05-02T08:30:30.983Z</time></trkpt><trkpt lat="44.0848734" lon="11.3791367"><ele>570.0</ele><time>2026-05-02T08:30:31.973Z</time></trkpt><trkpt lat="44.0848281" lon="11.3792256"><ele>570.0</ele><time>2026-05-02T08:30:32.96Z</time></trkpt><trkpt lat="44.0847721" lon="11.3793181"><ele>570.0</ele><time>2026-05-02T08:30:33.972Z</time></trkpt><trkpt lat="44.0847104" lon="11.3794184"><ele>570.0</ele><time>2026-05-02T08:30:34.974Z</time></trkpt><trkpt lat="44.0846498" lon="11.3795306"><ele>570.0</ele><time>2026-05-02T08:30:35.968Z</time></trkpt><trkpt lat="44.0845901" lon="11.3796443"><ele>569.0</ele><time>2026-05-02T08:30:36.98Z</time></trkpt><trkpt lat="44.0845204" lon="11.379759"><ele>568.0</ele><time>2026-05-02T08:30:37.975Z</time></trkpt><trkpt lat="44.0844431" lon="11.3798622"><ele>567.0</ele><time>2026-05-02T08:30:38.982Z</time></trkpt><trkpt lat="44.0843545" lon="11.379963"><ele>566.0</ele><time>2026-05-02T08:30:39.972Z</time></trkpt><trkpt lat="44.0842493" lon="11.3800373"><ele>565.0</ele><time>2026-05-02T08:30:40.975Z</time></trkpt><trkpt lat="44.0841449" lon="11.3801037"><ele>566.2</ele><time>2026-05-02T08:30:41.978Z</time></trkpt><trkpt lat="44.0840384" lon="11.3801186"><ele>567.4</ele><time>2026-05-02T08:30:42.969Z</time></trkpt><trkpt lat="44.0839381" lon="11.3800804"><ele>568.6</ele><time>2026-05-02T08:30:43.973Z</time></trkpt><trkpt lat="44.0838403" lon="11.3800094"><ele>569.8</ele><time>2026-05-02T08:30:44.97Z</time></trkpt><trkpt lat="44.0837352" lon="11.3799213"><ele>571.0</ele><time>2026-05-02T08:30:45.976Z</time></trkpt><trkpt lat="44.0836289" lon="11.3798286"><ele>571.0</ele><time>2026-05-02T08:30:46.971Z</time></trkpt><trkpt lat="44.0835237" lon="11.3797259"><ele>571.0</ele><time>2026-05-02T08:30:47.976Z</time></trkpt><trkpt lat="44.0834158" lon="11.3796358"><ele>571.0</ele><time>2026-05-02T08:30:48.971Z</time></trkpt><trkpt lat="44.0832966" lon="11.3795701"><ele>571.0</ele><time>2026-05-02T08:30:49.965Z</time></trkpt><trkpt lat="44.0831747" lon="11.3795475"><ele>574.0</ele><time>2026-05-02T08:30:50.97Z</time></trkpt><trkpt lat="44.0830519" lon="11.3795673"><ele>577.0</ele><time>2026-05-02T08:30:51.98Z</time></trkpt><trkpt lat="44.0829306" lon="11.3796171"><ele>580.0</ele><time>2026-05-02T08:30:52.969Z</time></trkpt><trkpt lat="44.0828124" lon="11.3797037"><ele>583.0</ele><time>2026-05-02T08:30:53.973Z</time></trkpt><trkpt lat="44.0826952" lon="11.379796"><ele>583.0</ele><time>2026-05-02T08:30:54.975Z</time></trkpt><trkpt lat="44.0825818" lon="11.3799357"><ele>583.0</ele><time>2026-05-02T08:30:55.98Z</time></trkpt><trkpt lat="44.0824895" lon="11.3800811"><ele>583.0</ele><time>2026-05-02T08:30:56.974Z</time></trkpt><trkpt lat="44.0824104" lon="11.3802575"><ele>583.0</ele><time>2026-05-02T08:30:57.971Z</time></trkpt><trkpt lat="44.0823548" lon="11.3804568"><ele>588.3333333333334</ele><time>2026-05-02T08:30:58.978Z</time></trkpt><trkpt lat="44.0823198" lon="11.3806664"><ele>593.6666666666666</ele><time>2026-05-02T08:30:59.979Z</time></trkpt><trkpt lat="44.082295" lon="11.3808904"><ele>599.0</ele><time>2026-05-02T08:31:00.969Z</time></trkpt><trkpt lat="44.0822664" lon="11.3811026"><ele>599.0</ele><time>2026-05-02T08:31:01.984Z</time></trkpt><trkpt lat="44.0822413" lon="11.3813085"><ele>599.0</ele><time>2026-05-02T08:31:02.966Z</time></trkpt><trkpt lat="44.0822218" lon="11.3815025"><ele>599.0</ele><time>2026-05-02T08:31:03.986Z</time></trkpt><trkpt lat="44.0822333" lon="11.3816772"><ele>599.0</ele><time>2026-05-02T08:31:04.981Z</time></trkpt><trkpt lat="44.0822697" lon="11.3818416"><ele>599.0</ele><time>2026-05-02T08:31:05.98Z</time></trkpt><trkpt lat="44.0823236" lon="11.3819995"><ele>599.0</ele><time>2026-05-02T08:31:06.977Z</time></trkpt><trkpt lat="44.0824029" lon="11.3821384"><ele>599.0</ele><time>2026-05-02T08:31:07.978Z</time></trkpt><trkpt lat="44.0824929" lon="11.3822515"><ele>599.0</ele><time>2026-05-02T08:31:08.98Z</time></trkpt><trkpt lat="44.0825746" lon="11.3823562"><ele>596.75</ele><time>2026-05-02T08:31:09.979Z</time></trkpt><trkpt lat="44.0826436" lon="11.3824776"><ele>594.5</ele><time>2026-05-02T08:31:10.979Z</time></trkpt><trkpt lat="44.0827099" lon="11.3826133"><ele>592.25</ele><time>2026-05-02T08:31:11.976Z</time></trkpt><trkpt lat="44.0827608" lon="11.3827619"><ele>590.0</ele><time>2026-05-02T08:31:12.98Z</time></trkpt><trkpt lat="44.0827797" lon="11.3829179"><ele>591.5</ele><time>2026-05-02T08:31:13.974Z</time></trkpt><trkpt lat="44.0827806" lon="11.3830751"><ele>593.0</ele><time>2026-05-02T08:31:14.971Z</time></trkpt><trkpt lat="44.0827573" lon="11.3832466"><ele>594.5</ele><time>2026-05-02T08:31:15.972Z</time></trkpt><trkpt lat="44.0827074" lon="11.3834115"><ele>596.0</ele><time>2026-05-02T08:31:16.976Z</time></trkpt><trkpt lat="44.0826347" lon="11.3835332"><ele>596.0</ele><time>2026-05-02T08:31:17.969Z</time></trkpt><trkpt lat="44.0825398" lon="11.3836287"><ele>596.0</ele><time>2026-05-02T08:31:18.975Z</time></trkpt><trkpt lat="44.0824236" lon="11.383669"><ele>596.0</ele><time>2026-05-02T08:31:19.983Z</time></trkpt><trkpt lat="44.0823091" lon="11.3836495"><ele>596.0</ele><time>2026-05-02T08:31:20.978Z</time></trkpt><trkpt lat="44.0821942" lon="11.3835893"><ele>598.0</ele><time>2026-05-02T08:31:21.973Z</time></trkpt><trkpt lat="44.0821011" lon="11.3834742"><ele>600.0</ele><time>2026-05-02T08:31:22.983Z</time></trkpt><trkpt lat="44.0820135" lon="11.3833485"><ele>602.0</ele><time>2026-05-02T08:31:23.984Z</time></trkpt><trkpt lat="44.081911" lon="11.3832438"><ele>604.0</ele><time>2026-05-02T08:31:24.989Z</time></trkpt><trkpt lat="44.0818049" lon="11.3831922"><ele>604.0</ele><time>2026-05-02T08:31:25.983Z</time></trkpt><trkpt lat="44.0816877" lon="11.3832008"><ele>604.0</ele><time>2026-05-02T08:31:26.98Z</time></trkpt><trkpt lat="44.0815748" lon="11.3832872"><ele>604.0</ele><time>2026-05-02T08:31:27.977Z</time></trkpt><trkpt lat="44.0814686" lon="11.383397"><ele>604.0</ele><time>2026-05-02T08:31:28.972Z</time></trkpt><trkpt lat="44.0813503" lon="11.3834877"><ele>605.0</ele><time>2026-05-02T08:31:29.979Z</time></trkpt><trkpt lat="44.0812142" lon="11.3835413"><ele>606.0</ele><time>2026-05-02T08:31:30.962Z</time></trkpt><trkpt lat="44.0810808" lon="11.383565"><ele>607.0</ele><time>2026-05-02T08:31:31.971Z</time></trkpt><trkpt lat="44.0809506" lon="11.3835616"><ele>608.0</ele><time>2026-05-02T08:31:32.972Z</time></trkpt><trkpt lat="44.0808441" lon="11.3835017"><ele>607.75</ele><time>2026-05-02T08:31:33.97Z</time></trkpt><trkpt lat="44.0807589" lon="11.3833812"><ele>607.5</ele><time>2026-05-02T08:31:34.964Z</time></trkpt><trkpt lat="44.0806921" lon="11.3832366"><ele>607.25</ele><time>2026-05-02T08:31:35.976Z</time></trkpt><trkpt lat="44.080647" lon="11.3830661"><ele>607.0</ele><time>2026-05-02T08:31:36.971Z</time></trkpt><trkpt lat="44.0806228" lon="11.3828923"><ele>608.75</ele><time>2026-05-02T08:31:37.98Z</time></trkpt><trkpt lat="44.0806601" lon="11.3827051"><ele>610.5</ele><time>2026-05-02T08:31:38.979Z</time></trkpt><trkpt lat="44.0807267" lon="11.3825325"><ele>612.25</ele><time>2026-05-02T08:31:39.976Z</time></trkpt><trkpt lat="44.0807956" lon="11.3823705"><ele>614.0</ele><time>2026-05-02T08:31:40.974Z</time></trkpt><trkpt lat="44.0808591" lon="11.3821946"><ele>616.3333333333333</ele><time>2026-05-02T08:31:41.984Z</time></trkpt><trkpt lat="44.0809061" lon="11.381998"><ele>618.6666666666666</ele><time>2026-05-02T08:31:43.028Z</time></trkpt><trkpt lat="44.0809444" lon="11.3817887"><ele>621.0</ele><time>2026-05-02T08:31:44.025Z</time></trkpt><trkpt lat="44.0809654" lon="11.3815815"><ele>621.0</ele><time>2026-05-02T08:31:45.035Z</time></trkpt><trkpt lat="44.0809595" lon="11.381381"><ele>621.0</ele><time>2026-05-02T08:31:45.968Z</time></trkpt><trkpt lat="44.0809409" lon="11.3811827"><ele>621.0</ele><time>2026-05-02T08:31:46.97Z</time></trkpt><trkpt lat="44.0808905" lon="11.3810014"><ele>621.0</ele><time>2026-05-02T08:31:47.951Z</time></trkpt><trkpt lat="44.0808084" lon="11.3808192"><ele>626.3333333333334</ele><time>2026-05-02T08:31:48.962Z</time></trkpt><trkpt lat="44.0806991" lon="11.3806633"><ele>631.6666666666667</ele><time>2026-05-02T08:31:49.968Z</time></trkpt><trkpt lat="44.0805795" lon="11.3805286"><ele>637.0</ele><time>2026-05-02T08:31:50.956Z</time></trkpt><trkpt lat="44.0804551" lon="11.3803948"><ele>637.75</ele><time>2026-05-02T08:31:52.03Z</time></trkpt><trkpt lat="44.0803561" lon="11.3802642"><ele>638.5</ele><time>2026-05-02T08:31:53.048Z</time></trkpt><trkpt lat="44.0802949" lon="11.3801176"><ele>639.25</ele><time>2026-05-02T08:31:53.96Z</time></trkpt><trkpt lat="44.0802691" lon="11.3799546"><ele>640.0</ele><time>2026-05-02T08:31:54.959Z</time></trkpt><trkpt lat="44.0802989" lon="11.3797913"><ele>641.0</ele><time>2026-05-02T08:31:55.974Z</time></trkpt><trkpt lat="44.0803752" lon="11.3796377"><ele>642.0</ele><time>2026-05-02T08:31:56.967Z</time></trkpt><trkpt lat="44.0804423" lon="11.3795105"><ele>643.0</ele><time>2026-05-02T08:31:57.972Z</time></trkpt><trkpt lat="44.0804828" lon="11.3793914"><ele>644.0</ele><time>2026-05-02T08:31:58.967Z</time></trkpt><trkpt lat="44.0804823" lon="11.3792458"><ele>645.0</ele><time>2026-05-02T08:32:00.041Z</time></trkpt><trkpt lat="44.080439" lon="11.3791458"><ele>645.0</ele><time>2026-05-02T08:32:00.962Z</time></trkpt><trkpt lat="44.0803765" lon="11.3790955"><ele>645.0</ele><time>2026-05-02T08:32:01.963Z</time></trkpt><trkpt lat="44.0802493" lon="11.3791026"><ele>645.0</ele><time>2026-05-02T08:32:04.03Z</time></trkpt><trkpt lat="44.0801872" lon="11.3791596"><ele>645.0</ele><time>2026-05-02T08:32:04.975Z</time></trkpt><trkpt lat="44.0801423" lon="11.379259"><ele>645.0</ele><time>2026-05-02T08:32:05.961Z</time></trkpt><trkpt lat="44.0800935" lon="11.379358"><ele>645.0</ele><time>2026-05-02T08:32:06.975Z</time></trkpt><trkpt lat="44.0800278" lon="11.3794607"><ele>645.0</ele><time>2026-05-02T08:32:08.012Z</time></trkpt><trkpt lat="44.0799655" lon="11.3795641"><ele>645.0</ele><time>2026-05-02T08:32:08.968Z</time></trkpt><trkpt lat="44.0798876" lon="11.3796744"><ele>645.0</ele><time>2026-05-02T08:32:09.975Z</time></trkpt><trkpt lat="44.0797978" lon="11.379802"><ele>645.0</ele><time>2026-05-02T08:32:10.966Z</time></trkpt><trkpt lat="44.0797023" lon="11.3799204"><ele>649.0</ele><time>2026-05-02T08:32:11.969Z</time></trkpt><trkpt lat="44.0796071" lon="11.3800544"><ele>653.0</ele><time>2026-05-02T08:32:12.967Z</time></trkpt><trkpt lat="44.0795013" lon="11.3801751"><ele>657.0</ele><time>2026-05-02T08:32:13.962Z</time></trkpt><trkpt lat="44.0794014" lon="11.3802823"><ele>661.0</ele><time>2026-05-02T08:32:15.064Z</time></trkpt><trkpt lat="44.0792838" lon="11.3803742"><ele>661.0</ele><time>2026-05-02T08:32:15.963Z</time></trkpt><trkpt lat="44.079151" lon="11.3804276"><ele>661.0</ele><time>2026-05-02T08:32:16.961Z</time></trkpt><trkpt lat="44.0790026" lon="11.3804741"><ele>661.0</ele><time>2026-05-02T08:32:17.988Z</time></trkpt><trkpt lat="44.078867" lon="11.380536"><ele>661.0</ele><time>2026-05-02T08:32:19.042Z</time></trkpt><trkpt lat="44.0787394" lon="11.3806274"><ele>662.3333333333334</ele><time>2026-05-02T08:32:20.03Z</time></trkpt><trkpt lat="44.078621" lon="11.380762"><ele>663.6666666666666</ele><time>2026-05-02T08:32:20.958Z</time></trkpt><trkpt lat="44.0785106" lon="11.380922"><ele>665.0</ele><time>2026-05-02T08:32:21.958Z</time></trkpt><trkpt lat="44.0784082" lon="11.3810869"><ele>665.0</ele><time>2026-05-02T08:32:22.973Z</time></trkpt><trkpt lat="44.0783086" lon="11.3812495"><ele>665.0</ele><time>2026-05-02T08:32:24.019Z</time></trkpt><trkpt lat="44.0782139" lon="11.3814118"><ele>665.0</ele><time>2026-05-02T08:32:25.037Z</time></trkpt><trkpt lat="44.0781123" lon="11.3815812"><ele>673.3333333333333</ele><time>2026-05-02T08:32:25.96Z</time></trkpt><trkpt lat="44.0780131" lon="11.3817433"><ele>681.6666666666666</ele><time>2026-05-02T08:32:26.959Z</time></trkpt><trkpt lat="44.0779157" lon="11.3819167"><ele>690.0</ele><time>2026-05-02T08:32:27.953Z</time></trkpt><trkpt lat="44.0778306" lon="11.3820959"><ele>685.3333333333334</ele><time>2026-05-02T08:32:28.956Z</time></trkpt><trkpt lat="44.0777598" lon="11.382297"><ele>680.6666666666667</ele><time>2026-05-02T08:32:29.964Z</time></trkpt><trkpt lat="44.0777014" lon="11.3825057"><ele>676.0</ele><time>2026-05-02T08:32:30.955Z</time></trkpt><trkpt lat="44.0776635" lon="11.3827052"><ele>676.0</ele><time>2026-05-02T08:32:31.951Z</time></trkpt><trkpt lat="44.0776417" lon="11.3828859"><ele>676.0</ele><time>2026-05-02T08:32:33.033Z</time></trkpt><trkpt lat="44.0776102" lon="11.3830485"><ele>676.0</ele><time>2026-05-02T08:32:34.032Z</time></trkpt><trkpt lat="44.0775516" lon="11.3831842"><ele>676.0</ele><time>2026-05-02T08:32:35.031Z</time></trkpt><trkpt lat="44.0774674" lon="11.3832863"><ele>678.25</ele><time>2026-05-02T08:32:35.963Z</time></trkpt><trkpt lat="44.0773487" lon="11.3833667"><ele>680.5</ele><time>2026-05-02T08:32:36.975Z</time></trkpt><trkpt lat="44.0772276" lon="11.38344"><ele>682.75</ele><time>2026-05-02T08:32:37.967Z</time></trkpt><trkpt lat="44.0771106" lon="11.3835234"><ele>685.0</ele><time>2026-05-02T08:32:38.967Z</time></trkpt><trkpt lat="44.0769895" lon="11.3835919"><ele>685.0</ele><time>2026-05-02T08:32:39.961Z</time></trkpt><trkpt lat="44.0768705" lon="11.3836301"><ele>685.0</ele><time>2026-05-02T08:32:40.962Z</time></trkpt><trkpt lat="44.0767443" lon="11.3836297"><ele>685.0</ele><time>2026-05-02T08:32:41.937Z</time></trkpt><trkpt lat="44.0766231" lon="11.3835759"><ele>685.0</ele><time>2026-05-02T08:32:42.956Z</time></trkpt><trkpt lat="44.0765023" lon="11.3834952"><ele>684.75</ele><time>2026-05-02T08:32:43.987Z</time></trkpt><trkpt lat="44.0763847" lon="11.3834177"><ele>684.5</ele><time>2026-05-02T08:32:44.966Z</time></trkpt><trkpt lat="44.076269" lon="11.3833531"><ele>684.25</ele><time>2026-05-02T08:32:45.96Z</time></trkpt><trkpt lat="44.0761524" lon="11.3833119"><ele>684.0</ele><time>2026-05-02T08:32:46.963Z</time></trkpt><trkpt lat="44.0760481" lon="11.3833006"><ele>684.0</ele><time>2026-05-02T08:32:47.965Z</time></trkpt><trkpt lat="44.0759394" lon="11.3833593"><ele>684.0</ele><time>2026-05-02T08:32:48.977Z</time></trkpt><trkpt lat="44.0758404" lon="11.3834836"><ele>684.0</ele><time>2026-05-02T08:32:50.034Z</time></trkpt><trkpt lat="44.075752" lon="11.3836038"><ele>684.0</ele><time>2026-05-02T08:32:50.953Z</time></trkpt><trkpt lat="44.0756406" lon="11.3837024"><ele>683.0</ele><time>2026-05-02T08:32:51.957Z</time></trkpt><trkpt lat="44.0755129" lon="11.3837681"><ele>682.0</ele><time>2026-05-02T08:32:52.963Z</time></trkpt><trkpt lat="44.075385" lon="11.3838443"><ele>681.0</ele><time>2026-05-02T08:32:54.03Z</time></trkpt><trkpt lat="44.0752624" lon="11.3838939"><ele>680.0</ele><time>2026-05-02T08:32:55.034Z</time></trkpt><trkpt lat="44.0751468" lon="11.3838897"><ele>680.0</ele><time>2026-05-02T08:32:55.97Z</time></trkpt><trkpt lat="44.0750259" lon="11.3838737"><ele>680.0</ele><time>2026-05-02T08:32:56.974Z</time></trkpt><trkpt lat="44.0749038" lon="11.3838789"><ele>680.0</ele><time>2026-05-02T08:32:57.981Z</time></trkpt><trkpt lat="44.074786" lon="11.3839396"><ele>680.0</ele><time>2026-05-02T08:32:59.032Z</time></trkpt><trkpt lat="44.0746718" lon="11.3840581"><ele>686.5</ele><time>2026-05-02T08:33:00.034Z</time></trkpt><trkpt lat="44.0745859" lon="11.3842109"><ele>693.0</ele><time>2026-05-02T08:33:00.965Z</time></trkpt><trkpt lat="44.0744952" lon="11.3843648"><ele>699.5</ele><time>2026-05-02T08:33:01.969Z</time></trkpt><trkpt lat="44.0744164" lon="11.3845249"><ele>706.0</ele><time>2026-05-02T08:33:02.956Z</time></trkpt><trkpt lat="44.0743482" lon="11.3846627"><ele>703.1999999999999</ele><time>2026-05-02T08:33:04.017Z</time></trkpt><trkpt lat="44.0743144" lon="11.3848125"><ele>700.4</ele><time>2026-05-02T08:33:05.032Z</time></trkpt><trkpt lat="44.0743084" lon="11.3849712"><ele>697.6</ele><time>2026-05-02T08:33:05.959Z</time></trkpt><trkpt lat="44.0742942" lon="11.3851129"><ele>694.8</ele><time>2026-05-02T08:33:06.967Z</time></trkpt><trkpt lat="44.0742647" lon="11.3852266"><ele>692.0</ele><time>2026-05-02T08:33:07.989Z</time></trkpt><trkpt lat="44.0741867" lon="11.385271"><ele>695.8</ele><time>2026-05-02T08:33:08.956Z</time></trkpt><trkpt lat="44.0740921" lon="11.3852754"><ele>699.6</ele><time>2026-05-02T08:33:09.962Z</time></trkpt><trkpt lat="44.0739934" lon="11.385242"><ele>703.4</ele><time>2026-05-02T08:33:10.968Z</time></trkpt><trkpt lat="44.0738953" lon="11.3851789"><ele>707.1999999999999</ele><time>2026-05-02T08:33:11.962Z</time></trkpt><trkpt lat="44.0737929" lon="11.3851154"><ele>711.0</ele><time>2026-05-02T08:33:12.965Z</time></trkpt><trkpt lat="44.0736741" lon="11.3851104"><ele>711.0</ele><time>2026-05-02T08:33:14.033Z</time></trkpt><trkpt lat="44.0735507" lon="11.3851869"><ele>711.0</ele><time>2026-05-02T08:33:15.04Z</time></trkpt><trkpt lat="44.0734661" lon="11.3853123"><ele>711.0</ele><time>2026-05-02T08:33:15.963Z</time></trkpt><trkpt lat="44.0734061" lon="11.3854712"><ele>711.0</ele><time>2026-05-02T08:33:16.96Z</time></trkpt><trkpt lat="44.0733554" lon="11.3856344"><ele>709.5</ele><time>2026-05-02T08:33:17.955Z</time></trkpt><trkpt lat="44.0733053" lon="11.3858018"><ele>708.0</ele><time>2026-05-02T08:33:18.954Z</time></trkpt><trkpt lat="44.0732656" lon="11.3859747"><ele>706.5</ele><time>2026-05-02T08:33:19.968Z</time></trkpt><trkpt lat="44.0732672" lon="11.3861608"><ele>705.0</ele><time>2026-05-02T08:33:20.958Z</time></trkpt><trkpt lat="44.0732965" lon="11.3863544"><ele>705.0</ele><time>2026-05-02T08:33:22.034Z</time></trkpt><trkpt lat="44.0733358" lon="11.3865011"><ele>705.0</ele><time>2026-05-02T08:33:23.034Z</time></trkpt><trkpt lat="44.0733606" lon="11.3866271"><ele>705.0</ele><time>2026-05-02T08:33:23.978Z</time></trkpt><trkpt lat="44.0733546" lon="11.3867349"><ele>705.0</ele><time>2026-05-02T08:33:25.03Z</time></trkpt><trkpt lat="44.0732995" lon="11.3868063"><ele>705.0</ele><time>2026-05-02T08:33:25.968Z</time></trkpt><trkpt lat="44.0732099" lon="11.3868093"><ele>705.0</ele><time>2026-05-02T08:33:26.954Z</time></trkpt><trkpt lat="44.0731266" lon="11.3867481"><ele>708.0</ele><time>2026-05-02T08:33:27.96Z</time></trkpt><trkpt lat="44.0730391" lon="11.3866626"><ele>711.0</ele><time>2026-05-02T08:33:28.959Z</time></trkpt><trkpt lat="44.0729475" lon="11.3865917"><ele>714.0</ele><time>2026-05-02T08:33:29.966Z</time></trkpt><trkpt lat="44.0728405" lon="11.3865306"><ele>717.0</ele><time>2026-05-02T08:33:30.958Z</time></trkpt><trkpt lat="44.0727287" lon="11.3864637"><ele>720.0</ele><time>2026-05-02T08:33:32.034Z</time></trkpt><trkpt lat="44.0726319" lon="11.3863759"><ele>720.0</ele><time>2026-05-02T08:33:33.031Z</time></trkpt><trkpt lat="44.0725355" lon="11.3862803"><ele>720.0</ele><time>2026-05-02T08:33:34.033Z</time></trkpt><trkpt lat="44.0724385" lon="11.3861788"><ele>720.0</ele><time>2026-05-02T08:33:35.034Z</time></trkpt><trkpt lat="44.0723481" lon="11.3860783"><ele>720.0</ele><time>2026-05-02T08:33:35.953Z</time></trkpt><trkpt lat="44.0722656" lon="11.3859917"><ele>720.6</ele><time>2026-05-02T08:33:36.959Z</time></trkpt><trkpt lat="44.0721766" lon="11.3859418"><ele>721.2</ele><time>2026-05-02T08:33:37.984Z</time></trkpt><trkpt lat="44.072084" lon="11.3859399"><ele>721.8</ele><time>2026-05-02T08:33:39.034Z</time></trkpt><trkpt lat="44.0719929" lon="11.3859841"><ele>722.4</ele><time>2026-05-02T08:33:39.97Z</time></trkpt><trkpt lat="44.0718967" lon="11.3860775"><ele>723.0</ele><time>2026-05-02T08:33:40.965Z</time></trkpt><trkpt lat="44.0718069" lon="11.3861859"><ele>723.0</ele><time>2026-05-02T08:33:41.962Z</time></trkpt><trkpt lat="44.0717199" lon="11.3863045"><ele>723.0</ele><time>2026-05-02T08:33:42.968Z</time></trkpt><trkpt lat="44.0716305" lon="11.3863981"><ele>723.0</ele><time>2026-05-02T08:33:43.962Z</time></trkpt><trkpt lat="44.0715215" lon="11.3864351"><ele>723.0</ele><time>2026-05-02T08:33:45.026Z</time></trkpt><trkpt lat="44.071392" lon="11.3864173"><ele>719.5</ele><time>2026-05-02T08:33:45.965Z</time></trkpt><trkpt lat="44.0712682" lon="11.3863424"><ele>716.0</ele><time>2026-05-02T08:33:46.965Z</time></trkpt><trkpt lat="44.0711454" lon="11.3862257"><ele>712.5</ele><time>2026-05-02T08:33:48.045Z</time></trkpt><trkpt lat="44.0710317" lon="11.3861116"><ele>709.0</ele><time>2026-05-02T08:33:49.054Z</time></trkpt><trkpt lat="44.0709271" lon="11.3859997"><ele>709.0</ele><time>2026-05-02T08:33:50.034Z</time></trkpt><trkpt lat="44.0708252" lon="11.3858588"><ele>709.0</ele><time>2026-05-02T08:33:50.961Z</time></trkpt><trkpt lat="44.0707194" lon="11.3857036"><ele>709.0</ele><time>2026-05-02T08:33:51.96Z</time></trkpt><trkpt lat="44.0706223" lon="11.3855358"><ele>703.0</ele><time>2026-05-02T08:33:52.968Z</time></trkpt><trkpt lat="44.0705356" lon="11.3853526"><ele>697.0</ele><time>2026-05-02T08:33:53.961Z</time></trkpt><trkpt lat="44.0704585" lon="11.3851548"><ele>691.0</ele><time>2026-05-02T08:33:55.044Z</time></trkpt><trkpt lat="44.0703973" lon="11.384961"><ele>691.0</ele><time>2026-05-02T08:33:55.957Z</time></trkpt><trkpt lat="44.0703413" lon="11.3847669"><ele>691.0</ele><time>2026-05-02T08:33:56.968Z</time></trkpt><trkpt lat="44.0702854" lon="11.3845773"><ele>691.0</ele><time>2026-05-02T08:33:57.967Z</time></trkpt><trkpt lat="44.0702347" lon="11.3843979"><ele>691.0</ele><time>2026-05-02T08:33:58.963Z</time></trkpt><trkpt lat="44.0701911" lon="11.3842082"><ele>691.75</ele><time>2026-05-02T08:33:59.962Z</time></trkpt><trkpt lat="44.0701404" lon="11.3840249"><ele>692.5</ele><time>2026-05-02T08:34:00.947Z</time></trkpt><trkpt lat="44.0700718" lon="11.3838566"><ele>693.25</ele><time>2026-05-02T08:34:01.958Z</time></trkpt><trkpt lat="44.0699788" lon="11.3837055"><ele>694.0</ele><time>2026-05-02T08:34:02.961Z</time></trkpt><trkpt lat="44.0698609" lon="11.3835824"><ele>694.0</ele><time>2026-05-02T08:34:04.034Z</time></trkpt><trkpt lat="44.0697237" lon="11.3834964"><ele>694.0</ele><time>2026-05-02T08:34:05.032Z</time></trkpt><trkpt lat="44.0695665" lon="11.3834572"><ele>694.0</ele><time>2026-05-02T08:34:05.95Z</time></trkpt><trkpt lat="44.0694183" lon="11.3834095"><ele>694.0</ele><time>2026-05-02T08:34:06.957Z</time></trkpt><trkpt lat="44.0692841" lon="11.3833365"><ele>694.0</ele><time>2026-05-02T08:34:07.963Z</time></trkpt><trkpt lat="44.0691534" lon="11.3832625"><ele>694.0</ele><time>2026-05-02T08:34:08.967Z</time></trkpt><trkpt lat="44.0690361" lon="11.3831956"><ele>694.0</ele><time>2026-05-02T08:34:09.958Z</time></trkpt><trkpt lat="44.0689229" lon="11.3831717"><ele>693.6</ele><time>2026-05-02T08:34:10.961Z</time></trkpt><trkpt lat="44.0688161" lon="11.3831833"><ele>693.2</ele><time>2026-05-02T08:34:12.03Z</time></trkpt><trkpt lat="44.0687282" lon="11.3832398"><ele>692.8000000000001</ele><time>2026-05-02T08:34:12.955Z</time></trkpt><trkpt lat="44.0686688" lon="11.383358"><ele>692.4000000000001</ele><time>2026-05-02T08:34:14.035Z</time></trkpt><trkpt lat="44.0686426" lon="11.3835082"><ele>692.0</ele><time>2026-05-02T08:34:14.956Z</time></trkpt><trkpt lat="44.0686398" lon="11.3836861"><ele>692.0</ele><time>2026-05-02T08:34:15.962Z</time></trkpt><trkpt lat="44.0686403" lon="11.3838761"><ele>692.0</ele><time>2026-05-02T08:34:16.957Z</time></trkpt><trkpt lat="44.0686354" lon="11.3840687"><ele>692.0</ele><time>2026-05-02T08:34:17.967Z</time></trkpt><trkpt lat="44.0686224" lon="11.3842695"><ele>692.0</ele><time>2026-05-02T08:34:18.964Z</time></trkpt><trkpt lat="44.0685887" lon="11.3844684"><ele>692.0</ele><time>2026-05-02T08:34:19.96Z</time></trkpt><trkpt lat="44.0685489" lon="11.3846708"><ele>692.0</ele><time>2026-05-02T08:34:20.951Z</time></trkpt><trkpt lat="44.0685121" lon="11.3848673"><ele>692.0</ele><time>2026-05-02T08:34:21.961Z</time></trkpt><trkpt lat="44.0684776" lon="11.385079"><ele>691.0</ele><time>2026-05-02T08:34:22.966Z</time></trkpt><trkpt lat="44.0684277" lon="11.385278"><ele>690.0</ele><time>2026-05-02T08:34:24.033Z</time></trkpt><trkpt lat="44.0683668" lon="11.3854749"><ele>689.0</ele><time>2026-05-02T08:34:25.034Z</time></trkpt><trkpt lat="44.0683033" lon="11.3856692"><ele>692.25</ele><time>2026-05-02T08:34:25.976Z</time></trkpt><trkpt lat="44.0682558" lon="11.3858706"><ele>695.5</ele><time>2026-05-02T08:34:26.968Z</time></trkpt><trkpt lat="44.0682236" lon="11.3860684"><ele>698.75</ele><time>2026-05-02T08:34:27.951Z</time></trkpt><trkpt lat="44.0681906" lon="11.3862552"><ele>702.0</ele><time>2026-05-02T08:34:29.048Z</time></trkpt><trkpt lat="44.0681593" lon="11.3864179"><ele>702.0</ele><time>2026-05-02T08:34:29.97Z</time></trkpt><trkpt lat="44.0681027" lon="11.3865569"><ele>702.0</ele><time>2026-05-02T08:34:30.96Z</time></trkpt><trkpt lat="44.0680213" lon="11.3866666"><ele>702.0</ele><time>2026-05-02T08:34:31.968Z</time></trkpt><trkpt lat="44.0679143" lon="11.3867269"><ele>702.0</ele><time>2026-05-02T08:34:32.975Z</time></trkpt><trkpt lat="44.0677945" lon="11.3867609"><ele>702.0</ele><time>2026-05-02T08:34:34.035Z</time></trkpt><trkpt lat="44.0676864" lon="11.3867887"><ele>702.0</ele><time>2026-05-02T08:34:34.965Z</time></trkpt><trkpt lat="44.0675815" lon="11.386845"><ele>702.0</ele><time>2026-05-02T08:34:35.97Z</time></trkpt><trkpt lat="44.0674813" lon="11.3869128"><ele>702.0</ele><time>2026-05-02T08:34:36.967Z</time></trkpt><trkpt lat="44.0674108" lon="11.3870035"><ele>702.0</ele><time>2026-05-02T08:34:38.044Z</time></trkpt><trkpt lat="44.0673629" lon="11.3871393"><ele>705.75</ele><time>2026-05-02T08:34:39.032Z</time></trkpt><trkpt lat="44.0673491" lon="11.3872849"><ele>709.5</ele><time>2026-05-02T08:34:40.034Z</time></trkpt><trkpt lat="44.067336" lon="11.3874574"><ele>713.25</ele><time>2026-05-02T08:34:40.965Z</time></trkpt><trkpt lat="44.06735" lon="11.3876211"><ele>717.0</ele><time>2026-05-02T08:34:42.024Z</time></trkpt><trkpt lat="44.0673038" lon="11.3878028"><ele>717.0</ele><time>2026-05-02T08:34:42.965Z</time></trkpt><trkpt lat="44.0672411" lon="11.3879907"><ele>717.0</ele><time>2026-05-02T08:34:44.023Z</time></trkpt><trkpt lat="44.0671678" lon="11.3881753"><ele>717.0</ele><time>2026-05-02T08:34:44.964Z</time></trkpt><trkpt lat="44.0670933" lon="11.3883648"><ele>713.6666666666666</ele><time>2026-05-02T08:34:45.971Z</time></trkpt><trkpt lat="44.0670073" lon="11.3885496"><ele>710.3333333333333</ele><time>2026-05-02T08:34:46.964Z</time></trkpt><trkpt lat="44.0669157" lon="11.3887218"><ele>707.0</ele><time>2026-05-02T08:34:47.979Z</time></trkpt><trkpt lat="44.0668141" lon="11.3888923"><ele>706.0</ele><time>2026-05-02T08:34:48.959Z</time></trkpt><trkpt lat="44.0666994" lon="11.3890515"><ele>705.0</ele><time>2026-05-02T08:34:49.965Z</time></trkpt><trkpt lat="44.0665893" lon="11.3891981"><ele>704.0</ele><time>2026-05-02T08:34:50.971Z</time></trkpt><trkpt lat="44.0664772" lon="11.3893292"><ele>708.5</ele><time>2026-05-02T08:34:51.971Z</time></trkpt><trkpt lat="44.0663724" lon="11.3894365"><ele>713.0</ele><time>2026-05-02T08:34:52.977Z</time></trkpt><trkpt lat="44.0662593" lon="11.389516"><ele>717.5</ele><time>2026-05-02T08:34:53.968Z</time></trkpt><trkpt lat="44.0661365" lon="11.3895555"><ele>722.0</ele><time>2026-05-02T08:34:54.968Z</time></trkpt><trkpt lat="44.0660136" lon="11.3895948"><ele>720.5</ele><time>2026-05-02T08:34:55.975Z</time></trkpt><trkpt lat="44.0659135" lon="11.389679"><ele>719.0</ele><time>2026-05-02T08:34:56.974Z</time></trkpt><trkpt lat="44.0658319" lon="11.3898149"><ele>717.5</ele><time>2026-05-02T08:34:57.967Z</time></trkpt><trkpt lat="44.0657897" lon="11.3899798"><ele>716.0</ele><time>2026-05-02T08:34:58.975Z</time></trkpt><trkpt lat="44.065755" lon="11.3901333"><ele>722.0</ele><time>2026-05-02T08:34:59.971Z</time></trkpt><trkpt lat="44.0656973" lon="11.3902884"><ele>728.0</ele><time>2026-05-02T08:35:00.963Z</time></trkpt><trkpt lat="44.0656072" lon="11.3904283"><ele>734.0</ele><time>2026-05-02T08:35:01.952Z</time></trkpt><trkpt lat="44.0654968" lon="11.3905532"><ele>740.0</ele><time>2026-05-02T08:35:02.953Z</time></trkpt><trkpt lat="44.0654147" lon="11.3907223"><ele>741.0</ele><time>2026-05-02T08:35:04.038Z</time></trkpt><trkpt lat="44.0653737" lon="11.3909321"><ele>742.0</ele><time>2026-05-02T08:35:04.964Z</time></trkpt><trkpt lat="44.0653393" lon="11.3911341"><ele>743.0</ele><time>2026-05-02T08:35:05.963Z</time></trkpt><trkpt lat="44.0653126" lon="11.3913197"><ele>744.0</ele><time>2026-05-02T08:35:06.968Z</time></trkpt><trkpt lat="44.0652775" lon="11.3914962"><ele>741.25</ele><time>2026-05-02T08:35:07.966Z</time></trkpt><trkpt lat="44.0652507" lon="11.3916645"><ele>738.5</ele><time>2026-05-02T08:35:08.976Z</time></trkpt><trkpt lat="44.0652249" lon="11.3918284"><ele>735.75</ele><time>2026-05-02T08:35:09.962Z</time></trkpt><trkpt lat="44.065182" lon="11.391974"><ele>733.0</ele><time>2026-05-02T08:35:10.97Z</time></trkpt><trkpt lat="44.0651204" lon="11.3921166"><ele>727.25</ele><time>2026-05-02T08:35:12.031Z</time></trkpt><trkpt lat="44.0650232" lon="11.3922631"><ele>721.5</ele><time>2026-05-02T08:35:13.034Z</time></trkpt><trkpt lat="44.0649226" lon="11.3923995"><ele>715.75</ele><time>2026-05-02T08:35:14.031Z</time></trkpt><trkpt lat="44.0648187" lon="11.3925422"><ele>710.0</ele><time>2026-05-02T08:35:15.032Z</time></trkpt><trkpt lat="44.0647029" lon="11.3926757"><ele>710.0</ele><time>2026-05-02T08:35:15.96Z</time></trkpt><trkpt lat="44.0645703" lon="11.3927808"><ele>710.0</ele><time>2026-05-02T08:35:16.964Z</time></trkpt><trkpt lat="44.0644626" lon="11.3928568"><ele>710.0</ele><time>2026-05-02T08:35:18.007Z</time></trkpt><trkpt lat="44.0643596" lon="11.392887"><ele>710.0</ele><time>2026-05-02T08:35:18.959Z</time></trkpt><trkpt lat="44.0642719" lon="11.3928928"><ele>710.0</ele><time>2026-05-02T08:35:19.966Z</time></trkpt><trkpt lat="44.06418" lon="11.3928925"><ele>710.0</ele><time>2026-05-02T08:35:20.965Z</time></trkpt><trkpt lat="44.0641011" lon="11.3928238"><ele>710.0</ele><time>2026-05-02T08:35:22.021Z</time></trkpt><trkpt lat="44.064038" lon="11.3926427"><ele>710.0</ele><time>2026-05-02T08:35:23.018Z</time></trkpt><trkpt lat="44.0639597" lon="11.3924473"><ele>711.0</ele><time>2026-05-02T08:35:24.025Z</time></trkpt><trkpt lat="44.0638509" lon="11.3922717"><ele>712.0</ele><time>2026-05-02T08:35:25.065Z</time></trkpt><trkpt lat="44.0636097" lon="11.3920018"><ele>712.0</ele><time>2026-05-02T08:35:26.961Z</time></trkpt><trkpt lat="44.0634919" lon="11.3918682"><ele>712.0</ele><time>2026-05-02T08:35:27.95Z</time></trkpt><trkpt lat="44.063385" lon="11.3917251"><ele>712.0</ele><time>2026-05-02T08:35:28.952Z</time></trkpt><trkpt lat="44.0632931" lon="11.391603"><ele>712.0</ele><time>2026-05-02T08:35:30.036Z</time></trkpt><trkpt lat="44.0631975" lon="11.3915371"><ele>713.2857142857142</ele><time>2026-05-02T08:35:30.938Z</time></trkpt><trkpt lat="44.0631065" lon="11.3915113"><ele>714.5714285714286</ele><time>2026-05-02T08:35:31.954Z</time></trkpt><trkpt lat="44.0630414" lon="11.391536"><ele>715.8571428571429</ele><time>2026-05-02T08:35:33.008Z</time></trkpt><trkpt lat="44.062986" lon="11.3916037"><ele>717.1428571428571</ele><time>2026-05-02T08:35:34.037Z</time></trkpt><trkpt lat="44.0629535" lon="11.3916823"><ele>718.4285714285714</ele><time>2026-05-02T08:35:35.033Z</time></trkpt><trkpt lat="44.0629553" lon="11.3917728"><ele>719.7142857142857</ele><time>2026-05-02T08:35:35.948Z</time></trkpt><trkpt lat="44.0629828" lon="11.391863"><ele>721.0</ele><time>2026-05-02T08:35:36.961Z</time></trkpt><trkpt lat="44.0629976" lon="11.3919735"><ele>721.0</ele><time>2026-05-02T08:35:37.996Z</time></trkpt><trkpt lat="44.0630103" lon="11.3920939"><ele>721.0</ele><time>2026-05-02T08:35:38.958Z</time></trkpt><trkpt lat="44.0630297" lon="11.3922245"><ele>721.0</ele><time>2026-05-02T08:35:39.963Z</time></trkpt><trkpt lat="44.0630447" lon="11.3923796"><ele>721.0</ele><time>2026-05-02T08:35:40.953Z</time></trkpt><trkpt lat="44.0630553" lon="11.3925359"><ele>721.0</ele><time>2026-05-02T08:35:41.967Z</time></trkpt><trkpt lat="44.0630487" lon="11.3926846"><ele>727.5</ele><time>2026-05-02T08:35:42.99Z</time></trkpt><trkpt lat="44.0630177" lon="11.3928336"><ele>734.0</ele><time>2026-05-02T08:35:43.962Z</time></trkpt><trkpt lat="44.0629759" lon="11.3929769"><ele>740.5</ele><time>2026-05-02T08:35:44.964Z</time></trkpt><trkpt lat="44.0629539" lon="11.393142"><ele>747.0</ele><time>2026-05-02T08:35:45.947Z</time></trkpt><trkpt lat="44.0629424" lon="11.3933122"><ele>748.0</ele><time>2026-05-02T08:35:46.964Z</time></trkpt><trkpt lat="44.0629286" lon="11.3934706"><ele>749.0</ele><time>2026-05-02T08:35:47.956Z</time></trkpt><trkpt lat="44.0628929" lon="11.3936323"><ele>750.0</ele><time>2026-05-02T08:35:48.959Z</time></trkpt><trkpt lat="44.0628684" lon="11.3938141"><ele>751.0</ele><time>2026-05-02T08:35:49.951Z</time></trkpt><trkpt lat="44.062865" lon="11.3940067"><ele>748.25</ele><time>2026-05-02T08:35:50.963Z</time></trkpt><trkpt lat="44.0628729" lon="11.394195"><ele>745.5</ele><time>2026-05-02T08:35:51.95Z</time></trkpt><trkpt lat="44.0628819" lon="11.3943759"><ele>742.75</ele><time>2026-05-02T08:35:52.95Z</time></trkpt><trkpt lat="44.062878" lon="11.3945498"><ele>740.0</ele><time>2026-05-02T08:35:53.955Z</time></trkpt><trkpt lat="44.0628518" lon="11.3947032"><ele>742.4</ele><time>2026-05-02T08:35:54.953Z</time></trkpt><trkpt lat="44.0627945" lon="11.3948164"><ele>744.8</ele><time>2026-05-02T08:35:55.958Z</time></trkpt><trkpt lat="44.0627112" lon="11.3949079"><ele>747.2</ele><time>2026-05-02T08:35:56.956Z</time></trkpt><trkpt lat="44.0626121" lon="11.3949728"><ele>749.6</ele><time>2026-05-02T08:35:57.943Z</time></trkpt><trkpt lat="44.0625024" lon="11.3950339"><ele>752.0</ele><time>2026-05-02T08:35:58.952Z</time></trkpt><trkpt lat="44.0623884" lon="11.3950845"><ele>752.0</ele><time>2026-05-02T08:36:00.029Z</time></trkpt><trkpt lat="44.0622654" lon="11.3951315"><ele>752.0</ele><time>2026-05-02T08:36:00.959Z</time></trkpt><trkpt lat="44.0621333" lon="11.3951871"><ele>752.0</ele><time>2026-05-02T08:36:01.962Z</time></trkpt><trkpt lat="44.0620088" lon="11.3952622"><ele>752.0</ele><time>2026-05-02T08:36:02.956Z</time></trkpt><trkpt lat="44.0619013" lon="11.3953435"><ele>752.0</ele><time>2026-05-02T08:36:04.037Z</time></trkpt><trkpt lat="44.0618119" lon="11.3954357"><ele>752.0</ele><time>2026-05-02T08:36:05.035Z</time></trkpt><trkpt lat="44.0617437" lon="11.3955667"><ele>752.0</ele><time>2026-05-02T08:36:05.953Z</time></trkpt><trkpt lat="44.0617028" lon="11.3957255"><ele>752.0</ele><time>2026-05-02T08:36:06.953Z</time></trkpt><trkpt lat="44.0617037" lon="11.3958904"><ele>747.75</ele><time>2026-05-02T08:36:07.981Z</time></trkpt><trkpt lat="44.0617171" lon="11.396056"><ele>743.5</ele><time>2026-05-02T08:36:08.944Z</time></trkpt><trkpt lat="44.0616975" lon="11.3962178"><ele>739.25</ele><time>2026-05-02T08:36:10.035Z</time></trkpt><trkpt lat="44.0616434" lon="11.3963541"><ele>735.0</ele><time>2026-05-02T08:36:10.962Z</time></trkpt><trkpt lat="44.0615487" lon="11.3964593"><ele>735.0</ele><time>2026-05-02T08:36:11.962Z</time></trkpt><trkpt lat="44.061454" lon="11.3965465"><ele>735.0</ele><time>2026-05-02T08:36:12.986Z</time></trkpt><trkpt lat="44.0613476" lon="11.3966533"><ele>735.0</ele><time>2026-05-02T08:36:13.955Z</time></trkpt><trkpt lat="44.061257" lon="11.3967834"><ele>735.0</ele><time>2026-05-02T08:36:15.05Z</time></trkpt><trkpt lat="44.0611948" lon="11.3969465"><ele>735.0</ele><time>2026-05-02T08:36:15.96Z</time></trkpt><trkpt lat="44.0611495" lon="11.3971033"><ele>735.0</ele><time>2026-05-02T08:36:16.965Z</time></trkpt><trkpt lat="44.061085" lon="11.3972145"><ele>735.0</ele><time>2026-05-02T08:36:17.973Z</time></trkpt><trkpt lat="44.0610121" lon="11.3972518"><ele>735.0</ele><time>2026-05-02T08:36:18.95Z</time></trkpt><trkpt lat="44.0609353" lon="11.397242"><ele>735.0</ele><time>2026-05-02T08:36:19.958Z</time></trkpt><trkpt lat="44.0608242" lon="11.3971769"><ele>736.75</ele><time>2026-05-02T08:36:20.966Z</time></trkpt><trkpt lat="44.0607093" lon="11.3971322"><ele>738.5</ele><time>2026-05-02T08:36:21.967Z</time></trkpt><trkpt lat="44.0605838" lon="11.3971151"><ele>740.25</ele><time>2026-05-02T08:36:22.974Z</time></trkpt><trkpt lat="44.0604691" lon="11.3971347"><ele>742.0</ele><time>2026-05-02T08:36:24.033Z</time></trkpt><trkpt lat="44.0603637" lon="11.3972356"><ele>742.0</ele><time>2026-05-02T08:36:25.036Z</time></trkpt><trkpt lat="44.0602648" lon="11.3973564"><ele>742.0</ele><time>2026-05-02T08:36:25.955Z</time></trkpt><trkpt lat="44.060189" lon="11.3975013"><ele>742.0</ele><time>2026-05-02T08:36:26.956Z</time></trkpt><trkpt lat="44.0601333" lon="11.3976488"><ele>742.0</ele><time>2026-05-02T08:36:27.952Z</time></trkpt><trkpt lat="44.060109" lon="11.3978067"><ele>742.0</ele><time>2026-05-02T08:36:28.951Z</time></trkpt><trkpt lat="44.0600792" lon="11.3979557"><ele>742.0</ele><time>2026-05-02T08:36:29.952Z</time></trkpt><trkpt lat="44.060024" lon="11.3980682"><ele>742.0</ele><time>2026-05-02T08:36:30.952Z</time></trkpt><trkpt lat="44.0599382" lon="11.3981234"><ele>742.0</ele><time>2026-05-02T08:36:31.958Z</time></trkpt><trkpt lat="44.0598322" lon="11.3981162"><ele>742.0</ele><time>2026-05-02T08:36:32.954Z</time></trkpt><trkpt lat="44.0597171" lon="11.3980669"><ele>745.5</ele><time>2026-05-02T08:36:34.04Z</time></trkpt><trkpt lat="44.0596042" lon="11.3979964"><ele>749.0</ele><time>2026-05-02T08:36:35.028Z</time></trkpt><trkpt lat="44.0595" lon="11.3979053"><ele>752.5</ele><time>2026-05-02T08:36:35.961Z</time></trkpt><trkpt lat="44.059389" lon="11.3978254"><ele>756.0</ele><time>2026-05-02T08:36:36.98Z</time></trkpt><trkpt lat="44.059265" lon="11.3977736"><ele>756.0</ele><time>2026-05-02T08:36:37.969Z</time></trkpt><trkpt lat="44.059128" lon="11.3977502"><ele>756.0</ele><time>2026-05-02T08:36:38.977Z</time></trkpt><trkpt lat="44.0589917" lon="11.3977742"><ele>756.0</ele><time>2026-05-02T08:36:39.962Z</time></trkpt><trkpt lat="44.0588574" lon="11.3978255"><ele>756.0</ele><time>2026-05-02T08:36:40.983Z</time></trkpt><trkpt lat="44.0587388" lon="11.3978786"><ele>755.5</ele><time>2026-05-02T08:36:41.963Z</time></trkpt><trkpt lat="44.0586169" lon="11.3979185"><ele>755.0</ele><time>2026-05-02T08:36:42.987Z</time></trkpt><trkpt lat="44.0584875" lon="11.397904"><ele>754.5</ele><time>2026-05-02T08:36:43.986Z</time></trkpt><trkpt lat="44.0583611" lon="11.3978755"><ele>754.0</ele><time>2026-05-02T08:36:44.973Z</time></trkpt><trkpt lat="44.0582397" lon="11.3978134"><ele>749.75</ele><time>2026-05-02T08:36:45.96Z</time></trkpt><trkpt lat="44.0581213" lon="11.3977442"><ele>745.5</ele><time>2026-05-02T08:36:46.98Z</time></trkpt><trkpt lat="44.0580061" lon="11.3976507"><ele>741.25</ele><time>2026-05-02T08:36:47.976Z</time></trkpt><trkpt lat="44.0579078" lon="11.3975426"><ele>737.0</ele><time>2026-05-02T08:36:48.967Z</time></trkpt><trkpt lat="44.0578222" lon="11.3974093"><ele>737.0</ele><time>2026-05-02T08:36:49.962Z</time></trkpt><trkpt lat="44.0577526" lon="11.3972687"><ele>737.0</ele><time>2026-05-02T08:36:50.976Z</time></trkpt><trkpt lat="44.0577212" lon="11.3971059"><ele>737.0</ele><time>2026-05-02T08:36:51.972Z</time></trkpt><trkpt lat="44.0577124" lon="11.3969248"><ele>737.0</ele><time>2026-05-02T08:36:52.961Z</time></trkpt><trkpt lat="44.0577146" lon="11.3967344"><ele>740.0</ele><time>2026-05-02T08:36:53.974Z</time></trkpt><trkpt lat="44.0577005" lon="11.3965445"><ele>743.0</ele><time>2026-05-02T08:36:54.981Z</time></trkpt><trkpt lat="44.0576545" lon="11.3963488"><ele>746.0</ele><time>2026-05-02T08:36:55.971Z</time></trkpt><trkpt lat="44.0575923" lon="11.3961686"><ele>749.0</ele><time>2026-05-02T08:36:56.972Z</time></trkpt><trkpt lat="44.0575328" lon="11.3959763"><ele>745.75</ele><time>2026-05-02T08:36:57.969Z</time></trkpt><trkpt lat="44.0574723" lon="11.3957854"><ele>742.5</ele><time>2026-05-02T08:36:58.98Z</time></trkpt><trkpt lat="44.0574133" lon="11.395601"><ele>739.25</ele><time>2026-05-02T08:36:59.955Z</time></trkpt><trkpt lat="44.0573559" lon="11.3954155"><ele>736.0</ele><time>2026-05-02T08:37:00.967Z</time></trkpt><trkpt lat="44.0573227" lon="11.3952481"><ele>736.0</ele><time>2026-05-02T08:37:01.956Z</time></trkpt><trkpt lat="44.0573209" lon="11.3951237"><ele>736.0</ele><time>2026-05-02T08:37:02.965Z</time></trkpt><trkpt lat="44.0573637" lon="11.3950219"><ele>736.0</ele><time>2026-05-02T08:37:03.968Z</time></trkpt><trkpt lat="44.0574306" lon="11.3949363"><ele>736.0</ele><time>2026-05-02T08:37:04.965Z</time></trkpt><trkpt lat="44.0575326" lon="11.3948791"><ele>736.0</ele><time>2026-05-02T08:37:05.978Z</time></trkpt><trkpt lat="44.0576055" lon="11.3948032"><ele>740.1999999999999</ele><time>2026-05-02T08:37:06.961Z</time></trkpt><trkpt lat="44.0576357" lon="11.394702"><ele>744.4</ele><time>2026-05-02T08:37:07.964Z</time></trkpt><trkpt lat="44.0576277" lon="11.3945884"><ele>748.6</ele><time>2026-05-02T08:37:08.973Z</time></trkpt><trkpt lat="44.0575743" lon="11.3944909"><ele>752.8</ele><time>2026-05-02T08:37:09.972Z</time></trkpt><trkpt lat="44.0574963" lon="11.3944111"><ele>757.0</ele><time>2026-05-02T08:37:10.966Z</time></trkpt><trkpt lat="44.0574044" lon="11.3943266"><ele>757.0</ele><time>2026-05-02T08:37:11.967Z</time></trkpt><trkpt lat="44.0573133" lon="11.3942351"><ele>757.0</ele><time>2026-05-02T08:37:12.961Z</time></trkpt><trkpt lat="44.0572191" lon="11.3941352"><ele>757.0</ele><time>2026-05-02T08:37:13.985Z</time></trkpt><trkpt lat="44.0571147" lon="11.3940454"><ele>757.0</ele><time>2026-05-02T08:37:14.971Z</time></trkpt><trkpt lat="44.0570012" lon="11.393975"><ele>757.0</ele><time>2026-05-02T08:37:15.963Z</time></trkpt><trkpt lat="44.056897" lon="11.3938946"><ele>757.0</ele><time>2026-05-02T08:37:16.969Z</time></trkpt><trkpt lat="44.0568222" lon="11.3938049"><ele>757.0</ele><time>2026-05-02T08:37:17.976Z</time></trkpt><trkpt lat="44.0567794" lon="11.3936955"><ele>757.0</ele><time>2026-05-02T08:37:18.958Z</time></trkpt><trkpt lat="44.0567731" lon="11.3935575"><ele>757.0</ele><time>2026-05-02T08:37:19.966Z</time></trkpt><trkpt lat="44.0568029" lon="11.3934269"><ele>761.4000000000001</ele><time>2026-05-02T08:37:20.963Z</time></trkpt><trkpt lat="44.0568177" lon="11.3932795"><ele>765.8000000000001</ele><time>2026-05-02T08:37:21.97Z</time></trkpt><trkpt lat="44.0568038" lon="11.3931458"><ele>770.2</ele><time>2026-05-02T08:37:22.972Z</time></trkpt><trkpt lat="44.0567465" lon="11.3930399"><ele>774.6</ele><time>2026-05-02T08:37:23.974Z</time></trkpt><trkpt lat="44.0566688" lon="11.3929888"><ele>779.0</ele><time>2026-05-02T08:37:24.97Z</time></trkpt><trkpt lat="44.0565898" lon="11.3929953"><ele>776.5000000000001</ele><time>2026-05-02T08:37:25.972Z</time></trkpt><trkpt lat="44.0565199" lon="11.3930518"><ele>774.0</ele><time>2026-05-02T08:37:26.963Z</time></trkpt><trkpt lat="44.0564624" lon="11.3931503"><ele>771.5</ele><time>2026-05-02T08:37:27.975Z</time></trkpt><trkpt lat="44.0564245" lon="11.3932555"><ele>769.0</ele><time>2026-05-02T08:37:28.97Z</time></trkpt><trkpt lat="44.0563604" lon="11.3933225"><ele>766.5</ele><time>2026-05-02T08:37:29.968Z</time></trkpt><trkpt lat="44.056275" lon="11.3933528"><ele>764.0</ele><time>2026-05-02T08:37:30.984Z</time></trkpt><trkpt lat="44.0561765" lon="11.3933407"><ele>764.0</ele><time>2026-05-02T08:37:31.971Z</time></trkpt><trkpt lat="44.0560829" lon="11.3932595"><ele>764.0</ele><time>2026-05-02T08:37:32.977Z</time></trkpt><trkpt lat="44.0560114" lon="11.3931015"><ele>764.0</ele><time>2026-05-02T08:37:33.957Z</time></trkpt><trkpt lat="44.0559457" lon="11.3929254"><ele>764.0</ele><time>2026-05-02T08:37:34.962Z</time></trkpt><trkpt lat="44.0558793" lon="11.3927414"><ele>765.75</ele><time>2026-05-02T08:37:35.969Z</time></trkpt><trkpt lat="44.0558016" lon="11.3925713"><ele>767.5</ele><time>2026-05-02T08:37:36.956Z</time></trkpt><trkpt lat="44.0557336" lon="11.392402"><ele>769.25</ele><time>2026-05-02T08:37:37.96Z</time></trkpt><trkpt lat="44.0556641" lon="11.3922127"><ele>771.0</ele><time>2026-05-02T08:37:38.964Z</time></trkpt><trkpt lat="44.0555915" lon="11.3920257"><ele>774.5</ele><time>2026-05-02T08:37:39.963Z</time></trkpt><trkpt lat="44.0555186" lon="11.3918343"><ele>778.0</ele><time>2026-05-02T08:37:40.967Z</time></trkpt><trkpt lat="44.0554472" lon="11.3916537"><ele>781.5</ele><time>2026-05-02T08:37:41.963Z</time></trkpt><trkpt lat="44.0553757" lon="11.3914798"><ele>785.0</ele><time>2026-05-02T08:37:42.967Z</time></trkpt><trkpt lat="44.0553264" lon="11.3912983"><ele>787.5</ele><time>2026-05-02T08:37:44.033Z</time></trkpt><trkpt lat="44.0553093" lon="11.391111"><ele>790.0</ele><time>2026-05-02T08:37:45.03Z</time></trkpt><trkpt lat="44.0553202" lon="11.3909035"><ele>792.5</ele><time>2026-05-02T08:37:45.959Z</time></trkpt><trkpt lat="44.0553251" lon="11.3906923"><ele>795.0</ele><time>2026-05-02T08:37:46.957Z</time></trkpt><trkpt lat="44.0553132" lon="11.3904932"><ele>797.8</ele><time>2026-05-02T08:37:47.988Z</time></trkpt><trkpt lat="44.0552947" lon="11.3903155"><ele>800.6</ele><time>2026-05-02T08:37:48.951Z</time></trkpt><trkpt lat="44.0552658" lon="11.3901748"><ele>803.4000000000001</ele><time>2026-05-02T08:37:49.975Z</time></trkpt><trkpt lat="44.0552365" lon="11.390074"><ele>806.2</ele><time>2026-05-02T08:37:50.948Z</time></trkpt><trkpt lat="44.0551658" lon="11.3900406"><ele>809.0</ele><time>2026-05-02T08:37:52.004Z</time></trkpt><trkpt lat="44.0550871" lon="11.3900777"><ele>809.0</ele><time>2026-05-02T08:37:53.013Z</time></trkpt><trkpt lat="44.055005" lon="11.3901734"><ele>809.0</ele><time>2026-05-02T08:37:54.012Z</time></trkpt><trkpt lat="44.0549296" lon="11.3902957"><ele>809.0</ele><time>2026-05-02T08:37:55.035Z</time></trkpt><trkpt lat="44.0548673" lon="11.3904231"><ele>809.0</ele><time>2026-05-02T08:37:55.95Z</time></trkpt><trkpt lat="44.0547995" lon="11.3905471"><ele>809.0</ele><time>2026-05-02T08:37:56.961Z</time></trkpt><trkpt lat="44.0547209" lon="11.3906465"><ele>806.75</ele><time>2026-05-02T08:37:57.988Z</time></trkpt><trkpt lat="44.0546297" lon="11.3907056"><ele>804.5</ele><time>2026-05-02T08:37:59.019Z</time></trkpt><trkpt lat="44.0545195" lon="11.3907254"><ele>802.25</ele><time>2026-05-02T08:38:00.012Z</time></trkpt><trkpt lat="44.0543992" lon="11.3907004"><ele>800.0</ele><time>2026-05-02T08:38:00.953Z</time></trkpt><trkpt lat="44.0542725" lon="11.3906483"><ele>800.0</ele><time>2026-05-02T08:38:01.959Z</time></trkpt><trkpt lat="44.0541466" lon="11.3905789"><ele>800.0</ele><time>2026-05-02T08:38:02.958Z</time></trkpt><trkpt lat="44.0540202" lon="11.3905134"><ele>800.0</ele><time>2026-05-02T08:38:03.956Z</time></trkpt><trkpt lat="44.0538971" lon="11.390458"><ele>800.0</ele><time>2026-05-02T08:38:04.96Z</time></trkpt><trkpt lat="44.0537581" lon="11.390412"><ele>805.0</ele><time>2026-05-02T08:38:05.945Z</time></trkpt><trkpt lat="44.0536136" lon="11.3903823"><ele>810.0</ele><time>2026-05-02T08:38:06.965Z</time></trkpt><trkpt lat="44.0534686" lon="11.3903791"><ele>815.0</ele><time>2026-05-02T08:38:07.949Z</time></trkpt><trkpt lat="44.0533247" lon="11.3903869"><ele>820.0</ele><time>2026-05-02T08:38:08.956Z</time></trkpt><trkpt lat="44.053171" lon="11.3904365"><ele>820.0</ele><time>2026-05-02T08:38:10.029Z</time></trkpt><trkpt lat="44.0530255" lon="11.3905079"><ele>820.0</ele><time>2026-05-02T08:38:10.959Z</time></trkpt><trkpt lat="44.0528936" lon="11.3905568"><ele>820.0</ele><time>2026-05-02T08:38:11.966Z</time></trkpt><trkpt lat="44.0527483" lon="11.3905483"><ele>820.0</ele><time>2026-05-02T08:38:12.955Z</time></trkpt><trkpt lat="44.0525944" lon="11.3905051"><ele>819.3333333333333</ele><time>2026-05-02T08:38:13.968Z</time></trkpt><trkpt lat="44.0524465" lon="11.3904482"><ele>818.6666666666667</ele><time>2026-05-02T08:38:14.968Z</time></trkpt><trkpt lat="44.0523049" lon="11.3903724"><ele>818.0</ele><time>2026-05-02T08:38:15.955Z</time></trkpt><trkpt lat="44.0521627" lon="11.3902939"><ele>818.0</ele><time>2026-05-02T08:38:16.966Z</time></trkpt><trkpt lat="44.0520188" lon="11.3902175"><ele>818.0</ele><time>2026-05-02T08:38:18.01Z</time></trkpt><trkpt lat="44.0518696" lon="11.3901424"><ele>818.0</ele><time>2026-05-02T08:38:18.958Z</time></trkpt><trkpt lat="44.0517201" lon="11.3900924"><ele>818.6666666666667</ele><time>2026-05-02T08:38:20.044Z</time></trkpt><trkpt lat="44.0515636" lon="11.3900622"><ele>819.3333333333333</ele><time>2026-05-02T08:38:20.96Z</time></trkpt><trkpt lat="44.0514075" lon="11.3900766"><ele>820.0</ele><time>2026-05-02T08:38:21.962Z</time></trkpt><trkpt lat="44.0512525" lon="11.3900995"><ele>820.0</ele><time>2026-05-02T08:38:22.986Z</time></trkpt><trkpt lat="44.0510919" lon="11.3900922"><ele>820.0</ele><time>2026-05-02T08:38:23.964Z</time></trkpt><trkpt lat="44.0509467" lon="11.3900204"><ele>820.0</ele><time>2026-05-02T08:38:25.029Z</time></trkpt><trkpt lat="44.0508061" lon="11.3899153"><ele>823.0</ele><time>2026-05-02T08:38:25.96Z</time></trkpt><trkpt lat="44.0506668" lon="11.3898162"><ele>826.0</ele><time>2026-05-02T08:38:26.957Z</time></trkpt><trkpt lat="44.0505187" lon="11.3897301"><ele>829.0</ele><time>2026-05-02T08:38:27.957Z</time></trkpt><trkpt lat="44.0503695" lon="11.3896664"><ele>835.3333333333333</ele><time>2026-05-02T08:38:29.032Z</time></trkpt><trkpt lat="44.0502086" lon="11.3896228"><ele>841.6666666666667</ele><time>2026-05-02T08:38:30.034Z</time></trkpt><trkpt lat="44.0500425" lon="11.3895915"><ele>848.0</ele><time>2026-05-02T08:38:30.959Z</time></trkpt><trkpt lat="44.0498816" lon="11.3895889"><ele>846.6666666666667</ele><time>2026-05-02T08:38:31.964Z</time></trkpt><trkpt lat="44.0497172" lon="11.3896232"><ele>845.3333333333333</ele><time>2026-05-02T08:38:32.953Z</time></trkpt><trkpt lat="44.0495563" lon="11.3896971"><ele>844.0</ele><time>2026-05-02T08:38:33.951Z</time></trkpt><trkpt lat="44.0494079" lon="11.3897876"><ele>844.0</ele><time>2026-05-02T08:38:34.952Z</time></trkpt><trkpt lat="44.0492688" lon="11.3898861"><ele>844.0</ele><time>2026-05-02T08:38:35.954Z</time></trkpt><trkpt lat="44.0491493" lon="11.3899918"><ele>844.0</ele><time>2026-05-02T08:38:36.96Z</time></trkpt><trkpt lat="44.0490644" lon="11.3901108"><ele>844.0</ele><time>2026-05-02T08:38:38.035Z</time></trkpt><trkpt lat="44.0490105" lon="11.3902494"><ele>845.25</ele><time>2026-05-02T08:38:39.029Z</time></trkpt><trkpt lat="44.0489696" lon="11.3904203"><ele>846.5</ele><time>2026-05-02T08:38:40.035Z</time></trkpt><trkpt lat="44.0489442" lon="11.3905957"><ele>847.75</ele><time>2026-05-02T08:38:40.958Z</time></trkpt><trkpt lat="44.0488938" lon="11.3907597"><ele>849.0</ele><time>2026-05-02T08:38:41.961Z</time></trkpt><trkpt lat="44.0488228" lon="11.3909257"><ele>849.0</ele><time>2026-05-02T08:38:42.965Z</time></trkpt><trkpt lat="44.0487507" lon="11.3910971"><ele>849.0</ele><time>2026-05-02T08:38:44.018Z</time></trkpt><trkpt lat="44.0486804" lon="11.3912592"><ele>849.0</ele><time>2026-05-02T08:38:44.947Z</time></trkpt><trkpt lat="44.0486354" lon="11.3914253"><ele>849.0</ele><time>2026-05-02T08:38:45.96Z</time></trkpt><trkpt lat="44.0486064" lon="11.3915621"><ele>849.0</ele><time>2026-05-02T08:38:46.96Z</time></trkpt><trkpt lat="44.0485465" lon="11.3916575"><ele>849.0</ele><time>2026-05-02T08:38:47.955Z</time></trkpt><trkpt lat="44.0484355" lon="11.3916511"><ele>849.0</ele><time>2026-05-02T08:38:49.961Z</time></trkpt><trkpt lat="44.0484062" lon="11.3915537"><ele>849.0</ele><time>2026-05-02T08:38:50.962Z</time></trkpt><trkpt lat="44.0484054" lon="11.391433"><ele>849.0</ele><time>2026-05-02T08:38:51.964Z</time></trkpt><trkpt lat="44.0484035" lon="11.3913165"><ele>849.0</ele><time>2026-05-02T08:38:52.966Z</time></trkpt><trkpt lat="44.048386" lon="11.3911946"><ele>849.0</ele><time>2026-05-02T08:38:53.965Z</time></trkpt><trkpt lat="44.0483553" lon="11.3910658"><ele>849.0</ele><time>2026-05-02T08:38:54.956Z</time></trkpt><trkpt lat="44.0483143" lon="11.3909342"><ele>849.0</ele><time>2026-05-02T08:38:55.96Z</time></trkpt><trkpt lat="44.0482646" lon="11.3907953"><ele>849.0</ele><time>2026-05-02T08:38:56.957Z</time></trkpt><trkpt lat="44.048204" lon="11.3906574"><ele>849.0</ele><time>2026-05-02T08:38:57.957Z</time></trkpt><trkpt lat="44.0481464" lon="11.3905172"><ele>853.5</ele><time>2026-05-02T08:38:58.954Z</time></trkpt><trkpt lat="44.0480766" lon="11.3903913"><ele>858.0</ele><time>2026-05-02T08:39:00.043Z</time></trkpt><trkpt lat="44.0479893" lon="11.3902918"><ele>862.5</ele><time>2026-05-02T08:39:00.96Z</time></trkpt><trkpt lat="44.0478633" lon="11.390251"><ele>867.0</ele><time>2026-05-02T08:39:01.953Z</time></trkpt><trkpt lat="44.0477426" lon="11.3902768"><ele>867.0</ele><time>2026-05-02T08:39:02.996Z</time></trkpt><trkpt lat="44.0476301" lon="11.3903442"><ele>867.0</ele><time>2026-05-02T08:39:03.986Z</time></trkpt><trkpt lat="44.0475191" lon="11.3904511"><ele>867.0</ele><time>2026-05-02T08:39:04.967Z</time></trkpt><trkpt lat="44.0474212" lon="11.390524"><ele>867.0</ele><time>2026-05-02T08:39:05.968Z</time></trkpt><trkpt lat="44.0473384" lon="11.3905385"><ele>865.1666666666666</ele><time>2026-05-02T08:39:07.037Z</time></trkpt><trkpt lat="44.0472732" lon="11.3905047"><ele>863.3333333333333</ele><time>2026-05-02T08:39:08.038Z</time></trkpt><trkpt lat="44.0472282" lon="11.3904214"><ele>861.5</ele><time>2026-05-02T08:39:09.043Z</time></trkpt><trkpt lat="44.0472139" lon="11.3902984"><ele>859.6666666666666</ele><time>2026-05-02T08:39:10.034Z</time></trkpt><trkpt lat="44.0472121" lon="11.3901596"><ele>857.8333333333333</ele><time>2026-05-02T08:39:10.972Z</time></trkpt><trkpt lat="44.0472066" lon="11.3900164"><ele>856.0</ele><time>2026-05-02T08:39:11.985Z</time></trkpt><trkpt lat="44.047197" lon="11.3898591"><ele>856.0</ele><time>2026-05-02T08:39:12.991Z</time></trkpt><trkpt lat="44.0471864" lon="11.3897086"><ele>856.0</ele><time>2026-05-02T08:39:14.027Z</time></trkpt><trkpt lat="44.0471748" lon="11.3895535"><ele>856.0</ele><time>2026-05-02T08:39:14.956Z</time></trkpt><trkpt lat="44.0471459" lon="11.3893956"><ele>856.0</ele><time>2026-05-02T08:39:15.96Z</time></trkpt><trkpt lat="44.0471077" lon="11.3892445"><ele>858.8</ele><time>2026-05-02T08:39:16.953Z</time></trkpt><trkpt lat="44.0470842" lon="11.3890963"><ele>861.5999999999999</ele><time>2026-05-02T08:39:17.958Z</time></trkpt><trkpt lat="44.0470864" lon="11.3889438"><ele>864.4</ele><time>2026-05-02T08:39:18.969Z</time></trkpt><trkpt lat="44.0471042" lon="11.3887855"><ele>867.2</ele><time>2026-05-02T08:39:19.974Z</time></trkpt><trkpt lat="44.047127" lon="11.3886399"><ele>870.0</ele><time>2026-05-02T08:39:20.973Z</time></trkpt><trkpt lat="44.0471312" lon="11.3884997"><ele>872.2</ele><time>2026-05-02T08:39:21.979Z</time></trkpt><trkpt lat="44.0471169" lon="11.3883666"><ele>874.4</ele><time>2026-05-02T08:39:22.996Z</time></trkpt><trkpt lat="44.0470735" lon="11.3882461"><ele>876.5999999999999</ele><time>2026-05-02T08:39:23.982Z</time></trkpt><trkpt lat="44.04701" lon="11.3881611"><ele>878.8</ele><time>2026-05-02T08:39:24.979Z</time></trkpt><trkpt lat="44.0469336" lon="11.3880894"><ele>881.0</ele><time>2026-05-02T08:39:25.967Z</time></trkpt><trkpt lat="44.0468505" lon="11.3880284"><ele>881.1999999999999</ele><time>2026-05-02T08:39:26.975Z</time></trkpt><trkpt lat="44.0467575" lon="11.3879759"><ele>881.3999999999999</ele><time>2026-05-02T08:39:27.978Z</time></trkpt><trkpt lat="44.0466498" lon="11.3879287"><ele>881.6</ele><time>2026-05-02T08:39:28.974Z</time></trkpt><trkpt lat="44.0465531" lon="11.3878627"><ele>881.8</ele><time>2026-05-02T08:39:29.976Z</time></trkpt><trkpt lat="44.0464542" lon="11.3877961"><ele>882.0</ele><time>2026-05-02T08:39:30.978Z</time></trkpt><trkpt lat="44.0463591" lon="11.3877367"><ele>880.8</ele><time>2026-05-02T08:39:31.975Z</time></trkpt><trkpt lat="44.0462596" lon="11.3876651"><ele>879.6</ele><time>2026-05-02T08:39:32.977Z</time></trkpt><trkpt lat="44.0461646" lon="11.3875869"><ele>878.3999999999999</ele><time>2026-05-02T08:39:34.035Z</time></trkpt><trkpt lat="44.0460742" lon="11.3875033"><ele>877.1999999999999</ele><time>2026-05-02T08:39:34.952Z</time></trkpt><trkpt lat="44.0459794" lon="11.3874216"><ele>876.0</ele><time>2026-05-02T08:39:35.966Z</time></trkpt><trkpt lat="44.045878" lon="11.3873562"><ele>874.75</ele><time>2026-05-02T08:39:36.961Z</time></trkpt><trkpt lat="44.0457662" lon="11.387329"><ele>873.5</ele><time>2026-05-02T08:39:37.952Z</time></trkpt><trkpt lat="44.0456511" lon="11.3873371"><ele>872.25</ele><time>2026-05-02T08:39:38.948Z</time></trkpt><trkpt lat="44.0455358" lon="11.3873595"><ele>871.0</ele><time>2026-05-02T08:39:39.956Z</time></trkpt><trkpt lat="44.0454175" lon="11.3873879"><ele>871.0</ele><time>2026-05-02T08:39:40.963Z</time></trkpt><trkpt lat="44.0453069" lon="11.3874259"><ele>870.9999999999999</ele><time>2026-05-02T08:39:41.953Z</time></trkpt><trkpt lat="44.0452019" lon="11.3874687"><ele>870.9999999999999</ele><time>2026-05-02T08:39:42.936Z</time></trkpt><trkpt lat="44.0451052" lon="11.3875284"><ele>871.0</ele><time>2026-05-02T08:39:43.951Z</time></trkpt><trkpt lat="44.0449978" lon="11.3875902"><ele>871.0</ele><time>2026-05-02T08:39:44.952Z</time></trkpt><trkpt lat="44.0448836" lon="11.3876491"><ele>870.0</ele><time>2026-05-02T08:39:45.957Z</time></trkpt><trkpt lat="44.0447712" lon="11.3877027"><ele>868.9999999999999</ele><time>2026-05-02T08:39:46.948Z</time></trkpt><trkpt lat="44.0446665" lon="11.3877364"><ele>867.9999999999999</ele><time>2026-05-02T08:39:47.948Z</time></trkpt><trkpt lat="44.0445782" lon="11.3877376"><ele>867.0</ele><time>2026-05-02T08:39:48.959Z</time></trkpt><trkpt lat="44.0445045" lon="11.387688"><ele>866.0</ele><time>2026-05-02T08:39:49.94Z</time></trkpt><trkpt lat="44.0444655" lon="11.3876038"><ele>866.0</ele><time>2026-05-02T08:39:50.954Z</time></trkpt><trkpt lat="44.0444594" lon="11.3874931"><ele>865.9999999999999</ele><time>2026-05-02T08:39:51.95Z</time></trkpt><trkpt lat="44.0444895" lon="11.3873656"><ele>865.9999999999999</ele><time>2026-05-02T08:39:52.953Z</time></trkpt><trkpt lat="44.0445192" lon="11.3872315"><ele>866.0</ele><time>2026-05-02T08:39:53.939Z</time></trkpt><trkpt lat="44.0445279" lon="11.3870877"><ele>866.0</ele><time>2026-05-02T08:39:55.036Z</time></trkpt><trkpt lat="44.0445251" lon="11.3869341"><ele>862.8</ele><time>2026-05-02T08:39:55.961Z</time></trkpt><trkpt lat="44.0445235" lon="11.3867865"><ele>859.5999999999999</ele><time>2026-05-02T08:39:56.967Z</time></trkpt><trkpt lat="44.0445449" lon="11.3866674"><ele>856.4</ele><time>2026-05-02T08:39:57.989Z</time></trkpt><trkpt lat="44.0445967" lon="11.3865484"><ele>853.2</ele><time>2026-05-02T08:39:59.036Z</time></trkpt><trkpt lat="44.0446656" lon="11.3864545"><ele>850.0</ele><time>2026-05-02T08:40:00.005Z</time></trkpt><trkpt lat="44.0447408" lon="11.3863813"><ele>849.0</ele><time>2026-05-02T08:40:00.968Z</time></trkpt><trkpt lat="44.0448275" lon="11.386301"><ele>848.0</ele><time>2026-05-02T08:40:01.971Z</time></trkpt><trkpt lat="44.0449317" lon="11.3862181"><ele>847.0</ele><time>2026-05-02T08:40:02.993Z</time></trkpt><trkpt lat="44.0450153" lon="11.3860969"><ele>846.0</ele><time>2026-05-02T08:40:04.001Z</time></trkpt><trkpt lat="44.0450848" lon="11.3859778"><ele>846.0</ele><time>2026-05-02T08:40:04.97Z</time></trkpt><trkpt lat="44.0451663" lon="11.3858805"><ele>846.0</ele><time>2026-05-02T08:40:05.964Z</time></trkpt><trkpt lat="44.0452669" lon="11.3858221"><ele>846.0</ele><time>2026-05-02T08:40:06.963Z</time></trkpt><trkpt lat="44.0453572" lon="11.3857899"><ele>846.0</ele><time>2026-05-02T08:40:07.965Z</time></trkpt><trkpt lat="44.0454308" lon="11.3857634"><ele>846.0</ele><time>2026-05-02T08:40:08.968Z</time></trkpt><trkpt lat="44.0455453" lon="11.3857523"><ele>846.0</ele><time>2026-05-02T08:40:10.963Z</time></trkpt><trkpt lat="44.0456614" lon="11.3857441"><ele>846.0</ele><time>2026-05-02T08:40:12.974Z</time></trkpt><trkpt lat="44.0457241" lon="11.3857522"><ele>846.0</ele><time>2026-05-02T08:40:13.972Z</time></trkpt><trkpt lat="44.0457891" lon="11.3857725"><ele>846.0</ele><time>2026-05-02T08:40:14.959Z</time></trkpt><trkpt lat="44.0458543" lon="11.3858123"><ele>846.0</ele><time>2026-05-02T08:40:15.978Z</time></trkpt><trkpt lat="44.0459098" lon="11.3858655"><ele>846.0</ele><time>2026-05-02T08:40:16.98Z</time></trkpt><trkpt lat="44.0459686" lon="11.3859009"><ele>846.0</ele><time>2026-05-02T08:40:17.979Z</time></trkpt><trkpt lat="44.0460337" lon="11.3859139"><ele>847.5999999999999</ele><time>2026-05-02T08:40:18.965Z</time></trkpt><trkpt lat="44.046125" lon="11.385906"><ele>849.2</ele><time>2026-05-02T08:40:20.97Z</time></trkpt><trkpt lat="44.0462059" lon="11.3858401"><ele>850.8000000000001</ele><time>2026-05-02T08:40:22.979Z</time></trkpt><trkpt lat="44.0462887" lon="11.3857819"><ele>852.4000000000001</ele><time>2026-05-02T08:40:24.976Z</time></trkpt><trkpt lat="44.0463859" lon="11.3857161"><ele>854.0</ele><time>2026-05-02T08:40:26.962Z</time></trkpt><trkpt lat="44.0464752" lon="11.3856344"><ele>854.0</ele><time>2026-05-02T08:40:28.963Z</time></trkpt><trkpt lat="44.0465764" lon="11.3855509"><ele>854.0000000000001</ele><time>2026-05-02T08:40:30.968Z</time></trkpt><trkpt lat="44.0466696" lon="11.3854824"><ele>854.0000000000001</ele><time>2026-05-02T08:40:33.033Z</time></trkpt><trkpt lat="44.0467784" lon="11.3853931"><ele>854.0</ele><time>2026-05-02T08:40:34.977Z</time></trkpt><trkpt lat="44.0468467" lon="11.3853401"><ele>854.0</ele><time>2026-05-02T08:40:35.949Z</time></trkpt><trkpt lat="44.0469135" lon="11.3852831"><ele>855.8000000000001</ele><time>2026-05-02T08:40:36.976Z</time></trkpt><trkpt lat="44.0469622" lon="11.3852213"><ele>857.6000000000001</ele><time>2026-05-02T08:40:37.975Z</time></trkpt><trkpt lat="44.0470091" lon="11.3851483"><ele>859.4</ele><time>2026-05-02T08:40:38.95Z</time></trkpt><trkpt lat="44.047014" lon="11.3850185"><ele>861.2</ele><time>2026-05-02T08:40:40.964Z</time></trkpt><trkpt lat="44.0469646" lon="11.3848654"><ele>863.0</ele><time>2026-05-02T08:40:42.977Z</time></trkpt><trkpt lat="44.0469108" lon="11.3847326"><ele>863.0000000000001</ele><time>2026-05-02T08:40:44.965Z</time></trkpt><trkpt lat="44.046867" lon="11.384604"><ele>863.0</ele><time>2026-05-02T08:40:46.983Z</time></trkpt><trkpt lat="44.0468523" lon="11.3845121"><ele>863.0</ele><time>2026-05-02T08:40:47.969Z</time></trkpt><trkpt lat="44.0468079" lon="11.3843442"><ele>863.0</ele><time>2026-05-02T08:40:49.974Z</time></trkpt><trkpt lat="44.0467834" lon="11.3842488"><ele>863.0000000000001</ele><time>2026-05-02T08:40:50.954Z</time></trkpt><trkpt lat="44.0467689" lon="11.3841539"><ele>863.0</ele><time>2026-05-02T08:40:51.965Z</time></trkpt><trkpt lat="44.0467429" lon="11.3840609"><ele>863.0000000000001</ele><time>2026-05-02T08:40:52.966Z</time></trkpt><trkpt lat="44.0466878" lon="11.3839067"><ele>863.0</ele><time>2026-05-02T08:40:54.969Z</time></trkpt><trkpt lat="44.0466417" lon="11.3838307"><ele>863.0</ele><time>2026-05-02T08:40:55.978Z</time></trkpt><trkpt lat="44.0466005" lon="11.3837457"><ele>863.0</ele><time>2026-05-02T08:40:56.972Z</time></trkpt><trkpt lat="44.0465629" lon="11.3836673"><ele>863.0000000000001</ele><time>2026-05-02T08:40:57.97Z</time></trkpt><trkpt lat="44.0465281" lon="11.3835776"><ele>863.0</ele><time>2026-05-02T08:40:58.972Z</time></trkpt><trkpt lat="44.0464867" lon="11.3834856"><ele>857.5999999999999</ele><time>2026-05-02T08:40:59.983Z</time></trkpt><trkpt lat="44.0464537" lon="11.383401"><ele>852.1999999999999</ele><time>2026-05-02T08:41:00.969Z</time></trkpt><trkpt lat="44.0464371" lon="11.3832278"><ele>846.8</ele><time>2026-05-02T08:41:02.974Z</time></trkpt><trkpt lat="44.0464646" lon="11.383065"><ele>841.4</ele><time>2026-05-02T08:41:04.959Z</time></trkpt><trkpt lat="44.0464894" lon="11.3829752"><ele>836.0</ele><time>2026-05-02T08:41:05.987Z</time></trkpt><trkpt lat="44.0465071" lon="11.382854"><ele>834.8</ele><time>2026-05-02T08:41:07.973Z</time></trkpt><trkpt lat="44.0465326" lon="11.3827102"><ele>833.5999999999999</ele><time>2026-05-02T08:41:10.039Z</time></trkpt><trkpt lat="44.0465555" lon="11.382567"><ele>832.4</ele><time>2026-05-02T08:41:11.973Z</time></trkpt><trkpt lat="44.0465738" lon="11.3824784"><ele>831.2</ele><time>2026-05-02T08:41:12.953Z</time></trkpt><trkpt lat="44.0465906" lon="11.3823307"><ele>830.0</ele><time>2026-05-02T08:41:15.036Z</time></trkpt><trkpt lat="44.0466031" lon="11.3822098"><ele>830.1666666666667</ele><time>2026-05-02T08:41:16.957Z</time></trkpt><trkpt lat="44.0466302" lon="11.3820633"><ele>830.3333333333334</ele><time>2026-05-02T08:41:19.038Z</time></trkpt><trkpt lat="44.0466537" lon="11.3819205"><ele>830.5</ele><time>2026-05-02T08:41:20.959Z</time></trkpt><trkpt lat="44.0466565" lon="11.3817999"><ele>830.6666666666667</ele><time>2026-05-02T08:41:22.982Z</time></trkpt><trkpt lat="44.046647" lon="11.3817082"><ele>830.8333333333334</ele><time>2026-05-02T08:41:24.957Z</time></trkpt><trkpt lat="44.0466388" lon="11.3816044"><ele>831.0</ele><time>2026-05-02T08:41:26.967Z</time></trkpt><trkpt lat="44.0466184" lon="11.3815081"><ele>831.0</ele><time>2026-05-02T08:41:29.032Z</time></trkpt><trkpt lat="44.0465964" lon="11.3814231"><ele>831.0</ele><time>2026-05-02T08:41:30.992Z</time></trkpt><trkpt lat="44.0465491" lon="11.3813181"><ele>831.0</ele><time>2026-05-02T08:41:32.957Z</time></trkpt><trkpt lat="44.0464685" lon="11.3812127"><ele>831.0</ele><time>2026-05-02T08:41:34.94Z</time></trkpt><trkpt lat="44.0464135" lon="11.3810864"><ele>831.0</ele><time>2026-05-02T08:41:36.952Z</time></trkpt><trkpt lat="44.0463439" lon="11.3809585"><ele>835.8</ele><time>2026-05-02T08:41:38.965Z</time></trkpt><trkpt lat="44.0462693" lon="11.380868"><ele>840.5999999999999</ele><time>2026-05-02T08:41:40.947Z</time></trkpt><trkpt lat="44.0462063" lon="11.3807867"><ele>845.4</ele><time>2026-05-02T08:41:42.957Z</time></trkpt><trkpt lat="44.0461544" lon="11.380688"><ele>850.2</ele><time>2026-05-02T08:41:44.966Z</time></trkpt><trkpt lat="44.0461273" lon="11.3805705"><ele>855.0</ele><time>2026-05-02T08:41:46.956Z</time></trkpt><trkpt lat="44.0460994" lon="11.3804476"><ele>856.6</ele><time>2026-05-02T08:41:48.964Z</time></trkpt><trkpt lat="44.0460531" lon="11.3803292"><ele>858.2</ele><time>2026-05-02T08:41:50.963Z</time></trkpt><trkpt lat="44.0459754" lon="11.3802171"><ele>859.8</ele><time>2026-05-02T08:41:52.955Z</time></trkpt><trkpt lat="44.0459315" lon="11.3801468"><ele>861.4</ele><time>2026-05-02T08:41:53.956Z</time></trkpt><trkpt lat="44.0458732" lon="11.3800249"><ele>863.0</ele><time>2026-05-02T08:41:55.979Z</time></trkpt><trkpt lat="44.0458478" lon="11.3798695"><ele>863.0</ele><time>2026-05-02T08:41:57.949Z</time></trkpt><trkpt lat="44.0458582" lon="11.379708"><ele>863.0</ele><time>2026-05-02T08:41:59.969Z</time></trkpt><trkpt lat="44.0458743" lon="11.3795522"><ele>863.0</ele><time>2026-05-02T08:42:01.965Z</time></trkpt><trkpt lat="44.0459141" lon="11.3793883"><ele>863.0</ele><time>2026-05-02T08:42:03.961Z</time></trkpt><trkpt lat="44.045923" lon="11.3792995"><ele>863.0</ele><time>2026-05-02T08:42:04.96Z</time></trkpt><trkpt lat="44.0459324" lon="11.3791498"><ele>862.3333333333334</ele><time>2026-05-02T08:42:06.958Z</time></trkpt><trkpt lat="44.0459533" lon="11.3790076"><ele>861.6666666666667</ele><time>2026-05-02T08:42:08.96Z</time></trkpt><trkpt lat="44.0459901" lon="11.3788692"><ele>861.0</ele><time>2026-05-02T08:42:10.963Z</time></trkpt><trkpt lat="44.0460117" lon="11.3787728"><ele>860.3333333333333</ele><time>2026-05-02T08:42:13.053Z</time></trkpt><trkpt lat="44.0460308" lon="11.3786833"><ele>859.6666666666666</ele><time>2026-05-02T08:42:15.03Z</time></trkpt><trkpt lat="44.0460585" lon="11.3785872"><ele>859.0</ele><time>2026-05-02T08:42:16.965Z</time></trkpt><trkpt lat="44.0461041" lon="11.3784867"><ele>856.8333333333333</ele><time>2026-05-02T08:42:18.964Z</time></trkpt><trkpt lat="44.0461686" lon="11.3784101"><ele>854.6666666666666</ele><time>2026-05-02T08:42:20.963Z</time></trkpt><trkpt lat="44.0462219" lon="11.3783348"><ele>852.5</ele><time>2026-05-02T08:42:23.062Z</time></trkpt><trkpt lat="44.0462848" lon="11.3782367"><ele>850.3333333333333</ele><time>2026-05-02T08:42:24.953Z</time></trkpt><trkpt lat="44.046328" lon="11.378142"><ele>848.1666666666666</ele><time>2026-05-02T08:42:26.961Z</time></trkpt><trkpt lat="44.0463755" lon="11.3780377"><ele>846.0</ele><time>2026-05-02T08:42:28.945Z</time></trkpt><trkpt lat="44.0464068" lon="11.3779426"><ele>844.0</ele><time>2026-05-02T08:42:30.948Z</time></trkpt><trkpt lat="44.0464464" lon="11.3778238"><ele>842.0</ele><time>2026-05-02T08:42:32.966Z</time></trkpt><trkpt lat="44.0464638" lon="11.3776883"><ele>840.0</ele><time>2026-05-02T08:42:34.955Z</time></trkpt><trkpt lat="44.046491" lon="11.3775495"><ele>838.0</ele><time>2026-05-02T08:42:36.959Z</time></trkpt><trkpt lat="44.0465141" lon="11.3774054"><ele>836.0</ele><time>2026-05-02T08:42:38.95Z</time></trkpt><trkpt lat="44.0465284" lon="11.3772547"><ele>835.5000000000001</ele><time>2026-05-02T08:42:40.968Z</time></trkpt><trkpt lat="44.0465087" lon="11.3770956"><ele>835.0</ele><time>2026-05-02T08:42:42.962Z</time></trkpt><trkpt lat="44.0464867" lon="11.3770105"><ele>834.5</ele><time>2026-05-02T08:42:43.958Z</time></trkpt><trkpt lat="44.0464534" lon="11.3769174"><ele>834.0</ele><time>2026-05-02T08:42:44.956Z</time></trkpt><trkpt lat="44.0464316" lon="11.3768309"><ele>833.5000000000001</ele><time>2026-05-02T08:42:45.951Z</time></trkpt><trkpt lat="44.04639" lon="11.3766692"><ele>833.0</ele><time>2026-05-02T08:42:47.956Z</time></trkpt><trkpt lat="44.0463594" lon="11.3765167"><ele>833.0</ele><time>2026-05-02T08:42:49.948Z</time></trkpt><trkpt lat="44.0463555" lon="11.3763531"><ele>833.0</ele><time>2026-05-02T08:42:51.953Z</time></trkpt><trkpt lat="44.0463477" lon="11.3762636"><ele>833.0</ele><time>2026-05-02T08:42:52.953Z</time></trkpt><trkpt lat="44.0463372" lon="11.3761709"><ele>833.0</ele><time>2026-05-02T08:42:53.968Z</time></trkpt><trkpt lat="44.0463132" lon="11.3760263"><ele>833.0</ele><time>2026-05-02T08:42:55.965Z</time></trkpt><trkpt lat="44.0462929" lon="11.3758772"><ele>833.6666666666667</ele><time>2026-05-02T08:42:57.957Z</time></trkpt><trkpt lat="44.0462697" lon="11.375751"><ele>834.3333333333334</ele><time>2026-05-02T08:42:59.961Z</time></trkpt><trkpt lat="44.0462673" lon="11.3756416"><ele>835.0</ele><time>2026-05-02T08:43:01.961Z</time></trkpt><trkpt lat="44.0462785" lon="11.3755215"><ele>835.6666666666667</ele><time>2026-05-02T08:43:03.97Z</time></trkpt><trkpt lat="44.0462746" lon="11.3754055"><ele>836.3333333333334</ele><time>2026-05-02T08:43:05.979Z</time></trkpt><trkpt lat="44.0462601" lon="11.375302"><ele>837.0</ele><time>2026-05-02T08:43:09.956Z</time></trkpt><trkpt lat="44.0462928" lon="11.3752201"><ele>838.6666666666666</ele><time>2026-05-02T08:43:12.953Z</time></trkpt><trkpt lat="44.0463247" lon="11.3751398"><ele>840.3333333333333</ele><time>2026-05-02T08:43:14.957Z</time></trkpt><trkpt lat="44.046384" lon="11.3750441"><ele>842.0</ele><time>2026-05-02T08:43:17.967Z</time></trkpt><trkpt lat="44.0464484" lon="11.3749596"><ele>843.6666666666666</ele><time>2026-05-02T08:43:21.96Z</time></trkpt><trkpt lat="44.0465052" lon="11.3748983"><ele>845.3333333333333</ele><time>2026-05-02T08:45:19.97Z</time></trkpt><trkpt lat="44.0465664" lon="11.3748168"><ele>847.0</ele><time>2026-05-02T08:45:21.963Z</time></trkpt><trkpt lat="44.0466433" lon="11.3747281"><ele>846.6</ele><time>2026-05-02T08:45:23.966Z</time></trkpt><trkpt lat="44.0467355" lon="11.3746443"><ele>846.2</ele><time>2026-05-02T08:45:25.961Z</time></trkpt><trkpt lat="44.0468216" lon="11.3745677"><ele>845.8</ele><time>2026-05-02T08:45:27.962Z</time></trkpt><trkpt lat="44.0469075" lon="11.374493"><ele>845.4</ele><time>2026-05-02T08:45:29.956Z</time></trkpt><trkpt lat="44.046979" lon="11.3744165"><ele>845.0</ele><time>2026-05-02T08:45:31.953Z</time></trkpt><trkpt lat="44.0470468" lon="11.3743337"><ele>845.0</ele><time>2026-05-02T08:45:33.956Z</time></trkpt><trkpt lat="44.0471252" lon="11.374256"><ele>845.0</ele><time>2026-05-02T08:45:35.968Z</time></trkpt><trkpt lat="44.0472162" lon="11.3741727"><ele>845.0</ele><time>2026-05-02T08:45:37.966Z</time></trkpt><trkpt lat="44.0472841" lon="11.3740901"><ele>845.0</ele><time>2026-05-02T08:45:39.967Z</time></trkpt><trkpt lat="44.0473806" lon="11.3740153"><ele>845.0</ele><time>2026-05-02T08:45:41.96Z</time></trkpt><trkpt lat="44.0474854" lon="11.37395"><ele>846.8333333333334</ele><time>2026-05-02T08:45:43.951Z</time></trkpt><trkpt lat="44.0475513" lon="11.3738826"><ele>848.6666666666667</ele><time>2026-05-02T08:45:45.97Z</time></trkpt><trkpt lat="44.0476154" lon="11.3738332"><ele>850.5</ele><time>2026-05-02T08:45:47.958Z</time></trkpt><trkpt lat="44.0476933" lon="11.3737677"><ele>852.3333333333333</ele><time>2026-05-02T08:45:50.966Z</time></trkpt><trkpt lat="44.0477599" lon="11.3737399"><ele>854.1666666666666</ele><time>2026-05-02T08:46:02.943Z</time></trkpt><trkpt lat="44.0478302" lon="11.3737358"><ele>856.0</ele><time>2026-05-02T08:46:05.961Z</time></trkpt><trkpt lat="44.0479175" lon="11.3737193"><ele>856.6666666666666</ele><time>2026-05-02T08:46:08.955Z</time></trkpt><trkpt lat="44.047996" lon="11.3737197"><ele>857.3333333333333</ele><time>2026-05-02T08:46:11.953Z</time></trkpt><trkpt lat="44.0480687" lon="11.3737468"><ele>858.0</ele><time>2026-05-02T08:46:14.959Z</time></trkpt><trkpt lat="44.0481517" lon="11.3737855"><ele>858.6666666666667</ele><time>2026-05-02T08:46:17.959Z</time></trkpt><trkpt lat="44.048219" lon="11.3738111"><ele>859.3333333333334</ele><time>2026-05-02T08:46:19.961Z</time></trkpt><trkpt lat="44.0482748" lon="11.3738521"><ele>860.0</ele><time>2026-05-02T08:46:21.962Z</time></trkpt><trkpt lat="44.0483289" lon="11.3739328"><ele>860.0000000000001</ele><time>2026-05-02T08:46:23.96Z</time></trkpt><trkpt lat="44.0483842" lon="11.3739917"><ele>860.0</ele><time>2026-05-02T08:46:25.952Z</time></trkpt><trkpt lat="44.0484355" lon="11.3740556"><ele>860.0</ele><time>2026-05-02T08:46:27.955Z</time></trkpt><trkpt lat="44.0485161" lon="11.3740787"><ele>860.0</ele><time>2026-05-02T08:46:29.956Z</time></trkpt><trkpt lat="44.0486122" lon="11.3741244"><ele>860.0000000000001</ele><time>2026-05-02T08:46:31.955Z</time></trkpt><trkpt lat="44.0487145" lon="11.3741781"><ele>860.0</ele><time>2026-05-02T08:46:33.966Z</time></trkpt><trkpt lat="44.0487956" lon="11.3741952"><ele>860.0</ele><time>2026-05-02T08:46:35.954Z</time></trkpt><trkpt lat="44.0488855" lon="11.3742334"><ele>860.0</ele><time>2026-05-02T08:46:37.964Z</time></trkpt><trkpt lat="44.0489948" lon="11.3742871"><ele>860.0</ele><time>2026-05-02T08:46:39.953Z</time></trkpt><trkpt lat="44.0490879" lon="11.3743475"><ele>860.0</ele><time>2026-05-02T08:46:41.961Z</time></trkpt><trkpt lat="44.0491769" lon="11.3743896"><ele>860.0</ele><time>2026-05-02T08:46:43.956Z</time></trkpt><trkpt lat="44.0492725" lon="11.3744356"><ele>858.1666666666667</ele><time>2026-05-02T08:46:45.954Z</time></trkpt><trkpt lat="44.0493605" lon="11.3744523"><ele>856.3333333333334</ele><time>2026-05-02T08:46:47.956Z</time></trkpt><trkpt lat="44.0494221" lon="11.3744766"><ele>854.5</ele><time>2026-05-02T08:46:48.957Z</time></trkpt><trkpt lat="44.0495179" lon="11.3745352"><ele>852.6666666666667</ele><time>2026-05-02T08:46:50.959Z</time></trkpt><trkpt lat="44.0496127" lon="11.3745832"><ele>850.8333333333334</ele><time>2026-05-02T08:46:53.025Z</time></trkpt><trkpt lat="44.0496866" lon="11.3746233"><ele>849.0</ele><time>2026-05-02T08:46:55.042Z</time></trkpt><trkpt lat="44.0497644" lon="11.3746738"><ele>851.0</ele><time>2026-05-02T08:46:56.968Z</time></trkpt><trkpt lat="44.0498581" lon="11.3747385"><ele>853.0</ele><time>2026-05-02T08:46:58.974Z</time></trkpt><trkpt lat="44.0499574" lon="11.3748056"><ele>855.0000000000001</ele><time>2026-05-02T08:47:00.948Z</time></trkpt><trkpt lat="44.0500432" lon="11.3748829"><ele>857.0</ele><time>2026-05-02T08:47:02.968Z</time></trkpt><trkpt lat="44.0501104" lon="11.3749168"><ele>859.0</ele><time>2026-05-02T08:47:05.037Z</time></trkpt><trkpt lat="44.0502071" lon="11.3750038"><ele>859.0</ele><time>2026-05-02T08:47:08.011Z</time></trkpt><trkpt lat="44.0502859" lon="11.3750731"><ele>859.0000000000001</ele><time>2026-05-02T08:47:09.976Z</time></trkpt><trkpt lat="44.0503638" lon="11.3751458"><ele>859.0000000000001</ele><time>2026-05-02T08:47:11.966Z</time></trkpt><trkpt lat="44.0504341" lon="11.3752371"><ele>859.0</ele><time>2026-05-02T08:47:14.024Z</time></trkpt><trkpt lat="44.0505078" lon="11.3752803"><ele>859.0</ele><time>2026-05-02T08:47:22.031Z</time></trkpt><trkpt lat="44.0505986" lon="11.3752936"><ele>858.9999999999999</ele><time>2026-05-02T08:47:30.946Z</time></trkpt><trkpt lat="44.0506669" lon="11.3753273"><ele>859.0</ele><time>2026-05-02T08:48:41.967Z</time></trkpt><trkpt lat="44.0507501" lon="11.3752641"><ele>859.0</ele><time>2026-05-02T08:48:44.969Z</time></trkpt><trkpt lat="44.0508521" lon="11.3751799"><ele>859.0</ele><time>2026-05-02T08:48:46.964Z</time></trkpt><trkpt lat="44.0509057" lon="11.3750976"><ele>858.9999999999999</ele><time>2026-05-02T08:48:48.97Z</time></trkpt><trkpt lat="44.050901" lon="11.374996"><ele>859.0</ele><time>2026-05-02T08:48:53.033Z</time></trkpt><trkpt lat="44.0508579" lon="11.3749213"><ele>856.8000000000001</ele><time>2026-05-02T08:48:54.964Z</time></trkpt><trkpt lat="44.0507997" lon="11.3748008"><ele>854.6000000000001</ele><time>2026-05-02T08:48:56.952Z</time></trkpt><trkpt lat="44.0507444" lon="11.3746656"><ele>852.4</ele><time>2026-05-02T08:48:58.957Z</time></trkpt><trkpt lat="44.0506685" lon="11.374552"><ele>850.2</ele><time>2026-05-02T08:49:00.962Z</time></trkpt><trkpt lat="44.050591" lon="11.3744348"><ele>848.0</ele><time>2026-05-02T08:49:02.973Z</time></trkpt><trkpt lat="44.0505214" lon="11.3743117"><ele>847.2</ele><time>2026-05-02T08:49:04.958Z</time></trkpt><trkpt lat="44.0504465" lon="11.3741968"><ele>846.4</ele><time>2026-05-02T08:49:06.968Z</time></trkpt><trkpt lat="44.0503783" lon="11.3740817"><ele>845.6</ele><time>2026-05-02T08:49:08.967Z</time></trkpt><trkpt lat="44.0503118" lon="11.373967"><ele>844.8000000000001</ele><time>2026-05-02T08:49:10.955Z</time></trkpt><trkpt lat="44.0502381" lon="11.3738646"><ele>844.0</ele><time>2026-05-02T08:49:12.953Z</time></trkpt><trkpt lat="44.050166" lon="11.3737712"><ele>840.4000000000001</ele><time>2026-05-02T08:49:14.962Z</time></trkpt><trkpt lat="44.0500843" lon="11.3737104"><ele>836.8</ele><time>2026-05-02T08:49:16.974Z</time></trkpt><trkpt lat="44.0499993" lon="11.3736659"><ele>833.2</ele><time>2026-05-02T08:49:19.038Z</time></trkpt><trkpt lat="44.0499087" lon="11.3736294"><ele>829.5999999999999</ele><time>2026-05-02T08:49:20.966Z</time></trkpt><trkpt lat="44.0498114" lon="11.3735811"><ele>826.0</ele><time>2026-05-02T08:49:22.961Z</time></trkpt><trkpt lat="44.0497322" lon="11.3735357"><ele>826.0</ele><time>2026-05-02T08:49:24.96Z</time></trkpt><trkpt lat="44.0496457" lon="11.373482"><ele>826.0</ele><time>2026-05-02T08:49:26.955Z</time></trkpt><trkpt lat="44.0495687" lon="11.3734078"><ele>826.0</ele><time>2026-05-02T08:49:28.959Z</time></trkpt><trkpt lat="44.0494747" lon="11.3733089"><ele>826.0</ele><time>2026-05-02T08:49:30.955Z</time></trkpt><trkpt lat="44.0494196" lon="11.3732661"><ele>826.0</ele><time>2026-05-02T08:49:31.96Z</time></trkpt><trkpt lat="44.0493192" lon="11.3731758"><ele>826.0</ele><time>2026-05-02T08:49:33.945Z</time></trkpt><trkpt lat="44.0492218" lon="11.3730934"><ele>826.0</ele><time>2026-05-02T08:49:35.966Z</time></trkpt><trkpt lat="44.0491389" lon="11.3730252"><ele>826.0</ele><time>2026-05-02T08:49:38.028Z</time></trkpt><trkpt lat="44.0490632" lon="11.3729803"><ele>826.0</ele><time>2026-05-02T08:49:40.03Z</time></trkpt><trkpt lat="44.0489764" lon="11.3729316"><ele>826.0</ele><time>2026-05-02T08:49:41.97Z</time></trkpt><trkpt lat="44.0489155" lon="11.3728717"><ele>822.9999999999999</ele><time>2026-05-02T08:49:43.957Z</time></trkpt><trkpt lat="44.0488552" lon="11.3727987"><ele>820.0</ele><time>2026-05-02T08:49:45.968Z</time></trkpt><trkpt lat="44.0488098" lon="11.3727106"><ele>817.0</ele><time>2026-05-02T08:49:47.964Z</time></trkpt><trkpt lat="44.0487537" lon="11.372622"><ele>814.0</ele><time>2026-05-02T08:49:50.013Z</time></trkpt><trkpt lat="44.0487161" lon="11.3725105"><ele>810.9999999999999</ele><time>2026-05-02T08:49:51.96Z</time></trkpt><trkpt lat="44.0487296" lon="11.3724003"><ele>808.0</ele><time>2026-05-02T08:49:54.962Z</time></trkpt><trkpt lat="44.048799" lon="11.3723717"><ele>807.9999999999999</ele><time>2026-05-02T08:49:59.052Z</time></trkpt><trkpt lat="44.0488654" lon="11.3724172"><ele>808.0</ele><time>2026-05-02T08:50:00.977Z</time></trkpt><trkpt lat="44.0489381" lon="11.3724825"><ele>808.0</ele><time>2026-05-02T08:50:02.969Z</time></trkpt><trkpt lat="44.0490053" lon="11.3725459"><ele>808.0</ele><time>2026-05-02T08:50:04.986Z</time></trkpt><trkpt lat="44.0490676" lon="11.3725978"><ele>807.9999999999999</ele><time>2026-05-02T08:50:06.974Z</time></trkpt><trkpt lat="44.0491365" lon="11.3726309"><ele>808.0</ele><time>2026-05-02T08:50:08.981Z</time></trkpt><trkpt lat="44.0492013" lon="11.3726978"><ele>807.5999999999999</ele><time>2026-05-02T08:50:10.96Z</time></trkpt><trkpt lat="44.0492778" lon="11.3727619"><ele>807.1999999999999</ele><time>2026-05-02T08:50:12.956Z</time></trkpt><trkpt lat="44.0493603" lon="11.3728095"><ele>806.8</ele><time>2026-05-02T08:50:14.962Z</time></trkpt><trkpt lat="44.0494568" lon="11.3728112"><ele>806.4</ele><time>2026-05-02T08:50:16.962Z</time></trkpt><trkpt lat="44.0495776" lon="11.3727588"><ele>806.0</ele><time>2026-05-02T08:50:18.959Z</time></trkpt><trkpt lat="44.0496767" lon="11.3726775"><ele>806.0</ele><time>2026-05-02T08:50:20.97Z</time></trkpt><trkpt lat="44.0497384" lon="11.3725572"><ele>806.0</ele><time>2026-05-02T08:50:23.014Z</time></trkpt><trkpt lat="44.0497582" lon="11.372435"><ele>806.0</ele><time>2026-05-02T08:50:24.957Z</time></trkpt><trkpt lat="44.0497189" lon="11.372314"><ele>806.0</ele><time>2026-05-02T08:50:26.96Z</time></trkpt><trkpt lat="44.0496555" lon="11.3722167"><ele>806.0</ele><time>2026-05-02T08:50:28.962Z</time></trkpt><trkpt lat="44.0495706" lon="11.372127"><ele>803.1999999999999</ele><time>2026-05-02T08:50:30.96Z</time></trkpt><trkpt lat="44.0494882" lon="11.3720294"><ele>800.4</ele><time>2026-05-02T08:50:32.962Z</time></trkpt><trkpt lat="44.0494012" lon="11.3719263"><ele>797.6</ele><time>2026-05-02T08:50:34.962Z</time></trkpt><trkpt lat="44.0493151" lon="11.371812"><ele>794.8</ele><time>2026-05-02T08:50:36.963Z</time></trkpt><trkpt lat="44.0492447" lon="11.3717324"><ele>792.0</ele><time>2026-05-02T08:50:38.956Z</time></trkpt><trkpt lat="44.0491752" lon="11.3716479"><ele>792.6</ele><time>2026-05-02T08:50:40.969Z</time></trkpt><trkpt lat="44.0490924" lon="11.3715513"><ele>793.2</ele><time>2026-05-02T08:50:42.972Z</time></trkpt><trkpt lat="44.0490142" lon="11.3714546"><ele>793.8</ele><time>2026-05-02T08:50:44.962Z</time></trkpt><trkpt lat="44.0489253" lon="11.3713485"><ele>794.4</ele><time>2026-05-02T08:50:46.962Z</time></trkpt><trkpt lat="44.0488759" lon="11.3712919"><ele>795.0</ele><time>2026-05-02T08:50:47.959Z</time></trkpt><trkpt lat="44.0488288" lon="11.3712285"><ele>791.5</ele><time>2026-05-02T08:50:48.953Z</time></trkpt><trkpt lat="44.0487315" lon="11.3711113"><ele>788.0</ele><time>2026-05-02T08:50:50.959Z</time></trkpt><trkpt lat="44.0486441" lon="11.3709835"><ele>784.5</ele><time>2026-05-02T08:50:52.957Z</time></trkpt><trkpt lat="44.0485554" lon="11.3708817"><ele>781.0</ele><time>2026-05-02T08:50:54.965Z</time></trkpt><trkpt lat="44.0484817" lon="11.3707802"><ele>780.9999999999999</ele><time>2026-05-02T08:50:56.962Z</time></trkpt><trkpt lat="44.0484456" lon="11.3706864"><ele>781.0</ele><time>2026-05-02T08:50:58.965Z</time></trkpt><trkpt lat="44.0484787" lon="11.3705963"><ele>781.0</ele><time>2026-05-02T08:51:01.962Z</time></trkpt><trkpt lat="44.048551" lon="11.3705824"><ele>781.0</ele><time>2026-05-02T08:51:03.949Z</time></trkpt><trkpt lat="44.0486254" lon="11.3705552"><ele>780.9999999999999</ele><time>2026-05-02T08:51:05.968Z</time></trkpt><trkpt lat="44.0487213" lon="11.3704993"><ele>781.0</ele><time>2026-05-02T08:51:07.965Z</time></trkpt><trkpt lat="44.0488008" lon="11.3705018"><ele>780.9999999999999</ele><time>2026-05-02T08:51:09.967Z</time></trkpt><trkpt lat="44.0488851" lon="11.3705088"><ele>781.0</ele><time>2026-05-02T08:51:11.955Z</time></trkpt><trkpt lat="44.0489578" lon="11.3705369"><ele>781.0</ele><time>2026-05-02T08:51:13.964Z</time></trkpt><trkpt lat="44.0490523" lon="11.3705747"><ele>781.0</ele><time>2026-05-02T08:51:15.962Z</time></trkpt><trkpt lat="44.0491252" lon="11.3705552"><ele>780.9999999999999</ele><time>2026-05-02T08:51:18.038Z</time></trkpt><trkpt lat="44.049201" lon="11.3705096"><ele>781.0</ele><time>2026-05-02T08:51:19.971Z</time></trkpt><trkpt lat="44.0492991" lon="11.3704479"><ele>777.5999999999999</ele><time>2026-05-02T08:51:21.963Z</time></trkpt><trkpt lat="44.0493921" lon="11.37035"><ele>774.2</ele><time>2026-05-02T08:51:24.044Z</time></trkpt><trkpt lat="44.0494612" lon="11.3702146"><ele>770.8</ele><time>2026-05-02T08:51:25.959Z</time></trkpt><trkpt lat="44.0495134" lon="11.3700997"><ele>767.4000000000001</ele><time>2026-05-02T08:51:27.961Z</time></trkpt><trkpt lat="44.0495684" lon="11.3699961"><ele>764.0</ele><time>2026-05-02T08:51:29.964Z</time></trkpt><trkpt lat="44.0496243" lon="11.369896"><ele>764.0</ele><time>2026-05-02T08:51:31.965Z</time></trkpt><trkpt lat="44.0496992" lon="11.3697922"><ele>764.0</ele><time>2026-05-02T08:51:33.972Z</time></trkpt><trkpt lat="44.049775" lon="11.3696818"><ele>764.0</ele><time>2026-05-02T08:51:35.96Z</time></trkpt><trkpt lat="44.0498426" lon="11.369567"><ele>764.0</ele><time>2026-05-02T08:51:37.958Z</time></trkpt><trkpt lat="44.0499215" lon="11.3694608"><ele>764.0</ele><time>2026-05-02T08:51:40.003Z</time></trkpt><trkpt lat="44.0499738" lon="11.3693624"><ele>763.8000000000001</ele><time>2026-05-02T08:51:41.953Z</time></trkpt><trkpt lat="44.0500267" lon="11.3692375"><ele>763.6</ele><time>2026-05-02T08:51:43.952Z</time></trkpt><trkpt lat="44.0500652" lon="11.3691108"><ele>763.4</ele><time>2026-05-02T08:51:45.967Z</time></trkpt><trkpt lat="44.0500638" lon="11.3690006"><ele>763.2</ele><time>2026-05-02T08:51:47.964Z</time></trkpt><trkpt lat="44.0499898" lon="11.3688882"><ele>763.0</ele><time>2026-05-02T08:51:49.961Z</time></trkpt><trkpt lat="44.0498892" lon="11.3688246"><ele>760.8</ele><time>2026-05-02T08:51:52.052Z</time></trkpt><trkpt lat="44.0497814" lon="11.368837"><ele>758.5999999999999</ele><time>2026-05-02T08:51:53.977Z</time></trkpt><trkpt lat="44.0496735" lon="11.3688742"><ele>756.4000000000001</ele><time>2026-05-02T08:51:55.976Z</time></trkpt><trkpt lat="44.049614" lon="11.3689067"><ele>754.2</ele><time>2026-05-02T08:51:56.979Z</time></trkpt><trkpt lat="44.0495095" lon="11.3689587"><ele>752.0</ele><time>2026-05-02T08:51:58.969Z</time></trkpt><trkpt lat="44.0494064" lon="11.368977"><ele>752.0</ele><time>2026-05-02T08:52:00.961Z</time></trkpt><trkpt lat="44.0493043" lon="11.3689399"><ele>752.0</ele><time>2026-05-02T08:52:02.972Z</time></trkpt><trkpt lat="44.0492092" lon="11.3688619"><ele>752.0</ele><time>2026-05-02T08:52:04.975Z</time></trkpt><trkpt lat="44.0491665" lon="11.3687376"><ele>752.0</ele><time>2026-05-02T08:52:06.963Z</time></trkpt><trkpt lat="44.0491895" lon="11.3686164"><ele>752.0</ele><time>2026-05-02T08:52:09.034Z</time></trkpt><trkpt lat="44.0492391" lon="11.3684805"><ele>749.8333333333333</ele><time>2026-05-02T08:52:10.961Z</time></trkpt><trkpt lat="44.0492881" lon="11.3683931"><ele>747.6666666666666</ele><time>2026-05-02T08:52:12.966Z</time></trkpt><trkpt lat="44.0493313" lon="11.3683189"><ele>745.5</ele><time>2026-05-02T08:52:14.957Z</time></trkpt><trkpt lat="44.0494313" lon="11.3682829"><ele>743.3333333333334</ele><time>2026-05-02T08:52:16.956Z</time></trkpt><trkpt lat="44.0494939" lon="11.3682483"><ele>741.1666666666667</ele><time>2026-05-02T08:52:18.954Z</time></trkpt><trkpt lat="44.0495933" lon="11.368235"><ele>739.0</ele><time>2026-05-02T08:52:21.957Z</time></trkpt><trkpt lat="44.049666" lon="11.3682249"><ele>739.0</ele><time>2026-05-02T08:52:23.954Z</time></trkpt><trkpt lat="44.049786" lon="11.368221"><ele>739.0</ele><time>2026-05-02T08:52:25.956Z</time></trkpt><trkpt lat="44.0498563" lon="11.3682132"><ele>739.0</ele><time>2026-05-02T08:52:26.952Z</time></trkpt><trkpt lat="44.0499765" lon="11.3681662"><ele>739.0</ele><time>2026-05-02T08:52:29.007Z</time></trkpt><trkpt lat="44.0500467" lon="11.368133"><ele>739.0</ele><time>2026-05-02T08:52:29.943Z</time></trkpt><trkpt lat="44.0501469" lon="11.3680577"><ele>737.2</ele><time>2026-05-02T08:52:31.957Z</time></trkpt><trkpt lat="44.0502238" lon="11.3679248"><ele>735.4000000000001</ele><time>2026-05-02T08:52:33.941Z</time></trkpt><trkpt lat="44.0502939" lon="11.3678249"><ele>733.6</ele><time>2026-05-02T08:52:35.961Z</time></trkpt><trkpt lat="44.0503658" lon="11.367719"><ele>731.8</ele><time>2026-05-02T08:52:37.956Z</time></trkpt><trkpt lat="44.050434" lon="11.3676348"><ele>730.0</ele><time>2026-05-02T08:52:40.012Z</time></trkpt><trkpt lat="44.050499" lon="11.3675613"><ele>730.0</ele><time>2026-05-02T08:52:41.957Z</time></trkpt><trkpt lat="44.0505645" lon="11.3674986"><ele>730.0</ele><time>2026-05-02T08:52:43.953Z</time></trkpt><trkpt lat="44.0506225" lon="11.3674509"><ele>730.0</ele><time>2026-05-02T08:52:45.96Z</time></trkpt><trkpt lat="44.05072" lon="11.3674117"><ele>730.0</ele><time>2026-05-02T08:52:47.954Z</time></trkpt><trkpt lat="44.0508108" lon="11.3673563"><ele>730.0</ele><time>2026-05-02T08:52:49.949Z</time></trkpt><trkpt lat="44.0508894" lon="11.3672922"><ele>730.0</ele><time>2026-05-02T08:52:51.957Z</time></trkpt><trkpt lat="44.0509553" lon="11.3672312"><ele>727.6666666666667</ele><time>2026-05-02T08:52:53.953Z</time></trkpt><trkpt lat="44.0510384" lon="11.3671582"><ele>725.3333333333334</ele><time>2026-05-02T08:52:55.949Z</time></trkpt><trkpt lat="44.0511035" lon="11.3670928"><ele>723.0</ele><time>2026-05-02T08:52:57.959Z</time></trkpt><trkpt lat="44.0511692" lon="11.3670378"><ele>720.6666666666666</ele><time>2026-05-02T08:53:00.037Z</time></trkpt><trkpt lat="44.0512277" lon="11.3669825"><ele>718.3333333333333</ele><time>2026-05-02T08:53:01.954Z</time></trkpt><trkpt lat="44.0513044" lon="11.3668933"><ele>716.0</ele><time>2026-05-02T08:53:03.954Z</time></trkpt><trkpt lat="44.0513641" lon="11.3668425"><ele>716.0</ele><time>2026-05-02T08:53:04.956Z</time></trkpt><trkpt lat="44.0514449" lon="11.3667566"><ele>716.0</ele><time>2026-05-02T08:53:06.965Z</time></trkpt><trkpt lat="44.0515134" lon="11.3666885"><ele>716.0</ele><time>2026-05-02T08:53:09.033Z</time></trkpt><trkpt lat="44.0515919" lon="11.3666349"><ele>716.0</ele><time>2026-05-02T08:53:10.971Z</time></trkpt><trkpt lat="44.0516518" lon="11.3665967"><ele>716.0</ele><time>2026-05-02T08:53:12.988Z</time></trkpt><trkpt lat="44.051718" lon="11.3665867"><ele>716.0</ele><time>2026-05-02T08:53:14.976Z</time></trkpt><trkpt lat="44.0518125" lon="11.3665597"><ele>718.1666666666666</ele><time>2026-05-02T08:53:16.993Z</time></trkpt><trkpt lat="44.0518858" lon="11.366555"><ele>720.3333333333333</ele><time>2026-05-02T08:53:17.973Z</time></trkpt><trkpt lat="44.0519545" lon="11.3665504"><ele>722.5</ele><time>2026-05-02T08:53:18.981Z</time></trkpt><trkpt lat="44.0520207" lon="11.3665504"><ele>724.6666666666666</ele><time>2026-05-02T08:53:19.981Z</time></trkpt><trkpt lat="44.0520927" lon="11.3665499"><ele>726.8333333333334</ele><time>2026-05-02T08:53:20.976Z</time></trkpt><trkpt lat="44.0521553" lon="11.366561"><ele>729.0</ele><time>2026-05-02T08:53:21.976Z</time></trkpt><trkpt lat="44.0522697" lon="11.3665367"><ele>729.0</ele><time>2026-05-02T08:53:23.975Z</time></trkpt><trkpt lat="44.0523592" lon="11.3664602"><ele>729.0</ele><time>2026-05-02T08:53:25.973Z</time></trkpt><trkpt lat="44.0524025" lon="11.3663755"><ele>729.0</ele><time>2026-05-02T08:53:27.974Z</time></trkpt><trkpt lat="44.0524487" lon="11.3662696"><ele>729.0</ele><time>2026-05-02T08:53:30.976Z</time></trkpt><trkpt lat="44.0524867" lon="11.3661633"><ele>729.0</ele><time>2026-05-02T08:53:33.967Z</time></trkpt><trkpt lat="44.0525633" lon="11.3659988"><ele>726.6666666666666</ele><time>2026-05-02T08:53:38.969Z</time></trkpt><trkpt lat="44.0525992" lon="11.3659118"><ele>724.3333333333334</ele><time>2026-05-02T08:53:40.971Z</time></trkpt><trkpt lat="44.0526091" lon="11.3658116"><ele>722.0</ele><time>2026-05-02T08:53:42.969Z</time></trkpt><trkpt lat="44.0526292" lon="11.3656848"><ele>719.6666666666667</ele><time>2026-05-02T08:53:45.958Z</time></trkpt><trkpt lat="44.0526402" lon="11.3655758"><ele>717.3333333333334</ele><time>2026-05-02T08:53:47.967Z</time></trkpt><trkpt lat="44.0526409" lon="11.3654595"><ele>715.0</ele><time>2026-05-02T08:53:49.964Z</time></trkpt><trkpt lat="44.0526462" lon="11.3653317"><ele>713.0</ele><time>2026-05-02T08:53:51.964Z</time></trkpt><trkpt lat="44.0526463" lon="11.3652025"><ele>711.0</ele><time>2026-05-02T08:53:54.019Z</time></trkpt><trkpt lat="44.0526398" lon="11.3650547"><ele>709.0</ele><time>2026-05-02T08:53:55.964Z</time></trkpt><trkpt lat="44.052608" lon="11.3648705"><ele>707.0</ele><time>2026-05-02T08:53:57.959Z</time></trkpt><trkpt lat="44.0525872" lon="11.3647749"><ele>705.0</ele><time>2026-05-02T08:53:58.964Z</time></trkpt><trkpt lat="44.0525711" lon="11.3646783"><ele>703.3333333333334</ele><time>2026-05-02T08:53:59.956Z</time></trkpt><trkpt lat="44.0525542" lon="11.3645841"><ele>701.6666666666666</ele><time>2026-05-02T08:54:00.965Z</time></trkpt><trkpt lat="44.0525385" lon="11.3644944"><ele>700.0</ele><time>2026-05-02T08:54:01.957Z</time></trkpt><trkpt lat="44.0525259" lon="11.3644071"><ele>698.3333333333333</ele><time>2026-05-02T08:54:02.961Z</time></trkpt><trkpt lat="44.0524863" lon="11.3642406"><ele>696.6666666666666</ele><time>2026-05-02T08:54:05.035Z</time></trkpt><trkpt lat="44.0524381" lon="11.3640987"><ele>695.0</ele><time>2026-05-02T08:54:06.955Z</time></trkpt><trkpt lat="44.0524056" lon="11.3639639"><ele>693.1666666666666</ele><time>2026-05-02T08:54:08.943Z</time></trkpt><trkpt lat="44.0523739" lon="11.3638448"><ele>691.3333333333333</ele><time>2026-05-02T08:54:10.957Z</time></trkpt><trkpt lat="44.0523194" lon="11.3637435"><ele>689.5</ele><time>2026-05-02T08:54:12.961Z</time></trkpt><trkpt lat="44.0522485" lon="11.3636915"><ele>687.6666666666666</ele><time>2026-05-02T08:54:14.95Z</time></trkpt><trkpt lat="44.0521723" lon="11.3637211"><ele>685.8333333333334</ele><time>2026-05-02T08:54:17.044Z</time></trkpt><trkpt lat="44.0521037" lon="11.3637844"><ele>684.0</ele><time>2026-05-02T08:54:18.965Z</time></trkpt><trkpt lat="44.0520549" lon="11.3638663"><ele>684.0</ele><time>2026-05-02T08:54:20.951Z</time></trkpt><trkpt lat="44.0519994" lon="11.3639569"><ele>684.0</ele><time>2026-05-02T08:54:22.956Z</time></trkpt><trkpt lat="44.0519424" lon="11.3640702"><ele>684.0</ele><time>2026-05-02T08:54:25.042Z</time></trkpt><trkpt lat="44.0518903" lon="11.3641865"><ele>684.0</ele><time>2026-05-02T08:54:26.96Z</time></trkpt><trkpt lat="44.0518449" lon="11.3643007"><ele>684.0</ele><time>2026-05-02T08:54:28.977Z</time></trkpt><trkpt lat="44.0518187" lon="11.3644328"><ele>684.0</ele><time>2026-05-02T08:54:30.964Z</time></trkpt><trkpt lat="44.0518013" lon="11.3645764"><ele>684.0</ele><time>2026-05-02T08:54:32.978Z</time></trkpt><trkpt lat="44.051804" lon="11.3647272"><ele>684.0</ele><time>2026-05-02T08:54:34.974Z</time></trkpt><trkpt lat="44.0517863" lon="11.3648548"><ele>684.0</ele><time>2026-05-02T08:54:36.978Z</time></trkpt><trkpt lat="44.051752" lon="11.3649289"><ele>684.0</ele><time>2026-05-02T08:54:38.954Z</time></trkpt><trkpt lat="44.051703" lon="11.3649961"><ele>684.0</ele><time>2026-05-02T08:54:40.984Z</time></trkpt><trkpt lat="44.0516296" lon="11.3650374"><ele>684.8000000000001</ele><time>2026-05-02T08:54:43.019Z</time></trkpt><trkpt lat="44.0515301" lon="11.3650437"><ele>685.6</ele><time>2026-05-02T08:54:45.972Z</time></trkpt><trkpt lat="44.0514588" lon="11.3649709"><ele>686.4</ele><time>2026-05-02T08:54:47.949Z</time></trkpt><trkpt lat="44.0514077" lon="11.3648543"><ele>687.2</ele><time>2026-05-02T08:54:49.955Z</time></trkpt><trkpt lat="44.0513929" lon="11.3647156"><ele>688.0</ele><time>2026-05-02T08:54:51.957Z</time></trkpt><trkpt lat="44.0513899" lon="11.3645746"><ele>686.2</ele><time>2026-05-02T08:54:54.048Z</time></trkpt><trkpt lat="44.0513959" lon="11.3644504"><ele>684.4</ele><time>2026-05-02T08:54:55.952Z</time></trkpt><trkpt lat="44.0514222" lon="11.3643291"><ele>682.6</ele><time>2026-05-02T08:54:57.968Z</time></trkpt><trkpt lat="44.0514454" lon="11.3642032"><ele>680.8000000000001</ele><time>2026-05-02T08:54:59.965Z</time></trkpt><trkpt lat="44.0514519" lon="11.3640723"><ele>679.0</ele><time>2026-05-02T08:55:01.939Z</time></trkpt><trkpt lat="44.0514399" lon="11.3639558"><ele>677.8333333333334</ele><time>2026-05-02T08:55:03.976Z</time></trkpt><trkpt lat="44.051432" lon="11.3638612"><ele>676.6666666666667</ele><time>2026-05-02T08:55:05.951Z</time></trkpt><trkpt lat="44.0514224" lon="11.3637579"><ele>675.5</ele><time>2026-05-02T08:55:07.965Z</time></trkpt><trkpt lat="44.0513731" lon="11.3636651"><ele>674.3333333333334</ele><time>2026-05-02T08:55:09.962Z</time></trkpt><trkpt lat="44.0513012" lon="11.3635998"><ele>673.1666666666666</ele><time>2026-05-02T08:55:11.956Z</time></trkpt><trkpt lat="44.0512552" lon="11.3635241"><ele>672.0</ele><time>2026-05-02T08:55:14.018Z</time></trkpt><trkpt lat="44.0512279" lon="11.3633943"><ele>672.0</ele><time>2026-05-02T08:55:15.96Z</time></trkpt><trkpt lat="44.0512217" lon="11.3632729"><ele>672.0</ele><time>2026-05-02T08:55:17.964Z</time></trkpt><trkpt lat="44.0512186" lon="11.3631487"><ele>672.0</ele><time>2026-05-02T08:55:19.96Z</time></trkpt><trkpt lat="44.0511836" lon="11.3630311"><ele>672.0</ele><time>2026-05-02T08:55:21.957Z</time></trkpt><trkpt lat="44.0511379" lon="11.3629418"><ele>672.0</ele><time>2026-05-02T08:55:23.944Z</time></trkpt><trkpt lat="44.0510861" lon="11.3628521"><ele>672.0</ele><time>2026-05-02T08:55:25.958Z</time></trkpt><trkpt lat="44.0510194" lon="11.3627716"><ele>670.0</ele><time>2026-05-02T08:55:27.962Z</time></trkpt><trkpt lat="44.050955" lon="11.3627103"><ele>668.0</ele><time>2026-05-02T08:55:29.967Z</time></trkpt><trkpt lat="44.0508681" lon="11.3626358"><ele>666.0</ele><time>2026-05-02T08:55:31.959Z</time></trkpt><trkpt lat="44.050803" lon="11.3625725"><ele>664.0</ele><time>2026-05-02T08:55:34.03Z</time></trkpt><trkpt lat="44.0507388" lon="11.3624962"><ele>662.0</ele><time>2026-05-02T08:55:35.952Z</time></trkpt><trkpt lat="44.050684" lon="11.3624133"><ele>660.0</ele><time>2026-05-02T08:55:37.951Z</time></trkpt><trkpt lat="44.0506239" lon="11.3623314"><ele>659.6666666666666</ele><time>2026-05-02T08:55:39.958Z</time></trkpt><trkpt lat="44.0505521" lon="11.3622694"><ele>659.3333333333334</ele><time>2026-05-02T08:55:41.953Z</time></trkpt><trkpt lat="44.050494" lon="11.3622352"><ele>659.0</ele><time>2026-05-02T08:55:42.968Z</time></trkpt><trkpt lat="44.0504035" lon="11.362165"><ele>658.6666666666667</ele><time>2026-05-02T08:55:44.959Z</time></trkpt><trkpt lat="44.050337" lon="11.3621313"><ele>658.3333333333334</ele><time>2026-05-02T08:55:46.965Z</time></trkpt><trkpt lat="44.0502683" lon="11.3620718"><ele>658.0</ele><time>2026-05-02T08:55:48.953Z</time></trkpt><trkpt lat="44.0502274" lon="11.3619717"><ele>656.0</ele><time>2026-05-02T08:55:50.959Z</time></trkpt><trkpt lat="44.050224" lon="11.3618531"><ele>654.0</ele><time>2026-05-02T08:55:52.954Z</time></trkpt><trkpt lat="44.0502699" lon="11.3617536"><ele>652.0</ele><time>2026-05-02T08:55:54.955Z</time></trkpt><trkpt lat="44.0503785" lon="11.3617201"><ele>650.0</ele><time>2026-05-02T08:55:56.939Z</time></trkpt><trkpt lat="44.0504719" lon="11.3617107"><ele>648.0</ele><time>2026-05-02T08:55:58.959Z</time></trkpt><trkpt lat="44.0505519" lon="11.3617215"><ele>648.0</ele><time>2026-05-02T08:56:00.939Z</time></trkpt><trkpt lat="44.0506493" lon="11.3617804"><ele>648.0</ele><time>2026-05-02T08:56:02.959Z</time></trkpt><trkpt lat="44.0507313" lon="11.361822"><ele>648.0</ele><time>2026-05-02T08:56:05.946Z</time></trkpt><trkpt lat="44.0507848" lon="11.3617422"><ele>648.0</ele><time>2026-05-02T08:56:08.954Z</time></trkpt><trkpt lat="44.0507891" lon="11.3616532"><ele>648.0</ele><time>2026-05-02T08:56:10.958Z</time></trkpt><trkpt lat="44.0507783" lon="11.3615241"><ele>648.0</ele><time>2026-05-02T08:56:13.955Z</time></trkpt><trkpt lat="44.0507475" lon="11.3614201"><ele>645.8</ele><time>2026-05-02T08:56:15.965Z</time></trkpt><trkpt lat="44.0506939" lon="11.3612897"><ele>643.5999999999999</ele><time>2026-05-02T08:56:17.947Z</time></trkpt><trkpt lat="44.0506395" lon="11.3611724"><ele>641.4000000000001</ele><time>2026-05-02T08:56:19.945Z</time></trkpt><trkpt lat="44.0505978" lon="11.361035"><ele>639.2</ele><time>2026-05-02T08:56:21.954Z</time></trkpt><trkpt lat="44.0505577" lon="11.3608887"><ele>637.0</ele><time>2026-05-02T08:56:23.962Z</time></trkpt><trkpt lat="44.0505033" lon="11.3607587"><ele>637.0</ele><time>2026-05-02T08:56:25.96Z</time></trkpt><trkpt lat="44.0504793" lon="11.3606283"><ele>637.0</ele><time>2026-05-02T08:56:27.959Z</time></trkpt><trkpt lat="44.050488" lon="11.3604711"><ele>637.0</ele><time>2026-05-02T08:56:29.96Z</time></trkpt><trkpt lat="44.050518" lon="11.3603317"><ele>637.0</ele><time>2026-05-02T08:56:31.959Z</time></trkpt><trkpt lat="44.0505639" lon="11.360225"><ele>637.0</ele><time>2026-05-02T08:56:33.957Z</time></trkpt><trkpt lat="44.0506241" lon="11.3601323"><ele>636.4</ele><time>2026-05-02T08:56:35.953Z</time></trkpt><trkpt lat="44.0507195" lon="11.3600324"><ele>635.8000000000001</ele><time>2026-05-02T08:56:37.956Z</time></trkpt><trkpt lat="44.0507982" lon="11.3599485"><ele>635.2</ele><time>2026-05-02T08:56:39.964Z</time></trkpt><trkpt lat="44.0508676" lon="11.359884"><ele>634.6</ele><time>2026-05-02T08:56:41.965Z</time></trkpt><trkpt lat="44.0509417" lon="11.3598075"><ele>634.0</ele><time>2026-05-02T08:56:44.965Z</time></trkpt><trkpt lat="44.0510154" lon="11.35973"><ele>631.8333333333334</ele><time>2026-05-02T08:56:46.949Z</time></trkpt><trkpt lat="44.0510956" lon="11.3596652"><ele>629.6666666666667</ele><time>2026-05-02T08:56:48.966Z</time></trkpt><trkpt lat="44.0511561" lon="11.3596259"><ele>627.5</ele><time>2026-05-02T08:56:50.959Z</time></trkpt><trkpt lat="44.0512182" lon="11.3595473"><ele>625.3333333333334</ele><time>2026-05-02T08:56:53.955Z</time></trkpt><trkpt lat="44.0512416" lon="11.3594539"><ele>623.1666666666666</ele><time>2026-05-02T08:56:55.964Z</time></trkpt><trkpt lat="44.0512744" lon="11.3592912"><ele>621.0</ele><time>2026-05-02T08:56:57.95Z</time></trkpt><trkpt lat="44.0512938" lon="11.359202"><ele>621.0</ele><time>2026-05-02T08:56:58.96Z</time></trkpt><trkpt lat="44.051316" lon="11.3590326"><ele>621.0</ele><time>2026-05-02T08:57:00.954Z</time></trkpt><trkpt lat="44.051331" lon="11.3588686"><ele>621.0</ele><time>2026-05-02T08:57:02.949Z</time></trkpt><trkpt lat="44.0513533" lon="11.3587116"><ele>621.0</ele><time>2026-05-02T08:57:04.954Z</time></trkpt><trkpt lat="44.0513769" lon="11.3585686"><ele>618.75</ele><time>2026-05-02T08:57:06.964Z</time></trkpt><trkpt lat="44.0513978" lon="11.358415"><ele>616.5</ele><time>2026-05-02T08:57:08.954Z</time></trkpt><trkpt lat="44.0514152" lon="11.3582584"><ele>614.25</ele><time>2026-05-02T08:57:10.963Z</time></trkpt><trkpt lat="44.0514381" lon="11.3581001"><ele>612.0</ele><time>2026-05-02T08:57:12.968Z</time></trkpt><trkpt lat="44.0514539" lon="11.3579398"><ele>610.8333333333334</ele><time>2026-05-02T08:57:14.96Z</time></trkpt><trkpt lat="44.0514704" lon="11.3578011"><ele>609.6666666666666</ele><time>2026-05-02T08:57:16.959Z</time></trkpt><trkpt lat="44.0514844" lon="11.3576742"><ele>608.5</ele><time>2026-05-02T08:57:18.955Z</time></trkpt><trkpt lat="44.051522" lon="11.3575638"><ele>607.3333333333333</ele><time>2026-05-02T08:57:20.963Z</time></trkpt><trkpt lat="44.051581" lon="11.3574956"><ele>606.1666666666666</ele><time>2026-05-02T08:57:23.964Z</time></trkpt><trkpt lat="44.051643" lon="11.357429"><ele>605.0</ele><time>2026-05-02T08:57:25.954Z</time></trkpt><trkpt lat="44.0517103" lon="11.3573556"><ele>606.8333333333333</ele><time>2026-05-02T08:57:27.962Z</time></trkpt><trkpt lat="44.0517772" lon="11.3572887"><ele>608.6666666666666</ele><time>2026-05-02T08:57:29.972Z</time></trkpt><trkpt lat="44.0518576" lon="11.3572014"><ele>610.5</ele><time>2026-05-02T08:57:31.956Z</time></trkpt><trkpt lat="44.0519248" lon="11.3571152"><ele>612.3333333333334</ele><time>2026-05-02T08:57:33.96Z</time></trkpt><trkpt lat="44.0519588" lon="11.3570253"><ele>614.1666666666667</ele><time>2026-05-02T08:57:35.953Z</time></trkpt><trkpt lat="44.0519932" lon="11.35693"><ele>616.0</ele><time>2026-05-02T08:57:37.973Z</time></trkpt><trkpt lat="44.0520267" lon="11.3568426"><ele>616.0</ele><time>2026-05-02T08:57:39.954Z</time></trkpt><trkpt lat="44.0520731" lon="11.3567733"><ele>616.0</ele><time>2026-05-02T08:57:44.954Z</time></trkpt><trkpt lat="44.0520855" lon="11.356668"><ele>616.0</ele><time>2026-05-02T08:57:47.973Z</time></trkpt><trkpt lat="44.0520871" lon="11.3565528"><ele>616.0</ele><time>2026-05-02T08:57:49.958Z</time></trkpt><trkpt lat="44.052062" lon="11.356406"><ele>616.0</ele><time>2026-05-02T08:57:51.96Z</time></trkpt><trkpt lat="44.0520122" lon="11.3562727"><ele>616.0</ele><time>2026-05-02T08:57:53.967Z</time></trkpt><trkpt lat="44.0519521" lon="11.3561306"><ele>614.4</ele><time>2026-05-02T08:57:55.95Z</time></trkpt><trkpt lat="44.0518872" lon="11.3560027"><ele>612.8</ele><time>2026-05-02T08:57:57.956Z</time></trkpt><trkpt lat="44.0518434" lon="11.3558607"><ele>611.1999999999999</ele><time>2026-05-02T08:57:59.951Z</time></trkpt><trkpt lat="44.0518396" lon="11.3557034"><ele>609.6</ele><time>2026-05-02T08:58:01.962Z</time></trkpt><trkpt lat="44.051884" lon="11.3555775"><ele>608.0</ele><time>2026-05-02T08:58:03.962Z</time></trkpt><trkpt lat="44.0519402" lon="11.3554809"><ele>607.1999999999999</ele><time>2026-05-02T08:58:05.948Z</time></trkpt><trkpt lat="44.0520017" lon="11.3553703"><ele>606.4</ele><time>2026-05-02T08:58:07.967Z</time></trkpt><trkpt lat="44.052067" lon="11.3552509"><ele>605.5999999999999</ele><time>2026-05-02T08:58:09.938Z</time></trkpt><trkpt lat="44.0521137" lon="11.3551383"><ele>604.8</ele><time>2026-05-02T08:58:11.964Z</time></trkpt><trkpt lat="44.0521412" lon="11.3550051"><ele>604.0</ele><time>2026-05-02T08:58:13.963Z</time></trkpt><trkpt lat="44.0521407" lon="11.3548487"><ele>602.8</ele><time>2026-05-02T08:58:15.966Z</time></trkpt><trkpt lat="44.052126" lon="11.3546871"><ele>601.5999999999999</ele><time>2026-05-02T08:58:17.957Z</time></trkpt><trkpt lat="44.052131" lon="11.3545279"><ele>600.4</ele><time>2026-05-02T08:58:19.962Z</time></trkpt><trkpt lat="44.0521433" lon="11.3543746"><ele>599.1999999999999</ele><time>2026-05-02T08:58:21.97Z</time></trkpt><trkpt lat="44.0521355" lon="11.354234"><ele>598.0</ele><time>2026-05-02T08:58:23.963Z</time></trkpt><trkpt lat="44.0521549" lon="11.3541176"><ele>598.0</ele><time>2026-05-02T08:58:25.962Z</time></trkpt><trkpt lat="44.0521258" lon="11.3540364"><ele>598.0</ele><time>2026-05-02T08:58:27.953Z</time></trkpt><trkpt lat="44.0520617" lon="11.3539593"><ele>598.0</ele><time>2026-05-02T08:58:29.965Z</time></trkpt><trkpt lat="44.0519777" lon="11.3539151"><ele>598.0</ele><time>2026-05-02T08:58:31.961Z</time></trkpt><trkpt lat="44.0518765" lon="11.3538546"><ele>598.0</ele><time>2026-05-02T08:58:33.973Z</time></trkpt><trkpt lat="44.0517629" lon="11.3538229"><ele>598.6</ele><time>2026-05-02T08:58:35.962Z</time></trkpt><trkpt lat="44.0516471" lon="11.3537743"><ele>599.1999999999999</ele><time>2026-05-02T08:58:37.962Z</time></trkpt><trkpt lat="44.0515239" lon="11.3537316"><ele>599.8</ele><time>2026-05-02T08:58:39.965Z</time></trkpt><trkpt lat="44.0514585" lon="11.353713"><ele>600.4</ele><time>2026-05-02T08:58:40.959Z</time></trkpt><trkpt lat="44.0513847" lon="11.3537007"><ele>601.0</ele><time>2026-05-02T08:58:41.96Z</time></trkpt><trkpt lat="44.0513185" lon="11.3537085"><ele>601.6666666666667</ele><time>2026-05-02T08:58:42.967Z</time></trkpt><trkpt lat="44.0512507" lon="11.3537271"><ele>602.3333333333334</ele><time>2026-05-02T08:58:43.957Z</time></trkpt><trkpt lat="44.0511279" lon="11.3537516"><ele>603.0</ele><time>2026-05-02T08:58:45.981Z</time></trkpt><trkpt lat="44.0510641" lon="11.353759"><ele>603.6666666666666</ele><time>2026-05-02T08:58:47.034Z</time></trkpt><trkpt lat="44.0509979" lon="11.3537737"><ele>604.3333333333333</ele><time>2026-05-02T08:58:47.988Z</time></trkpt><trkpt lat="44.0509274" lon="11.3537898"><ele>605.0</ele><time>2026-05-02T08:58:48.997Z</time></trkpt><trkpt lat="44.0508668" lon="11.3538162"><ele>606.4</ele><time>2026-05-02T08:58:49.988Z</time></trkpt><trkpt lat="44.0507635" lon="11.3538584"><ele>607.8</ele><time>2026-05-02T08:58:51.975Z</time></trkpt><trkpt lat="44.0506571" lon="11.3538959"><ele>609.2</ele><time>2026-05-02T08:58:53.972Z</time></trkpt><trkpt lat="44.050544" lon="11.3539248"><ele>610.6</ele><time>2026-05-02T08:58:55.988Z</time></trkpt><trkpt lat="44.0504398" lon="11.3539649"><ele>612.0</ele><time>2026-05-02T08:58:57.977Z</time></trkpt><trkpt lat="44.0503515" lon="11.3539654"><ele>612.0</ele><time>2026-05-02T08:58:59.975Z</time></trkpt><trkpt lat="44.0502557" lon="11.353947"><ele>612.0</ele><time>2026-05-02T08:59:02.973Z</time></trkpt><trkpt lat="44.0501865" lon="11.3539225"><ele>612.0</ele><time>2026-05-02T08:59:04.974Z</time></trkpt><trkpt lat="44.050116" lon="11.3538906"><ele>612.0</ele><time>2026-05-02T08:59:06.994Z</time></trkpt><trkpt lat="44.0500194" lon="11.3538623"><ele>612.0</ele><time>2026-05-02T08:59:08.981Z</time></trkpt><trkpt lat="44.0499189" lon="11.3538482"><ele>612.0</ele><time>2026-05-02T08:59:10.981Z</time></trkpt><trkpt lat="44.0498134" lon="11.3538835"><ele>604.6</ele><time>2026-05-02T08:59:12.976Z</time></trkpt><trkpt lat="44.0496877" lon="11.3539501"><ele>597.2</ele><time>2026-05-02T08:59:14.98Z</time></trkpt><trkpt lat="44.0496184" lon="11.3539866"><ele>589.8</ele><time>2026-05-02T08:59:15.976Z</time></trkpt><trkpt lat="44.0495643" lon="11.3540446"><ele>582.4</ele><time>2026-05-02T08:59:16.985Z</time></trkpt><trkpt lat="44.0495105" lon="11.3540982"><ele>575.0</ele><time>2026-05-02T08:59:17.981Z</time></trkpt><trkpt lat="44.0494217" lon="11.3541923"><ele>575.0</ele><time>2026-05-02T08:59:19.977Z</time></trkpt><trkpt lat="44.0493201" lon="11.35419"><ele>575.0</ele><time>2026-05-02T08:59:21.987Z</time></trkpt><trkpt lat="44.049246" lon="11.3541027"><ele>575.0</ele><time>2026-05-02T08:59:23.969Z</time></trkpt><trkpt lat="44.049207" lon="11.3539897"><ele>575.0</ele><time>2026-05-02T08:59:25.983Z</time></trkpt><trkpt lat="44.0491872" lon="11.3538496"><ele>575.0</ele><time>2026-05-02T08:59:27.983Z</time></trkpt><trkpt lat="44.0491693" lon="11.353717"><ele>575.8</ele><time>2026-05-02T08:59:29.991Z</time></trkpt><trkpt lat="44.0491659" lon="11.3535844"><ele>576.6</ele><time>2026-05-02T08:59:31.978Z</time></trkpt><trkpt lat="44.0491351" lon="11.3534848"><ele>577.4</ele><time>2026-05-02T08:59:33.963Z</time></trkpt><trkpt lat="44.0490474" lon="11.3534143"><ele>578.2</ele><time>2026-05-02T08:59:36.967Z</time></trkpt><trkpt lat="44.0489526" lon="11.3533523"><ele>579.0</ele><time>2026-05-02T08:59:38.962Z</time></trkpt><trkpt lat="44.0488512" lon="11.3533172"><ele>579.0</ele><time>2026-05-02T08:59:40.964Z</time></trkpt><trkpt lat="44.0487712" lon="11.3533329"><ele>579.0</ele><time>2026-05-02T08:59:42.068Z</time></trkpt><trkpt lat="44.0486427" lon="11.3533668"><ele>579.0</ele><time>2026-05-02T08:59:43.967Z</time></trkpt><trkpt lat="44.0485771" lon="11.3533769"><ele>579.0</ele><time>2026-05-02T08:59:44.968Z</time></trkpt><trkpt lat="44.0484605" lon="11.3533803"><ele>579.0</ele><time>2026-05-02T08:59:47.035Z</time></trkpt><trkpt lat="44.0483961" lon="11.3533745"><ele>577.0</ele><time>2026-05-02T08:59:47.983Z</time></trkpt><trkpt lat="44.0482877" lon="11.3533613"><ele>575.0</ele><time>2026-05-02T08:59:49.981Z</time></trkpt><trkpt lat="44.0481761" lon="11.3533405"><ele>573.0</ele><time>2026-05-02T08:59:51.965Z</time></trkpt><trkpt lat="44.0480689" lon="11.353372"><ele>571.0</ele><time>2026-05-02T08:59:53.988Z</time></trkpt><trkpt lat="44.0479829" lon="11.3533833"><ele>569.0</ele><time>2026-05-02T08:59:55.976Z</time></trkpt><trkpt lat="44.0479084" lon="11.3533723"><ele>569.0</ele><time>2026-05-02T08:59:57.966Z</time></trkpt><trkpt lat="44.0478283" lon="11.3533572"><ele>569.0</ele><time>2026-05-02T08:59:59.967Z</time></trkpt><trkpt lat="44.0477245" lon="11.3533287"><ele>569.0</ele><time>2026-05-02T09:00:01.968Z</time></trkpt><trkpt lat="44.0476392" lon="11.3532933"><ele>569.0</ele><time>2026-05-02T09:00:02.959Z</time></trkpt><trkpt lat="44.0475615" lon="11.3532964"><ele>569.0</ele><time>2026-05-02T09:00:03.961Z</time></trkpt><trkpt lat="44.0474888" lon="11.3533043"><ele>569.0</ele><time>2026-05-02T09:00:04.966Z</time></trkpt><trkpt lat="44.0473783" lon="11.3533565"><ele>568.8</ele><time>2026-05-02T09:00:06.965Z</time></trkpt><trkpt lat="44.0473216" lon="11.3533953"><ele>568.5999999999999</ele><time>2026-05-02T09:00:08.037Z</time></trkpt><trkpt lat="44.047221" lon="11.3534365"><ele>568.4</ele><time>2026-05-02T09:00:09.971Z</time></trkpt><trkpt lat="44.0471572" lon="11.3534515"><ele>568.1999999999999</ele><time>2026-05-02T09:00:10.965Z</time></trkpt><trkpt lat="44.0470365" lon="11.3534843"><ele>568.0</ele><time>2026-05-02T09:00:12.969Z</time></trkpt><trkpt lat="44.0469165" lon="11.3534985"><ele>568.0</ele><time>2026-05-02T09:00:15.049Z</time></trkpt><trkpt lat="44.0467934" lon="11.3534944"><ele>568.0</ele><time>2026-05-02T09:00:16.97Z</time></trkpt><trkpt lat="44.0467288" lon="11.353483"><ele>568.0</ele><time>2026-05-02T09:00:17.961Z</time></trkpt><trkpt lat="44.0466647" lon="11.3534577"><ele>568.0</ele><time>2026-05-02T09:00:18.974Z</time></trkpt><trkpt lat="44.0465427" lon="11.3533949"><ele>568.0</ele><time>2026-05-02T09:00:20.974Z</time></trkpt><trkpt lat="44.0464832" lon="11.3533588"><ele>565.6666666666667</ele><time>2026-05-02T09:00:21.976Z</time></trkpt><trkpt lat="44.0464213" lon="11.3533245"><ele>563.3333333333334</ele><time>2026-05-02T09:00:23.034Z</time></trkpt><trkpt lat="44.0463551" lon="11.3533035"><ele>561.0</ele><time>2026-05-02T09:00:24.032Z</time></trkpt><trkpt lat="44.0462896" lon="11.3532844"><ele>558.6666666666666</ele><time>2026-05-02T09:00:25.016Z</time></trkpt><trkpt lat="44.0462239" lon="11.3532619"><ele>556.3333333333333</ele><time>2026-05-02T09:00:25.966Z</time></trkpt><trkpt lat="44.0461533" lon="11.3532489"><ele>554.0</ele><time>2026-05-02T09:00:26.971Z</time></trkpt><trkpt lat="44.0460414" lon="11.3532681"><ele>554.0</ele><time>2026-05-02T09:00:28.975Z</time></trkpt><trkpt lat="44.045947" lon="11.35328"><ele>554.0</ele><time>2026-05-02T09:00:30.988Z</time></trkpt><trkpt lat="44.0458645" lon="11.3532412"><ele>554.0</ele><time>2026-05-02T09:00:33.034Z</time></trkpt><trkpt lat="44.0457767" lon="11.3531859"><ele>554.0</ele><time>2026-05-02T09:00:34.963Z</time></trkpt><trkpt lat="44.0456879" lon="11.3531383"><ele>554.0</ele><time>2026-05-02T09:00:36.964Z</time></trkpt><trkpt lat="44.0455948" lon="11.3530766"><ele>558.2</ele><time>2026-05-02T09:00:38.968Z</time></trkpt><trkpt lat="44.0454994" lon="11.3530129"><ele>562.4</ele><time>2026-05-02T09:00:40.97Z</time></trkpt><trkpt lat="44.0453942" lon="11.3529751"><ele>566.6</ele><time>2026-05-02T09:00:43.002Z</time></trkpt><trkpt lat="44.0452978" lon="11.3529827"><ele>570.8</ele><time>2026-05-02T09:00:44.974Z</time></trkpt><trkpt lat="44.0451985" lon="11.3529997"><ele>575.0</ele><time>2026-05-02T09:00:46.971Z</time></trkpt><trkpt lat="44.0450919" lon="11.3530172"><ele>575.0</ele><time>2026-05-02T09:00:48.964Z</time></trkpt><trkpt lat="44.0450073" lon="11.3530216"><ele>575.0</ele><time>2026-05-02T09:00:50.978Z</time></trkpt><trkpt lat="44.0449418" lon="11.3530055"><ele>575.0</ele><time>2026-05-02T09:00:52.972Z</time></trkpt><trkpt lat="44.0448736" lon="11.3529679"><ele>575.0</ele><time>2026-05-02T09:00:54.981Z</time></trkpt><trkpt lat="44.0447947" lon="11.3529418"><ele>575.0</ele><time>2026-05-02T09:00:56.979Z</time></trkpt><trkpt lat="44.0446896" lon="11.3528524"><ele>575.0</ele><time>2026-05-02T09:00:58.975Z</time></trkpt><trkpt lat="44.0446288" lon="11.3528252"><ele>566.0</ele><time>2026-05-02T09:00:59.98Z</time></trkpt><trkpt lat="44.0445171" lon="11.3527973"><ele>557.0</ele><time>2026-05-02T09:01:01.974Z</time></trkpt><trkpt lat="44.0444083" lon="11.3527756"><ele>548.0</ele><time>2026-05-02T09:01:03.975Z</time></trkpt><trkpt lat="44.0442961" lon="11.3527273"><ele>539.0</ele><time>2026-05-02T09:01:05.972Z</time></trkpt><trkpt lat="44.0441912" lon="11.3526502"><ele>535.8333333333333</ele><time>2026-05-02T09:01:08.021Z</time></trkpt><trkpt lat="44.0441284" lon="11.3526092"><ele>532.6666666666666</ele><time>2026-05-02T09:01:08.972Z</time></trkpt><trkpt lat="44.0440607" lon="11.3525796"><ele>529.5</ele><time>2026-05-02T09:01:09.965Z</time></trkpt><trkpt lat="44.0439902" lon="11.3525401"><ele>526.3333333333334</ele><time>2026-05-02T09:01:10.979Z</time></trkpt><trkpt lat="44.0439223" lon="11.3525124"><ele>523.1666666666667</ele><time>2026-05-02T09:01:11.981Z</time></trkpt><trkpt lat="44.0438204" lon="11.3524321"><ele>520.0</ele><time>2026-05-02T09:01:14.037Z</time></trkpt><trkpt lat="44.0437095" lon="11.3523601"><ele>520.0</ele><time>2026-05-02T09:01:15.969Z</time></trkpt><trkpt lat="44.0435954" lon="11.352285"><ele>520.0</ele><time>2026-05-02T09:01:18.049Z</time></trkpt><trkpt lat="44.0435367" lon="11.3522409"><ele>520.0</ele><time>2026-05-02T09:01:19.04Z</time></trkpt><trkpt lat="44.0434213" lon="11.3521739"><ele>520.0</ele><time>2026-05-02T09:01:20.971Z</time></trkpt><trkpt lat="44.0433064" lon="11.3521276"><ele>520.0</ele><time>2026-05-02T09:01:22.977Z</time></trkpt><trkpt lat="44.0432047" lon="11.3520524"><ele>518.0</ele><time>2026-05-02T09:01:24.971Z</time></trkpt><trkpt lat="44.0431343" lon="11.3519229"><ele>516.0</ele><time>2026-05-02T09:01:26.973Z</time></trkpt><trkpt lat="44.0431105" lon="11.351775"><ele>514.0</ele><time>2026-05-02T09:01:28.972Z</time></trkpt><trkpt lat="44.043102" lon="11.3516213"><ele>512.0</ele><time>2026-05-02T09:01:30.974Z</time></trkpt><trkpt lat="44.0430675" lon="11.3514498"><ele>515.5</ele><time>2026-05-02T09:01:33.03Z</time></trkpt><trkpt lat="44.04303" lon="11.3512858"><ele>519.0</ele><time>2026-05-02T09:01:34.974Z</time></trkpt><trkpt lat="44.0430093" lon="11.3511984"><ele>522.5</ele><time>2026-05-02T09:01:35.988Z</time></trkpt><trkpt lat="44.0430002" lon="11.3510995"><ele>526.0</ele><time>2026-05-02T09:01:36.976Z</time></trkpt><trkpt lat="44.0429788" lon="11.3510118"><ele>529.5</ele><time>2026-05-02T09:01:37.977Z</time></trkpt><trkpt lat="44.042947" lon="11.350922"><ele>533.0</ele><time>2026-05-02T09:01:38.973Z</time></trkpt><trkpt lat="44.0429104" lon="11.3508355"><ele>533.0</ele><time>2026-05-02T09:01:39.961Z</time></trkpt><trkpt lat="44.0428354" lon="11.3506999"><ele>533.0</ele><time>2026-05-02T09:01:41.979Z</time></trkpt><trkpt lat="44.0427695" lon="11.3506226"><ele>533.0</ele><time>2026-05-02T09:01:43.972Z</time></trkpt><trkpt lat="44.0426678" lon="11.3505999"><ele>533.0</ele><time>2026-05-02T09:01:45.974Z</time></trkpt><trkpt lat="44.0425587" lon="11.3506275"><ele>533.0</ele><time>2026-05-02T09:01:47.975Z</time></trkpt><trkpt lat="44.0424397" lon="11.3506811"><ele>534.4285714285714</ele><time>2026-05-02T09:01:49.979Z</time></trkpt><trkpt lat="44.0423737" lon="11.3507208"><ele>535.8571428571428</ele><time>2026-05-02T09:01:50.969Z</time></trkpt><trkpt lat="44.0423163" lon="11.350758"><ele>537.2857142857142</ele><time>2026-05-02T09:01:51.981Z</time></trkpt><trkpt lat="44.0422488" lon="11.3507941"><ele>538.7142857142857</ele><time>2026-05-02T09:01:52.975Z</time></trkpt><trkpt lat="44.0421798" lon="11.3508318"><ele>540.1428571428571</ele><time>2026-05-02T09:01:53.972Z</time></trkpt><trkpt lat="44.0421093" lon="11.3508679"><ele>541.5714285714286</ele><time>2026-05-02T09:01:54.982Z</time></trkpt><trkpt lat="44.042044" lon="11.3508972"><ele>543.0</ele><time>2026-05-02T09:01:55.974Z</time></trkpt><trkpt lat="44.0419768" lon="11.350927"><ele>543.0</ele><time>2026-05-02T09:01:56.978Z</time></trkpt><trkpt lat="44.0419109" lon="11.3509625"><ele>543.0</ele><time>2026-05-02T09:01:57.98Z</time></trkpt><trkpt lat="44.0418421" lon="11.3509995"><ele>543.0</ele><time>2026-05-02T09:01:58.977Z</time></trkpt><trkpt lat="44.0417711" lon="11.3510376"><ele>543.0</ele><time>2026-05-02T09:01:59.984Z</time></trkpt><trkpt lat="44.0417015" lon="11.3510665"><ele>543.0</ele><time>2026-05-02T09:02:00.983Z</time></trkpt><trkpt lat="44.0416373" lon="11.3510982"><ele>543.0</ele><time>2026-05-02T09:02:01.978Z</time></trkpt><trkpt lat="44.0415735" lon="11.3511421"><ele>543.0</ele><time>2026-05-02T09:02:02.974Z</time></trkpt><trkpt lat="44.0415093" lon="11.351188"><ele>542.0</ele><time>2026-05-02T09:02:03.976Z</time></trkpt><trkpt lat="44.0414419" lon="11.3512351"><ele>541.0</ele><time>2026-05-02T09:02:04.985Z</time></trkpt><trkpt lat="44.0413742" lon="11.3512862"><ele>540.0</ele><time>2026-05-02T09:02:05.979Z</time></trkpt><trkpt lat="44.0413031" lon="11.3513348"><ele>539.0</ele><time>2026-05-02T09:02:06.974Z</time></trkpt><trkpt lat="44.0412269" lon="11.3513836"><ele>538.0</ele><time>2026-05-02T09:02:07.973Z</time></trkpt><trkpt lat="44.0411536" lon="11.351442"><ele>537.0</ele><time>2026-05-02T09:02:08.972Z</time></trkpt><trkpt lat="44.0410636" lon="11.3515017"><ele>537.0</ele><time>2026-05-02T09:02:09.97Z</time></trkpt><trkpt lat="44.040975" lon="11.3515682"><ele>537.0</ele><time>2026-05-02T09:02:10.973Z</time></trkpt><trkpt lat="44.0408956" lon="11.3516379"><ele>537.0</ele><time>2026-05-02T09:02:11.979Z</time></trkpt><trkpt lat="44.0408226" lon="11.3516981"><ele>537.0</ele><time>2026-05-02T09:02:12.975Z</time></trkpt><trkpt lat="44.0407507" lon="11.3517725"><ele>537.0</ele><time>2026-05-02T09:02:13.967Z</time></trkpt><trkpt lat="44.0406852" lon="11.3518524"><ele>537.5</ele><time>2026-05-02T09:02:14.976Z</time></trkpt><trkpt lat="44.0406206" lon="11.3519364"><ele>538.0</ele><time>2026-05-02T09:02:15.982Z</time></trkpt><trkpt lat="44.0405626" lon="11.3520192"><ele>538.5</ele><time>2026-05-02T09:02:16.977Z</time></trkpt><trkpt lat="44.0405076" lon="11.3520988"><ele>539.0</ele><time>2026-05-02T09:02:17.975Z</time></trkpt><trkpt lat="44.0404575" lon="11.352171"><ele>539.5</ele><time>2026-05-02T09:02:18.963Z</time></trkpt><trkpt lat="44.0403742" lon="11.3522712"><ele>540.0</ele><time>2026-05-02T09:02:20.972Z</time></trkpt><trkpt lat="44.0402902" lon="11.3523275"><ele>540.0</ele><time>2026-05-02T09:02:22.984Z</time></trkpt><trkpt lat="44.0402173" lon="11.3523717"><ele>540.0</ele><time>2026-05-02T09:02:24.977Z</time></trkpt><trkpt lat="44.0401337" lon="11.3524677"><ele>540.0</ele><time>2026-05-02T09:02:26.972Z</time></trkpt><trkpt lat="44.0400815" lon="11.3525326"><ele>540.0</ele><time>2026-05-02T09:02:27.959Z</time></trkpt><trkpt lat="44.0400288" lon="11.3525967"><ele>540.0</ele><time>2026-05-02T09:02:28.982Z</time></trkpt><trkpt lat="44.0399695" lon="11.3526403"><ele>540.0</ele><time>2026-05-02T09:02:29.978Z</time></trkpt><trkpt lat="44.0399014" lon="11.3526654"><ele>541.0</ele><time>2026-05-02T09:02:30.981Z</time></trkpt><trkpt lat="44.0398245" lon="11.3526866"><ele>542.0</ele><time>2026-05-02T09:02:32.059Z</time></trkpt><trkpt lat="44.039748" lon="11.3527113"><ele>543.0</ele><time>2026-05-02T09:02:33.03Z</time></trkpt><trkpt lat="44.0396781" lon="11.3527353"><ele>544.0</ele><time>2026-05-02T09:02:33.958Z</time></trkpt><trkpt lat="44.0396069" lon="11.3527592"><ele>545.0</ele><time>2026-05-02T09:02:34.96Z</time></trkpt><trkpt lat="44.0395267" lon="11.3527766"><ele>546.0</ele><time>2026-05-02T09:02:35.951Z</time></trkpt><trkpt lat="44.0394465" lon="11.3528087"><ele>546.0</ele><time>2026-05-02T09:02:36.955Z</time></trkpt><trkpt lat="44.0393712" lon="11.3528377"><ele>546.0</ele><time>2026-05-02T09:02:37.963Z</time></trkpt><trkpt lat="44.0393016" lon="11.3528729"><ele>546.0</ele><time>2026-05-02T09:02:38.956Z</time></trkpt><trkpt lat="44.0391518" lon="11.3529575"><ele>546.0</ele><time>2026-05-02T09:02:41.961Z</time></trkpt><trkpt lat="44.0390636" lon="11.3529558"><ele>546.0</ele><time>2026-05-02T09:02:43.948Z</time></trkpt><trkpt lat="44.0389814" lon="11.3529226"><ele>541.4</ele><time>2026-05-02T09:02:45.973Z</time></trkpt><trkpt lat="44.0388996" lon="11.3528858"><ele>536.8</ele><time>2026-05-02T09:02:47.937Z</time></trkpt><trkpt lat="44.0387952" lon="11.3528447"><ele>532.1999999999999</ele><time>2026-05-02T09:02:49.954Z</time></trkpt><trkpt lat="44.0386976" lon="11.3527422"><ele>527.6</ele><time>2026-05-02T09:02:51.952Z</time></trkpt><trkpt lat="44.0386454" lon="11.3526627"><ele>523.0</ele><time>2026-05-02T09:02:52.956Z</time></trkpt><trkpt lat="44.0385916" lon="11.3525978"><ele>523.0</ele><time>2026-05-02T09:02:53.954Z</time></trkpt><trkpt lat="44.0385431" lon="11.3525171"><ele>523.0</ele><time>2026-05-02T09:02:54.962Z</time></trkpt><trkpt lat="44.0384859" lon="11.352441"><ele>523.0</ele><time>2026-05-02T09:02:55.945Z</time></trkpt><trkpt lat="44.038424" lon="11.352361"><ele>523.0</ele><time>2026-05-02T09:02:56.966Z</time></trkpt><trkpt lat="44.0383714" lon="11.352281"><ele>523.0</ele><time>2026-05-02T09:02:57.965Z</time></trkpt><trkpt lat="44.0383235" lon="11.3522008"><ele>523.0</ele><time>2026-05-02T09:02:58.951Z</time></trkpt><trkpt lat="44.0382786" lon="11.3521067"><ele>519.5</ele><time>2026-05-02T09:02:59.962Z</time></trkpt><trkpt lat="44.0382385" lon="11.351998"><ele>516.0</ele><time>2026-05-02T09:03:00.951Z</time></trkpt><trkpt lat="44.0382078" lon="11.3518969"><ele>512.5</ele><time>2026-05-02T09:03:01.954Z</time></trkpt><trkpt lat="44.0381805" lon="11.3518001"><ele>509.0</ele><time>2026-05-02T09:03:02.96Z</time></trkpt><trkpt lat="44.0381537" lon="11.3516999"><ele>505.50000000000006</ele><time>2026-05-02T09:03:03.955Z</time></trkpt><trkpt lat="44.0381313" lon="11.351596"><ele>502.0</ele><time>2026-05-02T09:03:04.951Z</time></trkpt><trkpt lat="44.0381162" lon="11.3514938"><ele>502.00000000000006</ele><time>2026-05-02T09:03:05.956Z</time></trkpt><trkpt lat="44.0381038" lon="11.351404"><ele>502.0</ele><time>2026-05-02T09:03:06.952Z</time></trkpt><trkpt lat="44.0380861" lon="11.3513137"><ele>502.0</ele><time>2026-05-02T09:03:08.027Z</time></trkpt><trkpt lat="44.0380749" lon="11.3512263"><ele>502.0</ele><time>2026-05-02T09:03:09.035Z</time></trkpt><trkpt lat="44.0380545" lon="11.3510708"><ele>502.00000000000006</ele><time>2026-05-02T09:03:10.965Z</time></trkpt><trkpt lat="44.0380398" lon="11.3509136"><ele>502.0</ele><time>2026-05-02T09:03:13.044Z</time></trkpt><trkpt lat="44.0380164" lon="11.3507844"><ele>504.1666666666667</ele><time>2026-05-02T09:03:15.031Z</time></trkpt><trkpt lat="44.0379871" lon="11.3506763"><ele>506.33333333333337</ele><time>2026-05-02T09:03:16.96Z</time></trkpt><trkpt lat="44.0380303" lon="11.3505973"><ele>508.5</ele><time>2026-05-02T09:04:51.978Z</time></trkpt><trkpt lat="44.0381322" lon="11.3505465"><ele>510.66666666666663</ele><time>2026-05-02T09:04:53.969Z</time></trkpt><trkpt lat="44.0382358" lon="11.3504659"><ele>512.8333333333333</ele><time>2026-05-02T09:04:55.988Z</time></trkpt><trkpt lat="44.0382894" lon="11.3504165"><ele>515.0</ele><time>2026-05-02T09:04:56.975Z</time></trkpt><trkpt lat="44.0383515" lon="11.3503759"><ele>515.5714285714286</ele><time>2026-05-02T09:04:58.032Z</time></trkpt><trkpt lat="44.0384133" lon="11.3503154"><ele>516.1428571428571</ele><time>2026-05-02T09:04:58.971Z</time></trkpt><trkpt lat="44.0384822" lon="11.350267"><ele>516.7142857142857</ele><time>2026-05-02T09:05:00.036Z</time></trkpt><trkpt lat="44.0385481" lon="11.3502292"><ele>517.2857142857142</ele><time>2026-05-02T09:05:00.978Z</time></trkpt><trkpt lat="44.0386174" lon="11.3501917"><ele>517.8571428571428</ele><time>2026-05-02T09:05:01.978Z</time></trkpt><trkpt lat="44.0386895" lon="11.3501613"><ele>518.4285714285714</ele><time>2026-05-02T09:05:02.974Z</time></trkpt><trkpt lat="44.0387615" lon="11.3501471"><ele>519.0</ele><time>2026-05-02T09:05:03.978Z</time></trkpt><trkpt lat="44.0388325" lon="11.3501423"><ele>519.0</ele><time>2026-05-02T09:05:04.969Z</time></trkpt><trkpt lat="44.0389008" lon="11.350138"><ele>519.0</ele><time>2026-05-02T09:05:05.982Z</time></trkpt><trkpt lat="44.0389745" lon="11.3501398"><ele>519.0</ele><time>2026-05-02T09:05:06.982Z</time></trkpt><trkpt lat="44.0390497" lon="11.3501403"><ele>519.0</ele><time>2026-05-02T09:05:07.957Z</time></trkpt><trkpt lat="44.0391184" lon="11.3501488"><ele>519.0</ele><time>2026-05-02T09:05:09.08Z</time></trkpt><trkpt lat="44.0392452" lon="11.3501477"><ele>519.0</ele><time>2026-05-02T09:05:10.972Z</time></trkpt><trkpt lat="44.0393199" lon="11.3501409"><ele>521.2</ele><time>2026-05-02T09:05:11.973Z</time></trkpt><trkpt lat="44.0394413" lon="11.3501276"><ele>523.4</ele><time>2026-05-02T09:05:13.974Z</time></trkpt><trkpt lat="44.039545" lon="11.3501475"><ele>525.6</ele><time>2026-05-02T09:05:15.961Z</time></trkpt><trkpt lat="44.0396408" lon="11.3502072"><ele>527.8</ele><time>2026-05-02T09:05:17.976Z</time></trkpt><trkpt lat="44.0397333" lon="11.3502548"><ele>530.0</ele><time>2026-05-02T09:05:19.98Z</time></trkpt><trkpt lat="44.039833" lon="11.3502873"><ele>530.0</ele><time>2026-05-02T09:05:21.982Z</time></trkpt><trkpt lat="44.0399478" lon="11.3503022"><ele>530.0</ele><time>2026-05-02T09:05:23.969Z</time></trkpt><trkpt lat="44.0400164" lon="11.3503077"><ele>530.0</ele><time>2026-05-02T09:05:24.979Z</time></trkpt><trkpt lat="44.0401388" lon="11.3503409"><ele>530.0</ele><time>2026-05-02T09:05:26.972Z</time></trkpt><trkpt lat="44.0402026" lon="11.350365"><ele>530.0</ele><time>2026-05-02T09:05:27.978Z</time></trkpt><trkpt lat="44.0402698" lon="11.3503974"><ele>530.0</ele><time>2026-05-02T09:05:28.97Z</time></trkpt><trkpt lat="44.0403355" lon="11.3504414"><ele>531.8333333333333</ele><time>2026-05-02T09:05:29.991Z</time></trkpt><trkpt lat="44.040407" lon="11.3504942"><ele>533.6666666666666</ele><time>2026-05-02T09:05:30.982Z</time></trkpt><trkpt lat="44.0404794" lon="11.3505496"><ele>535.5</ele><time>2026-05-02T09:05:32.037Z</time></trkpt><trkpt lat="44.0405591" lon="11.3506019"><ele>537.3333333333334</ele><time>2026-05-02T09:05:32.971Z</time></trkpt><trkpt lat="44.0406366" lon="11.3506374"><ele>539.1666666666667</ele><time>2026-05-02T09:05:34.02Z</time></trkpt><trkpt lat="44.0407091" lon="11.3506619"><ele>541.0</ele><time>2026-05-02T09:05:34.961Z</time></trkpt><trkpt lat="44.0407855" lon="11.3506848"><ele>543.5</ele><time>2026-05-02T09:05:35.972Z</time></trkpt><trkpt lat="44.0408571" lon="11.3506972"><ele>546.0</ele><time>2026-05-02T09:05:36.951Z</time></trkpt><trkpt lat="44.0409205" lon="11.3506952"><ele>548.5</ele><time>2026-05-02T09:05:37.971Z</time></trkpt><trkpt lat="44.0409948" lon="11.3506577"><ele>551.0</ele><time>2026-05-02T09:05:38.968Z</time></trkpt><trkpt lat="44.0410743" lon="11.3505966"><ele>553.5</ele><time>2026-05-02T09:05:39.985Z</time></trkpt><trkpt lat="44.0411466" lon="11.3505263"><ele>556.0</ele><time>2026-05-02T09:05:40.971Z</time></trkpt><trkpt lat="44.0412164" lon="11.3504558"><ele>556.4</ele><time>2026-05-02T09:05:41.972Z</time></trkpt><trkpt lat="44.0412892" lon="11.3503799"><ele>556.8</ele><time>2026-05-02T09:05:43.054Z</time></trkpt><trkpt lat="44.0413675" lon="11.3503116"><ele>557.1999999999999</ele><time>2026-05-02T09:05:43.955Z</time></trkpt><trkpt lat="44.0414501" lon="11.3502355"><ele>557.6</ele><time>2026-05-02T09:05:44.969Z</time></trkpt><trkpt lat="44.0415342" lon="11.3501445"><ele>558.0</ele><time>2026-05-02T09:05:45.969Z</time></trkpt><trkpt lat="44.041612" lon="11.3500652"><ele>558.4</ele><time>2026-05-02T09:05:46.959Z</time></trkpt><trkpt lat="44.0416969" lon="11.3499772"><ele>558.8</ele><time>2026-05-02T09:05:47.962Z</time></trkpt><trkpt lat="44.0417825" lon="11.3498918"><ele>559.2</ele><time>2026-05-02T09:05:49.025Z</time></trkpt><trkpt lat="44.0418694" lon="11.3498064"><ele>559.6</ele><time>2026-05-02T09:05:49.963Z</time></trkpt><trkpt lat="44.0419582" lon="11.349733"><ele>560.0</ele><time>2026-05-02T09:05:50.97Z</time></trkpt><trkpt lat="44.0420563" lon="11.3496703"><ele>560.0</ele><time>2026-05-02T09:05:51.967Z</time></trkpt><trkpt lat="44.0421513" lon="11.3496014"><ele>560.0</ele><time>2026-05-02T09:05:52.977Z</time></trkpt><trkpt lat="44.0422334" lon="11.3495124"><ele>560.0</ele><time>2026-05-02T09:05:53.977Z</time></trkpt><trkpt lat="44.0423154" lon="11.3494282"><ele>560.0</ele><time>2026-05-02T09:05:54.976Z</time></trkpt><trkpt lat="44.0423964" lon="11.3493446"><ele>560.0</ele><time>2026-05-02T09:05:55.952Z</time></trkpt><trkpt lat="44.0424731" lon="11.3492671"><ele>562.2</ele><time>2026-05-02T09:05:56.966Z</time></trkpt><trkpt lat="44.0425513" lon="11.3491873"><ele>564.4</ele><time>2026-05-02T09:05:57.976Z</time></trkpt><trkpt lat="44.0426302" lon="11.3491143"><ele>566.6</ele><time>2026-05-02T09:05:59.017Z</time></trkpt><trkpt lat="44.0427049" lon="11.349039"><ele>568.8</ele><time>2026-05-02T09:06:00.022Z</time></trkpt><trkpt lat="44.0427728" lon="11.3489485"><ele>571.0</ele><time>2026-05-02T09:06:00.967Z</time></trkpt><trkpt lat="44.0428395" lon="11.3488564"><ele>571.0</ele><time>2026-05-02T09:06:01.961Z</time></trkpt><trkpt lat="44.0429084" lon="11.3487733"><ele>571.0</ele><time>2026-05-02T09:06:02.964Z</time></trkpt><trkpt lat="44.0429744" lon="11.3486984"><ele>571.0</ele><time>2026-05-02T09:06:03.963Z</time></trkpt><trkpt lat="44.0430277" lon="11.3486319"><ele>571.0</ele><time>2026-05-02T09:06:04.969Z</time></trkpt><trkpt lat="44.0431087" lon="11.3485155"><ele>571.0</ele><time>2026-05-02T09:06:06.968Z</time></trkpt><trkpt lat="44.0431616" lon="11.3484623"><ele>571.0</ele><time>2026-05-02T09:06:07.962Z</time></trkpt><trkpt lat="44.0432194" lon="11.3483988"><ele>571.0</ele><time>2026-05-02T09:06:08.969Z</time></trkpt><trkpt lat="44.0432908" lon="11.3483243"><ele>571.0</ele><time>2026-05-02T09:06:09.972Z</time></trkpt><trkpt lat="44.0433808" lon="11.3482439"><ele>571.0</ele><time>2026-05-02T09:06:10.966Z</time></trkpt><trkpt lat="44.0434722" lon="11.348153"><ele>571.0</ele><time>2026-05-02T09:06:11.968Z</time></trkpt><trkpt lat="44.0435675" lon="11.3480515"><ele>571.0</ele><time>2026-05-02T09:06:12.975Z</time></trkpt><trkpt lat="44.0436477" lon="11.3479393"><ele>571.0</ele><time>2026-05-02T09:06:13.966Z</time></trkpt><trkpt lat="44.0437135" lon="11.3478239"><ele>571.0</ele><time>2026-05-02T09:06:15.064Z</time></trkpt><trkpt lat="44.0437736" lon="11.3477297"><ele>571.0</ele><time>2026-05-02T09:06:15.968Z</time></trkpt><trkpt lat="44.0438328" lon="11.3476552"><ele>571.0</ele><time>2026-05-02T09:06:17.048Z</time></trkpt><trkpt lat="44.0438993" lon="11.3475817"><ele>571.0</ele><time>2026-05-02T09:06:18.035Z</time></trkpt><trkpt lat="44.0439747" lon="11.3475165"><ele>571.0</ele><time>2026-05-02T09:06:18.99Z</time></trkpt><trkpt lat="44.0440527" lon="11.3474611"><ele>571.0</ele><time>2026-05-02T09:06:20.033Z</time></trkpt><trkpt lat="44.0441301" lon="11.3474055"><ele>571.0</ele><time>2026-05-02T09:06:20.952Z</time></trkpt><trkpt lat="44.0442054" lon="11.3473634"><ele>571.0</ele><time>2026-05-02T09:06:21.97Z</time></trkpt><trkpt lat="44.0442758" lon="11.3473331"><ele>571.0</ele><time>2026-05-02T09:06:22.966Z</time></trkpt><trkpt lat="44.0443415" lon="11.3473079"><ele>571.0</ele><time>2026-05-02T09:06:24.034Z</time></trkpt><trkpt lat="44.0444016" lon="11.3472806"><ele>574.4</ele><time>2026-05-02T09:06:25.034Z</time></trkpt><trkpt lat="44.0444678" lon="11.347202"><ele>577.8</ele><time>2026-05-02T09:06:26.968Z</time></trkpt><trkpt lat="44.0444296" lon="11.3471039"><ele>581.1999999999999</ele><time>2026-05-02T09:06:30.053Z</time></trkpt><trkpt lat="44.0443636" lon="11.3470121"><ele>584.6</ele><time>2026-05-02T09:06:31.965Z</time></trkpt><trkpt lat="44.0442787" lon="11.3468988"><ele>588.0</ele><time>2026-05-02T09:06:34.049Z</time></trkpt><trkpt lat="44.0442314" lon="11.346814"><ele>588.0</ele><time>2026-05-02T09:06:34.966Z</time></trkpt><trkpt lat="44.0441974" lon="11.3467327"><ele>588.0</ele><time>2026-05-02T09:06:35.959Z</time></trkpt><trkpt lat="44.0441786" lon="11.346634"><ele>588.0</ele><time>2026-05-02T09:06:36.975Z</time></trkpt><trkpt lat="44.0441685" lon="11.3465323"><ele>588.0</ele><time>2026-05-02T09:06:37.967Z</time></trkpt><trkpt lat="44.0441751" lon="11.3464438"><ele>588.0</ele><time>2026-05-02T09:06:38.957Z</time></trkpt><trkpt lat="44.0441947" lon="11.3463532"><ele>588.0</ele><time>2026-05-02T09:06:39.963Z</time></trkpt><trkpt lat="44.0442371" lon="11.3461921"><ele>586.5</ele><time>2026-05-02T09:06:41.951Z</time></trkpt><trkpt lat="44.0443107" lon="11.3461517"><ele>585.0</ele><time>2026-05-02T09:06:43.957Z</time></trkpt><trkpt lat="44.0443987" lon="11.3461456"><ele>583.5</ele><time>2026-05-02T09:06:45.959Z</time></trkpt><trkpt lat="44.0444665" lon="11.3461077"><ele>582.0</ele><time>2026-05-02T09:06:46.957Z</time></trkpt><trkpt lat="44.044543" lon="11.3460339"><ele>580.5</ele><time>2026-05-02T09:06:47.951Z</time></trkpt><trkpt lat="44.0446222" lon="11.3459632"><ele>579.0</ele><time>2026-05-02T09:06:48.958Z</time></trkpt><trkpt lat="44.0447027" lon="11.3458897"><ele>579.0</ele><time>2026-05-02T09:06:49.944Z</time></trkpt><trkpt lat="44.0447909" lon="11.345819"><ele>579.0</ele><time>2026-05-02T09:06:50.959Z</time></trkpt><trkpt lat="44.0448826" lon="11.3457534"><ele>579.0</ele><time>2026-05-02T09:06:51.957Z</time></trkpt><trkpt lat="44.0449929" lon="11.3456876"><ele>579.0</ele><time>2026-05-02T09:06:52.966Z</time></trkpt><trkpt lat="44.0450875" lon="11.3456275"><ele>579.0</ele><time>2026-05-02T09:06:53.948Z</time></trkpt><trkpt lat="44.0451781" lon="11.345559"><ele>578.6666666666666</ele><time>2026-05-02T09:06:54.956Z</time></trkpt><trkpt lat="44.0452602" lon="11.345473"><ele>578.3333333333334</ele><time>2026-05-02T09:06:55.941Z</time></trkpt><trkpt lat="44.0453261" lon="11.3453952"><ele>578.0</ele><time>2026-05-02T09:06:56.961Z</time></trkpt><trkpt lat="44.0453644" lon="11.345312"><ele>577.6666666666667</ele><time>2026-05-02T09:06:57.969Z</time></trkpt><trkpt lat="44.0454" lon="11.3452177"><ele>577.3333333333334</ele><time>2026-05-02T09:06:58.953Z</time></trkpt><trkpt lat="44.045434" lon="11.3451116"><ele>577.0</ele><time>2026-05-02T09:06:59.969Z</time></trkpt><trkpt lat="44.0454687" lon="11.3450064"><ele>577.0</ele><time>2026-05-02T09:07:00.96Z</time></trkpt><trkpt lat="44.0455088" lon="11.3449076"><ele>577.0</ele><time>2026-05-02T09:07:01.965Z</time></trkpt><trkpt lat="44.0455637" lon="11.3448044"><ele>577.0</ele><time>2026-05-02T09:07:02.965Z</time></trkpt><trkpt lat="44.0456255" lon="11.344712"><ele>577.0</ele><time>2026-05-02T09:07:03.962Z</time></trkpt><trkpt lat="44.0457003" lon="11.3446143"><ele>577.0</ele><time>2026-05-02T09:07:04.963Z</time></trkpt><trkpt lat="44.0457719" lon="11.3445084"><ele>577.8000000000001</ele><time>2026-05-02T09:07:05.962Z</time></trkpt><trkpt lat="44.0458362" lon="11.3443935"><ele>578.6</ele><time>2026-05-02T09:07:06.963Z</time></trkpt><trkpt lat="44.0459045" lon="11.3442816"><ele>579.4000000000001</ele><time>2026-05-02T09:07:07.959Z</time></trkpt><trkpt lat="44.0459617" lon="11.3441666"><ele>580.2</ele><time>2026-05-02T09:07:08.958Z</time></trkpt><trkpt lat="44.0460245" lon="11.3440567"><ele>581.0</ele><time>2026-05-02T09:07:09.968Z</time></trkpt><trkpt lat="44.0460883" lon="11.3439487"><ele>577.4</ele><time>2026-05-02T09:07:10.955Z</time></trkpt><trkpt lat="44.0461452" lon="11.3438287"><ele>573.8</ele><time>2026-05-02T09:07:11.953Z</time></trkpt><trkpt lat="44.0461967" lon="11.3437088"><ele>570.1999999999999</ele><time>2026-05-02T09:07:12.954Z</time></trkpt><trkpt lat="44.0462421" lon="11.343601"><ele>566.6</ele><time>2026-05-02T09:07:13.959Z</time></trkpt><trkpt lat="44.0462794" lon="11.3434697"><ele>563.0</ele><time>2026-05-02T09:07:14.941Z</time></trkpt><trkpt lat="44.0463009" lon="11.3433327"><ele>563.0</ele><time>2026-05-02T09:07:15.953Z</time></trkpt><trkpt lat="44.046294" lon="11.3431982"><ele>563.0</ele><time>2026-05-02T09:07:16.965Z</time></trkpt><trkpt lat="44.046292" lon="11.3430853"><ele>563.0</ele><time>2026-05-02T09:07:17.957Z</time></trkpt><trkpt lat="44.0463131" lon="11.3429194"><ele>563.0</ele><time>2026-05-02T09:07:19.964Z</time></trkpt><trkpt lat="44.0463853" lon="11.3428612"><ele>563.0</ele><time>2026-05-02T09:07:21.961Z</time></trkpt><trkpt lat="44.0464887" lon="11.3428675"><ele>561.6</ele><time>2026-05-02T09:07:23.955Z</time></trkpt><trkpt lat="44.0466034" lon="11.3429386"><ele>560.1999999999999</ele><time>2026-05-02T09:07:25.961Z</time></trkpt><trkpt lat="44.0466974" lon="11.3429942"><ele>558.8</ele><time>2026-05-02T09:07:26.955Z</time></trkpt><trkpt lat="44.0467714" lon="11.343034"><ele>557.4</ele><time>2026-05-02T09:07:27.958Z</time></trkpt><trkpt lat="44.0468458" lon="11.3430715"><ele>556.0</ele><time>2026-05-02T09:07:28.962Z</time></trkpt><trkpt lat="44.0469262" lon="11.3431272"><ele>559.3333333333334</ele><time>2026-05-02T09:07:29.963Z</time></trkpt><trkpt lat="44.0469882" lon="11.3431839"><ele>562.6666666666667</ele><time>2026-05-02T09:07:30.959Z</time></trkpt><trkpt lat="44.0470575" lon="11.3432475"><ele>566.0</ele><time>2026-05-02T09:07:31.962Z</time></trkpt><trkpt lat="44.0471118" lon="11.3433107"><ele>569.3333333333334</ele><time>2026-05-02T09:07:32.966Z</time></trkpt><trkpt lat="44.0471812" lon="11.3433586"><ele>572.6666666666666</ele><time>2026-05-02T09:07:34.963Z</time></trkpt><trkpt lat="44.0472542" lon="11.3433105"><ele>576.0</ele><time>2026-05-02T09:07:36.956Z</time></trkpt><trkpt lat="44.0473136" lon="11.3432441"><ele>576.0</ele><time>2026-05-02T09:07:37.963Z</time></trkpt><trkpt lat="44.0473595" lon="11.3431762"><ele>576.0</ele><time>2026-05-02T09:07:38.954Z</time></trkpt><trkpt lat="44.0474233" lon="11.3430558"><ele>576.0</ele><time>2026-05-02T09:07:40.953Z</time></trkpt><trkpt lat="44.0474559" lon="11.3429546"><ele>576.0</ele><time>2026-05-02T09:07:42.955Z</time></trkpt><trkpt lat="44.0474588" lon="11.342839"><ele>576.0</ele><time>2026-05-02T09:07:44.949Z</time></trkpt><trkpt lat="44.0474343" lon="11.3427151"><ele>576.0</ele><time>2026-05-02T09:07:46.965Z</time></trkpt><trkpt lat="44.047418" lon="11.3425873"><ele>574.4</ele><time>2026-05-02T09:07:48.955Z</time></trkpt><trkpt lat="44.0474163" lon="11.3424642"><ele>572.8</ele><time>2026-05-02T09:07:50.965Z</time></trkpt><trkpt lat="44.0474379" lon="11.3423333"><ele>571.1999999999999</ele><time>2026-05-02T09:07:52.952Z</time></trkpt><trkpt lat="44.0474682" lon="11.3421451"><ele>569.6</ele><time>2026-05-02T09:07:54.953Z</time></trkpt><trkpt lat="44.0474835" lon="11.3420545"><ele>568.0</ele><time>2026-05-02T09:07:55.964Z</time></trkpt><trkpt lat="44.0474995" lon="11.3419673"><ele>568.0</ele><time>2026-05-02T09:07:56.966Z</time></trkpt><trkpt lat="44.0475499" lon="11.3417893"><ele>568.0</ele><time>2026-05-02T09:07:58.956Z</time></trkpt><trkpt lat="44.0476179" lon="11.3416961"><ele>568.0</ele><time>2026-05-02T09:07:59.965Z</time></trkpt><trkpt lat="44.0477062" lon="11.3416126"><ele>568.0</ele><time>2026-05-02T09:08:00.952Z</time></trkpt><trkpt lat="44.0477956" lon="11.3415295"><ele>568.0</ele><time>2026-05-02T09:08:01.947Z</time></trkpt><trkpt lat="44.0478775" lon="11.3414539"><ele>566.4</ele><time>2026-05-02T09:08:02.953Z</time></trkpt><trkpt lat="44.0479616" lon="11.3413734"><ele>564.8</ele><time>2026-05-02T09:08:03.965Z</time></trkpt><trkpt lat="44.0480391" lon="11.3412983"><ele>563.2</ele><time>2026-05-02T09:08:04.965Z</time></trkpt><trkpt lat="44.0481153" lon="11.3412141"><ele>561.6</ele><time>2026-05-02T09:08:05.958Z</time></trkpt><trkpt lat="44.048168" lon="11.3411215"><ele>560.0</ele><time>2026-05-02T09:08:06.964Z</time></trkpt><trkpt lat="44.0482259" lon="11.3410391"><ele>560.0</ele><time>2026-05-02T09:08:07.965Z</time></trkpt><trkpt lat="44.0482824" lon="11.3409668"><ele>560.0</ele><time>2026-05-02T09:08:08.962Z</time></trkpt><trkpt lat="44.0483158" lon="11.3408548"><ele>560.0</ele><time>2026-05-02T09:08:09.941Z</time></trkpt><trkpt lat="44.0483364" lon="11.3407251"><ele>560.0</ele><time>2026-05-02T09:08:10.96Z</time></trkpt><trkpt lat="44.0483564" lon="11.3406034"><ele>560.0</ele><time>2026-05-02T09:08:11.953Z</time></trkpt><trkpt lat="44.0484003" lon="11.3404857"><ele>560.0</ele><time>2026-05-02T09:08:12.957Z</time></trkpt><trkpt lat="44.0484524" lon="11.3403859"><ele>561.0</ele><time>2026-05-02T09:08:13.96Z</time></trkpt><trkpt lat="44.0484887" lon="11.3403101"><ele>562.0</ele><time>2026-05-02T09:08:14.962Z</time></trkpt><trkpt lat="44.0485361" lon="11.3402484"><ele>563.0</ele><time>2026-05-02T09:08:15.962Z</time></trkpt><trkpt lat="44.0485907" lon="11.3401865"><ele>564.0</ele><time>2026-05-02T09:08:16.96Z</time></trkpt><trkpt lat="44.0486435" lon="11.3401338"><ele>565.0</ele><time>2026-05-02T09:08:17.952Z</time></trkpt><trkpt lat="44.0487612" lon="11.3400567"><ele>566.0</ele><time>2026-05-02T09:08:19.954Z</time></trkpt><trkpt lat="44.0488323" lon="11.3400243"><ele>566.0</ele><time>2026-05-02T09:08:20.964Z</time></trkpt><trkpt lat="44.0489085" lon="11.3399988"><ele>566.0</ele><time>2026-05-02T09:08:21.952Z</time></trkpt><trkpt lat="44.0489859" lon="11.3399749"><ele>566.0</ele><time>2026-05-02T09:08:22.956Z</time></trkpt><trkpt lat="44.0490586" lon="11.3399466"><ele>566.0</ele><time>2026-05-02T09:08:23.959Z</time></trkpt><trkpt lat="44.0491256" lon="11.3399395"><ele>566.0</ele><time>2026-05-02T09:08:24.944Z</time></trkpt><trkpt lat="44.0491904" lon="11.3399316"><ele>566.0</ele><time>2026-05-02T09:08:25.967Z</time></trkpt><trkpt lat="44.0492585" lon="11.3399341"><ele>566.0</ele><time>2026-05-02T09:08:26.958Z</time></trkpt><trkpt lat="44.0493325" lon="11.3399444"><ele>568.8333333333333</ele><time>2026-05-02T09:08:28.041Z</time></trkpt><trkpt lat="44.049418" lon="11.3399656"><ele>571.6666666666666</ele><time>2026-05-02T09:08:29.037Z</time></trkpt><trkpt lat="44.0495154" lon="11.3399725"><ele>574.5</ele><time>2026-05-02T09:08:29.969Z</time></trkpt><trkpt lat="44.0496063" lon="11.339989"><ele>577.3333333333334</ele><time>2026-05-02T09:08:30.969Z</time></trkpt><trkpt lat="44.0496926" lon="11.3400125"><ele>580.1666666666667</ele><time>2026-05-02T09:08:31.96Z</time></trkpt><trkpt lat="44.0497772" lon="11.3400244"><ele>583.0</ele><time>2026-05-02T09:08:33.051Z</time></trkpt><trkpt lat="44.0498694" lon="11.3400093"><ele>582.8</ele><time>2026-05-02T09:08:34.031Z</time></trkpt><trkpt lat="44.0499676" lon="11.3399737"><ele>582.5999999999999</ele><time>2026-05-02T09:08:35.035Z</time></trkpt><trkpt lat="44.0500742" lon="11.3399107"><ele>582.4000000000001</ele><time>2026-05-02T09:08:35.956Z</time></trkpt><trkpt lat="44.0501624" lon="11.33985"><ele>582.2</ele><time>2026-05-02T09:08:36.96Z</time></trkpt><trkpt lat="44.0502431" lon="11.3397934"><ele>582.0</ele><time>2026-05-02T09:08:37.988Z</time></trkpt><trkpt lat="44.0503183" lon="11.3397625"><ele>582.0</ele><time>2026-05-02T09:08:39.032Z</time></trkpt><trkpt lat="44.0503876" lon="11.3397507"><ele>582.0</ele><time>2026-05-02T09:08:39.963Z</time></trkpt><trkpt lat="44.0505071" lon="11.3397507"><ele>582.0</ele><time>2026-05-02T09:08:41.966Z</time></trkpt><trkpt lat="44.05062" lon="11.3397414"><ele>582.0</ele><time>2026-05-02T09:08:43.96Z</time></trkpt><trkpt lat="44.0506878" lon="11.3397047"><ele>582.0</ele><time>2026-05-02T09:08:44.989Z</time></trkpt><trkpt lat="44.0507622" lon="11.339624"><ele>580.1666666666666</ele><time>2026-05-02T09:08:45.96Z</time></trkpt><trkpt lat="44.0508274" lon="11.3395423"><ele>578.3333333333334</ele><time>2026-05-02T09:08:46.964Z</time></trkpt><trkpt lat="44.0508723" lon="11.33947"><ele>576.5</ele><time>2026-05-02T09:08:47.97Z</time></trkpt><trkpt lat="44.0509433" lon="11.339342"><ele>574.6666666666667</ele><time>2026-05-02T09:08:49.966Z</time></trkpt><trkpt lat="44.050986" lon="11.3392545"><ele>572.8333333333334</ele><time>2026-05-02T09:08:51.969Z</time></trkpt><trkpt lat="44.051061" lon="11.3391908"><ele>571.0</ele><time>2026-05-02T09:08:53.952Z</time></trkpt><trkpt lat="44.0511386" lon="11.3391423"><ele>571.0</ele><time>2026-05-02T09:08:55.96Z</time></trkpt><trkpt lat="44.051239" lon="11.3391223"><ele>571.0</ele><time>2026-05-02T09:08:57.963Z</time></trkpt><trkpt lat="44.0513389" lon="11.3391181"><ele>571.0</ele><time>2026-05-02T09:08:59.966Z</time></trkpt><trkpt lat="44.0514241" lon="11.3391418"><ele>571.0</ele><time>2026-05-02T09:09:01.958Z</time></trkpt><trkpt lat="44.05151" lon="11.3391532"><ele>571.0</ele><time>2026-05-02T09:09:03.954Z</time></trkpt><trkpt lat="44.051604" lon="11.3391439"><ele>573.0</ele><time>2026-05-02T09:09:05.963Z</time></trkpt><trkpt lat="44.0517105" lon="11.3391228"><ele>575.0</ele><time>2026-05-02T09:09:07.973Z</time></trkpt><trkpt lat="44.0517733" lon="11.3391093"><ele>577.0</ele><time>2026-05-02T09:09:08.961Z</time></trkpt><trkpt lat="44.0518357" lon="11.339095"><ele>579.0</ele><time>2026-05-02T09:09:09.95Z</time></trkpt><trkpt lat="44.0519487" lon="11.3390713"><ele>581.0</ele><time>2026-05-02T09:09:11.952Z</time></trkpt><trkpt lat="44.0520468" lon="11.3390726"><ele>583.0</ele><time>2026-05-02T09:09:13.969Z</time></trkpt><trkpt lat="44.0521442" lon="11.3391021"><ele>583.0</ele><time>2026-05-02T09:09:15.973Z</time></trkpt><trkpt lat="44.0522305" lon="11.3391492"><ele>583.0</ele><time>2026-05-02T09:09:17.955Z</time></trkpt><trkpt lat="44.0523472" lon="11.339224"><ele>583.0</ele><time>2026-05-02T09:09:19.963Z</time></trkpt><trkpt lat="44.0524134" lon="11.3392657"><ele>583.0</ele><time>2026-05-02T09:09:20.974Z</time></trkpt><trkpt lat="44.0524947" lon="11.3393178"><ele>583.0</ele><time>2026-05-02T09:09:21.976Z</time></trkpt><trkpt lat="44.0525503" lon="11.3393812"><ele>582.5</ele><time>2026-05-02T09:09:22.964Z</time></trkpt><trkpt lat="44.052603" lon="11.3394359"><ele>582.0</ele><time>2026-05-02T09:09:23.966Z</time></trkpt><trkpt lat="44.0527255" lon="11.3394741"><ele>581.5</ele><time>2026-05-02T09:09:25.96Z</time></trkpt><trkpt lat="44.0527891" lon="11.3394575"><ele>581.0</ele><time>2026-05-02T09:09:26.961Z</time></trkpt><trkpt lat="44.0528805" lon="11.339432"><ele>580.5</ele><time>2026-05-02T09:09:28.966Z</time></trkpt><trkpt lat="44.0529703" lon="11.3394522"><ele>580.0</ele><time>2026-05-02T09:09:31.958Z</time></trkpt><trkpt lat="44.0530342" lon="11.3395062"><ele>580.0</ele><time>2026-05-02T09:09:33.963Z</time></trkpt><trkpt lat="44.0530979" lon="11.3395705"><ele>580.0</ele><time>2026-05-02T09:09:35.958Z</time></trkpt><trkpt lat="44.0531666" lon="11.3396284"><ele>580.0</ele><time>2026-05-02T09:09:38.96Z</time></trkpt><trkpt lat="44.0532269" lon="11.3395818"><ele>580.0</ele><time>2026-05-02T09:09:42.966Z</time></trkpt><trkpt lat="44.0532593" lon="11.3394944"><ele>580.0</ele><time>2026-05-02T09:09:44.965Z</time></trkpt><trkpt lat="44.0532942" lon="11.3394053"><ele>580.0</ele><time>2026-05-02T09:09:46.964Z</time></trkpt><trkpt lat="44.0533271" lon="11.3393144"><ele>580.0</ele><time>2026-05-02T09:09:48.959Z</time></trkpt><trkpt lat="44.0533594" lon="11.3392282"><ele>579.3333333333334</ele><time>2026-05-02T09:09:50.965Z</time></trkpt><trkpt lat="44.0533927" lon="11.3391337"><ele>578.6666666666667</ele><time>2026-05-02T09:09:52.962Z</time></trkpt><trkpt lat="44.0534206" lon="11.3390315"><ele>578.0</ele><time>2026-05-02T09:09:54.961Z</time></trkpt><trkpt lat="44.0534237" lon="11.3389373"><ele>577.3333333333334</ele><time>2026-05-02T09:09:56.967Z</time></trkpt><trkpt lat="44.0534116" lon="11.3388403"><ele>576.6666666666666</ele><time>2026-05-02T09:09:58.953Z</time></trkpt><trkpt lat="44.0533568" lon="11.338735"><ele>576.0</ele><time>2026-05-02T09:10:00.972Z</time></trkpt><trkpt lat="44.0532854" lon="11.3386686"><ele>573.8333333333334</ele><time>2026-05-02T09:10:02.964Z</time></trkpt><trkpt lat="44.053192" lon="11.3386347"><ele>571.6666666666666</ele><time>2026-05-02T09:10:04.967Z</time></trkpt><trkpt lat="44.0530919" lon="11.3386282"><ele>569.5</ele><time>2026-05-02T09:10:06.969Z</time></trkpt><trkpt lat="44.0530193" lon="11.3386498"><ele>567.3333333333333</ele><time>2026-05-02T09:10:08.963Z</time></trkpt><trkpt lat="44.0529511" lon="11.338669"><ele>565.1666666666666</ele><time>2026-05-02T09:10:10.952Z</time></trkpt><trkpt lat="44.0528803" lon="11.3386543"><ele>563.0</ele><time>2026-05-02T09:10:12.964Z</time></trkpt><trkpt lat="44.0528504" lon="11.3385732"><ele>563.0</ele><time>2026-05-02T09:10:14.964Z</time></trkpt><trkpt lat="44.0528725" lon="11.3384849"><ele>563.0</ele><time>2026-05-02T09:10:16.967Z</time></trkpt><trkpt lat="44.0529476" lon="11.3384392"><ele>563.0</ele><time>2026-05-02T09:10:18.964Z</time></trkpt><trkpt lat="44.0530271" lon="11.338407"><ele>563.0</ele><time>2026-05-02T09:10:20.976Z</time></trkpt><trkpt lat="44.0531034" lon="11.3384087"><ele>563.0</ele><time>2026-05-02T09:10:22.96Z</time></trkpt><trkpt lat="44.0531934" lon="11.3384304"><ele>563.0</ele><time>2026-05-02T09:10:24.96Z</time></trkpt><trkpt lat="44.0533038" lon="11.3384709"><ele>562.0</ele><time>2026-05-02T09:10:26.958Z</time></trkpt><trkpt lat="44.0534094" lon="11.3385281"><ele>561.0</ele><time>2026-05-02T09:10:28.958Z</time></trkpt><trkpt lat="44.0535134" lon="11.3385783"><ele>560.0</ele><time>2026-05-02T09:10:30.963Z</time></trkpt><trkpt lat="44.0536131" lon="11.3386136"><ele>559.0</ele><time>2026-05-02T09:10:32.963Z</time></trkpt><trkpt lat="44.0537191" lon="11.3386437"><ele>558.0</ele><time>2026-05-02T09:10:34.957Z</time></trkpt><trkpt lat="44.0538317" lon="11.3387095"><ele>558.0</ele><time>2026-05-02T09:10:36.966Z</time></trkpt><trkpt lat="44.0539294" lon="11.3387878"><ele>558.0</ele><time>2026-05-02T09:10:39.036Z</time></trkpt><trkpt lat="44.0540046" lon="11.3388375"><ele>558.0</ele><time>2026-05-02T09:10:40.969Z</time></trkpt><trkpt lat="44.0540844" lon="11.3388576"><ele>558.0</ele><time>2026-05-02T09:10:43.964Z</time></trkpt><trkpt lat="44.0541562" lon="11.3388865"><ele>558.0</ele><time>2026-05-02T09:10:47.024Z</time></trkpt><trkpt lat="44.0542272" lon="11.3389255"><ele>558.0</ele><time>2026-05-02T09:10:49.029Z</time></trkpt><trkpt lat="44.0542842" lon="11.3389987"><ele>559.5</ele><time>2026-05-02T09:10:50.976Z</time></trkpt><trkpt lat="44.0543235" lon="11.3390962"><ele>561.0</ele><time>2026-05-02T09:10:52.959Z</time></trkpt><trkpt lat="44.0543655" lon="11.3391947"><ele>562.5</ele><time>2026-05-02T09:10:54.987Z</time></trkpt><trkpt lat="44.0544037" lon="11.3392944"><ele>564.0</ele><time>2026-05-02T09:10:56.972Z</time></trkpt><trkpt lat="44.0544827" lon="11.3393261"><ele>565.5</ele><time>2026-05-02T09:11:00.965Z</time></trkpt><trkpt lat="44.0545592" lon="11.3392771"><ele>567.0</ele><time>2026-05-02T09:11:03.963Z</time></trkpt><trkpt lat="44.0546317" lon="11.3392404"><ele>567.0</ele><time>2026-05-02T09:11:06.959Z</time></trkpt><trkpt lat="44.0547004" lon="11.3391887"><ele>567.0</ele><time>2026-05-02T09:11:08.962Z</time></trkpt><trkpt lat="44.0547771" lon="11.3391213"><ele>567.0</ele><time>2026-05-02T09:11:10.958Z</time></trkpt><trkpt lat="44.0548607" lon="11.3390425"><ele>567.0</ele><time>2026-05-02T09:11:12.969Z</time></trkpt><trkpt lat="44.0549529" lon="11.3389586"><ele>567.0</ele><time>2026-05-02T09:11:14.956Z</time></trkpt><trkpt lat="44.0550143" lon="11.3389129"><ele>563.7142857142857</ele><time>2026-05-02T09:11:15.965Z</time></trkpt><trkpt lat="44.0550778" lon="11.3388707"><ele>560.4285714285714</ele><time>2026-05-02T09:11:16.953Z</time></trkpt><trkpt lat="44.0551353" lon="11.3388238"><ele>557.1428571428571</ele><time>2026-05-02T09:11:17.967Z</time></trkpt><trkpt lat="44.05521" lon="11.3387649"><ele>553.8571428571429</ele><time>2026-05-02T09:11:19.96Z</time></trkpt><trkpt lat="44.0552713" lon="11.3387265"><ele>550.5714285714286</ele><time>2026-05-02T09:11:21.961Z</time></trkpt><trkpt lat="44.0553345" lon="11.3386561"><ele>547.2857142857142</ele><time>2026-05-02T09:11:23.956Z</time></trkpt><trkpt lat="44.0553594" lon="11.3385675"><ele>544.0</ele><time>2026-05-02T09:11:25.966Z</time></trkpt><trkpt lat="44.0553254" lon="11.3384828"><ele>543.9999999999999</ele><time>2026-05-02T09:11:28.954Z</time></trkpt><trkpt lat="44.0552699" lon="11.3384269"><ele>544.0</ele><time>2026-05-02T09:11:32.957Z</time></trkpt><trkpt lat="44.0553082" lon="11.3385"><ele>544.0</ele><time>2026-05-02T09:11:55.969Z</time></trkpt><trkpt lat="44.055368" lon="11.3384572"><ele>544.0</ele><time>2026-05-02T09:15:55.952Z</time></trkpt><trkpt lat="44.0553013" lon="11.3384427"><ele>544.0</ele><time>2026-05-02T09:16:49.957Z</time></trkpt><trkpt lat="44.0553685" lon="11.3384591"><ele>543.9999999999999</ele><time>2026-05-02T09:18:54.956Z</time></trkpt><trkpt lat="44.0554349" lon="11.3385251"><ele>544.0</ele><time>2026-05-02T09:18:57.954Z</time></trkpt><trkpt lat="44.0553988" lon="11.338639"><ele>544.0</ele><time>2026-05-02T09:19:00.959Z</time></trkpt><trkpt lat="44.0553234" lon="11.3386976"><ele>544.0</ele><time>2026-05-02T09:19:02.965Z</time></trkpt><trkpt lat="44.0552657" lon="11.3387359"><ele>544.0</ele><time>2026-05-02T09:19:03.958Z</time></trkpt><trkpt lat="44.0551798" lon="11.3388315"><ele>544.0</ele><time>2026-05-02T09:19:05.95Z</time></trkpt><trkpt lat="44.0551296" lon="11.3389039"><ele>544.0</ele><time>2026-05-02T09:19:06.956Z</time></trkpt><trkpt lat="44.0550872" lon="11.3389746"><ele>544.0</ele><time>2026-05-02T09:19:07.96Z</time></trkpt><trkpt lat="44.0550066" lon="11.33906"><ele>547.8333333333334</ele><time>2026-05-02T09:19:10.006Z</time></trkpt><trkpt lat="44.0549465" lon="11.3391337"><ele>551.6666666666667</ele><time>2026-05-02T09:19:11.954Z</time></trkpt><trkpt lat="44.0548601" lon="11.3391855"><ele>555.5</ele><time>2026-05-02T09:19:13.961Z</time></trkpt><trkpt lat="44.0547766" lon="11.3392057"><ele>559.3333333333334</ele><time>2026-05-02T09:19:16.017Z</time></trkpt><trkpt lat="44.0547106" lon="11.339227"><ele>563.1666666666666</ele><time>2026-05-02T09:19:17.951Z</time></trkpt><trkpt lat="44.0546362" lon="11.3392629"><ele>567.0</ele><time>2026-05-02T09:19:19.955Z</time></trkpt><trkpt lat="44.0545633" lon="11.3392697"><ele>567.0</ele><time>2026-05-02T09:19:22.053Z</time></trkpt><trkpt lat="44.0544945" lon="11.339223"><ele>567.0</ele><time>2026-05-02T09:19:23.961Z</time></trkpt><trkpt lat="44.0543986" lon="11.3391045"><ele>567.0</ele><time>2026-05-02T09:19:25.954Z</time></trkpt><trkpt lat="44.0543093" lon="11.338997"><ele>567.0</ele><time>2026-05-02T09:19:27.956Z</time></trkpt><trkpt lat="44.0542101" lon="11.3389091"><ele>567.0</ele><time>2026-05-02T09:19:29.95Z</time></trkpt><trkpt lat="44.0541286" lon="11.3388363"><ele>565.2</ele><time>2026-05-02T09:19:31.961Z</time></trkpt><trkpt lat="44.0540408" lon="11.3387913"><ele>563.4000000000001</ele><time>2026-05-02T09:19:34.012Z</time></trkpt><trkpt lat="44.0539286" lon="11.3387222"><ele>561.5999999999999</ele><time>2026-05-02T09:19:36.014Z</time></trkpt><trkpt lat="44.0538561" lon="11.3386981"><ele>559.8</ele><time>2026-05-02T09:19:36.942Z</time></trkpt><trkpt lat="44.0537775" lon="11.3386736"><ele>558.0</ele><time>2026-05-02T09:19:37.932Z</time></trkpt><trkpt lat="44.0536935" lon="11.3386492"><ele>558.0</ele><time>2026-05-02T09:19:38.953Z</time></trkpt><trkpt lat="44.0535885" lon="11.3386203"><ele>558.0</ele><time>2026-05-02T09:19:39.953Z</time></trkpt><trkpt lat="44.0534904" lon="11.3385894"><ele>558.0</ele><time>2026-05-02T09:19:40.964Z</time></trkpt><trkpt lat="44.0533998" lon="11.3385489"><ele>558.0</ele><time>2026-05-02T09:19:41.958Z</time></trkpt><trkpt lat="44.0533218" lon="11.3385189"><ele>558.0</ele><time>2026-05-02T09:19:42.962Z</time></trkpt><trkpt lat="44.053257" lon="11.3384882"><ele>559.0</ele><time>2026-05-02T09:19:43.953Z</time></trkpt><trkpt lat="44.0531415" lon="11.3384656"><ele>560.0</ele><time>2026-05-02T09:19:45.951Z</time></trkpt><trkpt lat="44.0530172" lon="11.3384841"><ele>561.0</ele><time>2026-05-02T09:19:47.959Z</time></trkpt><trkpt lat="44.0529289" lon="11.3385051"><ele>562.0</ele><time>2026-05-02T09:19:49.966Z</time></trkpt><trkpt lat="44.0529005" lon="11.3386254"><ele>563.0</ele><time>2026-05-02T09:19:52.944Z</time></trkpt><trkpt lat="44.0529549" lon="11.3386763"><ele>563.0</ele><time>2026-05-02T09:19:55.021Z</time></trkpt><trkpt lat="44.0530434" lon="11.3386588"><ele>563.0</ele><time>2026-05-02T09:19:57.013Z</time></trkpt><trkpt lat="44.0531283" lon="11.3386783"><ele>563.0</ele><time>2026-05-02T09:19:58.961Z</time></trkpt><trkpt lat="44.0532443" lon="11.3387063"><ele>563.0</ele><time>2026-05-02T09:20:00.962Z</time></trkpt><trkpt lat="44.0533414" lon="11.338759"><ele>563.0</ele><time>2026-05-02T09:20:02.963Z</time></trkpt><trkpt lat="44.0534012" lon="11.3388608"><ele>565.6</ele><time>2026-05-02T09:20:04.958Z</time></trkpt><trkpt lat="44.0534199" lon="11.3389856"><ele>568.1999999999999</ele><time>2026-05-02T09:20:06.959Z</time></trkpt><trkpt lat="44.0533937" lon="11.339113"><ele>570.8</ele><time>2026-05-02T09:20:08.957Z</time></trkpt><trkpt lat="44.0533412" lon="11.3392508"><ele>573.4</ele><time>2026-05-02T09:20:10.979Z</time></trkpt><trkpt lat="44.0532957" lon="11.3393827"><ele>576.0</ele><time>2026-05-02T09:20:12.967Z</time></trkpt><trkpt lat="44.0532609" lon="11.3395078"><ele>576.8</ele><time>2026-05-02T09:20:14.965Z</time></trkpt><trkpt lat="44.0532174" lon="11.3395939"><ele>577.6</ele><time>2026-05-02T09:20:16.964Z</time></trkpt><trkpt lat="44.053131" lon="11.3395885"><ele>578.4</ele><time>2026-05-02T09:20:19.959Z</time></trkpt><trkpt lat="44.0530486" lon="11.3394994"><ele>579.2</ele><time>2026-05-02T09:20:21.948Z</time></trkpt><trkpt lat="44.0529676" lon="11.3394278"><ele>580.0</ele><time>2026-05-02T09:20:23.955Z</time></trkpt><trkpt lat="44.0528601" lon="11.3394222"><ele>580.0</ele><time>2026-05-02T09:20:25.957Z</time></trkpt><trkpt lat="44.0527417" lon="11.3394497"><ele>580.0</ele><time>2026-05-02T09:20:27.955Z</time></trkpt><trkpt lat="44.052634" lon="11.3394176"><ele>580.0</ele><time>2026-05-02T09:20:29.961Z</time></trkpt><trkpt lat="44.0525897" lon="11.3393514"><ele>580.0</ele><time>2026-05-02T09:20:30.953Z</time></trkpt><trkpt lat="44.0525389" lon="11.3392917"><ele>580.0</ele><time>2026-05-02T09:20:31.966Z</time></trkpt><trkpt lat="44.0524763" lon="11.3392396"><ele>580.0</ele><time>2026-05-02T09:20:32.945Z</time></trkpt><trkpt lat="44.0524054" lon="11.3391948"><ele>580.5</ele><time>2026-05-02T09:20:34.038Z</time></trkpt><trkpt lat="44.0523302" lon="11.3391557"><ele>581.0</ele><time>2026-05-02T09:20:35.019Z</time></trkpt><trkpt lat="44.0522595" lon="11.3391177"><ele>581.5</ele><time>2026-05-02T09:20:35.94Z</time></trkpt><trkpt lat="44.0521939" lon="11.3390839"><ele>582.0</ele><time>2026-05-02T09:20:36.961Z</time></trkpt><trkpt lat="44.0521227" lon="11.3390596"><ele>582.5</ele><time>2026-05-02T09:20:37.967Z</time></trkpt><trkpt lat="44.0520389" lon="11.3390475"><ele>583.0</ele><time>2026-05-02T09:20:38.953Z</time></trkpt><trkpt lat="44.0519425" lon="11.3390584"><ele>583.0</ele><time>2026-05-02T09:20:39.956Z</time></trkpt><trkpt lat="44.0518578" lon="11.3390848"><ele>583.0</ele><time>2026-05-02T09:20:40.951Z</time></trkpt><trkpt lat="44.0517709" lon="11.3391038"><ele>583.0</ele><time>2026-05-02T09:20:41.978Z</time></trkpt><trkpt lat="44.0516841" lon="11.3391327"><ele>583.0</ele><time>2026-05-02T09:20:42.959Z</time></trkpt><trkpt lat="44.0516062" lon="11.3391448"><ele>583.0</ele><time>2026-05-02T09:20:43.958Z</time></trkpt><trkpt lat="44.0515314" lon="11.3391508"><ele>583.0</ele><time>2026-05-02T09:20:44.959Z</time></trkpt><trkpt lat="44.0514442" lon="11.3391399"><ele>581.0</ele><time>2026-05-02T09:20:45.941Z</time></trkpt><trkpt lat="44.051353" lon="11.3391281"><ele>579.0</ele><time>2026-05-02T09:20:46.947Z</time></trkpt><trkpt lat="44.0512639" lon="11.3391336"><ele>577.0</ele><time>2026-05-02T09:20:47.951Z</time></trkpt><trkpt lat="44.0511716" lon="11.339145"><ele>575.0</ele><time>2026-05-02T09:20:48.96Z</time></trkpt><trkpt lat="44.0510958" lon="11.3391736"><ele>573.0</ele><time>2026-05-02T09:20:49.961Z</time></trkpt><trkpt lat="44.0510376" lon="11.3392089"><ele>571.0</ele><time>2026-05-02T09:20:50.941Z</time></trkpt><trkpt lat="44.0509635" lon="11.3393356"><ele>571.0</ele><time>2026-05-02T09:20:52.94Z</time></trkpt><trkpt lat="44.0509239" lon="11.3394075"><ele>571.0</ele><time>2026-05-02T09:20:53.931Z</time></trkpt><trkpt lat="44.0508747" lon="11.3394925"><ele>571.0</ele><time>2026-05-02T09:20:54.95Z</time></trkpt><trkpt lat="44.0508078" lon="11.3395677"><ele>571.0</ele><time>2026-05-02T09:20:55.951Z</time></trkpt><trkpt lat="44.0507288" lon="11.3396252"><ele>571.0</ele><time>2026-05-02T09:20:56.939Z</time></trkpt><trkpt lat="44.0506503" lon="11.339665"><ele>571.0</ele><time>2026-05-02T09:20:57.934Z</time></trkpt><trkpt lat="44.050552" lon="11.3396632"><ele>573.2</ele><time>2026-05-02T09:20:58.939Z</time></trkpt><trkpt lat="44.0504486" lon="11.3396709"><ele>575.4000000000001</ele><time>2026-05-02T09:20:59.953Z</time></trkpt><trkpt lat="44.0503509" lon="11.3397061"><ele>577.6</ele><time>2026-05-02T09:21:00.96Z</time></trkpt><trkpt lat="44.0502533" lon="11.3397694"><ele>579.8000000000001</ele><time>2026-05-02T09:21:01.962Z</time></trkpt><trkpt lat="44.0501613" lon="11.3398355"><ele>582.0</ele><time>2026-05-02T09:21:02.947Z</time></trkpt><trkpt lat="44.0500719" lon="11.3398985"><ele>582.0</ele><time>2026-05-02T09:21:03.956Z</time></trkpt><trkpt lat="44.0499948" lon="11.3399361"><ele>582.0</ele><time>2026-05-02T09:21:04.959Z</time></trkpt><trkpt lat="44.0499289" lon="11.3399533"><ele>582.0</ele><time>2026-05-02T09:21:05.961Z</time></trkpt><trkpt lat="44.0498555" lon="11.3399656"><ele>582.0</ele><time>2026-05-02T09:21:06.954Z</time></trkpt><trkpt lat="44.0497723" lon="11.3399617"><ele>582.0</ele><time>2026-05-02T09:21:07.958Z</time></trkpt><trkpt lat="44.0496811" lon="11.3399627"><ele>582.0</ele><time>2026-05-02T09:21:08.958Z</time></trkpt><trkpt lat="44.0495832" lon="11.3399655"><ele>582.2</ele><time>2026-05-02T09:21:09.96Z</time></trkpt><trkpt lat="44.0494733" lon="11.3399666"><ele>582.4000000000001</ele><time>2026-05-02T09:21:10.955Z</time></trkpt><trkpt lat="44.0493646" lon="11.3399486"><ele>582.5999999999999</ele><time>2026-05-02T09:21:11.951Z</time></trkpt><trkpt lat="44.0492603" lon="11.3399359"><ele>582.8</ele><time>2026-05-02T09:21:12.947Z</time></trkpt><trkpt lat="44.0491648" lon="11.3399261"><ele>583.0</ele><time>2026-05-02T09:21:13.947Z</time></trkpt><trkpt lat="44.0490703" lon="11.3399335"><ele>579.6</ele><time>2026-05-02T09:21:14.966Z</time></trkpt><trkpt lat="44.0489763" lon="11.3399638"><ele>576.1999999999999</ele><time>2026-05-02T09:21:15.964Z</time></trkpt><trkpt lat="44.0488813" lon="11.3399819"><ele>572.8</ele><time>2026-05-02T09:21:16.952Z</time></trkpt><trkpt lat="44.0487859" lon="11.3399988"><ele>569.4</ele><time>2026-05-02T09:21:17.946Z</time></trkpt><trkpt lat="44.0486984" lon="11.3400268"><ele>566.0</ele><time>2026-05-02T09:21:18.959Z</time></trkpt><trkpt lat="44.0486244" lon="11.3400568"><ele>566.0</ele><time>2026-05-02T09:21:19.954Z</time></trkpt><trkpt lat="44.048561" lon="11.3401278"><ele>566.0</ele><time>2026-05-02T09:21:20.967Z</time></trkpt><trkpt lat="44.0485114" lon="11.3401988"><ele>566.0</ele><time>2026-05-02T09:21:21.956Z</time></trkpt><trkpt lat="44.0484782" lon="11.340285"><ele>566.0</ele><time>2026-05-02T09:21:22.953Z</time></trkpt><trkpt lat="44.0484412" lon="11.3403803"><ele>566.0</ele><time>2026-05-02T09:21:23.953Z</time></trkpt><trkpt lat="44.0483939" lon="11.3404857"><ele>566.0</ele><time>2026-05-02T09:21:24.954Z</time></trkpt><trkpt lat="44.0483559" lon="11.3405945"><ele>565.0</ele><time>2026-05-02T09:21:26.013Z</time></trkpt><trkpt lat="44.048319" lon="11.3406872"><ele>564.0</ele><time>2026-05-02T09:21:26.955Z</time></trkpt><trkpt lat="44.0482728" lon="11.3407594"><ele>563.0</ele><time>2026-05-02T09:21:27.952Z</time></trkpt><trkpt lat="44.0481732" lon="11.3408421"><ele>562.0</ele><time>2026-05-02T09:21:29.959Z</time></trkpt><trkpt lat="44.0481012" lon="11.3408758"><ele>561.0</ele><time>2026-05-02T09:21:30.958Z</time></trkpt><trkpt lat="44.0480147" lon="11.3409216"><ele>560.0</ele><time>2026-05-02T09:21:31.961Z</time></trkpt><trkpt lat="44.0479252" lon="11.3409777"><ele>560.0</ele><time>2026-05-02T09:21:32.957Z</time></trkpt><trkpt lat="44.047825" lon="11.3410374"><ele>560.0</ele><time>2026-05-02T09:21:33.962Z</time></trkpt><trkpt lat="44.0477203" lon="11.3410904"><ele>560.0</ele><time>2026-05-02T09:21:34.994Z</time></trkpt><trkpt lat="44.0476237" lon="11.3411392"><ele>560.0</ele><time>2026-05-02T09:21:35.956Z</time></trkpt><trkpt lat="44.0475473" lon="11.341198"><ele>560.0</ele><time>2026-05-02T09:21:36.959Z</time></trkpt><trkpt lat="44.047493" lon="11.3412747"><ele>556.2</ele><time>2026-05-02T09:21:37.96Z</time></trkpt><trkpt lat="44.0474552" lon="11.3413804"><ele>552.4</ele><time>2026-05-02T09:21:38.971Z</time></trkpt><trkpt lat="44.0474405" lon="11.3414951"><ele>548.6</ele><time>2026-05-02T09:21:39.958Z</time></trkpt><trkpt lat="44.0474188" lon="11.3416154"><ele>544.8</ele><time>2026-05-02T09:21:40.957Z</time></trkpt><trkpt lat="44.0474021" lon="11.3417504"><ele>541.0</ele><time>2026-05-02T09:21:41.955Z</time></trkpt><trkpt lat="44.0473972" lon="11.3418846"><ele>541.0</ele><time>2026-05-02T09:21:42.979Z</time></trkpt><trkpt lat="44.047392" lon="11.3420224"><ele>541.0</ele><time>2026-05-02T09:21:43.958Z</time></trkpt><trkpt lat="44.0473921" lon="11.3421536"><ele>541.0</ele><time>2026-05-02T09:21:44.963Z</time></trkpt><trkpt lat="44.0473941" lon="11.3422858"><ele>541.0</ele><time>2026-05-02T09:21:45.957Z</time></trkpt><trkpt lat="44.0473932" lon="11.3424074"><ele>541.0</ele><time>2026-05-02T09:21:46.962Z</time></trkpt><trkpt lat="44.0474542" lon="11.342549"><ele>545.5714285714287</ele><time>2026-05-02T09:21:48.954Z</time></trkpt><trkpt lat="44.0474954" lon="11.3426251"><ele>550.1428571428571</ele><time>2026-05-02T09:21:49.948Z</time></trkpt><trkpt lat="44.0475392" lon="11.3426923"><ele>554.7142857142858</ele><time>2026-05-02T09:21:50.962Z</time></trkpt><trkpt lat="44.0475535" lon="11.3427795"><ele>559.2857142857143</ele><time>2026-05-02T09:21:51.966Z</time></trkpt><trkpt lat="44.0475284" lon="11.3428631"><ele>563.8571428571429</ele><time>2026-05-02T09:21:52.964Z</time></trkpt><trkpt lat="44.0475056" lon="11.3429493"><ele>568.4285714285714</ele><time>2026-05-02T09:21:53.954Z</time></trkpt><trkpt lat="44.0474787" lon="11.3430327"><ele>573.0</ele><time>2026-05-02T09:21:54.955Z</time></trkpt><trkpt lat="44.0474369" lon="11.3431946"><ele>573.6</ele><time>2026-05-02T09:21:56.946Z</time></trkpt><trkpt lat="44.047372" lon="11.3433175"><ele>574.1999999999999</ele><time>2026-05-02T09:21:58.973Z</time></trkpt><trkpt lat="44.0473298" lon="11.3433866"><ele>574.8</ele><time>2026-05-02T09:22:00.969Z</time></trkpt><trkpt lat="44.0472359" lon="11.3433646"><ele>575.4</ele><time>2026-05-02T09:22:03.958Z</time></trkpt><trkpt lat="44.0471111" lon="11.3432658"><ele>576.0</ele><time>2026-05-02T09:22:05.957Z</time></trkpt><trkpt lat="44.0470365" lon="11.3432203"><ele>576.0</ele><time>2026-05-02T09:22:06.955Z</time></trkpt><trkpt lat="44.0469654" lon="11.3431913"><ele>576.0</ele><time>2026-05-02T09:22:07.961Z</time></trkpt><trkpt lat="44.0468927" lon="11.3431511"><ele>576.0</ele><time>2026-05-02T09:22:08.961Z</time></trkpt><trkpt lat="44.0468173" lon="11.3431028"><ele>576.0</ele><time>2026-05-02T09:22:09.963Z</time></trkpt><trkpt lat="44.0467451" lon="11.3430515"><ele>576.0</ele><time>2026-05-02T09:22:10.966Z</time></trkpt><trkpt lat="44.0466741" lon="11.3429997"><ele>576.0</ele><time>2026-05-02T09:22:11.955Z</time></trkpt><trkpt lat="44.0465998" lon="11.3429472"><ele>573.8333333333334</ele><time>2026-05-02T09:22:12.941Z</time></trkpt><trkpt lat="44.0465358" lon="11.342913"><ele>571.6666666666666</ele><time>2026-05-02T09:22:13.954Z</time></trkpt><trkpt lat="44.0464719" lon="11.3428837"><ele>569.5</ele><time>2026-05-02T09:22:14.963Z</time></trkpt><trkpt lat="44.0463739" lon="11.3428748"><ele>567.3333333333333</ele><time>2026-05-02T09:22:16.969Z</time></trkpt><trkpt lat="44.0463244" lon="11.3429784"><ele>565.1666666666666</ele><time>2026-05-02T09:22:18.953Z</time></trkpt><trkpt lat="44.046308" lon="11.3431115"><ele>563.0</ele><time>2026-05-02T09:22:19.958Z</time></trkpt><trkpt lat="44.046295" lon="11.3432669"><ele>563.0</ele><time>2026-05-02T09:22:20.959Z</time></trkpt><trkpt lat="44.0462832" lon="11.3434082"><ele>563.0</ele><time>2026-05-02T09:22:21.963Z</time></trkpt><trkpt lat="44.0462527" lon="11.3435584"><ele>563.0</ele><time>2026-05-02T09:22:22.967Z</time></trkpt><trkpt lat="44.0462211" lon="11.3436876"><ele>563.0</ele><time>2026-05-02T09:22:23.952Z</time></trkpt><trkpt lat="44.0461713" lon="11.3438181"><ele>563.0</ele><time>2026-05-02T09:22:24.952Z</time></trkpt><trkpt lat="44.0461165" lon="11.343942"><ele>566.6</ele><time>2026-05-02T09:22:25.957Z</time></trkpt><trkpt lat="44.0460685" lon="11.3440634"><ele>570.1999999999999</ele><time>2026-05-02T09:22:26.956Z</time></trkpt><trkpt lat="44.0460035" lon="11.3441744"><ele>573.8</ele><time>2026-05-02T09:22:27.962Z</time></trkpt><trkpt lat="44.0459352" lon="11.3442941"><ele>577.4</ele><time>2026-05-02T09:22:28.961Z</time></trkpt><trkpt lat="44.0458701" lon="11.3444116"><ele>581.0</ele><time>2026-05-02T09:22:29.961Z</time></trkpt><trkpt lat="44.0458014" lon="11.3445273"><ele>580.2</ele><time>2026-05-02T09:22:31.018Z</time></trkpt><trkpt lat="44.045726" lon="11.3446365"><ele>579.4000000000001</ele><time>2026-05-02T09:22:31.947Z</time></trkpt><trkpt lat="44.0456494" lon="11.3447438"><ele>578.6</ele><time>2026-05-02T09:22:32.968Z</time></trkpt><trkpt lat="44.0455801" lon="11.3448493"><ele>577.8000000000001</ele><time>2026-05-02T09:22:33.961Z</time></trkpt><trkpt lat="44.0455156" lon="11.3449613"><ele>577.0</ele><time>2026-05-02T09:22:34.958Z</time></trkpt><trkpt lat="44.0454714" lon="11.3450668"><ele>577.0</ele><time>2026-05-02T09:22:35.962Z</time></trkpt><trkpt lat="44.0454594" lon="11.3451551"><ele>577.0</ele><time>2026-05-02T09:22:36.959Z</time></trkpt><trkpt lat="44.0454246" lon="11.3453192"><ele>577.0</ele><time>2026-05-02T09:22:39.028Z</time></trkpt><trkpt lat="44.0453854" lon="11.3454114"><ele>577.0</ele><time>2026-05-02T09:22:39.952Z</time></trkpt><trkpt lat="44.0453257" lon="11.3455088"><ele>577.0</ele><time>2026-05-02T09:22:41.04Z</time></trkpt><trkpt lat="44.0452585" lon="11.345596"><ele>577.0</ele><time>2026-05-02T09:22:41.997Z</time></trkpt><trkpt lat="44.0451781" lon="11.3456731"><ele>577.3333333333334</ele><time>2026-05-02T09:22:42.988Z</time></trkpt><trkpt lat="44.0450931" lon="11.3457436"><ele>577.6666666666667</ele><time>2026-05-02T09:22:43.973Z</time></trkpt><trkpt lat="44.0450123" lon="11.3458125"><ele>578.0</ele><time>2026-05-02T09:22:44.982Z</time></trkpt><trkpt lat="44.0449406" lon="11.345887"><ele>578.3333333333334</ele><time>2026-05-02T09:22:45.956Z</time></trkpt><trkpt lat="44.0448807" lon="11.3459668"><ele>578.6666666666666</ele><time>2026-05-02T09:22:47.018Z</time></trkpt><trkpt lat="44.0448085" lon="11.3460246"><ele>579.0</ele><time>2026-05-02T09:22:47.957Z</time></trkpt><trkpt lat="44.0447268" lon="11.3460794"><ele>579.0</ele><time>2026-05-02T09:22:48.954Z</time></trkpt><trkpt lat="44.044637" lon="11.3461031"><ele>579.0</ele><time>2026-05-02T09:22:49.967Z</time></trkpt><trkpt lat="44.0445522" lon="11.3461054"><ele>579.0</ele><time>2026-05-02T09:22:51.029Z</time></trkpt><trkpt lat="44.0444664" lon="11.3461117"><ele>579.0</ele><time>2026-05-02T09:22:52.032Z</time></trkpt><trkpt lat="44.0443985" lon="11.3461318"><ele>579.0</ele><time>2026-05-02T09:22:52.971Z</time></trkpt><trkpt lat="44.0443356" lon="11.3461682"><ele>579.0</ele><time>2026-05-02T09:22:53.97Z</time></trkpt><trkpt lat="44.044276" lon="11.3462118"><ele>579.0</ele><time>2026-05-02T09:22:54.995Z</time></trkpt><trkpt lat="44.0442151" lon="11.3462688"><ele>579.0</ele><time>2026-05-02T09:22:55.97Z</time></trkpt><trkpt lat="44.044163" lon="11.3463401"><ele>579.0</ele><time>2026-05-02T09:22:56.963Z</time></trkpt><trkpt lat="44.0441278" lon="11.3464779"><ele>579.0</ele><time>2026-05-02T09:22:59.024Z</time></trkpt><trkpt lat="44.0441521" lon="11.3465611"><ele>579.0</ele><time>2026-05-02T09:23:00.035Z</time></trkpt><trkpt lat="44.0442061" lon="11.3466449"><ele>579.0</ele><time>2026-05-02T09:23:01.019Z</time></trkpt><trkpt lat="44.0442742" lon="11.346732"><ele>580.5</ele><time>2026-05-02T09:23:02.035Z</time></trkpt><trkpt lat="44.0443403" lon="11.346833"><ele>582.0</ele><time>2026-05-02T09:23:02.962Z</time></trkpt><trkpt lat="44.0443938" lon="11.3469137"><ele>583.5</ele><time>2026-05-02T09:23:03.958Z</time></trkpt><trkpt lat="44.0444534" lon="11.3469815"><ele>585.0</ele><time>2026-05-02T09:23:04.946Z</time></trkpt><trkpt lat="44.0444921" lon="11.347068"><ele>586.5</ele><time>2026-05-02T09:23:06.976Z</time></trkpt><trkpt lat="44.0444256" lon="11.3471561"><ele>588.0</ele><time>2026-05-02T09:23:08.962Z</time></trkpt><trkpt lat="44.0443092" lon="11.3472241"><ele>589.4</ele><time>2026-05-02T09:23:10.942Z</time></trkpt><trkpt lat="44.0442388" lon="11.3472701"><ele>590.8</ele><time>2026-05-02T09:23:11.971Z</time></trkpt><trkpt lat="44.0441548" lon="11.3473369"><ele>592.2</ele><time>2026-05-02T09:23:12.96Z</time></trkpt><trkpt lat="44.044084" lon="11.3474045"><ele>593.6</ele><time>2026-05-02T09:23:13.968Z</time></trkpt><trkpt lat="44.0440014" lon="11.3475083"><ele>595.0</ele><time>2026-05-02T09:23:14.957Z</time></trkpt><trkpt lat="44.0439413" lon="11.347608"><ele>593.5</ele><time>2026-05-02T09:23:15.968Z</time></trkpt><trkpt lat="44.0438769" lon="11.3477214"><ele>592.0</ele><time>2026-05-02T09:23:16.965Z</time></trkpt><trkpt lat="44.0438043" lon="11.3478544"><ele>590.5</ele><time>2026-05-02T09:23:17.959Z</time></trkpt><trkpt lat="44.0437302" lon="11.347987"><ele>589.0</ele><time>2026-05-02T09:23:18.959Z</time></trkpt><trkpt lat="44.0436529" lon="11.3480981"><ele>589.0</ele><time>2026-05-02T09:23:19.965Z</time></trkpt><trkpt lat="44.0435676" lon="11.348183"><ele>589.0</ele><time>2026-05-02T09:23:20.942Z</time></trkpt><trkpt lat="44.0434738" lon="11.3482695"><ele>589.0</ele><time>2026-05-02T09:23:21.946Z</time></trkpt><trkpt lat="44.0433726" lon="11.348344"><ele>589.0</ele><time>2026-05-02T09:23:22.959Z</time></trkpt><trkpt lat="44.0432943" lon="11.3484065"><ele>589.0</ele><time>2026-05-02T09:23:23.947Z</time></trkpt><trkpt lat="44.0432178" lon="11.3484589"><ele>585.4</ele><time>2026-05-02T09:23:24.962Z</time></trkpt><trkpt lat="44.0431545" lon="11.3485015"><ele>581.8</ele><time>2026-05-02T09:23:25.956Z</time></trkpt><trkpt lat="44.0430582" lon="11.3485817"><ele>578.2</ele><time>2026-05-02T09:23:27.973Z</time></trkpt><trkpt lat="44.0429845" lon="11.3486709"><ele>574.6</ele><time>2026-05-02T09:23:29.954Z</time></trkpt><trkpt lat="44.0428651" lon="11.3487642"><ele>571.0</ele><time>2026-05-02T09:23:31.965Z</time></trkpt><trkpt lat="44.0427994" lon="11.348835"><ele>572.2</ele><time>2026-05-02T09:23:32.971Z</time></trkpt><trkpt lat="44.0427285" lon="11.3489251"><ele>573.4000000000001</ele><time>2026-05-02T09:23:33.974Z</time></trkpt><trkpt lat="44.0426505" lon="11.3490228"><ele>574.6</ele><time>2026-05-02T09:23:34.946Z</time></trkpt><trkpt lat="44.0425577" lon="11.349117"><ele>575.8000000000001</ele><time>2026-05-02T09:23:35.953Z</time></trkpt><trkpt lat="44.0424704" lon="11.3491966"><ele>577.0</ele><time>2026-05-02T09:23:36.964Z</time></trkpt><trkpt lat="44.0423922" lon="11.34928"><ele>574.6</ele><time>2026-05-02T09:23:37.965Z</time></trkpt><trkpt lat="44.0423192" lon="11.3493598"><ele>572.2</ele><time>2026-05-02T09:23:38.955Z</time></trkpt><trkpt lat="44.042257" lon="11.3494379"><ele>569.8</ele><time>2026-05-02T09:23:39.961Z</time></trkpt><trkpt lat="44.0421976" lon="11.3495157"><ele>567.4</ele><time>2026-05-02T09:23:40.989Z</time></trkpt><trkpt lat="44.0421395" lon="11.3495928"><ele>565.0</ele><time>2026-05-02T09:23:42.076Z</time></trkpt><trkpt lat="44.0420143" lon="11.3497194"><ele>565.0</ele><time>2026-05-02T09:23:43.96Z</time></trkpt><trkpt lat="44.0419405" lon="11.349783"><ele>565.0</ele><time>2026-05-02T09:23:44.999Z</time></trkpt><trkpt lat="44.0418545" lon="11.3498401"><ele>565.0</ele><time>2026-05-02T09:23:45.971Z</time></trkpt><trkpt lat="44.0417664" lon="11.3499181"><ele>565.0</ele><time>2026-05-02T09:23:46.983Z</time></trkpt><trkpt lat="44.0416725" lon="11.3500086"><ele>565.0</ele><time>2026-05-02T09:23:47.954Z</time></trkpt><trkpt lat="44.0415834" lon="11.3501002"><ele>563.6</ele><time>2026-05-02T09:23:49.037Z</time></trkpt><trkpt lat="44.0414977" lon="11.3501938"><ele>562.2</ele><time>2026-05-02T09:23:50.029Z</time></trkpt><trkpt lat="44.041416" lon="11.3502786"><ele>560.8</ele><time>2026-05-02T09:23:50.98Z</time></trkpt><trkpt lat="44.0413341" lon="11.3503654"><ele>559.4</ele><time>2026-05-02T09:23:52.035Z</time></trkpt><trkpt lat="44.0412532" lon="11.3504414"><ele>558.0</ele><time>2026-05-02T09:23:53.016Z</time></trkpt><trkpt lat="44.0411725" lon="11.3505079"><ele>558.0</ele><time>2026-05-02T09:23:53.963Z</time></trkpt><trkpt lat="44.0410981" lon="11.3505782"><ele>558.0</ele><time>2026-05-02T09:23:54.966Z</time></trkpt><trkpt lat="44.0410307" lon="11.3506346"><ele>558.0</ele><time>2026-05-02T09:23:55.964Z</time></trkpt><trkpt lat="44.0409706" lon="11.3506773"><ele>558.0</ele><time>2026-05-02T09:23:56.967Z</time></trkpt><trkpt lat="44.0408667" lon="11.3506678"><ele>558.0</ele><time>2026-05-02T09:23:58.962Z</time></trkpt><trkpt lat="44.0408014" lon="11.3506322"><ele>558.0</ele><time>2026-05-02T09:24:00.027Z</time></trkpt><trkpt lat="44.040719" lon="11.3506093"><ele>558.0</ele><time>2026-05-02T09:24:01.016Z</time></trkpt><trkpt lat="44.0406334" lon="11.3505868"><ele>558.0</ele><time>2026-05-02T09:24:01.955Z</time></trkpt><trkpt lat="44.0405416" lon="11.3505587"><ele>558.0</ele><time>2026-05-02T09:24:02.964Z</time></trkpt><trkpt lat="44.0404439" lon="11.3505104"><ele>558.0</ele><time>2026-05-02T09:24:03.964Z</time></trkpt><trkpt lat="44.0403508" lon="11.3504526"><ele>558.0</ele><time>2026-05-02T09:24:04.959Z</time></trkpt><trkpt lat="44.0402641" lon="11.350402"><ele>555.1666666666666</ele><time>2026-05-02T09:24:05.966Z</time></trkpt><trkpt lat="44.0401805" lon="11.3503627"><ele>552.3333333333334</ele><time>2026-05-02T09:24:06.963Z</time></trkpt><trkpt lat="44.0400918" lon="11.3503446"><ele>549.5</ele><time>2026-05-02T09:24:07.958Z</time></trkpt><trkpt lat="44.0400033" lon="11.3503236"><ele>546.6666666666667</ele><time>2026-05-02T09:24:08.966Z</time></trkpt><trkpt lat="44.0399156" lon="11.3503016"><ele>543.8333333333334</ele><time>2026-05-02T09:24:09.961Z</time></trkpt><trkpt lat="44.0398293" lon="11.35027"><ele>541.0</ele><time>2026-05-02T09:24:10.968Z</time></trkpt><trkpt lat="44.0397361" lon="11.3502492"><ele>539.1666666666667</ele><time>2026-05-02T09:24:11.958Z</time></trkpt><trkpt lat="44.0396551" lon="11.3502134"><ele>537.3333333333334</ele><time>2026-05-02T09:24:12.952Z</time></trkpt><trkpt lat="44.0395655" lon="11.3501696"><ele>535.5</ele><time>2026-05-02T09:24:14.014Z</time></trkpt><trkpt lat="44.0394789" lon="11.3501442"><ele>533.6666666666666</ele><time>2026-05-02T09:24:14.947Z</time></trkpt><trkpt lat="44.0393945" lon="11.3501366"><ele>531.8333333333333</ele><time>2026-05-02T09:24:16.013Z</time></trkpt><trkpt lat="44.0393091" lon="11.3501351"><ele>530.0</ele><time>2026-05-02T09:24:17.033Z</time></trkpt><trkpt lat="44.0392166" lon="11.3501341"><ele>527.8</ele><time>2026-05-02T09:24:17.964Z</time></trkpt><trkpt lat="44.0391253" lon="11.3501311"><ele>525.6</ele><time>2026-05-02T09:24:19.031Z</time></trkpt><trkpt lat="44.0390432" lon="11.3501194"><ele>523.4</ele><time>2026-05-02T09:24:20.037Z</time></trkpt><trkpt lat="44.0389727" lon="11.350106"><ele>521.2</ele><time>2026-05-02T09:24:20.966Z</time></trkpt><trkpt lat="44.0388507" lon="11.3501086"><ele>519.0</ele><time>2026-05-02T09:24:22.963Z</time></trkpt><trkpt lat="44.0387299" lon="11.3501514"><ele>519.0</ele><time>2026-05-02T09:24:24.962Z</time></trkpt><trkpt lat="44.0386577" lon="11.350174"><ele>519.0</ele><time>2026-05-02T09:24:25.944Z</time></trkpt><trkpt lat="44.0385771" lon="11.3502194"><ele>519.0</ele><time>2026-05-02T09:24:26.971Z</time></trkpt><trkpt lat="44.0385025" lon="11.3502683"><ele>519.0</ele><time>2026-05-02T09:24:27.946Z</time></trkpt><trkpt lat="44.0384305" lon="11.3503165"><ele>519.0</ele><time>2026-05-02T09:24:29.029Z</time></trkpt><trkpt lat="44.0383673" lon="11.3503632"><ele>519.0</ele><time>2026-05-02T09:24:30.028Z</time></trkpt><trkpt lat="44.0383055" lon="11.3504133"><ele>518.3333333333334</ele><time>2026-05-02T09:24:31.031Z</time></trkpt><trkpt lat="44.0382414" lon="11.3504575"><ele>517.6666666666666</ele><time>2026-05-02T09:24:32.038Z</time></trkpt><trkpt lat="44.038183" lon="11.3505002"><ele>517.0</ele><time>2026-05-02T09:24:32.967Z</time></trkpt><trkpt lat="44.0381237" lon="11.3505456"><ele>516.3333333333333</ele><time>2026-05-02T09:24:33.954Z</time></trkpt><trkpt lat="44.0380144" lon="11.3506092"><ele>515.6666666666666</ele><time>2026-05-02T09:24:35.962Z</time></trkpt><trkpt lat="44.0379161" lon="11.3506198"><ele>515.0</ele><time>2026-05-02T09:24:37.966Z</time></trkpt><trkpt lat="44.0378559" lon="11.3505124"><ele>517.2</ele><time>2026-05-02T09:24:39.977Z</time></trkpt><trkpt lat="44.037795" lon="11.3503664"><ele>519.4</ele><time>2026-05-02T09:24:41.956Z</time></trkpt><trkpt lat="44.0377636" lon="11.3501912"><ele>521.6</ele><time>2026-05-02T09:24:43.968Z</time></trkpt><trkpt lat="44.0377384" lon="11.350097"><ele>523.8</ele><time>2026-05-02T09:24:44.964Z</time></trkpt><trkpt lat="44.0377149" lon="11.35"><ele>526.0</ele><time>2026-05-02T09:24:45.964Z</time></trkpt><trkpt lat="44.0376895" lon="11.3499069"><ele>526.0</ele><time>2026-05-02T09:24:46.967Z</time></trkpt><trkpt lat="44.0376607" lon="11.3498097"><ele>526.0</ele><time>2026-05-02T09:24:47.966Z</time></trkpt><trkpt lat="44.0376372" lon="11.3497081"><ele>526.0</ele><time>2026-05-02T09:24:49.03Z</time></trkpt><trkpt lat="44.0376124" lon="11.3496033"><ele>526.0</ele><time>2026-05-02T09:24:50.04Z</time></trkpt><trkpt lat="44.0375874" lon="11.3494882"><ele>526.0</ele><time>2026-05-02T09:24:51.026Z</time></trkpt><trkpt lat="44.0375614" lon="11.349356"><ele>526.0</ele><time>2026-05-02T09:24:51.951Z</time></trkpt><trkpt lat="44.0375248" lon="11.3492246"><ele>524.8</ele><time>2026-05-02T09:24:52.965Z</time></trkpt><trkpt lat="44.0374885" lon="11.3490908"><ele>523.6</ele><time>2026-05-02T09:24:53.957Z</time></trkpt><trkpt lat="44.0374577" lon="11.3489446"><ele>522.4</ele><time>2026-05-02T09:24:54.956Z</time></trkpt><trkpt lat="44.037421" lon="11.3488033"><ele>521.2</ele><time>2026-05-02T09:24:55.957Z</time></trkpt><trkpt lat="44.0373833" lon="11.3486542"><ele>520.0</ele><time>2026-05-02T09:24:56.991Z</time></trkpt><trkpt lat="44.0373401" lon="11.3485001"><ele>519.8</ele><time>2026-05-02T09:24:57.956Z</time></trkpt><trkpt lat="44.0372945" lon="11.348348"><ele>519.6</ele><time>2026-05-02T09:24:58.955Z</time></trkpt><trkpt lat="44.037248" lon="11.3482086"><ele>519.4</ele><time>2026-05-02T09:24:59.961Z</time></trkpt><trkpt lat="44.0372014" lon="11.3480769"><ele>519.2</ele><time>2026-05-02T09:25:00.957Z</time></trkpt><trkpt lat="44.0371557" lon="11.3479461"><ele>519.0</ele><time>2026-05-02T09:25:01.944Z</time></trkpt><trkpt lat="44.0371109" lon="11.3478161"><ele>519.0</ele><time>2026-05-02T09:25:02.957Z</time></trkpt><trkpt lat="44.0370671" lon="11.3476895"><ele>519.0</ele><time>2026-05-02T09:25:03.955Z</time></trkpt><trkpt lat="44.0370184" lon="11.3475875"><ele>519.0</ele><time>2026-05-02T09:25:04.963Z</time></trkpt><trkpt lat="44.0369682" lon="11.3475031"><ele>519.0</ele><time>2026-05-02T09:25:05.96Z</time></trkpt><trkpt lat="44.0369144" lon="11.3474293"><ele>519.0</ele><time>2026-05-02T09:25:06.958Z</time></trkpt><trkpt lat="44.0368511" lon="11.3473716"><ele>519.0</ele><time>2026-05-02T09:25:07.959Z</time></trkpt><trkpt lat="44.0367779" lon="11.3473245"><ele>519.0</ele><time>2026-05-02T09:25:08.956Z</time></trkpt><trkpt lat="44.0366885" lon="11.3472669"><ele>519.0</ele><time>2026-05-02T09:25:09.975Z</time></trkpt><trkpt lat="44.0366" lon="11.3472111"><ele>519.0</ele><time>2026-05-02T09:25:10.958Z</time></trkpt><trkpt lat="44.0364905" lon="11.3471499"><ele>519.0</ele><time>2026-05-02T09:25:11.96Z</time></trkpt><trkpt lat="44.0363889" lon="11.3470721"><ele>519.0</ele><time>2026-05-02T09:25:12.96Z</time></trkpt><trkpt lat="44.0362803" lon="11.3469926"><ele>514.2</ele><time>2026-05-02T09:25:13.966Z</time></trkpt><trkpt lat="44.0361715" lon="11.3469195"><ele>509.4</ele><time>2026-05-02T09:25:15.047Z</time></trkpt><trkpt lat="44.036064" lon="11.3468592"><ele>504.6</ele><time>2026-05-02T09:25:15.994Z</time></trkpt><trkpt lat="44.0359594" lon="11.3468164"><ele>499.8</ele><time>2026-05-02T09:25:16.966Z</time></trkpt><trkpt lat="44.0358654" lon="11.3468033"><ele>495.0</ele><time>2026-05-02T09:25:17.975Z</time></trkpt><trkpt lat="44.0357827" lon="11.3467982"><ele>494.0</ele><time>2026-05-02T09:25:18.972Z</time></trkpt><trkpt lat="44.0357084" lon="11.3468227"><ele>493.0</ele><time>2026-05-02T09:25:20.002Z</time></trkpt><trkpt lat="44.0355814" lon="11.3469209"><ele>492.0</ele><time>2026-05-02T09:25:22.028Z</time></trkpt><trkpt lat="44.0354965" lon="11.3469742"><ele>491.0</ele><time>2026-05-02T09:25:22.969Z</time></trkpt><trkpt lat="44.0353957" lon="11.3470186"><ele>490.0</ele><time>2026-05-02T09:25:23.976Z</time></trkpt><trkpt lat="44.0352807" lon="11.3470535"><ele>490.0</ele><time>2026-05-02T09:25:24.956Z</time></trkpt><trkpt lat="44.0351729" lon="11.3470668"><ele>490.0</ele><time>2026-05-02T09:25:25.965Z</time></trkpt><trkpt lat="44.0350801" lon="11.3470792"><ele>490.0</ele><time>2026-05-02T09:25:26.95Z</time></trkpt><trkpt lat="44.0349878" lon="11.3470737"><ele>490.0</ele><time>2026-05-02T09:25:27.968Z</time></trkpt><trkpt lat="44.0349064" lon="11.3470255"><ele>490.0</ele><time>2026-05-02T09:25:28.969Z</time></trkpt><trkpt lat="44.0348374" lon="11.3469618"><ele>490.33333333333337</ele><time>2026-05-02T09:25:30.036Z</time></trkpt><trkpt lat="44.0347726" lon="11.3468942"><ele>490.6666666666667</ele><time>2026-05-02T09:25:30.959Z</time></trkpt><trkpt lat="44.034705" lon="11.3467978"><ele>491.0</ele><time>2026-05-02T09:25:32.029Z</time></trkpt><trkpt lat="44.0346518" lon="11.3467125"><ele>491.33333333333337</ele><time>2026-05-02T09:25:32.963Z</time></trkpt><trkpt lat="44.0345923" lon="11.3466195"><ele>491.6666666666667</ele><time>2026-05-02T09:25:33.963Z</time></trkpt><trkpt lat="44.0345283" lon="11.3465336"><ele>492.0</ele><time>2026-05-02T09:25:34.971Z</time></trkpt><trkpt lat="44.0344629" lon="11.346467"><ele>492.0</ele><time>2026-05-02T09:25:35.973Z</time></trkpt><trkpt lat="44.0343999" lon="11.3464205"><ele>492.0</ele><time>2026-05-02T09:25:36.973Z</time></trkpt><trkpt lat="44.0343356" lon="11.3464022"><ele>492.0</ele><time>2026-05-02T09:25:37.972Z</time></trkpt><trkpt lat="44.0342636" lon="11.3464101"><ele>492.0</ele><time>2026-05-02T09:25:39.052Z</time></trkpt><trkpt lat="44.0341871" lon="11.3464282"><ele>492.0</ele><time>2026-05-02T09:25:39.976Z</time></trkpt><trkpt lat="44.0341058" lon="11.34644"><ele>492.0</ele><time>2026-05-02T09:25:41.036Z</time></trkpt><trkpt lat="44.034005" lon="11.3464542"><ele>489.20000000000005</ele><time>2026-05-02T09:25:41.972Z</time></trkpt><trkpt lat="44.0339062" lon="11.3464613"><ele>486.40000000000003</ele><time>2026-05-02T09:25:42.964Z</time></trkpt><trkpt lat="44.0338016" lon="11.3464516"><ele>483.59999999999997</ele><time>2026-05-02T09:25:43.96Z</time></trkpt><trkpt lat="44.0336918" lon="11.3464356"><ele>480.79999999999995</ele><time>2026-05-02T09:25:44.963Z</time></trkpt><trkpt lat="44.0335822" lon="11.346422"><ele>478.0</ele><time>2026-05-02T09:25:45.961Z</time></trkpt><trkpt lat="44.0334909" lon="11.3464181"><ele>478.00000000000006</ele><time>2026-05-02T09:25:46.989Z</time></trkpt><trkpt lat="44.0334077" lon="11.3464053"><ele>478.0</ele><time>2026-05-02T09:25:47.977Z</time></trkpt><trkpt lat="44.0333386" lon="11.3463947"><ele>478.00000000000006</ele><time>2026-05-02T09:25:48.973Z</time></trkpt><trkpt lat="44.033274" lon="11.3463725"><ele>478.00000000000006</ele><time>2026-05-02T09:25:50.001Z</time></trkpt><trkpt lat="44.0332017" lon="11.3463552"><ele>478.0</ele><time>2026-05-02T09:25:50.957Z</time></trkpt><trkpt lat="44.0331313" lon="11.3463315"><ele>478.00000000000006</ele><time>2026-05-02T09:25:51.976Z</time></trkpt><trkpt lat="44.0330681" lon="11.3462976"><ele>478.00000000000006</ele><time>2026-05-02T09:25:52.98Z</time></trkpt><trkpt lat="44.0329492" lon="11.3462418"><ele>478.6666666666667</ele><time>2026-05-02T09:25:55.032Z</time></trkpt><trkpt lat="44.0328222" lon="11.3462841"><ele>479.33333333333337</ele><time>2026-05-02T09:25:56.983Z</time></trkpt><trkpt lat="44.032758" lon="11.3463075"><ele>480.0</ele><time>2026-05-02T09:25:57.959Z</time></trkpt><trkpt lat="44.0326813" lon="11.3463381"><ele>480.66666666666663</ele><time>2026-05-02T09:25:58.964Z</time></trkpt><trkpt lat="44.0326106" lon="11.3463677"><ele>481.3333333333333</ele><time>2026-05-02T09:25:59.961Z</time></trkpt><trkpt lat="44.0325428" lon="11.3463921"><ele>482.0</ele><time>2026-05-02T09:26:00.986Z</time></trkpt><trkpt lat="44.0324695" lon="11.3464049"><ele>482.49999999999994</ele><time>2026-05-02T09:26:01.953Z</time></trkpt><trkpt lat="44.0323953" lon="11.3464074"><ele>483.0</ele><time>2026-05-02T09:26:02.958Z</time></trkpt><trkpt lat="44.032322" lon="11.3463883"><ele>483.5</ele><time>2026-05-02T09:26:04.002Z</time></trkpt><trkpt lat="44.0322581" lon="11.3463722"><ele>484.0</ele><time>2026-05-02T09:26:04.958Z</time></trkpt><trkpt lat="44.0321487" lon="11.3464073"><ele>484.49999999999994</ele><time>2026-05-02T09:26:06.967Z</time></trkpt><trkpt lat="44.0321206" lon="11.3465496"><ele>485.0</ele><time>2026-05-02T09:26:08.946Z</time></trkpt><trkpt lat="44.0322157" lon="11.3466633"><ele>481.8333333333333</ele><time>2026-05-02T09:26:10.956Z</time></trkpt><trkpt lat="44.0322956" lon="11.3466715"><ele>478.66666666666663</ele><time>2026-05-02T09:26:11.954Z</time></trkpt><trkpt lat="44.0323819" lon="11.3466915"><ele>475.5</ele><time>2026-05-02T09:26:12.955Z</time></trkpt><trkpt lat="44.0324773" lon="11.3467319"><ele>472.33333333333337</ele><time>2026-05-02T09:26:13.95Z</time></trkpt><trkpt lat="44.0325615" lon="11.3467873"><ele>469.1666666666667</ele><time>2026-05-02T09:26:14.957Z</time></trkpt><trkpt lat="44.032629" lon="11.3468624"><ele>466.0</ele><time>2026-05-02T09:26:15.949Z</time></trkpt><trkpt lat="44.0326732" lon="11.3469535"><ele>466.00000000000006</ele><time>2026-05-02T09:26:16.956Z</time></trkpt><trkpt lat="44.0327183" lon="11.3470386"><ele>466.0</ele><time>2026-05-02T09:26:17.962Z</time></trkpt><trkpt lat="44.0327495" lon="11.3471323"><ele>466.0</ele><time>2026-05-02T09:26:18.959Z</time></trkpt><trkpt lat="44.0327705" lon="11.3472377"><ele>466.0</ele><time>2026-05-02T09:26:19.958Z</time></trkpt><trkpt lat="44.0327703" lon="11.3473458"><ele>466.00000000000006</ele><time>2026-05-02T09:26:20.959Z</time></trkpt><trkpt lat="44.0327641" lon="11.3474582"><ele>466.0</ele><time>2026-05-02T09:26:21.96Z</time></trkpt><trkpt lat="44.0327433" lon="11.3475521"><ele>464.33333333333337</ele><time>2026-05-02T09:26:22.964Z</time></trkpt><trkpt lat="44.0327045" lon="11.3476282"><ele>462.6666666666667</ele><time>2026-05-02T09:26:23.961Z</time></trkpt><trkpt lat="44.0326444" lon="11.3476788"><ele>461.0</ele><time>2026-05-02T09:26:24.95Z</time></trkpt><trkpt lat="44.0325399" lon="11.3477242"><ele>459.33333333333337</ele><time>2026-05-02T09:26:26.954Z</time></trkpt><trkpt lat="44.0324735" lon="11.3477307"><ele>457.6666666666667</ele><time>2026-05-02T09:26:28.954Z</time></trkpt><trkpt lat="44.0324151" lon="11.3476899"><ele>456.0</ele><time>2026-05-02T09:27:14.966Z</time></trkpt><trkpt lat="44.0323441" lon="11.3475907"><ele>457.6666666666667</ele><time>2026-05-02T09:27:17.958Z</time></trkpt><trkpt lat="44.032262" lon="11.3474713"><ele>459.33333333333337</ele><time>2026-05-02T09:27:19.957Z</time></trkpt><trkpt lat="44.0322133" lon="11.3473965"><ele>461.0</ele><time>2026-05-02T09:27:20.948Z</time></trkpt><trkpt lat="44.032155" lon="11.3473148"><ele>462.6666666666667</ele><time>2026-05-02T09:27:21.955Z</time></trkpt><trkpt lat="44.0320911" lon="11.347249"><ele>464.33333333333337</ele><time>2026-05-02T09:27:22.96Z</time></trkpt><trkpt lat="44.0320237" lon="11.3472092"><ele>466.0</ele><time>2026-05-02T09:27:23.945Z</time></trkpt><trkpt lat="44.0319464" lon="11.3471812"><ele>466.0</ele><time>2026-05-02T09:27:24.955Z</time></trkpt><trkpt lat="44.0318713" lon="11.3471732"><ele>466.0</ele><time>2026-05-02T09:27:25.956Z</time></trkpt><trkpt lat="44.0318008" lon="11.3471803"><ele>466.0</ele><time>2026-05-02T09:27:26.952Z</time></trkpt><trkpt lat="44.0317282" lon="11.3471903"><ele>466.0</ele><time>2026-05-02T09:27:27.961Z</time></trkpt><trkpt lat="44.0316587" lon="11.3472003"><ele>466.0</ele><time>2026-05-02T09:27:28.959Z</time></trkpt><trkpt lat="44.0315856" lon="11.3472221"><ele>466.0</ele><time>2026-05-02T09:27:29.96Z</time></trkpt><trkpt lat="44.0315025" lon="11.3472456"><ele>466.0</ele><time>2026-05-02T09:27:30.963Z</time></trkpt><trkpt lat="44.0314135" lon="11.3472765"><ele>462.0</ele><time>2026-05-02T09:27:31.96Z</time></trkpt><trkpt lat="44.0313149" lon="11.3473123"><ele>458.0</ele><time>2026-05-02T09:27:32.962Z</time></trkpt><trkpt lat="44.0312123" lon="11.3473636"><ele>454.0</ele><time>2026-05-02T09:27:33.955Z</time></trkpt><trkpt lat="44.0311048" lon="11.3474291"><ele>450.0</ele><time>2026-05-02T09:27:34.964Z</time></trkpt><trkpt lat="44.0309983" lon="11.3474967"><ele>446.0</ele><time>2026-05-02T09:27:35.965Z</time></trkpt><trkpt lat="44.0308963" lon="11.3475789"><ele>446.6</ele><time>2026-05-02T09:27:36.956Z</time></trkpt><trkpt lat="44.0308011" lon="11.3476646"><ele>447.20000000000005</ele><time>2026-05-02T09:27:37.941Z</time></trkpt><trkpt lat="44.0307059" lon="11.347753"><ele>447.79999999999995</ele><time>2026-05-02T09:27:38.95Z</time></trkpt><trkpt lat="44.0306194" lon="11.3478361"><ele>448.4</ele><time>2026-05-02T09:27:39.953Z</time></trkpt><trkpt lat="44.0305295" lon="11.3479073"><ele>449.0</ele><time>2026-05-02T09:27:40.956Z</time></trkpt><trkpt lat="44.0304362" lon="11.347968"><ele>449.0</ele><time>2026-05-02T09:27:41.957Z</time></trkpt><trkpt lat="44.0303338" lon="11.3480224"><ele>449.0</ele><time>2026-05-02T09:27:42.963Z</time></trkpt><trkpt lat="44.0302283" lon="11.3480766"><ele>449.0</ele><time>2026-05-02T09:27:43.951Z</time></trkpt><trkpt lat="44.0301147" lon="11.3481139"><ele>449.0</ele><time>2026-05-02T09:27:44.96Z</time></trkpt><trkpt lat="44.0300053" lon="11.34813"><ele>449.0</ele><time>2026-05-02T09:27:45.959Z</time></trkpt><trkpt lat="44.0299006" lon="11.3481267"><ele>444.5</ele><time>2026-05-02T09:27:46.965Z</time></trkpt><trkpt lat="44.0297773" lon="11.3481094"><ele>440.0</ele><time>2026-05-02T09:27:47.952Z</time></trkpt><trkpt lat="44.0296571" lon="11.3480799"><ele>435.5</ele><time>2026-05-02T09:27:48.956Z</time></trkpt><trkpt lat="44.0295357" lon="11.348045"><ele>431.0</ele><time>2026-05-02T09:27:49.955Z</time></trkpt><trkpt lat="44.029421" lon="11.3480176"><ele>431.0</ele><time>2026-05-02T09:27:50.95Z</time></trkpt><trkpt lat="44.029306" lon="11.3479783"><ele>431.0</ele><time>2026-05-02T09:27:51.964Z</time></trkpt><trkpt lat="44.0292063" lon="11.3479182"><ele>431.0</ele><time>2026-05-02T09:27:52.958Z</time></trkpt><trkpt lat="44.0291129" lon="11.3478363"><ele>431.0</ele><time>2026-05-02T09:27:53.957Z</time></trkpt><trkpt lat="44.0290281" lon="11.3477337"><ele>426.4</ele><time>2026-05-02T09:27:54.962Z</time></trkpt><trkpt lat="44.0289502" lon="11.3476181"><ele>421.8</ele><time>2026-05-02T09:27:55.963Z</time></trkpt><trkpt lat="44.0288767" lon="11.3475224"><ele>417.2</ele><time>2026-05-02T09:27:56.962Z</time></trkpt><trkpt lat="44.0288086" lon="11.3474408"><ele>412.59999999999997</ele><time>2026-05-02T09:27:57.953Z</time></trkpt><trkpt lat="44.0287512" lon="11.347369"><ele>408.0</ele><time>2026-05-02T09:27:58.962Z</time></trkpt><trkpt lat="44.028706" lon="11.3472836"><ele>408.3333333333333</ele><time>2026-05-02T09:27:59.964Z</time></trkpt><trkpt lat="44.0286471" lon="11.3472097"><ele>408.66666666666663</ele><time>2026-05-02T09:28:00.961Z</time></trkpt><trkpt lat="44.0285912" lon="11.3471308"><ele>409.0</ele><time>2026-05-02T09:28:01.954Z</time></trkpt><trkpt lat="44.0285445" lon="11.3470541"><ele>409.3333333333333</ele><time>2026-05-02T09:28:02.952Z</time></trkpt><trkpt lat="44.0285071" lon="11.3469606"><ele>409.66666666666663</ele><time>2026-05-02T09:28:03.969Z</time></trkpt><trkpt lat="44.0284653" lon="11.3468703"><ele>410.0</ele><time>2026-05-02T09:28:04.966Z</time></trkpt><trkpt lat="44.0284168" lon="11.346779"><ele>410.0</ele><time>2026-05-02T09:28:05.952Z</time></trkpt><trkpt lat="44.0283755" lon="11.3466774"><ele>410.0</ele><time>2026-05-02T09:28:06.96Z</time></trkpt><trkpt lat="44.0283376" lon="11.3465513"><ele>410.0</ele><time>2026-05-02T09:28:07.961Z</time></trkpt><trkpt lat="44.0283063" lon="11.346408"><ele>410.0</ele><time>2026-05-02T09:28:08.952Z</time></trkpt><trkpt lat="44.0282734" lon="11.3462564"><ele>410.0</ele><time>2026-05-02T09:28:09.956Z</time></trkpt><trkpt lat="44.0282515" lon="11.3461043"><ele>403.5</ele><time>2026-05-02T09:28:10.954Z</time></trkpt><trkpt lat="44.0282359" lon="11.3459477"><ele>397.0</ele><time>2026-05-02T09:28:11.961Z</time></trkpt><trkpt lat="44.0282112" lon="11.3457855"><ele>390.5</ele><time>2026-05-02T09:28:12.97Z</time></trkpt><trkpt lat="44.0281971" lon="11.3456239"><ele>384.0</ele><time>2026-05-02T09:28:13.936Z</time></trkpt><trkpt lat="44.0282032" lon="11.3454529"><ele>384.0</ele><time>2026-05-02T09:28:14.949Z</time></trkpt><trkpt lat="44.0282216" lon="11.3452793"><ele>384.0</ele><time>2026-05-02T09:28:15.969Z</time></trkpt><trkpt lat="44.0282396" lon="11.3451111"><ele>384.0</ele><time>2026-05-02T09:28:16.957Z</time></trkpt><trkpt lat="44.0282557" lon="11.344946"><ele>384.0</ele><time>2026-05-02T09:28:17.962Z</time></trkpt><trkpt lat="44.0282585" lon="11.3447811"><ele>386.75</ele><time>2026-05-02T09:28:18.958Z</time></trkpt><trkpt lat="44.0282348" lon="11.3446229"><ele>389.5</ele><time>2026-05-02T09:28:19.975Z</time></trkpt><trkpt lat="44.0281794" lon="11.3444858"><ele>392.25</ele><time>2026-05-02T09:28:20.959Z</time></trkpt><trkpt lat="44.0280956" lon="11.3443654"><ele>395.0</ele><time>2026-05-02T09:28:21.971Z</time></trkpt><trkpt lat="44.0279883" lon="11.3442671"><ele>395.0</ele><time>2026-05-02T09:28:22.955Z</time></trkpt><trkpt lat="44.0278661" lon="11.3442105"><ele>395.0</ele><time>2026-05-02T09:28:23.957Z</time></trkpt><trkpt lat="44.0277547" lon="11.3441515"><ele>395.0</ele><time>2026-05-02T09:28:24.969Z</time></trkpt><trkpt lat="44.0276352" lon="11.3441032"><ele>395.0</ele><time>2026-05-02T09:28:25.935Z</time></trkpt><trkpt lat="44.0275152" lon="11.344057"><ele>396.25</ele><time>2026-05-02T09:28:26.959Z</time></trkpt><trkpt lat="44.0273905" lon="11.3440183"><ele>397.5</ele><time>2026-05-02T09:28:27.952Z</time></trkpt><trkpt lat="44.0272656" lon="11.3439678"><ele>398.75</ele><time>2026-05-02T09:28:28.957Z</time></trkpt><trkpt lat="44.0271342" lon="11.3439123"><ele>400.0</ele><time>2026-05-02T09:28:29.951Z</time></trkpt><trkpt lat="44.0270017" lon="11.3438573"><ele>400.0</ele><time>2026-05-02T09:28:30.964Z</time></trkpt><trkpt lat="44.0268753" lon="11.3437865"><ele>400.0</ele><time>2026-05-02T09:28:31.947Z</time></trkpt><trkpt lat="44.0267594" lon="11.3437159"><ele>400.0</ele><time>2026-05-02T09:28:32.958Z</time></trkpt><trkpt lat="44.0266593" lon="11.3436398"><ele>400.0</ele><time>2026-05-02T09:28:33.963Z</time></trkpt><trkpt lat="44.0265821" lon="11.3435575"><ele>397.8</ele><time>2026-05-02T09:28:34.962Z</time></trkpt><trkpt lat="44.0265266" lon="11.3434539"><ele>395.6</ele><time>2026-05-02T09:28:35.937Z</time></trkpt><trkpt lat="44.0264927" lon="11.3433359"><ele>393.4</ele><time>2026-05-02T09:28:36.961Z</time></trkpt><trkpt lat="44.0264778" lon="11.3432117"><ele>391.2</ele><time>2026-05-02T09:28:37.957Z</time></trkpt><trkpt lat="44.0264726" lon="11.3430863"><ele>389.0</ele><time>2026-05-02T09:28:38.961Z</time></trkpt><trkpt lat="44.0264709" lon="11.3429513"><ele>389.0</ele><time>2026-05-02T09:28:39.971Z</time></trkpt><trkpt lat="44.0264744" lon="11.3428102"><ele>389.0</ele><time>2026-05-02T09:28:40.965Z</time></trkpt><trkpt lat="44.026475" lon="11.3426587"><ele>389.0</ele><time>2026-05-02T09:28:41.97Z</time></trkpt><trkpt lat="44.0264722" lon="11.342497"><ele>389.0</ele><time>2026-05-02T09:28:42.964Z</time></trkpt><trkpt lat="44.0264568" lon="11.3423282"><ele>389.0</ele><time>2026-05-02T09:28:43.948Z</time></trkpt><trkpt lat="44.0264228" lon="11.3421611"><ele>391.25</ele><time>2026-05-02T09:28:44.957Z</time></trkpt><trkpt lat="44.0263667" lon="11.3420055"><ele>393.5</ele><time>2026-05-02T09:28:45.96Z</time></trkpt><trkpt lat="44.0263029" lon="11.3418638"><ele>395.75</ele><time>2026-05-02T09:28:46.964Z</time></trkpt><trkpt lat="44.0262405" lon="11.3417313"><ele>398.0</ele><time>2026-05-02T09:28:47.953Z</time></trkpt><trkpt lat="44.0261765" lon="11.3416336"><ele>397.99999999999994</ele><time>2026-05-02T09:28:48.959Z</time></trkpt><trkpt lat="44.0261133" lon="11.3415601"><ele>398.0</ele><time>2026-05-02T09:28:49.961Z</time></trkpt><trkpt lat="44.0260453" lon="11.3415062"><ele>398.0</ele><time>2026-05-02T09:28:50.962Z</time></trkpt><trkpt lat="44.0259604" lon="11.3414799"><ele>398.0</ele><time>2026-05-02T09:28:51.953Z</time></trkpt><trkpt lat="44.0258732" lon="11.3414573"><ele>397.99999999999994</ele><time>2026-05-02T09:28:52.966Z</time></trkpt><trkpt lat="44.0257805" lon="11.3414331"><ele>398.0</ele><time>2026-05-02T09:28:53.963Z</time></trkpt><trkpt lat="44.0256851" lon="11.3414109"><ele>394.79999999999995</ele><time>2026-05-02T09:28:54.952Z</time></trkpt><trkpt lat="44.0255933" lon="11.3413799"><ele>391.6</ele><time>2026-05-02T09:28:56.036Z</time></trkpt><trkpt lat="44.025515" lon="11.3412962"><ele>388.4</ele><time>2026-05-02T09:28:56.956Z</time></trkpt><trkpt lat="44.0254478" lon="11.3411799"><ele>385.20000000000005</ele><time>2026-05-02T09:28:57.961Z</time></trkpt><trkpt lat="44.0253899" lon="11.3410467"><ele>382.0</ele><time>2026-05-02T09:28:58.967Z</time></trkpt><trkpt lat="44.0253421" lon="11.3409001"><ele>382.0</ele><time>2026-05-02T09:28:59.973Z</time></trkpt><trkpt lat="44.0252999" lon="11.3407478"><ele>382.0</ele><time>2026-05-02T09:29:00.977Z</time></trkpt><trkpt lat="44.0252578" lon="11.3406142"><ele>382.0</ele><time>2026-05-02T09:29:01.968Z</time></trkpt><trkpt lat="44.0251943" lon="11.3404778"><ele>382.0</ele><time>2026-05-02T09:29:02.977Z</time></trkpt><trkpt lat="44.0251236" lon="11.3403364"><ele>381.25</ele><time>2026-05-02T09:29:04.025Z</time></trkpt><trkpt lat="44.0250551" lon="11.3401957"><ele>380.5</ele><time>2026-05-02T09:29:05.027Z</time></trkpt><trkpt lat="44.0249791" lon="11.3400699"><ele>379.75</ele><time>2026-05-02T09:29:06.029Z</time></trkpt><trkpt lat="44.0248947" lon="11.3399638"><ele>379.0</ele><time>2026-05-02T09:29:07.045Z</time></trkpt><trkpt lat="44.0248074" lon="11.3398574"><ele>376.6</ele><time>2026-05-02T09:29:07.97Z</time></trkpt><trkpt lat="44.0247212" lon="11.3397631"><ele>374.2</ele><time>2026-05-02T09:29:08.977Z</time></trkpt><trkpt lat="44.024645" lon="11.3396542"><ele>371.8</ele><time>2026-05-02T09:29:09.963Z</time></trkpt><trkpt lat="44.0245863" lon="11.339525"><ele>369.40000000000003</ele><time>2026-05-02T09:29:10.96Z</time></trkpt><trkpt lat="44.0245272" lon="11.3393926"><ele>367.0</ele><time>2026-05-02T09:29:11.967Z</time></trkpt><trkpt lat="44.0244696" lon="11.3392738"><ele>367.0</ele><time>2026-05-02T09:29:12.961Z</time></trkpt><trkpt lat="44.0244209" lon="11.3391587"><ele>367.0</ele><time>2026-05-02T09:29:14.033Z</time></trkpt><trkpt lat="44.0243695" lon="11.3390472"><ele>367.0</ele><time>2026-05-02T09:29:14.968Z</time></trkpt><trkpt lat="44.0243148" lon="11.3389483"><ele>367.0</ele><time>2026-05-02T09:29:15.97Z</time></trkpt><trkpt lat="44.0242561" lon="11.3388657"><ele>367.0</ele><time>2026-05-02T09:29:16.976Z</time></trkpt><trkpt lat="44.0241896" lon="11.3388274"><ele>367.0</ele><time>2026-05-02T09:29:17.969Z</time></trkpt><trkpt lat="44.0241229" lon="11.3388151"><ele>365.5</ele><time>2026-05-02T09:29:18.97Z</time></trkpt><trkpt lat="44.0240464" lon="11.3388144"><ele>364.0</ele><time>2026-05-02T09:29:20.043Z</time></trkpt><trkpt lat="44.0239739" lon="11.3388084"><ele>362.5</ele><time>2026-05-02T09:29:20.972Z</time></trkpt><trkpt lat="44.0238905" lon="11.3388116"><ele>361.0</ele><time>2026-05-02T09:29:21.977Z</time></trkpt><trkpt lat="44.0238017" lon="11.3387975"><ele>359.5</ele><time>2026-05-02T09:29:22.986Z</time></trkpt><trkpt lat="44.0237017" lon="11.3387894"><ele>358.0</ele><time>2026-05-02T09:29:23.965Z</time></trkpt><trkpt lat="44.0235945" lon="11.3387921"><ele>358.0</ele><time>2026-05-02T09:29:24.958Z</time></trkpt><trkpt lat="44.0234884" lon="11.3388079"><ele>358.0</ele><time>2026-05-02T09:29:25.972Z</time></trkpt><trkpt lat="44.0233859" lon="11.338835"><ele>358.0</ele><time>2026-05-02T09:29:26.974Z</time></trkpt><trkpt lat="44.0232852" lon="11.3388576"><ele>358.0</ele><time>2026-05-02T09:29:27.995Z</time></trkpt><trkpt lat="44.0231942" lon="11.338864"><ele>358.0</ele><time>2026-05-02T09:29:28.974Z</time></trkpt><trkpt lat="44.0231042" lon="11.3388334"><ele>357.0</ele><time>2026-05-02T09:29:30.039Z</time></trkpt><trkpt lat="44.0230087" lon="11.3387622"><ele>356.0</ele><time>2026-05-02T09:29:31.031Z</time></trkpt><trkpt lat="44.0229049" lon="11.3386891"><ele>355.0</ele><time>2026-05-02T09:29:32.036Z</time></trkpt><trkpt lat="44.0227866" lon="11.3386605"><ele>354.0</ele><time>2026-05-02T09:29:32.957Z</time></trkpt><trkpt lat="44.0226669" lon="11.3386241"><ele>354.0</ele><time>2026-05-02T09:29:33.963Z</time></trkpt><trkpt lat="44.022553" lon="11.3385941"><ele>354.0</ele><time>2026-05-02T09:29:34.985Z</time></trkpt><trkpt lat="44.0224352" lon="11.3385511"><ele>354.0</ele><time>2026-05-02T09:29:36.05Z</time></trkpt><trkpt lat="44.0223154" lon="11.3384983"><ele>354.0</ele><time>2026-05-02T09:29:37.03Z</time></trkpt><trkpt lat="44.0221938" lon="11.3384391"><ele>353.25</ele><time>2026-05-02T09:29:37.968Z</time></trkpt><trkpt lat="44.022079" lon="11.338366"><ele>352.5</ele><time>2026-05-02T09:29:38.97Z</time></trkpt><trkpt lat="44.0219712" lon="11.3383035"><ele>351.75</ele><time>2026-05-02T09:29:39.984Z</time></trkpt><trkpt lat="44.0218544" lon="11.3382483"><ele>351.0</ele><time>2026-05-02T09:29:41.035Z</time></trkpt><trkpt lat="44.0217262" lon="11.3382289"><ele>350.75</ele><time>2026-05-02T09:29:42.028Z</time></trkpt><trkpt lat="44.0215891" lon="11.3382372"><ele>350.5</ele><time>2026-05-02T09:29:42.943Z</time></trkpt><trkpt lat="44.0214484" lon="11.3382554"><ele>350.25</ele><time>2026-05-02T09:29:44.042Z</time></trkpt><trkpt lat="44.0213074" lon="11.338271"><ele>350.0</ele><time>2026-05-02T09:29:44.975Z</time></trkpt><trkpt lat="44.0211643" lon="11.3382654"><ele>350.0</ele><time>2026-05-02T09:29:46.036Z</time></trkpt><trkpt lat="44.0210233" lon="11.3382445"><ele>350.0</ele><time>2026-05-02T09:29:47.043Z</time></trkpt><trkpt lat="44.0208891" lon="11.3382272"><ele>350.0</ele><time>2026-05-02T09:29:47.977Z</time></trkpt><trkpt lat="44.0207509" lon="11.3382355"><ele>350.0</ele><time>2026-05-02T09:29:48.958Z</time></trkpt><trkpt lat="44.0206185" lon="11.3382662"><ele>349.25</ele><time>2026-05-02T09:29:49.97Z</time></trkpt><trkpt lat="44.0204881" lon="11.3383113"><ele>348.5</ele><time>2026-05-02T09:29:51.035Z</time></trkpt><trkpt lat="44.0203695" lon="11.3383499"><ele>347.75</ele><time>2026-05-02T09:29:52.03Z</time></trkpt><trkpt lat="44.0202472" lon="11.338368"><ele>347.0</ele><time>2026-05-02T09:29:52.967Z</time></trkpt><trkpt lat="44.0201143" lon="11.3383685"><ele>347.0</ele><time>2026-05-02T09:29:53.966Z</time></trkpt><trkpt lat="44.0199868" lon="11.3383498"><ele>347.0</ele><time>2026-05-02T09:29:54.968Z</time></trkpt><trkpt lat="44.0198477" lon="11.3383262"><ele>347.0</ele><time>2026-05-02T09:29:55.954Z</time></trkpt><trkpt lat="44.0197028" lon="11.3382892"><ele>347.0</ele><time>2026-05-02T09:29:56.957Z</time></trkpt><trkpt lat="44.0195568" lon="11.3382529"><ele>343.75</ele><time>2026-05-02T09:29:57.962Z</time></trkpt><trkpt lat="44.0194194" lon="11.338202"><ele>340.5</ele><time>2026-05-02T09:29:58.957Z</time></trkpt><trkpt lat="44.0192954" lon="11.3381464"><ele>337.25</ele><time>2026-05-02T09:29:59.96Z</time></trkpt><trkpt lat="44.0192012" lon="11.3380672"><ele>334.0</ele><time>2026-05-02T09:30:00.954Z</time></trkpt><trkpt lat="44.0191445" lon="11.3379728"><ele>334.6</ele><time>2026-05-02T09:30:01.956Z</time></trkpt><trkpt lat="44.0191054" lon="11.3378561"><ele>335.2</ele><time>2026-05-02T09:30:02.967Z</time></trkpt><trkpt lat="44.0191017" lon="11.33772"><ele>335.8</ele><time>2026-05-02T09:30:03.956Z</time></trkpt><trkpt lat="44.0191291" lon="11.3375781"><ele>336.40000000000003</ele><time>2026-05-02T09:30:04.965Z</time></trkpt><trkpt lat="44.0191798" lon="11.3374454"><ele>337.0</ele><time>2026-05-02T09:30:05.953Z</time></trkpt><trkpt lat="44.0192531" lon="11.337318"><ele>337.0</ele><time>2026-05-02T09:30:06.975Z</time></trkpt><trkpt lat="44.0193354" lon="11.3371937"><ele>337.0</ele><time>2026-05-02T09:30:07.962Z</time></trkpt><trkpt lat="44.0193963" lon="11.3370491"><ele>337.0</ele><time>2026-05-02T09:30:08.962Z</time></trkpt><trkpt lat="44.0194302" lon="11.3368844"><ele>337.0</ele><time>2026-05-02T09:30:09.948Z</time></trkpt><trkpt lat="44.0194473" lon="11.3367245"><ele>337.0</ele><time>2026-05-02T09:30:10.96Z</time></trkpt><trkpt lat="44.0194404" lon="11.336568"><ele>337.0</ele><time>2026-05-02T09:30:12.041Z</time></trkpt><trkpt lat="44.0194076" lon="11.3364185"><ele>337.0</ele><time>2026-05-02T09:30:12.962Z</time></trkpt><trkpt lat="44.0193478" lon="11.3362761"><ele>337.0</ele><time>2026-05-02T09:30:13.962Z</time></trkpt><trkpt lat="44.019282" lon="11.3361459"><ele>336.5</ele><time>2026-05-02T09:30:14.972Z</time></trkpt><trkpt lat="44.0191967" lon="11.336031"><ele>336.0</ele><time>2026-05-02T09:30:15.975Z</time></trkpt><trkpt lat="44.0190862" lon="11.3359482"><ele>335.5</ele><time>2026-05-02T09:30:16.972Z</time></trkpt><trkpt lat="44.0189761" lon="11.3358828"><ele>335.0</ele><time>2026-05-02T09:30:17.966Z</time></trkpt><trkpt lat="44.0188697" lon="11.3358305"><ele>335.0</ele><time>2026-05-02T09:30:18.961Z</time></trkpt><trkpt lat="44.018778" lon="11.3357741"><ele>335.0</ele><time>2026-05-02T09:30:19.956Z</time></trkpt><trkpt lat="44.0187241" lon="11.3357092"><ele>335.0</ele><time>2026-05-02T09:30:20.991Z</time></trkpt><trkpt lat="44.0186961" lon="11.3356278"><ele>335.0</ele><time>2026-05-02T09:30:21.964Z</time></trkpt><trkpt lat="44.018721" lon="11.3354469"><ele>335.0</ele><time>2026-05-02T09:30:23.967Z</time></trkpt><trkpt lat="44.0187568" lon="11.3353402"><ele>334.5</ele><time>2026-05-02T09:30:24.963Z</time></trkpt><trkpt lat="44.0187993" lon="11.3352206"><ele>334.0</ele><time>2026-05-02T09:30:25.971Z</time></trkpt><trkpt lat="44.0188274" lon="11.3350932"><ele>333.5</ele><time>2026-05-02T09:30:26.963Z</time></trkpt><trkpt lat="44.0188464" lon="11.3349665"><ele>333.0</ele><time>2026-05-02T09:30:27.961Z</time></trkpt><trkpt lat="44.0188375" lon="11.3348713"><ele>332.5</ele><time>2026-05-02T09:30:29.038Z</time></trkpt><trkpt lat="44.018813" lon="11.3347832"><ele>332.0</ele><time>2026-05-02T09:30:30.031Z</time></trkpt><trkpt lat="44.0187617" lon="11.334709"><ele>331.83333333333337</ele><time>2026-05-02T09:30:30.971Z</time></trkpt><trkpt lat="44.0187003" lon="11.3346684"><ele>331.6666666666667</ele><time>2026-05-02T09:30:32.034Z</time></trkpt><trkpt lat="44.018635" lon="11.334642"><ele>331.5</ele><time>2026-05-02T09:30:32.971Z</time></trkpt><trkpt lat="44.0185857" lon="11.3345332"><ele>331.3333333333333</ele><time>2026-05-02T09:30:34.984Z</time></trkpt><trkpt lat="44.0186354" lon="11.3344471"><ele>331.16666666666663</ele><time>2026-05-02T09:30:37.043Z</time></trkpt><trkpt lat="44.0187623" lon="11.3344421"><ele>331.0</ele><time>2026-05-02T09:30:38.968Z</time></trkpt><trkpt lat="44.0188325" lon="11.3344508"><ele>331.0</ele><time>2026-05-02T09:30:39.973Z</time></trkpt><trkpt lat="44.0189114" lon="11.3344375"><ele>331.0</ele><time>2026-05-02T09:30:40.964Z</time></trkpt><trkpt lat="44.018998" lon="11.3344211"><ele>331.0</ele><time>2026-05-02T09:30:41.981Z</time></trkpt><trkpt lat="44.0190883" lon="11.3344076"><ele>331.0</ele><time>2026-05-02T09:30:42.966Z</time></trkpt><trkpt lat="44.0191888" lon="11.3343957"><ele>331.0</ele><time>2026-05-02T09:30:44.015Z</time></trkpt><trkpt lat="44.0192822" lon="11.3343781"><ele>331.66666666666663</ele><time>2026-05-02T09:30:45.018Z</time></trkpt><trkpt lat="44.0193763" lon="11.3343593"><ele>332.3333333333333</ele><time>2026-05-02T09:30:45.964Z</time></trkpt><trkpt lat="44.019472" lon="11.3343428"><ele>333.0</ele><time>2026-05-02T09:30:46.965Z</time></trkpt><trkpt lat="44.0195641" lon="11.3343292"><ele>333.6666666666667</ele><time>2026-05-02T09:30:47.96Z</time></trkpt><trkpt lat="44.0196426" lon="11.3343149"><ele>334.33333333333337</ele><time>2026-05-02T09:30:48.963Z</time></trkpt><trkpt lat="44.0197059" lon="11.3343105"><ele>335.0</ele><time>2026-05-02T09:30:49.966Z</time></trkpt><trkpt lat="44.0198007" lon="11.3342803"><ele>335.0</ele><time>2026-05-02T09:30:51.964Z</time></trkpt><trkpt lat="44.0198549" lon="11.334178"><ele>335.0</ele><time>2026-05-02T09:30:53.952Z</time></trkpt><trkpt lat="44.0198976" lon="11.3340324"><ele>335.0</ele><time>2026-05-02T09:30:55.939Z</time></trkpt><trkpt lat="44.0199259" lon="11.3339404"><ele>335.0</ele><time>2026-05-02T09:30:56.965Z</time></trkpt><trkpt lat="44.0199533" lon="11.3338396"><ele>335.0</ele><time>2026-05-02T09:30:57.97Z</time></trkpt><trkpt lat="44.0199864" lon="11.3337285"><ele>335.0</ele><time>2026-05-02T09:30:58.973Z</time></trkpt><trkpt lat="44.0200182" lon="11.3336022"><ele>333.5</ele><time>2026-05-02T09:30:59.961Z</time></trkpt><trkpt lat="44.0200739" lon="11.333477"><ele>332.0</ele><time>2026-05-02T09:31:00.957Z</time></trkpt><trkpt lat="44.0201508" lon="11.333347"><ele>330.5</ele><time>2026-05-02T09:31:01.955Z</time></trkpt><trkpt lat="44.0202168" lon="11.3332118"><ele>329.0</ele><time>2026-05-02T09:31:02.961Z</time></trkpt><trkpt lat="44.0202555" lon="11.3330701"><ele>327.6</ele><time>2026-05-02T09:31:03.959Z</time></trkpt><trkpt lat="44.0202727" lon="11.3329375"><ele>326.2</ele><time>2026-05-02T09:31:04.962Z</time></trkpt><trkpt lat="44.0202762" lon="11.3327902"><ele>324.8</ele><time>2026-05-02T09:31:05.971Z</time></trkpt><trkpt lat="44.0202719" lon="11.3326538"><ele>323.40000000000003</ele><time>2026-05-02T09:31:06.956Z</time></trkpt><trkpt lat="44.0202755" lon="11.3325288"><ele>322.0</ele><time>2026-05-02T09:31:07.958Z</time></trkpt><trkpt lat="44.0202902" lon="11.3324177"><ele>322.0</ele><time>2026-05-02T09:31:08.959Z</time></trkpt><trkpt lat="44.0203406" lon="11.3323019"><ele>322.0</ele><time>2026-05-02T09:31:10.034Z</time></trkpt><trkpt lat="44.0203952" lon="11.3322042"><ele>322.0</ele><time>2026-05-02T09:31:11.035Z</time></trkpt><trkpt lat="44.0204192" lon="11.3321208"><ele>322.0</ele><time>2026-05-02T09:31:12.036Z</time></trkpt><trkpt lat="44.0204097" lon="11.3320226"><ele>322.0</ele><time>2026-05-02T09:31:12.966Z</time></trkpt><trkpt lat="44.0203754" lon="11.331906"><ele>322.0</ele><time>2026-05-02T09:31:13.977Z</time></trkpt><trkpt lat="44.0203309" lon="11.3317769"><ele>322.25</ele><time>2026-05-02T09:31:14.969Z</time></trkpt><trkpt lat="44.020277" lon="11.3316542"><ele>322.5</ele><time>2026-05-02T09:31:16.036Z</time></trkpt><trkpt lat="44.0202357" lon="11.3315014"><ele>322.75</ele><time>2026-05-02T09:31:17.032Z</time></trkpt><trkpt lat="44.0201961" lon="11.3313472"><ele>323.0</ele><time>2026-05-02T09:31:17.955Z</time></trkpt><trkpt lat="44.0201541" lon="11.3311891"><ele>324.75</ele><time>2026-05-02T09:31:18.977Z</time></trkpt><trkpt lat="44.0201134" lon="11.3310354"><ele>326.5</ele><time>2026-05-02T09:31:19.96Z</time></trkpt><trkpt lat="44.0200709" lon="11.3308668"><ele>328.25</ele><time>2026-05-02T09:31:21.04Z</time></trkpt><trkpt lat="44.0200304" lon="11.3307015"><ele>330.0</ele><time>2026-05-02T09:31:22.027Z</time></trkpt><trkpt lat="44.0199906" lon="11.3305346"><ele>330.0</ele><time>2026-05-02T09:31:22.977Z</time></trkpt><trkpt lat="44.0199549" lon="11.3303871"><ele>330.0</ele><time>2026-05-02T09:31:23.976Z</time></trkpt><trkpt lat="44.0199287" lon="11.330256"><ele>330.0</ele><time>2026-05-02T09:31:24.995Z</time></trkpt><trkpt lat="44.0199152" lon="11.3301437"><ele>330.0</ele><time>2026-05-02T09:31:26.023Z</time></trkpt><trkpt lat="44.019918" lon="11.3300529"><ele>330.0</ele><time>2026-05-02T09:31:27.033Z</time></trkpt><trkpt lat="44.0199473" lon="11.3299684"><ele>330.0</ele><time>2026-05-02T09:31:27.969Z</time></trkpt><trkpt lat="44.020063" lon="11.329861"><ele>332.0</ele><time>2026-05-02T09:31:29.98Z</time></trkpt><trkpt lat="44.0201497" lon="11.3298499"><ele>334.0</ele><time>2026-05-02T09:31:31.033Z</time></trkpt><trkpt lat="44.0202361" lon="11.3298493"><ele>336.0</ele><time>2026-05-02T09:31:31.969Z</time></trkpt><trkpt lat="44.0203326" lon="11.3298508"><ele>338.0</ele><time>2026-05-02T09:31:32.966Z</time></trkpt><trkpt lat="44.0204268" lon="11.3298515"><ele>340.0</ele><time>2026-05-02T09:31:33.965Z</time></trkpt><trkpt lat="44.0205228" lon="11.3298323"><ele>340.0</ele><time>2026-05-02T09:31:34.959Z</time></trkpt><trkpt lat="44.0206195" lon="11.3297926"><ele>340.0</ele><time>2026-05-02T09:31:35.972Z</time></trkpt><trkpt lat="44.0207124" lon="11.3297231"><ele>340.0</ele><time>2026-05-02T09:31:36.966Z</time></trkpt><trkpt lat="44.0208004" lon="11.3296043"><ele>340.0</ele><time>2026-05-02T09:31:37.956Z</time></trkpt><trkpt lat="44.0208805" lon="11.3294636"><ele>342.5</ele><time>2026-05-02T09:31:38.947Z</time></trkpt><trkpt lat="44.020963" lon="11.3293112"><ele>345.0</ele><time>2026-05-02T09:31:39.957Z</time></trkpt><trkpt lat="44.0210348" lon="11.3291309"><ele>347.5</ele><time>2026-05-02T09:31:40.951Z</time></trkpt><trkpt lat="44.0210948" lon="11.328954"><ele>350.0</ele><time>2026-05-02T09:31:41.957Z</time></trkpt><trkpt lat="44.0211387" lon="11.3287819"><ele>350.0</ele><time>2026-05-02T09:31:42.965Z</time></trkpt><trkpt lat="44.0211727" lon="11.3286249"><ele>350.0</ele><time>2026-05-02T09:31:43.972Z</time></trkpt><trkpt lat="44.0211964" lon="11.3284828"><ele>350.0</ele><time>2026-05-02T09:31:44.971Z</time></trkpt><trkpt lat="44.0212065" lon="11.3283496"><ele>350.0</ele><time>2026-05-02T09:31:45.961Z</time></trkpt><trkpt lat="44.0212189" lon="11.3282198"><ele>350.0</ele><time>2026-05-02T09:31:46.966Z</time></trkpt><trkpt lat="44.0212271" lon="11.328098"><ele>350.4</ele><time>2026-05-02T09:31:47.983Z</time></trkpt><trkpt lat="44.0212199" lon="11.3279694"><ele>350.8</ele><time>2026-05-02T09:31:48.977Z</time></trkpt><trkpt lat="44.0212105" lon="11.3278354"><ele>351.20000000000005</ele><time>2026-05-02T09:31:49.966Z</time></trkpt><trkpt lat="44.0211979" lon="11.3276979"><ele>351.6</ele><time>2026-05-02T09:31:50.966Z</time></trkpt><trkpt lat="44.0211909" lon="11.3275462"><ele>352.0</ele><time>2026-05-02T09:31:51.968Z</time></trkpt><trkpt lat="44.0211757" lon="11.3273998"><ele>352.0</ele><time>2026-05-02T09:31:52.969Z</time></trkpt><trkpt lat="44.0211422" lon="11.3272643"><ele>352.0</ele><time>2026-05-02T09:31:53.961Z</time></trkpt><trkpt lat="44.021072" lon="11.3271392"><ele>352.0</ele><time>2026-05-02T09:31:54.967Z</time></trkpt><trkpt lat="44.0209671" lon="11.3270181"><ele>352.0</ele><time>2026-05-02T09:31:55.967Z</time></trkpt><trkpt lat="44.0208493" lon="11.3269087"><ele>351.3333333333333</ele><time>2026-05-02T09:31:56.967Z</time></trkpt><trkpt lat="44.0207213" lon="11.3268025"><ele>350.6666666666667</ele><time>2026-05-02T09:31:57.966Z</time></trkpt><trkpt lat="44.0205858" lon="11.3266889"><ele>350.0</ele><time>2026-05-02T09:31:58.966Z</time></trkpt><trkpt lat="44.0204435" lon="11.326574"><ele>350.0</ele><time>2026-05-02T09:31:59.962Z</time></trkpt><trkpt lat="44.0202988" lon="11.326452"><ele>350.0</ele><time>2026-05-02T09:32:00.966Z</time></trkpt><trkpt lat="44.0201605" lon="11.3263204"><ele>350.0</ele><time>2026-05-02T09:32:01.958Z</time></trkpt><trkpt lat="44.0200254" lon="11.3261699"><ele>349.33333333333337</ele><time>2026-05-02T09:32:02.965Z</time></trkpt><trkpt lat="44.0198907" lon="11.3259992"><ele>348.6666666666667</ele><time>2026-05-02T09:32:03.961Z</time></trkpt><trkpt lat="44.0197571" lon="11.325806"><ele>348.0</ele><time>2026-05-02T09:32:04.965Z</time></trkpt><trkpt lat="44.0196182" lon="11.3255985"><ele>343.3333333333333</ele><time>2026-05-02T09:32:05.959Z</time></trkpt><trkpt lat="44.0194752" lon="11.3253771"><ele>338.66666666666663</ele><time>2026-05-02T09:32:06.961Z</time></trkpt><trkpt lat="44.019322" lon="11.3251386"><ele>334.0</ele><time>2026-05-02T09:32:07.95Z</time></trkpt><trkpt lat="44.0191631" lon="11.3248889"><ele>333.3333333333333</ele><time>2026-05-02T09:32:09.019Z</time></trkpt><trkpt lat="44.0190153" lon="11.3246618"><ele>332.6666666666667</ele><time>2026-05-02T09:32:10.029Z</time></trkpt><trkpt lat="44.0188808" lon="11.3244526"><ele>332.0</ele><time>2026-05-02T09:32:10.956Z</time></trkpt><trkpt lat="44.01876" lon="11.3242552"><ele>332.0</ele><time>2026-05-02T09:32:11.956Z</time></trkpt><trkpt lat="44.0186404" lon="11.3240722"><ele>332.0</ele><time>2026-05-02T09:32:12.968Z</time></trkpt><trkpt lat="44.0185335" lon="11.3238934"><ele>332.0</ele><time>2026-05-02T09:32:14.02Z</time></trkpt><trkpt lat="44.0184492" lon="11.3237214"><ele>330.20000000000005</ele><time>2026-05-02T09:32:15.032Z</time></trkpt><trkpt lat="44.0183951" lon="11.3235411"><ele>328.4</ele><time>2026-05-02T09:32:15.986Z</time></trkpt><trkpt lat="44.0183654" lon="11.3233629"><ele>326.6</ele><time>2026-05-02T09:32:17.024Z</time></trkpt><trkpt lat="44.0183539" lon="11.3232276"><ele>324.79999999999995</ele><time>2026-05-02T09:32:17.966Z</time></trkpt><trkpt lat="44.0183404" lon="11.3231324"><ele>323.0</ele><time>2026-05-02T09:32:18.956Z</time></trkpt><trkpt lat="44.0183251" lon="11.3230186"><ele>321.2</ele><time>2026-05-02T09:32:20.95Z</time></trkpt><trkpt lat="44.0183118" lon="11.3229231"><ele>319.4</ele><time>2026-05-02T09:32:33.963Z</time></trkpt><trkpt lat="44.0182974" lon="11.3227936"><ele>317.59999999999997</ele><time>2026-05-02T09:32:35.984Z</time></trkpt><trkpt lat="44.018278" lon="11.3226516"><ele>315.79999999999995</ele><time>2026-05-02T09:32:37.96Z</time></trkpt><trkpt lat="44.0182655" lon="11.3225242"><ele>314.0</ele><time>2026-05-02T09:32:39.984Z</time></trkpt><trkpt lat="44.0182499" lon="11.322383"><ele>314.0</ele><time>2026-05-02T09:32:41.964Z</time></trkpt><trkpt lat="44.0182364" lon="11.3222321"><ele>314.0</ele><time>2026-05-02T09:32:43.959Z</time></trkpt><trkpt lat="44.0182571" lon="11.3220731"><ele>314.0</ele><time>2026-05-02T09:32:45.97Z</time></trkpt><trkpt lat="44.0182884" lon="11.3219071"><ele>314.0</ele><time>2026-05-02T09:32:47.953Z</time></trkpt><trkpt lat="44.0183222" lon="11.3217498"><ele>315.6</ele><time>2026-05-02T09:32:50.033Z</time></trkpt><trkpt lat="44.018358" lon="11.3216383"><ele>317.2</ele><time>2026-05-02T09:32:52.019Z</time></trkpt><trkpt lat="44.0183938" lon="11.3215421"><ele>318.8</ele><time>2026-05-02T09:32:54.012Z</time></trkpt><trkpt lat="44.0184238" lon="11.3214043"><ele>320.40000000000003</ele><time>2026-05-02T09:32:56.055Z</time></trkpt><trkpt lat="44.0184483" lon="11.3212608"><ele>322.0</ele><time>2026-05-02T09:32:57.967Z</time></trkpt><trkpt lat="44.0184579" lon="11.3211363"><ele>322.3333333333333</ele><time>2026-05-02T09:33:00.022Z</time></trkpt><trkpt lat="44.0184521" lon="11.320967"><ele>322.66666666666663</ele><time>2026-05-02T09:33:01.978Z</time></trkpt><trkpt lat="44.0184327" lon="11.320877"><ele>323.0</ele><time>2026-05-02T09:33:02.957Z</time></trkpt><trkpt lat="44.0184018" lon="11.3207811"><ele>323.3333333333333</ele><time>2026-05-02T09:33:03.955Z</time></trkpt><trkpt lat="44.0183624" lon="11.320676"><ele>323.6666666666667</ele><time>2026-05-02T09:33:04.963Z</time></trkpt><trkpt lat="44.0183089" lon="11.3205746"><ele>324.0</ele><time>2026-05-02T09:33:05.961Z</time></trkpt><trkpt lat="44.0182536" lon="11.3204578"><ele>322.25</ele><time>2026-05-02T09:33:06.966Z</time></trkpt><trkpt lat="44.0181965" lon="11.3203369"><ele>320.5</ele><time>2026-05-02T09:33:07.976Z</time></trkpt><trkpt lat="44.018142" lon="11.3202048"><ele>318.75</ele><time>2026-05-02T09:33:08.965Z</time></trkpt><trkpt lat="44.0180846" lon="11.3200539"><ele>317.0</ele><time>2026-05-02T09:33:09.96Z</time></trkpt><trkpt lat="44.0180341" lon="11.3198847"><ele>318.75</ele><time>2026-05-02T09:33:10.967Z</time></trkpt><trkpt lat="44.0179956" lon="11.3197144"><ele>320.5</ele><time>2026-05-02T09:33:11.968Z</time></trkpt><trkpt lat="44.0179532" lon="11.3195423"><ele>322.25</ele><time>2026-05-02T09:33:12.963Z</time></trkpt><trkpt lat="44.0179098" lon="11.319372"><ele>324.0</ele><time>2026-05-02T09:33:13.955Z</time></trkpt><trkpt lat="44.0178679" lon="11.3192047"><ele>324.0</ele><time>2026-05-02T09:33:14.96Z</time></trkpt><trkpt lat="44.0178342" lon="11.3190302"><ele>324.0</ele><time>2026-05-02T09:33:15.953Z</time></trkpt><trkpt lat="44.0178025" lon="11.318853"><ele>324.0</ele><time>2026-05-02T09:33:17.023Z</time></trkpt><trkpt lat="44.0177934" lon="11.3186774"><ele>324.0</ele><time>2026-05-02T09:33:17.957Z</time></trkpt><trkpt lat="44.017797" lon="11.3185104"><ele>324.6</ele><time>2026-05-02T09:33:19.045Z</time></trkpt><trkpt lat="44.0178245" lon="11.3183633"><ele>325.2</ele><time>2026-05-02T09:33:19.965Z</time></trkpt><trkpt lat="44.0178823" lon="11.3182725"><ele>325.8</ele><time>2026-05-02T09:33:20.957Z</time></trkpt><trkpt lat="44.0179515" lon="11.3182012"><ele>326.40000000000003</ele><time>2026-05-02T09:33:21.965Z</time></trkpt><trkpt lat="44.0180383" lon="11.3181457"><ele>327.0</ele><time>2026-05-02T09:33:22.967Z</time></trkpt><trkpt lat="44.0181347" lon="11.3181298"><ele>327.0</ele><time>2026-05-02T09:33:23.965Z</time></trkpt><trkpt lat="44.0182429" lon="11.318153"><ele>327.0</ele><time>2026-05-02T09:33:24.987Z</time></trkpt><trkpt lat="44.0183638" lon="11.3181927"><ele>327.0</ele><time>2026-05-02T09:33:26.04Z</time></trkpt><trkpt lat="44.0184965" lon="11.3182453"><ele>327.0</ele><time>2026-05-02T09:33:27.037Z</time></trkpt><trkpt lat="44.0186377" lon="11.318302"><ele>327.3333333333333</ele><time>2026-05-02T09:33:27.982Z</time></trkpt><trkpt lat="44.018785" lon="11.3183537"><ele>327.66666666666663</ele><time>2026-05-02T09:33:29.04Z</time></trkpt><trkpt lat="44.0189324" lon="11.3184015"><ele>328.0</ele><time>2026-05-02T09:33:30.033Z</time></trkpt><trkpt lat="44.0190779" lon="11.3184483"><ele>326.0</ele><time>2026-05-02T09:33:31.026Z</time></trkpt><trkpt lat="44.0192205" lon="11.3184997"><ele>324.0</ele><time>2026-05-02T09:33:31.966Z</time></trkpt><trkpt lat="44.0193599" lon="11.3185489"><ele>322.0</ele><time>2026-05-02T09:33:32.962Z</time></trkpt><trkpt lat="44.0194934" lon="11.3186029"><ele>320.0</ele><time>2026-05-02T09:33:33.968Z</time></trkpt><trkpt lat="44.0196244" lon="11.3186408"><ele>320.0</ele><time>2026-05-02T09:33:34.993Z</time></trkpt><trkpt lat="44.0197485" lon="11.3186635"><ele>320.0</ele><time>2026-05-02T09:33:35.957Z</time></trkpt><trkpt lat="44.019872" lon="11.318651"><ele>320.0</ele><time>2026-05-02T09:33:37.027Z</time></trkpt><trkpt lat="44.0199878" lon="11.3185859"><ele>320.0</ele><time>2026-05-02T09:33:37.946Z</time></trkpt><trkpt lat="44.0200922" lon="11.3184741"><ele>319.25</ele><time>2026-05-02T09:33:38.973Z</time></trkpt><trkpt lat="44.0201621" lon="11.3183063"><ele>318.5</ele><time>2026-05-02T09:33:39.997Z</time></trkpt><trkpt lat="44.0202159" lon="11.3181249"><ele>317.75</ele><time>2026-05-02T09:33:41.037Z</time></trkpt><trkpt lat="44.0202494" lon="11.3179234"><ele>317.0</ele><time>2026-05-02T09:33:42.032Z</time></trkpt><trkpt lat="44.0202877" lon="11.3177187"><ele>317.25</ele><time>2026-05-02T09:33:42.959Z</time></trkpt><trkpt lat="44.0203299" lon="11.3175219"><ele>317.5</ele><time>2026-05-02T09:33:43.96Z</time></trkpt><trkpt lat="44.0203693" lon="11.3173407"><ele>317.75</ele><time>2026-05-02T09:33:44.95Z</time></trkpt><trkpt lat="44.0204012" lon="11.3171837"><ele>318.0</ele><time>2026-05-02T09:33:46.041Z</time></trkpt><trkpt lat="44.0204385" lon="11.3170515"><ele>318.0</ele><time>2026-05-02T09:33:47.036Z</time></trkpt><trkpt lat="44.0204849" lon="11.316917"><ele>318.0</ele><time>2026-05-02T09:33:47.961Z</time></trkpt><trkpt lat="44.0205385" lon="11.3167866"><ele>318.0</ele><time>2026-05-02T09:33:48.972Z</time></trkpt><trkpt lat="44.0206042" lon="11.316657"><ele>318.0</ele><time>2026-05-02T09:33:49.989Z</time></trkpt><trkpt lat="44.020678" lon="11.3165292"><ele>318.0</ele><time>2026-05-02T09:33:51.033Z</time></trkpt><trkpt lat="44.0207502" lon="11.3164022"><ele>320.25</ele><time>2026-05-02T09:33:52.03Z</time></trkpt><trkpt lat="44.020823" lon="11.3162769"><ele>322.5</ele><time>2026-05-02T09:33:52.96Z</time></trkpt><trkpt lat="44.0208989" lon="11.316149"><ele>324.75</ele><time>2026-05-02T09:33:53.965Z</time></trkpt><trkpt lat="44.0209692" lon="11.3160188"><ele>327.0</ele><time>2026-05-02T09:33:54.948Z</time></trkpt><trkpt lat="44.021031" lon="11.3158819"><ele>327.0</ele><time>2026-05-02T09:33:55.966Z</time></trkpt><trkpt lat="44.0210759" lon="11.3157361"><ele>327.0</ele><time>2026-05-02T09:33:56.96Z</time></trkpt><trkpt lat="44.0210967" lon="11.3155691"><ele>327.0</ele><time>2026-05-02T09:33:57.947Z</time></trkpt><trkpt lat="44.0210962" lon="11.3154047"><ele>327.0</ele><time>2026-05-02T09:33:58.94Z</time></trkpt><trkpt lat="44.0210795" lon="11.3152383"><ele>326.25</ele><time>2026-05-02T09:33:59.958Z</time></trkpt><trkpt lat="44.0210435" lon="11.3150733"><ele>325.5</ele><time>2026-05-02T09:34:00.95Z</time></trkpt><trkpt lat="44.02098" lon="11.3149256"><ele>324.75</ele><time>2026-05-02T09:34:01.954Z</time></trkpt><trkpt lat="44.0208942" lon="11.3147995"><ele>324.0</ele><time>2026-05-02T09:34:02.958Z</time></trkpt><trkpt lat="44.020809" lon="11.3146976"><ele>321.8333333333333</ele><time>2026-05-02T09:34:03.949Z</time></trkpt><trkpt lat="44.0207363" lon="11.3145937"><ele>319.6666666666667</ele><time>2026-05-02T09:34:04.964Z</time></trkpt><trkpt lat="44.0206811" lon="11.3145056"><ele>317.5</ele><time>2026-05-02T09:34:05.968Z</time></trkpt><trkpt lat="44.0206303" lon="11.3144248"><ele>315.33333333333337</ele><time>2026-05-02T09:34:07.022Z</time></trkpt><trkpt lat="44.020571" lon="11.3143366"><ele>313.1666666666667</ele><time>2026-05-02T09:34:07.971Z</time></trkpt><trkpt lat="44.0205068" lon="11.3142379"><ele>311.0</ele><time>2026-05-02T09:34:08.965Z</time></trkpt><trkpt lat="44.0204336" lon="11.3141304"><ele>311.0</ele><time>2026-05-02T09:34:09.988Z</time></trkpt><trkpt lat="44.0203486" lon="11.3140026"><ele>311.0</ele><time>2026-05-02T09:34:10.973Z</time></trkpt><trkpt lat="44.020257" lon="11.3138725"><ele>311.0</ele><time>2026-05-02T09:34:11.966Z</time></trkpt><trkpt lat="44.0201674" lon="11.3137379"><ele>311.0</ele><time>2026-05-02T09:34:12.97Z</time></trkpt><trkpt lat="44.0200751" lon="11.3135953"><ele>311.25</ele><time>2026-05-02T09:34:13.977Z</time></trkpt><trkpt lat="44.0199866" lon="11.3134527"><ele>311.5</ele><time>2026-05-02T09:34:15.038Z</time></trkpt><trkpt lat="44.0198947" lon="11.3133133"><ele>311.75</ele><time>2026-05-02T09:34:16.039Z</time></trkpt><trkpt lat="44.0198004" lon="11.3131647"><ele>312.0</ele><time>2026-05-02T09:34:17.031Z</time></trkpt><trkpt lat="44.0197009" lon="11.3130112"><ele>310.5</ele><time>2026-05-02T09:34:17.948Z</time></trkpt><trkpt lat="44.0196069" lon="11.3128623"><ele>309.0</ele><time>2026-05-02T09:34:18.954Z</time></trkpt><trkpt lat="44.0195117" lon="11.312725"><ele>307.5</ele><time>2026-05-02T09:34:20.005Z</time></trkpt><trkpt lat="44.0194163" lon="11.312585"><ele>306.0</ele><time>2026-05-02T09:34:21.04Z</time></trkpt><trkpt lat="44.0193325" lon="11.3124512"><ele>306.0</ele><time>2026-05-02T09:34:22.034Z</time></trkpt><trkpt lat="44.0192533" lon="11.3123239"><ele>306.0</ele><time>2026-05-02T09:34:22.979Z</time></trkpt><trkpt lat="44.0191771" lon="11.312203"><ele>306.0</ele><time>2026-05-02T09:34:23.986Z</time></trkpt><trkpt lat="44.0191035" lon="11.3120899"><ele>306.0</ele><time>2026-05-02T09:34:24.997Z</time></trkpt><trkpt lat="44.0190341" lon="11.3119689"><ele>305.6</ele><time>2026-05-02T09:34:26.005Z</time></trkpt><trkpt lat="44.0189604" lon="11.3118616"><ele>305.20000000000005</ele><time>2026-05-02T09:34:26.979Z</time></trkpt><trkpt lat="44.0188937" lon="11.3117477"><ele>304.79999999999995</ele><time>2026-05-02T09:34:27.981Z</time></trkpt><trkpt lat="44.018829" lon="11.3116278"><ele>304.4</ele><time>2026-05-02T09:34:28.986Z</time></trkpt><trkpt lat="44.0187795" lon="11.3114881"><ele>304.0</ele><time>2026-05-02T09:34:30.051Z</time></trkpt><trkpt lat="44.0187423" lon="11.3113335"><ele>306.0</ele><time>2026-05-02T09:34:31.034Z</time></trkpt><trkpt lat="44.0187266" lon="11.3111731"><ele>308.0</ele><time>2026-05-02T09:34:32.036Z</time></trkpt><trkpt lat="44.0187232" lon="11.3110096"><ele>310.0</ele><time>2026-05-02T09:34:32.977Z</time></trkpt><trkpt lat="44.0187297" lon="11.3108457"><ele>312.0</ele><time>2026-05-02T09:34:33.982Z</time></trkpt><trkpt lat="44.0187365" lon="11.3106899"><ele>314.5</ele><time>2026-05-02T09:34:34.986Z</time></trkpt><trkpt lat="44.0187462" lon="11.3105297"><ele>317.0</ele><time>2026-05-02T09:34:36.036Z</time></trkpt><trkpt lat="44.0187586" lon="11.3103726"><ele>319.5</ele><time>2026-05-02T09:34:36.957Z</time></trkpt><trkpt lat="44.0187689" lon="11.3102143"><ele>322.0</ele><time>2026-05-02T09:34:37.964Z</time></trkpt><trkpt lat="44.0187815" lon="11.310057"><ele>322.0</ele><time>2026-05-02T09:34:39.035Z</time></trkpt><trkpt lat="44.0187977" lon="11.3099022"><ele>322.0</ele><time>2026-05-02T09:34:40.025Z</time></trkpt><trkpt lat="44.0188194" lon="11.3097532"><ele>322.0</ele><time>2026-05-02T09:34:41.029Z</time></trkpt><trkpt lat="44.0188511" lon="11.3095993"><ele>322.0</ele><time>2026-05-02T09:34:41.956Z</time></trkpt><trkpt lat="44.0188838" lon="11.3094473"><ele>322.75</ele><time>2026-05-02T09:34:42.972Z</time></trkpt><trkpt lat="44.0189193" lon="11.3092967"><ele>323.5</ele><time>2026-05-02T09:34:43.975Z</time></trkpt><trkpt lat="44.018966" lon="11.3091496"><ele>324.25</ele><time>2026-05-02T09:34:44.975Z</time></trkpt><trkpt lat="44.0190156" lon="11.3090071"><ele>325.0</ele><time>2026-05-02T09:34:45.977Z</time></trkpt><trkpt lat="44.019058" lon="11.3088641"><ele>325.0</ele><time>2026-05-02T09:34:46.969Z</time></trkpt><trkpt lat="44.0190923" lon="11.3087282"><ele>325.0</ele><time>2026-05-02T09:34:47.965Z</time></trkpt><trkpt lat="44.0191188" lon="11.3085842"><ele>325.0</ele><time>2026-05-02T09:34:49.036Z</time></trkpt><trkpt lat="44.0191442" lon="11.308435"><ele>325.0</ele><time>2026-05-02T09:34:50.036Z</time></trkpt><trkpt lat="44.0191628" lon="11.308279"><ele>325.0</ele><time>2026-05-02T09:34:50.964Z</time></trkpt><trkpt lat="44.0191816" lon="11.3081194"><ele>326.75</ele><time>2026-05-02T09:34:51.964Z</time></trkpt><trkpt lat="44.0192032" lon="11.3079531"><ele>328.5</ele><time>2026-05-02T09:34:52.956Z</time></trkpt><trkpt lat="44.0192229" lon="11.307791"><ele>330.25</ele><time>2026-05-02T09:34:53.968Z</time></trkpt><trkpt lat="44.0192438" lon="11.3076365"><ele>332.0</ele><time>2026-05-02T09:34:54.956Z</time></trkpt><trkpt lat="44.0192688" lon="11.307486"><ele>332.0</ele><time>2026-05-02T09:34:55.966Z</time></trkpt><trkpt lat="44.0193008" lon="11.3073389"><ele>332.0</ele><time>2026-05-02T09:34:56.962Z</time></trkpt><trkpt lat="44.0193429" lon="11.3071903"><ele>332.0</ele><time>2026-05-02T09:34:57.962Z</time></trkpt><trkpt lat="44.0193909" lon="11.3070456"><ele>332.0</ele><time>2026-05-02T09:34:58.95Z</time></trkpt><trkpt lat="44.019448" lon="11.3068917"><ele>331.25</ele><time>2026-05-02T09:34:59.957Z</time></trkpt><trkpt lat="44.0195058" lon="11.3067233"><ele>330.5</ele><time>2026-05-02T09:35:00.955Z</time></trkpt><trkpt lat="44.0195645" lon="11.3065523"><ele>329.75</ele><time>2026-05-02T09:35:01.945Z</time></trkpt><trkpt lat="44.0196182" lon="11.3063783"><ele>329.0</ele><time>2026-05-02T09:35:02.945Z</time></trkpt><trkpt lat="44.0196634" lon="11.3061924"><ele>327.5</ele><time>2026-05-02T09:35:03.953Z</time></trkpt><trkpt lat="44.0197054" lon="11.3060045"><ele>326.0</ele><time>2026-05-02T09:35:05.036Z</time></trkpt><trkpt lat="44.0197476" lon="11.3058078"><ele>324.5</ele><time>2026-05-02T09:35:05.957Z</time></trkpt><trkpt lat="44.0197856" lon="11.3056217"><ele>323.0</ele><time>2026-05-02T09:35:06.97Z</time></trkpt><trkpt lat="44.0198241" lon="11.3054462"><ele>320.75</ele><time>2026-05-02T09:35:07.962Z</time></trkpt><trkpt lat="44.0198615" lon="11.3052757"><ele>318.5</ele><time>2026-05-02T09:35:08.965Z</time></trkpt><trkpt lat="44.0198992" lon="11.3051045"><ele>316.25</ele><time>2026-05-02T09:35:09.975Z</time></trkpt><trkpt lat="44.0199392" lon="11.3049325"><ele>314.0</ele><time>2026-05-02T09:35:10.972Z</time></trkpt><trkpt lat="44.0199824" lon="11.3047636"><ele>317.75</ele><time>2026-05-02T09:35:11.958Z</time></trkpt><trkpt lat="44.0200273" lon="11.3045829"><ele>321.5</ele><time>2026-05-02T09:35:12.971Z</time></trkpt><trkpt lat="44.0200655" lon="11.3044002"><ele>325.25</ele><time>2026-05-02T09:35:13.971Z</time></trkpt><trkpt lat="44.0201064" lon="11.3042232"><ele>329.0</ele><time>2026-05-02T09:35:14.973Z</time></trkpt><trkpt lat="44.0201413" lon="11.3040514"><ele>327.5</ele><time>2026-05-02T09:35:16.036Z</time></trkpt><trkpt lat="44.0201622" lon="11.3038811"><ele>326.0</ele><time>2026-05-02T09:35:17.035Z</time></trkpt><trkpt lat="44.0201728" lon="11.3037104"><ele>324.5</ele><time>2026-05-02T09:35:17.962Z</time></trkpt><trkpt lat="44.020166" lon="11.3035521"><ele>323.0</ele><time>2026-05-02T09:35:18.967Z</time></trkpt><trkpt lat="44.0201336" lon="11.3034011"><ele>323.0</ele><time>2026-05-02T09:35:20.002Z</time></trkpt><trkpt lat="44.0200803" lon="11.3032717"><ele>323.0</ele><time>2026-05-02T09:35:21.034Z</time></trkpt><trkpt lat="44.0200007" lon="11.3031559"><ele>323.0</ele><time>2026-05-02T09:35:22.036Z</time></trkpt><trkpt lat="44.0198799" lon="11.3030854"><ele>323.0</ele><time>2026-05-02T09:35:22.958Z</time></trkpt><trkpt lat="44.0197478" lon="11.3030381"><ele>321.75</ele><time>2026-05-02T09:35:23.969Z</time></trkpt><trkpt lat="44.0196129" lon="11.3030212"><ele>320.5</ele><time>2026-05-02T09:35:24.975Z</time></trkpt><trkpt lat="44.0194695" lon="11.3030067"><ele>319.25</ele><time>2026-05-02T09:35:25.959Z</time></trkpt><trkpt lat="44.0193294" lon="11.3030022"><ele>318.0</ele><time>2026-05-02T09:35:26.97Z</time></trkpt><trkpt lat="44.019189" lon="11.3029778"><ele>317.25</ele><time>2026-05-02T09:35:27.962Z</time></trkpt><trkpt lat="44.0190505" lon="11.3029619"><ele>316.5</ele><time>2026-05-02T09:35:28.984Z</time></trkpt><trkpt lat="44.0189136" lon="11.3029476"><ele>315.75</ele><time>2026-05-02T09:35:29.968Z</time></trkpt><trkpt lat="44.0187721" lon="11.3029354"><ele>315.0</ele><time>2026-05-02T09:35:31.03Z</time></trkpt><trkpt lat="44.0186389" lon="11.3029179"><ele>315.0</ele><time>2026-05-02T09:35:32.031Z</time></trkpt><trkpt lat="44.0185225" lon="11.302869"><ele>315.0</ele><time>2026-05-02T09:35:32.957Z</time></trkpt><trkpt lat="44.0183946" lon="11.3027891"><ele>315.0</ele><time>2026-05-02T09:35:33.973Z</time></trkpt><trkpt lat="44.0182773" lon="11.3026776"><ele>315.0</ele><time>2026-05-02T09:35:34.966Z</time></trkpt><trkpt lat="44.0181722" lon="11.3025607"><ele>314.2</ele><time>2026-05-02T09:35:35.972Z</time></trkpt><trkpt lat="44.0180868" lon="11.3024447"><ele>313.4</ele><time>2026-05-02T09:35:36.961Z</time></trkpt><trkpt lat="44.0180258" lon="11.3023384"><ele>312.6</ele><time>2026-05-02T09:35:37.97Z</time></trkpt><trkpt lat="44.017973" lon="11.3022244"><ele>311.8</ele><time>2026-05-02T09:35:39.032Z</time></trkpt><trkpt lat="44.0179334" lon="11.3020945"><ele>311.0</ele><time>2026-05-02T09:35:40.035Z</time></trkpt><trkpt lat="44.0179008" lon="11.3019444"><ele>310.25</ele><time>2026-05-02T09:35:40.957Z</time></trkpt><trkpt lat="44.017877" lon="11.3017702"><ele>309.5</ele><time>2026-05-02T09:35:41.963Z</time></trkpt><trkpt lat="44.0178473" lon="11.3015811"><ele>308.75</ele><time>2026-05-02T09:35:42.967Z</time></trkpt><trkpt lat="44.0178126" lon="11.3013905"><ele>308.0</ele><time>2026-05-02T09:35:43.968Z</time></trkpt><trkpt lat="44.0177774" lon="11.3011857"><ele>306.6666666666667</ele><time>2026-05-02T09:35:44.968Z</time></trkpt><trkpt lat="44.017748" lon="11.3009756"><ele>305.3333333333333</ele><time>2026-05-02T09:35:45.976Z</time></trkpt><trkpt lat="44.0177181" lon="11.300768"><ele>304.0</ele><time>2026-05-02T09:35:47.034Z</time></trkpt><trkpt lat="44.0176832" lon="11.3005682"><ele>302.75</ele><time>2026-05-02T09:35:47.965Z</time></trkpt><trkpt lat="44.0176477" lon="11.3003655"><ele>301.5</ele><time>2026-05-02T09:35:48.97Z</time></trkpt><trkpt lat="44.0176158" lon="11.3001726"><ele>300.25</ele><time>2026-05-02T09:35:49.99Z</time></trkpt><trkpt lat="44.0175834" lon="11.299992"><ele>299.0</ele><time>2026-05-02T09:35:51.034Z</time></trkpt><trkpt lat="44.017549" lon="11.2998159"><ele>298.0</ele><time>2026-05-02T09:35:52.021Z</time></trkpt><trkpt lat="44.0175195" lon="11.299643"><ele>297.0</ele><time>2026-05-02T09:35:52.964Z</time></trkpt><trkpt lat="44.0174934" lon="11.2994774"><ele>296.0</ele><time>2026-05-02T09:35:53.972Z</time></trkpt><trkpt lat="44.0174701" lon="11.2993089"><ele>295.0</ele><time>2026-05-02T09:35:55.004Z</time></trkpt><trkpt lat="44.0174473" lon="11.2991383"><ele>295.0</ele><time>2026-05-02T09:35:56.039Z</time></trkpt><trkpt lat="44.0174245" lon="11.2989661"><ele>295.0</ele><time>2026-05-02T09:35:56.98Z</time></trkpt><trkpt lat="44.0173993" lon="11.2987978"><ele>295.0</ele><time>2026-05-02T09:35:57.96Z</time></trkpt><trkpt lat="44.0173757" lon="11.2986183"><ele>295.0</ele><time>2026-05-02T09:35:59.036Z</time></trkpt><trkpt lat="44.0173584" lon="11.2984311"><ele>295.0</ele><time>2026-05-02T09:36:00.033Z</time></trkpt><trkpt lat="44.0173601" lon="11.2982444"><ele>295.0</ele><time>2026-05-02T09:36:01.037Z</time></trkpt><trkpt lat="44.0173852" lon="11.2980574"><ele>295.0</ele><time>2026-05-02T09:36:01.98Z</time></trkpt><trkpt lat="44.0174318" lon="11.2978838"><ele>295.0</ele><time>2026-05-02T09:36:02.953Z</time></trkpt><trkpt lat="44.0174912" lon="11.2977197"><ele>298.75</ele><time>2026-05-02T09:36:04.038Z</time></trkpt><trkpt lat="44.0175474" lon="11.297558"><ele>302.5</ele><time>2026-05-02T09:36:05.033Z</time></trkpt><trkpt lat="44.0176011" lon="11.2973906"><ele>306.25</ele><time>2026-05-02T09:36:06.024Z</time></trkpt><trkpt lat="44.0176441" lon="11.297224"><ele>310.0</ele><time>2026-05-02T09:36:07.037Z</time></trkpt><trkpt lat="44.0176692" lon="11.2970656"><ele>310.2</ele><time>2026-05-02T09:36:07.957Z</time></trkpt><trkpt lat="44.017674" lon="11.2969197"><ele>310.4</ele><time>2026-05-02T09:36:08.96Z</time></trkpt><trkpt lat="44.0176507" lon="11.2967683"><ele>310.6</ele><time>2026-05-02T09:36:09.966Z</time></trkpt><trkpt lat="44.0175991" lon="11.2966344"><ele>310.8</ele><time>2026-05-02T09:36:11.037Z</time></trkpt><trkpt lat="44.0175375" lon="11.2965108"><ele>311.0</ele><time>2026-05-02T09:36:11.965Z</time></trkpt><trkpt lat="44.0174775" lon="11.2964031"><ele>311.0</ele><time>2026-05-02T09:36:12.964Z</time></trkpt><trkpt lat="44.0174304" lon="11.2963078"><ele>311.0</ele><time>2026-05-02T09:36:13.959Z</time></trkpt><trkpt lat="44.0173598" lon="11.2962128"><ele>311.0</ele><time>2026-05-02T09:36:15.956Z</time></trkpt><trkpt lat="44.0172896" lon="11.2962198"><ele>311.0</ele><time>2026-05-02T09:36:17.962Z</time></trkpt><trkpt lat="44.0172082" lon="11.2962719"><ele>311.0</ele><time>2026-05-02T09:36:20.031Z</time></trkpt><trkpt lat="44.0170911" lon="11.2962763"><ele>311.0</ele><time>2026-05-02T09:36:21.963Z</time></trkpt><trkpt lat="44.0170278" lon="11.296274"><ele>311.0</ele><time>2026-05-02T09:36:22.968Z</time></trkpt><trkpt lat="44.016963" lon="11.2962731"><ele>311.0</ele><time>2026-05-02T09:36:23.959Z</time></trkpt><trkpt lat="44.0168965" lon="11.2962696"><ele>311.0</ele><time>2026-05-02T09:36:24.963Z</time></trkpt><trkpt lat="44.01683" lon="11.2962724"><ele>311.0</ele><time>2026-05-02T09:36:25.96Z</time></trkpt><trkpt lat="44.0167637" lon="11.2962773"><ele>311.0</ele><time>2026-05-02T09:36:26.972Z</time></trkpt><trkpt lat="44.016692" lon="11.2962696"><ele>311.0</ele><time>2026-05-02T09:36:27.959Z</time></trkpt><trkpt lat="44.0166223" lon="11.2962575"><ele>311.2</ele><time>2026-05-02T09:36:28.967Z</time></trkpt><trkpt lat="44.0165577" lon="11.2962497"><ele>311.40000000000003</ele><time>2026-05-02T09:36:29.979Z</time></trkpt><trkpt lat="44.0164466" lon="11.2962312"><ele>311.6</ele><time>2026-05-02T09:36:32.03Z</time></trkpt><trkpt lat="44.0163381" lon="11.2962213"><ele>311.8</ele><time>2026-05-02T09:36:33.962Z</time></trkpt><trkpt lat="44.0162219" lon="11.2962518"><ele>312.0</ele><time>2026-05-02T09:36:35.963Z</time></trkpt><trkpt lat="44.0161032" lon="11.296294"><ele>312.0</ele><time>2026-05-02T09:36:37.967Z</time></trkpt><trkpt lat="44.01604" lon="11.2963163"><ele>312.0</ele><time>2026-05-02T09:36:38.961Z</time></trkpt><trkpt lat="44.0159712" lon="11.2963404"><ele>312.0</ele><time>2026-05-02T09:36:40.069Z</time></trkpt><trkpt lat="44.0159059" lon="11.2963782"><ele>312.0</ele><time>2026-05-02T09:36:40.971Z</time></trkpt><trkpt lat="44.0158426" lon="11.2964111"><ele>312.0</ele><time>2026-05-02T09:36:41.973Z</time></trkpt><trkpt lat="44.0157767" lon="11.2964417"><ele>312.0</ele><time>2026-05-02T09:36:42.965Z</time></trkpt><trkpt lat="44.0157077" lon="11.296459"><ele>312.0</ele><time>2026-05-02T09:36:43.971Z</time></trkpt><trkpt lat="44.0156435" lon="11.2964893"><ele>314.6</ele><time>2026-05-02T09:36:44.97Z</time></trkpt><trkpt lat="44.0155821" lon="11.296516"><ele>317.2</ele><time>2026-05-02T09:36:45.972Z</time></trkpt><trkpt lat="44.0154619" lon="11.2965592"><ele>319.8</ele><time>2026-05-02T09:36:47.971Z</time></trkpt><trkpt lat="44.0153407" lon="11.2966082"><ele>322.4</ele><time>2026-05-02T09:36:50.026Z</time></trkpt><trkpt lat="44.0152267" lon="11.296659"><ele>325.0</ele><time>2026-05-02T09:36:52.035Z</time></trkpt><trkpt lat="44.0151132" lon="11.2967211"><ele>325.0</ele><time>2026-05-02T09:36:53.965Z</time></trkpt><trkpt lat="44.015049" lon="11.2967517"><ele>325.0</ele><time>2026-05-02T09:36:54.986Z</time></trkpt><trkpt lat="44.0149841" lon="11.2967733"><ele>325.0</ele><time>2026-05-02T09:36:55.973Z</time></trkpt><trkpt lat="44.0149172" lon="11.2967978"><ele>325.0</ele><time>2026-05-02T09:36:56.972Z</time></trkpt><trkpt lat="44.0148471" lon="11.2968206"><ele>325.0</ele><time>2026-05-02T09:36:57.975Z</time></trkpt><trkpt lat="44.0147715" lon="11.2968429"><ele>325.0</ele><time>2026-05-02T09:36:58.974Z</time></trkpt><trkpt lat="44.014695" lon="11.2968568"><ele>325.0</ele><time>2026-05-02T09:37:00.04Z</time></trkpt><trkpt lat="44.0146169" lon="11.2968576"><ele>325.8</ele><time>2026-05-02T09:37:01.035Z</time></trkpt><trkpt lat="44.0145442" lon="11.2968608"><ele>326.6</ele><time>2026-05-02T09:37:02.043Z</time></trkpt><trkpt lat="44.0144813" lon="11.2968699"><ele>327.4</ele><time>2026-05-02T09:37:02.972Z</time></trkpt><trkpt lat="44.0143644" lon="11.2968887"><ele>328.2</ele><time>2026-05-02T09:37:04.97Z</time></trkpt><trkpt lat="44.0142599" lon="11.2968966"><ele>329.0</ele><time>2026-05-02T09:37:06.979Z</time></trkpt><trkpt lat="44.0141452" lon="11.2968993"><ele>329.0</ele><time>2026-05-02T09:37:08.973Z</time></trkpt><trkpt lat="44.0140294" lon="11.2969161"><ele>329.0</ele><time>2026-05-02T09:37:11.033Z</time></trkpt><trkpt lat="44.0139015" lon="11.2969447"><ele>329.0</ele><time>2026-05-02T09:37:12.978Z</time></trkpt><trkpt lat="44.0138346" lon="11.296959"><ele>329.0</ele><time>2026-05-02T09:37:13.974Z</time></trkpt><trkpt lat="44.0137711" lon="11.2969772"><ele>329.0</ele><time>2026-05-02T09:37:14.981Z</time></trkpt><trkpt lat="44.0137069" lon="11.2969914"><ele>329.0</ele><time>2026-05-02T09:37:16.036Z</time></trkpt><trkpt lat="44.0136432" lon="11.2969968"><ele>329.0</ele><time>2026-05-02T09:37:17.029Z</time></trkpt><trkpt lat="44.0135737" lon="11.2970034"><ele>329.0</ele><time>2026-05-02T09:37:17.957Z</time></trkpt><trkpt lat="44.0135043" lon="11.2970137"><ele>329.0</ele><time>2026-05-02T09:37:18.968Z</time></trkpt><trkpt lat="44.0134352" lon="11.2970202"><ele>329.0</ele><time>2026-05-02T09:37:19.976Z</time></trkpt><trkpt lat="44.0133639" lon="11.2970244"><ele>329.0</ele><time>2026-05-02T09:37:21.038Z</time></trkpt><trkpt lat="44.0132952" lon="11.2970206"><ele>329.0</ele><time>2026-05-02T09:37:21.961Z</time></trkpt><trkpt lat="44.0132319" lon="11.2970278"><ele>329.0</ele><time>2026-05-02T09:37:22.967Z</time></trkpt><trkpt lat="44.0131169" lon="11.2970533"><ele>328.6</ele><time>2026-05-02T09:37:24.963Z</time></trkpt><trkpt lat="44.01301" lon="11.2970731"><ele>328.2</ele><time>2026-05-02T09:37:27.038Z</time></trkpt><trkpt lat="44.0128978" lon="11.2970786"><ele>327.8</ele><time>2026-05-02T09:37:28.973Z</time></trkpt><trkpt lat="44.0128348" lon="11.2970748"><ele>327.40000000000003</ele><time>2026-05-02T09:37:29.972Z</time></trkpt><trkpt lat="44.0127137" lon="11.2970834"><ele>327.0</ele><time>2026-05-02T09:37:31.99Z</time></trkpt><trkpt lat="44.0125993" lon="11.2971159"><ele>326.20000000000005</ele><time>2026-05-02T09:37:33.961Z</time></trkpt><trkpt lat="44.0124831" lon="11.2971564"><ele>325.4</ele><time>2026-05-02T09:37:35.959Z</time></trkpt><trkpt lat="44.0123749" lon="11.2971924"><ele>324.6</ele><time>2026-05-02T09:37:37.965Z</time></trkpt><trkpt lat="44.0122583" lon="11.2972285"><ele>323.79999999999995</ele><time>2026-05-02T09:37:39.965Z</time></trkpt><trkpt lat="44.0121971" lon="11.2972511"><ele>323.0</ele><time>2026-05-02T09:37:40.97Z</time></trkpt><trkpt lat="44.0120868" lon="11.2972847"><ele>323.0</ele><time>2026-05-02T09:37:42.966Z</time></trkpt><trkpt lat="44.0119956" lon="11.2972874"><ele>323.0</ele><time>2026-05-02T09:37:44.969Z</time></trkpt><trkpt lat="44.0119378" lon="11.2972234"><ele>323.0</ele><time>2026-05-02T09:37:46.964Z</time></trkpt><trkpt lat="44.011885" lon="11.2971138"><ele>323.0</ele><time>2026-05-02T09:37:48.97Z</time></trkpt><trkpt lat="44.0118481" lon="11.296975"><ele>323.0</ele><time>2026-05-02T09:37:51.046Z</time></trkpt><trkpt lat="44.011817" lon="11.2968542"><ele>323.0</ele><time>2026-05-02T09:37:52.977Z</time></trkpt><trkpt lat="44.0117898" lon="11.2967439"><ele>323.0</ele><time>2026-05-02T09:37:54.966Z</time></trkpt><trkpt lat="44.0117262" lon="11.2966808"><ele>323.0</ele><time>2026-05-02T09:37:56.967Z</time></trkpt><trkpt lat="44.0116415" lon="11.296686"><ele>323.0</ele><time>2026-05-02T09:37:58.973Z</time></trkpt><trkpt lat="44.0115438" lon="11.2967056"><ele>323.0</ele><time>2026-05-02T09:38:00.971Z</time></trkpt><trkpt lat="44.0114422" lon="11.2967231"><ele>323.0</ele><time>2026-05-02T09:38:02.965Z</time></trkpt><trkpt lat="44.0113216" lon="11.2967432"><ele>322.75</ele><time>2026-05-02T09:38:04.963Z</time></trkpt><trkpt lat="44.0112031" lon="11.296755"><ele>322.5</ele><time>2026-05-02T09:38:06.965Z</time></trkpt><trkpt lat="44.0110855" lon="11.296747"><ele>322.25</ele><time>2026-05-02T09:38:08.967Z</time></trkpt><trkpt lat="44.0109679" lon="11.2967434"><ele>322.0</ele><time>2026-05-02T09:38:11.042Z</time></trkpt><trkpt lat="44.0108503" lon="11.2967672"><ele>321.8</ele><time>2026-05-02T09:38:12.942Z</time></trkpt><trkpt lat="44.0107272" lon="11.2967808"><ele>321.6</ele><time>2026-05-02T09:38:14.964Z</time></trkpt><trkpt lat="44.0106266" lon="11.2968123"><ele>321.40000000000003</ele><time>2026-05-02T09:38:16.968Z</time></trkpt><trkpt lat="44.0105697" lon="11.2968994"><ele>321.20000000000005</ele><time>2026-05-02T09:38:18.963Z</time></trkpt><trkpt lat="44.0105543" lon="11.297033"><ele>321.0</ele><time>2026-05-02T09:38:20.965Z</time></trkpt><trkpt lat="44.0105464" lon="11.2971799"><ele>321.0</ele><time>2026-05-02T09:38:22.963Z</time></trkpt><trkpt lat="44.0105379" lon="11.2973379"><ele>321.0</ele><time>2026-05-02T09:38:24.967Z</time></trkpt><trkpt lat="44.0105234" lon="11.2974988"><ele>321.0</ele><time>2026-05-02T09:38:26.964Z</time></trkpt><trkpt lat="44.0105144" lon="11.2976554"><ele>321.0</ele><time>2026-05-02T09:38:28.975Z</time></trkpt><trkpt lat="44.0104997" lon="11.2978083"><ele>321.0</ele><time>2026-05-02T09:38:31.027Z</time></trkpt><trkpt lat="44.0104937" lon="11.2979571"><ele>321.0</ele><time>2026-05-02T09:38:32.973Z</time></trkpt><trkpt lat="44.0104767" lon="11.2980885"><ele>321.0</ele><time>2026-05-02T09:38:35.001Z</time></trkpt><trkpt lat="44.0104207" lon="11.2981796"><ele>321.0</ele><time>2026-05-02T09:38:36.977Z</time></trkpt><trkpt lat="44.0103377" lon="11.2982055"><ele>321.0</ele><time>2026-05-02T09:38:38.98Z</time></trkpt><trkpt lat="44.0102485" lon="11.2982298"><ele>319.8</ele><time>2026-05-02T09:38:40.963Z</time></trkpt><trkpt lat="44.0101539" lon="11.2982585"><ele>318.6</ele><time>2026-05-02T09:38:42.974Z</time></trkpt><trkpt lat="44.0100542" lon="11.2982879"><ele>317.4</ele><time>2026-05-02T09:38:44.996Z</time></trkpt><trkpt lat="44.0099582" lon="11.2983342"><ele>316.2</ele><time>2026-05-02T09:38:46.979Z</time></trkpt><trkpt lat="44.0098731" lon="11.2983662"><ele>315.0</ele><time>2026-05-02T09:38:48.981Z</time></trkpt><trkpt lat="44.0097822" lon="11.2984009"><ele>315.0</ele><time>2026-05-02T09:38:50.987Z</time></trkpt><trkpt lat="44.0096833" lon="11.298423"><ele>315.0</ele><time>2026-05-02T09:38:52.972Z</time></trkpt><trkpt lat="44.0096048" lon="11.2984157"><ele>315.0</ele><time>2026-05-02T09:38:55.036Z</time></trkpt><trkpt lat="44.009525" lon="11.2983907"><ele>315.0</ele><time>2026-05-02T09:38:57.952Z</time></trkpt><trkpt lat="44.0094775" lon="11.2984717"><ele>315.0</ele><time>2026-05-02T09:38:59.953Z</time></trkpt><trkpt lat="44.0094276" lon="11.2986096"><ele>315.0</ele><time>2026-05-02T09:39:01.969Z</time></trkpt><trkpt lat="44.009386" lon="11.2986891"><ele>315.0</ele><time>2026-05-02T09:39:02.972Z</time></trkpt><trkpt lat="44.0093443" lon="11.2987789"><ele>315.0</ele><time>2026-05-02T09:39:03.948Z</time></trkpt><trkpt lat="44.0092951" lon="11.2988674"><ele>315.0</ele><time>2026-05-02T09:39:04.954Z</time></trkpt><trkpt lat="44.0092378" lon="11.2989543"><ele>315.0</ele><time>2026-05-02T09:39:05.967Z</time></trkpt><trkpt lat="44.0091788" lon="11.2990579"><ele>315.0</ele><time>2026-05-02T09:39:07.045Z</time></trkpt><trkpt lat="44.0091225" lon="11.2991658"><ele>315.0</ele><time>2026-05-02T09:39:07.966Z</time></trkpt><trkpt lat="44.009056" lon="11.2992723"><ele>314.2</ele><time>2026-05-02T09:39:08.97Z</time></trkpt><trkpt lat="44.0089835" lon="11.2993855"><ele>313.4</ele><time>2026-05-02T09:39:10Z</time></trkpt><trkpt lat="44.0089151" lon="11.2994952"><ele>312.6</ele><time>2026-05-02T09:39:11.034Z</time></trkpt><trkpt lat="44.0088463" lon="11.2995968"><ele>311.8</ele><time>2026-05-02T09:39:12.029Z</time></trkpt><trkpt lat="44.0087792" lon="11.2996974"><ele>311.0</ele><time>2026-05-02T09:39:12.95Z</time></trkpt><trkpt lat="44.0087112" lon="11.2997952"><ele>310.0</ele><time>2026-05-02T09:39:13.965Z</time></trkpt><trkpt lat="44.0086422" lon="11.2998922"><ele>309.0</ele><time>2026-05-02T09:39:14.958Z</time></trkpt><trkpt lat="44.0085745" lon="11.2999926"><ele>308.0</ele><time>2026-05-02T09:39:15.986Z</time></trkpt><trkpt lat="44.0085131" lon="11.3000897"><ele>307.0</ele><time>2026-05-02T09:39:16.948Z</time></trkpt><trkpt lat="44.0084518" lon="11.300186"><ele>306.0</ele><time>2026-05-02T09:39:17.959Z</time></trkpt><trkpt lat="44.0083915" lon="11.3002709"><ele>306.0</ele><time>2026-05-02T09:39:18.948Z</time></trkpt><trkpt lat="44.0083329" lon="11.3003625"><ele>306.0</ele><time>2026-05-02T09:39:19.951Z</time></trkpt><trkpt lat="44.008274" lon="11.3004513"><ele>306.0</ele><time>2026-05-02T09:39:20.958Z</time></trkpt><trkpt lat="44.0082165" lon="11.3005401"><ele>306.0</ele><time>2026-05-02T09:39:21.96Z</time></trkpt><trkpt lat="44.0081622" lon="11.3006184"><ele>306.0</ele><time>2026-05-02T09:39:22.96Z</time></trkpt><trkpt lat="44.0081079" lon="11.3006859"><ele>306.0</ele><time>2026-05-02T09:39:24.041Z</time></trkpt><trkpt lat="44.0080453" lon="11.3007403"><ele>305.3333333333333</ele><time>2026-05-02T09:39:24.979Z</time></trkpt><trkpt lat="44.0079691" lon="11.300786"><ele>304.6666666666667</ele><time>2026-05-02T09:39:25.958Z</time></trkpt><trkpt lat="44.0078902" lon="11.3008095"><ele>304.0</ele><time>2026-05-02T09:39:27.04Z</time></trkpt><trkpt lat="44.0078068" lon="11.3008261"><ele>303.33333333333337</ele><time>2026-05-02T09:39:27.968Z</time></trkpt><trkpt lat="44.0077185" lon="11.3008355"><ele>302.6666666666667</ele><time>2026-05-02T09:39:28.968Z</time></trkpt><trkpt lat="44.0076296" lon="11.3008507"><ele>302.0</ele><time>2026-05-02T09:39:29.96Z</time></trkpt><trkpt lat="44.0075466" lon="11.3008852"><ele>301.33333333333337</ele><time>2026-05-02T09:39:30.967Z</time></trkpt><trkpt lat="44.0074702" lon="11.3009241"><ele>300.6666666666667</ele><time>2026-05-02T09:39:31.951Z</time></trkpt><trkpt lat="44.0073983" lon="11.3009733"><ele>300.0</ele><time>2026-05-02T09:39:32.958Z</time></trkpt><trkpt lat="44.0073318" lon="11.3010095"><ele>299.3333333333333</ele><time>2026-05-02T09:39:33.963Z</time></trkpt><trkpt lat="44.0072648" lon="11.301057"><ele>298.66666666666663</ele><time>2026-05-02T09:39:34.964Z</time></trkpt><trkpt lat="44.0072086" lon="11.3011128"><ele>298.0</ele><time>2026-05-02T09:39:35.957Z</time></trkpt><trkpt lat="44.0071282" lon="11.3012511"><ele>298.0</ele><time>2026-05-02T09:39:37.97Z</time></trkpt><trkpt lat="44.0071058" lon="11.3013501"><ele>298.0</ele><time>2026-05-02T09:39:38.972Z</time></trkpt><trkpt lat="44.0071076" lon="11.3014609"><ele>298.0</ele><time>2026-05-02T09:39:39.966Z</time></trkpt><trkpt lat="44.0071106" lon="11.3015735"><ele>298.0</ele><time>2026-05-02T09:39:40.959Z</time></trkpt><trkpt lat="44.0071184" lon="11.3016911"><ele>298.0</ele><time>2026-05-02T09:39:41.969Z</time></trkpt><trkpt lat="44.0071273" lon="11.3018076"><ele>298.0</ele><time>2026-05-02T09:39:42.964Z</time></trkpt><trkpt lat="44.0071322" lon="11.3019214"><ele>298.0</ele><time>2026-05-02T09:39:43.968Z</time></trkpt><trkpt lat="44.0071238" lon="11.3020334"><ele>298.0</ele><time>2026-05-02T09:39:44.974Z</time></trkpt><trkpt lat="44.0071031" lon="11.3021415"><ele>298.0</ele><time>2026-05-02T09:39:45.967Z</time></trkpt><trkpt lat="44.0070745" lon="11.3022426"><ele>298.0</ele><time>2026-05-02T09:39:46.979Z</time></trkpt><trkpt lat="44.0070341" lon="11.3023405"><ele>298.0</ele><time>2026-05-02T09:39:47.978Z</time></trkpt><trkpt lat="44.0069797" lon="11.3024277"><ele>298.0</ele><time>2026-05-02T09:39:48.966Z</time></trkpt><trkpt lat="44.0069187" lon="11.3025203"><ele>297.5</ele><time>2026-05-02T09:39:49.971Z</time></trkpt><trkpt lat="44.0068634" lon="11.3026003"><ele>297.0</ele><time>2026-05-02T09:39:50.964Z</time></trkpt><trkpt lat="44.0068045" lon="11.3026862"><ele>296.5</ele><time>2026-05-02T09:39:51.977Z</time></trkpt><trkpt lat="44.0067544" lon="11.3027701"><ele>296.0</ele><time>2026-05-02T09:39:52.974Z</time></trkpt><trkpt lat="44.0067002" lon="11.3028435"><ele>295.5</ele><time>2026-05-02T09:39:53.971Z</time></trkpt><trkpt lat="44.0066495" lon="11.3029074"><ele>295.0</ele><time>2026-05-02T09:39:54.968Z</time></trkpt><trkpt lat="44.0066055" lon="11.3029781"><ele>294.5</ele><time>2026-05-02T09:39:55.972Z</time></trkpt><trkpt lat="44.0065322" lon="11.3031021"><ele>294.0</ele><time>2026-05-02T09:39:57.965Z</time></trkpt><trkpt lat="44.0064704" lon="11.3031957"><ele>293.5</ele><time>2026-05-02T09:39:59.974Z</time></trkpt><trkpt lat="44.0064191" lon="11.3032718"><ele>293.0</ele><time>2026-05-02T09:40:02.963Z</time></trkpt><trkpt lat="44.0063716" lon="11.3033472"><ele>292.5</ele><time>2026-05-02T09:41:27.969Z</time></trkpt><trkpt lat="44.006324" lon="11.3034259"><ele>292.0</ele><time>2026-05-02T09:41:30.972Z</time></trkpt><trkpt lat="44.0062595" lon="11.3035055"><ele>292.0</ele><time>2026-05-02T09:41:33.964Z</time></trkpt><trkpt lat="44.0062146" lon="11.3035754"><ele>292.0</ele><time>2026-05-02T09:41:35.968Z</time></trkpt><trkpt lat="44.00616" lon="11.303633"><ele>292.0</ele><time>2026-05-02T09:41:37.973Z</time></trkpt><trkpt lat="44.0061003" lon="11.303717"><ele>292.0</ele><time>2026-05-02T09:41:39.973Z</time></trkpt><trkpt lat="44.0060433" lon="11.3038049"><ele>292.0</ele><time>2026-05-02T09:41:41.968Z</time></trkpt><trkpt lat="44.0059783" lon="11.3038969"><ele>292.0</ele><time>2026-05-02T09:41:43.971Z</time></trkpt><trkpt lat="44.0059084" lon="11.3040048"><ele>291.8</ele><time>2026-05-02T09:41:45.976Z</time></trkpt><trkpt lat="44.0058373" lon="11.3041205"><ele>291.6</ele><time>2026-05-02T09:41:47.974Z</time></trkpt><trkpt lat="44.0057673" lon="11.304214"><ele>291.40000000000003</ele><time>2026-05-02T09:41:49.979Z</time></trkpt><trkpt lat="44.0056916" lon="11.3043034"><ele>291.2</ele><time>2026-05-02T09:41:51.97Z</time></trkpt><trkpt lat="44.0056281" lon="11.3043979"><ele>291.0</ele><time>2026-05-02T09:41:53.97Z</time></trkpt><trkpt lat="44.0055633" lon="11.3045106"><ele>291.0</ele><time>2026-05-02T09:41:55.97Z</time></trkpt><trkpt lat="44.0054791" lon="11.3046241"><ele>291.0</ele><time>2026-05-02T09:41:57.967Z</time></trkpt><trkpt lat="44.0054048" lon="11.3047118"><ele>291.0</ele><time>2026-05-02T09:41:59.973Z</time></trkpt><trkpt lat="44.0053513" lon="11.3047942"><ele>291.0</ele><time>2026-05-02T09:42:01.966Z</time></trkpt><trkpt lat="44.0052827" lon="11.3048894"><ele>291.0</ele><time>2026-05-02T09:42:03.959Z</time></trkpt><trkpt lat="44.0051829" lon="11.3049678"><ele>291.1428571428571</ele><time>2026-05-02T09:42:05.963Z</time></trkpt><trkpt lat="44.0051187" lon="11.3049974"><ele>291.2857142857143</ele><time>2026-05-02T09:42:06.97Z</time></trkpt><trkpt lat="44.0050517" lon="11.3050158"><ele>291.42857142857144</ele><time>2026-05-02T09:42:07.973Z</time></trkpt><trkpt lat="44.0049836" lon="11.3050285"><ele>291.57142857142856</ele><time>2026-05-02T09:42:08.965Z</time></trkpt><trkpt lat="44.0049137" lon="11.3050476"><ele>291.7142857142857</ele><time>2026-05-02T09:42:09.966Z</time></trkpt><trkpt lat="44.0048474" lon="11.3050711"><ele>291.85714285714283</ele><time>2026-05-02T09:42:10.968Z</time></trkpt><trkpt lat="44.0047825" lon="11.3050936"><ele>292.0</ele><time>2026-05-02T09:42:11.967Z</time></trkpt><trkpt lat="44.0047158" lon="11.3051241"><ele>292.0</ele><time>2026-05-02T09:42:12.961Z</time></trkpt><trkpt lat="44.0046513" lon="11.305153"><ele>292.0</ele><time>2026-05-02T09:42:13.968Z</time></trkpt><trkpt lat="44.004542" lon="11.3052345"><ele>292.0</ele><time>2026-05-02T09:42:15.967Z</time></trkpt><trkpt lat="44.0044389" lon="11.3052964"><ele>292.0</ele><time>2026-05-02T09:42:17.971Z</time></trkpt><trkpt lat="44.0043214" lon="11.3053253"><ele>292.0</ele><time>2026-05-02T09:42:19.966Z</time></trkpt><trkpt lat="44.004212" lon="11.3053537"><ele>291.25</ele><time>2026-05-02T09:42:21.972Z</time></trkpt><trkpt lat="44.0040956" lon="11.3053649"><ele>290.5</ele><time>2026-05-02T09:42:23.96Z</time></trkpt><trkpt lat="44.0039705" lon="11.3053499"><ele>289.75</ele><time>2026-05-02T09:42:25.967Z</time></trkpt><trkpt lat="44.0038527" lon="11.3053414"><ele>289.0</ele><time>2026-05-02T09:42:27.971Z</time></trkpt><trkpt lat="44.0037252" lon="11.3053492"><ele>289.0</ele><time>2026-05-02T09:42:29.954Z</time></trkpt><trkpt lat="44.0036566" lon="11.3053652"><ele>289.0</ele><time>2026-05-02T09:42:30.972Z</time></trkpt><trkpt lat="44.0035821" lon="11.3053974"><ele>289.0</ele><time>2026-05-02T09:42:31.985Z</time></trkpt><trkpt lat="44.0035094" lon="11.305417"><ele>289.0</ele><time>2026-05-02T09:42:32.981Z</time></trkpt><trkpt lat="44.0034382" lon="11.3054408"><ele>289.0</ele><time>2026-05-02T09:42:33.976Z</time></trkpt><trkpt lat="44.0033568" lon="11.305461"><ele>289.0</ele><time>2026-05-02T09:42:34.972Z</time></trkpt><trkpt lat="44.0032744" lon="11.305466"><ele>288.16666666666663</ele><time>2026-05-02T09:42:35.978Z</time></trkpt><trkpt lat="44.0031914" lon="11.3054703"><ele>287.3333333333333</ele><time>2026-05-02T09:42:36.971Z</time></trkpt><trkpt lat="44.0031065" lon="11.3054745"><ele>286.5</ele><time>2026-05-02T09:42:37.976Z</time></trkpt><trkpt lat="44.0030192" lon="11.3054781"><ele>285.6666666666667</ele><time>2026-05-02T09:42:38.973Z</time></trkpt><trkpt lat="44.0029354" lon="11.305486"><ele>284.83333333333337</ele><time>2026-05-02T09:42:39.968Z</time></trkpt><trkpt lat="44.0028506" lon="11.3054991"><ele>284.0</ele><time>2026-05-02T09:42:40.967Z</time></trkpt><trkpt lat="44.002766" lon="11.3055255"><ele>284.0</ele><time>2026-05-02T09:42:41.972Z</time></trkpt><trkpt lat="44.002685" lon="11.305562"><ele>284.0</ele><time>2026-05-02T09:42:42.97Z</time></trkpt><trkpt lat="44.0026114" lon="11.3055947"><ele>284.0</ele><time>2026-05-02T09:42:43.972Z</time></trkpt><trkpt lat="44.0025391" lon="11.3056191"><ele>284.0</ele><time>2026-05-02T09:42:44.971Z</time></trkpt><trkpt lat="44.0024748" lon="11.3056392"><ele>284.0</ele><time>2026-05-02T09:42:45.976Z</time></trkpt><trkpt lat="44.0023879" lon="11.3056073"><ele>284.0</ele><time>2026-05-02T09:42:47.974Z</time></trkpt><trkpt lat="44.0023316" lon="11.3054879"><ele>283.5</ele><time>2026-05-02T09:42:49.976Z</time></trkpt><trkpt lat="44.0023092" lon="11.3053946"><ele>283.0</ele><time>2026-05-02T09:42:50.966Z</time></trkpt><trkpt lat="44.0022866" lon="11.3052743"><ele>282.5</ele><time>2026-05-02T09:42:51.971Z</time></trkpt><trkpt lat="44.0022589" lon="11.3051509"><ele>282.0</ele><time>2026-05-02T09:42:52.964Z</time></trkpt><trkpt lat="44.0022333" lon="11.3050344"><ele>281.5</ele><time>2026-05-02T09:42:53.971Z</time></trkpt><trkpt lat="44.0022051" lon="11.3049151"><ele>281.0</ele><time>2026-05-02T09:42:54.967Z</time></trkpt><trkpt lat="44.0021808" lon="11.3048"><ele>281.6666666666667</ele><time>2026-05-02T09:42:55.967Z</time></trkpt><trkpt lat="44.0021625" lon="11.3046898"><ele>282.33333333333337</ele><time>2026-05-02T09:42:56.961Z</time></trkpt><trkpt lat="44.0021532" lon="11.3045788"><ele>283.0</ele><time>2026-05-02T09:42:57.954Z</time></trkpt><trkpt lat="44.0021585" lon="11.3044635"><ele>283.6666666666667</ele><time>2026-05-02T09:42:58.976Z</time></trkpt><trkpt lat="44.0021615" lon="11.3043479"><ele>284.3333333333333</ele><time>2026-05-02T09:42:59.958Z</time></trkpt><trkpt lat="44.0021648" lon="11.3042424"><ele>285.0</ele><time>2026-05-02T09:43:00.978Z</time></trkpt><trkpt lat="44.0021606" lon="11.3041402"><ele>285.0</ele><time>2026-05-02T09:43:01.982Z</time></trkpt><trkpt lat="44.0021615" lon="11.3040507"><ele>285.0</ele><time>2026-05-02T09:43:02.983Z</time></trkpt><trkpt lat="44.002174" lon="11.303906"><ele>285.0</ele><time>2026-05-02T09:43:04.974Z</time></trkpt><trkpt lat="44.0022119" lon="11.3038023"><ele>285.0</ele><time>2026-05-02T09:43:06.973Z</time></trkpt><trkpt lat="44.0022383" lon="11.3036983"><ele>285.0</ele><time>2026-05-02T09:43:08.981Z</time></trkpt><trkpt lat="44.0022245" lon="11.3035791"><ele>285.0</ele><time>2026-05-02T09:43:10.976Z</time></trkpt><trkpt lat="44.0022019" lon="11.3034299"><ele>285.1666666666667</ele><time>2026-05-02T09:43:12.961Z</time></trkpt><trkpt lat="44.0021925" lon="11.303267"><ele>285.3333333333333</ele><time>2026-05-02T09:43:14.978Z</time></trkpt><trkpt lat="44.0021833" lon="11.3031794"><ele>285.5</ele><time>2026-05-02T09:43:15.978Z</time></trkpt><trkpt lat="44.002175" lon="11.3030911"><ele>285.66666666666663</ele><time>2026-05-02T09:43:16.987Z</time></trkpt><trkpt lat="44.0021615" lon="11.3029844"><ele>285.8333333333333</ele><time>2026-05-02T09:43:17.977Z</time></trkpt><trkpt lat="44.0021431" lon="11.302878"><ele>286.0</ele><time>2026-05-02T09:43:18.977Z</time></trkpt><trkpt lat="44.0021232" lon="11.3027793"><ele>286.71428571428567</ele><time>2026-05-02T09:43:19.989Z</time></trkpt><trkpt lat="44.0021019" lon="11.3026914"><ele>287.42857142857144</ele><time>2026-05-02T09:43:20.98Z</time></trkpt><trkpt lat="44.0020812" lon="11.3026056"><ele>288.1428571428571</ele><time>2026-05-02T09:43:21.977Z</time></trkpt><trkpt lat="44.002054" lon="11.3025214"><ele>288.85714285714283</ele><time>2026-05-02T09:43:22.978Z</time></trkpt><trkpt lat="44.0020235" lon="11.3024375"><ele>289.57142857142856</ele><time>2026-05-02T09:43:23.975Z</time></trkpt><trkpt lat="44.0019914" lon="11.3023555"><ele>290.2857142857143</ele><time>2026-05-02T09:43:24.978Z</time></trkpt><trkpt lat="44.0019579" lon="11.3022799"><ele>291.0</ele><time>2026-05-02T09:43:25.976Z</time></trkpt><trkpt lat="44.0018657" lon="11.3021596"><ele>291.8333333333333</ele><time>2026-05-02T09:43:27.978Z</time></trkpt><trkpt lat="44.0018026" lon="11.3021216"><ele>292.6666666666667</ele><time>2026-05-02T09:43:28.974Z</time></trkpt><trkpt lat="44.0017392" lon="11.3021082"><ele>293.5</ele><time>2026-05-02T09:43:29.973Z</time></trkpt><trkpt lat="44.0016239" lon="11.3021759"><ele>294.33333333333337</ele><time>2026-05-02T09:43:31.978Z</time></trkpt><trkpt lat="44.0015623" lon="11.3022377"><ele>295.1666666666667</ele><time>2026-05-02T09:43:32.984Z</time></trkpt><trkpt lat="44.0014981" lon="11.3022968"><ele>296.0</ele><time>2026-05-02T09:43:33.977Z</time></trkpt><trkpt lat="44.001432" lon="11.3023469"><ele>296.0</ele><time>2026-05-02T09:43:34.984Z</time></trkpt><trkpt lat="44.0013653" lon="11.3023968"><ele>296.0</ele><time>2026-05-02T09:43:35.98Z</time></trkpt><trkpt lat="44.0012941" lon="11.3024464"><ele>296.0</ele><time>2026-05-02T09:43:36.979Z</time></trkpt><trkpt lat="44.0012244" lon="11.3025009"><ele>296.0</ele><time>2026-05-02T09:43:37.984Z</time></trkpt><trkpt lat="44.0011524" lon="11.3025546"><ele>296.0</ele><time>2026-05-02T09:43:38.974Z</time></trkpt><trkpt lat="44.001083" lon="11.3026167"><ele>296.0</ele><time>2026-05-02T09:43:39.978Z</time></trkpt><trkpt lat="44.0010162" lon="11.3026803"><ele>296.0</ele><time>2026-05-02T09:43:40.977Z</time></trkpt><trkpt lat="44.000949" lon="11.3027353"><ele>296.0</ele><time>2026-05-02T09:43:41.977Z</time></trkpt><trkpt lat="44.0008877" lon="11.3027894"><ele>296.0</ele><time>2026-05-02T09:43:42.981Z</time></trkpt><trkpt lat="44.0008261" lon="11.3028363"><ele>296.0</ele><time>2026-05-02T09:43:43.978Z</time></trkpt><trkpt lat="44.0007656" lon="11.3028834"><ele>296.0</ele><time>2026-05-02T09:43:44.965Z</time></trkpt><trkpt lat="44.0007069" lon="11.3029171"><ele>296.0</ele><time>2026-05-02T09:43:45.983Z</time></trkpt><trkpt lat="44.0006011" lon="11.3029839"><ele>296.5</ele><time>2026-05-02T09:43:47.98Z</time></trkpt><trkpt lat="44.0004888" lon="11.3030738"><ele>297.0</ele><time>2026-05-02T09:43:49.98Z</time></trkpt><trkpt lat="44.0004249" lon="11.3031263"><ele>297.5</ele><time>2026-05-02T09:43:50.962Z</time></trkpt><trkpt lat="44.0003643" lon="11.3031757"><ele>298.0</ele><time>2026-05-02T09:43:51.984Z</time></trkpt><trkpt lat="44.0003024" lon="11.3032226"><ele>298.5</ele><time>2026-05-02T09:43:52.958Z</time></trkpt><trkpt lat="44.0002361" lon="11.303268"><ele>299.0</ele><time>2026-05-02T09:43:53.959Z</time></trkpt><trkpt lat="44.0001706" lon="11.3033099"><ele>297.6666666666667</ele><time>2026-05-02T09:43:54.958Z</time></trkpt><trkpt lat="44.0001066" lon="11.3033494"><ele>296.33333333333337</ele><time>2026-05-02T09:43:55.959Z</time></trkpt><trkpt lat="44.000043" lon="11.3033803"><ele>295.0</ele><time>2026-05-02T09:43:56.96Z</time></trkpt><trkpt lat="43.9999825" lon="11.3034045"><ele>293.6666666666667</ele><time>2026-05-02T09:43:57.968Z</time></trkpt><trkpt lat="43.9998741" lon="11.3034683"><ele>292.3333333333333</ele><time>2026-05-02T09:43:59.982Z</time></trkpt><trkpt lat="43.9997914" lon="11.3035868"><ele>291.0</ele><time>2026-05-02T09:44:01.962Z</time></trkpt><trkpt lat="43.9997241" lon="11.3037095"><ele>291.0</ele><time>2026-05-02T09:44:03.97Z</time></trkpt><trkpt lat="43.9996933" lon="11.3038356"><ele>291.0</ele><time>2026-05-02T09:44:05.968Z</time></trkpt><trkpt lat="43.9997033" lon="11.3039996"><ele>291.0</ele><time>2026-05-02T09:44:07.964Z</time></trkpt><trkpt lat="43.9997051" lon="11.3040893"><ele>291.0</ele><time>2026-05-02T09:44:08.978Z</time></trkpt><trkpt lat="43.9996925" lon="11.3041809"><ele>291.0</ele><time>2026-05-02T09:44:09.958Z</time></trkpt><trkpt lat="43.9996721" lon="11.3042717"><ele>291.0</ele><time>2026-05-02T09:44:10.959Z</time></trkpt><trkpt lat="43.9996473" lon="11.3043676"><ele>289.8333333333333</ele><time>2026-05-02T09:44:11.959Z</time></trkpt><trkpt lat="43.9996218" lon="11.3044589"><ele>288.6666666666667</ele><time>2026-05-02T09:44:12.978Z</time></trkpt><trkpt lat="43.9996002" lon="11.304544"><ele>287.5</ele><time>2026-05-02T09:44:13.955Z</time></trkpt><trkpt lat="43.9995786" lon="11.3046272"><ele>286.33333333333337</ele><time>2026-05-02T09:44:14.952Z</time></trkpt><trkpt lat="43.999555" lon="11.3047092"><ele>285.1666666666667</ele><time>2026-05-02T09:44:15.974Z</time></trkpt><trkpt lat="43.9994909" lon="11.3048466"><ele>284.0</ele><time>2026-05-02T09:44:17.96Z</time></trkpt><trkpt lat="43.9994011" lon="11.3049454"><ele>283.2</ele><time>2026-05-02T09:44:19.961Z</time></trkpt><trkpt lat="43.9992958" lon="11.3049938"><ele>282.4</ele><time>2026-05-02T09:44:21.967Z</time></trkpt><trkpt lat="43.9991951" lon="11.3050269"><ele>281.6</ele><time>2026-05-02T09:44:23.973Z</time></trkpt><trkpt lat="43.999128" lon="11.3050943"><ele>280.8</ele><time>2026-05-02T09:44:25.957Z</time></trkpt><trkpt lat="43.9991114" lon="11.3051865"><ele>280.0</ele><time>2026-05-02T09:44:27.962Z</time></trkpt><trkpt lat="43.9990179" lon="11.3052637"><ele>280.0</ele><time>2026-05-02T09:44:30.981Z</time></trkpt><trkpt lat="43.9988986" lon="11.3052882"><ele>280.0</ele><time>2026-05-02T09:44:32.98Z</time></trkpt><trkpt lat="43.9988368" lon="11.3053079"><ele>280.0</ele><time>2026-05-02T09:44:33.979Z</time></trkpt><trkpt lat="43.9987703" lon="11.3053317"><ele>280.0</ele><time>2026-05-02T09:44:34.988Z</time></trkpt><trkpt lat="43.9987031" lon="11.3053592"><ele>280.0</ele><time>2026-05-02T09:44:35.989Z</time></trkpt><trkpt lat="43.9986318" lon="11.3053881"><ele>280.0</ele><time>2026-05-02T09:44:36.983Z</time></trkpt><trkpt lat="43.9985633" lon="11.3054154"><ele>280.0</ele><time>2026-05-02T09:44:37.978Z</time></trkpt><trkpt lat="43.9984928" lon="11.3054422"><ele>280.0</ele><time>2026-05-02T09:44:38.968Z</time></trkpt><trkpt lat="43.9984212" lon="11.3054701"><ele>280.0</ele><time>2026-05-02T09:44:39.983Z</time></trkpt><trkpt lat="43.9983489" lon="11.3054959"><ele>280.0</ele><time>2026-05-02T09:44:40.982Z</time></trkpt><trkpt lat="43.9982727" lon="11.3055193"><ele>280.0</ele><time>2026-05-02T09:44:41.978Z</time></trkpt><trkpt lat="43.9981913" lon="11.3055415"><ele>280.0</ele><time>2026-05-02T09:44:42.981Z</time></trkpt><trkpt lat="43.9981061" lon="11.3055525"><ele>279.8</ele><time>2026-05-02T09:44:43.974Z</time></trkpt><trkpt lat="43.9980225" lon="11.3055664"><ele>279.6</ele><time>2026-05-02T09:44:44.976Z</time></trkpt><trkpt lat="43.9979359" lon="11.3055776"><ele>279.4</ele><time>2026-05-02T09:44:45.972Z</time></trkpt><trkpt lat="43.9978442" lon="11.3056009"><ele>279.2</ele><time>2026-05-02T09:44:46.974Z</time></trkpt><trkpt lat="43.9977537" lon="11.3056223"><ele>279.0</ele><time>2026-05-02T09:44:47.989Z</time></trkpt><trkpt lat="43.9976601" lon="11.305639"><ele>278.0</ele><time>2026-05-02T09:44:48.977Z</time></trkpt><trkpt lat="43.9975683" lon="11.3056527"><ele>277.0</ele><time>2026-05-02T09:44:49.989Z</time></trkpt><trkpt lat="43.9974813" lon="11.3056723"><ele>276.0</ele><time>2026-05-02T09:44:50.976Z</time></trkpt><trkpt lat="43.9974002" lon="11.3056932"><ele>275.0</ele><time>2026-05-02T09:44:51.985Z</time></trkpt><trkpt lat="43.9973219" lon="11.3057037"><ele>274.0</ele><time>2026-05-02T09:44:52.987Z</time></trkpt><trkpt lat="43.9972411" lon="11.3057067"><ele>273.0</ele><time>2026-05-02T09:44:53.989Z</time></trkpt><trkpt lat="43.9971556" lon="11.3057155"><ele>272.8333333333333</ele><time>2026-05-02T09:44:54.977Z</time></trkpt><trkpt lat="43.9970687" lon="11.3057262"><ele>272.6666666666667</ele><time>2026-05-02T09:44:55.981Z</time></trkpt><trkpt lat="43.9969814" lon="11.3057434"><ele>272.5</ele><time>2026-05-02T09:44:56.978Z</time></trkpt><trkpt lat="43.9968965" lon="11.3057576"><ele>272.33333333333337</ele><time>2026-05-02T09:44:57.96Z</time></trkpt><trkpt lat="43.9968102" lon="11.3057703"><ele>272.1666666666667</ele><time>2026-05-02T09:44:58.984Z</time></trkpt><trkpt lat="43.9967312" lon="11.3057828"><ele>272.0</ele><time>2026-05-02T09:44:59.981Z</time></trkpt><trkpt lat="43.9966516" lon="11.3057973"><ele>272.0</ele><time>2026-05-02T09:45:00.991Z</time></trkpt><trkpt lat="43.9965716" lon="11.3058171"><ele>272.0</ele><time>2026-05-02T09:45:01.987Z</time></trkpt><trkpt lat="43.9964928" lon="11.3058345"><ele>272.0</ele><time>2026-05-02T09:45:02.99Z</time></trkpt><trkpt lat="43.9964136" lon="11.305853"><ele>272.0</ele><time>2026-05-02T09:45:03.988Z</time></trkpt><trkpt lat="43.9963408" lon="11.3058739"><ele>272.0</ele><time>2026-05-02T09:45:04.984Z</time></trkpt><trkpt lat="43.9962663" lon="11.3059018"><ele>272.0</ele><time>2026-05-02T09:45:05.987Z</time></trkpt><trkpt lat="43.9961963" lon="11.3059253"><ele>272.0</ele><time>2026-05-02T09:45:06.985Z</time></trkpt><trkpt lat="43.9961334" lon="11.3059598"><ele>272.0</ele><time>2026-05-02T09:45:07.988Z</time></trkpt><trkpt lat="43.9960202" lon="11.3060108"><ele>272.0</ele><time>2026-05-02T09:45:09.983Z</time></trkpt><trkpt lat="43.9959136" lon="11.3060616"><ele>272.0</ele><time>2026-05-02T09:45:11.983Z</time></trkpt><trkpt lat="43.9958185" lon="11.3061121"><ele>272.0</ele><time>2026-05-02T09:45:13.983Z</time></trkpt><trkpt lat="43.9957356" lon="11.3061694"><ele>271.33333333333337</ele><time>2026-05-02T09:45:15.986Z</time></trkpt><trkpt lat="43.995646" lon="11.3062411"><ele>270.6666666666667</ele><time>2026-05-02T09:45:17.98Z</time></trkpt><trkpt lat="43.995569" lon="11.3063221"><ele>270.0</ele><time>2026-05-02T09:45:19.977Z</time></trkpt><trkpt lat="43.9955121" lon="11.3063948"><ele>269.3333333333333</ele><time>2026-05-02T09:45:21.973Z</time></trkpt><trkpt lat="43.9954782" lon="11.3064971"><ele>268.66666666666663</ele><time>2026-05-02T09:45:24.977Z</time></trkpt><trkpt lat="43.9954748" lon="11.3065875"><ele>268.0</ele><time>2026-05-02T09:45:28.982Z</time></trkpt><trkpt lat="43.9954732" lon="11.3064883"><ele>267.8</ele><time>2026-05-02T09:45:42.954Z</time></trkpt><trkpt lat="43.9955094" lon="11.3063873"><ele>267.6</ele><time>2026-05-02T09:45:45.955Z</time></trkpt><trkpt lat="43.9955653" lon="11.3062949"><ele>267.4</ele><time>2026-05-02T09:45:47.973Z</time></trkpt><trkpt lat="43.9956482" lon="11.3061933"><ele>267.2</ele><time>2026-05-02T09:45:49.95Z</time></trkpt><trkpt lat="43.995734" lon="11.3061196"><ele>267.0</ele><time>2026-05-02T09:45:51.96Z</time></trkpt><trkpt lat="43.9958273" lon="11.3060717"><ele>267.8333333333333</ele><time>2026-05-02T09:45:53.964Z</time></trkpt><trkpt lat="43.9959406" lon="11.3060261"><ele>268.6666666666667</ele><time>2026-05-02T09:45:56.035Z</time></trkpt><trkpt lat="43.9960024" lon="11.3059982"><ele>269.5</ele><time>2026-05-02T09:45:56.956Z</time></trkpt><trkpt lat="43.9960683" lon="11.3059718"><ele>270.33333333333337</ele><time>2026-05-02T09:45:57.953Z</time></trkpt><trkpt lat="43.996134" lon="11.3059438"><ele>271.1666666666667</ele><time>2026-05-02T09:45:58.947Z</time></trkpt><trkpt lat="43.9961985" lon="11.3059106"><ele>272.0</ele><time>2026-05-02T09:45:59.961Z</time></trkpt><trkpt lat="43.996327" lon="11.3058723"><ele>272.0</ele><time>2026-05-02T09:46:01.972Z</time></trkpt><trkpt lat="43.9963995" lon="11.3058518"><ele>272.0</ele><time>2026-05-02T09:46:02.968Z</time></trkpt><trkpt lat="43.9964737" lon="11.3058369"><ele>272.0</ele><time>2026-05-02T09:46:03.994Z</time></trkpt><trkpt lat="43.9965553" lon="11.3058247"><ele>272.0</ele><time>2026-05-02T09:46:04.972Z</time></trkpt><trkpt lat="43.9966385" lon="11.3058092"><ele>272.0</ele><time>2026-05-02T09:46:06.036Z</time></trkpt><trkpt lat="43.9967168" lon="11.3057951"><ele>272.0</ele><time>2026-05-02T09:46:06.956Z</time></trkpt><trkpt lat="43.9968022" lon="11.3057852"><ele>272.0</ele><time>2026-05-02T09:46:07.961Z</time></trkpt><trkpt lat="43.9968845" lon="11.3057749"><ele>272.0</ele><time>2026-05-02T09:46:08.969Z</time></trkpt><trkpt lat="43.9969681" lon="11.3057632"><ele>272.0</ele><time>2026-05-02T09:46:09.964Z</time></trkpt><trkpt lat="43.9970501" lon="11.3057495"><ele>272.0</ele><time>2026-05-02T09:46:10.972Z</time></trkpt><trkpt lat="43.9971315" lon="11.3057349"><ele>272.0</ele><time>2026-05-02T09:46:11.969Z</time></trkpt><trkpt lat="43.9972086" lon="11.3057241"><ele>272.0</ele><time>2026-05-02T09:46:12.966Z</time></trkpt><trkpt lat="43.9972915" lon="11.305705"><ele>272.0</ele><time>2026-05-02T09:46:14.014Z</time></trkpt><trkpt lat="43.9973719" lon="11.3056862"><ele>272.0</ele><time>2026-05-02T09:46:14.955Z</time></trkpt><trkpt lat="43.9974487" lon="11.3056666"><ele>272.0</ele><time>2026-05-02T09:46:15.964Z</time></trkpt><trkpt lat="43.997522" lon="11.3056518"><ele>272.0</ele><time>2026-05-02T09:46:17.038Z</time></trkpt><trkpt lat="43.9976022" lon="11.3056323"><ele>272.0</ele><time>2026-05-02T09:46:17.962Z</time></trkpt><trkpt lat="43.9976776" lon="11.3056182"><ele>272.0</ele><time>2026-05-02T09:46:18.972Z</time></trkpt><trkpt lat="43.9977549" lon="11.3055983"><ele>272.1666666666667</ele><time>2026-05-02T09:46:19.989Z</time></trkpt><trkpt lat="43.9978356" lon="11.3055825"><ele>272.33333333333337</ele><time>2026-05-02T09:46:21.032Z</time></trkpt><trkpt lat="43.9979167" lon="11.3055688"><ele>272.5</ele><time>2026-05-02T09:46:22.033Z</time></trkpt><trkpt lat="43.9979964" lon="11.3055505"><ele>272.6666666666667</ele><time>2026-05-02T09:46:22.984Z</time></trkpt><trkpt lat="43.9980739" lon="11.3055381"><ele>272.8333333333333</ele><time>2026-05-02T09:46:24.032Z</time></trkpt><trkpt lat="43.9981534" lon="11.3055266"><ele>273.0</ele><time>2026-05-02T09:46:25.042Z</time></trkpt><trkpt lat="43.9982299" lon="11.3055101"><ele>274.0</ele><time>2026-05-02T09:46:25.966Z</time></trkpt><trkpt lat="43.998296" lon="11.3054925"><ele>275.0</ele><time>2026-05-02T09:46:27.017Z</time></trkpt><trkpt lat="43.9983668" lon="11.3054751"><ele>276.0</ele><time>2026-05-02T09:46:27.955Z</time></trkpt><trkpt lat="43.9984427" lon="11.3054524"><ele>277.0</ele><time>2026-05-02T09:46:28.974Z</time></trkpt><trkpt lat="43.9985198" lon="11.3054284"><ele>278.0</ele><time>2026-05-02T09:46:29.98Z</time></trkpt><trkpt lat="43.998596" lon="11.3053996"><ele>279.0</ele><time>2026-05-02T09:46:30.969Z</time></trkpt><trkpt lat="43.9986747" lon="11.3053657"><ele>279.1666666666667</ele><time>2026-05-02T09:46:32.028Z</time></trkpt><trkpt lat="43.9987512" lon="11.3053345"><ele>279.3333333333333</ele><time>2026-05-02T09:46:32.973Z</time></trkpt><trkpt lat="43.9988289" lon="11.3053079"><ele>279.5</ele><time>2026-05-02T09:46:33.985Z</time></trkpt><trkpt lat="43.9989062" lon="11.305284"><ele>279.66666666666663</ele><time>2026-05-02T09:46:35.011Z</time></trkpt><trkpt lat="43.9989802" lon="11.3052693"><ele>279.8333333333333</ele><time>2026-05-02T09:46:36.035Z</time></trkpt><trkpt lat="43.9990538" lon="11.3052509"><ele>280.0</ele><time>2026-05-02T09:46:37.034Z</time></trkpt><trkpt lat="43.9991282" lon="11.3052372"><ele>280.0</ele><time>2026-05-02T09:46:37.96Z</time></trkpt><trkpt lat="43.9992011" lon="11.3052211"><ele>280.0</ele><time>2026-05-02T09:46:38.963Z</time></trkpt><trkpt lat="43.9992731" lon="11.3052096"><ele>280.0</ele><time>2026-05-02T09:46:39.972Z</time></trkpt><trkpt lat="43.9993451" lon="11.3051994"><ele>280.0</ele><time>2026-05-02T09:46:40.962Z</time></trkpt><trkpt lat="43.9994169" lon="11.3051841"><ele>280.0</ele><time>2026-05-02T09:46:41.955Z</time></trkpt><trkpt lat="43.9994914" lon="11.3051673"><ele>280.0</ele><time>2026-05-02T09:46:42.957Z</time></trkpt><trkpt lat="43.9995614" lon="11.3051466"><ele>280.0</ele><time>2026-05-02T09:46:43.956Z</time></trkpt><trkpt lat="43.9996328" lon="11.3051226"><ele>280.0</ele><time>2026-05-02T09:46:44.965Z</time></trkpt><trkpt lat="43.9996985" lon="11.3050833"><ele>280.0</ele><time>2026-05-02T09:46:46.037Z</time></trkpt><trkpt lat="43.9997631" lon="11.3050432"><ele>280.0</ele><time>2026-05-02T09:46:47.047Z</time></trkpt><trkpt lat="43.9998269" lon="11.3050049"><ele>280.0</ele><time>2026-05-02T09:46:47.969Z</time></trkpt><trkpt lat="43.9998903" lon="11.3049666"><ele>280.0</ele><time>2026-05-02T09:46:48.969Z</time></trkpt><trkpt lat="43.9999541" lon="11.3049339"><ele>280.0</ele><time>2026-05-02T09:46:49.956Z</time></trkpt><trkpt lat="44.0000234" lon="11.3049099"><ele>280.0</ele><time>2026-05-02T09:46:50.974Z</time></trkpt><trkpt lat="44.0000967" lon="11.3048866"><ele>280.0</ele><time>2026-05-02T09:46:51.97Z</time></trkpt><trkpt lat="44.0001652" lon="11.3048653"><ele>280.0</ele><time>2026-05-02T09:46:52.966Z</time></trkpt><trkpt lat="44.0002749" lon="11.3048575"><ele>280.0</ele><time>2026-05-02T09:46:55.035Z</time></trkpt><trkpt lat="44.0003553" lon="11.304909"><ele>280.0</ele><time>2026-05-02T09:46:57.04Z</time></trkpt><trkpt lat="44.0004414" lon="11.3049602"><ele>280.0</ele><time>2026-05-02T09:46:58.954Z</time></trkpt><trkpt lat="44.000535" lon="11.3049458"><ele>280.0</ele><time>2026-05-02T09:47:00.978Z</time></trkpt><trkpt lat="44.0006434" lon="11.3049223"><ele>280.0</ele><time>2026-05-02T09:47:02.956Z</time></trkpt><trkpt lat="44.0007496" lon="11.3049456"><ele>280.0</ele><time>2026-05-02T09:47:04.973Z</time></trkpt><trkpt lat="44.000823" lon="11.3050379"><ele>280.0</ele><time>2026-05-02T09:47:06.956Z</time></trkpt><trkpt lat="44.0008776" lon="11.3051292"><ele>280.0</ele><time>2026-05-02T09:47:09.956Z</time></trkpt><trkpt lat="44.0008946" lon="11.3052169"><ele>280.0</ele><time>2026-05-02T09:47:14.992Z</time></trkpt><trkpt lat="44.000857" lon="11.3050986"><ele>280.0</ele><time>2026-05-02T09:47:18.963Z</time></trkpt><trkpt lat="44.0008212" lon="11.3049863"><ele>280.0</ele><time>2026-05-02T09:47:21.04Z</time></trkpt><trkpt lat="44.0007357" lon="11.3049025"><ele>280.0</ele><time>2026-05-02T09:47:22.967Z</time></trkpt><trkpt lat="44.0006357" lon="11.3048807"><ele>280.0</ele><time>2026-05-02T09:47:24.961Z</time></trkpt><trkpt lat="44.0005252" lon="11.3049008"><ele>280.0</ele><time>2026-05-02T09:47:26.96Z</time></trkpt><trkpt lat="44.0004282" lon="11.3048997"><ele>280.0</ele><time>2026-05-02T09:47:28.954Z</time></trkpt><trkpt lat="44.0003691" lon="11.3048342"><ele>280.0</ele><time>2026-05-02T09:47:31.953Z</time></trkpt><trkpt lat="44.0002989" lon="11.304842"><ele>280.0</ele><time>2026-05-02T09:47:40.964Z</time></trkpt><trkpt lat="44.0002235" lon="11.3048674"><ele>280.0</ele><time>2026-05-02T09:47:42.971Z</time></trkpt><trkpt lat="44.0001174" lon="11.3049119"><ele>280.0</ele><time>2026-05-02T09:47:44.96Z</time></trkpt><trkpt lat="44.0000559" lon="11.3049337"><ele>280.0</ele><time>2026-05-02T09:47:45.961Z</time></trkpt><trkpt lat="43.9999875" lon="11.3049594"><ele>280.0</ele><time>2026-05-02T09:47:46.963Z</time></trkpt><trkpt lat="43.9999159" lon="11.3049835"><ele>280.0</ele><time>2026-05-02T09:47:47.962Z</time></trkpt><trkpt lat="43.9998437" lon="11.3050164"><ele>280.0</ele><time>2026-05-02T09:47:48.956Z</time></trkpt><trkpt lat="43.9997809" lon="11.3050569"><ele>280.0</ele><time>2026-05-02T09:47:50.043Z</time></trkpt><trkpt lat="43.9997136" lon="11.3050992"><ele>280.0</ele><time>2026-05-02T09:47:51.047Z</time></trkpt><trkpt lat="43.9996429" lon="11.3051442"><ele>280.0</ele><time>2026-05-02T09:47:52.035Z</time></trkpt><trkpt lat="43.9995699" lon="11.3051634"><ele>280.0</ele><time>2026-05-02T09:47:52.981Z</time></trkpt><trkpt lat="43.9994882" lon="11.3051797"><ele>280.0</ele><time>2026-05-02T09:47:53.981Z</time></trkpt><trkpt lat="43.9994106" lon="11.3051897"><ele>280.0</ele><time>2026-05-02T09:47:54.993Z</time></trkpt><trkpt lat="43.9993379" lon="11.3051996"><ele>280.0</ele><time>2026-05-02T09:47:56.04Z</time></trkpt><trkpt lat="43.999269" lon="11.3052132"><ele>280.0</ele><time>2026-05-02T09:47:57.032Z</time></trkpt><trkpt lat="43.9991614" lon="11.3052107"><ele>280.0</ele><time>2026-05-02T09:47:58.978Z</time></trkpt><trkpt lat="43.9991206" lon="11.3051118"><ele>280.0</ele><time>2026-05-02T09:48:01.03Z</time></trkpt><trkpt lat="43.9991652" lon="11.3050131"><ele>280.0</ele><time>2026-05-02T09:48:02.955Z</time></trkpt><trkpt lat="43.9992627" lon="11.3049715"><ele>280.0</ele><time>2026-05-02T09:48:04.953Z</time></trkpt><trkpt lat="43.9993262" lon="11.3049523"><ele>280.0</ele><time>2026-05-02T09:48:06.032Z</time></trkpt><trkpt lat="43.9993855" lon="11.3049186"><ele>280.0</ele><time>2026-05-02T09:48:07.038Z</time></trkpt><trkpt lat="43.9994383" lon="11.3048674"><ele>280.0</ele><time>2026-05-02T09:48:07.959Z</time></trkpt><trkpt lat="43.9994798" lon="11.3048005"><ele>280.0</ele><time>2026-05-02T09:48:08.965Z</time></trkpt><trkpt lat="43.9995194" lon="11.3047165"><ele>280.57142857142856</ele><time>2026-05-02T09:48:09.986Z</time></trkpt><trkpt lat="43.9995568" lon="11.304633"><ele>281.1428571428571</ele><time>2026-05-02T09:48:11.033Z</time></trkpt><trkpt lat="43.9995788" lon="11.3045375"><ele>281.7142857142857</ele><time>2026-05-02T09:48:12.032Z</time></trkpt><trkpt lat="43.9996075" lon="11.3044387"><ele>282.2857142857143</ele><time>2026-05-02T09:48:12.951Z</time></trkpt><trkpt lat="43.9996344" lon="11.3043396"><ele>282.85714285714283</ele><time>2026-05-02T09:48:13.969Z</time></trkpt><trkpt lat="43.9996594" lon="11.3042432"><ele>283.42857142857144</ele><time>2026-05-02T09:48:14.979Z</time></trkpt><trkpt lat="43.9996787" lon="11.3041506"><ele>284.0</ele><time>2026-05-02T09:48:15.966Z</time></trkpt><trkpt lat="43.9996916" lon="11.3040574"><ele>284.0</ele><time>2026-05-02T09:48:16.945Z</time></trkpt><trkpt lat="43.9996902" lon="11.3039587"><ele>284.0</ele><time>2026-05-02T09:48:17.953Z</time></trkpt><trkpt lat="43.9996878" lon="11.3038707"><ele>284.0</ele><time>2026-05-02T09:48:18.966Z</time></trkpt><trkpt lat="43.9997175" lon="11.3037329"><ele>284.0</ele><time>2026-05-02T09:48:21.042Z</time></trkpt><trkpt lat="43.9997792" lon="11.3036073"><ele>284.0</ele><time>2026-05-02T09:48:22.969Z</time></trkpt><trkpt lat="43.9998597" lon="11.3034833"><ele>285.1666666666667</ele><time>2026-05-02T09:48:24.966Z</time></trkpt><trkpt lat="43.9999633" lon="11.303388"><ele>286.33333333333337</ele><time>2026-05-02T09:48:26.966Z</time></trkpt><trkpt lat="44.0000265" lon="11.3033615"><ele>287.5</ele><time>2026-05-02T09:48:27.979Z</time></trkpt><trkpt lat="44.0000893" lon="11.3033322"><ele>288.6666666666667</ele><time>2026-05-02T09:48:29.028Z</time></trkpt><trkpt lat="44.0001485" lon="11.3032978"><ele>289.8333333333333</ele><time>2026-05-02T09:48:29.967Z</time></trkpt><trkpt lat="44.0002075" lon="11.3032624"><ele>291.0</ele><time>2026-05-02T09:48:31.052Z</time></trkpt><trkpt lat="44.0002677" lon="11.3032263"><ele>291.0</ele><time>2026-05-02T09:48:31.955Z</time></trkpt><trkpt lat="44.0003821" lon="11.3031573"><ele>291.0</ele><time>2026-05-02T09:48:33.963Z</time></trkpt><trkpt lat="44.0004833" lon="11.3030958"><ele>291.0</ele><time>2026-05-02T09:48:35.971Z</time></trkpt><trkpt lat="44.0005678" lon="11.3030373"><ele>291.0</ele><time>2026-05-02T09:48:37.966Z</time></trkpt><trkpt lat="44.0006588" lon="11.3029667"><ele>291.0</ele><time>2026-05-02T09:48:40.039Z</time></trkpt><trkpt lat="44.0007541" lon="11.3028757"><ele>291.7142857142857</ele><time>2026-05-02T09:48:42.035Z</time></trkpt><trkpt lat="44.0008113" lon="11.3028295"><ele>292.4285714285714</ele><time>2026-05-02T09:48:42.972Z</time></trkpt><trkpt lat="44.0008656" lon="11.3027824"><ele>293.1428571428571</ele><time>2026-05-02T09:48:43.98Z</time></trkpt><trkpt lat="44.0009248" lon="11.3027271"><ele>293.85714285714283</ele><time>2026-05-02T09:48:44.989Z</time></trkpt><trkpt lat="44.0009881" lon="11.3026741"><ele>294.57142857142856</ele><time>2026-05-02T09:48:46.036Z</time></trkpt><trkpt lat="44.001056" lon="11.3026196"><ele>295.2857142857143</ele><time>2026-05-02T09:48:46.963Z</time></trkpt><trkpt lat="44.0011226" lon="11.3025643"><ele>296.0</ele><time>2026-05-02T09:48:47.963Z</time></trkpt><trkpt lat="44.001188" lon="11.302508"><ele>296.0</ele><time>2026-05-02T09:48:49.043Z</time></trkpt><trkpt lat="44.0012566" lon="11.3024547"><ele>296.0</ele><time>2026-05-02T09:48:50.037Z</time></trkpt><trkpt lat="44.0013179" lon="11.3024031"><ele>296.0</ele><time>2026-05-02T09:48:51.036Z</time></trkpt><trkpt lat="44.0013805" lon="11.3023519"><ele>296.0</ele><time>2026-05-02T09:48:51.979Z</time></trkpt><trkpt lat="44.0014411" lon="11.3023061"><ele>296.0</ele><time>2026-05-02T09:48:52.97Z</time></trkpt><trkpt lat="44.0014971" lon="11.3022623"><ele>296.0</ele><time>2026-05-02T09:48:53.965Z</time></trkpt><trkpt lat="44.001583" lon="11.3021846"><ele>297.33333333333337</ele><time>2026-05-02T09:48:56.001Z</time></trkpt><trkpt lat="44.0016231" lon="11.3020875"><ele>298.6666666666667</ele><time>2026-05-02T09:48:58.959Z</time></trkpt><trkpt lat="44.001572" lon="11.3020263"><ele>300.0</ele><time>2026-05-02T09:49:02.969Z</time></trkpt><trkpt lat="44.0015102" lon="11.3019678"><ele>301.3333333333333</ele><time>2026-05-02T09:49:04.986Z</time></trkpt><trkpt lat="44.0014435" lon="11.3019068"><ele>302.66666666666663</ele><time>2026-05-02T09:49:06.954Z</time></trkpt><trkpt lat="44.0013822" lon="11.3018266"><ele>304.0</ele><time>2026-05-02T09:49:08.96Z</time></trkpt><trkpt lat="44.0013177" lon="11.3017111"><ele>304.0</ele><time>2026-05-02T09:49:10.968Z</time></trkpt><trkpt lat="44.0012878" lon="11.3015637"><ele>304.0</ele><time>2026-05-02T09:49:12.975Z</time></trkpt><trkpt lat="44.0012808" lon="11.3014757"><ele>304.0</ele><time>2026-05-02T09:49:13.983Z</time></trkpt><trkpt lat="44.0012928" lon="11.3013837"><ele>304.0</ele><time>2026-05-02T09:49:16.974Z</time></trkpt><trkpt lat="44.0012361" lon="11.3013379"><ele>304.0</ele><time>2026-05-02T09:52:45.961Z</time></trkpt><trkpt lat="44.0011717" lon="11.3013342"><ele>304.0</ele><time>2026-05-02T09:52:48.976Z</time></trkpt><trkpt lat="44.0011024" lon="11.3013372"><ele>304.0</ele><time>2026-05-02T09:52:50.96Z</time></trkpt><trkpt lat="44.0010156" lon="11.3013469"><ele>303.8</ele><time>2026-05-02T09:52:52.961Z</time></trkpt><trkpt lat="44.000906" lon="11.3013795"><ele>303.59999999999997</ele><time>2026-05-02T09:52:54.97Z</time></trkpt><trkpt lat="44.0008232" lon="11.3013652"><ele>303.4</ele><time>2026-05-02T09:53:06.969Z</time></trkpt><trkpt lat="44.0007457" lon="11.301383"><ele>303.2</ele><time>2026-05-02T09:53:10.961Z</time></trkpt><trkpt lat="44.0006546" lon="11.3013852"><ele>303.0</ele><time>2026-05-02T09:53:14.962Z</time></trkpt><trkpt lat="44.0005587" lon="11.3013968"><ele>303.2</ele><time>2026-05-02T09:53:17.958Z</time></trkpt><trkpt lat="44.0004773" lon="11.3014284"><ele>303.4</ele><time>2026-05-02T09:53:19.97Z</time></trkpt><trkpt lat="44.0003783" lon="11.3014611"><ele>303.59999999999997</ele><time>2026-05-02T09:53:21.962Z</time></trkpt><trkpt lat="44.0002892" lon="11.3014983"><ele>303.8</ele><time>2026-05-02T09:53:23.962Z</time></trkpt><trkpt lat="44.0002096" lon="11.3015058"><ele>304.0</ele><time>2026-05-02T09:53:25.961Z</time></trkpt><trkpt lat="44.000107" lon="11.3015037"><ele>304.0</ele><time>2026-05-02T09:53:27.96Z</time></trkpt><trkpt lat="44.0000072" lon="11.301496"><ele>304.0</ele><time>2026-05-02T09:53:29.962Z</time></trkpt><trkpt lat="43.9999124" lon="11.3014745"><ele>304.0</ele><time>2026-05-02T09:53:31.96Z</time></trkpt><trkpt lat="43.9997945" lon="11.3014445"><ele>304.0</ele><time>2026-05-02T09:53:33.968Z</time></trkpt><trkpt lat="43.9996902" lon="11.3014397"><ele>304.0</ele><time>2026-05-02T09:53:35.963Z</time></trkpt><trkpt lat="43.9995802" lon="11.3014853"><ele>304.0</ele><time>2026-05-02T09:53:37.959Z</time></trkpt><trkpt lat="43.9994829" lon="11.3015589"><ele>304.0</ele><time>2026-05-02T09:53:39.96Z</time></trkpt><trkpt lat="43.9993896" lon="11.3016221"><ele>304.0</ele><time>2026-05-02T09:53:41.959Z</time></trkpt><trkpt lat="43.9992969" lon="11.301693"><ele>304.0</ele><time>2026-05-02T09:53:43.961Z</time></trkpt><trkpt lat="43.999235" lon="11.301739"><ele>304.0</ele><time>2026-05-02T09:53:45.971Z</time></trkpt><trkpt lat="43.9991718" lon="11.3017511"><ele>302.8</ele><time>2026-05-02T09:54:52.972Z</time></trkpt><trkpt lat="43.9990725" lon="11.3017857"><ele>301.59999999999997</ele><time>2026-05-02T09:54:56.054Z</time></trkpt><trkpt lat="43.998977" lon="11.301792"><ele>300.4</ele><time>2026-05-02T09:54:57.962Z</time></trkpt><trkpt lat="43.9988789" lon="11.3018006"><ele>299.2</ele><time>2026-05-02T09:54:59.964Z</time></trkpt><trkpt lat="43.9987715" lon="11.301812"><ele>298.0</ele><time>2026-05-02T09:55:01.983Z</time></trkpt><trkpt lat="43.9986572" lon="11.3018272"><ele>298.0</ele><time>2026-05-02T09:55:03.971Z</time></trkpt><trkpt lat="43.9985389" lon="11.3018324"><ele>298.0</ele><time>2026-05-02T09:55:05.96Z</time></trkpt><trkpt lat="43.9984754" lon="11.3018406"><ele>298.0</ele><time>2026-05-02T09:55:06.972Z</time></trkpt><trkpt lat="43.9984096" lon="11.3018437"><ele>298.0</ele><time>2026-05-02T09:55:07.982Z</time></trkpt><trkpt lat="43.9983433" lon="11.3018551"><ele>298.0</ele><time>2026-05-02T09:55:08.978Z</time></trkpt><trkpt lat="43.9982755" lon="11.3018649"><ele>298.0</ele><time>2026-05-02T09:55:09.975Z</time></trkpt><trkpt lat="43.9982094" lon="11.3018712"><ele>298.0</ele><time>2026-05-02T09:55:10.981Z</time></trkpt><trkpt lat="43.9981417" lon="11.3018753"><ele>297.1428571428571</ele><time>2026-05-02T09:55:11.987Z</time></trkpt><trkpt lat="43.9980741" lon="11.3018816"><ele>296.2857142857143</ele><time>2026-05-02T09:55:12.977Z</time></trkpt><trkpt lat="43.9980064" lon="11.3018882"><ele>295.42857142857144</ele><time>2026-05-02T09:55:13.969Z</time></trkpt><trkpt lat="43.9979376" lon="11.3018938"><ele>294.57142857142856</ele><time>2026-05-02T09:55:14.978Z</time></trkpt><trkpt lat="43.9978717" lon="11.3018971"><ele>293.7142857142857</ele><time>2026-05-02T09:55:15.982Z</time></trkpt><trkpt lat="43.9978043" lon="11.3018954"><ele>292.85714285714283</ele><time>2026-05-02T09:55:16.975Z</time></trkpt><trkpt lat="43.9977343" lon="11.3018878"><ele>292.0</ele><time>2026-05-02T09:55:17.98Z</time></trkpt><trkpt lat="43.9976691" lon="11.3018763"><ele>292.0</ele><time>2026-05-02T09:55:18.982Z</time></trkpt><trkpt lat="43.9975995" lon="11.3018659"><ele>292.0</ele><time>2026-05-02T09:55:19.977Z</time></trkpt><trkpt lat="43.9975336" lon="11.3018696"><ele>292.0</ele><time>2026-05-02T09:55:21.036Z</time></trkpt><trkpt lat="43.9974162" lon="11.3018821"><ele>292.0</ele><time>2026-05-02T09:55:22.975Z</time></trkpt><trkpt lat="43.9973201" lon="11.301945"><ele>292.0</ele><time>2026-05-02T09:55:24.974Z</time></trkpt><trkpt lat="43.9972201" lon="11.3020281"><ele>291.3333333333333</ele><time>2026-05-02T09:55:26.984Z</time></trkpt><trkpt lat="43.9971146" lon="11.3021077"><ele>290.66666666666663</ele><time>2026-05-02T09:55:29.027Z</time></trkpt><trkpt lat="43.9970628" lon="11.3021602"><ele>290.0</ele><time>2026-05-02T09:55:30.037Z</time></trkpt><trkpt lat="43.9970111" lon="11.3022237"><ele>289.3333333333333</ele><time>2026-05-02T09:55:30.983Z</time></trkpt><trkpt lat="43.996962" lon="11.3022915"><ele>288.6666666666667</ele><time>2026-05-02T09:55:32.04Z</time></trkpt><trkpt lat="43.9969078" lon="11.3023592"><ele>288.0</ele><time>2026-05-02T09:55:32.957Z</time></trkpt><trkpt lat="43.9968523" lon="11.3024203"><ele>287.8571428571429</ele><time>2026-05-02T09:55:33.961Z</time></trkpt><trkpt lat="43.9967965" lon="11.3024762"><ele>287.7142857142857</ele><time>2026-05-02T09:55:34.942Z</time></trkpt><trkpt lat="43.9967403" lon="11.3025314"><ele>287.57142857142856</ele><time>2026-05-02T09:55:35.966Z</time></trkpt><trkpt lat="43.9966843" lon="11.3025847"><ele>287.42857142857144</ele><time>2026-05-02T09:55:36.957Z</time></trkpt><trkpt lat="43.9966236" lon="11.3026392"><ele>287.2857142857143</ele><time>2026-05-02T09:55:37.96Z</time></trkpt><trkpt lat="43.9965595" lon="11.3026887"><ele>287.14285714285717</ele><time>2026-05-02T09:55:38.965Z</time></trkpt><trkpt lat="43.996495" lon="11.302738"><ele>287.0</ele><time>2026-05-02T09:55:39.965Z</time></trkpt><trkpt lat="43.9964306" lon="11.302783"><ele>286.83333333333337</ele><time>2026-05-02T09:55:40.966Z</time></trkpt><trkpt lat="43.9963717" lon="11.3028353"><ele>286.6666666666667</ele><time>2026-05-02T09:55:41.948Z</time></trkpt><trkpt lat="43.9963129" lon="11.3028875"><ele>286.5</ele><time>2026-05-02T09:55:42.964Z</time></trkpt><trkpt lat="43.9962549" lon="11.30293"><ele>286.3333333333333</ele><time>2026-05-02T09:55:43.953Z</time></trkpt><trkpt lat="43.9961522" lon="11.3029908"><ele>286.16666666666663</ele><time>2026-05-02T09:55:45.968Z</time></trkpt><trkpt lat="43.9960579" lon="11.3030408"><ele>286.0</ele><time>2026-05-02T09:55:47.953Z</time></trkpt><trkpt lat="43.9959928" lon="11.3030465"><ele>286.0</ele><time>2026-05-02T09:55:49.978Z</time></trkpt><trkpt lat="43.9959228" lon="11.3030589"><ele>286.0</ele><time>2026-05-02T09:55:51.968Z</time></trkpt><trkpt lat="43.9958307" lon="11.3030829"><ele>286.0</ele><time>2026-05-02T09:55:53.971Z</time></trkpt><trkpt lat="43.9957327" lon="11.3031009"><ele>286.0</ele><time>2026-05-02T09:55:55.98Z</time></trkpt><trkpt lat="43.9956497" lon="11.3031087"><ele>286.0</ele><time>2026-05-02T09:55:57.979Z</time></trkpt><trkpt lat="43.9955566" lon="11.3031284"><ele>286.0</ele><time>2026-05-02T09:55:59.966Z</time></trkpt><trkpt lat="43.9954591" lon="11.3031372"><ele>286.0</ele><time>2026-05-02T09:56:01.973Z</time></trkpt><trkpt lat="43.9953473" lon="11.3031391"><ele>286.0</ele><time>2026-05-02T09:56:03.971Z</time></trkpt><trkpt lat="43.9952828" lon="11.3031377"><ele>286.0</ele><time>2026-05-02T09:56:04.977Z</time></trkpt><trkpt lat="43.9952158" lon="11.3031413"><ele>286.0</ele><time>2026-05-02T09:56:05.987Z</time></trkpt><trkpt lat="43.9951501" lon="11.3031445"><ele>286.0</ele><time>2026-05-02T09:56:06.982Z</time></trkpt><trkpt lat="43.9950769" lon="11.3031305"><ele>286.0</ele><time>2026-05-02T09:56:07.974Z</time></trkpt><trkpt lat="43.9949985" lon="11.3031208"><ele>286.0</ele><time>2026-05-02T09:56:08.959Z</time></trkpt><trkpt lat="43.9949233" lon="11.3031098"><ele>286.0</ele><time>2026-05-02T09:56:09.97Z</time></trkpt><trkpt lat="43.9948552" lon="11.3031019"><ele>286.0</ele><time>2026-05-02T09:56:10.978Z</time></trkpt><trkpt lat="43.9947406" lon="11.3030756"><ele>286.0</ele><time>2026-05-02T09:56:12.959Z</time></trkpt><trkpt lat="43.9946371" lon="11.303023"><ele>286.0</ele><time>2026-05-02T09:56:14.99Z</time></trkpt><trkpt lat="43.9945354" lon="11.3029917"><ele>285.8333333333333</ele><time>2026-05-02T09:56:16.973Z</time></trkpt><trkpt lat="43.9944302" lon="11.3029624"><ele>285.66666666666663</ele><time>2026-05-02T09:56:18.966Z</time></trkpt><trkpt lat="43.9943442" lon="11.302939"><ele>285.5</ele><time>2026-05-02T09:56:20.981Z</time></trkpt><trkpt lat="43.9942609" lon="11.3029717"><ele>285.3333333333333</ele><time>2026-05-02T09:56:24.034Z</time></trkpt><trkpt lat="43.9941906" lon="11.3030566"><ele>285.1666666666667</ele><time>2026-05-02T09:56:26.964Z</time></trkpt><trkpt lat="43.9941296" lon="11.3031166"><ele>285.0</ele><time>2026-05-02T09:56:28.969Z</time></trkpt><trkpt lat="43.9940443" lon="11.3031501"><ele>284.8</ele><time>2026-05-02T09:56:30.968Z</time></trkpt><trkpt lat="43.9939401" lon="11.3031684"><ele>284.6</ele><time>2026-05-02T09:56:32.956Z</time></trkpt><trkpt lat="43.9938288" lon="11.3031872"><ele>284.4</ele><time>2026-05-02T09:56:34.991Z</time></trkpt><trkpt lat="43.9937089" lon="11.3031987"><ele>284.2</ele><time>2026-05-02T09:56:36.965Z</time></trkpt><trkpt lat="43.9936426" lon="11.3031967"><ele>284.0</ele><time>2026-05-02T09:56:37.969Z</time></trkpt><trkpt lat="43.9935763" lon="11.303191"><ele>284.0</ele><time>2026-05-02T09:56:38.975Z</time></trkpt><trkpt lat="43.9935097" lon="11.303198"><ele>284.0</ele><time>2026-05-02T09:56:39.947Z</time></trkpt><trkpt lat="43.9934452" lon="11.3032211"><ele>284.0</ele><time>2026-05-02T09:56:41.038Z</time></trkpt><trkpt lat="43.9933833" lon="11.3032393"><ele>284.0</ele><time>2026-05-02T09:56:42.031Z</time></trkpt><trkpt lat="43.9933188" lon="11.3032587"><ele>284.0</ele><time>2026-05-02T09:56:42.96Z</time></trkpt><trkpt lat="43.993255" lon="11.3032632"><ele>284.0</ele><time>2026-05-02T09:56:43.966Z</time></trkpt><trkpt lat="43.9931817" lon="11.3032631"><ele>284.0</ele><time>2026-05-02T09:56:44.945Z</time></trkpt><trkpt lat="43.9931058" lon="11.3032557"><ele>283.33333333333337</ele><time>2026-05-02T09:56:45.979Z</time></trkpt><trkpt lat="43.9930288" lon="11.3032435"><ele>282.6666666666667</ele><time>2026-05-02T09:56:46.961Z</time></trkpt><trkpt lat="43.9929498" lon="11.3032367"><ele>282.0</ele><time>2026-05-02T09:56:47.969Z</time></trkpt><trkpt lat="43.9928714" lon="11.3032239"><ele>281.3333333333333</ele><time>2026-05-02T09:56:48.98Z</time></trkpt><trkpt lat="43.9927912" lon="11.3032097"><ele>280.66666666666663</ele><time>2026-05-02T09:56:50.044Z</time></trkpt><trkpt lat="43.9926994" lon="11.3032051"><ele>280.0</ele><time>2026-05-02T09:56:51.032Z</time></trkpt><trkpt lat="43.9926051" lon="11.3032005"><ele>280.0</ele><time>2026-05-02T09:56:52.041Z</time></trkpt><trkpt lat="43.9925088" lon="11.3031888"><ele>280.0</ele><time>2026-05-02T09:56:52.966Z</time></trkpt><trkpt lat="43.9924107" lon="11.3031789"><ele>280.0</ele><time>2026-05-02T09:56:53.963Z</time></trkpt><trkpt lat="43.9923131" lon="11.303167"><ele>280.0</ele><time>2026-05-02T09:56:54.978Z</time></trkpt><trkpt lat="43.9922136" lon="11.3031535"><ele>280.0</ele><time>2026-05-02T09:56:55.959Z</time></trkpt><trkpt lat="43.9921121" lon="11.3031431"><ele>280.2</ele><time>2026-05-02T09:56:56.967Z</time></trkpt><trkpt lat="43.9920121" lon="11.3031438"><ele>280.4</ele><time>2026-05-02T09:56:57.966Z</time></trkpt><trkpt lat="43.9919149" lon="11.3031402"><ele>280.6</ele><time>2026-05-02T09:56:58.955Z</time></trkpt><trkpt lat="43.9918153" lon="11.3031442"><ele>280.8</ele><time>2026-05-02T09:56:59.948Z</time></trkpt><trkpt lat="43.9917196" lon="11.3031395"><ele>281.0</ele><time>2026-05-02T09:57:00.962Z</time></trkpt><trkpt lat="43.9916351" lon="11.3031255"><ele>280.83333333333337</ele><time>2026-05-02T09:57:01.969Z</time></trkpt><trkpt lat="43.9915527" lon="11.3031108"><ele>280.6666666666667</ele><time>2026-05-02T09:57:02.96Z</time></trkpt><trkpt lat="43.9914662" lon="11.3030937"><ele>280.5</ele><time>2026-05-02T09:57:03.967Z</time></trkpt><trkpt lat="43.9913821" lon="11.3030789"><ele>280.3333333333333</ele><time>2026-05-02T09:57:04.958Z</time></trkpt><trkpt lat="43.991297" lon="11.3030514"><ele>280.16666666666663</ele><time>2026-05-02T09:57:05.955Z</time></trkpt><trkpt lat="43.9912086" lon="11.3030279"><ele>280.0</ele><time>2026-05-02T09:57:06.963Z</time></trkpt><trkpt lat="43.991114" lon="11.3029949"><ele>280.0</ele><time>2026-05-02T09:57:07.966Z</time></trkpt><trkpt lat="43.9910218" lon="11.3029605"><ele>280.0</ele><time>2026-05-02T09:57:08.964Z</time></trkpt><trkpt lat="43.9909319" lon="11.302924"><ele>280.0</ele><time>2026-05-02T09:57:09.967Z</time></trkpt><trkpt lat="43.9908403" lon="11.3028862"><ele>280.0</ele><time>2026-05-02T09:57:10.967Z</time></trkpt><trkpt lat="43.9907501" lon="11.3028529"><ele>280.0</ele><time>2026-05-02T09:57:11.969Z</time></trkpt><trkpt lat="43.9906556" lon="11.3028248"><ele>280.0</ele><time>2026-05-02T09:57:12.973Z</time></trkpt><trkpt lat="43.9905581" lon="11.3027974"><ele>280.0</ele><time>2026-05-02T09:57:13.968Z</time></trkpt><trkpt lat="43.9904662" lon="11.3027737"><ele>280.0</ele><time>2026-05-02T09:57:14.967Z</time></trkpt><trkpt lat="43.9903686" lon="11.3027662"><ele>280.0</ele><time>2026-05-02T09:57:15.968Z</time></trkpt><trkpt lat="43.9902723" lon="11.3027622"><ele>280.0</ele><time>2026-05-02T09:57:16.972Z</time></trkpt><trkpt lat="43.9901772" lon="11.3027704"><ele>280.0</ele><time>2026-05-02T09:57:17.969Z</time></trkpt><trkpt lat="43.9900857" lon="11.3027898"><ele>280.0</ele><time>2026-05-02T09:57:18.967Z</time></trkpt><trkpt lat="43.989996" lon="11.302814"><ele>280.0</ele><time>2026-05-02T09:57:19.967Z</time></trkpt><trkpt lat="43.9899105" lon="11.3028403"><ele>280.0</ele><time>2026-05-02T09:57:20.961Z</time></trkpt><trkpt lat="43.9898263" lon="11.3028694"><ele>280.0</ele><time>2026-05-02T09:57:21.963Z</time></trkpt><trkpt lat="43.9897416" lon="11.3028973"><ele>280.0</ele><time>2026-05-02T09:57:22.946Z</time></trkpt><trkpt lat="43.9896601" lon="11.3029268"><ele>280.0</ele><time>2026-05-02T09:57:23.963Z</time></trkpt><trkpt lat="43.9895782" lon="11.3029588"><ele>280.0</ele><time>2026-05-02T09:57:24.962Z</time></trkpt><trkpt lat="43.9894964" lon="11.302985"><ele>280.0</ele><time>2026-05-02T09:57:26.026Z</time></trkpt><trkpt lat="43.9894103" lon="11.3030141"><ele>280.0</ele><time>2026-05-02T09:57:27.053Z</time></trkpt><trkpt lat="43.989326" lon="11.3030371"><ele>280.0</ele><time>2026-05-02T09:57:27.958Z</time></trkpt><trkpt lat="43.9892447" lon="11.3030611"><ele>280.0</ele><time>2026-05-02T09:57:28.967Z</time></trkpt><trkpt lat="43.9891651" lon="11.3030895"><ele>280.0</ele><time>2026-05-02T09:57:29.966Z</time></trkpt><trkpt lat="43.9890832" lon="11.3031146"><ele>280.0</ele><time>2026-05-02T09:57:31.03Z</time></trkpt><trkpt lat="43.9890017" lon="11.3031422"><ele>280.0</ele><time>2026-05-02T09:57:32.034Z</time></trkpt><trkpt lat="43.9889143" lon="11.3031641"><ele>280.0</ele><time>2026-05-02T09:57:32.994Z</time></trkpt><trkpt lat="43.9888235" lon="11.3031824"><ele>280.0</ele><time>2026-05-02T09:57:33.96Z</time></trkpt><trkpt lat="43.9887332" lon="11.3032028"><ele>280.0</ele><time>2026-05-02T09:57:34.952Z</time></trkpt><trkpt lat="43.9886384" lon="11.3032344"><ele>280.0</ele><time>2026-05-02T09:57:35.956Z</time></trkpt><trkpt lat="43.9885415" lon="11.3032646"><ele>280.0</ele><time>2026-05-02T09:57:36.957Z</time></trkpt><trkpt lat="43.988442" lon="11.3032933"><ele>280.0</ele><time>2026-05-02T09:57:37.96Z</time></trkpt><trkpt lat="43.9883431" lon="11.3033206"><ele>280.0</ele><time>2026-05-02T09:57:39.028Z</time></trkpt><trkpt lat="43.9882441" lon="11.3033511"><ele>280.0</ele><time>2026-05-02T09:57:39.964Z</time></trkpt><trkpt lat="43.9881408" lon="11.303384"><ele>280.2</ele><time>2026-05-02T09:57:40.969Z</time></trkpt><trkpt lat="43.9880412" lon="11.3034178"><ele>280.4</ele><time>2026-05-02T09:57:41.96Z</time></trkpt><trkpt lat="43.9879451" lon="11.30345"><ele>280.6</ele><time>2026-05-02T09:57:42.973Z</time></trkpt><trkpt lat="43.9878507" lon="11.3034849"><ele>280.8</ele><time>2026-05-02T09:57:43.953Z</time></trkpt><trkpt lat="43.987755" lon="11.3035169"><ele>281.0</ele><time>2026-05-02T09:57:44.973Z</time></trkpt><trkpt lat="43.9876664" lon="11.303539"><ele>281.0</ele><time>2026-05-02T09:57:45.954Z</time></trkpt><trkpt lat="43.9875723" lon="11.3035636"><ele>281.0</ele><time>2026-05-02T09:57:46.966Z</time></trkpt><trkpt lat="43.9874737" lon="11.3035821"><ele>281.0</ele><time>2026-05-02T09:57:47.959Z</time></trkpt><trkpt lat="43.9873783" lon="11.3036006"><ele>281.0</ele><time>2026-05-02T09:57:48.964Z</time></trkpt><trkpt lat="43.9872776" lon="11.3036176"><ele>281.0</ele><time>2026-05-02T09:57:49.96Z</time></trkpt><trkpt lat="43.9871771" lon="11.3036381"><ele>280.8</ele><time>2026-05-02T09:57:50.96Z</time></trkpt><trkpt lat="43.9870715" lon="11.3036562"><ele>280.6</ele><time>2026-05-02T09:57:51.964Z</time></trkpt><trkpt lat="43.9869713" lon="11.3036751"><ele>280.4</ele><time>2026-05-02T09:57:52.953Z</time></trkpt><trkpt lat="43.9868794" lon="11.3036919"><ele>280.2</ele><time>2026-05-02T09:57:53.963Z</time></trkpt><trkpt lat="43.986794" lon="11.3037124"><ele>280.0</ele><time>2026-05-02T09:57:54.964Z</time></trkpt><trkpt lat="43.9867168" lon="11.303727"><ele>279.7142857142857</ele><time>2026-05-02T09:57:55.95Z</time></trkpt><trkpt lat="43.9866521" lon="11.3037388"><ele>279.42857142857144</ele><time>2026-05-02T09:57:56.961Z</time></trkpt><trkpt lat="43.9865649" lon="11.3037605"><ele>279.1428571428571</ele><time>2026-05-02T09:57:59.037Z</time></trkpt><trkpt lat="43.9865106" lon="11.3038184"><ele>278.8571428571429</ele><time>2026-05-02T09:58:07.972Z</time></trkpt><trkpt lat="43.9864819" lon="11.3039207"><ele>278.57142857142856</ele><time>2026-05-02T09:58:10.971Z</time></trkpt><trkpt lat="43.9864853" lon="11.3040214"><ele>278.2857142857143</ele><time>2026-05-02T09:58:12.968Z</time></trkpt><trkpt lat="43.9864913" lon="11.3041094"><ele>278.0</ele><time>2026-05-02T09:58:15.038Z</time></trkpt><trkpt lat="43.9865049" lon="11.3042263"><ele>277.6666666666667</ele><time>2026-05-02T09:58:17.974Z</time></trkpt><trkpt lat="43.986521" lon="11.3043246"><ele>277.33333333333337</ele><time>2026-05-02T09:58:19.957Z</time></trkpt><trkpt lat="43.9865357" lon="11.3044778"><ele>277.0</ele><time>2026-05-02T09:58:21.959Z</time></trkpt><trkpt lat="43.9865424" lon="11.3045797"><ele>276.6666666666667</ele><time>2026-05-02T09:58:22.958Z</time></trkpt><trkpt lat="43.9865443" lon="11.3046927"><ele>276.3333333333333</ele><time>2026-05-02T09:58:24.04Z</time></trkpt><trkpt lat="43.986545" lon="11.3048194"><ele>276.0</ele><time>2026-05-02T09:58:25.033Z</time></trkpt><trkpt lat="43.9865467" lon="11.3049467"><ele>275.40000000000003</ele><time>2026-05-02T09:58:25.968Z</time></trkpt><trkpt lat="43.9865482" lon="11.3050874"><ele>274.8</ele><time>2026-05-02T09:58:26.967Z</time></trkpt><trkpt lat="43.9865468" lon="11.3052292"><ele>274.20000000000005</ele><time>2026-05-02T09:58:27.966Z</time></trkpt><trkpt lat="43.9865456" lon="11.3053695"><ele>273.6</ele><time>2026-05-02T09:58:28.983Z</time></trkpt><trkpt lat="43.9865397" lon="11.3055166"><ele>273.0</ele><time>2026-05-02T09:58:29.994Z</time></trkpt><trkpt lat="43.9865356" lon="11.3056634"><ele>271.8</ele><time>2026-05-02T09:58:30.963Z</time></trkpt><trkpt lat="43.9865334" lon="11.3058029"><ele>270.6</ele><time>2026-05-02T09:58:32.019Z</time></trkpt><trkpt lat="43.9865318" lon="11.3059397"><ele>269.4</ele><time>2026-05-02T09:58:32.96Z</time></trkpt><trkpt lat="43.986526" lon="11.3060721"><ele>268.2</ele><time>2026-05-02T09:58:33.959Z</time></trkpt><trkpt lat="43.9865194" lon="11.3062052"><ele>267.0</ele><time>2026-05-02T09:58:34.957Z</time></trkpt><trkpt lat="43.9865102" lon="11.3063373"><ele>266.6</ele><time>2026-05-02T09:58:35.961Z</time></trkpt><trkpt lat="43.9864911" lon="11.3064688"><ele>266.2</ele><time>2026-05-02T09:58:37.043Z</time></trkpt><trkpt lat="43.9864699" lon="11.3066067"><ele>265.8</ele><time>2026-05-02T09:58:37.973Z</time></trkpt><trkpt lat="43.9864497" lon="11.3067374"><ele>265.4</ele><time>2026-05-02T09:58:38.977Z</time></trkpt><trkpt lat="43.9864273" lon="11.3068754"><ele>265.0</ele><time>2026-05-02T09:58:40Z</time></trkpt><trkpt lat="43.9864034" lon="11.3070028"><ele>265.0</ele><time>2026-05-02T09:58:40.977Z</time></trkpt><trkpt lat="43.9863769" lon="11.3071319"><ele>265.0</ele><time>2026-05-02T09:58:41.982Z</time></trkpt><trkpt lat="43.9863484" lon="11.3072541"><ele>265.0</ele><time>2026-05-02T09:58:42.974Z</time></trkpt><trkpt lat="43.9863204" lon="11.3073762"><ele>265.0</ele><time>2026-05-02T09:58:44.029Z</time></trkpt><trkpt lat="43.9862954" lon="11.3075027"><ele>265.0</ele><time>2026-05-02T09:58:45.036Z</time></trkpt><trkpt lat="43.9862885" lon="11.3076174"><ele>264.8</ele><time>2026-05-02T09:58:45.964Z</time></trkpt><trkpt lat="43.9862894" lon="11.307738"><ele>264.6</ele><time>2026-05-02T09:58:47.03Z</time></trkpt><trkpt lat="43.9863076" lon="11.3078534"><ele>264.4</ele><time>2026-05-02T09:58:47.948Z</time></trkpt><trkpt lat="43.9863377" lon="11.3079809"><ele>264.2</ele><time>2026-05-02T09:58:48.973Z</time></trkpt><trkpt lat="43.9863619" lon="11.3081073"><ele>264.0</ele><time>2026-05-02T09:58:50.001Z</time></trkpt><trkpt lat="43.9863858" lon="11.3082406"><ele>262.2</ele><time>2026-05-02T09:58:50.976Z</time></trkpt><trkpt lat="43.9864039" lon="11.3083879"><ele>260.4</ele><time>2026-05-02T09:58:51.962Z</time></trkpt><trkpt lat="43.9864191" lon="11.3085411"><ele>258.6</ele><time>2026-05-02T09:58:52.969Z</time></trkpt><trkpt lat="43.9864286" lon="11.3087013"><ele>256.8</ele><time>2026-05-02T09:58:53.955Z</time></trkpt><trkpt lat="43.9864435" lon="11.3088522"><ele>255.0</ele><time>2026-05-02T09:58:54.969Z</time></trkpt><trkpt lat="43.9864694" lon="11.3089884"><ele>254.4</ele><time>2026-05-02T09:58:55.96Z</time></trkpt><trkpt lat="43.9865215" lon="11.3091223"><ele>253.8</ele><time>2026-05-02T09:58:57.048Z</time></trkpt><trkpt lat="43.9865799" lon="11.3092419"><ele>253.2</ele><time>2026-05-02T09:58:57.967Z</time></trkpt><trkpt lat="43.9866298" lon="11.3093607"><ele>252.6</ele><time>2026-05-02T09:58:58.969Z</time></trkpt><trkpt lat="43.9866773" lon="11.3094713"><ele>252.0</ele><time>2026-05-02T09:58:59.963Z</time></trkpt><trkpt lat="43.9867194" lon="11.3095751"><ele>252.0</ele><time>2026-05-02T09:59:00.971Z</time></trkpt><trkpt lat="43.9867442" lon="11.3096706"><ele>252.0</ele><time>2026-05-02T09:59:01.973Z</time></trkpt><trkpt lat="43.986723" lon="11.3097665"><ele>252.0</ele><time>2026-05-02T09:59:02.969Z</time></trkpt><trkpt lat="43.9866071" lon="11.3098375"><ele>252.0</ele><time>2026-05-02T09:59:05.039Z</time></trkpt><trkpt lat="43.9865393" lon="11.3098402"><ele>252.0</ele><time>2026-05-02T09:59:05.952Z</time></trkpt><trkpt lat="43.9864676" lon="11.3098459"><ele>252.0</ele><time>2026-05-02T09:59:07.037Z</time></trkpt><trkpt lat="43.9863912" lon="11.3098501"><ele>251.6</ele><time>2026-05-02T09:59:07.96Z</time></trkpt><trkpt lat="43.9863167" lon="11.3098636"><ele>251.2</ele><time>2026-05-02T09:59:08.968Z</time></trkpt><trkpt lat="43.9862285" lon="11.3099159"><ele>250.8</ele><time>2026-05-02T09:59:09.982Z</time></trkpt><trkpt lat="43.9861379" lon="11.309975"><ele>250.4</ele><time>2026-05-02T09:59:11.023Z</time></trkpt><trkpt lat="43.9860455" lon="11.3100328"><ele>250.0</ele><time>2026-05-02T09:59:12.037Z</time></trkpt><trkpt lat="43.9859517" lon="11.3100896"><ele>250.0</ele><time>2026-05-02T09:59:12.956Z</time></trkpt><trkpt lat="43.9858598" lon="11.3101536"><ele>250.0</ele><time>2026-05-02T09:59:13.968Z</time></trkpt><trkpt lat="43.9857637" lon="11.3102157"><ele>250.0</ele><time>2026-05-02T09:59:14.979Z</time></trkpt><trkpt lat="43.9856723" lon="11.3102785"><ele>250.0</ele><time>2026-05-02T09:59:16.053Z</time></trkpt><trkpt lat="43.9855712" lon="11.3103308"><ele>250.0</ele><time>2026-05-02T09:59:17.044Z</time></trkpt><trkpt lat="43.9854681" lon="11.3103759"><ele>249.4</ele><time>2026-05-02T09:59:17.974Z</time></trkpt><trkpt lat="43.9853613" lon="11.3104175"><ele>248.8</ele><time>2026-05-02T09:59:19.037Z</time></trkpt><trkpt lat="43.9852544" lon="11.3104478"><ele>248.2</ele><time>2026-05-02T09:59:20.036Z</time></trkpt><trkpt lat="43.9851495" lon="11.3104869"><ele>247.6</ele><time>2026-05-02T09:59:21.032Z</time></trkpt><trkpt lat="43.9850465" lon="11.310529"><ele>247.0</ele><time>2026-05-02T09:59:22.033Z</time></trkpt><trkpt lat="43.9849456" lon="11.3105762"><ele>246.6</ele><time>2026-05-02T09:59:22.961Z</time></trkpt><trkpt lat="43.9848436" lon="11.3106259"><ele>246.2</ele><time>2026-05-02T09:59:23.971Z</time></trkpt><trkpt lat="43.9847421" lon="11.3106717"><ele>245.8</ele><time>2026-05-02T09:59:24.958Z</time></trkpt><trkpt lat="43.9846349" lon="11.3107158"><ele>245.4</ele><time>2026-05-02T09:59:25.966Z</time></trkpt><trkpt lat="43.9845295" lon="11.3107582"><ele>245.0</ele><time>2026-05-02T09:59:26.97Z</time></trkpt><trkpt lat="43.984428" lon="11.3107894"><ele>245.0</ele><time>2026-05-02T09:59:27.957Z</time></trkpt><trkpt lat="43.9843296" lon="11.3108148"><ele>245.0</ele><time>2026-05-02T09:59:28.951Z</time></trkpt><trkpt lat="43.984226" lon="11.3108265"><ele>245.0</ele><time>2026-05-02T09:59:29.954Z</time></trkpt><trkpt lat="43.9841192" lon="11.3108338"><ele>245.0</ele><time>2026-05-02T09:59:30.955Z</time></trkpt><trkpt lat="43.9840129" lon="11.3108374"><ele>245.0</ele><time>2026-05-02T09:59:31.96Z</time></trkpt><trkpt lat="43.9839126" lon="11.3108436"><ele>245.2</ele><time>2026-05-02T09:59:32.971Z</time></trkpt><trkpt lat="43.9838094" lon="11.3108492"><ele>245.4</ele><time>2026-05-02T09:59:33.965Z</time></trkpt><trkpt lat="43.9837065" lon="11.3108645"><ele>245.60000000000002</ele><time>2026-05-02T09:59:34.961Z</time></trkpt><trkpt lat="43.9836094" lon="11.3108879"><ele>245.8</ele><time>2026-05-02T09:59:35.987Z</time></trkpt><trkpt lat="43.983516" lon="11.3109311"><ele>246.0</ele><time>2026-05-02T09:59:36.965Z</time></trkpt><trkpt lat="43.9834264" lon="11.3109952"><ele>245.4</ele><time>2026-05-02T09:59:37.959Z</time></trkpt><trkpt lat="43.9833422" lon="11.3110556"><ele>244.8</ele><time>2026-05-02T09:59:38.962Z</time></trkpt><trkpt lat="43.9832548" lon="11.3111151"><ele>244.20000000000002</ele><time>2026-05-02T09:59:39.956Z</time></trkpt><trkpt lat="43.9831639" lon="11.3111632"><ele>243.60000000000002</ele><time>2026-05-02T09:59:40.956Z</time></trkpt><trkpt lat="43.9830716" lon="11.3112096"><ele>243.0</ele><time>2026-05-02T09:59:41.964Z</time></trkpt><trkpt lat="43.9829781" lon="11.3112533"><ele>243.0</ele><time>2026-05-02T09:59:42.951Z</time></trkpt><trkpt lat="43.9828881" lon="11.3112838"><ele>243.0</ele><time>2026-05-02T09:59:43.967Z</time></trkpt><trkpt lat="43.982794" lon="11.3113149"><ele>243.0</ele><time>2026-05-02T09:59:44.958Z</time></trkpt><trkpt lat="43.9826963" lon="11.3113402"><ele>243.0</ele><time>2026-05-02T09:59:45.964Z</time></trkpt><trkpt lat="43.9825992" lon="11.3113565"><ele>243.0</ele><time>2026-05-02T09:59:47.038Z</time></trkpt><trkpt lat="43.9825082" lon="11.3113671"><ele>243.0</ele><time>2026-05-02T09:59:47.966Z</time></trkpt><trkpt lat="43.9824111" lon="11.3113787"><ele>243.0</ele><time>2026-05-02T09:59:48.964Z</time></trkpt><trkpt lat="43.9823126" lon="11.3114001"><ele>243.0</ele><time>2026-05-02T09:59:49.965Z</time></trkpt><trkpt lat="43.9822148" lon="11.3114089"><ele>243.0</ele><time>2026-05-02T09:59:50.967Z</time></trkpt><trkpt lat="43.9821174" lon="11.3114341"><ele>243.0</ele><time>2026-05-02T09:59:51.962Z</time></trkpt><trkpt lat="43.9820301" lon="11.3114606"><ele>244.0</ele><time>2026-05-02T09:59:53.001Z</time></trkpt><trkpt lat="43.981939" lon="11.3115024"><ele>245.0</ele><time>2026-05-02T09:59:54.017Z</time></trkpt><trkpt lat="43.981841" lon="11.3115386"><ele>246.0</ele><time>2026-05-02T09:59:55.018Z</time></trkpt><trkpt lat="43.9817444" lon="11.3115663"><ele>247.0</ele><time>2026-05-02T09:59:56.033Z</time></trkpt><trkpt lat="43.9816424" lon="11.3115906"><ele>248.0</ele><time>2026-05-02T09:59:57.028Z</time></trkpt><trkpt lat="43.9815419" lon="11.3116067"><ele>248.0</ele><time>2026-05-02T09:59:57.958Z</time></trkpt><trkpt lat="43.9814395" lon="11.3116232"><ele>248.0</ele><time>2026-05-02T09:59:58.963Z</time></trkpt><trkpt lat="43.9813415" lon="11.311637"><ele>248.0</ele><time>2026-05-02T09:59:59.943Z</time></trkpt><trkpt lat="43.9812448" lon="11.3116502"><ele>248.0</ele><time>2026-05-02T10:00:01.038Z</time></trkpt><trkpt lat="43.9811492" lon="11.3116616"><ele>248.0</ele><time>2026-05-02T10:00:02.032Z</time></trkpt><trkpt lat="43.9810519" lon="11.3116777"><ele>248.0</ele><time>2026-05-02T10:00:02.969Z</time></trkpt><trkpt lat="43.9809548" lon="11.3116893"><ele>248.0</ele><time>2026-05-02T10:00:03.97Z</time></trkpt><trkpt lat="43.9808575" lon="11.3117056"><ele>248.0</ele><time>2026-05-02T10:00:04.988Z</time></trkpt><trkpt lat="43.9807636" lon="11.311722"><ele>248.0</ele><time>2026-05-02T10:00:06.034Z</time></trkpt><trkpt lat="43.9806702" lon="11.3117329"><ele>248.0</ele><time>2026-05-02T10:00:06.983Z</time></trkpt><trkpt lat="43.9805775" lon="11.3117362"><ele>248.0</ele><time>2026-05-02T10:00:07.97Z</time></trkpt><trkpt lat="43.9804869" lon="11.3117168"><ele>248.0</ele><time>2026-05-02T10:00:08.971Z</time></trkpt><trkpt lat="43.9804031" lon="11.3116794"><ele>248.0</ele><time>2026-05-02T10:00:09.982Z</time></trkpt><trkpt lat="43.9803157" lon="11.3116408"><ele>248.0</ele><time>2026-05-02T10:00:11.046Z</time></trkpt><trkpt lat="43.9802311" lon="11.3116141"><ele>248.0</ele><time>2026-05-02T10:00:11.964Z</time></trkpt><trkpt lat="43.9801392" lon="11.3115989"><ele>248.0</ele><time>2026-05-02T10:00:12.968Z</time></trkpt><trkpt lat="43.9800455" lon="11.3115844"><ele>248.0</ele><time>2026-05-02T10:00:13.961Z</time></trkpt><trkpt lat="43.9799504" lon="11.3115845"><ele>248.0</ele><time>2026-05-02T10:00:15.025Z</time></trkpt><trkpt lat="43.9798542" lon="11.3116027"><ele>248.0</ele><time>2026-05-02T10:00:15.975Z</time></trkpt><trkpt lat="43.979763" lon="11.311626"><ele>248.0</ele><time>2026-05-02T10:00:16.971Z</time></trkpt><trkpt lat="43.9796758" lon="11.3116693"><ele>247.60000000000002</ele><time>2026-05-02T10:00:17.95Z</time></trkpt><trkpt lat="43.9795858" lon="11.3117177"><ele>247.20000000000002</ele><time>2026-05-02T10:00:18.966Z</time></trkpt><trkpt lat="43.9794918" lon="11.3117599"><ele>246.8</ele><time>2026-05-02T10:00:20.055Z</time></trkpt><trkpt lat="43.9793934" lon="11.3118057"><ele>246.4</ele><time>2026-05-02T10:00:20.973Z</time></trkpt><trkpt lat="43.9792942" lon="11.3118514"><ele>246.0</ele><time>2026-05-02T10:00:21.98Z</time></trkpt><trkpt lat="43.9791987" lon="11.3118924"><ele>246.4</ele><time>2026-05-02T10:00:22.977Z</time></trkpt><trkpt lat="43.9790999" lon="11.3119394"><ele>246.8</ele><time>2026-05-02T10:00:23.975Z</time></trkpt><trkpt lat="43.9790008" lon="11.3119871"><ele>247.20000000000002</ele><time>2026-05-02T10:00:24.977Z</time></trkpt><trkpt lat="43.9789032" lon="11.3120328"><ele>247.60000000000002</ele><time>2026-05-02T10:00:25.965Z</time></trkpt><trkpt lat="43.9788034" lon="11.3120799"><ele>248.0</ele><time>2026-05-02T10:00:27.015Z</time></trkpt><trkpt lat="43.9787043" lon="11.3121243"><ele>248.0</ele><time>2026-05-02T10:00:27.99Z</time></trkpt><trkpt lat="43.9786045" lon="11.3121673"><ele>248.0</ele><time>2026-05-02T10:00:28.965Z</time></trkpt><trkpt lat="43.9785063" lon="11.3122143"><ele>248.0</ele><time>2026-05-02T10:00:29.965Z</time></trkpt><trkpt lat="43.9784059" lon="11.3122583"><ele>248.0</ele><time>2026-05-02T10:00:30.972Z</time></trkpt><trkpt lat="43.9783065" lon="11.3123037"><ele>248.0</ele><time>2026-05-02T10:00:31.974Z</time></trkpt><trkpt lat="43.9782074" lon="11.3123462"><ele>246.4</ele><time>2026-05-02T10:00:32.964Z</time></trkpt><trkpt lat="43.9781102" lon="11.312394"><ele>244.8</ele><time>2026-05-02T10:00:33.979Z</time></trkpt><trkpt lat="43.9780116" lon="11.3124398"><ele>243.2</ele><time>2026-05-02T10:00:35.04Z</time></trkpt><trkpt lat="43.9779099" lon="11.3124819"><ele>241.6</ele><time>2026-05-02T10:00:35.999Z</time></trkpt><trkpt lat="43.9778078" lon="11.3125236"><ele>240.0</ele><time>2026-05-02T10:00:36.966Z</time></trkpt><trkpt lat="43.9777039" lon="11.3125583"><ele>240.0</ele><time>2026-05-02T10:00:37.968Z</time></trkpt><trkpt lat="43.9776045" lon="11.312581"><ele>240.0</ele><time>2026-05-02T10:00:38.967Z</time></trkpt><trkpt lat="43.9775062" lon="11.3126116"><ele>240.0</ele><time>2026-05-02T10:00:39.964Z</time></trkpt><trkpt lat="43.9774087" lon="11.3126472"><ele>240.0</ele><time>2026-05-02T10:00:40.97Z</time></trkpt><trkpt lat="43.9773146" lon="11.3126928"><ele>240.0</ele><time>2026-05-02T10:00:41.958Z</time></trkpt><trkpt lat="43.9772197" lon="11.3127485"><ele>240.0</ele><time>2026-05-02T10:00:42.977Z</time></trkpt><trkpt lat="43.9771341" lon="11.3128034"><ele>240.0</ele><time>2026-05-02T10:00:43.97Z</time></trkpt><trkpt lat="43.9770469" lon="11.3128763"><ele>240.0</ele><time>2026-05-02T10:00:44.967Z</time></trkpt><trkpt lat="43.9769632" lon="11.3129422"><ele>240.0</ele><time>2026-05-02T10:00:45.963Z</time></trkpt><trkpt lat="43.97688" lon="11.3130149"><ele>240.0</ele><time>2026-05-02T10:00:46.967Z</time></trkpt><trkpt lat="43.9767985" lon="11.3130895"><ele>240.0</ele><time>2026-05-02T10:00:47.964Z</time></trkpt><trkpt lat="43.976715" lon="11.3131682"><ele>240.0</ele><time>2026-05-02T10:00:48.97Z</time></trkpt><trkpt lat="43.9766273" lon="11.3132435"><ele>240.0</ele><time>2026-05-02T10:00:50.028Z</time></trkpt><trkpt lat="43.9765357" lon="11.3133135"><ele>240.0</ele><time>2026-05-02T10:00:50.965Z</time></trkpt><trkpt lat="43.9764467" lon="11.3133883"><ele>240.0</ele><time>2026-05-02T10:00:52.034Z</time></trkpt><trkpt lat="43.9763543" lon="11.313457"><ele>239.8</ele><time>2026-05-02T10:00:52.961Z</time></trkpt><trkpt lat="43.9762631" lon="11.3135266"><ele>239.6</ele><time>2026-05-02T10:00:54.046Z</time></trkpt><trkpt lat="43.9761739" lon="11.3135935"><ele>239.39999999999998</ele><time>2026-05-02T10:00:55.018Z</time></trkpt><trkpt lat="43.9760889" lon="11.3136626"><ele>239.2</ele><time>2026-05-02T10:00:56.027Z</time></trkpt><trkpt lat="43.9760019" lon="11.3137308"><ele>239.0</ele><time>2026-05-02T10:00:57.029Z</time></trkpt><trkpt lat="43.9759196" lon="11.3138015"><ele>239.2</ele><time>2026-05-02T10:00:57.974Z</time></trkpt><trkpt lat="43.9758364" lon="11.3138797"><ele>239.39999999999998</ele><time>2026-05-02T10:00:58.966Z</time></trkpt><trkpt lat="43.9757539" lon="11.3139672"><ele>239.6</ele><time>2026-05-02T10:00:59.966Z</time></trkpt><trkpt lat="43.9756736" lon="11.3140526"><ele>239.8</ele><time>2026-05-02T10:01:00.97Z</time></trkpt><trkpt lat="43.9755923" lon="11.3141444"><ele>240.0</ele><time>2026-05-02T10:01:01.969Z</time></trkpt><trkpt lat="43.9755138" lon="11.3142368"><ele>240.0</ele><time>2026-05-02T10:01:02.97Z</time></trkpt><trkpt lat="43.9754339" lon="11.3143261"><ele>240.0</ele><time>2026-05-02T10:01:04.029Z</time></trkpt><trkpt lat="43.9753593" lon="11.3144101"><ele>240.0</ele><time>2026-05-02T10:01:04.974Z</time></trkpt><trkpt lat="43.9752865" lon="11.3144909"><ele>240.0</ele><time>2026-05-02T10:01:05.988Z</time></trkpt><trkpt lat="43.9752123" lon="11.3145683"><ele>240.0</ele><time>2026-05-02T10:01:06.977Z</time></trkpt><trkpt lat="43.9751318" lon="11.3146483"><ele>240.0</ele><time>2026-05-02T10:01:08.005Z</time></trkpt><trkpt lat="43.9750415" lon="11.3147337"><ele>240.0</ele><time>2026-05-02T10:01:09.044Z</time></trkpt><trkpt lat="43.9749378" lon="11.3148178"><ele>240.0</ele><time>2026-05-02T10:01:09.97Z</time></trkpt><trkpt lat="43.9748344" lon="11.3149024"><ele>240.0</ele><time>2026-05-02T10:01:10.961Z</time></trkpt><trkpt lat="43.9747238" lon="11.3149877"><ele>238.25</ele><time>2026-05-02T10:01:11.977Z</time></trkpt><trkpt lat="43.9746093" lon="11.3150748"><ele>236.5</ele><time>2026-05-02T10:01:12.972Z</time></trkpt><trkpt lat="43.9744897" lon="11.3151628"><ele>234.75</ele><time>2026-05-02T10:01:13.971Z</time></trkpt><trkpt lat="43.9743664" lon="11.315255"><ele>233.0</ele><time>2026-05-02T10:01:14.947Z</time></trkpt><trkpt lat="43.9742558" lon="11.3153467"><ele>230.5</ele><time>2026-05-02T10:01:16.013Z</time></trkpt><trkpt lat="43.9741406" lon="11.3154431"><ele>228.0</ele><time>2026-05-02T10:01:17.02Z</time></trkpt><trkpt lat="43.9740307" lon="11.3155302"><ele>225.5</ele><time>2026-05-02T10:01:17.969Z</time></trkpt><trkpt lat="43.9739235" lon="11.315608"><ele>223.0</ele><time>2026-05-02T10:01:19.048Z</time></trkpt><trkpt lat="43.9738111" lon="11.3156783"><ele>222.25</ele><time>2026-05-02T10:01:19.977Z</time></trkpt><trkpt lat="43.973695" lon="11.3157458"><ele>221.5</ele><time>2026-05-02T10:01:20.983Z</time></trkpt><trkpt lat="43.973579" lon="11.3158048"><ele>220.75</ele><time>2026-05-02T10:01:21.973Z</time></trkpt><trkpt lat="43.9734565" lon="11.3158517"><ele>220.0</ele><time>2026-05-02T10:01:22.977Z</time></trkpt><trkpt lat="43.9733326" lon="11.3158861"><ele>219.5</ele><time>2026-05-02T10:01:23.975Z</time></trkpt><trkpt lat="43.973207" lon="11.3159115"><ele>219.0</ele><time>2026-05-02T10:01:25.041Z</time></trkpt><trkpt lat="43.9730789" lon="11.3159338"><ele>218.5</ele><time>2026-05-02T10:01:26.031Z</time></trkpt><trkpt lat="43.9729533" lon="11.3159549"><ele>218.0</ele><time>2026-05-02T10:01:27.021Z</time></trkpt><trkpt lat="43.9728217" lon="11.3159755"><ele>218.0</ele><time>2026-05-02T10:01:27.965Z</time></trkpt><trkpt lat="43.97269" lon="11.3160071"><ele>218.0</ele><time>2026-05-02T10:01:28.968Z</time></trkpt><trkpt lat="43.9725545" lon="11.3160455"><ele>218.0</ele><time>2026-05-02T10:01:29.969Z</time></trkpt><trkpt lat="43.9724293" lon="11.3160936"><ele>218.0</ele><time>2026-05-02T10:01:30.976Z</time></trkpt><trkpt lat="43.9723091" lon="11.3161442"><ele>217.5</ele><time>2026-05-02T10:01:31.97Z</time></trkpt><trkpt lat="43.9721877" lon="11.3162038"><ele>217.0</ele><time>2026-05-02T10:01:32.984Z</time></trkpt><trkpt lat="43.9720679" lon="11.3162628"><ele>216.5</ele><time>2026-05-02T10:01:33.975Z</time></trkpt><trkpt lat="43.9719472" lon="11.3163094"><ele>216.0</ele><time>2026-05-02T10:01:34.963Z</time></trkpt><trkpt lat="43.9718326" lon="11.3163585"><ele>216.0</ele><time>2026-05-02T10:01:35.961Z</time></trkpt><trkpt lat="43.9717152" lon="11.3163889"><ele>216.0</ele><time>2026-05-02T10:01:36.985Z</time></trkpt><trkpt lat="43.9715943" lon="11.3164082"><ele>216.0</ele><time>2026-05-02T10:01:37.961Z</time></trkpt><trkpt lat="43.9714751" lon="11.3164355"><ele>216.0</ele><time>2026-05-02T10:01:38.955Z</time></trkpt><trkpt lat="43.9713643" lon="11.3164607"><ele>215.60000000000002</ele><time>2026-05-02T10:01:39.976Z</time></trkpt><trkpt lat="43.971257" lon="11.3165065"><ele>215.20000000000002</ele><time>2026-05-02T10:01:40.968Z</time></trkpt><trkpt lat="43.9711541" lon="11.3165658"><ele>214.79999999999998</ele><time>2026-05-02T10:01:41.972Z</time></trkpt><trkpt lat="43.97106" lon="11.3166379"><ele>214.39999999999998</ele><time>2026-05-02T10:01:42.964Z</time></trkpt><trkpt lat="43.9709717" lon="11.3167"><ele>214.0</ele><time>2026-05-02T10:01:43.962Z</time></trkpt><trkpt lat="43.9708905" lon="11.3167591"><ele>213.49999999999997</ele><time>2026-05-02T10:01:44.962Z</time></trkpt><trkpt lat="43.9708172" lon="11.3168064"><ele>213.0</ele><time>2026-05-02T10:01:45.966Z</time></trkpt><trkpt lat="43.9707426" lon="11.3168449"><ele>212.5</ele><time>2026-05-02T10:01:46.967Z</time></trkpt><trkpt lat="43.970666" lon="11.3168908"><ele>212.0</ele><time>2026-05-02T10:01:47.964Z</time></trkpt><trkpt lat="43.970588" lon="11.3169342"><ele>211.49999999999997</ele><time>2026-05-02T10:01:48.975Z</time></trkpt><trkpt lat="43.9705061" lon="11.3169823"><ele>211.0</ele><time>2026-05-02T10:01:49.98Z</time></trkpt><trkpt lat="43.9704258" lon="11.3170346"><ele>210.99999999999997</ele><time>2026-05-02T10:01:50.964Z</time></trkpt><trkpt lat="43.9703448" lon="11.317085"><ele>211.0</ele><time>2026-05-02T10:01:51.964Z</time></trkpt><trkpt lat="43.9702655" lon="11.3171454"><ele>211.0</ele><time>2026-05-02T10:01:52.945Z</time></trkpt><trkpt lat="43.9701887" lon="11.3172125"><ele>211.0</ele><time>2026-05-02T10:01:53.96Z</time></trkpt><trkpt lat="43.9701234" lon="11.3172906"><ele>210.99999999999997</ele><time>2026-05-02T10:01:54.959Z</time></trkpt><trkpt lat="43.9700608" lon="11.3173806"><ele>211.0</ele><time>2026-05-02T10:01:55.958Z</time></trkpt><trkpt lat="43.9699837" lon="11.3174657"><ele>211.0</ele><time>2026-05-02T10:01:56.959Z</time></trkpt><trkpt lat="43.9699014" lon="11.3175514"><ele>211.0</ele><time>2026-05-02T10:01:57.96Z</time></trkpt><trkpt lat="43.9698198" lon="11.3176405"><ele>211.0</ele><time>2026-05-02T10:01:58.969Z</time></trkpt><trkpt lat="43.969745" lon="11.317747"><ele>211.0</ele><time>2026-05-02T10:01:59.958Z</time></trkpt><trkpt lat="43.9696814" lon="11.317848"><ele>211.0</ele><time>2026-05-02T10:02:00.967Z</time></trkpt><trkpt lat="43.9696195" lon="11.3179364"><ele>210.99999999999997</ele><time>2026-05-02T10:02:01.955Z</time></trkpt><trkpt lat="43.9695643" lon="11.3180198"><ele>211.0</ele><time>2026-05-02T10:02:02.959Z</time></trkpt><trkpt lat="43.9695107" lon="11.3181015"><ele>211.0</ele><time>2026-05-02T10:02:03.954Z</time></trkpt><trkpt lat="43.9694617" lon="11.3181787"><ele>211.0</ele><time>2026-05-02T10:02:04.957Z</time></trkpt><trkpt lat="43.969404" lon="11.318246"><ele>210.99999999999997</ele><time>2026-05-02T10:02:05.952Z</time></trkpt><trkpt lat="43.969355" lon="11.3183122"><ele>211.0</ele><time>2026-05-02T10:02:06.971Z</time></trkpt><trkpt lat="43.969266" lon="11.318426"><ele>210.33333333333331</ele><time>2026-05-02T10:02:08.953Z</time></trkpt><trkpt lat="43.969176" lon="11.3185001"><ele>209.66666666666666</ele><time>2026-05-02T10:02:10.964Z</time></trkpt><trkpt lat="43.9690957" lon="11.3184721"><ele>209.0</ele><time>2026-05-02T10:02:12.97Z</time></trkpt><trkpt lat="43.9690224" lon="11.3183579"><ele>208.33333333333331</ele><time>2026-05-02T10:02:14.96Z</time></trkpt><trkpt lat="43.9689914" lon="11.3182635"><ele>207.66666666666666</ele><time>2026-05-02T10:02:15.969Z</time></trkpt><trkpt lat="43.9689571" lon="11.3181691"><ele>207.0</ele><time>2026-05-02T10:02:16.95Z</time></trkpt><trkpt lat="43.9689195" lon="11.3180606"><ele>207.0</ele><time>2026-05-02T10:02:17.97Z</time></trkpt><trkpt lat="43.9688688" lon="11.3179511"><ele>207.0</ele><time>2026-05-02T10:02:18.969Z</time></trkpt><trkpt lat="43.9688185" lon="11.3178183"><ele>207.0</ele><time>2026-05-02T10:02:19.958Z</time></trkpt><trkpt lat="43.9687593" lon="11.3176838"><ele>207.0</ele><time>2026-05-02T10:02:20.958Z</time></trkpt><trkpt lat="43.9687094" lon="11.3175318"><ele>207.0</ele><time>2026-05-02T10:02:21.941Z</time></trkpt><trkpt lat="43.9686574" lon="11.3173851"><ele>207.0</ele><time>2026-05-02T10:02:22.962Z</time></trkpt><trkpt lat="43.968608" lon="11.3172374"><ele>207.0</ele><time>2026-05-02T10:02:23.952Z</time></trkpt><trkpt lat="43.9685576" lon="11.3170902"><ele>207.0</ele><time>2026-05-02T10:02:24.959Z</time></trkpt><trkpt lat="43.9685009" lon="11.3169419"><ele>207.0</ele><time>2026-05-02T10:02:25.951Z</time></trkpt><trkpt lat="43.9684443" lon="11.3167935"><ele>207.0</ele><time>2026-05-02T10:02:27.031Z</time></trkpt><trkpt lat="43.9683888" lon="11.3166402"><ele>207.0</ele><time>2026-05-02T10:02:27.97Z</time></trkpt><trkpt lat="43.9683303" lon="11.3164846"><ele>207.0</ele><time>2026-05-02T10:02:28.965Z</time></trkpt><trkpt lat="43.9682756" lon="11.3163227"><ele>207.0</ele><time>2026-05-02T10:02:29.995Z</time></trkpt><trkpt lat="43.9682148" lon="11.3161569"><ele>207.75</ele><time>2026-05-02T10:02:31.038Z</time></trkpt><trkpt lat="43.9681532" lon="11.315991"><ele>208.5</ele><time>2026-05-02T10:02:32.038Z</time></trkpt><trkpt lat="43.96809" lon="11.3158283"><ele>209.25</ele><time>2026-05-02T10:02:32.979Z</time></trkpt><trkpt lat="43.9680279" lon="11.3156689"><ele>210.0</ele><time>2026-05-02T10:02:33.966Z</time></trkpt><trkpt lat="43.967968" lon="11.3155092"><ele>210.5</ele><time>2026-05-02T10:02:34.992Z</time></trkpt><trkpt lat="43.9679114" lon="11.3153513"><ele>211.0</ele><time>2026-05-02T10:02:35.974Z</time></trkpt><trkpt lat="43.9678509" lon="11.3151949"><ele>211.5</ele><time>2026-05-02T10:02:37.035Z</time></trkpt><trkpt lat="43.9677903" lon="11.3150409"><ele>212.0</ele><time>2026-05-02T10:02:37.972Z</time></trkpt><trkpt lat="43.9677341" lon="11.314882"><ele>212.0</ele><time>2026-05-02T10:02:38.974Z</time></trkpt><trkpt lat="43.9676724" lon="11.3147229"><ele>212.0</ele><time>2026-05-02T10:02:40Z</time></trkpt><trkpt lat="43.9676114" lon="11.3145588"><ele>212.0</ele><time>2026-05-02T10:02:41.039Z</time></trkpt><trkpt lat="43.9675527" lon="11.3143921"><ele>212.0</ele><time>2026-05-02T10:02:42.033Z</time></trkpt><trkpt lat="43.967492" lon="11.3142259"><ele>212.0</ele><time>2026-05-02T10:02:42.958Z</time></trkpt><trkpt lat="43.9674305" lon="11.3140648"><ele>212.0</ele><time>2026-05-02T10:02:43.952Z</time></trkpt><trkpt lat="43.967372" lon="11.3139019"><ele>212.0</ele><time>2026-05-02T10:02:44.968Z</time></trkpt><trkpt lat="43.9673105" lon="11.3137369"><ele>212.0</ele><time>2026-05-02T10:02:46.013Z</time></trkpt><trkpt lat="43.9672477" lon="11.3135703"><ele>212.0</ele><time>2026-05-02T10:02:46.97Z</time></trkpt><trkpt lat="43.9671837" lon="11.3134004"><ele>212.0</ele><time>2026-05-02T10:02:47.96Z</time></trkpt><trkpt lat="43.9671214" lon="11.3132328"><ele>212.0</ele><time>2026-05-02T10:02:48.963Z</time></trkpt><trkpt lat="43.9670611" lon="11.3130647"><ele>212.0</ele><time>2026-05-02T10:02:49.959Z</time></trkpt><trkpt lat="43.9669996" lon="11.3128919"><ele>212.0</ele><time>2026-05-02T10:02:50.952Z</time></trkpt><trkpt lat="43.9669332" lon="11.3127162"><ele>212.0</ele><time>2026-05-02T10:02:51.962Z</time></trkpt><trkpt lat="43.9668672" lon="11.3125435"><ele>212.0</ele><time>2026-05-02T10:02:52.967Z</time></trkpt><trkpt lat="43.9667988" lon="11.312377"><ele>212.0</ele><time>2026-05-02T10:02:53.969Z</time></trkpt><trkpt lat="43.9667242" lon="11.3122137"><ele>212.0</ele><time>2026-05-02T10:02:54.966Z</time></trkpt><trkpt lat="43.9666424" lon="11.3120568"><ele>212.0</ele><time>2026-05-02T10:02:56.026Z</time></trkpt><trkpt lat="43.9665552" lon="11.3119145"><ele>212.0</ele><time>2026-05-02T10:02:56.976Z</time></trkpt><trkpt lat="43.9664697" lon="11.3117688"><ele>212.0</ele><time>2026-05-02T10:02:57.962Z</time></trkpt><trkpt lat="43.9663762" lon="11.3116305"><ele>212.0</ele><time>2026-05-02T10:02:58.965Z</time></trkpt><trkpt lat="43.9662756" lon="11.311507"><ele>212.0</ele><time>2026-05-02T10:02:59.966Z</time></trkpt><trkpt lat="43.9661693" lon="11.3113958"><ele>212.0</ele><time>2026-05-02T10:03:00.96Z</time></trkpt><trkpt lat="43.9660518" lon="11.3112959"><ele>212.0</ele><time>2026-05-02T10:03:01.963Z</time></trkpt><trkpt lat="43.9659363" lon="11.311208"><ele>212.0</ele><time>2026-05-02T10:03:02.964Z</time></trkpt><trkpt lat="43.9658161" lon="11.311129"><ele>212.0</ele><time>2026-05-02T10:03:03.99Z</time></trkpt><trkpt lat="43.9656963" lon="11.3110568"><ele>212.0</ele><time>2026-05-02T10:03:04.977Z</time></trkpt><trkpt lat="43.9655703" lon="11.3109987"><ele>212.0</ele><time>2026-05-02T10:03:05.945Z</time></trkpt><trkpt lat="43.9654386" lon="11.3109446"><ele>212.0</ele><time>2026-05-02T10:03:06.969Z</time></trkpt><trkpt lat="43.9653095" lon="11.3108996"><ele>212.0</ele><time>2026-05-02T10:03:07.972Z</time></trkpt><trkpt lat="43.9651802" lon="11.3108532"><ele>212.0</ele><time>2026-05-02T10:03:08.968Z</time></trkpt><trkpt lat="43.9650481" lon="11.310809"><ele>212.0</ele><time>2026-05-02T10:03:09.972Z</time></trkpt><trkpt lat="43.9649198" lon="11.3107675"><ele>211.5</ele><time>2026-05-02T10:03:10.994Z</time></trkpt><trkpt lat="43.9647892" lon="11.3107242"><ele>211.0</ele><time>2026-05-02T10:03:11.97Z</time></trkpt><trkpt lat="43.9646595" lon="11.3106763"><ele>210.5</ele><time>2026-05-02T10:03:12.962Z</time></trkpt><trkpt lat="43.9645292" lon="11.3106297"><ele>210.0</ele><time>2026-05-02T10:03:13.966Z</time></trkpt><trkpt lat="43.9643965" lon="11.3105807"><ele>210.0</ele><time>2026-05-02T10:03:14.962Z</time></trkpt><trkpt lat="43.9642642" lon="11.3105325"><ele>210.0</ele><time>2026-05-02T10:03:15.958Z</time></trkpt><trkpt lat="43.9641348" lon="11.3104707"><ele>210.0</ele><time>2026-05-02T10:03:16.95Z</time></trkpt><trkpt lat="43.9640055" lon="11.3103918"><ele>210.0</ele><time>2026-05-02T10:03:17.963Z</time></trkpt><trkpt lat="43.9638856" lon="11.3103066"><ele>210.5</ele><time>2026-05-02T10:03:18.957Z</time></trkpt><trkpt lat="43.963765" lon="11.3102109"><ele>211.0</ele><time>2026-05-02T10:03:19.968Z</time></trkpt><trkpt lat="43.9636497" lon="11.3101153"><ele>211.5</ele><time>2026-05-02T10:03:20.963Z</time></trkpt><trkpt lat="43.96354" lon="11.3100088"><ele>212.0</ele><time>2026-05-02T10:03:21.976Z</time></trkpt><trkpt lat="43.9634378" lon="11.3098989"><ele>213.25</ele><time>2026-05-02T10:03:22.964Z</time></trkpt><trkpt lat="43.9633426" lon="11.3097861"><ele>214.5</ele><time>2026-05-02T10:03:23.961Z</time></trkpt><trkpt lat="43.9632619" lon="11.3096564"><ele>215.75</ele><time>2026-05-02T10:03:24.968Z</time></trkpt><trkpt lat="43.963189" lon="11.3095236"><ele>217.0</ele><time>2026-05-02T10:03:25.974Z</time></trkpt><trkpt lat="43.9631258" lon="11.3093806"><ele>217.0</ele><time>2026-05-02T10:03:26.959Z</time></trkpt><trkpt lat="43.9630683" lon="11.3092291"><ele>217.0</ele><time>2026-05-02T10:03:27.971Z</time></trkpt><trkpt lat="43.9630184" lon="11.3090773"><ele>217.0</ele><time>2026-05-02T10:03:28.954Z</time></trkpt><trkpt lat="43.9629692" lon="11.3089315"><ele>217.0</ele><time>2026-05-02T10:03:29.959Z</time></trkpt><trkpt lat="43.9629215" lon="11.3087768"><ele>215.5</ele><time>2026-05-02T10:03:30.968Z</time></trkpt><trkpt lat="43.9628755" lon="11.308621"><ele>214.0</ele><time>2026-05-02T10:03:31.961Z</time></trkpt><trkpt lat="43.9628269" lon="11.3084631"><ele>212.5</ele><time>2026-05-02T10:03:32.958Z</time></trkpt><trkpt lat="43.9627763" lon="11.3083059"><ele>211.0</ele><time>2026-05-02T10:03:33.957Z</time></trkpt><trkpt lat="43.9627242" lon="11.3081508"><ele>210.5</ele><time>2026-05-02T10:03:34.953Z</time></trkpt><trkpt lat="43.9626754" lon="11.3079991"><ele>210.0</ele><time>2026-05-02T10:03:35.958Z</time></trkpt><trkpt lat="43.9626254" lon="11.3078445"><ele>209.5</ele><time>2026-05-02T10:03:36.97Z</time></trkpt><trkpt lat="43.9625795" lon="11.3076948"><ele>209.0</ele><time>2026-05-02T10:03:37.957Z</time></trkpt><trkpt lat="43.962536" lon="11.307548"><ele>209.39999999999998</ele><time>2026-05-02T10:03:38.954Z</time></trkpt><trkpt lat="43.9624957" lon="11.3074103"><ele>209.8</ele><time>2026-05-02T10:03:39.948Z</time></trkpt><trkpt lat="43.9624527" lon="11.3072802"><ele>210.2</ele><time>2026-05-02T10:03:40.957Z</time></trkpt><trkpt lat="43.9624096" lon="11.3071498"><ele>210.60000000000002</ele><time>2026-05-02T10:03:41.961Z</time></trkpt><trkpt lat="43.9623675" lon="11.3070261"><ele>211.0</ele><time>2026-05-02T10:03:42.962Z</time></trkpt><trkpt lat="43.9623271" lon="11.3069083"><ele>210.99999999999997</ele><time>2026-05-02T10:03:43.955Z</time></trkpt><trkpt lat="43.9622882" lon="11.3067995"><ele>211.0</ele><time>2026-05-02T10:03:44.96Z</time></trkpt><trkpt lat="43.962258" lon="11.3066977"><ele>211.0</ele><time>2026-05-02T10:03:45.965Z</time></trkpt><trkpt lat="43.9622291" lon="11.3065986"><ele>211.0</ele><time>2026-05-02T10:03:46.966Z</time></trkpt><trkpt lat="43.9621995" lon="11.3065033"><ele>210.99999999999997</ele><time>2026-05-02T10:03:47.975Z</time></trkpt><trkpt lat="43.9621727" lon="11.306415"><ele>211.0</ele><time>2026-05-02T10:03:48.968Z</time></trkpt><trkpt lat="43.9620894" lon="11.3063028"><ele>210.66666666666666</ele><time>2026-05-02T10:03:50.968Z</time></trkpt><trkpt lat="43.961994" lon="11.3062414"><ele>210.33333333333331</ele><time>2026-05-02T10:03:52.953Z</time></trkpt><trkpt lat="43.9619317" lon="11.3062217"><ele>210.0</ele><time>2026-05-02T10:03:54.947Z</time></trkpt><trkpt lat="43.961851" lon="11.3062306"><ele>209.66666666666669</ele><time>2026-05-02T10:03:57.964Z</time></trkpt><trkpt lat="43.9618166" lon="11.306148"><ele>209.33333333333334</ele><time>2026-05-02T10:04:01.955Z</time></trkpt><trkpt lat="43.9618155" lon="11.3060552"><ele>209.0</ele><time>2026-05-02T10:04:10.973Z</time></trkpt><trkpt lat="43.9618495" lon="11.3059749"><ele>209.00000000000003</ele><time>2026-05-02T10:04:16.977Z</time></trkpt><trkpt lat="43.9618733" lon="11.3060583"><ele>209.0</ele><time>2026-05-02T10:04:20.979Z</time></trkpt><trkpt lat="43.9618001" lon="11.3060318"><ele>209.0</ele><time>2026-05-02T10:08:46.975Z</time></trkpt><trkpt lat="43.9618259" lon="11.3061158"><ele>209.0</ele><time>2026-05-02T10:08:49.97Z</time></trkpt><trkpt lat="43.9618921" lon="11.3062255"><ele>209.00000000000003</ele><time>2026-05-02T10:08:51.964Z</time></trkpt><trkpt lat="43.9619777" lon="11.3062701"><ele>209.0</ele><time>2026-05-02T10:08:53.977Z</time></trkpt><trkpt lat="43.9620482" lon="11.3062588"><ele>209.00000000000003</ele><time>2026-05-02T10:08:55.974Z</time></trkpt><trkpt lat="43.9620776" lon="11.3061417"><ele>209.0</ele><time>2026-05-02T10:08:57.977Z</time></trkpt><trkpt lat="43.9620546" lon="11.3060476"><ele>209.0</ele><time>2026-05-02T10:08:58.972Z</time></trkpt><trkpt lat="43.9620306" lon="11.3059553"><ele>209.0</ele><time>2026-05-02T10:08:59.979Z</time></trkpt><trkpt lat="43.9620036" lon="11.3058389"><ele>209.00000000000003</ele><time>2026-05-02T10:09:00.973Z</time></trkpt><trkpt lat="43.9619751" lon="11.3057164"><ele>209.0</ele><time>2026-05-02T10:09:01.983Z</time></trkpt><trkpt lat="43.9619323" lon="11.3055894"><ele>209.39999999999998</ele><time>2026-05-02T10:09:02.971Z</time></trkpt><trkpt lat="43.9618941" lon="11.3054588"><ele>209.8</ele><time>2026-05-02T10:09:03.97Z</time></trkpt><trkpt lat="43.9618538" lon="11.3053331"><ele>210.2</ele><time>2026-05-02T10:09:04.974Z</time></trkpt><trkpt lat="43.9618072" lon="11.3052073"><ele>210.60000000000002</ele><time>2026-05-02T10:09:05.98Z</time></trkpt><trkpt lat="43.9617643" lon="11.3050787"><ele>211.0</ele><time>2026-05-02T10:09:06.967Z</time></trkpt><trkpt lat="43.9617228" lon="11.304943"><ele>211.20000000000002</ele><time>2026-05-02T10:09:07.978Z</time></trkpt><trkpt lat="43.9616801" lon="11.3048109"><ele>211.4</ele><time>2026-05-02T10:09:08.979Z</time></trkpt><trkpt lat="43.9616358" lon="11.3046834"><ele>211.6</ele><time>2026-05-02T10:09:09.975Z</time></trkpt><trkpt lat="43.961595" lon="11.3045549"><ele>211.8</ele><time>2026-05-02T10:09:10.98Z</time></trkpt><trkpt lat="43.9615556" lon="11.3044361"><ele>212.0</ele><time>2026-05-02T10:09:11.991Z</time></trkpt><trkpt lat="43.9615219" lon="11.3043223"><ele>212.00000000000003</ele><time>2026-05-02T10:09:12.987Z</time></trkpt><trkpt lat="43.9614932" lon="11.304223"><ele>212.0</ele><time>2026-05-02T10:09:13.975Z</time></trkpt><trkpt lat="43.9614691" lon="11.3041261"><ele>212.0</ele><time>2026-05-02T10:09:14.979Z</time></trkpt><trkpt lat="43.9614554" lon="11.3040189"><ele>212.0</ele><time>2026-05-02T10:09:15.977Z</time></trkpt><trkpt lat="43.9614513" lon="11.3039002"><ele>212.00000000000003</ele><time>2026-05-02T10:09:16.987Z</time></trkpt><trkpt lat="43.9614569" lon="11.3037773"><ele>212.0</ele><time>2026-05-02T10:09:17.983Z</time></trkpt><trkpt lat="43.9614781" lon="11.3036521"><ele>212.2</ele><time>2026-05-02T10:09:18.991Z</time></trkpt><trkpt lat="43.9615067" lon="11.3035267"><ele>212.39999999999998</ele><time>2026-05-02T10:09:19.985Z</time></trkpt><trkpt lat="43.9615415" lon="11.3033979"><ele>212.60000000000002</ele><time>2026-05-02T10:09:20.98Z</time></trkpt><trkpt lat="43.9615881" lon="11.3032695"><ele>212.8</ele><time>2026-05-02T10:09:21.98Z</time></trkpt><trkpt lat="43.961649" lon="11.3031424"><ele>213.0</ele><time>2026-05-02T10:09:22.987Z</time></trkpt><trkpt lat="43.9617109" lon="11.3030004"><ele>212.5</ele><time>2026-05-02T10:09:23.985Z</time></trkpt><trkpt lat="43.9617765" lon="11.3028441"><ele>212.0</ele><time>2026-05-02T10:09:24.986Z</time></trkpt><trkpt lat="43.9618503" lon="11.302683"><ele>211.5</ele><time>2026-05-02T10:09:25.984Z</time></trkpt><trkpt lat="43.9619243" lon="11.3025179"><ele>211.0</ele><time>2026-05-02T10:09:26.983Z</time></trkpt><trkpt lat="43.9619959" lon="11.3023743"><ele>212.25</ele><time>2026-05-02T10:09:27.98Z</time></trkpt><trkpt lat="43.9620727" lon="11.3022374"><ele>213.5</ele><time>2026-05-02T10:09:28.984Z</time></trkpt><trkpt lat="43.9621638" lon="11.3021181"><ele>214.75</ele><time>2026-05-02T10:09:29.978Z</time></trkpt><trkpt lat="43.9622777" lon="11.3020292"><ele>216.0</ele><time>2026-05-02T10:09:30.983Z</time></trkpt><trkpt lat="43.9624081" lon="11.3019637"><ele>215.75</ele><time>2026-05-02T10:09:31.967Z</time></trkpt><trkpt lat="43.9625508" lon="11.3019281"><ele>215.5</ele><time>2026-05-02T10:09:32.973Z</time></trkpt><trkpt lat="43.9626998" lon="11.3019137"><ele>215.25</ele><time>2026-05-02T10:09:33.984Z</time></trkpt><trkpt lat="43.9628461" lon="11.3018977"><ele>215.0</ele><time>2026-05-02T10:09:34.97Z</time></trkpt><trkpt lat="43.9629943" lon="11.3018596"><ele>215.0</ele><time>2026-05-02T10:09:35.972Z</time></trkpt><trkpt lat="43.9631357" lon="11.301785"><ele>215.0</ele><time>2026-05-02T10:09:36.976Z</time></trkpt><trkpt lat="43.9632709" lon="11.3016706"><ele>215.0</ele><time>2026-05-02T10:09:37.979Z</time></trkpt><trkpt lat="43.9633999" lon="11.3015353"><ele>215.0</ele><time>2026-05-02T10:09:38.976Z</time></trkpt><trkpt lat="43.9635134" lon="11.301392"><ele>215.0</ele><time>2026-05-02T10:09:39.983Z</time></trkpt><trkpt lat="43.9636255" lon="11.3012361"><ele>215.0</ele><time>2026-05-02T10:09:40.967Z</time></trkpt><trkpt lat="43.9637411" lon="11.3010797"><ele>215.0</ele><time>2026-05-02T10:09:41.983Z</time></trkpt><trkpt lat="43.9638582" lon="11.3009278"><ele>215.0</ele><time>2026-05-02T10:09:42.98Z</time></trkpt><trkpt lat="43.9639772" lon="11.3007814"><ele>215.0</ele><time>2026-05-02T10:09:43.974Z</time></trkpt><trkpt lat="43.9640925" lon="11.3006471"><ele>215.0</ele><time>2026-05-02T10:09:44.989Z</time></trkpt><trkpt lat="43.9642001" lon="11.3005167"><ele>215.0</ele><time>2026-05-02T10:09:45.984Z</time></trkpt><trkpt lat="43.9643033" lon="11.3003863"><ele>215.0</ele><time>2026-05-02T10:09:46.985Z</time></trkpt><trkpt lat="43.9644043" lon="11.3002487"><ele>215.0</ele><time>2026-05-02T10:09:47.984Z</time></trkpt><trkpt lat="43.9645092" lon="11.3001131"><ele>215.0</ele><time>2026-05-02T10:09:48.983Z</time></trkpt><trkpt lat="43.9646117" lon="11.2999777"><ele>215.0</ele><time>2026-05-02T10:09:49.983Z</time></trkpt><trkpt lat="43.964711" lon="11.2998421"><ele>215.0</ele><time>2026-05-02T10:09:50.98Z</time></trkpt><trkpt lat="43.9648065" lon="11.2997068"><ele>215.0</ele><time>2026-05-02T10:09:51.985Z</time></trkpt><trkpt lat="43.9648979" lon="11.2995654"><ele>215.5</ele><time>2026-05-02T10:09:52.975Z</time></trkpt><trkpt lat="43.9649653" lon="11.2994158"><ele>216.0</ele><time>2026-05-02T10:09:53.978Z</time></trkpt><trkpt lat="43.9650155" lon="11.2992578"><ele>216.5</ele><time>2026-05-02T10:09:54.974Z</time></trkpt><trkpt lat="43.9650281" lon="11.2990803"><ele>217.0</ele><time>2026-05-02T10:09:55.97Z</time></trkpt><trkpt lat="43.9650231" lon="11.2988853"><ele>217.66666666666666</ele><time>2026-05-02T10:09:56.971Z</time></trkpt><trkpt lat="43.965006" lon="11.2986742"><ele>218.33333333333331</ele><time>2026-05-02T10:09:57.971Z</time></trkpt><trkpt lat="43.9649853" lon="11.2984642"><ele>219.0</ele><time>2026-05-02T10:09:58.97Z</time></trkpt><trkpt lat="43.9649678" lon="11.2982538"><ele>219.75</ele><time>2026-05-02T10:09:59.973Z</time></trkpt><trkpt lat="43.9649521" lon="11.2980503"><ele>220.5</ele><time>2026-05-02T10:10:00.975Z</time></trkpt><trkpt lat="43.9649355" lon="11.2978445"><ele>221.25</ele><time>2026-05-02T10:10:01.977Z</time></trkpt><trkpt lat="43.9649176" lon="11.2976365"><ele>222.0</ele><time>2026-05-02T10:10:02.969Z</time></trkpt><trkpt lat="43.9649026" lon="11.2974247"><ele>222.75</ele><time>2026-05-02T10:10:03.979Z</time></trkpt><trkpt lat="43.9648898" lon="11.2972182"><ele>223.5</ele><time>2026-05-02T10:10:04.973Z</time></trkpt><trkpt lat="43.9648762" lon="11.2970109"><ele>224.25</ele><time>2026-05-02T10:10:05.982Z</time></trkpt><trkpt lat="43.9648604" lon="11.2968168"><ele>225.0</ele><time>2026-05-02T10:10:06.979Z</time></trkpt><trkpt lat="43.9648479" lon="11.2966372"><ele>225.0</ele><time>2026-05-02T10:10:07.983Z</time></trkpt><trkpt lat="43.9648466" lon="11.2964765"><ele>225.0</ele><time>2026-05-02T10:10:08.963Z</time></trkpt><trkpt lat="43.9648625" lon="11.2963216"><ele>225.0</ele><time>2026-05-02T10:10:09.983Z</time></trkpt><trkpt lat="43.9649198" lon="11.2961801"><ele>225.0</ele><time>2026-05-02T10:10:10.984Z</time></trkpt><trkpt lat="43.9650046" lon="11.296064"><ele>225.25</ele><time>2026-05-02T10:10:11.983Z</time></trkpt><trkpt lat="43.9651031" lon="11.2959559"><ele>225.5</ele><time>2026-05-02T10:10:12.972Z</time></trkpt><trkpt lat="43.9652054" lon="11.2958493"><ele>225.75</ele><time>2026-05-02T10:10:13.98Z</time></trkpt><trkpt lat="43.9653078" lon="11.2957416"><ele>226.0</ele><time>2026-05-02T10:10:14.977Z</time></trkpt><trkpt lat="43.9654131" lon="11.2956192"><ele>226.25</ele><time>2026-05-02T10:10:15.974Z</time></trkpt><trkpt lat="43.9655268" lon="11.2954972"><ele>226.5</ele><time>2026-05-02T10:10:16.989Z</time></trkpt><trkpt lat="43.9656507" lon="11.2953738"><ele>226.75</ele><time>2026-05-02T10:10:17.983Z</time></trkpt><trkpt lat="43.9657755" lon="11.2952642"><ele>227.0</ele><time>2026-05-02T10:10:18.978Z</time></trkpt><trkpt lat="43.9659038" lon="11.2951541"><ele>227.0</ele><time>2026-05-02T10:10:19.979Z</time></trkpt><trkpt lat="43.9660369" lon="11.2950485"><ele>227.0</ele><time>2026-05-02T10:10:20.977Z</time></trkpt><trkpt lat="43.9661654" lon="11.2949405"><ele>227.0</ele><time>2026-05-02T10:10:21.978Z</time></trkpt><trkpt lat="43.9662966" lon="11.2948304"><ele>227.0</ele><time>2026-05-02T10:10:22.974Z</time></trkpt><trkpt lat="43.9664216" lon="11.2947154"><ele>227.0</ele><time>2026-05-02T10:10:23.977Z</time></trkpt><trkpt lat="43.966546" lon="11.2946002"><ele>227.0</ele><time>2026-05-02T10:10:24.986Z</time></trkpt><trkpt lat="43.9666765" lon="11.294488"><ele>226.0</ele><time>2026-05-02T10:10:25.974Z</time></trkpt><trkpt lat="43.9668123" lon="11.2943651"><ele>225.0</ele><time>2026-05-02T10:10:26.974Z</time></trkpt><trkpt lat="43.9669539" lon="11.2942356"><ele>224.0</ele><time>2026-05-02T10:10:27.977Z</time></trkpt><trkpt lat="43.9671008" lon="11.2941086"><ele>224.0</ele><time>2026-05-02T10:10:28.98Z</time></trkpt><trkpt lat="43.9672459" lon="11.2939778"><ele>224.0</ele><time>2026-05-02T10:10:29.988Z</time></trkpt><trkpt lat="43.9673964" lon="11.2938423"><ele>224.0</ele><time>2026-05-02T10:10:30.974Z</time></trkpt><trkpt lat="43.9675435" lon="11.2937058"><ele>224.33333333333334</ele><time>2026-05-02T10:10:31.973Z</time></trkpt><trkpt lat="43.9676927" lon="11.2935711"><ele>224.66666666666669</ele><time>2026-05-02T10:10:32.981Z</time></trkpt><trkpt lat="43.9678449" lon="11.293431"><ele>225.0</ele><time>2026-05-02T10:10:33.979Z</time></trkpt><trkpt lat="43.9679964" lon="11.2933001"><ele>225.0</ele><time>2026-05-02T10:10:34.983Z</time></trkpt><trkpt lat="43.9681489" lon="11.2931644"><ele>225.0</ele><time>2026-05-02T10:10:35.981Z</time></trkpt><trkpt lat="43.9682933" lon="11.2930345"><ele>225.0</ele><time>2026-05-02T10:10:36.981Z</time></trkpt><trkpt lat="43.9684416" lon="11.2929029"><ele>224.66666666666669</ele><time>2026-05-02T10:10:37.984Z</time></trkpt><trkpt lat="43.9685893" lon="11.2927723"><ele>224.33333333333334</ele><time>2026-05-02T10:10:38.968Z</time></trkpt><trkpt lat="43.9687353" lon="11.2926436"><ele>224.0</ele><time>2026-05-02T10:10:39.971Z</time></trkpt><trkpt lat="43.9688805" lon="11.2925084"><ele>224.0</ele><time>2026-05-02T10:10:40.975Z</time></trkpt><trkpt lat="43.9690267" lon="11.2923809"><ele>224.0</ele><time>2026-05-02T10:10:41.988Z</time></trkpt><trkpt lat="43.9691709" lon="11.2922458"><ele>224.0</ele><time>2026-05-02T10:10:42.974Z</time></trkpt><trkpt lat="43.9693158" lon="11.2921151"><ele>224.0</ele><time>2026-05-02T10:10:43.977Z</time></trkpt><trkpt lat="43.9694545" lon="11.2919866"><ele>224.0</ele><time>2026-05-02T10:10:44.971Z</time></trkpt><trkpt lat="43.9695901" lon="11.2918698"><ele>224.0</ele><time>2026-05-02T10:10:45.978Z</time></trkpt><trkpt lat="43.9697227" lon="11.2917554"><ele>224.0</ele><time>2026-05-02T10:10:46.978Z</time></trkpt><trkpt lat="43.969854" lon="11.2916319"><ele>224.0</ele><time>2026-05-02T10:10:47.977Z</time></trkpt><trkpt lat="43.9699925" lon="11.2915151"><ele>224.0</ele><time>2026-05-02T10:10:48.988Z</time></trkpt><trkpt lat="43.970133" lon="11.291388"><ele>223.66666666666669</ele><time>2026-05-02T10:10:49.981Z</time></trkpt><trkpt lat="43.9702756" lon="11.2912601"><ele>223.33333333333331</ele><time>2026-05-02T10:10:50.981Z</time></trkpt><trkpt lat="43.9704228" lon="11.2911313"><ele>223.0</ele><time>2026-05-02T10:10:51.98Z</time></trkpt><trkpt lat="43.970572" lon="11.2910013"><ele>223.0</ele><time>2026-05-02T10:10:52.968Z</time></trkpt><trkpt lat="43.9707215" lon="11.2908672"><ele>223.0</ele><time>2026-05-02T10:10:53.973Z</time></trkpt><trkpt lat="43.9708676" lon="11.290737"><ele>223.0</ele><time>2026-05-02T10:10:54.969Z</time></trkpt><trkpt lat="43.9710133" lon="11.2906111"><ele>222.66666666666666</ele><time>2026-05-02T10:10:55.976Z</time></trkpt><trkpt lat="43.9711592" lon="11.2904809"><ele>222.33333333333331</ele><time>2026-05-02T10:10:56.976Z</time></trkpt><trkpt lat="43.971307" lon="11.2903481"><ele>222.0</ele><time>2026-05-02T10:10:57.972Z</time></trkpt><trkpt lat="43.9714549" lon="11.2902155"><ele>222.0</ele><time>2026-05-02T10:10:58.975Z</time></trkpt><trkpt lat="43.9716044" lon="11.2900821"><ele>222.0</ele><time>2026-05-02T10:10:59.967Z</time></trkpt><trkpt lat="43.9717528" lon="11.2899502"><ele>222.0</ele><time>2026-05-02T10:11:00.979Z</time></trkpt><trkpt lat="43.9718995" lon="11.2898193"><ele>222.0</ele><time>2026-05-02T10:11:01.975Z</time></trkpt><trkpt lat="43.9720426" lon="11.2896968"><ele>222.0</ele><time>2026-05-02T10:11:02.976Z</time></trkpt><trkpt lat="43.9721699" lon="11.2895766"><ele>222.0</ele><time>2026-05-02T10:11:03.973Z</time></trkpt><trkpt lat="43.972282" lon="11.2894693"><ele>222.0</ele><time>2026-05-02T10:11:04.978Z</time></trkpt><trkpt lat="43.9723879" lon="11.2893704"><ele>222.0</ele><time>2026-05-02T10:11:05.971Z</time></trkpt><trkpt lat="43.9724831" lon="11.2892809"><ele>222.0</ele><time>2026-05-02T10:11:06.979Z</time></trkpt><trkpt lat="43.9725672" lon="11.2892099"><ele>222.0</ele><time>2026-05-02T10:11:07.979Z</time></trkpt><trkpt lat="43.972646" lon="11.2891461"><ele>222.0</ele><time>2026-05-02T10:11:08.977Z</time></trkpt><trkpt lat="43.9727149" lon="11.2890955"><ele>222.0</ele><time>2026-05-02T10:11:09.995Z</time></trkpt><trkpt lat="43.9727854" lon="11.2890696"><ele>222.0</ele><time>2026-05-02T10:11:10.978Z</time></trkpt><trkpt lat="43.9728564" lon="11.2890732"><ele>222.0</ele><time>2026-05-02T10:11:11.982Z</time></trkpt><trkpt lat="43.9729339" lon="11.2891047"><ele>222.0</ele><time>2026-05-02T10:11:12.975Z</time></trkpt><trkpt lat="43.9730109" lon="11.2891486"><ele>222.0</ele><time>2026-05-02T10:11:13.982Z</time></trkpt><trkpt lat="43.9730912" lon="11.2891877"><ele>222.0</ele><time>2026-05-02T10:11:14.977Z</time></trkpt><trkpt lat="43.9731653" lon="11.2891737"><ele>222.0</ele><time>2026-05-02T10:11:15.972Z</time></trkpt><trkpt lat="43.9732489" lon="11.2891298"><ele>222.0</ele><time>2026-05-02T10:11:16.974Z</time></trkpt><trkpt lat="43.9733212" lon="11.2890505"><ele>222.0</ele><time>2026-05-02T10:11:17.972Z</time></trkpt><trkpt lat="43.9733653" lon="11.2889499"><ele>222.0</ele><time>2026-05-02T10:11:18.986Z</time></trkpt><trkpt lat="43.9733835" lon="11.2888281"><ele>222.0</ele><time>2026-05-02T10:11:19.973Z</time></trkpt><trkpt lat="43.9733598" lon="11.2887071"><ele>222.0</ele><time>2026-05-02T10:11:20.986Z</time></trkpt><trkpt lat="43.973313" lon="11.2886026"><ele>222.6</ele><time>2026-05-02T10:11:21.974Z</time></trkpt><trkpt lat="43.9732399" lon="11.288525"><ele>223.2</ele><time>2026-05-02T10:11:22.973Z</time></trkpt><trkpt lat="43.9731445" lon="11.288474"><ele>223.8</ele><time>2026-05-02T10:11:23.98Z</time></trkpt><trkpt lat="43.9730527" lon="11.2884253"><ele>224.4</ele><time>2026-05-02T10:11:24.986Z</time></trkpt><trkpt lat="43.9729705" lon="11.2883702"><ele>225.0</ele><time>2026-05-02T10:11:25.993Z</time></trkpt><trkpt lat="43.9729317" lon="11.288249"><ele>226.0</ele><time>2026-05-02T10:11:26.982Z</time></trkpt><trkpt lat="43.972904" lon="11.2880885"><ele>227.0</ele><time>2026-05-02T10:11:27.978Z</time></trkpt><trkpt lat="43.9729152" lon="11.2879386"><ele>228.0</ele><time>2026-05-02T10:11:28.982Z</time></trkpt><trkpt lat="43.9729687" lon="11.2877925"><ele>229.0</ele><time>2026-05-02T10:11:29.98Z</time></trkpt><trkpt lat="43.9730325" lon="11.2876575"><ele>229.0</ele><time>2026-05-02T10:11:30.982Z</time></trkpt><trkpt lat="43.9730905" lon="11.2875031"><ele>229.0</ele><time>2026-05-02T10:11:31.976Z</time></trkpt><trkpt lat="43.973121" lon="11.2873428"><ele>229.0</ele><time>2026-05-02T10:11:32.965Z</time></trkpt><trkpt lat="43.9731011" lon="11.2871721"><ele>229.0</ele><time>2026-05-02T10:11:33.976Z</time></trkpt><trkpt lat="43.9730477" lon="11.287011"><ele>231.5</ele><time>2026-05-02T10:11:34.976Z</time></trkpt><trkpt lat="43.97298" lon="11.2868366"><ele>234.0</ele><time>2026-05-02T10:11:35.977Z</time></trkpt><trkpt lat="43.972904" lon="11.2866789"><ele>236.5</ele><time>2026-05-02T10:11:36.965Z</time></trkpt><trkpt lat="43.9728093" lon="11.2865314"><ele>239.0</ele><time>2026-05-02T10:11:37.972Z</time></trkpt><trkpt lat="43.9727074" lon="11.2863904"><ele>241.75</ele><time>2026-05-02T10:11:38.97Z</time></trkpt><trkpt lat="43.9726085" lon="11.2862563"><ele>244.5</ele><time>2026-05-02T10:11:39.973Z</time></trkpt><trkpt lat="43.9725168" lon="11.2861004"><ele>247.25</ele><time>2026-05-02T10:11:40.978Z</time></trkpt><trkpt lat="43.9724556" lon="11.2859077"><ele>250.0</ele><time>2026-05-02T10:11:41.97Z</time></trkpt><trkpt lat="43.9723959" lon="11.2857111"><ele>257.0</ele><time>2026-05-02T10:11:42.97Z</time></trkpt><trkpt lat="43.9723344" lon="11.2854987"><ele>264.0</ele><time>2026-05-02T10:11:43.979Z</time></trkpt><trkpt lat="43.9722664" lon="11.285305"><ele>271.0</ele><time>2026-05-02T10:11:44.975Z</time></trkpt><trkpt lat="43.9722039" lon="11.2851"><ele>266.0</ele><time>2026-05-02T10:11:45.973Z</time></trkpt><trkpt lat="43.9710698" lon="11.2815865"><ele>264.6666666666667</ele><time>2026-05-02T10:12:01.973Z</time></trkpt><trkpt lat="43.9709777" lon="11.281355"><ele>263.3333333333333</ele><time>2026-05-02T10:12:02.961Z</time></trkpt><trkpt lat="43.9708825" lon="11.2811163"><ele>262.0</ele><time>2026-05-02T10:12:03.964Z</time></trkpt><trkpt lat="43.9707854" lon="11.2809235"><ele>262.0</ele><time>2026-05-02T10:12:04.971Z</time></trkpt><trkpt lat="43.9706929" lon="11.2807419"><ele>262.0</ele><time>2026-05-02T10:12:05.945Z</time></trkpt><trkpt lat="43.9705034" lon="11.2803436"><ele>258.0</ele><time>2026-05-02T10:12:07.968Z</time></trkpt><trkpt lat="43.9703917" lon="11.280121"><ele>254.0</ele><time>2026-05-02T10:12:08.966Z</time></trkpt><trkpt lat="43.9702911" lon="11.2798884"><ele>250.0</ele><time>2026-05-02T10:12:09.981Z</time></trkpt><trkpt lat="43.9701951" lon="11.2796451"><ele>250.0</ele><time>2026-05-02T10:12:10.983Z</time></trkpt><trkpt lat="43.9701121" lon="11.2794178"><ele>250.0</ele><time>2026-05-02T10:12:11.966Z</time></trkpt><trkpt lat="43.9700229" lon="11.2792122"><ele>250.0</ele><time>2026-05-02T10:12:12.979Z</time></trkpt><trkpt lat="43.969945" lon="11.2790212"><ele>252.75</ele><time>2026-05-02T10:12:13.978Z</time></trkpt><trkpt lat="43.9698744" lon="11.2788357"><ele>255.5</ele><time>2026-05-02T10:12:14.979Z</time></trkpt><trkpt lat="43.969819" lon="11.2786611"><ele>258.25</ele><time>2026-05-02T10:12:15.981Z</time></trkpt><trkpt lat="43.9697873" lon="11.2784845"><ele>261.0</ele><time>2026-05-02T10:12:16.96Z</time></trkpt><trkpt lat="43.9698037" lon="11.2783137"><ele>261.0</ele><time>2026-05-02T10:12:17.951Z</time></trkpt><trkpt lat="43.9698365" lon="11.2781421"><ele>261.0</ele><time>2026-05-02T10:12:18.948Z</time></trkpt><trkpt lat="43.9698865" lon="11.2779581"><ele>261.0</ele><time>2026-05-02T10:12:19.954Z</time></trkpt><trkpt lat="43.9699524" lon="11.2777899"><ele>261.0</ele><time>2026-05-02T10:12:20.95Z</time></trkpt><trkpt lat="43.9700097" lon="11.2776139"><ele>264.0</ele><time>2026-05-02T10:12:21.952Z</time></trkpt><trkpt lat="43.9700696" lon="11.2774518"><ele>267.0</ele><time>2026-05-02T10:12:22.962Z</time></trkpt><trkpt lat="43.9701513" lon="11.2773344"><ele>270.0</ele><time>2026-05-02T10:12:23.971Z</time></trkpt><trkpt lat="43.9702553" lon="11.2772582"><ele>273.0</ele><time>2026-05-02T10:12:24.969Z</time></trkpt><trkpt lat="43.970384" lon="11.2772392"><ele>273.0</ele><time>2026-05-02T10:12:25.971Z</time></trkpt><trkpt lat="43.9705177" lon="11.2772466"><ele>273.0</ele><time>2026-05-02T10:12:26.972Z</time></trkpt><trkpt lat="43.9706441" lon="11.2772906"><ele>273.0</ele><time>2026-05-02T10:12:27.977Z</time></trkpt><trkpt lat="43.9707548" lon="11.2773926"><ele>273.0</ele><time>2026-05-02T10:12:28.975Z</time></trkpt><trkpt lat="43.9708441" lon="11.2775426"><ele>274.0</ele><time>2026-05-02T10:12:29.969Z</time></trkpt><trkpt lat="43.9709259" lon="11.2776961"><ele>275.0</ele><time>2026-05-02T10:12:30.975Z</time></trkpt><trkpt lat="43.971021" lon="11.2778208"><ele>276.0</ele><time>2026-05-02T10:12:31.979Z</time></trkpt><trkpt lat="43.9711374" lon="11.2779018"><ele>277.0</ele><time>2026-05-02T10:12:32.976Z</time></trkpt><trkpt lat="43.9712608" lon="11.2779402"><ele>277.0</ele><time>2026-05-02T10:12:33.977Z</time></trkpt><trkpt lat="43.9713762" lon="11.2779328"><ele>277.0</ele><time>2026-05-02T10:12:34.973Z</time></trkpt><trkpt lat="43.9714852" lon="11.2778805"><ele>277.0</ele><time>2026-05-02T10:12:35.98Z</time></trkpt><trkpt lat="43.9715845" lon="11.2777953"><ele>277.0</ele><time>2026-05-02T10:12:36.975Z</time></trkpt><trkpt lat="43.9716961" lon="11.2777105"><ele>274.25</ele><time>2026-05-02T10:12:37.982Z</time></trkpt><trkpt lat="43.9718128" lon="11.2776257"><ele>271.5</ele><time>2026-05-02T10:12:38.982Z</time></trkpt><trkpt lat="43.9719284" lon="11.2775337"><ele>268.75</ele><time>2026-05-02T10:12:39.98Z</time></trkpt><trkpt lat="43.9720208" lon="11.2774185"><ele>266.0</ele><time>2026-05-02T10:12:40.98Z</time></trkpt><trkpt lat="43.9720895" lon="11.2772844"><ele>266.0</ele><time>2026-05-02T10:12:41.985Z</time></trkpt><trkpt lat="43.9721031" lon="11.2771039"><ele>266.0</ele><time>2026-05-02T10:12:42.974Z</time></trkpt><trkpt lat="43.9721004" lon="11.2769139"><ele>266.0</ele><time>2026-05-02T10:12:43.961Z</time></trkpt><trkpt lat="43.9720928" lon="11.2767275"><ele>266.0</ele><time>2026-05-02T10:12:44.98Z</time></trkpt><trkpt lat="43.9720845" lon="11.2765533"><ele>264.75</ele><time>2026-05-02T10:12:45.97Z</time></trkpt><trkpt lat="43.9720619" lon="11.2763874"><ele>263.5</ele><time>2026-05-02T10:12:46.972Z</time></trkpt><trkpt lat="43.9720147" lon="11.2762364"><ele>262.25</ele><time>2026-05-02T10:12:47.971Z</time></trkpt><trkpt lat="43.9719618" lon="11.2761031"><ele>261.0</ele><time>2026-05-02T10:12:48.975Z</time></trkpt><trkpt lat="43.9718601" lon="11.2760106"><ele>261.0</ele><time>2026-05-02T10:12:49.991Z</time></trkpt><trkpt lat="43.9717475" lon="11.275934"><ele>261.0</ele><time>2026-05-02T10:12:50.976Z</time></trkpt><trkpt lat="43.9716268" lon="11.2758759"><ele>261.0</ele><time>2026-05-02T10:12:51.96Z</time></trkpt><trkpt lat="43.9715083" lon="11.2758337"><ele>261.0</ele><time>2026-05-02T10:12:52.972Z</time></trkpt><trkpt lat="43.9713832" lon="11.2757896"><ele>262.5</ele><time>2026-05-02T10:12:53.97Z</time></trkpt><trkpt lat="43.9712571" lon="11.2757474"><ele>264.0</ele><time>2026-05-02T10:12:54.968Z</time></trkpt><trkpt lat="43.9711352" lon="11.2757064"><ele>265.5</ele><time>2026-05-02T10:12:55.974Z</time></trkpt><trkpt lat="43.9710238" lon="11.2756456"><ele>267.0</ele><time>2026-05-02T10:12:56.962Z</time></trkpt><trkpt lat="43.9709254" lon="11.2755758"><ele>268.25</ele><time>2026-05-02T10:12:57.966Z</time></trkpt><trkpt lat="43.9708421" lon="11.27547"><ele>269.5</ele><time>2026-05-02T10:12:58.973Z</time></trkpt><trkpt lat="43.9707813" lon="11.2753338"><ele>270.75</ele><time>2026-05-02T10:12:59.974Z</time></trkpt><trkpt lat="43.9707419" lon="11.2751732"><ele>272.0</ele><time>2026-05-02T10:13:00.976Z</time></trkpt><trkpt lat="43.9707272" lon="11.2749971"><ele>272.0</ele><time>2026-05-02T10:13:01.983Z</time></trkpt><trkpt lat="43.9707207" lon="11.2748201"><ele>272.0</ele><time>2026-05-02T10:13:02.981Z</time></trkpt><trkpt lat="43.9707076" lon="11.2746455"><ele>272.0</ele><time>2026-05-02T10:13:03.975Z</time></trkpt><trkpt lat="43.9706919" lon="11.2744678"><ele>272.0</ele><time>2026-05-02T10:13:04.985Z</time></trkpt><trkpt lat="43.9706835" lon="11.2742922"><ele>272.33333333333337</ele><time>2026-05-02T10:13:05.979Z</time></trkpt><trkpt lat="43.9706869" lon="11.2741241"><ele>272.6666666666667</ele><time>2026-05-02T10:13:07.089Z</time></trkpt><trkpt lat="43.9707704" lon="11.2738225"><ele>273.0</ele><time>2026-05-02T10:13:08.974Z</time></trkpt><trkpt lat="43.9708639" lon="11.2737098"><ele>271.25</ele><time>2026-05-02T10:13:10.013Z</time></trkpt><trkpt lat="43.9709699" lon="11.2735935"><ele>269.5</ele><time>2026-05-02T10:13:10.981Z</time></trkpt><trkpt lat="43.9710628" lon="11.273462"><ele>267.75</ele><time>2026-05-02T10:13:11.979Z</time></trkpt><trkpt lat="43.9711494" lon="11.2733166"><ele>266.0</ele><time>2026-05-02T10:13:12.982Z</time></trkpt><trkpt lat="43.9712146" lon="11.2731501"><ele>268.25</ele><time>2026-05-02T10:13:13.992Z</time></trkpt><trkpt lat="43.9712819" lon="11.2729853"><ele>270.5</ele><time>2026-05-02T10:13:14.996Z</time></trkpt><trkpt lat="43.9713591" lon="11.2728193"><ele>272.75</ele><time>2026-05-02T10:13:16.03Z</time></trkpt><trkpt lat="43.9714361" lon="11.2726509"><ele>275.0</ele><time>2026-05-02T10:13:17.042Z</time></trkpt><trkpt lat="43.9715167" lon="11.2724884"><ele>275.0</ele><time>2026-05-02T10:13:17.966Z</time></trkpt><trkpt lat="43.9715691" lon="11.2723304"><ele>275.0</ele><time>2026-05-02T10:13:19.037Z</time></trkpt><trkpt lat="43.9715928" lon="11.2721779"><ele>275.0</ele><time>2026-05-02T10:13:20.035Z</time></trkpt><trkpt lat="43.9715864" lon="11.2720306"><ele>275.0</ele><time>2026-05-02T10:13:21.019Z</time></trkpt><trkpt lat="43.9715845" lon="11.2718785"><ele>275.25</ele><time>2026-05-02T10:13:21.955Z</time></trkpt><trkpt lat="43.971571" lon="11.2717196"><ele>275.5</ele><time>2026-05-02T10:13:22.964Z</time></trkpt><trkpt lat="43.9715545" lon="11.2715583"><ele>275.75</ele><time>2026-05-02T10:13:23.973Z</time></trkpt><trkpt lat="43.9715459" lon="11.2713947"><ele>276.0</ele><time>2026-05-02T10:13:25.053Z</time></trkpt><trkpt lat="43.9715368" lon="11.2712238"><ele>275.8</ele><time>2026-05-02T10:13:26.03Z</time></trkpt><trkpt lat="43.9715224" lon="11.2710513"><ele>275.6</ele><time>2026-05-02T10:13:26.956Z</time></trkpt><trkpt lat="43.9715098" lon="11.270891"><ele>275.4</ele><time>2026-05-02T10:13:27.961Z</time></trkpt><trkpt lat="43.9715057" lon="11.2707531"><ele>275.2</ele><time>2026-05-02T10:13:28.959Z</time></trkpt><trkpt lat="43.9715019" lon="11.2706209"><ele>275.0</ele><time>2026-05-02T10:13:30.062Z</time></trkpt><trkpt lat="43.9714966" lon="11.2704878"><ele>275.0</ele><time>2026-05-02T10:13:30.969Z</time></trkpt><trkpt lat="43.97149" lon="11.2703552"><ele>275.0</ele><time>2026-05-02T10:13:32.039Z</time></trkpt><trkpt lat="43.9714853" lon="11.270214"><ele>275.0</ele><time>2026-05-02T10:13:32.961Z</time></trkpt><trkpt lat="43.9714926" lon="11.270064"><ele>275.0</ele><time>2026-05-02T10:13:33.965Z</time></trkpt><trkpt lat="43.9715153" lon="11.2699028"><ele>275.0</ele><time>2026-05-02T10:13:34.983Z</time></trkpt><trkpt lat="43.9715525" lon="11.2697371"><ele>273.75</ele><time>2026-05-02T10:13:36.028Z</time></trkpt><trkpt lat="43.9715828" lon="11.2695762"><ele>272.5</ele><time>2026-05-02T10:13:37.027Z</time></trkpt><trkpt lat="43.971595" lon="11.2694252"><ele>271.25</ele><time>2026-05-02T10:13:37.969Z</time></trkpt><trkpt lat="43.9715792" lon="11.2692793"><ele>270.0</ele><time>2026-05-02T10:13:38.972Z</time></trkpt><trkpt lat="43.9715224" lon="11.2691329"><ele>270.0</ele><time>2026-05-02T10:13:39.99Z</time></trkpt><trkpt lat="43.9714427" lon="11.2689962"><ele>270.0</ele><time>2026-05-02T10:13:40.971Z</time></trkpt><trkpt lat="43.9713564" lon="11.2688689"><ele>270.0</ele><time>2026-05-02T10:13:41.979Z</time></trkpt><trkpt lat="43.9712768" lon="11.2687519"><ele>270.0</ele><time>2026-05-02T10:13:42.971Z</time></trkpt><trkpt lat="43.9712421" lon="11.2686092"><ele>270.5</ele><time>2026-05-02T10:13:43.969Z</time></trkpt><trkpt lat="43.9712216" lon="11.2684505"><ele>271.0</ele><time>2026-05-02T10:13:44.978Z</time></trkpt><trkpt lat="43.9712333" lon="11.2682951"><ele>271.5</ele><time>2026-05-02T10:13:45.978Z</time></trkpt><trkpt lat="43.9712798" lon="11.2681413"><ele>272.0</ele><time>2026-05-02T10:13:46.975Z</time></trkpt><trkpt lat="43.9713356" lon="11.2680212"><ele>272.0</ele><time>2026-05-02T10:13:47.979Z</time></trkpt><trkpt lat="43.9714305" lon="11.2679209"><ele>272.0</ele><time>2026-05-02T10:13:48.981Z</time></trkpt><trkpt lat="43.9715254" lon="11.2678241"><ele>272.0</ele><time>2026-05-02T10:13:49.976Z</time></trkpt><trkpt lat="43.9716156" lon="11.2677204"><ele>272.0</ele><time>2026-05-02T10:13:50.975Z</time></trkpt><trkpt lat="43.9716905" lon="11.2676185"><ele>269.25</ele><time>2026-05-02T10:13:51.97Z</time></trkpt><trkpt lat="43.9717494" lon="11.2674909"><ele>266.5</ele><time>2026-05-02T10:13:52.966Z</time></trkpt><trkpt lat="43.971781" lon="11.2673481"><ele>263.75</ele><time>2026-05-02T10:13:53.974Z</time></trkpt><trkpt lat="43.9717958" lon="11.267177"><ele>261.0</ele><time>2026-05-02T10:13:54.962Z</time></trkpt><trkpt lat="43.9717927" lon="11.2669967"><ele>260.25</ele><time>2026-05-02T10:13:55.977Z</time></trkpt><trkpt lat="43.9717929" lon="11.2668116"><ele>259.5</ele><time>2026-05-02T10:13:57.034Z</time></trkpt><trkpt lat="43.9717886" lon="11.2666268"><ele>258.75</ele><time>2026-05-02T10:13:57.945Z</time></trkpt><trkpt lat="43.9717834" lon="11.2664337"><ele>258.0</ele><time>2026-05-02T10:13:58.951Z</time></trkpt><trkpt lat="43.9717758" lon="11.2662413"><ele>257.0</ele><time>2026-05-02T10:13:59.958Z</time></trkpt><trkpt lat="43.9717693" lon="11.2660404"><ele>256.0</ele><time>2026-05-02T10:14:01.021Z</time></trkpt><trkpt lat="43.9717612" lon="11.2658382"><ele>255.0</ele><time>2026-05-02T10:14:02.036Z</time></trkpt><trkpt lat="43.9717533" lon="11.265635"><ele>254.0</ele><time>2026-05-02T10:14:02.977Z</time></trkpt><trkpt lat="43.9717394" lon="11.265437"><ele>253.25</ele><time>2026-05-02T10:14:04.025Z</time></trkpt><trkpt lat="43.9717112" lon="11.2652502"><ele>252.5</ele><time>2026-05-02T10:14:05.053Z</time></trkpt><trkpt lat="43.9716675" lon="11.2650718"><ele>251.75</ele><time>2026-05-02T10:14:06.033Z</time></trkpt><trkpt lat="43.9716097" lon="11.264902"><ele>251.0</ele><time>2026-05-02T10:14:07.012Z</time></trkpt><trkpt lat="43.9715416" lon="11.264726"><ele>254.0</ele><time>2026-05-02T10:14:07.996Z</time></trkpt><trkpt lat="43.9714759" lon="11.2645488"><ele>257.0</ele><time>2026-05-02T10:14:09.032Z</time></trkpt><trkpt lat="43.9714067" lon="11.2643837"><ele>260.0</ele><time>2026-05-02T10:14:09.958Z</time></trkpt><trkpt lat="43.9713334" lon="11.264238"><ele>263.0</ele><time>2026-05-02T10:14:11.034Z</time></trkpt><trkpt lat="43.9712579" lon="11.2640969"><ele>263.0</ele><time>2026-05-02T10:14:12.036Z</time></trkpt><trkpt lat="43.9711836" lon="11.263958"><ele>263.0</ele><time>2026-05-02T10:14:12.967Z</time></trkpt><trkpt lat="43.9711056" lon="11.2638248"><ele>263.0</ele><time>2026-05-02T10:14:13.968Z</time></trkpt><trkpt lat="43.9710263" lon="11.2636889"><ele>263.0</ele><time>2026-05-02T10:14:14.953Z</time></trkpt><trkpt lat="43.9709449" lon="11.2635463"><ele>263.75</ele><time>2026-05-02T10:14:16.036Z</time></trkpt><trkpt lat="43.9708654" lon="11.2634019"><ele>264.5</ele><time>2026-05-02T10:14:17.013Z</time></trkpt><trkpt lat="43.9707821" lon="11.2632572"><ele>265.25</ele><time>2026-05-02T10:14:17.96Z</time></trkpt><trkpt lat="43.9707032" lon="11.2631007"><ele>266.0</ele><time>2026-05-02T10:14:18.969Z</time></trkpt><trkpt lat="43.9706364" lon="11.2629188"><ele>266.0</ele><time>2026-05-02T10:14:19.99Z</time></trkpt><trkpt lat="43.9705779" lon="11.2627263"><ele>266.0</ele><time>2026-05-02T10:14:21.028Z</time></trkpt><trkpt lat="43.9705285" lon="11.2625165"><ele>266.0</ele><time>2026-05-02T10:14:22.024Z</time></trkpt><trkpt lat="43.970486" lon="11.2623014"><ele>267.6666666666667</ele><time>2026-05-02T10:14:22.962Z</time></trkpt><trkpt lat="43.970442" lon="11.2620859"><ele>269.3333333333333</ele><time>2026-05-02T10:14:23.961Z</time></trkpt><trkpt lat="43.9704005" lon="11.2618789"><ele>271.0</ele><time>2026-05-02T10:14:24.957Z</time></trkpt><trkpt lat="43.9703557" lon="11.2616917"><ele>271.0</ele><time>2026-05-02T10:14:25.955Z</time></trkpt><trkpt lat="43.9703189" lon="11.261511"><ele>271.0</ele><time>2026-05-02T10:14:26.965Z</time></trkpt><trkpt lat="43.970276" lon="11.2613338"><ele>271.0</ele><time>2026-05-02T10:14:27.97Z</time></trkpt><trkpt lat="43.9702223" lon="11.2611665"><ele>271.0</ele><time>2026-05-02T10:14:28.959Z</time></trkpt><trkpt lat="43.9701506" lon="11.2610036"><ele>271.5</ele><time>2026-05-02T10:14:29.967Z</time></trkpt><trkpt lat="43.9700739" lon="11.2608556"><ele>272.0</ele><time>2026-05-02T10:14:30.955Z</time></trkpt><trkpt lat="43.9699908" lon="11.2607147"><ele>272.5</ele><time>2026-05-02T10:14:31.961Z</time></trkpt><trkpt lat="43.9699088" lon="11.2605796"><ele>273.0</ele><time>2026-05-02T10:14:32.965Z</time></trkpt><trkpt lat="43.9698316" lon="11.2604408"><ele>271.25</ele><time>2026-05-02T10:14:33.96Z</time></trkpt><trkpt lat="43.9697498" lon="11.2603047"><ele>269.5</ele><time>2026-05-02T10:14:34.959Z</time></trkpt><trkpt lat="43.9696704" lon="11.2601635"><ele>267.75</ele><time>2026-05-02T10:14:35.967Z</time></trkpt><trkpt lat="43.9696001" lon="11.2600002"><ele>266.0</ele><time>2026-05-02T10:14:36.966Z</time></trkpt><trkpt lat="43.9695419" lon="11.259816"><ele>264.6666666666667</ele><time>2026-05-02T10:14:37.964Z</time></trkpt><trkpt lat="43.9694847" lon="11.2596252"><ele>263.3333333333333</ele><time>2026-05-02T10:14:38.966Z</time></trkpt><trkpt lat="43.96943" lon="11.2594314"><ele>262.0</ele><time>2026-05-02T10:14:39.971Z</time></trkpt><trkpt lat="43.9693689" lon="11.2592272"><ele>262.0</ele><time>2026-05-02T10:14:40.971Z</time></trkpt><trkpt lat="43.9693141" lon="11.259016"><ele>262.0</ele><time>2026-05-02T10:14:41.949Z</time></trkpt><trkpt lat="43.969251" lon="11.2588081"><ele>262.0</ele><time>2026-05-02T10:14:42.954Z</time></trkpt><trkpt lat="43.9691947" lon="11.2586034"><ele>262.25</ele><time>2026-05-02T10:14:43.96Z</time></trkpt><trkpt lat="43.9691361" lon="11.2584066"><ele>262.5</ele><time>2026-05-02T10:14:44.956Z</time></trkpt><trkpt lat="43.9690796" lon="11.2582124"><ele>262.75</ele><time>2026-05-02T10:14:46.067Z</time></trkpt><trkpt lat="43.9690371" lon="11.2580253"><ele>263.0</ele><time>2026-05-02T10:14:46.967Z</time></trkpt><trkpt lat="43.9690305" lon="11.2578409"><ele>263.0</ele><time>2026-05-02T10:14:47.966Z</time></trkpt><trkpt lat="43.9690589" lon="11.2576514"><ele>263.0</ele><time>2026-05-02T10:14:48.969Z</time></trkpt><trkpt lat="43.9691173" lon="11.2574895"><ele>263.0</ele><time>2026-05-02T10:14:49.981Z</time></trkpt><trkpt lat="43.9692003" lon="11.2573471"><ele>263.0</ele><time>2026-05-02T10:14:50.964Z</time></trkpt><trkpt lat="43.9693061" lon="11.2572218"><ele>265.75</ele><time>2026-05-02T10:14:51.96Z</time></trkpt><trkpt lat="43.9694264" lon="11.25712"><ele>268.5</ele><time>2026-05-02T10:14:52.961Z</time></trkpt><trkpt lat="43.9695573" lon="11.2570326"><ele>271.25</ele><time>2026-05-02T10:14:53.946Z</time></trkpt><trkpt lat="43.9696894" lon="11.2569437"><ele>274.0</ele><time>2026-05-02T10:14:54.954Z</time></trkpt><trkpt lat="43.9698269" lon="11.2568574"><ele>274.0</ele><time>2026-05-02T10:14:55.961Z</time></trkpt><trkpt lat="43.9699625" lon="11.2567763"><ele>274.0</ele><time>2026-05-02T10:14:57.038Z</time></trkpt><trkpt lat="43.970098" lon="11.2566892"><ele>274.0</ele><time>2026-05-02T10:14:57.969Z</time></trkpt><trkpt lat="43.9702438" lon="11.2565958"><ele>273.3333333333333</ele><time>2026-05-02T10:14:58.975Z</time></trkpt><trkpt lat="43.970384" lon="11.2564909"><ele>272.6666666666667</ele><time>2026-05-02T10:15:00.001Z</time></trkpt><trkpt lat="43.9705274" lon="11.2563878"><ele>272.0</ele><time>2026-05-02T10:15:01.053Z</time></trkpt><trkpt lat="43.9706705" lon="11.2562951"><ele>272.5</ele><time>2026-05-02T10:15:02.039Z</time></trkpt><trkpt lat="43.9707987" lon="11.256211"><ele>273.0</ele><time>2026-05-02T10:15:02.951Z</time></trkpt><trkpt lat="43.9709242" lon="11.2561163"><ele>273.5</ele><time>2026-05-02T10:15:04.033Z</time></trkpt><trkpt lat="43.9710468" lon="11.2560161"><ele>274.0</ele><time>2026-05-02T10:15:04.975Z</time></trkpt><trkpt lat="43.9711552" lon="11.2559038"><ele>274.0</ele><time>2026-05-02T10:15:06.012Z</time></trkpt><trkpt lat="43.971242" lon="11.2557766"><ele>274.0</ele><time>2026-05-02T10:15:06.985Z</time></trkpt><trkpt lat="43.9713079" lon="11.2556358"><ele>274.0</ele><time>2026-05-02T10:15:07.991Z</time></trkpt><trkpt lat="43.9713524" lon="11.2554798"><ele>274.0</ele><time>2026-05-02T10:15:08.961Z</time></trkpt><trkpt lat="43.9713659" lon="11.2553211"><ele>275.25</ele><time>2026-05-02T10:15:10.057Z</time></trkpt><trkpt lat="43.97135" lon="11.2551668"><ele>276.5</ele><time>2026-05-02T10:15:11.028Z</time></trkpt><trkpt lat="43.9713024" lon="11.2550117"><ele>277.75</ele><time>2026-05-02T10:15:12.035Z</time></trkpt><trkpt lat="43.9712513" lon="11.2548612"><ele>279.0</ele><time>2026-05-02T10:15:12.967Z</time></trkpt><trkpt lat="43.9712113" lon="11.2547203"><ele>279.3333333333333</ele><time>2026-05-02T10:15:13.958Z</time></trkpt><trkpt lat="43.9711742" lon="11.2545888"><ele>279.6666666666667</ele><time>2026-05-02T10:15:14.96Z</time></trkpt><trkpt lat="43.9711457" lon="11.2544731"><ele>280.0</ele><time>2026-05-02T10:15:15.962Z</time></trkpt><trkpt lat="43.9711174" lon="11.2543635"><ele>280.33333333333337</ele><time>2026-05-02T10:15:16.972Z</time></trkpt><trkpt lat="43.971087" lon="11.2542521"><ele>280.6666666666667</ele><time>2026-05-02T10:15:17.966Z</time></trkpt><trkpt lat="43.9710555" lon="11.2541348"><ele>281.0</ele><time>2026-05-02T10:15:18.963Z</time></trkpt><trkpt lat="43.9710247" lon="11.2540144"><ele>281.0</ele><time>2026-05-02T10:15:20.03Z</time></trkpt><trkpt lat="43.9709902" lon="11.25389"><ele>281.0</ele><time>2026-05-02T10:15:21.036Z</time></trkpt><trkpt lat="43.9709574" lon="11.253759"><ele>281.0</ele><time>2026-05-02T10:15:21.954Z</time></trkpt><trkpt lat="43.9709155" lon="11.2536351"><ele>281.0</ele><time>2026-05-02T10:15:22.967Z</time></trkpt><trkpt lat="43.9708541" lon="11.2535144"><ele>281.0</ele><time>2026-05-02T10:15:23.96Z</time></trkpt><trkpt lat="43.9707695" lon="11.2534102"><ele>281.0</ele><time>2026-05-02T10:15:24.962Z</time></trkpt><trkpt lat="43.9706748" lon="11.2533222"><ele>281.0</ele><time>2026-05-02T10:15:25.963Z</time></trkpt><trkpt lat="43.9705852" lon="11.2532465"><ele>281.0</ele><time>2026-05-02T10:15:26.965Z</time></trkpt><trkpt lat="43.9704995" lon="11.2531769"><ele>281.0</ele><time>2026-05-02T10:15:27.953Z</time></trkpt><trkpt lat="43.9704258" lon="11.2530993"><ele>281.0</ele><time>2026-05-02T10:15:28.965Z</time></trkpt><trkpt lat="43.9703707" lon="11.2529928"><ele>280.40000000000003</ele><time>2026-05-02T10:15:29.965Z</time></trkpt><trkpt lat="43.9703472" lon="11.2528678"><ele>279.8</ele><time>2026-05-02T10:15:30.97Z</time></trkpt><trkpt lat="43.9703387" lon="11.2527167"><ele>279.20000000000005</ele><time>2026-05-02T10:15:31.969Z</time></trkpt><trkpt lat="43.9703528" lon="11.2525779"><ele>278.6</ele><time>2026-05-02T10:15:32.965Z</time></trkpt><trkpt lat="43.9704065" lon="11.2524423"><ele>278.0</ele><time>2026-05-02T10:15:33.963Z</time></trkpt><trkpt lat="43.9704837" lon="11.2523437"><ele>278.5</ele><time>2026-05-02T10:15:34.963Z</time></trkpt><trkpt lat="43.9705913" lon="11.2522881"><ele>279.0</ele><time>2026-05-02T10:15:36.062Z</time></trkpt><trkpt lat="43.9707113" lon="11.2522559"><ele>279.5</ele><time>2026-05-02T10:15:36.971Z</time></trkpt><trkpt lat="43.9708396" lon="11.2522168"><ele>280.0</ele><time>2026-05-02T10:15:37.962Z</time></trkpt><trkpt lat="43.9709687" lon="11.2521696"><ele>278.75</ele><time>2026-05-02T10:15:38.968Z</time></trkpt><trkpt lat="43.9710894" lon="11.2521225"><ele>277.5</ele><time>2026-05-02T10:15:39.992Z</time></trkpt><trkpt lat="43.9712048" lon="11.2520645"><ele>276.25</ele><time>2026-05-02T10:15:40.972Z</time></trkpt><trkpt lat="43.9713069" lon="11.2519925"><ele>275.0</ele><time>2026-05-02T10:15:41.975Z</time></trkpt><trkpt lat="43.9714147" lon="11.2519128"><ele>275.0</ele><time>2026-05-02T10:15:42.972Z</time></trkpt><trkpt lat="43.9715071" lon="11.251808"><ele>275.0</ele><time>2026-05-02T10:15:43.965Z</time></trkpt><trkpt lat="43.9715895" lon="11.2516786"><ele>275.0</ele><time>2026-05-02T10:15:44.969Z</time></trkpt><trkpt lat="43.9716711" lon="11.2515413"><ele>275.0</ele><time>2026-05-02T10:15:45.962Z</time></trkpt><trkpt lat="43.9717486" lon="11.2513891"><ele>273.5</ele><time>2026-05-02T10:15:46.964Z</time></trkpt><trkpt lat="43.9718145" lon="11.2512332"><ele>272.0</ele><time>2026-05-02T10:15:47.965Z</time></trkpt><trkpt lat="43.9718557" lon="11.2510611"><ele>270.5</ele><time>2026-05-02T10:15:48.962Z</time></trkpt><trkpt lat="43.9718628" lon="11.2508836"><ele>269.0</ele><time>2026-05-02T10:15:49.961Z</time></trkpt><trkpt lat="43.9718399" lon="11.2507073"><ele>268.75</ele><time>2026-05-02T10:15:50.968Z</time></trkpt><trkpt lat="43.9717673" lon="11.2505439"><ele>268.5</ele><time>2026-05-02T10:15:51.97Z</time></trkpt><trkpt lat="43.9716616" lon="11.2504248"><ele>268.25</ele><time>2026-05-02T10:15:52.967Z</time></trkpt><trkpt lat="43.9715509" lon="11.2503157"><ele>268.0</ele><time>2026-05-02T10:15:53.963Z</time></trkpt><trkpt lat="43.9714478" lon="11.2502116"><ele>268.0</ele><time>2026-05-02T10:15:55.031Z</time></trkpt><trkpt lat="43.971377" lon="11.2500935"><ele>268.0</ele><time>2026-05-02T10:15:55.958Z</time></trkpt><trkpt lat="43.9713395" lon="11.2499495"><ele>268.0</ele><time>2026-05-02T10:15:56.965Z</time></trkpt><trkpt lat="43.9713464" lon="11.2497927"><ele>268.0</ele><time>2026-05-02T10:15:57.949Z</time></trkpt><trkpt lat="43.9713819" lon="11.2496433"><ele>268.0</ele><time>2026-05-02T10:15:59.023Z</time></trkpt><trkpt lat="43.9714313" lon="11.249497"><ele>268.5</ele><time>2026-05-02T10:16:00.026Z</time></trkpt><trkpt lat="43.971495" lon="11.2493714"><ele>269.0</ele><time>2026-05-02T10:16:01.024Z</time></trkpt><trkpt lat="43.9715894" lon="11.2492665"><ele>269.5</ele><time>2026-05-02T10:16:02.03Z</time></trkpt><trkpt lat="43.9716927" lon="11.2491699"><ele>270.0</ele><time>2026-05-02T10:16:02.964Z</time></trkpt><trkpt lat="43.9718009" lon="11.2490761"><ele>270.2</ele><time>2026-05-02T10:16:03.954Z</time></trkpt><trkpt lat="43.9718908" lon="11.2490037"><ele>270.4</ele><time>2026-05-02T10:16:04.985Z</time></trkpt><trkpt lat="43.9719886" lon="11.2489871"><ele>270.6</ele><time>2026-05-02T10:16:05.962Z</time></trkpt><trkpt lat="43.972091" lon="11.2490212"><ele>270.8</ele><time>2026-05-02T10:16:06.948Z</time></trkpt><trkpt lat="43.9721994" lon="11.2490671"><ele>271.0</ele><time>2026-05-02T10:16:07.966Z</time></trkpt><trkpt lat="43.9723087" lon="11.2491063"><ele>271.0</ele><time>2026-05-02T10:16:09.034Z</time></trkpt><trkpt lat="43.9724289" lon="11.2491324"><ele>271.0</ele><time>2026-05-02T10:16:10.034Z</time></trkpt><trkpt lat="43.9725541" lon="11.2491644"><ele>271.0</ele><time>2026-05-02T10:16:11.033Z</time></trkpt><trkpt lat="43.9726832" lon="11.2492045"><ele>271.0</ele><time>2026-05-02T10:16:12.034Z</time></trkpt><trkpt lat="43.9728088" lon="11.2492395"><ele>271.5</ele><time>2026-05-02T10:16:12.955Z</time></trkpt><trkpt lat="43.9729399" lon="11.2492741"><ele>272.0</ele><time>2026-05-02T10:16:13.968Z</time></trkpt><trkpt lat="43.9730694" lon="11.2493151"><ele>272.5</ele><time>2026-05-02T10:16:14.967Z</time></trkpt><trkpt lat="43.9732009" lon="11.2493545"><ele>273.0</ele><time>2026-05-02T10:16:15.96Z</time></trkpt><trkpt lat="43.9733307" lon="11.2493872"><ele>272.0</ele><time>2026-05-02T10:16:16.956Z</time></trkpt><trkpt lat="43.9734618" lon="11.2494099"><ele>271.0</ele><time>2026-05-02T10:16:17.958Z</time></trkpt><trkpt lat="43.9735914" lon="11.2494312"><ele>270.0</ele><time>2026-05-02T10:16:18.959Z</time></trkpt><trkpt lat="43.9737165" lon="11.2494532"><ele>269.0</ele><time>2026-05-02T10:16:19.977Z</time></trkpt><trkpt lat="43.9738379" lon="11.2494654"><ele>269.0</ele><time>2026-05-02T10:16:20.951Z</time></trkpt><trkpt lat="43.9739469" lon="11.2494413"><ele>269.0</ele><time>2026-05-02T10:16:21.971Z</time></trkpt><trkpt lat="43.974043" lon="11.249382"><ele>269.0</ele><time>2026-05-02T10:16:22.957Z</time></trkpt><trkpt lat="43.9741258" lon="11.2492939"><ele>269.0</ele><time>2026-05-02T10:16:23.953Z</time></trkpt><trkpt lat="43.9741947" lon="11.2491867"><ele>269.0</ele><time>2026-05-02T10:16:24.961Z</time></trkpt><trkpt lat="43.9742462" lon="11.249059"><ele>267.5</ele><time>2026-05-02T10:16:25.963Z</time></trkpt><trkpt lat="43.9742882" lon="11.2489165"><ele>266.0</ele><time>2026-05-02T10:16:26.958Z</time></trkpt><trkpt lat="43.9743382" lon="11.2487696"><ele>264.5</ele><time>2026-05-02T10:16:27.962Z</time></trkpt><trkpt lat="43.9743973" lon="11.248626"><ele>263.0</ele><time>2026-05-02T10:16:28.961Z</time></trkpt><trkpt lat="43.9744815" lon="11.2485019"><ele>263.0</ele><time>2026-05-02T10:16:29.958Z</time></trkpt><trkpt lat="43.9745797" lon="11.2484084"><ele>263.0</ele><time>2026-05-02T10:16:30.965Z</time></trkpt><trkpt lat="43.9746873" lon="11.2483389"><ele>263.0</ele><time>2026-05-02T10:16:31.962Z</time></trkpt><trkpt lat="43.9748002" lon="11.2482841"><ele>263.0</ele><time>2026-05-02T10:16:32.953Z</time></trkpt><trkpt lat="43.9749223" lon="11.2482361"><ele>260.75</ele><time>2026-05-02T10:16:33.954Z</time></trkpt><trkpt lat="43.975033" lon="11.2481536"><ele>258.5</ele><time>2026-05-02T10:16:35.029Z</time></trkpt><trkpt lat="43.9751419" lon="11.2480356"><ele>256.25</ele><time>2026-05-02T10:16:36.031Z</time></trkpt><trkpt lat="43.9752279" lon="11.2478888"><ele>254.0</ele><time>2026-05-02T10:16:36.97Z</time></trkpt><trkpt lat="43.9753033" lon="11.2477281"><ele>254.0</ele><time>2026-05-02T10:16:37.959Z</time></trkpt><trkpt lat="43.9753704" lon="11.2475599"><ele>254.0</ele><time>2026-05-02T10:16:38.953Z</time></trkpt><trkpt lat="43.9754389" lon="11.2473869"><ele>254.0</ele><time>2026-05-02T10:16:39.992Z</time></trkpt><trkpt lat="43.9755021" lon="11.2472211"><ele>254.0</ele><time>2026-05-02T10:16:40.987Z</time></trkpt><trkpt lat="43.975563" lon="11.2470621"><ele>255.5</ele><time>2026-05-02T10:16:41.973Z</time></trkpt><trkpt lat="43.9756248" lon="11.246916"><ele>257.0</ele><time>2026-05-02T10:16:42.978Z</time></trkpt><trkpt lat="43.9756835" lon="11.2467693"><ele>258.5</ele><time>2026-05-02T10:16:43.969Z</time></trkpt><trkpt lat="43.9757428" lon="11.2466315"><ele>260.0</ele><time>2026-05-02T10:16:44.972Z</time></trkpt><trkpt lat="43.9758046" lon="11.2464877"><ele>256.25</ele><time>2026-05-02T10:16:45.963Z</time></trkpt><trkpt lat="43.9758663" lon="11.2463505"><ele>252.5</ele><time>2026-05-02T10:16:46.946Z</time></trkpt><trkpt lat="43.9759291" lon="11.2462042"><ele>248.75</ele><time>2026-05-02T10:16:47.956Z</time></trkpt><trkpt lat="43.9759898" lon="11.2460586"><ele>245.0</ele><time>2026-05-02T10:16:48.963Z</time></trkpt><trkpt lat="43.9760485" lon="11.2459017"><ele>245.0</ele><time>2026-05-02T10:16:49.968Z</time></trkpt><trkpt lat="43.9760807" lon="11.2457428"><ele>245.0</ele><time>2026-05-02T10:16:50.965Z</time></trkpt><trkpt lat="43.9760779" lon="11.2455789"><ele>245.0</ele><time>2026-05-02T10:16:51.957Z</time></trkpt><trkpt lat="43.9760411" lon="11.2454116"><ele>245.0</ele><time>2026-05-02T10:16:52.959Z</time></trkpt><trkpt lat="43.9759828" lon="11.245248"><ele>244.25</ele><time>2026-05-02T10:16:53.953Z</time></trkpt><trkpt lat="43.9759204" lon="11.2450994"><ele>243.5</ele><time>2026-05-02T10:16:54.966Z</time></trkpt><trkpt lat="43.9758603" lon="11.2449704"><ele>242.75</ele><time>2026-05-02T10:16:55.97Z</time></trkpt><trkpt lat="43.9757963" lon="11.2448435"><ele>242.0</ele><time>2026-05-02T10:16:56.959Z</time></trkpt><trkpt lat="43.9757416" lon="11.2447194"><ele>243.2</ele><time>2026-05-02T10:16:57.964Z</time></trkpt><trkpt lat="43.9756823" lon="11.2446141"><ele>244.39999999999998</ele><time>2026-05-02T10:16:58.957Z</time></trkpt><trkpt lat="43.9756197" lon="11.2445226"><ele>245.60000000000002</ele><time>2026-05-02T10:16:59.971Z</time></trkpt><trkpt lat="43.9755485" lon="11.244446"><ele>246.8</ele><time>2026-05-02T10:17:00.971Z</time></trkpt><trkpt lat="43.9754475" lon="11.2444083"><ele>248.0</ele><time>2026-05-02T10:17:01.961Z</time></trkpt><trkpt lat="43.9753345" lon="11.2443851"><ele>248.0</ele><time>2026-05-02T10:17:02.941Z</time></trkpt><trkpt lat="43.9752146" lon="11.24436"><ele>248.0</ele><time>2026-05-02T10:17:03.953Z</time></trkpt><trkpt lat="43.975093" lon="11.2443321"><ele>248.0</ele><time>2026-05-02T10:17:04.952Z</time></trkpt><trkpt lat="43.9749738" lon="11.2443014"><ele>248.0</ele><time>2026-05-02T10:17:05.959Z</time></trkpt><trkpt lat="43.9748612" lon="11.2442778"><ele>249.8</ele><time>2026-05-02T10:17:06.961Z</time></trkpt><trkpt lat="43.9747574" lon="11.2442563"><ele>251.60000000000002</ele><time>2026-05-02T10:17:07.968Z</time></trkpt><trkpt lat="43.97465" lon="11.2442215"><ele>253.39999999999998</ele><time>2026-05-02T10:17:08.976Z</time></trkpt><trkpt lat="43.9745456" lon="11.2441607"><ele>255.2</ele><time>2026-05-02T10:17:09.959Z</time></trkpt><trkpt lat="43.9744493" lon="11.2440751"><ele>257.0</ele><time>2026-05-02T10:17:10.962Z</time></trkpt><trkpt lat="43.9743564" lon="11.2439636"><ele>257.0</ele><time>2026-05-02T10:17:11.961Z</time></trkpt><trkpt lat="43.9742694" lon="11.2438319"><ele>257.0</ele><time>2026-05-02T10:17:12.955Z</time></trkpt><trkpt lat="43.9741858" lon="11.2437111"><ele>257.0</ele><time>2026-05-02T10:17:13.96Z</time></trkpt><trkpt lat="43.974104" lon="11.2435916"><ele>257.0</ele><time>2026-05-02T10:17:14.962Z</time></trkpt><trkpt lat="43.9740235" lon="11.2434786"><ele>257.0</ele><time>2026-05-02T10:17:15.965Z</time></trkpt><trkpt lat="43.9739483" lon="11.2433657"><ele>257.0</ele><time>2026-05-02T10:17:16.966Z</time></trkpt><trkpt lat="43.9738722" lon="11.2432597"><ele>257.0</ele><time>2026-05-02T10:17:17.969Z</time></trkpt><trkpt lat="43.9737974" lon="11.2431516"><ele>257.0</ele><time>2026-05-02T10:17:18.972Z</time></trkpt><trkpt lat="43.9737313" lon="11.2430485"><ele>257.0</ele><time>2026-05-02T10:17:19.966Z</time></trkpt><trkpt lat="43.9736685" lon="11.2429476"><ele>257.6</ele><time>2026-05-02T10:17:20.957Z</time></trkpt><trkpt lat="43.9736023" lon="11.242847"><ele>258.2</ele><time>2026-05-02T10:17:21.966Z</time></trkpt><trkpt lat="43.9735339" lon="11.2427529"><ele>258.8</ele><time>2026-05-02T10:17:22.964Z</time></trkpt><trkpt lat="43.9734731" lon="11.2426587"><ele>259.4</ele><time>2026-05-02T10:17:23.956Z</time></trkpt><trkpt lat="43.9734143" lon="11.2425601"><ele>260.0</ele><time>2026-05-02T10:17:24.952Z</time></trkpt><trkpt lat="43.9733549" lon="11.2424482"><ele>260.0</ele><time>2026-05-02T10:17:25.959Z</time></trkpt><trkpt lat="43.9732933" lon="11.242328"><ele>260.0</ele><time>2026-05-02T10:17:26.946Z</time></trkpt><trkpt lat="43.9732392" lon="11.2421841"><ele>260.0</ele><time>2026-05-02T10:17:27.972Z</time></trkpt><trkpt lat="43.9731849" lon="11.2420323"><ele>260.0</ele><time>2026-05-02T10:17:28.968Z</time></trkpt><trkpt lat="43.9731262" lon="11.2418747"><ele>258.0</ele><time>2026-05-02T10:17:29.963Z</time></trkpt><trkpt lat="43.9730739" lon="11.2417207"><ele>256.0</ele><time>2026-05-02T10:17:30.959Z</time></trkpt><trkpt lat="43.9730193" lon="11.2415707"><ele>254.0</ele><time>2026-05-02T10:17:31.974Z</time></trkpt><trkpt lat="43.9729706" lon="11.24143"><ele>252.0</ele><time>2026-05-02T10:17:32.96Z</time></trkpt><trkpt lat="43.9729251" lon="11.2412978"><ele>251.8</ele><time>2026-05-02T10:17:33.962Z</time></trkpt><trkpt lat="43.9728931" lon="11.2411868"><ele>251.6</ele><time>2026-05-02T10:17:34.966Z</time></trkpt><trkpt lat="43.9728623" lon="11.2410972"><ele>251.40000000000003</ele><time>2026-05-02T10:17:35.97Z</time></trkpt><trkpt lat="43.9728175" lon="11.2410339"><ele>251.20000000000002</ele><time>2026-05-02T10:17:36.961Z</time></trkpt><trkpt lat="43.9727539" lon="11.2409039"><ele>251.0</ele><time>2026-05-02T10:17:38.964Z</time></trkpt><trkpt lat="43.9727218" lon="11.240717"><ele>251.83333333333334</ele><time>2026-05-02T10:17:40.963Z</time></trkpt><trkpt lat="43.9727011" lon="11.2406043"><ele>252.66666666666669</ele><time>2026-05-02T10:17:41.974Z</time></trkpt><trkpt lat="43.972661" lon="11.2405"><ele>253.5</ele><time>2026-05-02T10:17:42.952Z</time></trkpt><trkpt lat="43.97261" lon="11.2404067"><ele>254.33333333333331</ele><time>2026-05-02T10:17:43.959Z</time></trkpt><trkpt lat="43.9725463" lon="11.2403273"><ele>255.16666666666666</ele><time>2026-05-02T10:17:44.959Z</time></trkpt><trkpt lat="43.9724753" lon="11.2402403"><ele>256.0</ele><time>2026-05-02T10:17:45.961Z</time></trkpt><trkpt lat="43.9724005" lon="11.240156"><ele>256.0</ele><time>2026-05-02T10:17:46.97Z</time></trkpt><trkpt lat="43.9723226" lon="11.2400844"><ele>256.0</ele><time>2026-05-02T10:17:47.959Z</time></trkpt><trkpt lat="43.9722392" lon="11.2400327"><ele>256.0</ele><time>2026-05-02T10:17:48.96Z</time></trkpt><trkpt lat="43.9721465" lon="11.2399962"><ele>256.0</ele><time>2026-05-02T10:17:49.969Z</time></trkpt><trkpt lat="43.9720426" lon="11.2399664"><ele>256.0</ele><time>2026-05-02T10:17:50.962Z</time></trkpt><trkpt lat="43.9719423" lon="11.2399552"><ele>256.0</ele><time>2026-05-02T10:17:51.96Z</time></trkpt><trkpt lat="43.9718494" lon="11.2399647"><ele>256.0</ele><time>2026-05-02T10:17:52.957Z</time></trkpt><trkpt lat="43.9717588" lon="11.2399709"><ele>256.0</ele><time>2026-05-02T10:17:53.961Z</time></trkpt><trkpt lat="43.9716655" lon="11.2399837"><ele>256.0</ele><time>2026-05-02T10:17:54.97Z</time></trkpt><trkpt lat="43.9715761" lon="11.2400106"><ele>256.0</ele><time>2026-05-02T10:17:55.961Z</time></trkpt><trkpt lat="43.9714864" lon="11.2400427"><ele>257.0</ele><time>2026-05-02T10:17:56.964Z</time></trkpt><trkpt lat="43.9714017" lon="11.2400719"><ele>258.0</ele><time>2026-05-02T10:17:57.957Z</time></trkpt><trkpt lat="43.9713201" lon="11.240083"><ele>259.0</ele><time>2026-05-02T10:17:58.966Z</time></trkpt><trkpt lat="43.9712499" lon="11.2400846"><ele>260.0</ele><time>2026-05-02T10:17:59.958Z</time></trkpt><trkpt lat="43.9711693" lon="11.2400322"><ele>261.0</ele><time>2026-05-02T10:18:01.958Z</time></trkpt><trkpt lat="43.9711" lon="11.2399453"><ele>262.0</ele><time>2026-05-02T10:18:04.961Z</time></trkpt><trkpt lat="43.9710124" lon="11.239829"><ele>262.66666666666663</ele><time>2026-05-02T10:18:06.941Z</time></trkpt><trkpt lat="43.9709657" lon="11.2397699"><ele>263.3333333333333</ele><time>2026-05-02T10:18:07.949Z</time></trkpt><trkpt lat="43.9708719" lon="11.2396645"><ele>264.0</ele><time>2026-05-02T10:18:09.959Z</time></trkpt><trkpt lat="43.9708161" lon="11.2396087"><ele>264.6666666666667</ele><time>2026-05-02T10:18:10.961Z</time></trkpt><trkpt lat="43.9707649" lon="11.2395493"><ele>265.33333333333337</ele><time>2026-05-02T10:18:11.961Z</time></trkpt><trkpt lat="43.9706681" lon="11.2394297"><ele>266.0</ele><time>2026-05-02T10:18:13.97Z</time></trkpt><trkpt lat="43.970595" lon="11.2393243"><ele>269.6</ele><time>2026-05-02T10:18:15.956Z</time></trkpt><trkpt lat="43.9705002" lon="11.2392457"><ele>273.20000000000005</ele><time>2026-05-02T10:18:17.962Z</time></trkpt><trkpt lat="43.9703965" lon="11.2391999"><ele>276.79999999999995</ele><time>2026-05-02T10:18:19.962Z</time></trkpt><trkpt lat="43.9702918" lon="11.239196"><ele>280.4</ele><time>2026-05-02T10:18:21.97Z</time></trkpt><trkpt lat="43.9701931" lon="11.2391715"><ele>284.0</ele><time>2026-05-02T10:18:23.969Z</time></trkpt><trkpt lat="43.9701012" lon="11.2391101"><ele>284.0</ele><time>2026-05-02T10:18:25.941Z</time></trkpt><trkpt lat="43.9700283" lon="11.239038"><ele>284.0</ele><time>2026-05-02T10:18:27.962Z</time></trkpt><trkpt lat="43.9700133" lon="11.238924"><ele>284.0</ele><time>2026-05-02T10:18:30.957Z</time></trkpt><trkpt lat="43.9700428" lon="11.2388378"><ele>284.0</ele><time>2026-05-02T10:18:33.966Z</time></trkpt><trkpt lat="43.9700857" lon="11.2387621"><ele>284.0</ele><time>2026-05-02T10:18:35.958Z</time></trkpt><trkpt lat="43.9701504" lon="11.2387191"><ele>284.0</ele><time>2026-05-02T10:18:37.948Z</time></trkpt><trkpt lat="43.9702389" lon="11.2386914"><ele>285.83333333333337</ele><time>2026-05-02T10:18:39.945Z</time></trkpt><trkpt lat="43.9703331" lon="11.2386742"><ele>287.6666666666667</ele><time>2026-05-02T10:18:41.955Z</time></trkpt><trkpt lat="43.9704337" lon="11.23869"><ele>289.5</ele><time>2026-05-02T10:18:43.96Z</time></trkpt><trkpt lat="43.9705081" lon="11.2386914"><ele>291.3333333333333</ele><time>2026-05-02T10:18:45.962Z</time></trkpt><trkpt lat="43.9705632" lon="11.2386462"><ele>293.16666666666663</ele><time>2026-05-02T10:18:47.959Z</time></trkpt><trkpt lat="43.9705602" lon="11.2385454"><ele>295.0</ele><time>2026-05-02T10:18:50.956Z</time></trkpt><trkpt lat="43.9705035" lon="11.2384752"><ele>295.0</ele><time>2026-05-02T10:18:52.954Z</time></trkpt><trkpt lat="43.9704466" lon="11.2384069"><ele>295.0</ele><time>2026-05-02T10:18:54.963Z</time></trkpt><trkpt lat="43.9703732" lon="11.23834"><ele>295.0</ele><time>2026-05-02T10:18:57.962Z</time></trkpt><trkpt lat="43.9703068" lon="11.2382413"><ele>295.0</ele><time>2026-05-02T10:18:59.967Z</time></trkpt><trkpt lat="43.9702649" lon="11.2381751"><ele>295.0</ele><time>2026-05-02T10:19:00.97Z</time></trkpt><trkpt lat="43.9702192" lon="11.2381135"><ele>295.0</ele><time>2026-05-02T10:19:01.954Z</time></trkpt><trkpt lat="43.9701262" lon="11.2379985"><ele>295.3333333333333</ele><time>2026-05-02T10:19:03.952Z</time></trkpt><trkpt lat="43.9700283" lon="11.2378828"><ele>295.66666666666663</ele><time>2026-05-02T10:19:05.954Z</time></trkpt><trkpt lat="43.9699835" lon="11.2378106"><ele>296.0</ele><time>2026-05-02T10:19:06.974Z</time></trkpt><trkpt lat="43.9699318" lon="11.2377395"><ele>296.3333333333333</ele><time>2026-05-02T10:19:07.965Z</time></trkpt><trkpt lat="43.9698767" lon="11.2376816"><ele>296.6666666666667</ele><time>2026-05-02T10:19:08.966Z</time></trkpt><trkpt lat="43.9698131" lon="11.2376255"><ele>297.0</ele><time>2026-05-02T10:19:09.962Z</time></trkpt><trkpt lat="43.9697449" lon="11.237568"><ele>300.8</ele><time>2026-05-02T10:19:10.969Z</time></trkpt><trkpt lat="43.969671" lon="11.2375292"><ele>304.6</ele><time>2026-05-02T10:19:11.972Z</time></trkpt><trkpt lat="43.9695979" lon="11.237495"><ele>308.40000000000003</ele><time>2026-05-02T10:19:12.963Z</time></trkpt><trkpt lat="43.9695298" lon="11.2374808"><ele>312.2</ele><time>2026-05-02T10:19:13.957Z</time></trkpt><trkpt lat="43.9694142" lon="11.237454"><ele>316.0</ele><time>2026-05-02T10:19:15.971Z</time></trkpt><trkpt lat="43.9693025" lon="11.2374023"><ele>316.0</ele><time>2026-05-02T10:19:17.967Z</time></trkpt><trkpt lat="43.9692346" lon="11.2373813"><ele>316.0</ele><time>2026-05-02T10:19:18.965Z</time></trkpt><trkpt lat="43.9691105" lon="11.2373519"><ele>316.0</ele><time>2026-05-02T10:19:20.965Z</time></trkpt><trkpt lat="43.9690358" lon="11.2373467"><ele>316.0</ele><time>2026-05-02T10:19:21.977Z</time></trkpt><trkpt lat="43.9689475" lon="11.237344"><ele>316.0</ele><time>2026-05-02T10:19:22.966Z</time></trkpt><trkpt lat="43.9688577" lon="11.2373605"><ele>316.0</ele><time>2026-05-02T10:19:23.964Z</time></trkpt><trkpt lat="43.9687619" lon="11.2373804"><ele>318.4</ele><time>2026-05-02T10:19:24.971Z</time></trkpt><trkpt lat="43.9686663" lon="11.2374022"><ele>320.8</ele><time>2026-05-02T10:19:25.969Z</time></trkpt><trkpt lat="43.9685717" lon="11.2374281"><ele>323.2</ele><time>2026-05-02T10:19:26.963Z</time></trkpt><trkpt lat="43.9684746" lon="11.2374522"><ele>325.59999999999997</ele><time>2026-05-02T10:19:27.965Z</time></trkpt><trkpt lat="43.9683797" lon="11.2374807"><ele>328.0</ele><time>2026-05-02T10:19:28.958Z</time></trkpt><trkpt lat="43.9682888" lon="11.2375064"><ele>329.8333333333333</ele><time>2026-05-02T10:19:29.961Z</time></trkpt><trkpt lat="43.968203" lon="11.2375239"><ele>331.66666666666663</ele><time>2026-05-02T10:19:30.961Z</time></trkpt><trkpt lat="43.9681184" lon="11.2375307"><ele>333.5</ele><time>2026-05-02T10:19:31.963Z</time></trkpt><trkpt lat="43.9680329" lon="11.2375323"><ele>335.3333333333333</ele><time>2026-05-02T10:19:32.963Z</time></trkpt><trkpt lat="43.9679559" lon="11.2375332"><ele>337.1666666666667</ele><time>2026-05-02T10:19:33.967Z</time></trkpt><trkpt lat="43.9678827" lon="11.2375193"><ele>339.0</ele><time>2026-05-02T10:19:34.959Z</time></trkpt><trkpt lat="43.9677992" lon="11.2374804"><ele>339.0</ele><time>2026-05-02T10:19:35.968Z</time></trkpt><trkpt lat="43.9677196" lon="11.2374216"><ele>339.0</ele><time>2026-05-02T10:19:36.974Z</time></trkpt><trkpt lat="43.9676317" lon="11.237372"><ele>339.0</ele><time>2026-05-02T10:19:37.954Z</time></trkpt><trkpt lat="43.9675429" lon="11.2373164"><ele>339.0</ele><time>2026-05-02T10:19:38.959Z</time></trkpt><trkpt lat="43.9674667" lon="11.2372555"><ele>339.0</ele><time>2026-05-02T10:19:39.967Z</time></trkpt><trkpt lat="43.9673879" lon="11.237197"><ele>343.0</ele><time>2026-05-02T10:19:40.966Z</time></trkpt><trkpt lat="43.9673088" lon="11.2371443"><ele>347.0</ele><time>2026-05-02T10:19:41.961Z</time></trkpt><trkpt lat="43.9672283" lon="11.2371014"><ele>351.0</ele><time>2026-05-02T10:19:42.968Z</time></trkpt><trkpt lat="43.9671443" lon="11.2370551"><ele>355.0</ele><time>2026-05-02T10:19:43.973Z</time></trkpt><trkpt lat="43.9670515" lon="11.2370109"><ele>359.0</ele><time>2026-05-02T10:19:44.964Z</time></trkpt><trkpt lat="43.9669627" lon="11.2369835"><ele>359.0</ele><time>2026-05-02T10:19:45.963Z</time></trkpt><trkpt lat="43.9668785" lon="11.2369485"><ele>359.0</ele><time>2026-05-02T10:19:46.965Z</time></trkpt><trkpt lat="43.966797" lon="11.2369119"><ele>359.0</ele><time>2026-05-02T10:19:47.967Z</time></trkpt><trkpt lat="43.9667161" lon="11.2368688"><ele>359.0</ele><time>2026-05-02T10:19:48.967Z</time></trkpt><trkpt lat="43.9666348" lon="11.236818"><ele>359.0</ele><time>2026-05-02T10:19:49.971Z</time></trkpt><trkpt lat="43.9665548" lon="11.2367705"><ele>359.0</ele><time>2026-05-02T10:19:50.958Z</time></trkpt><trkpt lat="43.9664837" lon="11.2367198"><ele>359.33333333333337</ele><time>2026-05-02T10:19:51.97Z</time></trkpt><trkpt lat="43.9664074" lon="11.2366663"><ele>359.6666666666667</ele><time>2026-05-02T10:19:52.964Z</time></trkpt><trkpt lat="43.9663292" lon="11.2366105"><ele>360.0</ele><time>2026-05-02T10:19:53.968Z</time></trkpt><trkpt lat="43.9662529" lon="11.2365645"><ele>360.3333333333333</ele><time>2026-05-02T10:19:54.957Z</time></trkpt><trkpt lat="43.9661758" lon="11.2365164"><ele>360.66666666666663</ele><time>2026-05-02T10:19:55.963Z</time></trkpt><trkpt lat="43.9660903" lon="11.2364806"><ele>361.0</ele><time>2026-05-02T10:19:56.962Z</time></trkpt><trkpt lat="43.9660092" lon="11.2364508"><ele>363.8333333333333</ele><time>2026-05-02T10:19:57.967Z</time></trkpt><trkpt lat="43.9659281" lon="11.2364222"><ele>366.66666666666663</ele><time>2026-05-02T10:19:58.955Z</time></trkpt><trkpt lat="43.9658507" lon="11.2363882"><ele>369.5</ele><time>2026-05-02T10:19:59.956Z</time></trkpt><trkpt lat="43.9657665" lon="11.2363728"><ele>372.3333333333333</ele><time>2026-05-02T10:20:00.95Z</time></trkpt><trkpt lat="43.9656858" lon="11.2363543"><ele>375.1666666666667</ele><time>2026-05-02T10:20:01.961Z</time></trkpt><trkpt lat="43.9656069" lon="11.236332"><ele>378.0</ele><time>2026-05-02T10:20:02.963Z</time></trkpt><trkpt lat="43.965529" lon="11.2363061"><ele>378.0</ele><time>2026-05-02T10:20:03.957Z</time></trkpt><trkpt lat="43.9654499" lon="11.2362744"><ele>378.0</ele><time>2026-05-02T10:20:04.961Z</time></trkpt><trkpt lat="43.9653684" lon="11.2362482"><ele>378.0</ele><time>2026-05-02T10:20:05.957Z</time></trkpt><trkpt lat="43.9652867" lon="11.2362219"><ele>378.0</ele><time>2026-05-02T10:20:06.952Z</time></trkpt><trkpt lat="43.965206" lon="11.2362"><ele>378.0</ele><time>2026-05-02T10:20:07.966Z</time></trkpt><trkpt lat="43.9651251" lon="11.2361792"><ele>378.0</ele><time>2026-05-02T10:20:08.965Z</time></trkpt><trkpt lat="43.9650471" lon="11.236157"><ele>379.4</ele><time>2026-05-02T10:20:09.967Z</time></trkpt><trkpt lat="43.9649853" lon="11.2361362"><ele>380.79999999999995</ele><time>2026-05-02T10:20:10.97Z</time></trkpt><trkpt lat="43.9648747" lon="11.2360979"><ele>382.2</ele><time>2026-05-02T10:20:12.966Z</time></trkpt><trkpt lat="43.9647765" lon="11.2360881"><ele>383.6</ele><time>2026-05-02T10:20:14.958Z</time></trkpt><trkpt lat="43.9646927" lon="11.2360592"><ele>385.0</ele><time>2026-05-02T10:20:16.967Z</time></trkpt><trkpt lat="43.9646411" lon="11.2359508"><ele>385.0</ele><time>2026-05-02T10:20:18.956Z</time></trkpt><trkpt lat="43.9646124" lon="11.2358042"><ele>385.0</ele><time>2026-05-02T10:20:20.955Z</time></trkpt><trkpt lat="43.9645846" lon="11.2356773"><ele>385.0</ele><time>2026-05-02T10:20:22.953Z</time></trkpt><trkpt lat="43.9645179" lon="11.2356101"><ele>385.0</ele><time>2026-05-02T10:20:25.96Z</time></trkpt><trkpt lat="43.9644317" lon="11.2356177"><ele>385.0</ele><time>2026-05-02T10:20:27.963Z</time></trkpt><trkpt lat="43.9643359" lon="11.2356602"><ele>385.00000000000006</ele><time>2026-05-02T10:20:29.959Z</time></trkpt><trkpt lat="43.964265" lon="11.2357417"><ele>385.0</ele><time>2026-05-02T10:20:31.967Z</time></trkpt><trkpt lat="43.9642019" lon="11.235806"><ele>385.0</ele><time>2026-05-02T10:20:33.947Z</time></trkpt><trkpt lat="43.964164" lon="11.2358831"><ele>385.0</ele><time>2026-05-02T10:20:35.974Z</time></trkpt><trkpt lat="43.9641127" lon="11.2359994"><ele>385.00000000000006</ele><time>2026-05-02T10:20:37.977Z</time></trkpt><trkpt lat="43.9640668" lon="11.2360959"><ele>385.0</ele><time>2026-05-02T10:20:39.951Z</time></trkpt><trkpt lat="43.9640412" lon="11.2362018"><ele>386.83333333333337</ele><time>2026-05-02T10:20:41.958Z</time></trkpt><trkpt lat="43.9640286" lon="11.2363161"><ele>388.6666666666667</ele><time>2026-05-02T10:20:43.964Z</time></trkpt><trkpt lat="43.9640006" lon="11.2364113"><ele>390.5</ele><time>2026-05-02T10:20:45.965Z</time></trkpt><trkpt lat="43.9639439" lon="11.2364901"><ele>392.33333333333337</ele><time>2026-05-02T10:20:47.956Z</time></trkpt><trkpt lat="43.9638736" lon="11.2365909"><ele>394.1666666666667</ele><time>2026-05-02T10:20:49.956Z</time></trkpt><trkpt lat="43.96383" lon="11.2366552"><ele>396.0</ele><time>2026-05-02T10:20:50.967Z</time></trkpt><trkpt lat="43.9637355" lon="11.2367634"><ele>396.8333333333333</ele><time>2026-05-02T10:20:52.972Z</time></trkpt><trkpt lat="43.9636759" lon="11.2368317"><ele>397.66666666666663</ele><time>2026-05-02T10:20:53.974Z</time></trkpt><trkpt lat="43.9636146" lon="11.236891"><ele>398.5</ele><time>2026-05-02T10:20:54.972Z</time></trkpt><trkpt lat="43.9635624" lon="11.2369517"><ele>399.3333333333333</ele><time>2026-05-02T10:20:55.959Z</time></trkpt><trkpt lat="43.9634805" lon="11.2370421"><ele>400.16666666666663</ele><time>2026-05-02T10:20:57.964Z</time></trkpt><trkpt lat="43.9633835" lon="11.2371123"><ele>401.0</ele><time>2026-05-02T10:20:59.975Z</time></trkpt><trkpt lat="43.9632731" lon="11.2371436"><ele>402.25</ele><time>2026-05-02T10:21:01.956Z</time></trkpt><trkpt lat="43.9631554" lon="11.2371756"><ele>403.5</ele><time>2026-05-02T10:21:03.959Z</time></trkpt><trkpt lat="43.9630405" lon="11.2372109"><ele>404.75</ele><time>2026-05-02T10:21:05.969Z</time></trkpt><trkpt lat="43.9629383" lon="11.2372113"><ele>406.0</ele><time>2026-05-02T10:21:07.956Z</time></trkpt><trkpt lat="43.9628216" lon="11.237212"><ele>406.0</ele><time>2026-05-02T10:21:09.957Z</time></trkpt><trkpt lat="43.9627356" lon="11.2372494"><ele>406.0</ele><time>2026-05-02T10:21:11.957Z</time></trkpt><trkpt lat="43.9626726" lon="11.2372918"><ele>406.0</ele><time>2026-05-02T10:21:13.961Z</time></trkpt><trkpt lat="43.9625856" lon="11.2373619"><ele>406.0</ele><time>2026-05-02T10:21:15.965Z</time></trkpt><trkpt lat="43.962489" lon="11.2374323"><ele>406.0</ele><time>2026-05-02T10:21:17.973Z</time></trkpt><trkpt lat="43.9623994" lon="11.2375084"><ele>408.6</ele><time>2026-05-02T10:21:19.964Z</time></trkpt><trkpt lat="43.9623025" lon="11.2375928"><ele>411.20000000000005</ele><time>2026-05-02T10:21:21.972Z</time></trkpt><trkpt lat="43.9622278" lon="11.2376885"><ele>413.79999999999995</ele><time>2026-05-02T10:21:23.96Z</time></trkpt><trkpt lat="43.9621515" lon="11.2377938"><ele>416.4</ele><time>2026-05-02T10:21:25.964Z</time></trkpt><trkpt lat="43.9620744" lon="11.2378955"><ele>419.0</ele><time>2026-05-02T10:21:27.969Z</time></trkpt><trkpt lat="43.9620061" lon="11.2379901"><ele>418.99999999999994</ele><time>2026-05-02T10:21:29.962Z</time></trkpt><trkpt lat="43.9619652" lon="11.2380848"><ele>419.0</ele><time>2026-05-02T10:21:31.972Z</time></trkpt><trkpt lat="43.9619262" lon="11.2381835"><ele>419.0</ele><time>2026-05-02T10:21:33.967Z</time></trkpt><trkpt lat="43.9618882" lon="11.2382782"><ele>419.0</ele><time>2026-05-02T10:21:35.958Z</time></trkpt><trkpt lat="43.9618344" lon="11.2383882"><ele>418.99999999999994</ele><time>2026-05-02T10:21:38.963Z</time></trkpt><trkpt lat="43.9617971" lon="11.2384606"><ele>419.0</ele><time>2026-05-02T10:21:40.964Z</time></trkpt><trkpt lat="43.9617626" lon="11.2385452"><ele>418.3333333333333</ele><time>2026-05-02T10:21:42.957Z</time></trkpt><trkpt lat="43.9617307" lon="11.2386269"><ele>417.66666666666663</ele><time>2026-05-02T10:21:44.952Z</time></trkpt><trkpt lat="43.9616917" lon="11.2387235"><ele>417.0</ele><time>2026-05-02T10:21:47.967Z</time></trkpt><trkpt lat="43.9616335" lon="11.2387977"><ele>416.33333333333337</ele><time>2026-05-02T10:21:50.963Z</time></trkpt><trkpt lat="43.9615806" lon="11.2388533"><ele>415.6666666666667</ele><time>2026-05-02T10:21:53.974Z</time></trkpt><trkpt lat="43.9615165" lon="11.2389269"><ele>415.0</ele><time>2026-05-02T10:21:56.965Z</time></trkpt><trkpt lat="43.9614491" lon="11.2389866"><ele>420.2</ele><time>2026-05-02T10:21:59.963Z</time></trkpt><trkpt lat="43.9613759" lon="11.2390372"><ele>425.4</ele><time>2026-05-02T10:22:02.956Z</time></trkpt><trkpt lat="43.9613097" lon="11.2390729"><ele>430.6</ele><time>2026-05-02T10:22:05.954Z</time></trkpt><trkpt lat="43.9612069" lon="11.2391176"><ele>435.8</ele><time>2026-05-02T10:22:08.956Z</time></trkpt><trkpt lat="43.9611134" lon="11.239187"><ele>441.0</ele><time>2026-05-02T10:22:10.957Z</time></trkpt><trkpt lat="43.9610281" lon="11.2392865"><ele>441.0</ele><time>2026-05-02T10:22:12.962Z</time></trkpt><trkpt lat="43.960953" lon="11.2393516"><ele>441.0</ele><time>2026-05-02T10:22:14.97Z</time></trkpt><trkpt lat="43.960891" lon="11.2394494"><ele>441.0</ele><time>2026-05-02T10:22:17.941Z</time></trkpt><trkpt lat="43.9608503" lon="11.2395323"><ele>441.0</ele><time>2026-05-02T10:22:19.963Z</time></trkpt><trkpt lat="43.9608049" lon="11.239599"><ele>441.0</ele><time>2026-05-02T10:22:21.98Z</time></trkpt><trkpt lat="43.9607479" lon="11.2396653"><ele>441.0</ele><time>2026-05-02T10:22:23.968Z</time></trkpt><trkpt lat="43.96068" lon="11.2397282"><ele>443.0</ele><time>2026-05-02T10:22:25.971Z</time></trkpt><trkpt lat="43.9606097" lon="11.2397839"><ele>445.0</ele><time>2026-05-02T10:22:27.952Z</time></trkpt><trkpt lat="43.9605471" lon="11.2398125"><ele>447.0</ele><time>2026-05-02T10:22:29.965Z</time></trkpt><trkpt lat="43.9604819" lon="11.2398394"><ele>449.0</ele><time>2026-05-02T10:22:31.97Z</time></trkpt><trkpt lat="43.9604043" lon="11.2398546"><ele>451.0</ele><time>2026-05-02T10:22:34.96Z</time></trkpt><trkpt lat="43.9603265" lon="11.239878"><ele>453.0</ele><time>2026-05-02T10:22:37.95Z</time></trkpt><trkpt lat="43.9602474" lon="11.2398929"><ele>454.0</ele><time>2026-05-02T10:22:40.966Z</time></trkpt><trkpt lat="43.9601607" lon="11.2399047"><ele>455.0</ele><time>2026-05-02T10:22:43.964Z</time></trkpt><trkpt lat="43.9600903" lon="11.2399193"><ele>456.0</ele><time>2026-05-02T10:22:45.966Z</time></trkpt><trkpt lat="43.960016" lon="11.2399314"><ele>457.0</ele><time>2026-05-02T10:22:47.965Z</time></trkpt><trkpt lat="43.9599496" lon="11.2399669"><ele>458.0</ele><time>2026-05-02T10:22:49.965Z</time></trkpt><trkpt lat="43.9598794" lon="11.23999"><ele>459.0</ele><time>2026-05-02T10:22:51.967Z</time></trkpt><trkpt lat="43.9598051" lon="11.2400412"><ele>461.4</ele><time>2026-05-02T10:22:53.968Z</time></trkpt><trkpt lat="43.9597045" lon="11.2401175"><ele>463.79999999999995</ele><time>2026-05-02T10:22:55.972Z</time></trkpt><trkpt lat="43.9596126" lon="11.2402197"><ele>466.20000000000005</ele><time>2026-05-02T10:22:57.96Z</time></trkpt><trkpt lat="43.9595235" lon="11.2402922"><ele>468.6</ele><time>2026-05-02T10:22:59.967Z</time></trkpt><trkpt lat="43.9594418" lon="11.2403563"><ele>471.0</ele><time>2026-05-02T10:23:01.954Z</time></trkpt><trkpt lat="43.9593589" lon="11.2404059"><ele>471.00000000000006</ele><time>2026-05-02T10:23:03.968Z</time></trkpt><trkpt lat="43.9592928" lon="11.2404344"><ele>471.0</ele><time>2026-05-02T10:23:05.963Z</time></trkpt><trkpt lat="43.9592356" lon="11.2404794"><ele>471.00000000000006</ele><time>2026-05-02T10:23:15.965Z</time></trkpt><trkpt lat="43.9591818" lon="11.240537"><ele>471.00000000000006</ele><time>2026-05-02T10:23:40.963Z</time></trkpt><trkpt lat="43.9591304" lon="11.2405964"><ele>471.0</ele><time>2026-05-02T10:23:42.953Z</time></trkpt><trkpt lat="43.9590866" lon="11.2407019"><ele>471.00000000000006</ele><time>2026-05-02T10:23:44.95Z</time></trkpt><trkpt lat="43.9590677" lon="11.2407983"><ele>471.00000000000006</ele><time>2026-05-02T10:23:46.973Z</time></trkpt><trkpt lat="43.9591091" lon="11.2408791"><ele>471.3333333333333</ele><time>2026-05-02T10:23:49.962Z</time></trkpt><trkpt lat="43.9591719" lon="11.2409039"><ele>471.66666666666663</ele><time>2026-05-02T10:23:51.967Z</time></trkpt><trkpt lat="43.9592385" lon="11.2409309"><ele>472.0</ele><time>2026-05-02T10:23:53.962Z</time></trkpt><trkpt lat="43.959295" lon="11.2409894"><ele>472.3333333333333</ele><time>2026-05-02T10:23:55.963Z</time></trkpt><trkpt lat="43.9593561" lon="11.2410889"><ele>472.66666666666663</ele><time>2026-05-02T10:23:57.958Z</time></trkpt><trkpt lat="43.9594202" lon="11.2411717"><ele>473.0</ele><time>2026-05-02T10:23:59.968Z</time></trkpt><trkpt lat="43.9595013" lon="11.2412464"><ele>473.0</ele><time>2026-05-02T10:24:01.971Z</time></trkpt><trkpt lat="43.959585" lon="11.2413159"><ele>472.99999999999994</ele><time>2026-05-02T10:24:03.964Z</time></trkpt><trkpt lat="43.9596381" lon="11.2414205"><ele>472.99999999999994</ele><time>2026-05-02T10:24:05.962Z</time></trkpt><trkpt lat="43.9596597" lon="11.2415429"><ele>473.0</ele><time>2026-05-02T10:24:07.956Z</time></trkpt><trkpt lat="43.9596748" lon="11.2416812"><ele>473.0</ele><time>2026-05-02T10:24:09.96Z</time></trkpt><trkpt lat="43.9596771" lon="11.2418232"><ele>473.2</ele><time>2026-05-02T10:24:11.966Z</time></trkpt><trkpt lat="43.9596852" lon="11.2419613"><ele>473.4</ele><time>2026-05-02T10:24:13.967Z</time></trkpt><trkpt lat="43.9597029" lon="11.2421079"><ele>473.59999999999997</ele><time>2026-05-02T10:24:15.961Z</time></trkpt><trkpt lat="43.9597086" lon="11.2422384"><ele>473.79999999999995</ele><time>2026-05-02T10:24:17.961Z</time></trkpt><trkpt lat="43.9596961" lon="11.2423617"><ele>474.0</ele><time>2026-05-02T10:24:19.971Z</time></trkpt><trkpt lat="43.9596827" lon="11.2424894"><ele>475.1666666666667</ele><time>2026-05-02T10:24:21.966Z</time></trkpt><trkpt lat="43.9596603" lon="11.2425897"><ele>476.33333333333337</ele><time>2026-05-02T10:24:23.969Z</time></trkpt><trkpt lat="43.9596268" lon="11.2427009"><ele>477.5</ele><time>2026-05-02T10:24:26.954Z</time></trkpt><trkpt lat="43.9596012" lon="11.2427821"><ele>478.6666666666667</ele><time>2026-05-02T10:24:28.962Z</time></trkpt><trkpt lat="43.9595728" lon="11.2428985"><ele>479.83333333333337</ele><time>2026-05-02T10:24:31.972Z</time></trkpt><trkpt lat="43.9594995" lon="11.242978"><ele>481.0</ele><time>2026-05-02T10:24:34.958Z</time></trkpt><trkpt lat="43.95943" lon="11.2430293"><ele>481.00000000000006</ele><time>2026-05-02T10:24:36.967Z</time></trkpt><trkpt lat="43.9593589" lon="11.2430714"><ele>481.0</ele><time>2026-05-02T10:24:38.957Z</time></trkpt><trkpt lat="43.959293" lon="11.243126"><ele>481.0</ele><time>2026-05-02T10:24:40.973Z</time></trkpt><trkpt lat="43.9592176" lon="11.2431674"><ele>481.0</ele><time>2026-05-02T10:24:43.964Z</time></trkpt><trkpt lat="43.9591265" lon="11.2431914"><ele>481.00000000000006</ele><time>2026-05-02T10:24:46.959Z</time></trkpt><trkpt lat="43.9590598" lon="11.2432126"><ele>481.0</ele><time>2026-05-02T10:24:48.975Z</time></trkpt><trkpt lat="43.9590024" lon="11.2432697"><ele>482.83333333333337</ele><time>2026-05-02T10:24:50.971Z</time></trkpt><trkpt lat="43.9589415" lon="11.2433393"><ele>484.6666666666667</ele><time>2026-05-02T10:24:52.966Z</time></trkpt><trkpt lat="43.9588735" lon="11.2434122"><ele>486.5</ele><time>2026-05-02T10:24:54.968Z</time></trkpt><trkpt lat="43.9588203" lon="11.2435101"><ele>488.33333333333337</ele><time>2026-05-02T10:24:56.97Z</time></trkpt><trkpt lat="43.9587718" lon="11.2435981"><ele>490.1666666666667</ele><time>2026-05-02T10:24:58.972Z</time></trkpt><trkpt lat="43.9587248" lon="11.2436754"><ele>492.0</ele><time>2026-05-02T10:25:00.972Z</time></trkpt><trkpt lat="43.9586647" lon="11.2437302"><ele>492.0</ele><time>2026-05-02T10:25:02.963Z</time></trkpt><trkpt lat="43.958604" lon="11.2438122"><ele>492.0</ele><time>2026-05-02T10:25:05.963Z</time></trkpt><trkpt lat="43.9585398" lon="11.2438928"><ele>492.0</ele><time>2026-05-02T10:25:09.036Z</time></trkpt><trkpt lat="43.9584866" lon="11.2439444"><ele>492.0</ele><time>2026-05-02T10:25:10.958Z</time></trkpt><trkpt lat="43.9584205" lon="11.2439874"><ele>492.0</ele><time>2026-05-02T10:25:12.974Z</time></trkpt><trkpt lat="43.9583426" lon="11.2440567"><ele>492.0</ele><time>2026-05-02T10:25:14.959Z</time></trkpt><trkpt lat="43.958261" lon="11.2441025"><ele>492.1428571428572</ele><time>2026-05-02T10:25:16.955Z</time></trkpt><trkpt lat="43.9581902" lon="11.244125"><ele>492.28571428571433</ele><time>2026-05-02T10:25:18.965Z</time></trkpt><trkpt lat="43.9581084" lon="11.2441234"><ele>492.42857142857144</ele><time>2026-05-02T10:25:21.035Z</time></trkpt><trkpt lat="43.9580488" lon="11.2440823"><ele>492.5714285714286</ele><time>2026-05-02T10:25:22.962Z</time></trkpt><trkpt lat="43.9579777" lon="11.2440365"><ele>492.7142857142858</ele><time>2026-05-02T10:25:26.969Z</time></trkpt><trkpt lat="43.9579171" lon="11.2439887"><ele>492.85714285714283</ele><time>2026-05-02T10:25:30.96Z</time></trkpt><trkpt lat="43.9578527" lon="11.2439328"><ele>493.0</ele><time>2026-05-02T10:25:34.959Z</time></trkpt><trkpt lat="43.9577875" lon="11.2438541"><ele>492.33333333333337</ele><time>2026-05-02T10:25:37.958Z</time></trkpt><trkpt lat="43.9577267" lon="11.2437757"><ele>491.6666666666667</ele><time>2026-05-02T10:25:40.973Z</time></trkpt><trkpt lat="43.9576663" lon="11.2437248"><ele>491.0</ele><time>2026-05-02T10:25:42.945Z</time></trkpt><trkpt lat="43.9575987" lon="11.2436527"><ele>490.33333333333337</ele><time>2026-05-02T10:25:45.954Z</time></trkpt><trkpt lat="43.957542" lon="11.2435917"><ele>489.6666666666667</ele><time>2026-05-02T10:25:48.954Z</time></trkpt><trkpt lat="43.9574809" lon="11.2435173"><ele>489.0</ele><time>2026-05-02T10:25:51.965Z</time></trkpt><trkpt lat="43.9574115" lon="11.2434478"><ele>490.28571428571433</ele><time>2026-05-02T10:25:54.969Z</time></trkpt><trkpt lat="43.9573482" lon="11.2434142"><ele>491.5714285714286</ele><time>2026-05-02T10:25:57.038Z</time></trkpt><trkpt lat="43.9572645" lon="11.2433917"><ele>492.8571428571429</ele><time>2026-05-02T10:25:59.969Z</time></trkpt><trkpt lat="43.9571838" lon="11.2433827"><ele>494.1428571428571</ele><time>2026-05-02T10:26:02.979Z</time></trkpt><trkpt lat="43.9571146" lon="11.2433936"><ele>495.4285714285714</ele><time>2026-05-02T10:26:04.97Z</time></trkpt><trkpt lat="43.9570498" lon="11.2433997"><ele>496.71428571428567</ele><time>2026-05-02T10:26:06.976Z</time></trkpt><trkpt lat="43.956987" lon="11.2434118"><ele>498.0</ele><time>2026-05-02T10:26:09Z</time></trkpt><trkpt lat="43.9568965" lon="11.243431"><ele>498.0</ele><time>2026-05-02T10:26:11.977Z</time></trkpt><trkpt lat="43.9568259" lon="11.2434391"><ele>498.0</ele><time>2026-05-02T10:26:13.959Z</time></trkpt><trkpt lat="43.9567494" lon="11.2434934"><ele>498.0</ele><time>2026-05-02T10:26:16.968Z</time></trkpt><trkpt lat="43.956685" lon="11.2435417"><ele>498.0</ele><time>2026-05-02T10:26:19.975Z</time></trkpt><trkpt lat="43.9566251" lon="11.2435808"><ele>498.0</ele><time>2026-05-02T10:26:21.964Z</time></trkpt><trkpt lat="43.9565424" lon="11.2436269"><ele>498.0</ele><time>2026-05-02T10:26:24.977Z</time></trkpt><trkpt lat="43.9564673" lon="11.2436629"><ele>499.1666666666667</ele><time>2026-05-02T10:26:27.979Z</time></trkpt><trkpt lat="43.9563787" lon="11.2436859"><ele>500.33333333333337</ele><time>2026-05-02T10:26:31.033Z</time></trkpt><trkpt lat="43.9563077" lon="11.2437101"><ele>501.5</ele><time>2026-05-02T10:26:32.949Z</time></trkpt><trkpt lat="43.9562403" lon="11.2437221"><ele>502.6666666666667</ele><time>2026-05-02T10:26:34.964Z</time></trkpt><trkpt lat="43.9561506" lon="11.2437363"><ele>503.83333333333337</ele><time>2026-05-02T10:26:37.951Z</time></trkpt><trkpt lat="43.956085" lon="11.2437664"><ele>505.0</ele><time>2026-05-02T10:26:39.964Z</time></trkpt><trkpt lat="43.9560167" lon="11.2438133"><ele>505.0</ele><time>2026-05-02T10:26:42.046Z</time></trkpt><trkpt lat="43.9559561" lon="11.2438769"><ele>504.99999999999994</ele><time>2026-05-02T10:26:43.971Z</time></trkpt><trkpt lat="43.9558988" lon="11.243947"><ele>505.0</ele><time>2026-05-02T10:26:45.957Z</time></trkpt><trkpt lat="43.9558505" lon="11.2440223"><ele>505.0</ele><time>2026-05-02T10:26:47.962Z</time></trkpt><trkpt lat="43.9557981" lon="11.2440868"><ele>504.99999999999994</ele><time>2026-05-02T10:26:50.032Z</time></trkpt><trkpt lat="43.9557461" lon="11.244153"><ele>505.0</ele><time>2026-05-02T10:26:52.033Z</time></trkpt><trkpt lat="43.9556993" lon="11.2442118"><ele>505.0</ele><time>2026-05-02T10:26:53.976Z</time></trkpt><trkpt lat="43.9556228" lon="11.2442678"><ele>507.33333333333337</ele><time>2026-05-02T10:26:56.96Z</time></trkpt><trkpt lat="43.9555571" lon="11.2443007"><ele>509.6666666666667</ele><time>2026-05-02T10:26:58.96Z</time></trkpt><trkpt lat="43.9554963" lon="11.244335"><ele>512.0</ele><time>2026-05-02T10:27:00.963Z</time></trkpt><trkpt lat="43.9554303" lon="11.2443887"><ele>514.3333333333334</ele><time>2026-05-02T10:27:02.954Z</time></trkpt><trkpt lat="43.9553304" lon="11.2444341"><ele>516.6666666666666</ele><time>2026-05-02T10:27:05.005Z</time></trkpt><trkpt lat="43.9552426" lon="11.2444901"><ele>519.0</ele><time>2026-05-02T10:27:06.958Z</time></trkpt><trkpt lat="43.9551874" lon="11.2445365"><ele>519.0</ele><time>2026-05-02T10:27:08.957Z</time></trkpt><trkpt lat="43.9551276" lon="11.2445949"><ele>519.0</ele><time>2026-05-02T10:27:10.959Z</time></trkpt><trkpt lat="43.9550669" lon="11.2446606"><ele>519.0</ele><time>2026-05-02T10:27:12.966Z</time></trkpt><trkpt lat="43.9550159" lon="11.2447266"><ele>519.0</ele><time>2026-05-02T10:27:14.96Z</time></trkpt><trkpt lat="43.9549389" lon="11.2448381"><ele>519.0</ele><time>2026-05-02T10:27:16.964Z</time></trkpt><trkpt lat="43.9548529" lon="11.2449528"><ele>519.2</ele><time>2026-05-02T10:27:18.968Z</time></trkpt><trkpt lat="43.9547604" lon="11.2450513"><ele>519.4</ele><time>2026-05-02T10:27:20.971Z</time></trkpt><trkpt lat="43.9546742" lon="11.2451385"><ele>519.6</ele><time>2026-05-02T10:27:22.997Z</time></trkpt><trkpt lat="43.9546064" lon="11.2452143"><ele>519.8</ele><time>2026-05-02T10:27:24.964Z</time></trkpt><trkpt lat="43.9545271" lon="11.2452901"><ele>520.0</ele><time>2026-05-02T10:27:27.969Z</time></trkpt><trkpt lat="43.954448" lon="11.2453507"><ele>520.0</ele><time>2026-05-02T10:27:31.039Z</time></trkpt><trkpt lat="43.9543693" lon="11.2454234"><ele>520.0</ele><time>2026-05-02T10:27:33.955Z</time></trkpt><trkpt lat="43.9542949" lon="11.2454765"><ele>520.0</ele><time>2026-05-02T10:27:35.961Z</time></trkpt><trkpt lat="43.954225" lon="11.2455218"><ele>520.0</ele><time>2026-05-02T10:27:37.954Z</time></trkpt><trkpt lat="43.9541646" lon="11.2455543"><ele>520.0</ele><time>2026-05-02T10:27:39.969Z</time></trkpt><trkpt lat="43.9541018" lon="11.2456094"><ele>520.0</ele><time>2026-05-02T10:27:42.042Z</time></trkpt><trkpt lat="43.954029" lon="11.2456835"><ele>519.4285714285714</ele><time>2026-05-02T10:27:43.976Z</time></trkpt><trkpt lat="43.9539697" lon="11.2457549"><ele>518.8571428571429</ele><time>2026-05-02T10:27:45.969Z</time></trkpt><trkpt lat="43.9539142" lon="11.2458238"><ele>518.2857142857142</ele><time>2026-05-02T10:27:47.963Z</time></trkpt><trkpt lat="43.9538635" lon="11.2458852"><ele>517.7142857142858</ele><time>2026-05-02T10:27:49.965Z</time></trkpt><trkpt lat="43.9538159" lon="11.2459456"><ele>517.1428571428571</ele><time>2026-05-02T10:27:52.057Z</time></trkpt><trkpt lat="43.9537709" lon="11.2460113"><ele>516.5714285714286</ele><time>2026-05-02T10:27:53.977Z</time></trkpt><trkpt lat="43.9537115" lon="11.246087"><ele>516.0</ele><time>2026-05-02T10:27:55.981Z</time></trkpt><trkpt lat="43.9536682" lon="11.2461722"><ele>515.9999999999999</ele><time>2026-05-02T10:27:57.973Z</time></trkpt><trkpt lat="43.9536302" lon="11.2462473"><ele>516.0</ele><time>2026-05-02T10:27:59.974Z</time></trkpt><trkpt lat="43.9535733" lon="11.2463182"><ele>516.0</ele><time>2026-05-02T10:28:02.002Z</time></trkpt><trkpt lat="43.953511" lon="11.2463585"><ele>516.0</ele><time>2026-05-02T10:28:03.984Z</time></trkpt><trkpt lat="43.9534334" lon="11.2463974"><ele>516.0</ele><time>2026-05-02T10:28:05.971Z</time></trkpt><trkpt lat="43.953363" lon="11.2464235"><ele>515.9999999999999</ele><time>2026-05-02T10:28:07.97Z</time></trkpt><trkpt lat="43.9532867" lon="11.2464368"><ele>516.0</ele><time>2026-05-02T10:28:10.981Z</time></trkpt><trkpt lat="43.9532172" lon="11.2463985"><ele>514.0</ele><time>2026-05-02T10:28:13.973Z</time></trkpt><trkpt lat="43.9531402" lon="11.246372"><ele>512.0</ele><time>2026-05-02T10:28:16.979Z</time></trkpt><trkpt lat="43.9530638" lon="11.2463448"><ele>510.0</ele><time>2026-05-02T10:28:19.977Z</time></trkpt><trkpt lat="43.952966" lon="11.2463217"><ele>508.0</ele><time>2026-05-02T10:28:22.979Z</time></trkpt><trkpt lat="43.952903" lon="11.2463051"><ele>506.0</ele><time>2026-05-02T10:28:24.973Z</time></trkpt><trkpt lat="43.9528092" lon="11.2463096"><ele>504.0</ele><time>2026-05-02T10:28:27.967Z</time></trkpt><trkpt lat="43.9527193" lon="11.2463291"><ele>504.0</ele><time>2026-05-02T10:28:30.976Z</time></trkpt><trkpt lat="43.9526391" lon="11.2463532"><ele>504.0</ele><time>2026-05-02T10:28:32.969Z</time></trkpt><trkpt lat="43.9525524" lon="11.246372"><ele>504.0</ele><time>2026-05-02T10:28:35.963Z</time></trkpt><trkpt lat="43.9524727" lon="11.2463951"><ele>504.0</ele><time>2026-05-02T10:28:38.975Z</time></trkpt><trkpt lat="43.9523953" lon="11.2464182"><ele>504.0</ele><time>2026-05-02T10:28:41.978Z</time></trkpt><trkpt lat="43.9523204" lon="11.2464426"><ele>504.0</ele><time>2026-05-02T10:28:45.037Z</time></trkpt><trkpt lat="43.9522576" lon="11.2464683"><ele>507.42857142857144</ele><time>2026-05-02T10:28:47.965Z</time></trkpt><trkpt lat="43.9521712" lon="11.2464859"><ele>510.8571428571429</ele><time>2026-05-02T10:28:52.96Z</time></trkpt><trkpt lat="43.9521089" lon="11.2464999"><ele>514.2857142857142</ele><time>2026-05-02T10:28:54.955Z</time></trkpt><trkpt lat="43.9520329" lon="11.2465162"><ele>517.7142857142858</ele><time>2026-05-02T10:28:56.96Z</time></trkpt><trkpt lat="43.9519672" lon="11.2465274"><ele>521.1428571428571</ele><time>2026-05-02T10:28:58.967Z</time></trkpt><trkpt lat="43.9519" lon="11.2465377"><ele>524.5714285714286</ele><time>2026-05-02T10:29:00.949Z</time></trkpt><trkpt lat="43.9518256" lon="11.2465166"><ele>528.0</ele><time>2026-05-02T10:29:02.953Z</time></trkpt><trkpt lat="43.9517475" lon="11.2464907"><ele>528.5</ele><time>2026-05-02T10:29:04.964Z</time></trkpt><trkpt lat="43.9516638" lon="11.2464663"><ele>529.0</ele><time>2026-05-02T10:29:06.966Z</time></trkpt><trkpt lat="43.9515872" lon="11.246454"><ele>529.5</ele><time>2026-05-02T10:29:08.973Z</time></trkpt><trkpt lat="43.9515218" lon="11.2464421"><ele>530.0</ele><time>2026-05-02T10:29:10.965Z</time></trkpt><trkpt lat="43.9514334" lon="11.2464319"><ele>530.5</ele><time>2026-05-02T10:29:13.962Z</time></trkpt><trkpt lat="43.951363" lon="11.2464118"><ele>531.0</ele><time>2026-05-02T10:29:16.964Z</time></trkpt><trkpt lat="43.9512879" lon="11.2463664"><ele>529.1666666666666</ele><time>2026-05-02T10:29:20.951Z</time></trkpt><trkpt lat="43.9512225" lon="11.2463327"><ele>527.3333333333334</ele><time>2026-05-02T10:29:23.972Z</time></trkpt><trkpt lat="43.9511282" lon="11.2462843"><ele>525.5</ele><time>2026-05-02T10:29:28.948Z</time></trkpt><trkpt lat="43.9510685" lon="11.2462267"><ele>523.6666666666667</ele><time>2026-05-02T10:29:33.964Z</time></trkpt><trkpt lat="43.9510013" lon="11.2461714"><ele>521.8333333333334</ele><time>2026-05-02T10:29:37.967Z</time></trkpt><trkpt lat="43.9509374" lon="11.246104"><ele>520.0</ele><time>2026-05-02T10:29:40.973Z</time></trkpt><trkpt lat="43.9508847" lon="11.2460483"><ele>520.6666666666667</ele><time>2026-05-02T10:29:42.961Z</time></trkpt><trkpt lat="43.9508244" lon="11.2459851"><ele>521.3333333333334</ele><time>2026-05-02T10:29:44.965Z</time></trkpt><trkpt lat="43.9507431" lon="11.2459321"><ele>522.0</ele><time>2026-05-02T10:29:46.961Z</time></trkpt><trkpt lat="43.9506853" lon="11.2458915"><ele>522.6666666666666</ele><time>2026-05-02T10:29:47.962Z</time></trkpt><trkpt lat="43.9506052" lon="11.2458413"><ele>523.3333333333333</ele><time>2026-05-02T10:29:48.965Z</time></trkpt><trkpt lat="43.9505351" lon="11.2458004"><ele>524.0</ele><time>2026-05-02T10:29:49.966Z</time></trkpt><trkpt lat="43.9504724" lon="11.2457541"><ele>524.0</ele><time>2026-05-02T10:29:50.96Z</time></trkpt><trkpt lat="43.9504106" lon="11.2457062"><ele>524.0</ele><time>2026-05-02T10:29:51.95Z</time></trkpt><trkpt lat="43.9503373" lon="11.2456568"><ele>524.0</ele><time>2026-05-02T10:29:52.959Z</time></trkpt><trkpt lat="43.9501963" lon="11.2455666"><ele>524.0</ele><time>2026-05-02T10:29:53.998Z</time></trkpt><trkpt lat="43.9501296" lon="11.2455493"><ele>524.0</ele><time>2026-05-02T10:29:55.013Z</time></trkpt><trkpt lat="43.9500636" lon="11.245532"><ele>524.0</ele><time>2026-05-02T10:29:56.01Z</time></trkpt><trkpt lat="43.9499721" lon="11.2455071"><ele>522.3333333333333</ele><time>2026-05-02T10:29:58.026Z</time></trkpt><trkpt lat="43.9499088" lon="11.2454682"><ele>520.6666666666666</ele><time>2026-05-02T10:30:00.007Z</time></trkpt><trkpt lat="43.9498566" lon="11.2454164"><ele>519.0</ele><time>2026-05-02T10:30:02.018Z</time></trkpt><trkpt lat="43.9497938" lon="11.2453359"><ele>517.3333333333334</ele><time>2026-05-02T10:30:05.026Z</time></trkpt><trkpt lat="43.9497198" lon="11.245248"><ele>515.6666666666667</ele><time>2026-05-02T10:30:08.027Z</time></trkpt><trkpt lat="43.9496723" lon="11.2451646"><ele>514.0</ele><time>2026-05-02T10:30:10.016Z</time></trkpt><trkpt lat="43.94962" lon="11.2450937"><ele>514.0</ele><time>2026-05-02T10:30:11.028Z</time></trkpt><trkpt lat="43.9495773" lon="11.2450131"><ele>514.0</ele><time>2026-05-02T10:30:12.025Z</time></trkpt><trkpt lat="43.9495324" lon="11.2449177"><ele>514.0</ele><time>2026-05-02T10:30:13.008Z</time></trkpt><trkpt lat="43.9494696" lon="11.2448326"><ele>514.0</ele><time>2026-05-02T10:30:14.022Z</time></trkpt><trkpt lat="43.9493795" lon="11.2446938"><ele>514.0</ele><time>2026-05-02T10:30:15.022Z</time></trkpt><trkpt lat="43.9492864" lon="11.2445564"><ele>514.75</ele><time>2026-05-02T10:30:16.015Z</time></trkpt><trkpt lat="43.9491951" lon="11.2444337"><ele>515.5</ele><time>2026-05-02T10:30:17.015Z</time></trkpt><trkpt lat="43.9491017" lon="11.244325"><ele>516.25</ele><time>2026-05-02T10:30:18.004Z</time></trkpt><trkpt lat="43.9490178" lon="11.2442254"><ele>517.0</ele><time>2026-05-02T10:30:19.016Z</time></trkpt><trkpt lat="43.9489205" lon="11.2441328"><ele>517.0</ele><time>2026-05-02T10:30:20.015Z</time></trkpt><trkpt lat="43.9488322" lon="11.2440442"><ele>517.0</ele><time>2026-05-02T10:30:21.019Z</time></trkpt><trkpt lat="43.9487501" lon="11.2439775"><ele>517.0</ele><time>2026-05-02T10:30:22.023Z</time></trkpt><trkpt lat="43.9486697" lon="11.2439126"><ele>517.0</ele><time>2026-05-02T10:30:23.017Z</time></trkpt><trkpt lat="43.9486008" lon="11.2438646"><ele>517.0</ele><time>2026-05-02T10:30:24.017Z</time></trkpt><trkpt lat="43.948533" lon="11.2438282"><ele>517.0</ele><time>2026-05-02T10:30:25.019Z</time></trkpt><trkpt lat="43.94846" lon="11.2437904"><ele>517.6666666666667</ele><time>2026-05-02T10:30:26.028Z</time></trkpt><trkpt lat="43.9483916" lon="11.2437375"><ele>518.3333333333334</ele><time>2026-05-02T10:30:27.032Z</time></trkpt><trkpt lat="43.948329" lon="11.2436962"><ele>519.0</ele><time>2026-05-02T10:30:28.021Z</time></trkpt><trkpt lat="43.948266" lon="11.243637"><ele>519.6666666666666</ele><time>2026-05-02T10:30:29.021Z</time></trkpt><trkpt lat="43.9481992" lon="11.2435946"><ele>520.3333333333333</ele><time>2026-05-02T10:30:30.016Z</time></trkpt><trkpt lat="43.9481327" lon="11.2435329"><ele>521.0</ele><time>2026-05-02T10:30:31.02Z</time></trkpt><trkpt lat="43.9480697" lon="11.2434778"><ele>521.0</ele><time>2026-05-02T10:30:32.017Z</time></trkpt><trkpt lat="43.9479908" lon="11.2433828"><ele>521.0</ele><time>2026-05-02T10:30:34.026Z</time></trkpt><trkpt lat="43.9479165" lon="11.2432954"><ele>521.0</ele><time>2026-05-02T10:30:36.02Z</time></trkpt><trkpt lat="43.9478609" lon="11.2432294"><ele>521.0</ele><time>2026-05-02T10:30:37.02Z</time></trkpt><trkpt lat="43.947805" lon="11.2431764"><ele>521.0</ele><time>2026-05-02T10:30:38.026Z</time></trkpt><trkpt lat="43.947748" lon="11.2431238"><ele>521.0</ele><time>2026-05-02T10:30:39.03Z</time></trkpt><trkpt lat="43.9476437" lon="11.2430435"><ele>520.3333333333333</ele><time>2026-05-02T10:30:41.022Z</time></trkpt><trkpt lat="43.9475805" lon="11.243002"><ele>519.6666666666666</ele><time>2026-05-02T10:30:42.023Z</time></trkpt><trkpt lat="43.9475122" lon="11.2429583"><ele>519.0</ele><time>2026-05-02T10:30:43.03Z</time></trkpt><trkpt lat="43.9474412" lon="11.2429049"><ele>518.3333333333334</ele><time>2026-05-02T10:30:44.023Z</time></trkpt><trkpt lat="43.9473621" lon="11.2428437"><ele>517.6666666666667</ele><time>2026-05-02T10:30:45.019Z</time></trkpt><trkpt lat="43.947287" lon="11.2427957"><ele>517.0</ele><time>2026-05-02T10:30:46.015Z</time></trkpt><trkpt lat="43.9472053" lon="11.2427492"><ele>515.5</ele><time>2026-05-02T10:30:47.03Z</time></trkpt><trkpt lat="43.947129" lon="11.2426858"><ele>514.0</ele><time>2026-05-02T10:30:48.03Z</time></trkpt><trkpt lat="43.9470486" lon="11.2426353"><ele>512.5</ele><time>2026-05-02T10:30:49.024Z</time></trkpt><trkpt lat="43.946972" lon="11.2425891"><ele>511.0</ele><time>2026-05-02T10:30:50.023Z</time></trkpt><trkpt lat="43.9468955" lon="11.2425473"><ele>509.50000000000006</ele><time>2026-05-02T10:30:51.025Z</time></trkpt><trkpt lat="43.9468137" lon="11.2425018"><ele>508.0</ele><time>2026-05-02T10:30:52.027Z</time></trkpt><trkpt lat="43.9467469" lon="11.2424515"><ele>507.33333333333337</ele><time>2026-05-02T10:30:53.022Z</time></trkpt><trkpt lat="43.946689" lon="11.2423967"><ele>506.6666666666667</ele><time>2026-05-02T10:30:54.011Z</time></trkpt><trkpt lat="43.9466295" lon="11.2423292"><ele>506.0</ele><time>2026-05-02T10:30:55.017Z</time></trkpt><trkpt lat="43.9465738" lon="11.2422546"><ele>505.33333333333337</ele><time>2026-05-02T10:30:56.007Z</time></trkpt><trkpt lat="43.9465228" lon="11.2421772"><ele>504.6666666666667</ele><time>2026-05-02T10:30:57.038Z</time></trkpt><trkpt lat="43.9464456" lon="11.242039"><ele>504.0</ele><time>2026-05-02T10:30:59.033Z</time></trkpt><trkpt lat="43.9463727" lon="11.2419013"><ele>504.0</ele><time>2026-05-02T10:31:01.036Z</time></trkpt><trkpt lat="43.946294" lon="11.2417667"><ele>504.0</ele><time>2026-05-02T10:31:03.018Z</time></trkpt><trkpt lat="43.9462156" lon="11.2416384"><ele>504.0</ele><time>2026-05-02T10:31:05.032Z</time></trkpt><trkpt lat="43.9461565" lon="11.241481"><ele>504.0</ele><time>2026-05-02T10:31:07.034Z</time></trkpt><trkpt lat="43.9461323" lon="11.2413096"><ele>503.6</ele><time>2026-05-02T10:31:09.027Z</time></trkpt><trkpt lat="43.9461144" lon="11.2411392"><ele>503.2</ele><time>2026-05-02T10:31:11.038Z</time></trkpt><trkpt lat="43.9460894" lon="11.2409642"><ele>502.80000000000007</ele><time>2026-05-02T10:31:13.017Z</time></trkpt><trkpt lat="43.9460788" lon="11.2408671"><ele>502.40000000000003</ele><time>2026-05-02T10:31:14.013Z</time></trkpt><trkpt lat="43.9460754" lon="11.2407695"><ele>502.0</ele><time>2026-05-02T10:31:15.02Z</time></trkpt><trkpt lat="43.9460698" lon="11.2406687"><ele>503.1666666666667</ele><time>2026-05-02T10:31:16.032Z</time></trkpt><trkpt lat="43.9460452" lon="11.2405228"><ele>504.33333333333337</ele><time>2026-05-02T10:31:18.029Z</time></trkpt><trkpt lat="43.9460095" lon="11.2403975"><ele>505.5</ele><time>2026-05-02T10:31:20.014Z</time></trkpt><trkpt lat="43.9459644" lon="11.2402966"><ele>506.66666666666663</ele><time>2026-05-02T10:31:22.018Z</time></trkpt><trkpt lat="43.9459414" lon="11.2402121"><ele>507.8333333333333</ele><time>2026-05-02T10:31:29.025Z</time></trkpt><trkpt lat="43.9458877" lon="11.2401451"><ele>509.0</ele><time>2026-05-02T10:31:31.013Z</time></trkpt><trkpt lat="43.9458097" lon="11.2400593"><ele>509.16666666666663</ele><time>2026-05-02T10:31:33.019Z</time></trkpt><trkpt lat="43.9457092" lon="11.2399462"><ele>509.3333333333333</ele><time>2026-05-02T10:31:35.023Z</time></trkpt><trkpt lat="43.9456556" lon="11.2398752"><ele>509.5</ele><time>2026-05-02T10:31:36.028Z</time></trkpt><trkpt lat="43.9456003" lon="11.2398043"><ele>509.66666666666663</ele><time>2026-05-02T10:31:37.022Z</time></trkpt><trkpt lat="43.9455383" lon="11.2397341"><ele>509.8333333333333</ele><time>2026-05-02T10:31:38.029Z</time></trkpt><trkpt lat="43.9454873" lon="11.2396605"><ele>510.0</ele><time>2026-05-02T10:31:39.031Z</time></trkpt><trkpt lat="43.9454415" lon="11.2395861"><ele>510.0</ele><time>2026-05-02T10:31:40.021Z</time></trkpt><trkpt lat="43.9453914" lon="11.2395162"><ele>510.00000000000006</ele><time>2026-05-02T10:31:41.009Z</time></trkpt><trkpt lat="43.945339" lon="11.2394355"><ele>510.0</ele><time>2026-05-02T10:31:42.022Z</time></trkpt><trkpt lat="43.9452838" lon="11.2393624"><ele>510.0</ele><time>2026-05-02T10:31:43.028Z</time></trkpt><trkpt lat="43.9452266" lon="11.2392967"><ele>510.00000000000006</ele><time>2026-05-02T10:31:44.023Z</time></trkpt><trkpt lat="43.945174" lon="11.2392277"><ele>510.0</ele><time>2026-05-02T10:31:45.024Z</time></trkpt><trkpt lat="43.9451141" lon="11.23917"><ele>510.0</ele><time>2026-05-02T10:31:46.031Z</time></trkpt><trkpt lat="43.9450543" lon="11.2391098"><ele>510.0</ele><time>2026-05-02T10:31:47.026Z</time></trkpt><trkpt lat="43.9449948" lon="11.2390519"><ele>510.0</ele><time>2026-05-02T10:31:48.023Z</time></trkpt><trkpt lat="43.9449359" lon="11.2389887"><ele>510.0</ele><time>2026-05-02T10:31:49.013Z</time></trkpt><trkpt lat="43.9448733" lon="11.2389207"><ele>510.0</ele><time>2026-05-02T10:31:50.026Z</time></trkpt><trkpt lat="43.9448035" lon="11.2388517"><ele>510.0</ele><time>2026-05-02T10:31:51.02Z</time></trkpt><trkpt lat="43.9447354" lon="11.2387782"><ele>510.0</ele><time>2026-05-02T10:31:52.016Z</time></trkpt><trkpt lat="43.9446756" lon="11.2387079"><ele>509.1666666666667</ele><time>2026-05-02T10:31:53.033Z</time></trkpt><trkpt lat="43.9446238" lon="11.23863"><ele>508.33333333333337</ele><time>2026-05-02T10:31:54.011Z</time></trkpt><trkpt lat="43.9445776" lon="11.2385545"><ele>507.5</ele><time>2026-05-02T10:31:55.033Z</time></trkpt><trkpt lat="43.9445399" lon="11.238479"><ele>506.6666666666667</ele><time>2026-05-02T10:31:56.023Z</time></trkpt><trkpt lat="43.9445065" lon="11.2384016"><ele>505.83333333333337</ele><time>2026-05-02T10:31:57.024Z</time></trkpt><trkpt lat="43.9444738" lon="11.2383208"><ele>505.0</ele><time>2026-05-02T10:31:58.031Z</time></trkpt><trkpt lat="43.9444311" lon="11.2381705"><ele>504.83333333333337</ele><time>2026-05-02T10:32:00.036Z</time></trkpt><trkpt lat="43.9444014" lon="11.238028"><ele>504.6666666666667</ele><time>2026-05-02T10:32:02.023Z</time></trkpt><trkpt lat="43.9443506" lon="11.2379297"><ele>504.5</ele><time>2026-05-02T10:32:04.031Z</time></trkpt><trkpt lat="43.9442983" lon="11.2378766"><ele>504.33333333333337</ele><time>2026-05-02T10:32:05.038Z</time></trkpt><trkpt lat="43.9442423" lon="11.2378349"><ele>504.1666666666667</ele><time>2026-05-02T10:32:06.025Z</time></trkpt><trkpt lat="43.9441863" lon="11.2377874"><ele>504.0</ele><time>2026-05-02T10:32:07.024Z</time></trkpt><trkpt lat="43.94413" lon="11.2377345"><ele>504.0</ele><time>2026-05-02T10:32:08.029Z</time></trkpt><trkpt lat="43.9440693" lon="11.2376936"><ele>504.0</ele><time>2026-05-02T10:32:09.023Z</time></trkpt><trkpt lat="43.9440051" lon="11.237653"><ele>504.0</ele><time>2026-05-02T10:32:10.029Z</time></trkpt><trkpt lat="43.9439379" lon="11.2376178"><ele>504.0</ele><time>2026-05-02T10:32:11.028Z</time></trkpt><trkpt lat="43.9438699" lon="11.2375805"><ele>504.0</ele><time>2026-05-02T10:32:12.025Z</time></trkpt><trkpt lat="43.9438113" lon="11.2375399"><ele>504.0</ele><time>2026-05-02T10:32:13.024Z</time></trkpt><trkpt lat="43.9437627" lon="11.2374823"><ele>504.0</ele><time>2026-05-02T10:32:14.017Z</time></trkpt><trkpt lat="43.9437258" lon="11.2374022"><ele>504.0</ele><time>2026-05-02T10:32:15.032Z</time></trkpt><trkpt lat="43.9436951" lon="11.2373166"><ele>504.0</ele><time>2026-05-02T10:32:16.015Z</time></trkpt><trkpt lat="43.943672" lon="11.2372257"><ele>504.0</ele><time>2026-05-02T10:32:17.026Z</time></trkpt><trkpt lat="43.9436515" lon="11.2371286"><ele>504.0</ele><time>2026-05-02T10:32:18.029Z</time></trkpt><trkpt lat="43.9436238" lon="11.2370407"><ele>504.0</ele><time>2026-05-02T10:32:19.02Z</time></trkpt><trkpt lat="43.9435864" lon="11.2369401"><ele>504.0</ele><time>2026-05-02T10:32:20.01Z</time></trkpt><trkpt lat="43.9435484" lon="11.2368463"><ele>504.0</ele><time>2026-05-02T10:32:21.024Z</time></trkpt><trkpt lat="43.9435122" lon="11.2367656"><ele>502.57142857142856</ele><time>2026-05-02T10:32:22.032Z</time></trkpt><trkpt lat="43.9434689" lon="11.2366827"><ele>501.1428571428571</ele><time>2026-05-02T10:32:23.029Z</time></trkpt><trkpt lat="43.9434308" lon="11.23659"><ele>499.7142857142857</ele><time>2026-05-02T10:32:24.029Z</time></trkpt><trkpt lat="43.9433962" lon="11.2365091"><ele>498.2857142857143</ele><time>2026-05-02T10:32:25.024Z</time></trkpt><trkpt lat="43.9433622" lon="11.2364158"><ele>496.85714285714283</ele><time>2026-05-02T10:32:26.026Z</time></trkpt><trkpt lat="43.943332" lon="11.2363251"><ele>495.42857142857144</ele><time>2026-05-02T10:32:27.033Z</time></trkpt><trkpt lat="43.9433019" lon="11.2362354"><ele>494.0</ele><time>2026-05-02T10:32:28.028Z</time></trkpt><trkpt lat="43.9432751" lon="11.2361542"><ele>494.0</ele><time>2026-05-02T10:32:29.034Z</time></trkpt><trkpt lat="43.9432405" lon="11.2360155"><ele>494.0</ele><time>2026-05-02T10:32:31.029Z</time></trkpt><trkpt lat="43.9432059" lon="11.2358657"><ele>494.0</ele><time>2026-05-02T10:32:33.034Z</time></trkpt><trkpt lat="43.9431711" lon="11.2357061"><ele>494.0</ele><time>2026-05-02T10:32:35.025Z</time></trkpt><trkpt lat="43.9431521" lon="11.2356215"><ele>494.0</ele><time>2026-05-02T10:32:36.021Z</time></trkpt><trkpt lat="43.943132" lon="11.2355304"><ele>492.8333333333333</ele><time>2026-05-02T10:32:37.024Z</time></trkpt><trkpt lat="43.9431104" lon="11.2354302"><ele>491.66666666666663</ele><time>2026-05-02T10:32:38.018Z</time></trkpt><trkpt lat="43.9430889" lon="11.2353259"><ele>490.5</ele><time>2026-05-02T10:32:39.036Z</time></trkpt><trkpt lat="43.9430742" lon="11.2352294"><ele>489.33333333333337</ele><time>2026-05-02T10:32:40.033Z</time></trkpt><trkpt lat="43.9430598" lon="11.2351428"><ele>488.1666666666667</ele><time>2026-05-02T10:32:41.032Z</time></trkpt><trkpt lat="43.9430447" lon="11.2349827"><ele>487.0</ele><time>2026-05-02T10:32:43.032Z</time></trkpt><trkpt lat="43.9430349" lon="11.2348595"><ele>487.00000000000006</ele><time>2026-05-02T10:32:45.027Z</time></trkpt><trkpt lat="43.9430112" lon="11.2347537"><ele>487.0</ele><time>2026-05-02T10:32:47.032Z</time></trkpt><trkpt lat="43.9429622" lon="11.2346811"><ele>487.0</ele><time>2026-05-02T10:32:50.024Z</time></trkpt><trkpt lat="43.9429069" lon="11.2347494"><ele>487.0</ele><time>2026-05-02T10:32:52.026Z</time></trkpt><trkpt lat="43.9428594" lon="11.2348494"><ele>487.00000000000006</ele><time>2026-05-02T10:32:54.006Z</time></trkpt><trkpt lat="43.9428207" lon="11.2349268"><ele>487.0</ele><time>2026-05-02T10:32:55.021Z</time></trkpt><trkpt lat="43.9427812" lon="11.2350144"><ele>487.0</ele><time>2026-05-02T10:32:56.015Z</time></trkpt><trkpt lat="43.9427396" lon="11.2351153"><ele>487.00000000000006</ele><time>2026-05-02T10:32:57.023Z</time></trkpt><trkpt lat="43.9426965" lon="11.2352291"><ele>487.00000000000006</ele><time>2026-05-02T10:32:58.031Z</time></trkpt><trkpt lat="43.942652" lon="11.2353572"><ele>487.0</ele><time>2026-05-02T10:32:59.027Z</time></trkpt><trkpt lat="43.9425984" lon="11.2354955"><ele>487.0</ele><time>2026-05-02T10:33:00.022Z</time></trkpt><trkpt lat="43.9425509" lon="11.2356286"><ele>488.20000000000005</ele><time>2026-05-02T10:33:01.01Z</time></trkpt><trkpt lat="43.9425037" lon="11.2357518"><ele>489.40000000000003</ele><time>2026-05-02T10:33:02.007Z</time></trkpt><trkpt lat="43.9424414" lon="11.2358658"><ele>490.59999999999997</ele><time>2026-05-02T10:33:03.025Z</time></trkpt><trkpt lat="43.9423721" lon="11.2359753"><ele>491.79999999999995</ele><time>2026-05-02T10:33:04.02Z</time></trkpt><trkpt lat="43.9423187" lon="11.2360969"><ele>493.0</ele><time>2026-05-02T10:33:05.015Z</time></trkpt><trkpt lat="43.9422699" lon="11.2362205"><ele>493.0</ele><time>2026-05-02T10:33:06.024Z</time></trkpt><trkpt lat="43.9422091" lon="11.2363395"><ele>492.99999999999994</ele><time>2026-05-02T10:33:07.027Z</time></trkpt><trkpt lat="43.9421361" lon="11.2364533"><ele>492.99999999999994</ele><time>2026-05-02T10:33:08.027Z</time></trkpt><trkpt lat="43.9420703" lon="11.2365626"><ele>493.0</ele><time>2026-05-02T10:33:09.018Z</time></trkpt><trkpt lat="43.942009" lon="11.2366707"><ele>493.0</ele><time>2026-05-02T10:33:10.026Z</time></trkpt><trkpt lat="43.9419642" lon="11.2367948"><ele>495.79999999999995</ele><time>2026-05-02T10:33:11.018Z</time></trkpt><trkpt lat="43.9419267" lon="11.236927"><ele>498.59999999999997</ele><time>2026-05-02T10:33:12.035Z</time></trkpt><trkpt lat="43.9418893" lon="11.2370579"><ele>501.40000000000003</ele><time>2026-05-02T10:33:13.022Z</time></trkpt><trkpt lat="43.9418435" lon="11.2371875"><ele>504.20000000000005</ele><time>2026-05-02T10:33:14.029Z</time></trkpt><trkpt lat="43.9417896" lon="11.237296"><ele>507.0</ele><time>2026-05-02T10:33:15.033Z</time></trkpt><trkpt lat="43.9417241" lon="11.2373844"><ele>507.0</ele><time>2026-05-02T10:33:16.031Z</time></trkpt><trkpt lat="43.941661" lon="11.2374527"><ele>507.0</ele><time>2026-05-02T10:33:17.033Z</time></trkpt><trkpt lat="43.9416043" lon="11.2374969"><ele>507.0</ele><time>2026-05-02T10:33:18.037Z</time></trkpt><trkpt lat="43.9415031" lon="11.2375181"><ele>507.0</ele><time>2026-05-02T10:33:20.024Z</time></trkpt><trkpt lat="43.9413909" lon="11.2375324"><ele>507.0</ele><time>2026-05-02T10:33:22.024Z</time></trkpt><trkpt lat="43.9413245" lon="11.2375426"><ele>507.0</ele><time>2026-05-02T10:33:23.022Z</time></trkpt><trkpt lat="43.9412648" lon="11.2375733"><ele>507.0</ele><time>2026-05-02T10:33:24.023Z</time></trkpt><trkpt lat="43.941193" lon="11.2376035"><ele>507.00000000000006</ele><time>2026-05-02T10:33:25.025Z</time></trkpt><trkpt lat="43.941081" lon="11.2376456"><ele>507.00000000000006</ele><time>2026-05-02T10:33:27.023Z</time></trkpt><trkpt lat="43.9409693" lon="11.237639"><ele>507.0</ele><time>2026-05-02T10:33:29.009Z</time></trkpt><trkpt lat="43.9408516" lon="11.2376452"><ele>507.0</ele><time>2026-05-02T10:33:31.022Z</time></trkpt><trkpt lat="43.9407368" lon="11.2376834"><ele>507.8</ele><time>2026-05-02T10:33:33.021Z</time></trkpt><trkpt lat="43.9406344" lon="11.2377281"><ele>508.6</ele><time>2026-05-02T10:33:35.024Z</time></trkpt><trkpt lat="43.9405347" lon="11.237777"><ele>509.40000000000003</ele><time>2026-05-02T10:33:37.03Z</time></trkpt><trkpt lat="43.9404307" lon="11.2378576"><ele>510.20000000000005</ele><time>2026-05-02T10:33:39.029Z</time></trkpt><trkpt lat="43.9403811" lon="11.2379171"><ele>511.0</ele><time>2026-05-02T10:33:40.022Z</time></trkpt><trkpt lat="43.9402983" lon="11.2380203"><ele>511.00000000000006</ele><time>2026-05-02T10:33:42.047Z</time></trkpt><trkpt lat="43.940213" lon="11.2381317"><ele>511.0</ele><time>2026-05-02T10:33:44.019Z</time></trkpt><trkpt lat="43.9401704" lon="11.2381986"><ele>511.0</ele><time>2026-05-02T10:33:45.027Z</time></trkpt><trkpt lat="43.9401237" lon="11.238266"><ele>511.0</ele><time>2026-05-02T10:33:46.025Z</time></trkpt><trkpt lat="43.9400781" lon="11.238336"><ele>511.00000000000006</ele><time>2026-05-02T10:33:47.027Z</time></trkpt><trkpt lat="43.9400335" lon="11.2384074"><ele>511.0</ele><time>2026-05-02T10:33:48.026Z</time></trkpt><trkpt lat="43.939987" lon="11.2384729"><ele>510.4</ele><time>2026-05-02T10:33:49.023Z</time></trkpt><trkpt lat="43.9399403" lon="11.2385381"><ele>509.8</ele><time>2026-05-02T10:33:50.036Z</time></trkpt><trkpt lat="43.939847" lon="11.2386501"><ele>509.19999999999993</ele><time>2026-05-02T10:33:52.029Z</time></trkpt><trkpt lat="43.9397579" lon="11.2387553"><ele>508.59999999999997</ele><time>2026-05-02T10:33:54.025Z</time></trkpt><trkpt lat="43.9396851" lon="11.238834"><ele>508.0</ele><time>2026-05-02T10:33:56.015Z</time></trkpt><trkpt lat="43.9396182" lon="11.2388729"><ele>508.00000000000006</ele><time>2026-05-02T10:33:58.025Z</time></trkpt><trkpt lat="43.9395495" lon="11.2388646"><ele>508.0</ele><time>2026-05-02T10:34:00.031Z</time></trkpt><trkpt lat="43.9394831" lon="11.2388182"><ele>508.0</ele><time>2026-05-02T10:34:02.028Z</time></trkpt><trkpt lat="43.93941" lon="11.238774"><ele>508.0</ele><time>2026-05-02T10:34:04.02Z</time></trkpt><trkpt lat="43.9393178" lon="11.2387226"><ele>508.00000000000006</ele><time>2026-05-02T10:34:06.025Z</time></trkpt><trkpt lat="43.9392322" lon="11.2386626"><ele>508.0</ele><time>2026-05-02T10:34:08.021Z</time></trkpt><trkpt lat="43.9391491" lon="11.2385633"><ele>507.59999999999997</ele><time>2026-05-02T10:34:10.028Z</time></trkpt><trkpt lat="43.9390627" lon="11.2384393"><ele>507.19999999999993</ele><time>2026-05-02T10:34:12.031Z</time></trkpt><trkpt lat="43.9389731" lon="11.2383243"><ele>506.8</ele><time>2026-05-02T10:34:14.008Z</time></trkpt><trkpt lat="43.9389037" lon="11.2382139"><ele>506.4</ele><time>2026-05-02T10:34:16.028Z</time></trkpt><trkpt lat="43.938853" lon="11.2380998"><ele>506.0</ele><time>2026-05-02T10:34:18.034Z</time></trkpt><trkpt lat="43.9388141" lon="11.2379959"><ele>505.99999999999994</ele><time>2026-05-02T10:34:20.017Z</time></trkpt><trkpt lat="43.9387586" lon="11.2378967"><ele>506.0</ele><time>2026-05-02T10:34:22.039Z</time></trkpt><trkpt lat="43.9387071" lon="11.2377814"><ele>506.0</ele><time>2026-05-02T10:34:24.026Z</time></trkpt><trkpt lat="43.9386699" lon="11.2376651"><ele>506.0</ele><time>2026-05-02T10:34:26.022Z</time></trkpt><trkpt lat="43.938619" lon="11.2375598"><ele>505.99999999999994</ele><time>2026-05-02T10:34:28.026Z</time></trkpt><trkpt lat="43.9385504" lon="11.237539"><ele>506.0</ele><time>2026-05-02T10:34:30.022Z</time></trkpt><trkpt lat="43.9384496" lon="11.2375939"><ele>505.99999999999994</ele><time>2026-05-02T10:34:32.029Z</time></trkpt><trkpt lat="43.9383944" lon="11.2376366"><ele>506.0</ele><time>2026-05-02T10:34:33.028Z</time></trkpt><trkpt lat="43.9383329" lon="11.2376868"><ele>506.0</ele><time>2026-05-02T10:34:34.032Z</time></trkpt><trkpt lat="43.9382319" lon="11.2377634"><ele>506.0</ele><time>2026-05-02T10:34:36.038Z</time></trkpt><trkpt lat="43.9381663" lon="11.2377825"><ele>505.99999999999994</ele><time>2026-05-02T10:34:38.029Z</time></trkpt><trkpt lat="43.9380862" lon="11.2378146"><ele>506.0</ele><time>2026-05-02T10:34:40.021Z</time></trkpt><trkpt lat="43.9379913" lon="11.2378584"><ele>503.3333333333333</ele><time>2026-05-02T10:34:42.032Z</time></trkpt><trkpt lat="43.9379068" lon="11.2379008"><ele>500.66666666666663</ele><time>2026-05-02T10:34:44.025Z</time></trkpt><trkpt lat="43.9378267" lon="11.2379306"><ele>498.0</ele><time>2026-05-02T10:34:46.018Z</time></trkpt><trkpt lat="43.9377677" lon="11.2379798"><ele>495.33333333333337</ele><time>2026-05-02T10:34:48.023Z</time></trkpt><trkpt lat="43.9376971" lon="11.2380364"><ele>492.6666666666667</ele><time>2026-05-02T10:34:52.023Z</time></trkpt><trkpt lat="43.9376472" lon="11.238101"><ele>490.0</ele><time>2026-05-02T10:34:55.026Z</time></trkpt><trkpt lat="43.9376076" lon="11.2381736"><ele>487.83333333333337</ele><time>2026-05-02T10:34:59.025Z</time></trkpt><trkpt lat="43.9375548" lon="11.2382357"><ele>485.6666666666667</ele><time>2026-05-02T10:35:04.018Z</time></trkpt><trkpt lat="43.9374901" lon="11.2383067"><ele>483.5</ele><time>2026-05-02T10:35:06.023Z</time></trkpt><trkpt lat="43.937438" lon="11.2383722"><ele>481.33333333333337</ele><time>2026-05-02T10:35:07.026Z</time></trkpt><trkpt lat="43.937388" lon="11.2384428"><ele>479.1666666666667</ele><time>2026-05-02T10:35:08.029Z</time></trkpt><trkpt lat="43.9373356" lon="11.2385218"><ele>477.0</ele><time>2026-05-02T10:35:09.003Z</time></trkpt><trkpt lat="43.9372818" lon="11.2386063"><ele>475.5</ele><time>2026-05-02T10:35:10.017Z</time></trkpt><trkpt lat="43.9372323" lon="11.2386754"><ele>474.0</ele><time>2026-05-02T10:35:11.029Z</time></trkpt><trkpt lat="43.9371785" lon="11.2387423"><ele>472.5</ele><time>2026-05-02T10:35:12.023Z</time></trkpt><trkpt lat="43.9371255" lon="11.2388045"><ele>471.0</ele><time>2026-05-02T10:35:13.024Z</time></trkpt><trkpt lat="43.9370435" lon="11.2388983"><ele>469.5</ele><time>2026-05-02T10:35:15.026Z</time></trkpt><trkpt lat="43.9369512" lon="11.2389579"><ele>468.0</ele><time>2026-05-02T10:35:17.023Z</time></trkpt><trkpt lat="43.9368478" lon="11.2390104"><ele>468.4</ele><time>2026-05-02T10:35:19.028Z</time></trkpt><trkpt lat="43.9367452" lon="11.2390638"><ele>468.79999999999995</ele><time>2026-05-02T10:35:21.022Z</time></trkpt><trkpt lat="43.9366466" lon="11.2390976"><ele>469.2</ele><time>2026-05-02T10:35:23.025Z</time></trkpt><trkpt lat="43.9365391" lon="11.2390984"><ele>469.6</ele><time>2026-05-02T10:35:25.025Z</time></trkpt><trkpt lat="43.9364134" lon="11.2391109"><ele>470.0</ele><time>2026-05-02T10:35:27.029Z</time></trkpt><trkpt lat="43.936349" lon="11.2391202"><ele>470.0</ele><time>2026-05-02T10:35:28.027Z</time></trkpt><trkpt lat="43.9362836" lon="11.2391286"><ele>469.99999999999994</ele><time>2026-05-02T10:35:29.027Z</time></trkpt><trkpt lat="43.9362199" lon="11.2391369"><ele>470.0</ele><time>2026-05-02T10:35:30.01Z</time></trkpt><trkpt lat="43.9361554" lon="11.2391446"><ele>470.0</ele><time>2026-05-02T10:35:31.021Z</time></trkpt><trkpt lat="43.9360902" lon="11.2391419"><ele>469.99999999999994</ele><time>2026-05-02T10:35:32.021Z</time></trkpt><trkpt lat="43.9360226" lon="11.2391398"><ele>470.0</ele><time>2026-05-02T10:35:33.035Z</time></trkpt><trkpt lat="43.9359572" lon="11.2391401"><ele>470.0</ele><time>2026-05-02T10:35:34.02Z</time></trkpt><trkpt lat="43.9358425" lon="11.2391469"><ele>470.4</ele><time>2026-05-02T10:35:36.031Z</time></trkpt><trkpt lat="43.9357415" lon="11.2391773"><ele>470.8</ele><time>2026-05-02T10:35:38.004Z</time></trkpt><trkpt lat="43.9356338" lon="11.2391975"><ele>471.20000000000005</ele><time>2026-05-02T10:35:40.025Z</time></trkpt><trkpt lat="43.9355106" lon="11.2392042"><ele>471.6</ele><time>2026-05-02T10:35:42.03Z</time></trkpt><trkpt lat="43.9354448" lon="11.2391961"><ele>472.0</ele><time>2026-05-02T10:35:43.018Z</time></trkpt><trkpt lat="43.9353791" lon="11.2391803"><ele>472.00000000000006</ele><time>2026-05-02T10:35:44.025Z</time></trkpt><trkpt lat="43.9353066" lon="11.2391745"><ele>472.0</ele><time>2026-05-02T10:35:45.028Z</time></trkpt><trkpt lat="43.9352202" lon="11.2391572"><ele>472.0</ele><time>2026-05-02T10:35:46.021Z</time></trkpt><trkpt lat="43.9351398" lon="11.2391463"><ele>472.0</ele><time>2026-05-02T10:35:47.025Z</time></trkpt><trkpt lat="43.9350575" lon="11.2391335"><ele>472.00000000000006</ele><time>2026-05-02T10:35:48.02Z</time></trkpt><trkpt lat="43.9349844" lon="11.2391114"><ele>472.0</ele><time>2026-05-02T10:35:49.029Z</time></trkpt><trkpt lat="43.9349118" lon="11.2390889"><ele>470.83333333333337</ele><time>2026-05-02T10:35:50.034Z</time></trkpt><trkpt lat="43.9348494" lon="11.2390702"><ele>469.6666666666667</ele><time>2026-05-02T10:35:51.026Z</time></trkpt><trkpt lat="43.9347838" lon="11.2390441"><ele>468.5</ele><time>2026-05-02T10:35:52.029Z</time></trkpt><trkpt lat="43.9346604" lon="11.2390222"><ele>467.33333333333337</ele><time>2026-05-02T10:35:54.024Z</time></trkpt><trkpt lat="43.9345407" lon="11.2390211"><ele>466.1666666666667</ele><time>2026-05-02T10:35:56.018Z</time></trkpt><trkpt lat="43.9344716" lon="11.239027"><ele>465.0</ele><time>2026-05-02T10:35:57.037Z</time></trkpt><trkpt lat="43.9343481" lon="11.2390376"><ele>465.0</ele><time>2026-05-02T10:35:59.023Z</time></trkpt><trkpt lat="43.9342239" lon="11.2390402"><ele>465.0</ele><time>2026-05-02T10:36:01.027Z</time></trkpt><trkpt lat="43.9341605" lon="11.2390342"><ele>465.0</ele><time>2026-05-02T10:36:02.025Z</time></trkpt><trkpt lat="43.9340994" lon="11.2390079"><ele>465.0</ele><time>2026-05-02T10:36:03.025Z</time></trkpt><trkpt lat="43.9340328" lon="11.2389813"><ele>465.0</ele><time>2026-05-02T10:36:04.032Z</time></trkpt><trkpt lat="43.9339127" lon="11.2389537"><ele>465.0</ele><time>2026-05-02T10:36:06.025Z</time></trkpt><trkpt lat="43.9338027" lon="11.2389283"><ele>460.6666666666667</ele><time>2026-05-02T10:36:08.036Z</time></trkpt><trkpt lat="43.9337437" lon="11.2388978"><ele>456.33333333333337</ele><time>2026-05-02T10:36:09.026Z</time></trkpt><trkpt lat="43.9336817" lon="11.2388688"><ele>452.0</ele><time>2026-05-02T10:36:10.03Z</time></trkpt><trkpt lat="43.9336208" lon="11.2388455"><ele>447.6666666666667</ele><time>2026-05-02T10:36:11.03Z</time></trkpt><trkpt lat="43.9335569" lon="11.2388302"><ele>443.33333333333337</ele><time>2026-05-02T10:36:12.025Z</time></trkpt><trkpt lat="43.9334493" lon="11.2388435"><ele>439.0</ele><time>2026-05-02T10:36:14.034Z</time></trkpt><trkpt lat="43.9333449" lon="11.238914"><ele>442.4</ele><time>2026-05-02T10:36:16.021Z</time></trkpt><trkpt lat="43.933247" lon="11.2389892"><ele>445.79999999999995</ele><time>2026-05-02T10:36:18.022Z</time></trkpt><trkpt lat="43.9331668" lon="11.2390359"><ele>449.20000000000005</ele><time>2026-05-02T10:36:20.026Z</time></trkpt><trkpt lat="43.9330661" lon="11.239053"><ele>452.6</ele><time>2026-05-02T10:36:22.029Z</time></trkpt><trkpt lat="43.9329682" lon="11.2390589"><ele>456.0</ele><time>2026-05-02T10:36:24.018Z</time></trkpt><trkpt lat="43.9328561" lon="11.2390645"><ele>456.0</ele><time>2026-05-02T10:36:26.021Z</time></trkpt><trkpt lat="43.9327388" lon="11.2390025"><ele>456.0</ele><time>2026-05-02T10:36:28.018Z</time></trkpt><trkpt lat="43.9326374" lon="11.2389262"><ele>456.0</ele><time>2026-05-02T10:36:30.023Z</time></trkpt><trkpt lat="43.9325185" lon="11.2388919"><ele>456.0</ele><time>2026-05-02T10:36:32.027Z</time></trkpt><trkpt lat="43.9324492" lon="11.2388952"><ele>456.0</ele><time>2026-05-02T10:36:33.026Z</time></trkpt><trkpt lat="43.9323801" lon="11.2388875"><ele>453.1428571428571</ele><time>2026-05-02T10:36:34.017Z</time></trkpt><trkpt lat="43.9323084" lon="11.2388816"><ele>450.2857142857142</ele><time>2026-05-02T10:36:35.03Z</time></trkpt><trkpt lat="43.9322314" lon="11.2388724"><ele>447.42857142857144</ele><time>2026-05-02T10:36:36.036Z</time></trkpt><trkpt lat="43.9321629" lon="11.2388573"><ele>444.57142857142856</ele><time>2026-05-02T10:36:37.028Z</time></trkpt><trkpt lat="43.9320989" lon="11.2388421"><ele>441.7142857142857</ele><time>2026-05-02T10:36:38.025Z</time></trkpt><trkpt lat="43.9320317" lon="11.2388366"><ele>438.8571428571429</ele><time>2026-05-02T10:36:39.021Z</time></trkpt><trkpt lat="43.9319631" lon="11.2388173"><ele>436.0</ele><time>2026-05-02T10:36:40.021Z</time></trkpt><trkpt lat="43.9319016" lon="11.2387787"><ele>436.0</ele><time>2026-05-02T10:36:41.025Z</time></trkpt><trkpt lat="43.931797" lon="11.2387106"><ele>436.0</ele><time>2026-05-02T10:36:43.017Z</time></trkpt><trkpt lat="43.9316896" lon="11.2386373"><ele>436.0</ele><time>2026-05-02T10:36:45.031Z</time></trkpt><trkpt lat="43.9315804" lon="11.2385626"><ele>436.0</ele><time>2026-05-02T10:36:47.023Z</time></trkpt><trkpt lat="43.9314638" lon="11.2385258"><ele>435.7142857142857</ele><time>2026-05-02T10:36:49.025Z</time></trkpt><trkpt lat="43.9313961" lon="11.2385378"><ele>435.42857142857144</ele><time>2026-05-02T10:36:50.022Z</time></trkpt><trkpt lat="43.9313279" lon="11.2385361"><ele>435.1428571428571</ele><time>2026-05-02T10:36:51.019Z</time></trkpt><trkpt lat="43.9312496" lon="11.2385388"><ele>434.8571428571429</ele><time>2026-05-02T10:36:52.021Z</time></trkpt><trkpt lat="43.9311752" lon="11.2385526"><ele>434.57142857142856</ele><time>2026-05-02T10:36:53.027Z</time></trkpt><trkpt lat="43.9311067" lon="11.2385612"><ele>434.2857142857143</ele><time>2026-05-02T10:36:54.027Z</time></trkpt><trkpt lat="43.9310359" lon="11.2385689"><ele>434.0</ele><time>2026-05-02T10:36:55.028Z</time></trkpt><trkpt lat="43.9309695" lon="11.2385807"><ele>432.79999999999995</ele><time>2026-05-02T10:36:56.023Z</time></trkpt><trkpt lat="43.9308575" lon="11.2386267"><ele>431.59999999999997</ele><time>2026-05-02T10:36:58.026Z</time></trkpt><trkpt lat="43.9307366" lon="11.2386561"><ele>430.4</ele><time>2026-05-02T10:37:00.02Z</time></trkpt><trkpt lat="43.9306716" lon="11.2386625"><ele>429.2</ele><time>2026-05-02T10:37:01.025Z</time></trkpt><trkpt lat="43.9306046" lon="11.2386571"><ele>428.0</ele><time>2026-05-02T10:37:02.017Z</time></trkpt><trkpt lat="43.9304938" lon="11.2386356"><ele>427.99999999999994</ele><time>2026-05-02T10:37:04.03Z</time></trkpt><trkpt lat="43.9304213" lon="11.2385639"><ele>428.0</ele><time>2026-05-02T10:37:06.024Z</time></trkpt><trkpt lat="43.9303732" lon="11.2384072"><ele>428.0</ele><time>2026-05-02T10:37:08.024Z</time></trkpt><trkpt lat="43.9303494" lon="11.2383219"><ele>428.0</ele><time>2026-05-02T10:37:09.003Z</time></trkpt><trkpt lat="43.9303247" lon="11.2382341"><ele>427.99999999999994</ele><time>2026-05-02T10:37:10.03Z</time></trkpt><trkpt lat="43.9302861" lon="11.2381627"><ele>428.0</ele><time>2026-05-02T10:37:11.02Z</time></trkpt><trkpt lat="43.9302342" lon="11.2381116"><ele>426.59999999999997</ele><time>2026-05-02T10:37:12.024Z</time></trkpt><trkpt lat="43.9301332" lon="11.238079"><ele>425.19999999999993</ele><time>2026-05-02T10:37:14.027Z</time></trkpt><trkpt lat="43.930041" lon="11.2381155"><ele>423.8</ele><time>2026-05-02T10:37:16.026Z</time></trkpt><trkpt lat="43.9299481" lon="11.2382042"><ele>422.4</ele><time>2026-05-02T10:37:18.015Z</time></trkpt><trkpt lat="43.9298491" lon="11.2383038"><ele>421.0</ele><time>2026-05-02T10:37:20.027Z</time></trkpt><trkpt lat="43.9297254" lon="11.2382855"><ele>421.00000000000006</ele><time>2026-05-02T10:37:22.018Z</time></trkpt><trkpt lat="43.9296574" lon="11.2382426"><ele>421.0</ele><time>2026-05-02T10:37:23.015Z</time></trkpt><trkpt lat="43.9295827" lon="11.2382047"><ele>421.0</ele><time>2026-05-02T10:37:24.015Z</time></trkpt><trkpt lat="43.929498" lon="11.2381863"><ele>421.0</ele><time>2026-05-02T10:37:25.012Z</time></trkpt><trkpt lat="43.929414" lon="11.2381637"><ele>421.00000000000006</ele><time>2026-05-02T10:37:26.005Z</time></trkpt><trkpt lat="43.9293439" lon="11.2381375"><ele>421.0</ele><time>2026-05-02T10:37:27.018Z</time></trkpt><trkpt lat="43.9292592" lon="11.2381051"><ele>418.1666666666667</ele><time>2026-05-02T10:37:28.017Z</time></trkpt><trkpt lat="43.9291712" lon="11.2380634"><ele>415.33333333333337</ele><time>2026-05-02T10:37:29.02Z</time></trkpt><trkpt lat="43.9290866" lon="11.2380258"><ele>412.5</ele><time>2026-05-02T10:37:30.027Z</time></trkpt><trkpt lat="43.9290056" lon="11.2379954"><ele>409.66666666666663</ele><time>2026-05-02T10:37:31.026Z</time></trkpt><trkpt lat="43.9289275" lon="11.2379633"><ele>406.8333333333333</ele><time>2026-05-02T10:37:32.022Z</time></trkpt><trkpt lat="43.9288542" lon="11.2379414"><ele>404.0</ele><time>2026-05-02T10:37:33.032Z</time></trkpt><trkpt lat="43.9287859" lon="11.23794"><ele>404.0</ele><time>2026-05-02T10:37:34.023Z</time></trkpt><trkpt lat="43.9287177" lon="11.2379794"><ele>404.0</ele><time>2026-05-02T10:37:35.028Z</time></trkpt><trkpt lat="43.9286401" lon="11.2380426"><ele>404.0</ele><time>2026-05-02T10:37:36.023Z</time></trkpt><trkpt lat="43.9285629" lon="11.2381358"><ele>404.0</ele><time>2026-05-02T10:37:37.026Z</time></trkpt><trkpt lat="43.9284815" lon="11.2382228"><ele>404.0</ele><time>2026-05-02T10:37:38.028Z</time></trkpt><trkpt lat="43.9283897" lon="11.2383274"><ele>404.5</ele><time>2026-05-02T10:37:39.025Z</time></trkpt><trkpt lat="43.9282986" lon="11.2384403"><ele>405.0</ele><time>2026-05-02T10:37:40.03Z</time></trkpt><trkpt lat="43.9282031" lon="11.2385483"><ele>405.5</ele><time>2026-05-02T10:37:41.024Z</time></trkpt><trkpt lat="43.9281113" lon="11.2386574"><ele>406.0</ele><time>2026-05-02T10:37:42.022Z</time></trkpt><trkpt lat="43.9280244" lon="11.238761"><ele>406.0</ele><time>2026-05-02T10:37:43.019Z</time></trkpt><trkpt lat="43.9279358" lon="11.2388522"><ele>406.0</ele><time>2026-05-02T10:37:44.022Z</time></trkpt><trkpt lat="43.9278457" lon="11.2389347"><ele>406.0</ele><time>2026-05-02T10:37:45.023Z</time></trkpt><trkpt lat="43.9277687" lon="11.2390071"><ele>406.0</ele><time>2026-05-02T10:37:46.026Z</time></trkpt><trkpt lat="43.9276894" lon="11.2390535"><ele>406.0</ele><time>2026-05-02T10:37:47.017Z</time></trkpt><trkpt lat="43.927617" lon="11.2390709"><ele>405.6</ele><time>2026-05-02T10:37:48.024Z</time></trkpt><trkpt lat="43.9275532" lon="11.2390753"><ele>405.20000000000005</ele><time>2026-05-02T10:37:49.02Z</time></trkpt><trkpt lat="43.9274441" lon="11.2390447"><ele>404.79999999999995</ele><time>2026-05-02T10:37:51.024Z</time></trkpt><trkpt lat="43.9273507" lon="11.2389797"><ele>404.4</ele><time>2026-05-02T10:37:53.028Z</time></trkpt><trkpt lat="43.9272542" lon="11.238845"><ele>404.0</ele><time>2026-05-02T10:37:55.029Z</time></trkpt><trkpt lat="43.9271966" lon="11.2387387"><ele>402.5</ele><time>2026-05-02T10:37:56.022Z</time></trkpt><trkpt lat="43.9271435" lon="11.2386019"><ele>401.0</ele><time>2026-05-02T10:37:57.03Z</time></trkpt><trkpt lat="43.927099" lon="11.2384583"><ele>399.5</ele><time>2026-05-02T10:37:58.014Z</time></trkpt><trkpt lat="43.9270556" lon="11.2382984"><ele>398.0</ele><time>2026-05-02T10:37:59.026Z</time></trkpt><trkpt lat="43.927012" lon="11.2381331"><ele>398.0</ele><time>2026-05-02T10:38:00.035Z</time></trkpt><trkpt lat="43.9269655" lon="11.2379797"><ele>398.0</ele><time>2026-05-02T10:38:01.026Z</time></trkpt><trkpt lat="43.9269152" lon="11.2378472"><ele>398.0</ele><time>2026-05-02T10:38:02.019Z</time></trkpt><trkpt lat="43.9268437" lon="11.237754"><ele>398.0</ele><time>2026-05-02T10:38:03.034Z</time></trkpt><trkpt lat="43.9267587" lon="11.2376697"><ele>398.0</ele><time>2026-05-02T10:38:04.023Z</time></trkpt><trkpt lat="43.9266587" lon="11.2375869"><ele>395.25</ele><time>2026-05-02T10:38:05.027Z</time></trkpt><trkpt lat="43.926558" lon="11.2375106"><ele>392.5</ele><time>2026-05-02T10:38:06.016Z</time></trkpt><trkpt lat="43.9264459" lon="11.2374277"><ele>389.75</ele><time>2026-05-02T10:38:07.026Z</time></trkpt><trkpt lat="43.9263329" lon="11.2373346"><ele>387.0</ele><time>2026-05-02T10:38:08.027Z</time></trkpt><trkpt lat="43.9262208" lon="11.2372241"><ele>385.40000000000003</ele><time>2026-05-02T10:38:09.023Z</time></trkpt><trkpt lat="43.9261239" lon="11.237106"><ele>383.8</ele><time>2026-05-02T10:38:10.021Z</time></trkpt><trkpt lat="43.9260334" lon="11.2369828"><ele>382.2</ele><time>2026-05-02T10:38:11.026Z</time></trkpt><trkpt lat="43.9259619" lon="11.2368778"><ele>380.6</ele><time>2026-05-02T10:38:12.017Z</time></trkpt><trkpt lat="43.9259229" lon="11.2367688"><ele>379.0</ele><time>2026-05-02T10:38:13.02Z</time></trkpt><trkpt lat="43.9258988" lon="11.2366392"><ele>377.0</ele><time>2026-05-02T10:38:14.022Z</time></trkpt><trkpt lat="43.925879" lon="11.2364899"><ele>375.0</ele><time>2026-05-02T10:38:14.978Z</time></trkpt><trkpt lat="43.9258469" lon="11.2363424"><ele>373.0</ele><time>2026-05-02T10:38:15.926Z</time></trkpt><trkpt lat="43.9257742" lon="11.2361803"><ele>371.0</ele><time>2026-05-02T10:38:16.838Z</time></trkpt><trkpt lat="43.9257088" lon="11.2360137"><ele>369.75</ele><time>2026-05-02T10:38:17.782Z</time></trkpt><trkpt lat="43.9256407" lon="11.2358536"><ele>368.5</ele><time>2026-05-02T10:38:18.775Z</time></trkpt><trkpt lat="43.9255693" lon="11.2356935"><ele>367.25</ele><time>2026-05-02T10:38:19.779Z</time></trkpt><trkpt lat="43.9255009" lon="11.2355524"><ele>366.0</ele><time>2026-05-02T10:38:20.782Z</time></trkpt><trkpt lat="43.9254428" lon="11.2354425"><ele>364.8333333333333</ele><time>2026-05-02T10:38:21.776Z</time></trkpt><trkpt lat="43.9253807" lon="11.235396"><ele>363.6666666666667</ele><time>2026-05-02T10:38:22.782Z</time></trkpt><trkpt lat="43.9253064" lon="11.2353972"><ele>362.5</ele><time>2026-05-02T10:38:23.783Z</time></trkpt><trkpt lat="43.9252292" lon="11.2354535"><ele>361.33333333333337</ele><time>2026-05-02T10:38:24.834Z</time></trkpt><trkpt lat="43.9251439" lon="11.2355257"><ele>360.1666666666667</ele><time>2026-05-02T10:38:25.831Z</time></trkpt><trkpt lat="43.9250598" lon="11.2355791"><ele>359.0</ele><time>2026-05-02T10:38:26.775Z</time></trkpt><trkpt lat="43.9249637" lon="11.2356127"><ele>356.75</ele><time>2026-05-02T10:38:27.783Z</time></trkpt><trkpt lat="43.9248599" lon="11.2356096"><ele>354.5</ele><time>2026-05-02T10:38:28.772Z</time></trkpt><trkpt lat="43.9247514" lon="11.2355672"><ele>352.25</ele><time>2026-05-02T10:38:29.782Z</time></trkpt><trkpt lat="43.9246391" lon="11.2354778"><ele>350.0</ele><time>2026-05-02T10:38:30.768Z</time></trkpt><trkpt lat="43.9245249" lon="11.2353939"><ele>350.0</ele><time>2026-05-02T10:38:31.789Z</time></trkpt><trkpt lat="43.9243906" lon="11.2352988"><ele>350.0</ele><time>2026-05-02T10:38:32.774Z</time></trkpt><trkpt lat="43.9242689" lon="11.2352017"><ele>350.0</ele><time>2026-05-02T10:38:33.773Z</time></trkpt><trkpt lat="43.9241477" lon="11.2351169"><ele>350.0</ele><time>2026-05-02T10:38:34.775Z</time></trkpt><trkpt lat="43.9240435" lon="11.2350344"><ele>343.6666666666667</ele><time>2026-05-02T10:38:35.775Z</time></trkpt><trkpt lat="43.9238886" lon="11.2347897"><ele>337.3333333333333</ele><time>2026-05-02T10:38:37.586Z</time></trkpt><trkpt lat="43.9238253" lon="11.2346178"><ele>331.0</ele><time>2026-05-02T10:38:38.592Z</time></trkpt><trkpt lat="43.9237581" lon="11.234438"><ele>331.0</ele><time>2026-05-02T10:38:39.593Z</time></trkpt><trkpt lat="43.9236845" lon="11.2342546"><ele>331.0</ele><time>2026-05-02T10:38:40.625Z</time></trkpt><trkpt lat="43.9236116" lon="11.2340723"><ele>331.0</ele><time>2026-05-02T10:38:41.637Z</time></trkpt><trkpt lat="43.9235348" lon="11.2338904"><ele>329.0</ele><time>2026-05-02T10:38:42.599Z</time></trkpt><trkpt lat="43.9234577" lon="11.2337178"><ele>327.0</ele><time>2026-05-02T10:38:43.585Z</time></trkpt><trkpt lat="43.9233978" lon="11.2335569"><ele>325.0</ele><time>2026-05-02T10:38:44.618Z</time></trkpt><trkpt lat="43.9233391" lon="11.2334139"><ele>323.0</ele><time>2026-05-02T10:38:45.645Z</time></trkpt><trkpt lat="43.9232769" lon="11.2332833"><ele>322.75</ele><time>2026-05-02T10:38:46.588Z</time></trkpt><trkpt lat="43.9231981" lon="11.2331776"><ele>322.5</ele><time>2026-05-02T10:38:47.591Z</time></trkpt><trkpt lat="43.9230979" lon="11.2330945"><ele>322.25</ele><time>2026-05-02T10:38:48.584Z</time></trkpt><trkpt lat="43.9229854" lon="11.2330219"><ele>322.0</ele><time>2026-05-02T10:38:49.653Z</time></trkpt><trkpt lat="43.9228674" lon="11.2329541"><ele>321.0</ele><time>2026-05-02T10:38:50.601Z</time></trkpt><trkpt lat="43.9227545" lon="11.2328637"><ele>320.0</ele><time>2026-05-02T10:38:51.605Z</time></trkpt><trkpt lat="43.9226608" lon="11.2327482"><ele>319.0</ele><time>2026-05-02T10:38:52.59Z</time></trkpt><trkpt lat="43.9225745" lon="11.2326295"><ele>318.0</ele><time>2026-05-02T10:38:53.545Z</time></trkpt><trkpt lat="43.9224908" lon="11.2325117"><ele>315.4</ele><time>2026-05-02T10:38:54.463Z</time></trkpt><trkpt lat="43.9224258" lon="11.232397"><ele>312.8</ele><time>2026-05-02T10:38:55.371Z</time></trkpt><trkpt lat="43.922376" lon="11.2322788"><ele>310.2</ele><time>2026-05-02T10:38:56.313Z</time></trkpt><trkpt lat="43.922341" lon="11.2321621"><ele>307.6</ele><time>2026-05-02T10:38:57.304Z</time></trkpt><trkpt lat="43.9223204" lon="11.2320392"><ele>305.0</ele><time>2026-05-02T10:38:58.315Z</time></trkpt><trkpt lat="43.9223045" lon="11.2319076"><ele>303.75</ele><time>2026-05-02T10:38:59.308Z</time></trkpt><trkpt lat="43.9222854" lon="11.2317545"><ele>302.5</ele><time>2026-05-02T10:39:00.306Z</time></trkpt><trkpt lat="43.9222429" lon="11.2315952"><ele>301.25</ele><time>2026-05-02T10:39:01.303Z</time></trkpt><trkpt lat="43.9221757" lon="11.2314561"><ele>300.0</ele><time>2026-05-02T10:39:02.307Z</time></trkpt><trkpt lat="43.9220948" lon="11.2313048"><ele>297.5</ele><time>2026-05-02T10:39:03.299Z</time></trkpt><trkpt lat="43.9220103" lon="11.231164"><ele>295.0</ele><time>2026-05-02T10:39:04.297Z</time></trkpt><trkpt lat="43.9219282" lon="11.2310338"><ele>292.5</ele><time>2026-05-02T10:39:05.304Z</time></trkpt><trkpt lat="43.9218437" lon="11.2309121"><ele>290.0</ele><time>2026-05-02T10:39:06.36Z</time></trkpt><trkpt lat="43.9217668" lon="11.2308005"><ele>287.2</ele><time>2026-05-02T10:39:07.302Z</time></trkpt><trkpt lat="43.9217005" lon="11.2307009"><ele>284.4</ele><time>2026-05-02T10:39:08.303Z</time></trkpt><trkpt lat="43.9216645" lon="11.2305811"><ele>281.6</ele><time>2026-05-02T10:39:09.338Z</time></trkpt><trkpt lat="43.9216414" lon="11.2304454"><ele>278.8</ele><time>2026-05-02T10:39:10.302Z</time></trkpt><trkpt lat="43.9216091" lon="11.2303408"><ele>276.0</ele><time>2026-05-02T10:39:11.304Z</time></trkpt><trkpt lat="43.9215809" lon="11.2302302"><ele>274.40000000000003</ele><time>2026-05-02T10:39:12.308Z</time></trkpt><trkpt lat="43.921596" lon="11.2301189"><ele>272.8</ele><time>2026-05-02T10:39:13.349Z</time></trkpt><trkpt lat="43.9216037" lon="11.229994"><ele>271.20000000000005</ele><time>2026-05-02T10:39:14.366Z</time></trkpt><trkpt lat="43.921585" lon="11.2298751"><ele>269.6</ele><time>2026-05-02T10:39:15.302Z</time></trkpt><trkpt lat="43.921515" lon="11.2297683"><ele>268.0</ele><time>2026-05-02T10:39:16.308Z</time></trkpt><trkpt lat="43.9214144" lon="11.2296673"><ele>266.25</ele><time>2026-05-02T10:39:17.298Z</time></trkpt><trkpt lat="43.9212985" lon="11.2295733"><ele>264.5</ele><time>2026-05-02T10:39:18.292Z</time></trkpt><trkpt lat="43.9211717" lon="11.2294772"><ele>262.75</ele><time>2026-05-02T10:39:19.311Z</time></trkpt><trkpt lat="43.92104" lon="11.2293769"><ele>261.0</ele><time>2026-05-02T10:39:20.3Z</time></trkpt><trkpt lat="43.9209076" lon="11.229259"><ele>258.5</ele><time>2026-05-02T10:39:21.303Z</time></trkpt><trkpt lat="43.9207744" lon="11.2291446"><ele>256.0</ele><time>2026-05-02T10:39:22.302Z</time></trkpt><trkpt lat="43.9206423" lon="11.2290364"><ele>253.5</ele><time>2026-05-02T10:39:23.313Z</time></trkpt><trkpt lat="43.9205311" lon="11.2289593"><ele>251.0</ele><time>2026-05-02T10:39:24.367Z</time></trkpt><trkpt lat="43.9204483" lon="11.2288834"><ele>249.8</ele><time>2026-05-02T10:39:25.329Z</time></trkpt><trkpt lat="43.9203739" lon="11.2288038"><ele>248.60000000000002</ele><time>2026-05-02T10:39:26.255Z</time></trkpt><trkpt lat="43.9203357" lon="11.2287111"><ele>247.4</ele><time>2026-05-02T10:39:27.259Z</time></trkpt><trkpt lat="43.9203184" lon="11.2285686"><ele>246.2</ele><time>2026-05-02T10:39:28.261Z</time></trkpt><trkpt lat="43.9202906" lon="11.2284205"><ele>245.0</ele><time>2026-05-02T10:39:29.169Z</time></trkpt><trkpt lat="43.9201811" lon="11.228175"><ele>245.0</ele><time>2026-05-02T10:39:31.036Z</time></trkpt><trkpt lat="43.9201048" lon="11.2280732"><ele>245.0</ele><time>2026-05-02T10:39:31.953Z</time></trkpt><trkpt lat="43.9200525" lon="11.2279639"><ele>245.0</ele><time>2026-05-02T10:39:32.956Z</time></trkpt><trkpt lat="43.9200046" lon="11.2278672"><ele>245.0</ele><time>2026-05-02T10:39:33.968Z</time></trkpt><trkpt lat="43.9198994" lon="11.2278022"><ele>245.0</ele><time>2026-05-02T10:39:36.041Z</time></trkpt><trkpt lat="43.9197757" lon="11.2277787"><ele>244.8</ele><time>2026-05-02T10:39:37.956Z</time></trkpt><trkpt lat="43.919702" lon="11.2277343"><ele>244.6</ele><time>2026-05-02T10:39:38.988Z</time></trkpt><trkpt lat="43.9196177" lon="11.2276536"><ele>244.39999999999998</ele><time>2026-05-02T10:39:40.042Z</time></trkpt><trkpt lat="43.9195144" lon="11.2275547"><ele>244.2</ele><time>2026-05-02T10:39:41.034Z</time></trkpt><trkpt lat="43.919409" lon="11.2274617"><ele>244.0</ele><time>2026-05-02T10:39:41.959Z</time></trkpt><trkpt lat="43.9193056" lon="11.2273724"><ele>241.75</ele><time>2026-05-02T10:39:42.965Z</time></trkpt><trkpt lat="43.9192018" lon="11.2272878"><ele>239.5</ele><time>2026-05-02T10:39:43.974Z</time></trkpt><trkpt lat="43.9191065" lon="11.2272046"><ele>237.25</ele><time>2026-05-02T10:39:45.028Z</time></trkpt><trkpt lat="43.919016" lon="11.2271123"><ele>235.0</ele><time>2026-05-02T10:39:46.032Z</time></trkpt><trkpt lat="43.9189316" lon="11.2270089"><ele>235.0</ele><time>2026-05-02T10:39:46.959Z</time></trkpt><trkpt lat="43.9188485" lon="11.2269018"><ele>235.0</ele><time>2026-05-02T10:39:48.021Z</time></trkpt><trkpt lat="43.9187662" lon="11.2267853"><ele>235.0</ele><time>2026-05-02T10:39:48.96Z</time></trkpt><trkpt lat="43.9186784" lon="11.2266541"><ele>235.0</ele><time>2026-05-02T10:39:49.956Z</time></trkpt><trkpt lat="43.9185775" lon="11.2265225"><ele>233.25</ele><time>2026-05-02T10:39:50.959Z</time></trkpt><trkpt lat="43.9184749" lon="11.2263866"><ele>231.5</ele><time>2026-05-02T10:39:51.964Z</time></trkpt><trkpt lat="43.9183664" lon="11.226256"><ele>229.75</ele><time>2026-05-02T10:39:52.963Z</time></trkpt><trkpt lat="43.9182552" lon="11.226115"><ele>228.0</ele><time>2026-05-02T10:39:53.969Z</time></trkpt><trkpt lat="43.9181563" lon="11.2259629"><ele>228.0</ele><time>2026-05-02T10:39:55.018Z</time></trkpt><trkpt lat="43.9180589" lon="11.225819"><ele>228.0</ele><time>2026-05-02T10:39:56.016Z</time></trkpt><trkpt lat="43.9179784" lon="11.2256668"><ele>228.0</ele><time>2026-05-02T10:39:56.963Z</time></trkpt><trkpt lat="43.9178927" lon="11.2255548"><ele>228.0</ele><time>2026-05-02T10:39:57.971Z</time></trkpt><trkpt lat="43.9177995" lon="11.2254465"><ele>227.75</ele><time>2026-05-02T10:39:58.975Z</time></trkpt><trkpt lat="43.9176724" lon="11.2253632"><ele>227.5</ele><time>2026-05-02T10:39:59.968Z</time></trkpt><trkpt lat="43.9175415" lon="11.2252713"><ele>227.25</ele><time>2026-05-02T10:40:00.97Z</time></trkpt><trkpt lat="43.917407" lon="11.2251717"><ele>227.0</ele><time>2026-05-02T10:40:01.956Z</time></trkpt><trkpt lat="43.9172796" lon="11.2250861"><ele>227.0</ele><time>2026-05-02T10:40:03.021Z</time></trkpt><trkpt lat="43.9171548" lon="11.2250162"><ele>227.0</ele><time>2026-05-02T10:40:03.962Z</time></trkpt><trkpt lat="43.9170273" lon="11.2249478"><ele>227.0</ele><time>2026-05-02T10:40:04.96Z</time></trkpt><trkpt lat="43.9169125" lon="11.224904"><ele>227.0</ele><time>2026-05-02T10:40:05.991Z</time></trkpt><trkpt lat="43.9167831" lon="11.2248954"><ele>224.25</ele><time>2026-05-02T10:40:06.957Z</time></trkpt><trkpt lat="43.9166397" lon="11.2249169"><ele>221.5</ele><time>2026-05-02T10:40:07.953Z</time></trkpt><trkpt lat="43.9164938" lon="11.224968"><ele>218.75</ele><time>2026-05-02T10:40:08.958Z</time></trkpt><trkpt lat="43.916359" lon="11.2250635"><ele>216.0</ele><time>2026-05-02T10:40:09.957Z</time></trkpt><trkpt lat="43.9162397" lon="11.2251795"><ele>216.0</ele><time>2026-05-02T10:40:10.958Z</time></trkpt><trkpt lat="43.9161322" lon="11.2252864"><ele>216.0</ele><time>2026-05-02T10:40:11.97Z</time></trkpt><trkpt lat="43.9160213" lon="11.2253495"><ele>216.0</ele><time>2026-05-02T10:40:13.039Z</time></trkpt><trkpt lat="43.915925" lon="11.2253674"><ele>216.0</ele><time>2026-05-02T10:40:14.03Z</time></trkpt><trkpt lat="43.9158215" lon="11.2253343"><ele>214.75</ele><time>2026-05-02T10:40:15.031Z</time></trkpt><trkpt lat="43.9157217" lon="11.2252738"><ele>213.5</ele><time>2026-05-02T10:40:16.035Z</time></trkpt><trkpt lat="43.9156196" lon="11.2251863"><ele>212.25</ele><time>2026-05-02T10:40:16.958Z</time></trkpt><trkpt lat="43.9154923" lon="11.2251006"><ele>211.0</ele><time>2026-05-02T10:40:17.963Z</time></trkpt><trkpt lat="43.9153531" lon="11.2250432"><ele>211.0</ele><time>2026-05-02T10:40:18.969Z</time></trkpt><trkpt lat="43.9152267" lon="11.2250177"><ele>211.0</ele><time>2026-05-02T10:40:20.044Z</time></trkpt><trkpt lat="43.9151051" lon="11.224975"><ele>211.0</ele><time>2026-05-02T10:40:21.041Z</time></trkpt><trkpt lat="43.9149791" lon="11.2249518"><ele>211.0</ele><time>2026-05-02T10:40:21.945Z</time></trkpt><trkpt lat="43.9148576" lon="11.2249208"><ele>210.20000000000002</ele><time>2026-05-02T10:40:22.96Z</time></trkpt><trkpt lat="43.914743" lon="11.2248873"><ele>209.4</ele><time>2026-05-02T10:40:23.981Z</time></trkpt><trkpt lat="43.9146365" lon="11.2248377"><ele>208.6</ele><time>2026-05-02T10:40:25.042Z</time></trkpt><trkpt lat="43.9145566" lon="11.2247748"><ele>207.8</ele><time>2026-05-02T10:40:25.952Z</time></trkpt><trkpt lat="43.9144865" lon="11.2247124"><ele>207.0</ele><time>2026-05-02T10:40:26.96Z</time></trkpt><trkpt lat="43.9144213" lon="11.2246412"><ele>207.0</ele><time>2026-05-02T10:40:27.967Z</time></trkpt><trkpt lat="43.914364" lon="11.22455"><ele>207.0</ele><time>2026-05-02T10:40:28.963Z</time></trkpt><trkpt lat="43.9143145" lon="11.2244584"><ele>207.0</ele><time>2026-05-02T10:40:30.035Z</time></trkpt><trkpt lat="43.914262" lon="11.2243747"><ele>207.0</ele><time>2026-05-02T10:40:31.025Z</time></trkpt><trkpt lat="43.9142141" lon="11.224309"><ele>207.0</ele><time>2026-05-02T10:40:31.952Z</time></trkpt><trkpt lat="43.914164" lon="11.224252"><ele>207.0</ele><time>2026-05-02T10:40:32.954Z</time></trkpt><trkpt lat="43.9141001" lon="11.224211"><ele>206.0</ele><time>2026-05-02T10:40:33.965Z</time></trkpt><trkpt lat="43.9140254" lon="11.2241598"><ele>205.0</ele><time>2026-05-02T10:40:35.026Z</time></trkpt><trkpt lat="43.9139456" lon="11.2241076"><ele>204.0</ele><time>2026-05-02T10:40:36.019Z</time></trkpt><trkpt lat="43.913866" lon="11.2240303"><ele>203.0</ele><time>2026-05-02T10:40:36.962Z</time></trkpt><trkpt lat="43.913776" lon="11.2239417"><ele>202.0</ele><time>2026-05-02T10:40:37.95Z</time></trkpt><trkpt lat="43.9136952" lon="11.2238343"><ele>202.0</ele><time>2026-05-02T10:40:38.957Z</time></trkpt><trkpt lat="43.9136064" lon="11.2237074"><ele>202.0</ele><time>2026-05-02T10:40:39.959Z</time></trkpt><trkpt lat="43.9135299" lon="11.2235751"><ele>202.0</ele><time>2026-05-02T10:40:40.955Z</time></trkpt><trkpt lat="43.913454" lon="11.223444"><ele>202.0</ele><time>2026-05-02T10:40:41.961Z</time></trkpt><trkpt lat="43.9133825" lon="11.2233125"><ele>200.25</ele><time>2026-05-02T10:40:42.959Z</time></trkpt><trkpt lat="43.9133059" lon="11.2231798"><ele>198.5</ele><time>2026-05-02T10:40:44.033Z</time></trkpt><trkpt lat="43.9132308" lon="11.2230419"><ele>196.75</ele><time>2026-05-02T10:40:45.036Z</time></trkpt><trkpt lat="43.9131744" lon="11.2229142"><ele>195.0</ele><time>2026-05-02T10:40:46.031Z</time></trkpt><trkpt lat="43.9131293" lon="11.2227767"><ele>194.25</ele><time>2026-05-02T10:40:46.953Z</time></trkpt><trkpt lat="43.9131107" lon="11.2226201"><ele>193.5</ele><time>2026-05-02T10:40:47.96Z</time></trkpt><trkpt lat="43.9131084" lon="11.2224485"><ele>192.75</ele><time>2026-05-02T10:40:48.957Z</time></trkpt><trkpt lat="43.9131013" lon="11.2222799"><ele>192.0</ele><time>2026-05-02T10:40:49.961Z</time></trkpt><trkpt lat="43.9130864" lon="11.2221055"><ele>192.0</ele><time>2026-05-02T10:40:50.959Z</time></trkpt><trkpt lat="43.9130701" lon="11.2219344"><ele>192.0</ele><time>2026-05-02T10:40:51.962Z</time></trkpt><trkpt lat="43.9130517" lon="11.2217542"><ele>192.0</ele><time>2026-05-02T10:40:53.039Z</time></trkpt><trkpt lat="43.9130311" lon="11.221584"><ele>192.0</ele><time>2026-05-02T10:40:54.039Z</time></trkpt><trkpt lat="43.9130047" lon="11.2214208"><ele>194.0</ele><time>2026-05-02T10:40:55.027Z</time></trkpt><trkpt lat="43.9129705" lon="11.2212586"><ele>196.0</ele><time>2026-05-02T10:40:55.96Z</time></trkpt><trkpt lat="43.9129248" lon="11.2211117"><ele>198.0</ele><time>2026-05-02T10:40:56.973Z</time></trkpt><trkpt lat="43.9128803" lon="11.2209683"><ele>200.0</ele><time>2026-05-02T10:40:57.964Z</time></trkpt><trkpt lat="43.912856" lon="11.2208109"><ele>200.0</ele><time>2026-05-02T10:40:58.958Z</time></trkpt><trkpt lat="43.9128353" lon="11.2206602"><ele>200.0</ele><time>2026-05-02T10:40:59.962Z</time></trkpt><trkpt lat="43.9128044" lon="11.2205277"><ele>200.0</ele><time>2026-05-02T10:41:00.965Z</time></trkpt><trkpt lat="43.9127527" lon="11.2204153"><ele>200.0</ele><time>2026-05-02T10:41:01.962Z</time></trkpt><trkpt lat="43.9126734" lon="11.2203134"><ele>200.0</ele><time>2026-05-02T10:41:02.959Z</time></trkpt><trkpt lat="43.9125871" lon="11.2202137"><ele>197.0</ele><time>2026-05-02T10:41:03.993Z</time></trkpt><trkpt lat="43.9124906" lon="11.2201233"><ele>194.0</ele><time>2026-05-02T10:41:04.968Z</time></trkpt><trkpt lat="43.912386" lon="11.2200439"><ele>191.0</ele><time>2026-05-02T10:41:05.974Z</time></trkpt><trkpt lat="43.9122734" lon="11.21997"><ele>188.0</ele><time>2026-05-02T10:41:06.963Z</time></trkpt><trkpt lat="43.9121569" lon="11.2199013"><ele>188.0</ele><time>2026-05-02T10:41:07.973Z</time></trkpt><trkpt lat="43.9120449" lon="11.219835"><ele>188.0</ele><time>2026-05-02T10:41:08.966Z</time></trkpt><trkpt lat="43.9119409" lon="11.2197809"><ele>188.0</ele><time>2026-05-02T10:41:09.969Z</time></trkpt><trkpt lat="43.9118388" lon="11.2197328"><ele>188.0</ele><time>2026-05-02T10:41:10.945Z</time></trkpt><trkpt lat="43.9117462" lon="11.2196646"><ele>188.0</ele><time>2026-05-02T10:41:11.963Z</time></trkpt><trkpt lat="43.9116521" lon="11.2195822"><ele>187.25</ele><time>2026-05-02T10:41:12.965Z</time></trkpt><trkpt lat="43.9115517" lon="11.2194996"><ele>186.5</ele><time>2026-05-02T10:41:13.972Z</time></trkpt><trkpt lat="43.9114499" lon="11.2193846"><ele>185.75</ele><time>2026-05-02T10:41:14.966Z</time></trkpt><trkpt lat="43.9113575" lon="11.2192517"><ele>185.0</ele><time>2026-05-02T10:41:15.968Z</time></trkpt><trkpt lat="43.9112602" lon="11.2191105"><ele>185.25</ele><time>2026-05-02T10:41:16.968Z</time></trkpt><trkpt lat="43.9111538" lon="11.2189766"><ele>185.5</ele><time>2026-05-02T10:41:18.01Z</time></trkpt><trkpt lat="43.9110432" lon="11.2188548"><ele>185.75</ele><time>2026-05-02T10:41:19.022Z</time></trkpt><trkpt lat="43.9109285" lon="11.2187379"><ele>186.0</ele><time>2026-05-02T10:41:20.035Z</time></trkpt><trkpt lat="43.9108128" lon="11.218627"><ele>186.0</ele><time>2026-05-02T10:41:20.961Z</time></trkpt><trkpt lat="43.910696" lon="11.2185136"><ele>186.0</ele><time>2026-05-02T10:41:21.959Z</time></trkpt><trkpt lat="43.9105783" lon="11.2184016"><ele>186.0</ele><time>2026-05-02T10:41:22.965Z</time></trkpt><trkpt lat="43.910458" lon="11.2182918"><ele>186.0</ele><time>2026-05-02T10:41:23.967Z</time></trkpt><trkpt lat="43.9103386" lon="11.2181903"><ele>185.25</ele><time>2026-05-02T10:41:24.987Z</time></trkpt><trkpt lat="43.9102162" lon="11.2180839"><ele>184.5</ele><time>2026-05-02T10:41:25.97Z</time></trkpt><trkpt lat="43.9100972" lon="11.2179788"><ele>183.75</ele><time>2026-05-02T10:41:26.958Z</time></trkpt><trkpt lat="43.9099793" lon="11.2178868"><ele>183.0</ele><time>2026-05-02T10:41:27.965Z</time></trkpt><trkpt lat="43.9098599" lon="11.2177942"><ele>183.0</ele><time>2026-05-02T10:41:28.971Z</time></trkpt><trkpt lat="43.9097407" lon="11.2177082"><ele>183.0</ele><time>2026-05-02T10:41:29.964Z</time></trkpt><trkpt lat="43.9096192" lon="11.2176215"><ele>183.0</ele><time>2026-05-02T10:41:30.969Z</time></trkpt><trkpt lat="43.9095084" lon="11.217537"><ele>183.0</ele><time>2026-05-02T10:41:31.97Z</time></trkpt><trkpt lat="43.909399" lon="11.2174446"><ele>183.0</ele><time>2026-05-02T10:41:32.972Z</time></trkpt><trkpt lat="43.9092916" lon="11.2173436"><ele>183.0</ele><time>2026-05-02T10:41:34.014Z</time></trkpt><trkpt lat="43.9091883" lon="11.2172379"><ele>183.0</ele><time>2026-05-02T10:41:35.017Z</time></trkpt><trkpt lat="43.9090891" lon="11.2171321"><ele>183.0</ele><time>2026-05-02T10:41:36.024Z</time></trkpt><trkpt lat="43.9089935" lon="11.2170294"><ele>181.75</ele><time>2026-05-02T10:41:36.959Z</time></trkpt><trkpt lat="43.9088998" lon="11.2169279"><ele>180.5</ele><time>2026-05-02T10:41:37.962Z</time></trkpt><trkpt lat="43.9088073" lon="11.2168195"><ele>179.25</ele><time>2026-05-02T10:41:38.96Z</time></trkpt><trkpt lat="43.9087147" lon="11.2167149"><ele>178.0</ele><time>2026-05-02T10:41:39.965Z</time></trkpt><trkpt lat="43.9086255" lon="11.216612"><ele>178.0</ele><time>2026-05-02T10:41:40.96Z</time></trkpt><trkpt lat="43.9085354" lon="11.2165039"><ele>178.0</ele><time>2026-05-02T10:41:41.959Z</time></trkpt><trkpt lat="43.9084432" lon="11.2163908"><ele>178.0</ele><time>2026-05-02T10:41:42.974Z</time></trkpt><trkpt lat="43.9083442" lon="11.2162814"><ele>178.0</ele><time>2026-05-02T10:41:43.998Z</time></trkpt><trkpt lat="43.9082426" lon="11.2161761"><ele>178.25</ele><time>2026-05-02T10:41:44.981Z</time></trkpt><trkpt lat="43.9081402" lon="11.2160762"><ele>178.5</ele><time>2026-05-02T10:41:45.97Z</time></trkpt><trkpt lat="43.9080409" lon="11.2159784"><ele>178.75</ele><time>2026-05-02T10:41:46.967Z</time></trkpt><trkpt lat="43.9079393" lon="11.2158776"><ele>179.0</ele><time>2026-05-02T10:41:47.965Z</time></trkpt><trkpt lat="43.9078359" lon="11.2157816"><ele>179.0</ele><time>2026-05-02T10:41:48.966Z</time></trkpt><trkpt lat="43.9077338" lon="11.2156862"><ele>179.0</ele><time>2026-05-02T10:41:49.954Z</time></trkpt><trkpt lat="43.9076293" lon="11.215594"><ele>179.0</ele><time>2026-05-02T10:41:51.036Z</time></trkpt><trkpt lat="43.9075229" lon="11.2155088"><ele>179.0</ele><time>2026-05-02T10:41:51.957Z</time></trkpt><trkpt lat="43.9074267" lon="11.2154138"><ele>178.5</ele><time>2026-05-02T10:41:52.958Z</time></trkpt><trkpt lat="43.907333" lon="11.2153137"><ele>178.0</ele><time>2026-05-02T10:41:53.985Z</time></trkpt><trkpt lat="43.9072464" lon="11.2151825"><ele>177.5</ele><time>2026-05-02T10:41:55.012Z</time></trkpt><trkpt lat="43.9071696" lon="11.2150417"><ele>177.0</ele><time>2026-05-02T10:41:56.012Z</time></trkpt><trkpt lat="43.9070935" lon="11.2149065"><ele>179.25</ele><time>2026-05-02T10:41:56.961Z</time></trkpt><trkpt lat="43.9070249" lon="11.214737"><ele>181.5</ele><time>2026-05-02T10:41:57.96Z</time></trkpt><trkpt lat="43.9069666" lon="11.2145533"><ele>183.75</ele><time>2026-05-02T10:41:58.997Z</time></trkpt><trkpt lat="43.9069065" lon="11.21437"><ele>186.0</ele><time>2026-05-02T10:42:00.011Z</time></trkpt><trkpt lat="43.9068451" lon="11.214174"><ele>188.33333333333331</ele><time>2026-05-02T10:42:01.014Z</time></trkpt><trkpt lat="43.9067864" lon="11.21397"><ele>190.66666666666666</ele><time>2026-05-02T10:42:01.956Z</time></trkpt><trkpt lat="43.9067145" lon="11.2137662"><ele>193.0</ele><time>2026-05-02T10:42:02.956Z</time></trkpt><trkpt lat="43.9066384" lon="11.2135594"><ele>187.66666666666666</ele><time>2026-05-02T10:42:03.998Z</time></trkpt><trkpt lat="43.9065546" lon="11.2133563"><ele>182.33333333333331</ele><time>2026-05-02T10:42:05.037Z</time></trkpt><trkpt lat="43.9064783" lon="11.2131532"><ele>177.0</ele><time>2026-05-02T10:42:06.045Z</time></trkpt><trkpt lat="43.9064058" lon="11.2129782"><ele>177.0</ele><time>2026-05-02T10:42:06.955Z</time></trkpt><trkpt lat="43.9063163" lon="11.2128286"><ele>177.0</ele><time>2026-05-02T10:42:08.033Z</time></trkpt><trkpt lat="43.9062109" lon="11.2126888"><ele>177.0</ele><time>2026-05-02T10:42:09.013Z</time></trkpt><trkpt lat="43.9060893" lon="11.2125711"><ele>177.0</ele><time>2026-05-02T10:42:09.962Z</time></trkpt><trkpt lat="43.9059447" lon="11.2124957"><ele>174.5</ele><time>2026-05-02T10:42:10.964Z</time></trkpt><trkpt lat="43.9057909" lon="11.2124389"><ele>172.0</ele><time>2026-05-02T10:42:11.976Z</time></trkpt><trkpt lat="43.9056445" lon="11.2123944"><ele>169.5</ele><time>2026-05-02T10:42:12.969Z</time></trkpt><trkpt lat="43.905511" lon="11.2123548"><ele>167.0</ele><time>2026-05-02T10:42:14.012Z</time></trkpt><trkpt lat="43.9053893" lon="11.2123007"><ele>167.0</ele><time>2026-05-02T10:42:15.014Z</time></trkpt><trkpt lat="43.9052916" lon="11.2122332"><ele>167.0</ele><time>2026-05-02T10:42:15.973Z</time></trkpt><trkpt lat="43.9052154" lon="11.2121363"><ele>167.0</ele><time>2026-05-02T10:42:16.963Z</time></trkpt><trkpt lat="43.9051763" lon="11.2119838"><ele>167.0</ele><time>2026-05-02T10:42:17.956Z</time></trkpt><trkpt lat="43.9051571" lon="11.2118029"><ele>167.0</ele><time>2026-05-02T10:42:18.954Z</time></trkpt><trkpt lat="43.9051466" lon="11.2115988"><ele>167.0</ele><time>2026-05-02T10:42:19.958Z</time></trkpt><trkpt lat="43.9051389" lon="11.2113816"><ele>167.0</ele><time>2026-05-02T10:42:20.962Z</time></trkpt><trkpt lat="43.9051468" lon="11.2111485"><ele>169.33333333333331</ele><time>2026-05-02T10:42:21.956Z</time></trkpt><trkpt lat="43.905156" lon="11.2109147"><ele>171.66666666666666</ele><time>2026-05-02T10:42:22.988Z</time></trkpt><trkpt lat="43.9051603" lon="11.2106867"><ele>174.0</ele><time>2026-05-02T10:42:23.964Z</time></trkpt><trkpt lat="43.9051678" lon="11.2104683"><ele>173.0</ele><time>2026-05-02T10:42:24.965Z</time></trkpt><trkpt lat="43.9051581" lon="11.2102768"><ele>172.0</ele><time>2026-05-02T10:42:25.962Z</time></trkpt><trkpt lat="43.9051419" lon="11.2101159"><ele>171.0</ele><time>2026-05-02T10:42:26.963Z</time></trkpt><trkpt lat="43.9051016" lon="11.2099864"><ele>170.0</ele><time>2026-05-02T10:42:27.956Z</time></trkpt><trkpt lat="43.9050369" lon="11.2098949"><ele>169.0</ele><time>2026-05-02T10:42:28.967Z</time></trkpt><trkpt lat="43.9049372" lon="11.2098399"><ele>177.0</ele><time>2026-05-02T10:42:29.967Z</time></trkpt><trkpt lat="43.9048258" lon="11.2097933"><ele>185.0</ele><time>2026-05-02T10:42:30.986Z</time></trkpt><trkpt lat="43.9047115" lon="11.2097385"><ele>193.0</ele><time>2026-05-02T10:42:31.958Z</time></trkpt><trkpt lat="43.9045846" lon="11.2096846"><ele>201.0</ele><time>2026-05-02T10:42:32.96Z</time></trkpt><trkpt lat="43.90444" lon="11.2096365"><ele>201.0</ele><time>2026-05-02T10:42:34.033Z</time></trkpt><trkpt lat="43.9042841" lon="11.2095876"><ele>201.0</ele><time>2026-05-02T10:42:34.956Z</time></trkpt><trkpt lat="43.9041202" lon="11.2095292"><ele>201.0</ele><time>2026-05-02T10:42:35.955Z</time></trkpt><trkpt lat="43.9039602" lon="11.2094563"><ele>192.0</ele><time>2026-05-02T10:42:36.955Z</time></trkpt><trkpt lat="43.9038073" lon="11.209393"><ele>183.0</ele><time>2026-05-02T10:42:37.949Z</time></trkpt><trkpt lat="43.9036545" lon="11.2093325"><ele>174.0</ele><time>2026-05-02T10:42:38.956Z</time></trkpt><trkpt lat="43.9035155" lon="11.2092738"><ele>172.0</ele><time>2026-05-02T10:42:39.974Z</time></trkpt><trkpt lat="43.9033928" lon="11.2092069"><ele>170.0</ele><time>2026-05-02T10:42:41.015Z</time></trkpt><trkpt lat="43.9033003" lon="11.2091141"><ele>168.0</ele><time>2026-05-02T10:42:41.959Z</time></trkpt><trkpt lat="43.9032231" lon="11.2090118"><ele>166.0</ele><time>2026-05-02T10:42:42.969Z</time></trkpt><trkpt lat="43.9031695" lon="11.2088487"><ele>166.0</ele><time>2026-05-02T10:42:44Z</time></trkpt><trkpt lat="43.9031265" lon="11.2086733"><ele>166.0</ele><time>2026-05-02T10:42:44.953Z</time></trkpt><trkpt lat="43.9030984" lon="11.2084809"><ele>166.0</ele><time>2026-05-02T10:42:46.039Z</time></trkpt><trkpt lat="43.903059" lon="11.2082897"><ele>166.0</ele><time>2026-05-02T10:42:46.957Z</time></trkpt><trkpt lat="43.9030083" lon="11.2080942"><ele>173.66666666666669</ele><time>2026-05-02T10:42:47.964Z</time></trkpt><trkpt lat="43.9029482" lon="11.2079036"><ele>181.33333333333334</ele><time>2026-05-02T10:42:48.981Z</time></trkpt><trkpt lat="43.9028647" lon="11.207725"><ele>189.0</ele><time>2026-05-02T10:42:50.033Z</time></trkpt><trkpt lat="43.902773" lon="11.2075505"><ele>189.0</ele><time>2026-05-02T10:42:50.958Z</time></trkpt><trkpt lat="43.9026649" lon="11.2073836"><ele>189.0</ele><time>2026-05-02T10:42:51.953Z</time></trkpt><trkpt lat="43.9025434" lon="11.2072367"><ele>189.0</ele><time>2026-05-02T10:42:52.978Z</time></trkpt><trkpt lat="43.9024189" lon="11.207116"><ele>185.75</ele><time>2026-05-02T10:42:54.032Z</time></trkpt><trkpt lat="43.9022986" lon="11.2070148"><ele>182.5</ele><time>2026-05-02T10:42:55.03Z</time></trkpt><trkpt lat="43.9021817" lon="11.2069049"><ele>179.25</ele><time>2026-05-02T10:42:55.944Z</time></trkpt><trkpt lat="43.9020794" lon="11.2067749"><ele>176.0</ele><time>2026-05-02T10:42:56.954Z</time></trkpt><trkpt lat="43.9019909" lon="11.2066233"><ele>172.25</ele><time>2026-05-02T10:42:57.95Z</time></trkpt><trkpt lat="43.9019032" lon="11.206459"><ele>168.5</ele><time>2026-05-02T10:42:59.026Z</time></trkpt><trkpt lat="43.9018134" lon="11.2062959"><ele>164.75</ele><time>2026-05-02T10:43:00.03Z</time></trkpt><trkpt lat="43.9017243" lon="11.2061224"><ele>161.0</ele><time>2026-05-02T10:43:01.027Z</time></trkpt><trkpt lat="43.9016357" lon="11.2059388"><ele>161.0</ele><time>2026-05-02T10:43:01.963Z</time></trkpt><trkpt lat="43.9015499" lon="11.2057442"><ele>161.0</ele><time>2026-05-02T10:43:02.959Z</time></trkpt><trkpt lat="43.9014738" lon="11.2055481"><ele>161.0</ele><time>2026-05-02T10:43:03.968Z</time></trkpt><trkpt lat="43.9013961" lon="11.2053412"><ele>164.66666666666666</ele><time>2026-05-02T10:43:04.977Z</time></trkpt><trkpt lat="43.9013187" lon="11.2051229"><ele>168.33333333333334</ele><time>2026-05-02T10:43:05.941Z</time></trkpt><trkpt lat="43.9012547" lon="11.2048942"><ele>172.0</ele><time>2026-05-02T10:43:06.966Z</time></trkpt><trkpt lat="43.9011866" lon="11.204682"><ele>176.0</ele><time>2026-05-02T10:43:07.965Z</time></trkpt><trkpt lat="43.901114" lon="11.2044627"><ele>180.0</ele><time>2026-05-02T10:43:08.958Z</time></trkpt><trkpt lat="43.9010391" lon="11.2042546"><ele>184.0</ele><time>2026-05-02T10:43:09.96Z</time></trkpt><trkpt lat="43.9009723" lon="11.2040605"><ele>177.0</ele><time>2026-05-02T10:43:10.964Z</time></trkpt><trkpt lat="43.9009108" lon="11.2038653"><ele>170.0</ele><time>2026-05-02T10:43:11.966Z</time></trkpt><trkpt lat="43.9008473" lon="11.2036699"><ele>163.0</ele><time>2026-05-02T10:43:12.963Z</time></trkpt><trkpt lat="43.9007823" lon="11.2034818"><ele>163.0</ele><time>2026-05-02T10:43:13.963Z</time></trkpt><trkpt lat="43.9006988" lon="11.2033091"><ele>163.0</ele><time>2026-05-02T10:43:14.953Z</time></trkpt><trkpt lat="43.9006113" lon="11.2031529"><ele>163.0</ele><time>2026-05-02T10:43:15.961Z</time></trkpt><trkpt lat="43.9005111" lon="11.2029977"><ele>163.0</ele><time>2026-05-02T10:43:16.96Z</time></trkpt><trkpt lat="43.9003803" lon="11.2028702"><ele>166.33333333333334</ele><time>2026-05-02T10:43:17.951Z</time></trkpt><trkpt lat="43.900221" lon="11.2027823"><ele>169.66666666666666</ele><time>2026-05-02T10:43:18.962Z</time></trkpt><trkpt lat="43.9000272" lon="11.202736"><ele>173.0</ele><time>2026-05-02T10:43:19.96Z</time></trkpt><trkpt lat="43.8998148" lon="11.2027137"><ele>173.0</ele><time>2026-05-02T10:43:20.964Z</time></trkpt><trkpt lat="43.8996044" lon="11.2027028"><ele>173.0</ele><time>2026-05-02T10:43:21.952Z</time></trkpt><trkpt lat="43.8993869" lon="11.2026953"><ele>173.0</ele><time>2026-05-02T10:43:22.96Z</time></trkpt><trkpt lat="43.8991669" lon="11.2026853"><ele>167.66666666666666</ele><time>2026-05-02T10:43:23.959Z</time></trkpt><trkpt lat="43.8989415" lon="11.2026716"><ele>162.33333333333334</ele><time>2026-05-02T10:43:24.96Z</time></trkpt><trkpt lat="43.8987254" lon="11.2026525"><ele>157.0</ele><time>2026-05-02T10:43:25.964Z</time></trkpt><trkpt lat="43.8985243" lon="11.2026353"><ele>155.5</ele><time>2026-05-02T10:43:26.961Z</time></trkpt><trkpt lat="43.8983539" lon="11.2026011"><ele>154.0</ele><time>2026-05-02T10:43:27.951Z</time></trkpt><trkpt lat="43.8982142" lon="11.2025734"><ele>152.5</ele><time>2026-05-02T10:43:28.96Z</time></trkpt><trkpt lat="43.8980998" lon="11.202549"><ele>151.0</ele><time>2026-05-02T10:43:29.96Z</time></trkpt><trkpt lat="43.897999" lon="11.2025173"><ele>151.0</ele><time>2026-05-02T10:43:30.958Z</time></trkpt><trkpt lat="43.8978958" lon="11.2024668"><ele>151.0</ele><time>2026-05-02T10:43:31.957Z</time></trkpt><trkpt lat="43.8977929" lon="11.202409"><ele>151.0</ele><time>2026-05-02T10:43:32.952Z</time></trkpt><trkpt lat="43.8976895" lon="11.2023756"><ele>151.0</ele><time>2026-05-02T10:43:33.955Z</time></trkpt><trkpt lat="43.8975906" lon="11.202351"><ele>151.0</ele><time>2026-05-02T10:43:35.011Z</time></trkpt><trkpt lat="43.8974899" lon="11.2023236"><ele>154.6</ele><time>2026-05-02T10:43:36.035Z</time></trkpt><trkpt lat="43.8973953" lon="11.2022722"><ele>158.2</ele><time>2026-05-02T10:43:36.95Z</time></trkpt><trkpt lat="43.8972963" lon="11.2021993"><ele>161.79999999999998</ele><time>2026-05-02T10:43:37.958Z</time></trkpt><trkpt lat="43.8972041" lon="11.202109"><ele>165.39999999999998</ele><time>2026-05-02T10:43:38.984Z</time></trkpt><trkpt lat="43.8971092" lon="11.2020204"><ele>169.0</ele><time>2026-05-02T10:43:40.031Z</time></trkpt><trkpt lat="43.8970145" lon="11.2019282"><ele>169.0</ele><time>2026-05-02T10:43:41.033Z</time></trkpt><trkpt lat="43.8969142" lon="11.2018505"><ele>169.0</ele><time>2026-05-02T10:43:41.963Z</time></trkpt><trkpt lat="43.8968125" lon="11.201787"><ele>169.0</ele><time>2026-05-02T10:43:42.965Z</time></trkpt><trkpt lat="43.8967106" lon="11.2017304"><ele>169.0</ele><time>2026-05-02T10:43:43.991Z</time></trkpt><trkpt lat="43.8966115" lon="11.2016699"><ele>169.0</ele><time>2026-05-02T10:43:45.031Z</time></trkpt><trkpt lat="43.896512" lon="11.2015958"><ele>173.0</ele><time>2026-05-02T10:43:46.035Z</time></trkpt><trkpt lat="43.8964119" lon="11.2015126"><ele>177.0</ele><time>2026-05-02T10:43:46.952Z</time></trkpt><trkpt lat="43.8963082" lon="11.2014223"><ele>181.0</ele><time>2026-05-02T10:43:47.971Z</time></trkpt><trkpt lat="43.8962" lon="11.2013393"><ele>185.0</ele><time>2026-05-02T10:43:48.965Z</time></trkpt><trkpt lat="43.896087" lon="11.2012685"><ele>185.0</ele><time>2026-05-02T10:43:50.038Z</time></trkpt><trkpt lat="43.8959623" lon="11.2012028"><ele>185.0</ele><time>2026-05-02T10:43:51.031Z</time></trkpt><trkpt lat="43.8958411" lon="11.2011585"><ele>185.0</ele><time>2026-05-02T10:43:51.945Z</time></trkpt><trkpt lat="43.8957212" lon="11.2011578"><ele>185.0</ele><time>2026-05-02T10:43:52.959Z</time></trkpt><trkpt lat="43.8956113" lon="11.2011583"><ele>179.6</ele><time>2026-05-02T10:43:53.955Z</time></trkpt><trkpt lat="43.8955155" lon="11.2011471"><ele>174.2</ele><time>2026-05-02T10:43:54.968Z</time></trkpt><trkpt lat="43.8954246" lon="11.201116"><ele>168.8</ele><time>2026-05-02T10:43:56.033Z</time></trkpt><trkpt lat="43.8953417" lon="11.2010499"><ele>163.4</ele><time>2026-05-02T10:43:56.959Z</time></trkpt><trkpt lat="43.8952738" lon="11.200924"><ele>158.0</ele><time>2026-05-02T10:43:57.962Z</time></trkpt><trkpt lat="43.8952094" lon="11.2007865"><ele>161.5</ele><time>2026-05-02T10:43:58.946Z</time></trkpt><trkpt lat="43.8951366" lon="11.2006504"><ele>165.0</ele><time>2026-05-02T10:43:59.957Z</time></trkpt><trkpt lat="43.8950524" lon="11.2005239"><ele>168.5</ele><time>2026-05-02T10:44:00.952Z</time></trkpt><trkpt lat="43.8949513" lon="11.2004219"><ele>172.0</ele><time>2026-05-02T10:44:01.951Z</time></trkpt><trkpt lat="43.8948333" lon="11.2003376"><ele>172.0</ele><time>2026-05-02T10:44:02.953Z</time></trkpt><trkpt lat="43.8946963" lon="11.2002802"><ele>172.0</ele><time>2026-05-02T10:44:03.952Z</time></trkpt><trkpt lat="43.8945454" lon="11.2002365"><ele>172.0</ele><time>2026-05-02T10:44:04.976Z</time></trkpt><trkpt lat="43.8943963" lon="11.2002019"><ele>172.0</ele><time>2026-05-02T10:44:05.98Z</time></trkpt><trkpt lat="43.8942485" lon="11.2001602"><ele>166.0</ele><time>2026-05-02T10:44:06.951Z</time></trkpt><trkpt lat="43.8941002" lon="11.2001203"><ele>160.0</ele><time>2026-05-02T10:44:07.946Z</time></trkpt><trkpt lat="43.8939515" lon="11.2000999"><ele>154.0</ele><time>2026-05-02T10:44:08.96Z</time></trkpt><trkpt lat="43.893804" lon="11.2001114"><ele>148.0</ele><time>2026-05-02T10:44:09.961Z</time></trkpt><trkpt lat="43.8936664" lon="11.200148"><ele>148.0</ele><time>2026-05-02T10:44:10.976Z</time></trkpt><trkpt lat="43.893547" lon="11.2001688"><ele>148.0</ele><time>2026-05-02T10:44:11.947Z</time></trkpt><trkpt lat="43.8934214" lon="11.2001564"><ele>148.0</ele><time>2026-05-02T10:44:12.954Z</time></trkpt><trkpt lat="43.8932859" lon="11.200116"><ele>148.0</ele><time>2026-05-02T10:44:13.95Z</time></trkpt><trkpt lat="43.8931428" lon="11.2000644"><ele>144.66666666666669</ele><time>2026-05-02T10:44:15.03Z</time></trkpt><trkpt lat="43.8930005" lon="11.1999985"><ele>141.33333333333334</ele><time>2026-05-02T10:44:16.034Z</time></trkpt><trkpt lat="43.8928633" lon="11.199898"><ele>138.0</ele><time>2026-05-02T10:44:16.961Z</time></trkpt><trkpt lat="43.8927335" lon="11.1997902"><ele>138.0</ele><time>2026-05-02T10:44:17.967Z</time></trkpt><trkpt lat="43.8926212" lon="11.1996823"><ele>138.0</ele><time>2026-05-02T10:44:18.979Z</time></trkpt><trkpt lat="43.8925049" lon="11.1995916"><ele>138.0</ele><time>2026-05-02T10:44:20.036Z</time></trkpt><trkpt lat="43.8923928" lon="11.1994844"><ele>138.0</ele><time>2026-05-02T10:44:20.962Z</time></trkpt><trkpt lat="43.8922855" lon="11.1993619"><ele>138.0</ele><time>2026-05-02T10:44:21.965Z</time></trkpt><trkpt lat="43.8921773" lon="11.199243"><ele>138.0</ele><time>2026-05-02T10:44:22.963Z</time></trkpt><trkpt lat="43.8920637" lon="11.1991275"><ele>138.0</ele><time>2026-05-02T10:44:24.043Z</time></trkpt><trkpt lat="43.8919612" lon="11.1990092"><ele>138.0</ele><time>2026-05-02T10:44:25.036Z</time></trkpt><trkpt lat="43.8918811" lon="11.1988675"><ele>138.0</ele><time>2026-05-02T10:44:26.048Z</time></trkpt><trkpt lat="43.8917996" lon="11.1987203"><ele>138.0</ele><time>2026-05-02T10:44:26.96Z</time></trkpt><trkpt lat="43.8917268" lon="11.1985744"><ele>138.0</ele><time>2026-05-02T10:44:27.967Z</time></trkpt><trkpt lat="43.8916489" lon="11.1984273"><ele>138.0</ele><time>2026-05-02T10:44:28.993Z</time></trkpt><trkpt lat="43.891565" lon="11.1982736"><ele>140.5</ele><time>2026-05-02T10:44:29.963Z</time></trkpt><trkpt lat="43.8914752" lon="11.1981185"><ele>143.0</ele><time>2026-05-02T10:44:31.037Z</time></trkpt><trkpt lat="43.8913749" lon="11.1979664"><ele>145.5</ele><time>2026-05-02T10:44:31.967Z</time></trkpt><trkpt lat="43.8912682" lon="11.1978415"><ele>148.0</ele><time>2026-05-02T10:44:32.973Z</time></trkpt><trkpt lat="43.8911385" lon="11.1977498"><ele>148.0</ele><time>2026-05-02T10:44:33.971Z</time></trkpt><trkpt lat="43.8910042" lon="11.1976962"><ele>148.0</ele><time>2026-05-02T10:44:35.036Z</time></trkpt><trkpt lat="43.8908735" lon="11.1976586"><ele>148.0</ele><time>2026-05-02T10:44:36.03Z</time></trkpt><trkpt lat="43.8907515" lon="11.1976253"><ele>148.0</ele><time>2026-05-02T10:44:36.963Z</time></trkpt><trkpt lat="43.8906358" lon="11.1975858"><ele>147.5</ele><time>2026-05-02T10:44:37.944Z</time></trkpt><trkpt lat="43.8905331" lon="11.1975245"><ele>147.0</ele><time>2026-05-02T10:44:38.968Z</time></trkpt><trkpt lat="43.8904468" lon="11.1974083"><ele>146.5</ele><time>2026-05-02T10:44:39.964Z</time></trkpt><trkpt lat="43.8903817" lon="11.1972374"><ele>146.0</ele><time>2026-05-02T10:44:40.966Z</time></trkpt><trkpt lat="43.8903313" lon="11.1970586"><ele>146.0</ele><time>2026-05-02T10:44:41.957Z</time></trkpt><trkpt lat="43.8902851" lon="11.1968492"><ele>146.0</ele><time>2026-05-02T10:44:42.961Z</time></trkpt><trkpt lat="43.8902458" lon="11.1966312"><ele>146.0</ele><time>2026-05-02T10:44:43.986Z</time></trkpt><trkpt lat="43.8902053" lon="11.1963984"><ele>152.0</ele><time>2026-05-02T10:44:44.961Z</time></trkpt><trkpt lat="43.8901581" lon="11.1961776"><ele>158.0</ele><time>2026-05-02T10:44:45.977Z</time></trkpt><trkpt lat="43.8901033" lon="11.1959763"><ele>164.0</ele><time>2026-05-02T10:44:46.966Z</time></trkpt><trkpt lat="43.8900208" lon="11.1957988"><ele>154.33333333333331</ele><time>2026-05-02T10:44:47.97Z</time></trkpt><trkpt lat="43.8899246" lon="11.1956241"><ele>144.66666666666666</ele><time>2026-05-02T10:44:48.961Z</time></trkpt><trkpt lat="43.8898181" lon="11.1954546"><ele>135.0</ele><time>2026-05-02T10:44:49.96Z</time></trkpt><trkpt lat="43.8897104" lon="11.1952869"><ele>135.0</ele><time>2026-05-02T10:44:50.96Z</time></trkpt><trkpt lat="43.8895932" lon="11.1951128"><ele>135.0</ele><time>2026-05-02T10:44:51.966Z</time></trkpt><trkpt lat="43.8894754" lon="11.1949503"><ele>135.0</ele><time>2026-05-02T10:44:53.035Z</time></trkpt><trkpt lat="43.8893661" lon="11.1947825"><ele>131.33333333333334</ele><time>2026-05-02T10:44:54.033Z</time></trkpt><trkpt lat="43.8892602" lon="11.1946149"><ele>127.66666666666667</ele><time>2026-05-02T10:44:55.023Z</time></trkpt><trkpt lat="43.88917" lon="11.1944284"><ele>124.0</ele><time>2026-05-02T10:44:55.97Z</time></trkpt><trkpt lat="43.8890867" lon="11.1942475"><ele>124.0</ele><time>2026-05-02T10:44:56.971Z</time></trkpt><trkpt lat="43.8890087" lon="11.1940551"><ele>124.0</ele><time>2026-05-02T10:44:57.974Z</time></trkpt><trkpt lat="43.8889258" lon="11.1938598"><ele>124.0</ele><time>2026-05-02T10:44:58.968Z</time></trkpt><trkpt lat="43.8888397" lon="11.193661"><ele>128.33333333333334</ele><time>2026-05-02T10:44:59.968Z</time></trkpt><trkpt lat="43.8887379" lon="11.1934727"><ele>132.66666666666666</ele><time>2026-05-02T10:45:01.033Z</time></trkpt><trkpt lat="43.8886337" lon="11.1932894"><ele>137.0</ele><time>2026-05-02T10:45:01.963Z</time></trkpt><trkpt lat="43.8885295" lon="11.1930946"><ele>137.0</ele><time>2026-05-02T10:45:03.031Z</time></trkpt><trkpt lat="43.8884265" lon="11.1929058"><ele>137.0</ele><time>2026-05-02T10:45:04.03Z</time></trkpt><trkpt lat="43.8883278" lon="11.1927122"><ele>137.0</ele><time>2026-05-02T10:45:05.029Z</time></trkpt><trkpt lat="43.8882337" lon="11.1925237"><ele>131.5</ele><time>2026-05-02T10:45:06.032Z</time></trkpt><trkpt lat="43.8881465" lon="11.1923551"><ele>126.0</ele><time>2026-05-02T10:45:06.955Z</time></trkpt><trkpt lat="43.8880625" lon="11.1921945"><ele>120.5</ele><time>2026-05-02T10:45:07.966Z</time></trkpt><trkpt lat="43.8879899" lon="11.1920453"><ele>115.0</ele><time>2026-05-02T10:45:08.95Z</time></trkpt><trkpt lat="43.8879201" lon="11.1919235"><ele>114.83333333333334</ele><time>2026-05-02T10:45:10.016Z</time></trkpt><trkpt lat="43.8878657" lon="11.1918164"><ele>114.66666666666667</ele><time>2026-05-02T10:45:10.951Z</time></trkpt><trkpt lat="43.8878209" lon="11.1917377"><ele>114.5</ele><time>2026-05-02T10:45:11.951Z</time></trkpt><trkpt lat="43.8877678" lon="11.1916516"><ele>114.33333333333334</ele><time>2026-05-02T10:45:14.051Z</time></trkpt><trkpt lat="43.8876843" lon="11.1916312"><ele>114.16666666666667</ele><time>2026-05-02T10:45:15.974Z</time></trkpt><trkpt lat="43.8875849" lon="11.1917123"><ele>114.0</ele><time>2026-05-02T10:45:17.973Z</time></trkpt><trkpt lat="43.8875353" lon="11.19184"><ele>113.33333333333333</ele><time>2026-05-02T10:45:19.961Z</time></trkpt><trkpt lat="43.887531" lon="11.1920096"><ele>112.66666666666666</ele><time>2026-05-02T10:45:21.966Z</time></trkpt><trkpt lat="43.8875132" lon="11.1921059"><ele>112.0</ele><time>2026-05-02T10:45:22.947Z</time></trkpt><trkpt lat="43.8874723" lon="11.1921955"><ele>111.33333333333333</ele><time>2026-05-02T10:45:24.004Z</time></trkpt><trkpt lat="43.887425" lon="11.1922888"><ele>110.66666666666666</ele><time>2026-05-02T10:45:24.996Z</time></trkpt><trkpt lat="43.8873666" lon="11.1923745"><ele>110.0</ele><time>2026-05-02T10:45:25.961Z</time></trkpt><trkpt lat="43.8873066" lon="11.1924566"><ele>109.99999999999999</ele><time>2026-05-02T10:45:26.96Z</time></trkpt><trkpt lat="43.8872594" lon="11.1925366"><ele>110.0</ele><time>2026-05-02T10:45:27.959Z</time></trkpt><trkpt lat="43.8872283" lon="11.192613"><ele>110.0</ele><time>2026-05-02T10:45:28.969Z</time></trkpt><trkpt lat="43.8872035" lon="11.1927022"><ele>110.0</ele><time>2026-05-02T10:45:30.948Z</time></trkpt><trkpt lat="43.8872342" lon="11.1927874"><ele>109.99999999999999</ele><time>2026-05-02T10:45:32.967Z</time></trkpt><trkpt lat="43.8872708" lon="11.1928982"><ele>110.0</ele><time>2026-05-02T10:45:34.955Z</time></trkpt><trkpt lat="43.8873105" lon="11.1930048"><ele>109.99999999999999</ele><time>2026-05-02T10:45:36.955Z</time></trkpt><trkpt lat="43.88735" lon="11.1931185"><ele>110.0</ele><time>2026-05-02T10:45:38.955Z</time></trkpt><trkpt lat="43.8874168" lon="11.1931451"><ele>110.0</ele><time>2026-05-02T10:46:25.971Z</time></trkpt><trkpt lat="43.8874826" lon="11.1931691"><ele>110.0</ele><time>2026-05-02T10:54:48.956Z</time></trkpt><trkpt lat="43.8875589" lon="11.1932431"><ele>109.99999999999999</ele><time>2026-05-02T10:54:51.965Z</time></trkpt><trkpt lat="43.8876057" lon="11.1933781"><ele>110.0</ele><time>2026-05-02T10:54:53.95Z</time></trkpt><trkpt lat="43.8876416" lon="11.1934674"><ele>110.4</ele><time>2026-05-02T10:54:54.963Z</time></trkpt><trkpt lat="43.8876732" lon="11.1935677"><ele>110.8</ele><time>2026-05-02T10:54:55.965Z</time></trkpt><trkpt lat="43.8877113" lon="11.1936802"><ele>111.19999999999999</ele><time>2026-05-02T10:54:56.968Z</time></trkpt><trkpt lat="43.8877533" lon="11.193802"><ele>111.6</ele><time>2026-05-02T10:54:57.965Z</time></trkpt><trkpt lat="43.8878052" lon="11.1939207"><ele>112.0</ele><time>2026-05-02T10:54:58.969Z</time></trkpt><trkpt lat="43.887855" lon="11.1940437"><ele>112.39999999999999</ele><time>2026-05-02T10:54:59.973Z</time></trkpt><trkpt lat="43.8879087" lon="11.1941653"><ele>112.79999999999998</ele><time>2026-05-02T10:55:00.945Z</time></trkpt><trkpt lat="43.8879632" lon="11.1942877"><ele>113.2</ele><time>2026-05-02T10:55:01.947Z</time></trkpt><trkpt lat="43.8880152" lon="11.1944176"><ele>113.6</ele><time>2026-05-02T10:55:03.037Z</time></trkpt><trkpt lat="43.8880615" lon="11.1945374"><ele>114.0</ele><time>2026-05-02T10:55:03.952Z</time></trkpt><trkpt lat="43.8881035" lon="11.1946602"><ele>114.0</ele><time>2026-05-02T10:55:04.971Z</time></trkpt><trkpt lat="43.8881343" lon="11.1947786"><ele>114.0</ele><time>2026-05-02T10:55:05.955Z</time></trkpt><trkpt lat="43.8881675" lon="11.194889"><ele>114.0</ele><time>2026-05-02T10:55:06.962Z</time></trkpt><trkpt lat="43.8882161" lon="11.1949644"><ele>114.0</ele><time>2026-05-02T10:55:07.962Z</time></trkpt><trkpt lat="43.8882821" lon="11.1950018"><ele>114.0</ele><time>2026-05-02T10:55:08.964Z</time></trkpt><trkpt lat="43.8883546" lon="11.1950418"><ele>114.0</ele><time>2026-05-02T10:55:09.967Z</time></trkpt><trkpt lat="43.8884153" lon="11.1950817"><ele>114.16666666666667</ele><time>2026-05-02T10:55:10.961Z</time></trkpt><trkpt lat="43.8884677" lon="11.1951337"><ele>114.33333333333334</ele><time>2026-05-02T10:55:12.064Z</time></trkpt><trkpt lat="43.8885091" lon="11.1952"><ele>114.5</ele><time>2026-05-02T10:55:13.031Z</time></trkpt><trkpt lat="43.8885639" lon="11.1953147"><ele>114.66666666666667</ele><time>2026-05-02T10:55:14.953Z</time></trkpt><trkpt lat="43.8886168" lon="11.1954567"><ele>114.83333333333334</ele><time>2026-05-02T10:55:16.965Z</time></trkpt><trkpt lat="43.8886634" lon="11.1955181"><ele>115.0</ele><time>2026-05-02T10:55:17.962Z</time></trkpt><trkpt lat="43.8887163" lon="11.1955816"><ele>114.99999999999999</ele><time>2026-05-02T10:55:18.952Z</time></trkpt><trkpt lat="43.8887698" lon="11.1956458"><ele>115.0</ele><time>2026-05-02T10:55:19.962Z</time></trkpt><trkpt lat="43.8888075" lon="11.1957247"><ele>114.99999999999999</ele><time>2026-05-02T10:55:20.96Z</time></trkpt><trkpt lat="43.8888224" lon="11.1958269"><ele>114.99999999999999</ele><time>2026-05-02T10:55:21.971Z</time></trkpt><trkpt lat="43.8888189" lon="11.1959236"><ele>115.0</ele><time>2026-05-02T10:55:22.993Z</time></trkpt><trkpt lat="43.8888023" lon="11.1960249"><ele>114.99999999999999</ele><time>2026-05-02T10:55:23.965Z</time></trkpt><trkpt lat="43.888787" lon="11.1961249"><ele>114.99999999999999</ele><time>2026-05-02T10:55:24.966Z</time></trkpt><trkpt lat="43.888751" lon="11.1962279"><ele>115.4</ele><time>2026-05-02T10:55:25.962Z</time></trkpt><trkpt lat="43.8887282" lon="11.1963297"><ele>115.8</ele><time>2026-05-02T10:55:26.977Z</time></trkpt><trkpt lat="43.8887508" lon="11.196481"><ele>116.19999999999999</ele><time>2026-05-02T10:55:28.971Z</time></trkpt><trkpt lat="43.8888299" lon="11.1965631"><ele>116.6</ele><time>2026-05-02T10:55:30.969Z</time></trkpt><trkpt lat="43.8889263" lon="11.1966949"><ele>117.0</ele><time>2026-05-02T10:55:32.963Z</time></trkpt><trkpt lat="43.8889773" lon="11.1967744"><ele>118.16666666666667</ele><time>2026-05-02T10:55:33.97Z</time></trkpt><trkpt lat="43.8890259" lon="11.1968562"><ele>119.33333333333334</ele><time>2026-05-02T10:55:34.968Z</time></trkpt><trkpt lat="43.8890738" lon="11.196943"><ele>120.5</ele><time>2026-05-02T10:55:36.036Z</time></trkpt><trkpt lat="43.8891346" lon="11.1970238"><ele>121.66666666666667</ele><time>2026-05-02T10:55:36.964Z</time></trkpt><trkpt lat="43.8891928" lon="11.1971092"><ele>122.83333333333334</ele><time>2026-05-02T10:55:37.965Z</time></trkpt><trkpt lat="43.8892385" lon="11.1971996"><ele>124.0</ele><time>2026-05-02T10:55:38.952Z</time></trkpt><trkpt lat="43.8892717" lon="11.1972979"><ele>124.33333333333334</ele><time>2026-05-02T10:55:39.959Z</time></trkpt><trkpt lat="43.8892923" lon="11.1974052"><ele>124.66666666666667</ele><time>2026-05-02T10:55:40.954Z</time></trkpt><trkpt lat="43.8892977" lon="11.197507"><ele>125.0</ele><time>2026-05-02T10:55:41.965Z</time></trkpt><trkpt lat="43.8893034" lon="11.1976039"><ele>125.33333333333334</ele><time>2026-05-02T10:55:42.965Z</time></trkpt><trkpt lat="43.8893266" lon="11.197689"><ele>125.66666666666667</ele><time>2026-05-02T10:55:43.959Z</time></trkpt><trkpt lat="43.8893817" lon="11.1977951"><ele>126.0</ele><time>2026-05-02T10:55:44.959Z</time></trkpt><trkpt lat="43.8894421" lon="11.1979154"><ele>126.0</ele><time>2026-05-02T10:55:45.963Z</time></trkpt><trkpt lat="43.8895132" lon="11.1980391"><ele>126.0</ele><time>2026-05-02T10:55:46.959Z</time></trkpt><trkpt lat="43.8895801" lon="11.1981535"><ele>126.0</ele><time>2026-05-02T10:55:47.969Z</time></trkpt><trkpt lat="43.8896562" lon="11.1982653"><ele>126.0</ele><time>2026-05-02T10:55:48.971Z</time></trkpt><trkpt lat="43.8897263" lon="11.1983702"><ele>126.0</ele><time>2026-05-02T10:55:49.967Z</time></trkpt><trkpt lat="43.8897878" lon="11.1984779"><ele>128.4</ele><time>2026-05-02T10:55:50.968Z</time></trkpt><trkpt lat="43.8898374" lon="11.1985972"><ele>130.8</ele><time>2026-05-02T10:55:51.963Z</time></trkpt><trkpt lat="43.8898928" lon="11.198717"><ele>133.20000000000002</ele><time>2026-05-02T10:55:52.965Z</time></trkpt><trkpt lat="43.8899359" lon="11.1988253"><ele>135.6</ele><time>2026-05-02T10:55:53.967Z</time></trkpt><trkpt lat="43.8899834" lon="11.1989164"><ele>138.0</ele><time>2026-05-02T10:55:54.963Z</time></trkpt><trkpt lat="43.8900337" lon="11.1990004"><ele>139.5</ele><time>2026-05-02T10:55:55.956Z</time></trkpt><trkpt lat="43.8900906" lon="11.1990784"><ele>141.0</ele><time>2026-05-02T10:55:56.967Z</time></trkpt><trkpt lat="43.8901758" lon="11.1991281"><ele>142.5</ele><time>2026-05-02T10:55:57.963Z</time></trkpt><trkpt lat="43.8902624" lon="11.1991738"><ele>144.0</ele><time>2026-05-02T10:55:58.967Z</time></trkpt><trkpt lat="43.890352" lon="11.1992174"><ele>145.5</ele><time>2026-05-02T10:55:59.976Z</time></trkpt><trkpt lat="43.8904314" lon="11.1992705"><ele>147.0</ele><time>2026-05-02T10:56:00.969Z</time></trkpt><trkpt lat="43.8905112" lon="11.1993216"><ele>147.0</ele><time>2026-05-02T10:56:01.953Z</time></trkpt><trkpt lat="43.8905857" lon="11.1993799"><ele>147.0</ele><time>2026-05-02T10:56:02.961Z</time></trkpt><trkpt lat="43.8906719" lon="11.1994459"><ele>147.0</ele><time>2026-05-02T10:56:03.969Z</time></trkpt><trkpt lat="43.8907616" lon="11.1995129"><ele>147.0</ele><time>2026-05-02T10:56:04.956Z</time></trkpt><trkpt lat="43.8908454" lon="11.1996007"><ele>147.0</ele><time>2026-05-02T10:56:05.965Z</time></trkpt><trkpt lat="43.890924" lon="11.1997062"><ele>148.0</ele><time>2026-05-02T10:56:06.952Z</time></trkpt><trkpt lat="43.8910078" lon="11.1997942"><ele>149.0</ele><time>2026-05-02T10:56:07.964Z</time></trkpt><trkpt lat="43.8910935" lon="11.1998713"><ele>150.0</ele><time>2026-05-02T10:56:08.973Z</time></trkpt><trkpt lat="43.8911899" lon="11.1999377"><ele>151.0</ele><time>2026-05-02T10:56:09.968Z</time></trkpt><trkpt lat="43.8912822" lon="11.1999968"><ele>152.0</ele><time>2026-05-02T10:56:10.966Z</time></trkpt><trkpt lat="43.8913763" lon="11.2000666"><ele>152.0</ele><time>2026-05-02T10:56:11.948Z</time></trkpt><trkpt lat="43.8914667" lon="11.2001553"><ele>152.0</ele><time>2026-05-02T10:56:13.032Z</time></trkpt><trkpt lat="43.8915279" lon="11.2002723"><ele>152.0</ele><time>2026-05-02T10:56:14.03Z</time></trkpt><trkpt lat="43.8915734" lon="11.2003827"><ele>152.0</ele><time>2026-05-02T10:56:14.946Z</time></trkpt><trkpt lat="43.8916234" lon="11.200495"><ele>152.0</ele><time>2026-05-02T10:56:15.958Z</time></trkpt><trkpt lat="43.8916695" lon="11.2006087"><ele>151.0</ele><time>2026-05-02T10:56:16.996Z</time></trkpt><trkpt lat="43.8917012" lon="11.2007294"><ele>150.0</ele><time>2026-05-02T10:56:17.965Z</time></trkpt><trkpt lat="43.8917313" lon="11.2008457"><ele>149.0</ele><time>2026-05-02T10:56:18.97Z</time></trkpt><trkpt lat="43.8917572" lon="11.2009618"><ele>148.0</ele><time>2026-05-02T10:56:19.966Z</time></trkpt><trkpt lat="43.8917737" lon="11.2010832"><ele>147.0</ele><time>2026-05-02T10:56:20.954Z</time></trkpt><trkpt lat="43.8917878" lon="11.2012018"><ele>146.0</ele><time>2026-05-02T10:56:21.961Z</time></trkpt><trkpt lat="43.891786" lon="11.2013226"><ele>146.0</ele><time>2026-05-02T10:56:22.957Z</time></trkpt><trkpt lat="43.8917788" lon="11.201439"><ele>146.0</ele><time>2026-05-02T10:56:23.954Z</time></trkpt><trkpt lat="43.8917666" lon="11.2015532"><ele>146.0</ele><time>2026-05-02T10:56:24.949Z</time></trkpt><trkpt lat="43.8917495" lon="11.2016512"><ele>146.0</ele><time>2026-05-02T10:56:25.967Z</time></trkpt><trkpt lat="43.8917219" lon="11.2017474"><ele>146.0</ele><time>2026-05-02T10:56:26.962Z</time></trkpt><trkpt lat="43.8917011" lon="11.2018538"><ele>146.0</ele><time>2026-05-02T10:56:27.966Z</time></trkpt><trkpt lat="43.8916732" lon="11.2019718"><ele>153.83333333333331</ele><time>2026-05-02T10:56:28.965Z</time></trkpt><trkpt lat="43.8916448" lon="11.2020847"><ele>161.66666666666666</ele><time>2026-05-02T10:56:29.949Z</time></trkpt><trkpt lat="43.8916047" lon="11.2021899"><ele>169.5</ele><time>2026-05-02T10:56:30.958Z</time></trkpt><trkpt lat="43.891571" lon="11.2022961"><ele>177.33333333333331</ele><time>2026-05-02T10:56:31.968Z</time></trkpt><trkpt lat="43.8915322" lon="11.2024057"><ele>185.16666666666666</ele><time>2026-05-02T10:56:32.953Z</time></trkpt><trkpt lat="43.8914906" lon="11.2025298"><ele>193.0</ele><time>2026-05-02T10:56:33.96Z</time></trkpt><trkpt lat="43.8914534" lon="11.2026551"><ele>194.2</ele><time>2026-05-02T10:56:34.962Z</time></trkpt><trkpt lat="43.8914336" lon="11.2027799"><ele>195.4</ele><time>2026-05-02T10:56:35.965Z</time></trkpt><trkpt lat="43.8914249" lon="11.2029167"><ele>196.6</ele><time>2026-05-02T10:56:36.962Z</time></trkpt><trkpt lat="43.8914152" lon="11.2030524"><ele>197.79999999999998</ele><time>2026-05-02T10:56:37.961Z</time></trkpt><trkpt lat="43.8914049" lon="11.2031847"><ele>199.0</ele><time>2026-05-02T10:56:38.961Z</time></trkpt><trkpt lat="43.8913864" lon="11.2033079"><ele>199.99999999999997</ele><time>2026-05-02T10:56:39.947Z</time></trkpt><trkpt lat="43.8913675" lon="11.2034343"><ele>201.0</ele><time>2026-05-02T10:56:40.952Z</time></trkpt><trkpt lat="43.8913458" lon="11.2035571"><ele>202.0</ele><time>2026-05-02T10:56:41.96Z</time></trkpt><trkpt lat="43.8913271" lon="11.2036779"><ele>203.0</ele><time>2026-05-02T10:56:42.964Z</time></trkpt><trkpt lat="43.8913106" lon="11.2037912"><ele>203.99999999999997</ele><time>2026-05-02T10:56:43.964Z</time></trkpt><trkpt lat="43.8912988" lon="11.2039175"><ele>205.0</ele><time>2026-05-02T10:56:44.972Z</time></trkpt><trkpt lat="43.8912935" lon="11.2040418"><ele>205.66666666666666</ele><time>2026-05-02T10:56:45.968Z</time></trkpt><trkpt lat="43.8912913" lon="11.2041502"><ele>206.33333333333331</ele><time>2026-05-02T10:56:46.957Z</time></trkpt><trkpt lat="43.8912855" lon="11.2042487"><ele>207.0</ele><time>2026-05-02T10:56:47.967Z</time></trkpt><trkpt lat="43.8912428" lon="11.204408"><ele>207.66666666666669</ele><time>2026-05-02T10:56:49.959Z</time></trkpt><trkpt lat="43.8911964" lon="11.2044914"><ele>208.33333333333334</ele><time>2026-05-02T10:56:50.962Z</time></trkpt><trkpt lat="43.8911475" lon="11.2045806"><ele>209.0</ele><time>2026-05-02T10:56:51.962Z</time></trkpt><trkpt lat="43.8910941" lon="11.2046826"><ele>209.0</ele><time>2026-05-02T10:56:52.959Z</time></trkpt><trkpt lat="43.8910393" lon="11.2047938"><ele>209.0</ele><time>2026-05-02T10:56:53.967Z</time></trkpt><trkpt lat="43.890986" lon="11.204907"><ele>209.0</ele><time>2026-05-02T10:56:54.97Z</time></trkpt><trkpt lat="43.8909343" lon="11.205001"><ele>209.0</ele><time>2026-05-02T10:56:55.963Z</time></trkpt><trkpt lat="43.8908757" lon="11.2050882"><ele>209.0</ele><time>2026-05-02T10:56:56.954Z</time></trkpt><trkpt lat="43.8908125" lon="11.2051748"><ele>216.79999999999998</ele><time>2026-05-02T10:56:57.966Z</time></trkpt><trkpt lat="43.8907382" lon="11.2052689"><ele>224.6</ele><time>2026-05-02T10:56:58.959Z</time></trkpt><trkpt lat="43.8906623" lon="11.2053346"><ele>232.4</ele><time>2026-05-02T10:56:59.964Z</time></trkpt><trkpt lat="43.8905767" lon="11.205391"><ele>240.2</ele><time>2026-05-02T10:57:01.014Z</time></trkpt><trkpt lat="43.8904875" lon="11.2054334"><ele>248.0</ele><time>2026-05-02T10:57:02.013Z</time></trkpt><trkpt lat="43.8903927" lon="11.2054734"><ele>248.0</ele><time>2026-05-02T10:57:03.021Z</time></trkpt><trkpt lat="43.8902998" lon="11.2055097"><ele>248.0</ele><time>2026-05-02T10:57:04.012Z</time></trkpt><trkpt lat="43.8902106" lon="11.2055312"><ele>248.0</ele><time>2026-05-02T10:57:04.953Z</time></trkpt><trkpt lat="43.890122" lon="11.205556"><ele>248.0</ele><time>2026-05-02T10:57:05.956Z</time></trkpt><trkpt lat="43.8900358" lon="11.2055816"><ele>248.0</ele><time>2026-05-02T10:57:06.976Z</time></trkpt><trkpt lat="43.8899468" lon="11.2056158"><ele>250.83333333333334</ele><time>2026-05-02T10:57:07.957Z</time></trkpt><trkpt lat="43.8898728" lon="11.205658"><ele>253.66666666666669</ele><time>2026-05-02T10:57:08.961Z</time></trkpt><trkpt lat="43.8897969" lon="11.2057003"><ele>256.5</ele><time>2026-05-02T10:57:09.956Z</time></trkpt><trkpt lat="43.8897319" lon="11.205741"><ele>259.3333333333333</ele><time>2026-05-02T10:57:10.952Z</time></trkpt><trkpt lat="43.8896659" lon="11.2058"><ele>262.16666666666663</ele><time>2026-05-02T10:57:11.946Z</time></trkpt><trkpt lat="43.8896044" lon="11.2058985"><ele>265.0</ele><time>2026-05-02T10:57:13.02Z</time></trkpt><trkpt lat="43.8895525" lon="11.2060227"><ele>265.0</ele><time>2026-05-02T10:57:14.023Z</time></trkpt><trkpt lat="43.8895028" lon="11.2061423"><ele>265.0</ele><time>2026-05-02T10:57:14.963Z</time></trkpt><trkpt lat="43.8894538" lon="11.2062423"><ele>265.0</ele><time>2026-05-02T10:57:15.958Z</time></trkpt><trkpt lat="43.8894074" lon="11.2063325"><ele>265.0</ele><time>2026-05-02T10:57:16.964Z</time></trkpt><trkpt lat="43.8893749" lon="11.2064152"><ele>265.0</ele><time>2026-05-02T10:57:17.945Z</time></trkpt><trkpt lat="43.8893593" lon="11.2065643"><ele>265.0</ele><time>2026-05-02T10:57:19.959Z</time></trkpt><trkpt lat="43.8893807" lon="11.2066478"><ele>263.3333333333333</ele><time>2026-05-02T10:57:20.959Z</time></trkpt><trkpt lat="43.8893952" lon="11.2067495"><ele>261.66666666666663</ele><time>2026-05-02T10:57:22.035Z</time></trkpt><trkpt lat="43.8894053" lon="11.2068488"><ele>260.0</ele><time>2026-05-02T10:57:23.038Z</time></trkpt><trkpt lat="43.8894143" lon="11.20695"><ele>258.3333333333333</ele><time>2026-05-02T10:57:24.036Z</time></trkpt><trkpt lat="43.8894261" lon="11.2070536"><ele>256.6666666666667</ele><time>2026-05-02T10:57:24.964Z</time></trkpt><trkpt lat="43.8894385" lon="11.2071734"><ele>255.0</ele><time>2026-05-02T10:57:25.962Z</time></trkpt><trkpt lat="43.8894451" lon="11.2072906"><ele>256.8333333333333</ele><time>2026-05-02T10:57:26.959Z</time></trkpt><trkpt lat="43.8894491" lon="11.2074136"><ele>258.6666666666667</ele><time>2026-05-02T10:57:27.959Z</time></trkpt><trkpt lat="43.8894509" lon="11.2075192"><ele>260.5</ele><time>2026-05-02T10:57:28.956Z</time></trkpt><trkpt lat="43.8894518" lon="11.2076097"><ele>262.33333333333337</ele><time>2026-05-02T10:57:29.962Z</time></trkpt><trkpt lat="43.889436" lon="11.2077398"><ele>264.1666666666667</ele><time>2026-05-02T10:57:31.996Z</time></trkpt><trkpt lat="43.8893627" lon="11.2078169"><ele>266.0</ele><time>2026-05-02T10:57:34.99Z</time></trkpt><trkpt lat="43.8892993" lon="11.207768"><ele>270.6</ele><time>2026-05-02T10:57:36.96Z</time></trkpt><trkpt lat="43.8892142" lon="11.2076883"><ele>275.20000000000005</ele><time>2026-05-02T10:57:39.034Z</time></trkpt><trkpt lat="43.8890968" lon="11.2076312"><ele>279.79999999999995</ele><time>2026-05-02T10:57:40.957Z</time></trkpt><trkpt lat="43.8890132" lon="11.207601"><ele>284.4</ele><time>2026-05-02T10:57:42.004Z</time></trkpt><trkpt lat="43.8889235" lon="11.2075755"><ele>289.0</ele><time>2026-05-02T10:57:43.019Z</time></trkpt><trkpt lat="43.8888288" lon="11.207527"><ele>289.0</ele><time>2026-05-02T10:57:44.037Z</time></trkpt><trkpt lat="43.888723" lon="11.2074629"><ele>289.0</ele><time>2026-05-02T10:57:44.966Z</time></trkpt><trkpt lat="43.8886078" lon="11.207398"><ele>289.0</ele><time>2026-05-02T10:57:45.978Z</time></trkpt><trkpt lat="43.8884978" lon="11.2073539"><ele>289.0</ele><time>2026-05-02T10:57:46.969Z</time></trkpt><trkpt lat="43.8884069" lon="11.2073091"><ele>290.2</ele><time>2026-05-02T10:57:48.019Z</time></trkpt><trkpt lat="43.8883249" lon="11.2072807"><ele>291.4</ele><time>2026-05-02T10:57:49.021Z</time></trkpt><trkpt lat="43.8882386" lon="11.2072646"><ele>292.6</ele><time>2026-05-02T10:57:49.967Z</time></trkpt><trkpt lat="43.88816" lon="11.2072572"><ele>293.8</ele><time>2026-05-02T10:57:50.964Z</time></trkpt><trkpt lat="43.88804" lon="11.2072788"><ele>295.0</ele><time>2026-05-02T10:57:52.944Z</time></trkpt><trkpt lat="43.8879245" lon="11.2072292"><ele>295.0</ele><time>2026-05-02T10:57:54.966Z</time></trkpt><trkpt lat="43.8878049" lon="11.207158"><ele>295.0</ele><time>2026-05-02T10:57:56.966Z</time></trkpt><trkpt lat="43.8876859" lon="11.2070907"><ele>295.0</ele><time>2026-05-02T10:57:58.962Z</time></trkpt><trkpt lat="43.8876241" lon="11.2070564"><ele>295.0</ele><time>2026-05-02T10:57:59.967Z</time></trkpt><trkpt lat="43.8875184" lon="11.207036"><ele>295.0</ele><time>2026-05-02T10:58:01.971Z</time></trkpt><trkpt lat="43.8874253" lon="11.2070246"><ele>297.4</ele><time>2026-05-02T10:58:03.965Z</time></trkpt><trkpt lat="43.8873399" lon="11.2069969"><ele>299.8</ele><time>2026-05-02T10:58:05.956Z</time></trkpt><trkpt lat="43.8872537" lon="11.2069714"><ele>302.2</ele><time>2026-05-02T10:58:07.959Z</time></trkpt><trkpt lat="43.8871452" lon="11.2069278"><ele>304.6</ele><time>2026-05-02T10:58:09.956Z</time></trkpt><trkpt lat="43.8870269" lon="11.2069084"><ele>307.0</ele><time>2026-05-02T10:58:11.979Z</time></trkpt><trkpt lat="43.8869085" lon="11.2068824"><ele>307.0</ele><time>2026-05-02T10:58:13.972Z</time></trkpt><trkpt lat="43.8867914" lon="11.206843"><ele>307.0</ele><time>2026-05-02T10:58:15.969Z</time></trkpt><trkpt lat="43.8867297" lon="11.2068239"><ele>307.0</ele><time>2026-05-02T10:58:16.967Z</time></trkpt><trkpt lat="43.8866029" lon="11.206806"><ele>307.0</ele><time>2026-05-02T10:58:18.978Z</time></trkpt><trkpt lat="43.8865293" lon="11.2068031"><ele>307.0</ele><time>2026-05-02T10:58:19.974Z</time></trkpt><trkpt lat="43.8864635" lon="11.2068034"><ele>306.3333333333333</ele><time>2026-05-02T10:58:20.969Z</time></trkpt><trkpt lat="43.8864" lon="11.2068014"><ele>305.66666666666663</ele><time>2026-05-02T10:58:21.973Z</time></trkpt><trkpt lat="43.8863359" lon="11.206802"><ele>305.0</ele><time>2026-05-02T10:58:22.967Z</time></trkpt><trkpt lat="43.8862714" lon="11.2068102"><ele>304.3333333333333</ele><time>2026-05-02T10:58:23.97Z</time></trkpt><trkpt lat="43.8861612" lon="11.2068359"><ele>303.6666666666667</ele><time>2026-05-02T10:58:25.968Z</time></trkpt><trkpt lat="43.8860641" lon="11.2068111"><ele>303.0</ele><time>2026-05-02T10:58:27.951Z</time></trkpt><trkpt lat="43.8860099" lon="11.2067092"><ele>303.0</ele><time>2026-05-02T10:58:29.947Z</time></trkpt><trkpt lat="43.886" lon="11.2065662"><ele>303.0</ele><time>2026-05-02T10:58:31.973Z</time></trkpt><trkpt lat="43.8860138" lon="11.206404"><ele>303.0</ele><time>2026-05-02T10:58:33.953Z</time></trkpt><trkpt lat="43.8860172" lon="11.20631"><ele>303.0</ele><time>2026-05-02T10:58:34.968Z</time></trkpt><trkpt lat="43.8860103" lon="11.2061989"><ele>303.0</ele><time>2026-05-02T10:58:35.966Z</time></trkpt><trkpt lat="43.8859855" lon="11.2060911"><ele>303.3333333333333</ele><time>2026-05-02T10:58:36.972Z</time></trkpt><trkpt lat="43.8859575" lon="11.2059787"><ele>303.6666666666667</ele><time>2026-05-02T10:58:38.025Z</time></trkpt><trkpt lat="43.8859304" lon="11.2058649"><ele>304.0</ele><time>2026-05-02T10:58:39.026Z</time></trkpt><trkpt lat="43.8858958" lon="11.2057636"><ele>304.33333333333337</ele><time>2026-05-02T10:58:39.975Z</time></trkpt><trkpt lat="43.8858584" lon="11.2056729"><ele>304.6666666666667</ele><time>2026-05-02T10:58:40.98Z</time></trkpt><trkpt lat="43.885821" lon="11.2055994"><ele>305.0</ele><time>2026-05-02T10:58:41.989Z</time></trkpt><trkpt lat="43.885748" lon="11.2055271"><ele>305.0</ele><time>2026-05-02T10:58:43.98Z</time></trkpt><trkpt lat="43.8856696" lon="11.2055383"><ele>305.0</ele><time>2026-05-02T10:58:45.975Z</time></trkpt><trkpt lat="43.8855929" lon="11.2056223"><ele>305.0</ele><time>2026-05-02T10:58:47.971Z</time></trkpt><trkpt lat="43.8855755" lon="11.205775"><ele>305.0</ele><time>2026-05-02T10:58:49.974Z</time></trkpt><trkpt lat="43.8855893" lon="11.2059223"><ele>305.0</ele><time>2026-05-02T10:58:51.988Z</time></trkpt><trkpt lat="43.8856158" lon="11.2060677"><ele>305.0</ele><time>2026-05-02T10:58:53.955Z</time></trkpt><trkpt lat="43.8856336" lon="11.2061973"><ele>305.0</ele><time>2026-05-02T10:58:55.973Z</time></trkpt><trkpt lat="43.8855999" lon="11.2063091"><ele>305.0</ele><time>2026-05-02T10:58:57.967Z</time></trkpt><trkpt lat="43.8855404" lon="11.2063916"><ele>305.0</ele><time>2026-05-02T10:58:59.976Z</time></trkpt><trkpt lat="43.8854714" lon="11.2064822"><ele>305.0</ele><time>2026-05-02T10:59:01.977Z</time></trkpt><trkpt lat="43.8853864" lon="11.2065692"><ele>306.0</ele><time>2026-05-02T10:59:03.97Z</time></trkpt><trkpt lat="43.8852844" lon="11.2066621"><ele>307.0</ele><time>2026-05-02T10:59:05.972Z</time></trkpt><trkpt lat="43.8851758" lon="11.2067345"><ele>308.0</ele><time>2026-05-02T10:59:07.975Z</time></trkpt><trkpt lat="43.8851121" lon="11.2067923"><ele>309.0</ele><time>2026-05-02T10:59:09.957Z</time></trkpt><trkpt lat="43.8850432" lon="11.206816"><ele>310.0</ele><time>2026-05-02T10:59:13.965Z</time></trkpt><trkpt lat="43.8849786" lon="11.2067687"><ele>311.66666666666663</ele><time>2026-05-02T10:59:16.977Z</time></trkpt><trkpt lat="43.8848956" lon="11.2067452"><ele>313.3333333333333</ele><time>2026-05-02T10:59:19.076Z</time></trkpt><trkpt lat="43.8847901" lon="11.206691"><ele>315.0</ele><time>2026-05-02T10:59:20.977Z</time></trkpt><trkpt lat="43.8847285" lon="11.2066482"><ele>316.6666666666667</ele><time>2026-05-02T10:59:21.984Z</time></trkpt><trkpt lat="43.884667" lon="11.2066029"><ele>318.33333333333337</ele><time>2026-05-02T10:59:22.974Z</time></trkpt><trkpt lat="43.8846095" lon="11.2065556"><ele>320.0</ele><time>2026-05-02T10:59:23.974Z</time></trkpt><trkpt lat="43.8845521" lon="11.2065088"><ele>319.1666666666667</ele><time>2026-05-02T10:59:24.978Z</time></trkpt><trkpt lat="43.8844956" lon="11.2064693"><ele>318.33333333333337</ele><time>2026-05-02T10:59:25.947Z</time></trkpt><trkpt lat="43.8843873" lon="11.2063993"><ele>317.5</ele><time>2026-05-02T10:59:28.033Z</time></trkpt><trkpt lat="43.8842786" lon="11.206309"><ele>316.6666666666667</ele><time>2026-05-02T10:59:29.967Z</time></trkpt><trkpt lat="43.884224" lon="11.2062621"><ele>315.8333333333333</ele><time>2026-05-02T10:59:30.963Z</time></trkpt><trkpt lat="43.8841674" lon="11.2062097"><ele>315.0</ele><time>2026-05-02T10:59:31.966Z</time></trkpt><trkpt lat="43.8841096" lon="11.2061585"><ele>315.0</ele><time>2026-05-02T10:59:32.962Z</time></trkpt><trkpt lat="43.8840109" lon="11.2060632"><ele>315.0</ele><time>2026-05-02T10:59:34.967Z</time></trkpt><trkpt lat="43.8839139" lon="11.2059573"><ele>315.0</ele><time>2026-05-02T10:59:37.015Z</time></trkpt><trkpt lat="43.8838535" lon="11.2058943"><ele>315.0</ele><time>2026-05-02T10:59:37.958Z</time></trkpt><trkpt lat="43.8837891" lon="11.2058479"><ele>315.0</ele><time>2026-05-02T10:59:38.968Z</time></trkpt><trkpt lat="43.8837285" lon="11.2058219"><ele>315.0</ele><time>2026-05-02T10:59:39.969Z</time></trkpt><trkpt lat="43.8836615" lon="11.205815"><ele>315.0</ele><time>2026-05-02T10:59:40.946Z</time></trkpt><trkpt lat="43.8835961" lon="11.2058397"><ele>315.0</ele><time>2026-05-02T10:59:41.962Z</time></trkpt><trkpt lat="43.8835289" lon="11.2058731"><ele>315.0</ele><time>2026-05-02T10:59:43.054Z</time></trkpt><trkpt lat="43.8834666" lon="11.2059038"><ele>315.0</ele><time>2026-05-02T10:59:44.024Z</time></trkpt><trkpt lat="43.8833685" lon="11.2059572"><ele>315.0</ele><time>2026-05-02T10:59:45.963Z</time></trkpt><trkpt lat="43.8832947" lon="11.2060524"><ele>315.4</ele><time>2026-05-02T10:59:47.953Z</time></trkpt><trkpt lat="43.8831996" lon="11.2061344"><ele>315.8</ele><time>2026-05-02T10:59:49.962Z</time></trkpt><trkpt lat="43.8830961" lon="11.2062155"><ele>316.2</ele><time>2026-05-02T10:59:52.039Z</time></trkpt><trkpt lat="43.8830165" lon="11.2062891"><ele>316.6</ele><time>2026-05-02T10:59:53.971Z</time></trkpt><trkpt lat="43.88295" lon="11.2063919"><ele>317.0</ele><time>2026-05-02T10:59:55.974Z</time></trkpt><trkpt lat="43.8828783" lon="11.2065099"><ele>318.33333333333337</ele><time>2026-05-02T10:59:57.982Z</time></trkpt><trkpt lat="43.8828326" lon="11.2066032"><ele>319.6666666666667</ele><time>2026-05-02T10:59:59.964Z</time></trkpt><trkpt lat="43.8827895" lon="11.2066973"><ele>321.0</ele><time>2026-05-02T11:00:01.985Z</time></trkpt><trkpt lat="43.8827232" lon="11.2067854"><ele>322.3333333333333</ele><time>2026-05-02T11:00:03.975Z</time></trkpt><trkpt lat="43.8826409" lon="11.2068549"><ele>323.66666666666663</ele><time>2026-05-02T11:00:05.979Z</time></trkpt><trkpt lat="43.8825675" lon="11.2069313"><ele>325.0</ele><time>2026-05-02T11:00:07.974Z</time></trkpt><trkpt lat="43.8825346" lon="11.2070458"><ele>327.16666666666663</ele><time>2026-05-02T11:00:09.962Z</time></trkpt><trkpt lat="43.8824983" lon="11.207145"><ele>329.3333333333333</ele><time>2026-05-02T11:00:11.994Z</time></trkpt><trkpt lat="43.8824553" lon="11.2072304"><ele>331.5</ele><time>2026-05-02T11:00:13.967Z</time></trkpt><trkpt lat="43.8823702" lon="11.2072376"><ele>333.6666666666667</ele><time>2026-05-02T11:00:16.983Z</time></trkpt><trkpt lat="43.8822969" lon="11.2071987"><ele>335.83333333333337</ele><time>2026-05-02T11:00:19.036Z</time></trkpt><trkpt lat="43.8822203" lon="11.207155"><ele>338.0</ele><time>2026-05-02T11:00:20.979Z</time></trkpt><trkpt lat="43.882148" lon="11.2071203"><ele>338.0</ele><time>2026-05-02T11:00:22.966Z</time></trkpt><trkpt lat="43.8820863" lon="11.2070973"><ele>338.0</ele><time>2026-05-02T11:00:24.966Z</time></trkpt><trkpt lat="43.8820223" lon="11.2070714"><ele>338.0</ele><time>2026-05-02T11:00:27.971Z</time></trkpt><trkpt lat="43.8819451" lon="11.2070572"><ele>338.0</ele><time>2026-05-02T11:00:31.968Z</time></trkpt><trkpt lat="43.8818726" lon="11.2070393"><ele>338.0</ele><time>2026-05-02T11:00:34.953Z</time></trkpt><trkpt lat="43.8818084" lon="11.2070173"><ele>338.0</ele><time>2026-05-02T11:00:37.966Z</time></trkpt><trkpt lat="43.8817244" lon="11.2070105"><ele>338.0</ele><time>2026-05-02T11:00:40.953Z</time></trkpt><trkpt lat="43.8816435" lon="11.2069862"><ele>341.83333333333337</ele><time>2026-05-02T11:00:43.966Z</time></trkpt><trkpt lat="43.8815624" lon="11.2069719"><ele>345.6666666666667</ele><time>2026-05-02T11:00:45.968Z</time></trkpt><trkpt lat="43.8814788" lon="11.2069205"><ele>349.5</ele><time>2026-05-02T11:00:47.97Z</time></trkpt><trkpt lat="43.8813993" lon="11.2068845"><ele>353.3333333333333</ele><time>2026-05-02T11:00:49.969Z</time></trkpt><trkpt lat="43.8813351" lon="11.2068531"><ele>357.16666666666663</ele><time>2026-05-02T11:00:51.967Z</time></trkpt><trkpt lat="43.881277" lon="11.2068174"><ele>361.0</ele><time>2026-05-02T11:00:53.965Z</time></trkpt><trkpt lat="43.8812027" lon="11.206777"><ele>361.0</ele><time>2026-05-02T11:00:56.975Z</time></trkpt><trkpt lat="43.8811429" lon="11.2067415"><ele>361.0</ele><time>2026-05-02T11:00:58.947Z</time></trkpt><trkpt lat="43.8810601" lon="11.2067132"><ele>361.0</ele><time>2026-05-02T11:01:01.96Z</time></trkpt><trkpt lat="43.8809864" lon="11.2066884"><ele>361.0</ele><time>2026-05-02T11:01:03.95Z</time></trkpt><trkpt lat="43.8808999" lon="11.2066367"><ele>361.0</ele><time>2026-05-02T11:01:05.975Z</time></trkpt><trkpt lat="43.8808102" lon="11.20657"><ele>361.0</ele><time>2026-05-02T11:01:07.97Z</time></trkpt><trkpt lat="43.8807182" lon="11.2065138"><ele>361.6</ele><time>2026-05-02T11:01:09.969Z</time></trkpt><trkpt lat="43.8806242" lon="11.206446"><ele>362.20000000000005</ele><time>2026-05-02T11:01:11.971Z</time></trkpt><trkpt lat="43.8805375" lon="11.2063766"><ele>362.79999999999995</ele><time>2026-05-02T11:01:13.958Z</time></trkpt><trkpt lat="43.8804755" lon="11.2062902"><ele>363.4</ele><time>2026-05-02T11:01:15.974Z</time></trkpt><trkpt lat="43.8804218" lon="11.2061844"><ele>364.0</ele><time>2026-05-02T11:01:17.974Z</time></trkpt><trkpt lat="43.8803688" lon="11.2060844"><ele>364.0</ele><time>2026-05-02T11:01:19.979Z</time></trkpt><trkpt lat="43.8803064" lon="11.205989"><ele>364.0</ele><time>2026-05-02T11:01:21.969Z</time></trkpt><trkpt lat="43.8802375" lon="11.2059141"><ele>364.0</ele><time>2026-05-02T11:01:23.978Z</time></trkpt><trkpt lat="43.8801592" lon="11.2058168"><ele>364.0</ele><time>2026-05-02T11:01:25.963Z</time></trkpt><trkpt lat="43.8800707" lon="11.2056993"><ele>364.0</ele><time>2026-05-02T11:01:27.963Z</time></trkpt><trkpt lat="43.8800249" lon="11.2056347"><ele>366.0</ele><time>2026-05-02T11:01:28.977Z</time></trkpt><trkpt lat="43.8799489" lon="11.2055054"><ele>368.0</ele><time>2026-05-02T11:01:30.971Z</time></trkpt><trkpt lat="43.8798643" lon="11.2053947"><ele>370.0</ele><time>2026-05-02T11:01:32.956Z</time></trkpt><trkpt lat="43.8797862" lon="11.2052837"><ele>372.0</ele><time>2026-05-02T11:01:34.969Z</time></trkpt><trkpt lat="43.8797222" lon="11.2051748"><ele>372.0</ele><time>2026-05-02T11:01:36.957Z</time></trkpt><trkpt lat="43.8796628" lon="11.2050748"><ele>372.0</ele><time>2026-05-02T11:01:38.976Z</time></trkpt><trkpt lat="43.879616" lon="11.2049903"><ele>372.0</ele><time>2026-05-02T11:01:40.958Z</time></trkpt><trkpt lat="43.8795436" lon="11.2048629"><ele>372.0</ele><time>2026-05-02T11:01:44.969Z</time></trkpt><trkpt lat="43.8794941" lon="11.2047996"><ele>372.0</ele><time>2026-05-02T11:01:46.968Z</time></trkpt><trkpt lat="43.8794457" lon="11.2047312"><ele>372.0</ele><time>2026-05-02T11:01:48.965Z</time></trkpt><trkpt lat="43.8793876" lon="11.2046426"><ele>369.3333333333333</ele><time>2026-05-02T11:01:52.039Z</time></trkpt><trkpt lat="43.8793099" lon="11.2045949"><ele>366.6666666666667</ele><time>2026-05-02T11:01:54.96Z</time></trkpt><trkpt lat="43.8792358" lon="11.2045466"><ele>364.0</ele><time>2026-05-02T11:01:57.944Z</time></trkpt><trkpt lat="43.8791647" lon="11.2044929"><ele>361.33333333333337</ele><time>2026-05-02T11:02:00.956Z</time></trkpt><trkpt lat="43.8790856" lon="11.2044652"><ele>358.6666666666667</ele><time>2026-05-02T11:02:03.952Z</time></trkpt><trkpt lat="43.8790001" lon="11.2044458"><ele>356.0</ele><time>2026-05-02T11:02:06.967Z</time></trkpt><trkpt lat="43.8789127" lon="11.2044619"><ele>361.33333333333337</ele><time>2026-05-02T11:02:09.96Z</time></trkpt><trkpt lat="43.878844" lon="11.2044547"><ele>366.6666666666667</ele><time>2026-05-02T11:02:12.053Z</time></trkpt><trkpt lat="43.8787498" lon="11.2044278"><ele>372.0</ele><time>2026-05-02T11:02:13.957Z</time></trkpt><trkpt lat="43.8786711" lon="11.204399"><ele>377.33333333333337</ele><time>2026-05-02T11:02:15.969Z</time></trkpt><trkpt lat="43.8785924" lon="11.204363"><ele>382.6666666666667</ele><time>2026-05-02T11:02:18.959Z</time></trkpt><trkpt lat="43.8785319" lon="11.2043076"><ele>388.0</ele><time>2026-05-02T11:02:31.965Z</time></trkpt><trkpt lat="43.8784649" lon="11.2042444"><ele>390.00000000000006</ele><time>2026-05-02T11:02:58.951Z</time></trkpt><trkpt lat="43.8783849" lon="11.2041969"><ele>392.0</ele><time>2026-05-02T11:03:44.972Z</time></trkpt><trkpt lat="43.8783612" lon="11.2040857"><ele>394.0</ele><time>2026-05-02T11:06:33.976Z</time></trkpt><trkpt lat="43.878298" lon="11.2040785"><ele>396.0</ele><time>2026-05-02T11:06:36.962Z</time></trkpt><trkpt lat="43.8782266" lon="11.2040933"><ele>398.00000000000006</ele><time>2026-05-02T11:06:39.971Z</time></trkpt><trkpt lat="43.8781543" lon="11.2041371"><ele>400.0</ele><time>2026-05-02T11:06:43.97Z</time></trkpt><trkpt lat="43.878089" lon="11.2041534"><ele>400.00000000000006</ele><time>2026-05-02T11:06:46.962Z</time></trkpt><trkpt lat="43.8780227" lon="11.2041784"><ele>400.0</ele><time>2026-05-02T11:06:48.968Z</time></trkpt><trkpt lat="43.8779562" lon="11.2041854"><ele>400.0</ele><time>2026-05-02T11:06:50.959Z</time></trkpt><trkpt lat="43.8778925" lon="11.2041826"><ele>400.0</ele><time>2026-05-02T11:06:52.963Z</time></trkpt><trkpt lat="43.877826" lon="11.20419"><ele>400.0</ele><time>2026-05-02T11:06:54.97Z</time></trkpt><trkpt lat="43.8777594" lon="11.2042089"><ele>400.00000000000006</ele><time>2026-05-02T11:06:56.967Z</time></trkpt><trkpt lat="43.8776933" lon="11.2042453"><ele>400.0</ele><time>2026-05-02T11:06:58.976Z</time></trkpt><trkpt lat="43.8776308" lon="11.2042766"><ele>398.1666666666667</ele><time>2026-05-02T11:07:00.979Z</time></trkpt><trkpt lat="43.8775691" lon="11.2043056"><ele>396.33333333333337</ele><time>2026-05-02T11:07:02.974Z</time></trkpt><trkpt lat="43.8774866" lon="11.2043717"><ele>394.5</ele><time>2026-05-02T11:07:05.969Z</time></trkpt><trkpt lat="43.8774287" lon="11.2044128"><ele>392.66666666666663</ele><time>2026-05-02T11:07:07.969Z</time></trkpt><trkpt lat="43.8773595" lon="11.2044791"><ele>390.8333333333333</ele><time>2026-05-02T11:07:10.964Z</time></trkpt><trkpt lat="43.877293" lon="11.2045337"><ele>389.0</ele><time>2026-05-02T11:07:14.972Z</time></trkpt><trkpt lat="43.8772358" lon="11.2045788"><ele>388.99999999999994</ele><time>2026-05-02T11:07:18.969Z</time></trkpt><trkpt lat="43.877173" lon="11.204594"><ele>389.0</ele><time>2026-05-02T11:07:24.967Z</time></trkpt><trkpt lat="43.8771052" lon="11.2046355"><ele>389.0</ele><time>2026-05-02T11:07:28.957Z</time></trkpt><trkpt lat="43.8770453" lon="11.2046933"><ele>389.0</ele><time>2026-05-02T11:07:32.96Z</time></trkpt><trkpt lat="43.8769825" lon="11.2047414"><ele>388.99999999999994</ele><time>2026-05-02T11:07:35.954Z</time></trkpt><trkpt lat="43.8770013" lon="11.2046331"><ele>389.0</ele><time>2026-05-02T11:07:43.968Z</time></trkpt><trkpt lat="43.8770434" lon="11.2045168"><ele>389.0</ele><time>2026-05-02T11:07:45.968Z</time></trkpt><trkpt lat="43.8770936" lon="11.2043887"><ele>389.0</ele><time>2026-05-02T11:07:47.972Z</time></trkpt><trkpt lat="43.877151" lon="11.204274"><ele>389.0</ele><time>2026-05-02T11:07:49.968Z</time></trkpt><trkpt lat="43.8771994" lon="11.204172"><ele>389.0</ele><time>2026-05-02T11:07:51.97Z</time></trkpt><trkpt lat="43.8772256" lon="11.2040361"><ele>389.0</ele><time>2026-05-02T11:07:53.966Z</time></trkpt><trkpt lat="43.8772378" lon="11.2038938"><ele>390.5</ele><time>2026-05-02T11:07:55.973Z</time></trkpt><trkpt lat="43.8771943" lon="11.2037417"><ele>392.0</ele><time>2026-05-02T11:07:57.967Z</time></trkpt><trkpt lat="43.8771543" lon="11.2036025"><ele>393.5</ele><time>2026-05-02T11:07:59.975Z</time></trkpt><trkpt lat="43.8771014" lon="11.2034726"><ele>395.0</ele><time>2026-05-02T11:08:01.973Z</time></trkpt><trkpt lat="43.8770269" lon="11.2033459"><ele>395.0</ele><time>2026-05-02T11:08:03.971Z</time></trkpt><trkpt lat="43.8769783" lon="11.2032879"><ele>395.0</ele><time>2026-05-02T11:08:04.97Z</time></trkpt><trkpt lat="43.8768994" lon="11.2031654"><ele>395.0</ele><time>2026-05-02T11:08:06.957Z</time></trkpt><trkpt lat="43.8768254" lon="11.2030662"><ele>395.0</ele><time>2026-05-02T11:08:08.965Z</time></trkpt><trkpt lat="43.8767579" lon="11.2029613"><ele>395.0</ele><time>2026-05-02T11:08:10.968Z</time></trkpt><trkpt lat="43.8767082" lon="11.2028478"><ele>391.49999999999994</ele><time>2026-05-02T11:08:12.972Z</time></trkpt><trkpt lat="43.8766544" lon="11.2027655"><ele>388.0</ele><time>2026-05-02T11:08:14.977Z</time></trkpt><trkpt lat="43.8766103" lon="11.2026719"><ele>384.5</ele><time>2026-05-02T11:08:16.972Z</time></trkpt><trkpt lat="43.8765645" lon="11.2025548"><ele>381.0</ele><time>2026-05-02T11:08:18.961Z</time></trkpt><trkpt lat="43.8765329" lon="11.2024787"><ele>377.5</ele><time>2026-05-02T11:08:19.963Z</time></trkpt><trkpt lat="43.8764909" lon="11.2023323"><ele>374.0</ele><time>2026-05-02T11:08:21.962Z</time></trkpt><trkpt lat="43.8764593" lon="11.2022565"><ele>374.0</ele><time>2026-05-02T11:08:22.974Z</time></trkpt><trkpt lat="43.8764094" lon="11.2021115"><ele>374.0</ele><time>2026-05-02T11:08:24.966Z</time></trkpt><trkpt lat="43.8763561" lon="11.2019642"><ele>374.0</ele><time>2026-05-02T11:08:26.958Z</time></trkpt><trkpt lat="43.8763072" lon="11.2018992"><ele>374.0</ele><time>2026-05-02T11:08:27.97Z</time></trkpt><trkpt lat="43.8762667" lon="11.2018284"><ele>374.0</ele><time>2026-05-02T11:08:28.974Z</time></trkpt><trkpt lat="43.876224" lon="11.2017585"><ele>374.0</ele><time>2026-05-02T11:08:29.964Z</time></trkpt><trkpt lat="43.8761883" lon="11.2016848"><ele>374.0</ele><time>2026-05-02T11:08:30.956Z</time></trkpt><trkpt lat="43.8761405" lon="11.2016066"><ele>374.0</ele><time>2026-05-02T11:08:31.974Z</time></trkpt><trkpt lat="43.8760851" lon="11.2015331"><ele>374.0</ele><time>2026-05-02T11:08:32.979Z</time></trkpt><trkpt lat="43.8760397" lon="11.2014694"><ele>374.0</ele><time>2026-05-02T11:08:33.968Z</time></trkpt><trkpt lat="43.8759852" lon="11.201408"><ele>374.0</ele><time>2026-05-02T11:08:34.972Z</time></trkpt><trkpt lat="43.8758997" lon="11.2013055"><ele>374.0</ele><time>2026-05-02T11:08:36.962Z</time></trkpt><trkpt lat="43.8757948" lon="11.2012132"><ele>369.75</ele><time>2026-05-02T11:08:38.955Z</time></trkpt><trkpt lat="43.8756917" lon="11.2011079"><ele>365.5</ele><time>2026-05-02T11:08:40.955Z</time></trkpt><trkpt lat="43.8755888" lon="11.2010391"><ele>361.25</ele><time>2026-05-02T11:08:42.954Z</time></trkpt><trkpt lat="43.875486" lon="11.2009733"><ele>357.0</ele><time>2026-05-02T11:08:44.953Z</time></trkpt><trkpt lat="43.8753817" lon="11.2009224"><ele>357.0</ele><time>2026-05-02T11:08:46.951Z</time></trkpt><trkpt lat="43.8752905" lon="11.2008592"><ele>357.0</ele><time>2026-05-02T11:08:48.958Z</time></trkpt><trkpt lat="43.8752105" lon="11.200779"><ele>357.0</ele><time>2026-05-02T11:08:50.959Z</time></trkpt><trkpt lat="43.8751426" lon="11.2006692"><ele>357.0</ele><time>2026-05-02T11:08:52.955Z</time></trkpt><trkpt lat="43.8750959" lon="11.2005634"><ele>357.0</ele><time>2026-05-02T11:08:54.964Z</time></trkpt><trkpt lat="43.8750611" lon="11.2004578"><ele>354.6</ele><time>2026-05-02T11:09:14.967Z</time></trkpt><trkpt lat="43.8750353" lon="11.2003759"><ele>352.20000000000005</ele><time>2026-05-02T11:09:29.966Z</time></trkpt><trkpt lat="43.8749933" lon="11.200292"><ele>349.8</ele><time>2026-05-02T11:09:31.972Z</time></trkpt><trkpt lat="43.8749038" lon="11.2001965"><ele>347.4</ele><time>2026-05-02T11:09:33.961Z</time></trkpt><trkpt lat="43.8748132" lon="11.2001402"><ele>345.0</ele><time>2026-05-02T11:09:35.952Z</time></trkpt><trkpt lat="43.8747073" lon="11.2000852"><ele>345.0</ele><time>2026-05-02T11:09:37.965Z</time></trkpt><trkpt lat="43.8745966" lon="11.2000068"><ele>345.0</ele><time>2026-05-02T11:09:39.971Z</time></trkpt><trkpt lat="43.8745373" lon="11.1999601"><ele>345.0</ele><time>2026-05-02T11:09:40.973Z</time></trkpt><trkpt lat="43.8744821" lon="11.1999066"><ele>345.0</ele><time>2026-05-02T11:09:41.967Z</time></trkpt><trkpt lat="43.8744193" lon="11.1998379"><ele>345.0</ele><time>2026-05-02T11:09:42.963Z</time></trkpt><trkpt lat="43.8743532" lon="11.1997491"><ele>345.0</ele><time>2026-05-02T11:09:43.976Z</time></trkpt><trkpt lat="43.8742884" lon="11.1996719"><ele>343.2857142857143</ele><time>2026-05-02T11:09:44.968Z</time></trkpt><trkpt lat="43.8742304" lon="11.1995957"><ele>341.57142857142856</ele><time>2026-05-02T11:09:45.954Z</time></trkpt><trkpt lat="43.8741769" lon="11.1995336"><ele>339.8571428571429</ele><time>2026-05-02T11:09:46.959Z</time></trkpt><trkpt lat="43.8741354" lon="11.1994539"><ele>338.1428571428571</ele><time>2026-05-02T11:09:47.967Z</time></trkpt><trkpt lat="43.874098" lon="11.1993724"><ele>336.4285714285714</ele><time>2026-05-02T11:09:48.968Z</time></trkpt><trkpt lat="43.8740527" lon="11.1992882"><ele>334.7142857142857</ele><time>2026-05-02T11:09:49.968Z</time></trkpt><trkpt lat="43.8740025" lon="11.1992099"><ele>333.0</ele><time>2026-05-02T11:09:50.968Z</time></trkpt><trkpt lat="43.8739456" lon="11.1991427"><ele>333.0</ele><time>2026-05-02T11:09:51.972Z</time></trkpt><trkpt lat="43.8738846" lon="11.1990809"><ele>333.0</ele><time>2026-05-02T11:09:52.971Z</time></trkpt><trkpt lat="43.8738241" lon="11.1990222"><ele>333.0</ele><time>2026-05-02T11:09:53.972Z</time></trkpt><trkpt lat="43.8737694" lon="11.1989666"><ele>333.0</ele><time>2026-05-02T11:09:54.972Z</time></trkpt><trkpt lat="43.8737142" lon="11.198905"><ele>333.0</ele><time>2026-05-02T11:09:55.959Z</time></trkpt><trkpt lat="43.8736551" lon="11.1988498"><ele>333.0</ele><time>2026-05-02T11:09:56.966Z</time></trkpt><trkpt lat="43.8735996" lon="11.1987908"><ele>333.0</ele><time>2026-05-02T11:09:57.966Z</time></trkpt><trkpt lat="43.8735365" lon="11.1987328"><ele>331.3333333333333</ele><time>2026-05-02T11:09:58.968Z</time></trkpt><trkpt lat="43.8734724" lon="11.1986731"><ele>329.6666666666667</ele><time>2026-05-02T11:09:59.971Z</time></trkpt><trkpt lat="43.873405" lon="11.1986137"><ele>328.0</ele><time>2026-05-02T11:10:00.964Z</time></trkpt><trkpt lat="43.8733482" lon="11.1985425"><ele>326.33333333333337</ele><time>2026-05-02T11:10:01.969Z</time></trkpt><trkpt lat="43.8732879" lon="11.1984619"><ele>324.6666666666667</ele><time>2026-05-02T11:10:02.975Z</time></trkpt><trkpt lat="43.873233" lon="11.1983857"><ele>323.0</ele><time>2026-05-02T11:10:03.96Z</time></trkpt><trkpt lat="43.8731809" lon="11.198308"><ele>323.0</ele><time>2026-05-02T11:10:04.967Z</time></trkpt><trkpt lat="43.873131" lon="11.1982344"><ele>323.0</ele><time>2026-05-02T11:10:05.944Z</time></trkpt><trkpt lat="43.8730791" lon="11.198162"><ele>323.0</ele><time>2026-05-02T11:10:06.955Z</time></trkpt><trkpt lat="43.8730276" lon="11.1980899"><ele>323.0</ele><time>2026-05-02T11:10:07.961Z</time></trkpt><trkpt lat="43.8729725" lon="11.1980174"><ele>323.0</ele><time>2026-05-02T11:10:08.963Z</time></trkpt><trkpt lat="43.8729128" lon="11.1979509"><ele>323.0</ele><time>2026-05-02T11:10:09.963Z</time></trkpt><trkpt lat="43.8728489" lon="11.1978776"><ele>321.42857142857144</ele><time>2026-05-02T11:10:10.973Z</time></trkpt><trkpt lat="43.872793" lon="11.1978076"><ele>319.8571428571429</ele><time>2026-05-02T11:10:11.974Z</time></trkpt><trkpt lat="43.8727368" lon="11.1977511"><ele>318.28571428571433</ele><time>2026-05-02T11:10:12.971Z</time></trkpt><trkpt lat="43.8726801" lon="11.1976963"><ele>316.7142857142857</ele><time>2026-05-02T11:10:13.969Z</time></trkpt><trkpt lat="43.8726256" lon="11.1976348"><ele>315.1428571428571</ele><time>2026-05-02T11:10:14.969Z</time></trkpt><trkpt lat="43.8725691" lon="11.1975749"><ele>313.5714285714286</ele><time>2026-05-02T11:10:15.976Z</time></trkpt><trkpt lat="43.8725186" lon="11.1975207"><ele>312.0</ele><time>2026-05-02T11:10:16.966Z</time></trkpt><trkpt lat="43.8724668" lon="11.1974626"><ele>312.0</ele><time>2026-05-02T11:10:17.969Z</time></trkpt><trkpt lat="43.8724128" lon="11.1974047"><ele>312.0</ele><time>2026-05-02T11:10:18.968Z</time></trkpt><trkpt lat="43.8723641" lon="11.1973453"><ele>312.0</ele><time>2026-05-02T11:10:19.967Z</time></trkpt><trkpt lat="43.8723183" lon="11.1972722"><ele>312.0</ele><time>2026-05-02T11:10:20.962Z</time></trkpt><trkpt lat="43.872274" lon="11.1971923"><ele>312.0</ele><time>2026-05-02T11:10:21.977Z</time></trkpt><trkpt lat="43.8722253" lon="11.1971113"><ele>312.0</ele><time>2026-05-02T11:10:22.946Z</time></trkpt><trkpt lat="43.8721691" lon="11.1970303"><ele>312.0</ele><time>2026-05-02T11:10:23.947Z</time></trkpt><trkpt lat="43.8721143" lon="11.1969506"><ele>312.14285714285717</ele><time>2026-05-02T11:10:24.96Z</time></trkpt><trkpt lat="43.8720619" lon="11.1968748"><ele>312.2857142857143</ele><time>2026-05-02T11:10:25.968Z</time></trkpt><trkpt lat="43.8720119" lon="11.1968037"><ele>312.42857142857144</ele><time>2026-05-02T11:10:26.963Z</time></trkpt><trkpt lat="43.8719635" lon="11.1967237"><ele>312.57142857142856</ele><time>2026-05-02T11:10:27.975Z</time></trkpt><trkpt lat="43.8719178" lon="11.1966464"><ele>312.7142857142857</ele><time>2026-05-02T11:10:28.954Z</time></trkpt><trkpt lat="43.8718656" lon="11.1965706"><ele>312.85714285714283</ele><time>2026-05-02T11:10:29.962Z</time></trkpt><trkpt lat="43.8718134" lon="11.1965023"><ele>313.0</ele><time>2026-05-02T11:10:30.954Z</time></trkpt><trkpt lat="43.8717626" lon="11.1964229"><ele>313.0</ele><time>2026-05-02T11:10:31.978Z</time></trkpt><trkpt lat="43.8717103" lon="11.1963463"><ele>313.0</ele><time>2026-05-02T11:10:32.949Z</time></trkpt><trkpt lat="43.871612" lon="11.1962215"><ele>313.0</ele><time>2026-05-02T11:10:34.962Z</time></trkpt><trkpt lat="43.871558" lon="11.1961531"><ele>313.0</ele><time>2026-05-02T11:10:35.958Z</time></trkpt><trkpt lat="43.8715031" lon="11.1960798"><ele>313.0</ele><time>2026-05-02T11:10:36.965Z</time></trkpt><trkpt lat="43.8714514" lon="11.1959974"><ele>313.0</ele><time>2026-05-02T11:10:37.957Z</time></trkpt><trkpt lat="43.871401" lon="11.195924"><ele>313.0</ele><time>2026-05-02T11:10:38.964Z</time></trkpt><trkpt lat="43.8713465" lon="11.1958527"><ele>313.0</ele><time>2026-05-02T11:10:39.975Z</time></trkpt><trkpt lat="43.8713041" lon="11.1957839"><ele>313.0</ele><time>2026-05-02T11:10:40.966Z</time></trkpt><trkpt lat="43.8712561" lon="11.1957132"><ele>313.0</ele><time>2026-05-02T11:10:41.965Z</time></trkpt><trkpt lat="43.8712078" lon="11.1956451"><ele>313.0</ele><time>2026-05-02T11:10:42.967Z</time></trkpt><trkpt lat="43.8711621" lon="11.1955739"><ele>313.0</ele><time>2026-05-02T11:10:43.967Z</time></trkpt><trkpt lat="43.8711142" lon="11.1955061"><ele>313.0</ele><time>2026-05-02T11:10:44.967Z</time></trkpt><trkpt lat="43.8710432" lon="11.1953702"><ele>314.3333333333333</ele><time>2026-05-02T11:10:46.97Z</time></trkpt><trkpt lat="43.870969" lon="11.1952207"><ele>315.66666666666663</ele><time>2026-05-02T11:10:48.97Z</time></trkpt><trkpt lat="43.8709276" lon="11.1951403"><ele>317.0</ele><time>2026-05-02T11:10:49.963Z</time></trkpt><trkpt lat="43.8708807" lon="11.1950674"><ele>318.3333333333333</ele><time>2026-05-02T11:10:50.966Z</time></trkpt><trkpt lat="43.8708403" lon="11.1949856"><ele>319.6666666666667</ele><time>2026-05-02T11:10:51.962Z</time></trkpt><trkpt lat="43.8708196" lon="11.1949005"><ele>321.0</ele><time>2026-05-02T11:10:52.962Z</time></trkpt><trkpt lat="43.8708063" lon="11.1948141"><ele>315.3333333333333</ele><time>2026-05-02T11:10:53.98Z</time></trkpt><trkpt lat="43.8707974" lon="11.1947268"><ele>309.6666666666667</ele><time>2026-05-02T11:10:54.967Z</time></trkpt><trkpt lat="43.8707971" lon="11.1945734"><ele>304.0</ele><time>2026-05-02T11:10:56.962Z</time></trkpt><trkpt lat="43.8708" lon="11.1944214"><ele>298.33333333333337</ele><time>2026-05-02T11:10:58.947Z</time></trkpt><trkpt lat="43.8707847" lon="11.1943255"><ele>292.6666666666667</ele><time>2026-05-02T11:11:01.969Z</time></trkpt><trkpt lat="43.8708509" lon="11.1943349"><ele>287.0</ele><time>2026-05-02T11:11:18.964Z</time></trkpt><trkpt lat="43.8709206" lon="11.1943291"><ele>292.0</ele><time>2026-05-02T11:11:22.975Z</time></trkpt><trkpt lat="43.8709803" lon="11.1942613"><ele>297.0</ele><time>2026-05-02T11:11:26.977Z</time></trkpt><trkpt lat="43.8709991" lon="11.1941578"><ele>302.0</ele><time>2026-05-02T11:11:29.964Z</time></trkpt><trkpt lat="43.8710351" lon="11.1940523"><ele>307.0</ele><time>2026-05-02T11:11:31.967Z</time></trkpt><trkpt lat="43.8710842" lon="11.1939063"><ele>312.0</ele><time>2026-05-02T11:11:33.955Z</time></trkpt><trkpt lat="43.8710708" lon="11.1937566"><ele>312.0</ele><time>2026-05-02T11:11:35.969Z</time></trkpt><trkpt lat="43.8710521" lon="11.193585"><ele>312.0</ele><time>2026-05-02T11:11:37.962Z</time></trkpt><trkpt lat="43.8710307" lon="11.1934554"><ele>312.0</ele><time>2026-05-02T11:11:39.959Z</time></trkpt><trkpt lat="43.871007" lon="11.193338"><ele>312.0</ele><time>2026-05-02T11:11:41.965Z</time></trkpt><trkpt lat="43.8709907" lon="11.1932414"><ele>312.0</ele><time>2026-05-02T11:11:44.972Z</time></trkpt><trkpt lat="43.8709851" lon="11.1931462"><ele>312.0</ele><time>2026-05-02T11:11:47.965Z</time></trkpt><trkpt lat="43.8710114" lon="11.193017"><ele>311.1666666666667</ele><time>2026-05-02T11:11:50.971Z</time></trkpt><trkpt lat="43.871043" lon="11.1929145"><ele>310.3333333333333</ele><time>2026-05-02T11:11:52.968Z</time></trkpt><trkpt lat="43.8710798" lon="11.192824"><ele>309.5</ele><time>2026-05-02T11:11:54.965Z</time></trkpt><trkpt lat="43.8711187" lon="11.1927336"><ele>308.66666666666663</ele><time>2026-05-02T11:11:56.966Z</time></trkpt><trkpt lat="43.8711631" lon="11.1926435"><ele>307.8333333333333</ele><time>2026-05-02T11:11:58.966Z</time></trkpt><trkpt lat="43.8712117" lon="11.192551"><ele>307.0</ele><time>2026-05-02T11:12:00.964Z</time></trkpt><trkpt lat="43.8712709" lon="11.1924864"><ele>307.0</ele><time>2026-05-02T11:12:02.965Z</time></trkpt><trkpt lat="43.871333" lon="11.1924201"><ele>307.0</ele><time>2026-05-02T11:12:04.969Z</time></trkpt><trkpt lat="43.8713945" lon="11.1923533"><ele>307.0</ele><time>2026-05-02T11:12:06.967Z</time></trkpt><trkpt lat="43.8714371" lon="11.192281"><ele>307.0</ele><time>2026-05-02T11:12:08.966Z</time></trkpt><trkpt lat="43.8715145" lon="11.1921826"><ele>307.0</ele><time>2026-05-02T11:12:11.976Z</time></trkpt><trkpt lat="43.8715761" lon="11.1920814"><ele>307.0</ele><time>2026-05-02T11:12:13.981Z</time></trkpt><trkpt lat="43.8716441" lon="11.1919746"><ele>306.0</ele><time>2026-05-02T11:12:15.956Z</time></trkpt><trkpt lat="43.871673" lon="11.1918638"><ele>305.0</ele><time>2026-05-02T11:12:17.976Z</time></trkpt><trkpt lat="43.8717201" lon="11.1917666"><ele>304.0</ele><time>2026-05-02T11:12:19.971Z</time></trkpt><trkpt lat="43.8717809" lon="11.1916747"><ele>303.0</ele><time>2026-05-02T11:12:21.973Z</time></trkpt><trkpt lat="43.8718479" lon="11.1915734"><ele>302.0</ele><time>2026-05-02T11:12:23.972Z</time></trkpt><trkpt lat="43.8719169" lon="11.1914695"><ele>302.0</ele><time>2026-05-02T11:12:25.957Z</time></trkpt><trkpt lat="43.8719708" lon="11.1913632"><ele>302.0</ele><time>2026-05-02T11:12:27.968Z</time></trkpt><trkpt lat="43.8720131" lon="11.1912592"><ele>302.0</ele><time>2026-05-02T11:12:29.981Z</time></trkpt><trkpt lat="43.8720601" lon="11.1911499"><ele>302.0</ele><time>2026-05-02T11:12:31.965Z</time></trkpt><trkpt lat="43.8721211" lon="11.1910654"><ele>302.0</ele><time>2026-05-02T11:12:33.968Z</time></trkpt><trkpt lat="43.8721646" lon="11.1909799"><ele>302.0</ele><time>2026-05-02T11:12:35.959Z</time></trkpt><trkpt lat="43.8722175" lon="11.1909093"><ele>302.0</ele><time>2026-05-02T11:12:37.96Z</time></trkpt><trkpt lat="43.8722757" lon="11.1908455"><ele>302.0</ele><time>2026-05-02T11:12:40.962Z</time></trkpt><trkpt lat="43.8723595" lon="11.1907694"><ele>302.0</ele><time>2026-05-02T11:12:45.961Z</time></trkpt><trkpt lat="43.8724199" lon="11.1907384"><ele>302.0</ele><time>2026-05-02T11:12:47.966Z</time></trkpt><trkpt lat="43.8724866" lon="11.1906931"><ele>302.0</ele><time>2026-05-02T11:12:50.963Z</time></trkpt><trkpt lat="43.8725675" lon="11.1906388"><ele>302.0</ele><time>2026-05-02T11:12:53.961Z</time></trkpt><trkpt lat="43.87263" lon="11.1905883"><ele>299.6666666666667</ele><time>2026-05-02T11:12:56.967Z</time></trkpt><trkpt lat="43.872711" lon="11.1904636"><ele>297.33333333333337</ele><time>2026-05-02T11:13:02.968Z</time></trkpt><trkpt lat="43.8727494" lon="11.1903695"><ele>295.0</ele><time>2026-05-02T11:13:05.966Z</time></trkpt><trkpt lat="43.8727934" lon="11.1902875"><ele>292.6666666666667</ele><time>2026-05-02T11:13:07.964Z</time></trkpt><trkpt lat="43.8728343" lon="11.1902037"><ele>290.3333333333333</ele><time>2026-05-02T11:13:10.082Z</time></trkpt><trkpt lat="43.8728758" lon="11.1901163"><ele>288.0</ele><time>2026-05-02T11:13:11.975Z</time></trkpt><trkpt lat="43.8729227" lon="11.1900222"><ele>288.0</ele><time>2026-05-02T11:13:13.968Z</time></trkpt><trkpt lat="43.8729605" lon="11.1899088"><ele>288.0</ele><time>2026-05-02T11:13:15.964Z</time></trkpt><trkpt lat="43.87301" lon="11.1898028"><ele>288.0</ele><time>2026-05-02T11:13:17.958Z</time></trkpt><trkpt lat="43.8730634" lon="11.189716"><ele>288.0</ele><time>2026-05-02T11:13:19.97Z</time></trkpt><trkpt lat="43.8731312" lon="11.1896337"><ele>288.0</ele><time>2026-05-02T11:13:21.969Z</time></trkpt><trkpt lat="43.8731949" lon="11.1895713"><ele>288.0</ele><time>2026-05-02T11:13:23.959Z</time></trkpt><trkpt lat="43.8732578" lon="11.1894968"><ele>288.1666666666667</ele><time>2026-05-02T11:13:25.967Z</time></trkpt><trkpt lat="43.8733073" lon="11.189417"><ele>288.3333333333333</ele><time>2026-05-02T11:13:27.952Z</time></trkpt><trkpt lat="43.8733471" lon="11.1893418"><ele>288.5</ele><time>2026-05-02T11:13:29.959Z</time></trkpt><trkpt lat="43.8733986" lon="11.1892642"><ele>288.66666666666663</ele><time>2026-05-02T11:13:31.969Z</time></trkpt><trkpt lat="43.873446" lon="11.1891907"><ele>288.8333333333333</ele><time>2026-05-02T11:13:33.965Z</time></trkpt><trkpt lat="43.8735252" lon="11.1891258"><ele>289.0</ele><time>2026-05-02T11:13:37.037Z</time></trkpt><trkpt lat="43.8735976" lon="11.18907"><ele>288.3333333333333</ele><time>2026-05-02T11:13:39.992Z</time></trkpt><trkpt lat="43.8736856" lon="11.1890471"><ele>287.66666666666663</ele><time>2026-05-02T11:13:41.949Z</time></trkpt><trkpt lat="43.873756" lon="11.1890122"><ele>287.0</ele><time>2026-05-02T11:13:43.948Z</time></trkpt><trkpt lat="43.8738219" lon="11.1889338"><ele>286.3333333333333</ele><time>2026-05-02T11:13:46.97Z</time></trkpt><trkpt lat="43.8738814" lon="11.1888591"><ele>285.6666666666667</ele><time>2026-05-02T11:13:50.038Z</time></trkpt><trkpt lat="43.8739211" lon="11.1887756"><ele>285.0</ele><time>2026-05-02T11:13:52.967Z</time></trkpt><trkpt lat="43.8739266" lon="11.188684"><ele>284.2857142857143</ele><time>2026-05-02T11:13:57.961Z</time></trkpt><trkpt lat="43.8739007" lon="11.1885907"><ele>283.57142857142856</ele><time>2026-05-02T11:14:03.955Z</time></trkpt><trkpt lat="43.8738769" lon="11.1885068"><ele>282.8571428571429</ele><time>2026-05-02T11:14:10.953Z</time></trkpt><trkpt lat="43.8738757" lon="11.1884038"><ele>282.1428571428571</ele><time>2026-05-02T11:14:15.969Z</time></trkpt><trkpt lat="43.8738776" lon="11.188312"><ele>281.42857142857144</ele><time>2026-05-02T11:14:18.961Z</time></trkpt><trkpt lat="43.8738721" lon="11.1882057"><ele>280.7142857142857</ele><time>2026-05-02T11:14:22.968Z</time></trkpt><trkpt lat="43.873884" lon="11.1881005"><ele>280.0</ele><time>2026-05-02T11:14:26.955Z</time></trkpt><trkpt lat="43.8738979" lon="11.1879955"><ele>278.5</ele><time>2026-05-02T11:14:30.956Z</time></trkpt><trkpt lat="43.8739227" lon="11.1879025"><ele>277.0</ele><time>2026-05-02T11:14:34.958Z</time></trkpt><trkpt lat="43.8739385" lon="11.1878005"><ele>275.5</ele><time>2026-05-02T11:14:39.968Z</time></trkpt><trkpt lat="43.8738942" lon="11.187732"><ele>274.0</ele><time>2026-05-02T11:14:47.961Z</time></trkpt><trkpt lat="43.8738408" lon="11.1876485"><ele>272.5</ele><time>2026-05-02T11:14:52.957Z</time></trkpt><trkpt lat="43.8737688" lon="11.1875896"><ele>271.0</ele><time>2026-05-02T11:14:56.966Z</time></trkpt><trkpt lat="43.8736953" lon="11.1875703"><ele>271.0</ele><time>2026-05-02T11:14:59.969Z</time></trkpt><trkpt lat="43.8736064" lon="11.1875528"><ele>271.0</ele><time>2026-05-02T11:15:02.946Z</time></trkpt><trkpt lat="43.8735403" lon="11.1875426"><ele>271.0</ele><time>2026-05-02T11:15:04.957Z</time></trkpt><trkpt lat="43.8734637" lon="11.1875553"><ele>271.0</ele><time>2026-05-02T11:15:06.962Z</time></trkpt><trkpt lat="43.8734015" lon="11.1875732"><ele>271.0</ele><time>2026-05-02T11:15:08.959Z</time></trkpt><trkpt lat="43.8733251" lon="11.1875904"><ele>271.0</ele><time>2026-05-02T11:15:10.958Z</time></trkpt><trkpt lat="43.8732564" lon="11.1875914"><ele>271.0</ele><time>2026-05-02T11:15:12.961Z</time></trkpt><trkpt lat="43.8731689" lon="11.1875891"><ele>270.7142857142857</ele><time>2026-05-02T11:15:15.965Z</time></trkpt><trkpt lat="43.8730976" lon="11.1875942"><ele>270.42857142857144</ele><time>2026-05-02T11:15:17.964Z</time></trkpt><trkpt lat="43.873025" lon="11.1875994"><ele>270.14285714285717</ele><time>2026-05-02T11:15:19.958Z</time></trkpt><trkpt lat="43.8729505" lon="11.1876128"><ele>269.8571428571429</ele><time>2026-05-02T11:15:21.963Z</time></trkpt><trkpt lat="43.8728836" lon="11.1876207"><ele>269.5714285714286</ele><time>2026-05-02T11:15:23.962Z</time></trkpt><trkpt lat="43.8728179" lon="11.1876239"><ele>269.2857142857143</ele><time>2026-05-02T11:15:25.964Z</time></trkpt><trkpt lat="43.8727375" lon="11.1876047"><ele>269.0</ele><time>2026-05-02T11:15:28.953Z</time></trkpt><trkpt lat="43.8726737" lon="11.1875975"><ele>267.1666666666667</ele><time>2026-05-02T11:15:30.956Z</time></trkpt><trkpt lat="43.8726036" lon="11.1875927"><ele>265.33333333333337</ele><time>2026-05-02T11:15:32.964Z</time></trkpt><trkpt lat="43.8725362" lon="11.1875777"><ele>263.5</ele><time>2026-05-02T11:15:34.96Z</time></trkpt><trkpt lat="43.8724477" lon="11.1875748"><ele>261.6666666666667</ele><time>2026-05-02T11:15:36.959Z</time></trkpt><trkpt lat="43.8723641" lon="11.1875785"><ele>259.8333333333333</ele><time>2026-05-02T11:15:38.959Z</time></trkpt><trkpt lat="43.872283" lon="11.1875838"><ele>258.0</ele><time>2026-05-02T11:15:40.94Z</time></trkpt><trkpt lat="43.872216" lon="11.187587"><ele>258.0</ele><time>2026-05-02T11:15:42.97Z</time></trkpt><trkpt lat="43.8721332" lon="11.187588"><ele>258.0</ele><time>2026-05-02T11:15:44.963Z</time></trkpt><trkpt lat="43.8720614" lon="11.1875889"><ele>258.0</ele><time>2026-05-02T11:15:46.959Z</time></trkpt><trkpt lat="43.8719838" lon="11.1875942"><ele>258.0</ele><time>2026-05-02T11:15:48.962Z</time></trkpt><trkpt lat="43.871911" lon="11.1876082"><ele>258.0</ele><time>2026-05-02T11:15:51.048Z</time></trkpt><trkpt lat="43.871837" lon="11.1876294"><ele>258.0</ele><time>2026-05-02T11:15:52.962Z</time></trkpt><trkpt lat="43.8717575" lon="11.1876337"><ele>255.0</ele><time>2026-05-02T11:15:54.961Z</time></trkpt><trkpt lat="43.8716692" lon="11.1876311"><ele>252.0</ele><time>2026-05-02T11:15:56.957Z</time></trkpt><trkpt lat="43.8715686" lon="11.187638"><ele>249.0</ele><time>2026-05-02T11:15:58.96Z</time></trkpt><trkpt lat="43.8714391" lon="11.1876291"><ele>246.0</ele><time>2026-05-02T11:15:59.961Z</time></trkpt><trkpt lat="43.8713562" lon="11.1875979"><ele>243.0</ele><time>2026-05-02T11:16:00.962Z</time></trkpt><trkpt lat="43.8712822" lon="11.1875868"><ele>243.0</ele><time>2026-05-02T11:16:01.965Z</time></trkpt><trkpt lat="43.8712161" lon="11.1875676"><ele>243.0</ele><time>2026-05-02T11:16:02.94Z</time></trkpt><trkpt lat="43.8711079" lon="11.1875323"><ele>243.0</ele><time>2026-05-02T11:16:04.961Z</time></trkpt><trkpt lat="43.8710139" lon="11.1874961"><ele>243.0</ele><time>2026-05-02T11:16:06.953Z</time></trkpt><trkpt lat="43.8709449" lon="11.1874522"><ele>243.0</ele><time>2026-05-02T11:16:08.964Z</time></trkpt><trkpt lat="43.8708976" lon="11.1873822"><ele>243.0</ele><time>2026-05-02T11:16:11.961Z</time></trkpt><trkpt lat="43.8708937" lon="11.1872772"><ele>240.71428571428572</ele><time>2026-05-02T11:16:14.961Z</time></trkpt><trkpt lat="43.8709222" lon="11.1871952"><ele>238.42857142857144</ele><time>2026-05-02T11:16:16.961Z</time></trkpt><trkpt lat="43.8709579" lon="11.1870859"><ele>236.14285714285717</ele><time>2026-05-02T11:16:19.947Z</time></trkpt><trkpt lat="43.8709179" lon="11.1870044"><ele>233.85714285714286</ele><time>2026-05-02T11:16:21.962Z</time></trkpt><trkpt lat="43.8708536" lon="11.1869619"><ele>231.5714285714286</ele><time>2026-05-02T11:16:23.956Z</time></trkpt><trkpt lat="43.8707783" lon="11.1869405"><ele>229.2857142857143</ele><time>2026-05-02T11:16:25.971Z</time></trkpt><trkpt lat="43.8707156" lon="11.1869228"><ele>227.0</ele><time>2026-05-02T11:16:27.97Z</time></trkpt><trkpt lat="43.8706314" lon="11.1869072"><ele>223.66666666666669</ele><time>2026-05-02T11:16:30.952Z</time></trkpt><trkpt lat="43.8705548" lon="11.1868988"><ele>220.33333333333334</ele><time>2026-05-02T11:16:33.961Z</time></trkpt><trkpt lat="43.8704926" lon="11.1869275"><ele>217.0</ele><time>2026-05-02T11:16:36.947Z</time></trkpt><trkpt lat="43.8704265" lon="11.1869826"><ele>213.66666666666669</ele><time>2026-05-02T11:16:40.939Z</time></trkpt><trkpt lat="43.870355" lon="11.1869983"><ele>210.33333333333334</ele><time>2026-05-02T11:16:43.954Z</time></trkpt><trkpt lat="43.8702928" lon="11.1869805"><ele>207.0</ele><time>2026-05-02T11:16:45.953Z</time></trkpt><trkpt lat="43.8701959" lon="11.1869541"><ele>207.0</ele><time>2026-05-02T11:16:47.959Z</time></trkpt><trkpt lat="43.8701176" lon="11.186889"><ele>207.0</ele><time>2026-05-02T11:16:49.949Z</time></trkpt><trkpt lat="43.8700638" lon="11.1867746"><ele>207.0</ele><time>2026-05-02T11:16:51.954Z</time></trkpt><trkpt lat="43.8699806" lon="11.1866835"><ele>207.0</ele><time>2026-05-02T11:16:53.952Z</time></trkpt><trkpt lat="43.8699001" lon="11.1865976"><ele>207.0</ele><time>2026-05-02T11:16:55.938Z</time></trkpt><trkpt lat="43.8698066" lon="11.1865556"><ele>204.2</ele><time>2026-05-02T11:16:57.95Z</time></trkpt><trkpt lat="43.8696997" lon="11.1865461"><ele>201.39999999999998</ele><time>2026-05-02T11:16:59.95Z</time></trkpt><trkpt lat="43.8695958" lon="11.1865495"><ele>198.60000000000002</ele><time>2026-05-02T11:17:01.954Z</time></trkpt><trkpt lat="43.8694511" lon="11.1865228"><ele>195.8</ele><time>2026-05-02T11:17:03.956Z</time></trkpt><trkpt lat="43.8693697" lon="11.1865011"><ele>193.0</ele><time>2026-05-02T11:17:04.955Z</time></trkpt><trkpt lat="43.8692847" lon="11.1864933"><ele>187.60000000000002</ele><time>2026-05-02T11:17:05.944Z</time></trkpt><trkpt lat="43.869186" lon="11.1864979"><ele>182.20000000000002</ele><time>2026-05-02T11:17:06.951Z</time></trkpt><trkpt lat="43.8690901" lon="11.1864994"><ele>176.8</ele><time>2026-05-02T11:17:07.952Z</time></trkpt><trkpt lat="43.8689942" lon="11.186489"><ele>171.4</ele><time>2026-05-02T11:17:08.947Z</time></trkpt><trkpt lat="43.8688958" lon="11.1864742"><ele>166.0</ele><time>2026-05-02T11:17:09.953Z</time></trkpt><trkpt lat="43.8687889" lon="11.1864526"><ele>166.0</ele><time>2026-05-02T11:17:10.953Z</time></trkpt><trkpt lat="43.8686841" lon="11.186428"><ele>166.0</ele><time>2026-05-02T11:17:11.952Z</time></trkpt><trkpt lat="43.8685862" lon="11.1864103"><ele>166.0</ele><time>2026-05-02T11:17:12.951Z</time></trkpt><trkpt lat="43.868506" lon="11.1863852"><ele>166.0</ele><time>2026-05-02T11:17:13.952Z</time></trkpt><trkpt lat="43.868437" lon="11.1863679"><ele>166.0</ele><time>2026-05-02T11:17:14.967Z</time></trkpt><trkpt lat="43.868377" lon="11.1863123"><ele>166.0</ele><time>2026-05-02T11:17:15.954Z</time></trkpt><trkpt lat="43.8683345" lon="11.1862416"><ele>163.8</ele><time>2026-05-02T11:17:16.955Z</time></trkpt><trkpt lat="43.8682238" lon="11.1861438"><ele>161.60000000000002</ele><time>2026-05-02T11:17:18.96Z</time></trkpt><trkpt lat="43.8681495" lon="11.1861098"><ele>159.4</ele><time>2026-05-02T11:17:19.956Z</time></trkpt><trkpt lat="43.8680599" lon="11.1860701"><ele>157.2</ele><time>2026-05-02T11:17:20.946Z</time></trkpt><trkpt lat="43.8679601" lon="11.1860309"><ele>155.0</ele><time>2026-05-02T11:17:21.949Z</time></trkpt><trkpt lat="43.8678646" lon="11.1859882"><ele>155.0</ele><time>2026-05-02T11:17:22.948Z</time></trkpt><trkpt lat="43.8677697" lon="11.1859444"><ele>155.0</ele><time>2026-05-02T11:17:23.958Z</time></trkpt><trkpt lat="43.8676776" lon="11.185909"><ele>155.0</ele><time>2026-05-02T11:17:24.952Z</time></trkpt><trkpt lat="43.8675843" lon="11.1858695"><ele>155.0</ele><time>2026-05-02T11:17:25.951Z</time></trkpt><trkpt lat="43.8674872" lon="11.1858249"><ele>155.0</ele><time>2026-05-02T11:17:26.956Z</time></trkpt><trkpt lat="43.8673924" lon="11.1857934"><ele>153.6</ele><time>2026-05-02T11:17:27.955Z</time></trkpt><trkpt lat="43.867307" lon="11.1857707"><ele>152.2</ele><time>2026-05-02T11:17:28.961Z</time></trkpt><trkpt lat="43.8672165" lon="11.1857551"><ele>150.8</ele><time>2026-05-02T11:17:29.959Z</time></trkpt><trkpt lat="43.8671291" lon="11.185743"><ele>149.4</ele><time>2026-05-02T11:17:30.952Z</time></trkpt><trkpt lat="43.8670424" lon="11.1857652"><ele>148.0</ele><time>2026-05-02T11:17:31.948Z</time></trkpt><trkpt lat="43.8669406" lon="11.1858001"><ele>148.0</ele><time>2026-05-02T11:17:32.95Z</time></trkpt><trkpt lat="43.8668419" lon="11.1858384"><ele>148.0</ele><time>2026-05-02T11:17:33.957Z</time></trkpt><trkpt lat="43.8667681" lon="11.1858618"><ele>148.0</ele><time>2026-05-02T11:17:34.942Z</time></trkpt><trkpt lat="43.8666526" lon="11.1858087"><ele>148.0</ele><time>2026-05-02T11:17:36.952Z</time></trkpt><trkpt lat="43.8666178" lon="11.1856853"><ele>148.0</ele><time>2026-05-02T11:17:37.954Z</time></trkpt><trkpt lat="43.8665981" lon="11.1855612"><ele>143.4</ele><time>2026-05-02T11:17:38.955Z</time></trkpt><trkpt lat="43.866596" lon="11.1854156"><ele>138.8</ele><time>2026-05-02T11:17:39.956Z</time></trkpt><trkpt lat="43.8666052" lon="11.1852672"><ele>134.2</ele><time>2026-05-02T11:17:40.948Z</time></trkpt><trkpt lat="43.8666056" lon="11.1851484"><ele>129.6</ele><time>2026-05-02T11:17:41.96Z</time></trkpt><trkpt lat="43.8665646" lon="11.1850043"><ele>125.0</ele><time>2026-05-02T11:17:43.948Z</time></trkpt><trkpt lat="43.866497" lon="11.185015"><ele>125.0</ele><time>2026-05-02T11:17:44.968Z</time></trkpt><trkpt lat="43.866408" lon="11.1850381"><ele>125.0</ele><time>2026-05-02T11:17:45.955Z</time></trkpt><trkpt lat="43.8663156" lon="11.1850687"><ele>125.0</ele><time>2026-05-02T11:17:46.954Z</time></trkpt><trkpt lat="43.8662074" lon="11.1851028"><ele>125.0</ele><time>2026-05-02T11:17:47.961Z</time></trkpt><trkpt lat="43.8661013" lon="11.1851229"><ele>125.0</ele><time>2026-05-02T11:17:48.956Z</time></trkpt><trkpt lat="43.8659987" lon="11.1851231"><ele>123.4</ele><time>2026-05-02T11:17:49.958Z</time></trkpt><trkpt lat="43.865896" lon="11.1851204"><ele>121.8</ele><time>2026-05-02T11:17:50.955Z</time></trkpt><trkpt lat="43.8657908" lon="11.1851073"><ele>120.19999999999999</ele><time>2026-05-02T11:17:51.961Z</time></trkpt><trkpt lat="43.8656806" lon="11.1850807"><ele>118.6</ele><time>2026-05-02T11:17:52.954Z</time></trkpt><trkpt lat="43.8655647" lon="11.1850467"><ele>117.0</ele><time>2026-05-02T11:17:53.962Z</time></trkpt><trkpt lat="43.8654491" lon="11.1850089"><ele>117.0</ele><time>2026-05-02T11:17:54.945Z</time></trkpt><trkpt lat="43.865321" lon="11.1849589"><ele>117.0</ele><time>2026-05-02T11:17:55.934Z</time></trkpt><trkpt lat="43.865195" lon="11.1849009"><ele>117.0</ele><time>2026-05-02T11:17:56.94Z</time></trkpt><trkpt lat="43.8650753" lon="11.184847"><ele>117.0</ele><time>2026-05-02T11:17:57.951Z</time></trkpt><trkpt lat="43.8649872" lon="11.1848156"><ele>115.39999999999999</ele><time>2026-05-02T11:17:58.951Z</time></trkpt><trkpt lat="43.8649103" lon="11.1847796"><ele>113.79999999999998</ele><time>2026-05-02T11:18:00.952Z</time></trkpt><trkpt lat="43.8648637" lon="11.1848504"><ele>112.2</ele><time>2026-05-02T11:18:05.945Z</time></trkpt><trkpt lat="43.8648612" lon="11.1850338"><ele>110.6</ele><time>2026-05-02T11:18:07.951Z</time></trkpt><trkpt lat="43.8648645" lon="11.1851636"><ele>109.0</ele><time>2026-05-02T11:18:08.957Z</time></trkpt><trkpt lat="43.8648636" lon="11.1853055"><ele>109.0</ele><time>2026-05-02T11:18:09.964Z</time></trkpt><trkpt lat="43.8648641" lon="11.1854617"><ele>109.0</ele><time>2026-05-02T11:18:10.958Z</time></trkpt><trkpt lat="43.8648658" lon="11.1856182"><ele>109.0</ele><time>2026-05-02T11:18:11.942Z</time></trkpt><trkpt lat="43.8648679" lon="11.185796"><ele>109.0</ele><time>2026-05-02T11:18:12.952Z</time></trkpt><trkpt lat="43.8648696" lon="11.1859803"><ele>109.0</ele><time>2026-05-02T11:18:13.964Z</time></trkpt><trkpt lat="43.8648662" lon="11.1861776"><ele>109.0</ele><time>2026-05-02T11:18:14.956Z</time></trkpt><trkpt lat="43.8648684" lon="11.1863829"><ele>109.0</ele><time>2026-05-02T11:18:15.958Z</time></trkpt><trkpt lat="43.8648723" lon="11.1865864"><ele>109.0</ele><time>2026-05-02T11:18:16.952Z</time></trkpt><trkpt lat="43.8648749" lon="11.1867906"><ele>109.0</ele><time>2026-05-02T11:18:17.952Z</time></trkpt><trkpt lat="43.8648755" lon="11.1869863"><ele>109.0</ele><time>2026-05-02T11:18:18.95Z</time></trkpt><trkpt lat="43.8648766" lon="11.1871808"><ele>109.0</ele><time>2026-05-02T11:18:19.945Z</time></trkpt><trkpt lat="43.8648841" lon="11.1873655"><ele>109.0</ele><time>2026-05-02T11:18:20.944Z</time></trkpt><trkpt lat="43.864887" lon="11.1875454"><ele>109.4</ele><time>2026-05-02T11:18:21.958Z</time></trkpt><trkpt lat="43.8648923" lon="11.1877173"><ele>109.80000000000001</ele><time>2026-05-02T11:18:22.952Z</time></trkpt><trkpt lat="43.8648957" lon="11.1878806"><ele>110.19999999999999</ele><time>2026-05-02T11:18:23.959Z</time></trkpt><trkpt lat="43.8649009" lon="11.1880281"><ele>110.6</ele><time>2026-05-02T11:18:24.947Z</time></trkpt><trkpt lat="43.8649079" lon="11.1881569"><ele>111.0</ele><time>2026-05-02T11:18:25.953Z</time></trkpt><trkpt lat="43.86491" lon="11.1882697"><ele>111.75</ele><time>2026-05-02T11:18:26.953Z</time></trkpt><trkpt lat="43.8648337" lon="11.188413"><ele>112.5</ele><time>2026-05-02T11:18:28.956Z</time></trkpt><trkpt lat="43.8647396" lon="11.1884774"><ele>113.25</ele><time>2026-05-02T11:18:29.961Z</time></trkpt><trkpt lat="43.8646407" lon="11.1885337"><ele>114.0</ele><time>2026-05-02T11:18:30.96Z</time></trkpt><trkpt lat="43.8645368" lon="11.1885964"><ele>114.0</ele><time>2026-05-02T11:18:31.94Z</time></trkpt><trkpt lat="43.8644102" lon="11.1886322"><ele>114.0</ele><time>2026-05-02T11:18:32.963Z</time></trkpt><trkpt lat="43.8642576" lon="11.188646"><ele>114.0</ele><time>2026-05-02T11:18:33.952Z</time></trkpt><trkpt lat="43.8641033" lon="11.1886791"><ele>114.0</ele><time>2026-05-02T11:18:34.953Z</time></trkpt><trkpt lat="43.8639588" lon="11.1887152"><ele>112.25</ele><time>2026-05-02T11:18:35.956Z</time></trkpt><trkpt lat="43.8638209" lon="11.1887451"><ele>110.5</ele><time>2026-05-02T11:18:36.953Z</time></trkpt><trkpt lat="43.8636854" lon="11.1887726"><ele>108.75</ele><time>2026-05-02T11:18:37.958Z</time></trkpt><trkpt lat="43.863572" lon="11.188799"><ele>107.0</ele><time>2026-05-02T11:18:38.956Z</time></trkpt><trkpt lat="43.8634845" lon="11.1888371"><ele>106.8</ele><time>2026-05-02T11:18:39.94Z</time></trkpt><trkpt lat="43.8634287" lon="11.1888878"><ele>106.6</ele><time>2026-05-02T11:18:41.013Z</time></trkpt><trkpt lat="43.8634048" lon="11.1889901"><ele>106.39999999999999</ele><time>2026-05-02T11:18:42.033Z</time></trkpt><trkpt lat="43.8633896" lon="11.1890837"><ele>106.19999999999999</ele><time>2026-05-02T11:18:42.97Z</time></trkpt><trkpt lat="43.8632921" lon="11.1892028"><ele>106.0</ele><time>2026-05-02T11:18:44.959Z</time></trkpt><trkpt lat="43.86318" lon="11.1891949"><ele>106.0</ele><time>2026-05-02T11:18:46.041Z</time></trkpt><trkpt lat="43.8630609" lon="11.1891684"><ele>106.0</ele><time>2026-05-02T11:18:47.022Z</time></trkpt><trkpt lat="43.8629492" lon="11.1891422"><ele>106.0</ele><time>2026-05-02T11:18:47.966Z</time></trkpt><trkpt lat="43.8628292" lon="11.1891201"><ele>106.0</ele><time>2026-05-02T11:18:48.962Z</time></trkpt><trkpt lat="43.8626933" lon="11.1891032"><ele>106.0</ele><time>2026-05-02T11:18:49.988Z</time></trkpt><trkpt lat="43.8625743" lon="11.1890502"><ele>106.0</ele><time>2026-05-02T11:18:51.017Z</time></trkpt><trkpt lat="43.862468" lon="11.1889783"><ele>106.0</ele><time>2026-05-02T11:18:52.035Z</time></trkpt><trkpt lat="43.86237" lon="11.1888834"><ele>106.0</ele><time>2026-05-02T11:18:52.95Z</time></trkpt><trkpt lat="43.8622795" lon="11.1887774"><ele>106.0</ele><time>2026-05-02T11:18:53.954Z</time></trkpt><trkpt lat="43.8622043" lon="11.1886674"><ele>106.0</ele><time>2026-05-02T11:18:54.966Z</time></trkpt><trkpt lat="43.8621302" lon="11.1885404"><ele>106.0</ele><time>2026-05-02T11:18:55.959Z</time></trkpt><trkpt lat="43.8620852" lon="11.1884048"><ele>106.0</ele><time>2026-05-02T11:18:57.041Z</time></trkpt><trkpt lat="43.8620625" lon="11.1882552"><ele>106.0</ele><time>2026-05-02T11:18:57.968Z</time></trkpt><trkpt lat="43.8620313" lon="11.1880943"><ele>106.0</ele><time>2026-05-02T11:18:58.969Z</time></trkpt><trkpt lat="43.8619748" lon="11.187931"><ele>106.0</ele><time>2026-05-02T11:19:00.001Z</time></trkpt><trkpt lat="43.861888" lon="11.1877681"><ele>106.0</ele><time>2026-05-02T11:19:01.031Z</time></trkpt><trkpt lat="43.8617961" lon="11.18761"><ele>106.0</ele><time>2026-05-02T11:19:02.032Z</time></trkpt><trkpt lat="43.8617047" lon="11.187442"><ele>104.75</ele><time>2026-05-02T11:19:02.958Z</time></trkpt><trkpt lat="43.8616141" lon="11.1872807"><ele>103.5</ele><time>2026-05-02T11:19:03.967Z</time></trkpt><trkpt lat="43.8615258" lon="11.1871269"><ele>102.25</ele><time>2026-05-02T11:19:04.952Z</time></trkpt><trkpt lat="43.8614369" lon="11.186982"><ele>101.0</ele><time>2026-05-02T11:19:06.048Z</time></trkpt><trkpt lat="43.8613507" lon="11.1868382"><ele>101.0</ele><time>2026-05-02T11:19:07.033Z</time></trkpt><trkpt lat="43.8612638" lon="11.1866949"><ele>101.0</ele><time>2026-05-02T11:19:07.97Z</time></trkpt><trkpt lat="43.8611791" lon="11.1865572"><ele>101.0</ele><time>2026-05-02T11:19:08.958Z</time></trkpt><trkpt lat="43.8610933" lon="11.1864224"><ele>101.0</ele><time>2026-05-02T11:19:09.959Z</time></trkpt><trkpt lat="43.8610132" lon="11.1862881"><ele>101.0</ele><time>2026-05-02T11:19:10.961Z</time></trkpt><trkpt lat="43.8609428" lon="11.1861431"><ele>101.0</ele><time>2026-05-02T11:19:11.959Z</time></trkpt><trkpt lat="43.860888" lon="11.1859988"><ele>101.0</ele><time>2026-05-02T11:19:12.965Z</time></trkpt><trkpt lat="43.8608443" lon="11.1858473"><ele>101.0</ele><time>2026-05-02T11:19:14.038Z</time></trkpt><trkpt lat="43.8607931" lon="11.1856878"><ele>100.5</ele><time>2026-05-02T11:19:14.95Z</time></trkpt><trkpt lat="43.8607266" lon="11.1855344"><ele>100.0</ele><time>2026-05-02T11:19:15.948Z</time></trkpt><trkpt lat="43.860642" lon="11.1853803"><ele>99.5</ele><time>2026-05-02T11:19:16.949Z</time></trkpt><trkpt lat="43.8605708" lon="11.1852275"><ele>99.0</ele><time>2026-05-02T11:19:17.962Z</time></trkpt><trkpt lat="43.8604978" lon="11.1850677"><ele>99.0</ele><time>2026-05-02T11:19:18.954Z</time></trkpt><trkpt lat="43.8604171" lon="11.184917"><ele>99.0</ele><time>2026-05-02T11:19:19.975Z</time></trkpt><trkpt lat="43.8603283" lon="11.1847812"><ele>99.0</ele><time>2026-05-02T11:19:20.96Z</time></trkpt><trkpt lat="43.8602282" lon="11.1846698"><ele>99.0</ele><time>2026-05-02T11:19:21.958Z</time></trkpt><trkpt lat="43.8601064" lon="11.184551"><ele>98.5</ele><time>2026-05-02T11:19:22.954Z</time></trkpt><trkpt lat="43.8599867" lon="11.1844365"><ele>98.0</ele><time>2026-05-02T11:19:23.961Z</time></trkpt><trkpt lat="43.8598665" lon="11.184317"><ele>97.5</ele><time>2026-05-02T11:19:24.967Z</time></trkpt><trkpt lat="43.8597444" lon="11.184189"><ele>97.0</ele><time>2026-05-02T11:19:25.967Z</time></trkpt><trkpt lat="43.8596186" lon="11.1840577"><ele>96.0</ele><time>2026-05-02T11:19:26.962Z</time></trkpt><trkpt lat="43.8594943" lon="11.1839266"><ele>95.0</ele><time>2026-05-02T11:19:27.967Z</time></trkpt><trkpt lat="43.8593656" lon="11.1837945"><ele>94.0</ele><time>2026-05-02T11:19:29.038Z</time></trkpt><trkpt lat="43.85924" lon="11.1836658"><ele>94.0</ele><time>2026-05-02T11:19:30.017Z</time></trkpt><trkpt lat="43.859124" lon="11.1835472"><ele>94.0</ele><time>2026-05-02T11:19:30.953Z</time></trkpt><trkpt lat="43.8589994" lon="11.1834255"><ele>94.0</ele><time>2026-05-02T11:19:31.957Z</time></trkpt><trkpt lat="43.8588774" lon="11.1833035"><ele>94.0</ele><time>2026-05-02T11:19:32.964Z</time></trkpt><trkpt lat="43.8587576" lon="11.1831785"><ele>92.75</ele><time>2026-05-02T11:19:33.961Z</time></trkpt><trkpt lat="43.8586361" lon="11.1830531"><ele>91.5</ele><time>2026-05-02T11:19:35.016Z</time></trkpt><trkpt lat="43.8585155" lon="11.1829356"><ele>90.25</ele><time>2026-05-02T11:19:35.955Z</time></trkpt><trkpt lat="43.8583901" lon="11.1828245"><ele>89.0</ele><time>2026-05-02T11:19:36.959Z</time></trkpt><trkpt lat="43.8582639" lon="11.1827198"><ele>89.0</ele><time>2026-05-02T11:19:37.956Z</time></trkpt><trkpt lat="43.8581375" lon="11.1826209"><ele>89.0</ele><time>2026-05-02T11:19:38.963Z</time></trkpt><trkpt lat="43.8580195" lon="11.182528"><ele>89.0</ele><time>2026-05-02T11:19:39.962Z</time></trkpt><trkpt lat="43.8579007" lon="11.1824439"><ele>89.0</ele><time>2026-05-02T11:19:41.028Z</time></trkpt><trkpt lat="43.857789" lon="11.182363"><ele>88.80000000000001</ele><time>2026-05-02T11:19:42.03Z</time></trkpt><trkpt lat="43.8576904" lon="11.1822842"><ele>88.60000000000001</ele><time>2026-05-02T11:19:42.957Z</time></trkpt><trkpt lat="43.8576033" lon="11.1821964"><ele>88.4</ele><time>2026-05-02T11:19:43.962Z</time></trkpt><trkpt lat="43.857517" lon="11.1821071"><ele>88.2</ele><time>2026-05-02T11:19:44.981Z</time></trkpt><trkpt lat="43.8574413" lon="11.1820164"><ele>88.0</ele><time>2026-05-02T11:19:45.981Z</time></trkpt><trkpt lat="43.8573797" lon="11.1819148"><ele>88.0</ele><time>2026-05-02T11:19:46.988Z</time></trkpt><trkpt lat="43.8573223" lon="11.1818141"><ele>88.0</ele><time>2026-05-02T11:19:47.961Z</time></trkpt><trkpt lat="43.8572557" lon="11.1817131"><ele>88.0</ele><time>2026-05-02T11:19:48.96Z</time></trkpt><trkpt lat="43.8571948" lon="11.1816042"><ele>88.0</ele><time>2026-05-02T11:19:49.955Z</time></trkpt><trkpt lat="43.8571504" lon="11.1814632"><ele>88.0</ele><time>2026-05-02T11:19:50.955Z</time></trkpt><trkpt lat="43.8571317" lon="11.1812939"><ele>86.5</ele><time>2026-05-02T11:19:51.961Z</time></trkpt><trkpt lat="43.8571371" lon="11.1811172"><ele>85.0</ele><time>2026-05-02T11:19:52.959Z</time></trkpt><trkpt lat="43.8571299" lon="11.1809219"><ele>83.5</ele><time>2026-05-02T11:19:53.967Z</time></trkpt><trkpt lat="43.8571217" lon="11.1807134"><ele>82.0</ele><time>2026-05-02T11:19:55.04Z</time></trkpt><trkpt lat="43.8571179" lon="11.1805194"><ele>82.0</ele><time>2026-05-02T11:19:55.955Z</time></trkpt><trkpt lat="43.8571246" lon="11.1803196"><ele>82.0</ele><time>2026-05-02T11:19:57.024Z</time></trkpt><trkpt lat="43.8571205" lon="11.1801298"><ele>82.0</ele><time>2026-05-02T11:19:57.966Z</time></trkpt><trkpt lat="43.8571183" lon="11.1799466"><ele>82.0</ele><time>2026-05-02T11:19:58.969Z</time></trkpt><trkpt lat="43.8571183" lon="11.1797783"><ele>81.39999999999999</ele><time>2026-05-02T11:19:59.975Z</time></trkpt><trkpt lat="43.8571195" lon="11.1796243"><ele>80.8</ele><time>2026-05-02T11:20:00.966Z</time></trkpt><trkpt lat="43.857117" lon="11.1794712"><ele>80.2</ele><time>2026-05-02T11:20:01.968Z</time></trkpt><trkpt lat="43.8571208" lon="11.1793371"><ele>79.6</ele><time>2026-05-02T11:20:02.969Z</time></trkpt><trkpt lat="43.8571239" lon="11.1792051"><ele>79.0</ele><time>2026-05-02T11:20:03.977Z</time></trkpt><trkpt lat="43.8571224" lon="11.1790931"><ele>78.5</ele><time>2026-05-02T11:20:04.966Z</time></trkpt><trkpt lat="43.857119" lon="11.1790047"><ele>78.0</ele><time>2026-05-02T11:20:06.031Z</time></trkpt><trkpt lat="43.8571141" lon="11.1789049"><ele>77.5</ele><time>2026-05-02T11:20:07.968Z</time></trkpt><trkpt lat="43.8570187" lon="11.1789008"><ele>77.0</ele><time>2026-05-02T11:20:12.036Z</time></trkpt><trkpt lat="43.8569176" lon="11.1789236"><ele>76.5</ele><time>2026-05-02T11:20:13.968Z</time></trkpt><trkpt lat="43.8568544" lon="11.1788876"><ele>76.0</ele><time>2026-05-02T11:20:17.038Z</time></trkpt><trkpt lat="43.8569056" lon="11.1789392"><ele>76.0</ele><time>2026-05-02T11:21:15.968Z</time></trkpt><trkpt lat="43.856858" lon="11.179004"><ele>76.0</ele><time>2026-05-02T11:21:18.968Z</time></trkpt><trkpt lat="43.8567935" lon="11.1790279"><ele>76.0</ele><time>2026-05-02T11:21:23.975Z</time></trkpt><trkpt lat="43.8568546" lon="11.1789917"><ele>76.0</ele><time>2026-05-02T11:24:25.946Z</time></trkpt><trkpt lat="43.8569312" lon="11.1789674"><ele>76.0</ele><time>2026-05-02T11:24:27.944Z</time></trkpt><trkpt lat="43.8569979" lon="11.1789402"><ele>76.0</ele><time>2026-05-02T11:24:29.949Z</time></trkpt><trkpt lat="43.8570605" lon="11.1788721"><ele>76.0</ele><time>2026-05-02T11:24:33.954Z</time></trkpt><trkpt lat="43.8571065" lon="11.1787768"><ele>76.0</ele><time>2026-05-02T11:24:35.95Z</time></trkpt><trkpt lat="43.8571395" lon="11.1786905"><ele>76.0</ele><time>2026-05-02T11:24:37.952Z</time></trkpt><trkpt lat="43.8570736" lon="11.1786503"><ele>76.0</ele><time>2026-05-02T11:24:45.943Z</time></trkpt><trkpt lat="43.8569944" lon="11.1786212"><ele>76.0</ele><time>2026-05-02T11:24:46.945Z</time></trkpt><trkpt lat="43.8569208" lon="11.1786292"><ele>76.0</ele><time>2026-05-02T11:24:47.942Z</time></trkpt><trkpt lat="43.8568379" lon="11.1786563"><ele>76.0</ele><time>2026-05-02T11:24:48.948Z</time></trkpt><trkpt lat="43.8567467" lon="11.1786852"><ele>75.6</ele><time>2026-05-02T11:24:49.946Z</time></trkpt><trkpt lat="43.8566437" lon="11.1787232"><ele>75.19999999999999</ele><time>2026-05-02T11:24:50.954Z</time></trkpt><trkpt lat="43.8565388" lon="11.1787621"><ele>74.80000000000001</ele><time>2026-05-02T11:24:51.962Z</time></trkpt><trkpt lat="43.8564406" lon="11.1788111"><ele>74.4</ele><time>2026-05-02T11:24:52.961Z</time></trkpt><trkpt lat="43.8563339" lon="11.1788576"><ele>74.0</ele><time>2026-05-02T11:24:53.948Z</time></trkpt><trkpt lat="43.8562322" lon="11.1788942"><ele>74.0</ele><time>2026-05-02T11:24:54.943Z</time></trkpt><trkpt lat="43.8561318" lon="11.1789263"><ele>74.0</ele><time>2026-05-02T11:24:55.944Z</time></trkpt><trkpt lat="43.8560273" lon="11.1789539"><ele>74.0</ele><time>2026-05-02T11:24:56.939Z</time></trkpt><trkpt lat="43.8559228" lon="11.1789825"><ele>74.0</ele><time>2026-05-02T11:24:57.938Z</time></trkpt><trkpt lat="43.8558131" lon="11.1790017"><ele>74.0</ele><time>2026-05-02T11:24:58.951Z</time></trkpt><trkpt lat="43.855708" lon="11.1789999"><ele>74.0</ele><time>2026-05-02T11:24:59.964Z</time></trkpt><trkpt lat="43.8555984" lon="11.1789997"><ele>74.0</ele><time>2026-05-02T11:25:00.964Z</time></trkpt><trkpt lat="43.8554895" lon="11.1789941"><ele>74.0</ele><time>2026-05-02T11:25:01.968Z</time></trkpt><trkpt lat="43.8553672" lon="11.179008"><ele>74.0</ele><time>2026-05-02T11:25:02.962Z</time></trkpt><trkpt lat="43.8552493" lon="11.1790277"><ele>74.0</ele><time>2026-05-02T11:25:03.968Z</time></trkpt><trkpt lat="43.8551477" lon="11.1790407"><ele>74.0</ele><time>2026-05-02T11:25:04.966Z</time></trkpt><trkpt lat="43.8550603" lon="11.1790549"><ele>74.0</ele><time>2026-05-02T11:25:05.957Z</time></trkpt><trkpt lat="43.8549946" lon="11.1790839"><ele>74.0</ele><time>2026-05-02T11:25:06.96Z</time></trkpt><trkpt lat="43.8549184" lon="11.1791781"><ele>74.0</ele><time>2026-05-02T11:25:08.967Z</time></trkpt><trkpt lat="43.8548895" lon="11.1792798"><ele>74.0</ele><time>2026-05-02T11:25:09.973Z</time></trkpt><trkpt lat="43.8548662" lon="11.1793831"><ele>73.83333333333334</ele><time>2026-05-02T11:25:10.968Z</time></trkpt><trkpt lat="43.8548316" lon="11.1794627"><ele>73.66666666666667</ele><time>2026-05-02T11:25:11.973Z</time></trkpt><trkpt lat="43.854775" lon="11.1795122"><ele>73.5</ele><time>2026-05-02T11:25:12.98Z</time></trkpt><trkpt lat="43.8547001" lon="11.1795542"><ele>73.33333333333333</ele><time>2026-05-02T11:25:13.961Z</time></trkpt><trkpt lat="43.8546118" lon="11.1795595"><ele>73.16666666666666</ele><time>2026-05-02T11:25:14.965Z</time></trkpt><trkpt lat="43.8545201" lon="11.179576"><ele>73.0</ele><time>2026-05-02T11:25:15.961Z</time></trkpt><trkpt lat="43.8544279" lon="11.1796571"><ele>73.0</ele><time>2026-05-02T11:25:16.974Z</time></trkpt><trkpt lat="43.8543398" lon="11.1797404"><ele>73.0</ele><time>2026-05-02T11:25:17.965Z</time></trkpt><trkpt lat="43.854259" lon="11.1798299"><ele>73.0</ele><time>2026-05-02T11:25:18.955Z</time></trkpt><trkpt lat="43.8541714" lon="11.1799184"><ele>73.0</ele><time>2026-05-02T11:25:19.967Z</time></trkpt><trkpt lat="43.8540784" lon="11.1800044"><ele>73.0</ele><time>2026-05-02T11:25:20.981Z</time></trkpt><trkpt lat="43.853998" lon="11.1800812"><ele>75.0</ele><time>2026-05-02T11:25:21.971Z</time></trkpt><trkpt lat="43.8539238" lon="11.1801602"><ele>77.0</ele><time>2026-05-02T11:25:22.965Z</time></trkpt><trkpt lat="43.8538543" lon="11.1802421"><ele>79.0</ele><time>2026-05-02T11:25:23.952Z</time></trkpt><trkpt lat="43.8537929" lon="11.1803467"><ele>81.0</ele><time>2026-05-02T11:25:24.968Z</time></trkpt><trkpt lat="43.8537228" lon="11.1804507"><ele>83.0</ele><time>2026-05-02T11:25:25.966Z</time></trkpt><trkpt lat="43.8536469" lon="11.1805649"><ele>83.0</ele><time>2026-05-02T11:25:26.956Z</time></trkpt><trkpt lat="43.8535695" lon="11.1806752"><ele>83.0</ele><time>2026-05-02T11:25:27.968Z</time></trkpt><trkpt lat="43.8534938" lon="11.1807993"><ele>83.0</ele><time>2026-05-02T11:25:28.959Z</time></trkpt><trkpt lat="43.8534175" lon="11.1809231"><ele>83.0</ele><time>2026-05-02T11:25:29.964Z</time></trkpt><trkpt lat="43.8533481" lon="11.1810562"><ele>84.0</ele><time>2026-05-02T11:25:30.962Z</time></trkpt><trkpt lat="43.8532869" lon="11.1811928"><ele>85.0</ele><time>2026-05-02T11:25:31.962Z</time></trkpt><trkpt lat="43.8532236" lon="11.1813272"><ele>86.0</ele><time>2026-05-02T11:25:32.957Z</time></trkpt><trkpt lat="43.8531496" lon="11.1814464"><ele>87.0</ele><time>2026-05-02T11:25:33.962Z</time></trkpt><trkpt lat="43.8530742" lon="11.1815497"><ele>89.5</ele><time>2026-05-02T11:25:34.965Z</time></trkpt><trkpt lat="43.8530008" lon="11.1816471"><ele>92.0</ele><time>2026-05-02T11:25:35.961Z</time></trkpt><trkpt lat="43.8529405" lon="11.1817569"><ele>94.5</ele><time>2026-05-02T11:25:36.966Z</time></trkpt><trkpt lat="43.8529002" lon="11.1818591"><ele>97.0</ele><time>2026-05-02T11:25:37.963Z</time></trkpt><trkpt lat="43.8528638" lon="11.1819586"><ele>99.5</ele><time>2026-05-02T11:25:39.965Z</time></trkpt><trkpt lat="43.8527882" lon="11.1819994"><ele>102.0</ele><time>2026-05-02T11:25:41.966Z</time></trkpt><trkpt lat="43.8527128" lon="11.1820605"><ele>102.0</ele><time>2026-05-02T11:25:43.966Z</time></trkpt><trkpt lat="43.8526317" lon="11.1821309"><ele>102.0</ele><time>2026-05-02T11:25:45.969Z</time></trkpt><trkpt lat="43.8525433" lon="11.1821945"><ele>102.0</ele><time>2026-05-02T11:25:47.946Z</time></trkpt><trkpt lat="43.8524741" lon="11.1822507"><ele>102.0</ele><time>2026-05-02T11:25:49.964Z</time></trkpt><trkpt lat="43.8524107" lon="11.1823041"><ele>102.0</ele><time>2026-05-02T11:25:51.96Z</time></trkpt><trkpt lat="43.8523351" lon="11.1823653"><ele>102.0</ele><time>2026-05-02T11:25:53.962Z</time></trkpt><trkpt lat="43.8522768" lon="11.1824367"><ele>101.83333333333333</ele><time>2026-05-02T11:25:55.967Z</time></trkpt><trkpt lat="43.8521847" lon="11.1824061"><ele>101.66666666666666</ele><time>2026-05-02T11:25:58.957Z</time></trkpt><trkpt lat="43.8521332" lon="11.182345"><ele>101.5</ele><time>2026-05-02T11:25:59.957Z</time></trkpt><trkpt lat="43.8520895" lon="11.1822589"><ele>101.33333333333333</ele><time>2026-05-02T11:26:00.953Z</time></trkpt><trkpt lat="43.8520401" lon="11.1821669"><ele>101.16666666666666</ele><time>2026-05-02T11:26:01.947Z</time></trkpt><trkpt lat="43.8519838" lon="11.1820812"><ele>101.0</ele><time>2026-05-02T11:26:02.959Z</time></trkpt><trkpt lat="43.8519226" lon="11.1820354"><ele>98.49999999999999</ele><time>2026-05-02T11:26:03.962Z</time></trkpt><trkpt lat="43.8518227" lon="11.1820665"><ele>96.0</ele><time>2026-05-02T11:26:05.972Z</time></trkpt><trkpt lat="43.8517864" lon="11.1821443"><ele>93.5</ele><time>2026-05-02T11:26:06.966Z</time></trkpt><trkpt lat="43.8517529" lon="11.1822347"><ele>91.0</ele><time>2026-05-02T11:26:07.945Z</time></trkpt><trkpt lat="43.8517303" lon="11.1823275"><ele>88.5</ele><time>2026-05-02T11:26:08.956Z</time></trkpt><trkpt lat="43.8516887" lon="11.1824602"><ele>86.0</ele><time>2026-05-02T11:26:10.966Z</time></trkpt><trkpt lat="43.8516309" lon="11.1824959"><ele>85.19999999999999</ele><time>2026-05-02T11:26:12.96Z</time></trkpt><trkpt lat="43.8515457" lon="11.1824226"><ele>84.39999999999999</ele><time>2026-05-02T11:26:14.966Z</time></trkpt><trkpt lat="43.8515444" lon="11.1822791"><ele>83.6</ele><time>2026-05-02T11:26:16.973Z</time></trkpt><trkpt lat="43.851544" lon="11.1821741"><ele>82.8</ele><time>2026-05-02T11:26:17.957Z</time></trkpt><trkpt lat="43.8515535" lon="11.1820735"><ele>82.0</ele><time>2026-05-02T11:26:18.963Z</time></trkpt><trkpt lat="43.851582" lon="11.1819411"><ele>78.0</ele><time>2026-05-02T11:26:20.965Z</time></trkpt><trkpt lat="43.8516466" lon="11.1819839"><ele>78.0</ele><time>2026-05-02T11:27:43.938Z</time></trkpt><trkpt lat="43.8516869" lon="11.1818951"><ele>78.0</ele><time>2026-05-02T11:27:56.94Z</time></trkpt><trkpt lat="43.8516735" lon="11.1818025"><ele>78.0</ele><time>2026-05-02T11:27:59.94Z</time></trkpt><trkpt lat="43.8516717" lon="11.1816988"><ele>78.0</ele><time>2026-05-02T11:28:02.938Z</time></trkpt><trkpt lat="43.8517151" lon="11.1817701"><ele>78.0</ele><time>2026-05-02T11:28:09.944Z</time></trkpt><trkpt lat="43.8517867" lon="11.1818104"><ele>78.0</ele><time>2026-05-02T11:28:13.935Z</time></trkpt></trkseg></trk></gpx>